<?xml version="1.0" encoding="UTF-8"?>
<gpx xmlns="http://www.topografix.com/GPX/1/1"
     creator="GpsDump 4.92"
     version="1.1"
     xmlns:xsi="http://www.w3.org/2001/XMLSchema-instance"
     xsi:schemaLocation="http://www.topografix.com/GPX/1/1 http://www.topografix.com/GPX/1/1/gpx.xsd">
  <metadata>
    <link href="http://www.gethome.no/stein.sorensen/">
      <text>GPS dump for www.flightlog.org</text>
    </link>
    <time>2016-06-12T09:08:53Z</time>
    <bounds minlat="40.421583" minlon="-5.301567" maxlat="40.548617" maxlon="-4.593550"/>
  </metadata>
  <trk>
    <name>Track 001</name>
    <trkseg>
      <trkpt lat="40.421583" lon="-5.301500">
        <ele>1925.0</ele>
        <time>2016-06-11T12:26:31Z</time>
      </trkpt>
      <trkpt lat="40.421633" lon="-5.301500">
        <ele>1924.0</ele>
        <time>2016-06-11T12:26:32Z</time>
      </trkpt>
      <trkpt lat="40.421667" lon="-5.301483">
        <ele>1924.0</ele>
        <time>2016-06-11T12:26:33Z</time>
      </trkpt>
      <trkpt lat="40.421717" lon="-5.301467">
        <ele>1923.0</ele>
        <time>2016-06-11T12:26:34Z</time>
      </trkpt>
      <trkpt lat="40.421767" lon="-5.301450">
        <ele>1924.0</ele>
        <time>2016-06-11T12:26:35Z</time>
      </trkpt>
      <trkpt lat="40.421800" lon="-5.301417">
        <ele>1924.0</ele>
        <time>2016-06-11T12:26:36Z</time>
      </trkpt>
      <trkpt lat="40.421833" lon="-5.301400">
        <ele>1923.0</ele>
        <time>2016-06-11T12:26:37Z</time>
      </trkpt>
      <trkpt lat="40.421883" lon="-5.301383">
        <ele>1922.0</ele>
        <time>2016-06-11T12:26:38Z</time>
      </trkpt>
      <trkpt lat="40.421933" lon="-5.301383">
        <ele>1922.0</ele>
        <time>2016-06-11T12:26:39Z</time>
      </trkpt>
      <trkpt lat="40.422000" lon="-5.301367">
        <ele>1921.0</ele>
        <time>2016-06-11T12:26:40Z</time>
      </trkpt>
      <trkpt lat="40.422050" lon="-5.301333">
        <ele>1921.0</ele>
        <time>2016-06-11T12:26:41Z</time>
      </trkpt>
      <trkpt lat="40.422100" lon="-5.301317">
        <ele>1922.0</ele>
        <time>2016-06-11T12:26:42Z</time>
      </trkpt>
      <trkpt lat="40.422150" lon="-5.301283">
        <ele>1923.0</ele>
        <time>2016-06-11T12:26:43Z</time>
      </trkpt>
      <trkpt lat="40.422200" lon="-5.301250">
        <ele>1924.0</ele>
        <time>2016-06-11T12:26:44Z</time>
      </trkpt>
      <trkpt lat="40.422233" lon="-5.301233">
        <ele>1923.0</ele>
        <time>2016-06-11T12:26:45Z</time>
      </trkpt>
      <trkpt lat="40.422283" lon="-5.301217">
        <ele>1923.0</ele>
        <time>2016-06-11T12:26:46Z</time>
      </trkpt>
      <trkpt lat="40.422350" lon="-5.301183">
        <ele>1922.0</ele>
        <time>2016-06-11T12:26:47Z</time>
      </trkpt>
      <trkpt lat="40.422400" lon="-5.301167">
        <ele>1922.0</ele>
        <time>2016-06-11T12:26:48Z</time>
      </trkpt>
      <trkpt lat="40.422450" lon="-5.301133">
        <ele>1923.0</ele>
        <time>2016-06-11T12:26:49Z</time>
      </trkpt>
      <trkpt lat="40.422500" lon="-5.301117">
        <ele>1923.0</ele>
        <time>2016-06-11T12:26:50Z</time>
      </trkpt>
      <trkpt lat="40.422550" lon="-5.301117">
        <ele>1923.0</ele>
        <time>2016-06-11T12:26:51Z</time>
      </trkpt>
      <trkpt lat="40.422600" lon="-5.301117">
        <ele>1922.0</ele>
        <time>2016-06-11T12:26:52Z</time>
      </trkpt>
      <trkpt lat="40.422650" lon="-5.301100">
        <ele>1922.0</ele>
        <time>2016-06-11T12:26:53Z</time>
      </trkpt>
      <trkpt lat="40.422700" lon="-5.301067">
        <ele>1920.0</ele>
        <time>2016-06-11T12:26:54Z</time>
      </trkpt>
      <trkpt lat="40.422733" lon="-5.301050">
        <ele>1919.0</ele>
        <time>2016-06-11T12:26:55Z</time>
      </trkpt>
      <trkpt lat="40.422783" lon="-5.301050">
        <ele>1919.0</ele>
        <time>2016-06-11T12:26:56Z</time>
      </trkpt>
      <trkpt lat="40.422850" lon="-5.301033">
        <ele>1919.0</ele>
        <time>2016-06-11T12:26:57Z</time>
      </trkpt>
      <trkpt lat="40.422917" lon="-5.301017">
        <ele>1918.0</ele>
        <time>2016-06-11T12:26:58Z</time>
      </trkpt>
      <trkpt lat="40.422967" lon="-5.301000">
        <ele>1918.0</ele>
        <time>2016-06-11T12:26:59Z</time>
      </trkpt>
      <trkpt lat="40.423017" lon="-5.300983">
        <ele>1917.0</ele>
        <time>2016-06-11T12:27:00Z</time>
      </trkpt>
      <trkpt lat="40.423050" lon="-5.300983">
        <ele>1918.0</ele>
        <time>2016-06-11T12:27:01Z</time>
      </trkpt>
      <trkpt lat="40.423083" lon="-5.301000">
        <ele>1918.0</ele>
        <time>2016-06-11T12:27:02Z</time>
      </trkpt>
      <trkpt lat="40.423117" lon="-5.301017">
        <ele>1918.0</ele>
        <time>2016-06-11T12:27:03Z</time>
      </trkpt>
      <trkpt lat="40.423183" lon="-5.301033">
        <ele>1918.0</ele>
        <time>2016-06-11T12:27:04Z</time>
      </trkpt>
      <trkpt lat="40.423233" lon="-5.301033">
        <ele>1919.0</ele>
        <time>2016-06-11T12:27:05Z</time>
      </trkpt>
      <trkpt lat="40.423300" lon="-5.301033">
        <ele>1920.0</ele>
        <time>2016-06-11T12:27:06Z</time>
      </trkpt>
      <trkpt lat="40.423350" lon="-5.301017">
        <ele>1921.0</ele>
        <time>2016-06-11T12:27:07Z</time>
      </trkpt>
      <trkpt lat="40.423433" lon="-5.301000">
        <ele>1924.0</ele>
        <time>2016-06-11T12:27:08Z</time>
      </trkpt>
      <trkpt lat="40.423483" lon="-5.300983">
        <ele>1925.0</ele>
        <time>2016-06-11T12:27:09Z</time>
      </trkpt>
      <trkpt lat="40.423533" lon="-5.300967">
        <ele>1927.0</ele>
        <time>2016-06-11T12:27:10Z</time>
      </trkpt>
      <trkpt lat="40.423583" lon="-5.300950">
        <ele>1928.0</ele>
        <time>2016-06-11T12:27:11Z</time>
      </trkpt>
      <trkpt lat="40.423633" lon="-5.300950">
        <ele>1929.0</ele>
        <time>2016-06-11T12:27:12Z</time>
      </trkpt>
      <trkpt lat="40.423683" lon="-5.300950">
        <ele>1930.0</ele>
        <time>2016-06-11T12:27:13Z</time>
      </trkpt>
      <trkpt lat="40.423717" lon="-5.300950">
        <ele>1931.0</ele>
        <time>2016-06-11T12:27:14Z</time>
      </trkpt>
      <trkpt lat="40.423733" lon="-5.300950">
        <ele>1931.0</ele>
        <time>2016-06-11T12:27:15Z</time>
      </trkpt>
      <trkpt lat="40.423767" lon="-5.300967">
        <ele>1931.0</ele>
        <time>2016-06-11T12:27:16Z</time>
      </trkpt>
      <trkpt lat="40.423800" lon="-5.300967">
        <ele>1931.0</ele>
        <time>2016-06-11T12:27:17Z</time>
      </trkpt>
      <trkpt lat="40.423833" lon="-5.300967">
        <ele>1931.0</ele>
        <time>2016-06-11T12:27:18Z</time>
      </trkpt>
      <trkpt lat="40.423883" lon="-5.300950">
        <ele>1931.0</ele>
        <time>2016-06-11T12:27:19Z</time>
      </trkpt>
      <trkpt lat="40.423950" lon="-5.300900">
        <ele>1931.0</ele>
        <time>2016-06-11T12:27:20Z</time>
      </trkpt>
      <trkpt lat="40.424000" lon="-5.300867">
        <ele>1932.0</ele>
        <time>2016-06-11T12:27:21Z</time>
      </trkpt>
      <trkpt lat="40.424050" lon="-5.300833">
        <ele>1933.0</ele>
        <time>2016-06-11T12:27:22Z</time>
      </trkpt>
      <trkpt lat="40.424117" lon="-5.300800">
        <ele>1933.0</ele>
        <time>2016-06-11T12:27:23Z</time>
      </trkpt>
      <trkpt lat="40.424167" lon="-5.300800">
        <ele>1935.0</ele>
        <time>2016-06-11T12:27:24Z</time>
      </trkpt>
      <trkpt lat="40.424233" lon="-5.300817">
        <ele>1937.0</ele>
        <time>2016-06-11T12:27:25Z</time>
      </trkpt>
      <trkpt lat="40.424267" lon="-5.300817">
        <ele>1940.0</ele>
        <time>2016-06-11T12:27:26Z</time>
      </trkpt>
      <trkpt lat="40.424300" lon="-5.300833">
        <ele>1943.0</ele>
        <time>2016-06-11T12:27:27Z</time>
      </trkpt>
      <trkpt lat="40.424317" lon="-5.300867">
        <ele>1945.0</ele>
        <time>2016-06-11T12:27:28Z</time>
      </trkpt>
      <trkpt lat="40.424317" lon="-5.300917">
        <ele>1946.0</ele>
        <time>2016-06-11T12:27:29Z</time>
      </trkpt>
      <trkpt lat="40.424300" lon="-5.300983">
        <ele>1947.0</ele>
        <time>2016-06-11T12:27:30Z</time>
      </trkpt>
      <trkpt lat="40.424267" lon="-5.301050">
        <ele>1948.0</ele>
        <time>2016-06-11T12:27:31Z</time>
      </trkpt>
      <trkpt lat="40.424217" lon="-5.301117">
        <ele>1950.0</ele>
        <time>2016-06-11T12:27:32Z</time>
      </trkpt>
      <trkpt lat="40.424133" lon="-5.301167">
        <ele>1951.0</ele>
        <time>2016-06-11T12:27:33Z</time>
      </trkpt>
      <trkpt lat="40.424050" lon="-5.301217">
        <ele>1952.0</ele>
        <time>2016-06-11T12:27:34Z</time>
      </trkpt>
      <trkpt lat="40.423950" lon="-5.301233">
        <ele>1953.0</ele>
        <time>2016-06-11T12:27:35Z</time>
      </trkpt>
      <trkpt lat="40.423833" lon="-5.301217">
        <ele>1952.0</ele>
        <time>2016-06-11T12:27:36Z</time>
      </trkpt>
      <trkpt lat="40.423717" lon="-5.301150">
        <ele>1952.0</ele>
        <time>2016-06-11T12:27:37Z</time>
      </trkpt>
      <trkpt lat="40.423617" lon="-5.301017">
        <ele>1951.0</ele>
        <time>2016-06-11T12:27:38Z</time>
      </trkpt>
      <trkpt lat="40.423567" lon="-5.300850">
        <ele>1949.0</ele>
        <time>2016-06-11T12:27:39Z</time>
      </trkpt>
      <trkpt lat="40.423583" lon="-5.300700">
        <ele>1948.0</ele>
        <time>2016-06-11T12:27:40Z</time>
      </trkpt>
      <trkpt lat="40.423617" lon="-5.300567">
        <ele>1947.0</ele>
        <time>2016-06-11T12:27:41Z</time>
      </trkpt>
      <trkpt lat="40.423683" lon="-5.300500">
        <ele>1947.0</ele>
        <time>2016-06-11T12:27:42Z</time>
      </trkpt>
      <trkpt lat="40.423733" lon="-5.300433">
        <ele>1948.0</ele>
        <time>2016-06-11T12:27:43Z</time>
      </trkpt>
      <trkpt lat="40.423767" lon="-5.300400">
        <ele>1950.0</ele>
        <time>2016-06-11T12:27:44Z</time>
      </trkpt>
      <trkpt lat="40.423800" lon="-5.300367">
        <ele>1951.0</ele>
        <time>2016-06-11T12:27:45Z</time>
      </trkpt>
      <trkpt lat="40.423833" lon="-5.300367">
        <ele>1952.0</ele>
        <time>2016-06-11T12:27:46Z</time>
      </trkpt>
      <trkpt lat="40.423883" lon="-5.300383">
        <ele>1952.0</ele>
        <time>2016-06-11T12:27:47Z</time>
      </trkpt>
      <trkpt lat="40.423933" lon="-5.300400">
        <ele>1953.0</ele>
        <time>2016-06-11T12:27:48Z</time>
      </trkpt>
      <trkpt lat="40.423983" lon="-5.300417">
        <ele>1954.0</ele>
        <time>2016-06-11T12:27:49Z</time>
      </trkpt>
      <trkpt lat="40.424017" lon="-5.300433">
        <ele>1956.0</ele>
        <time>2016-06-11T12:27:50Z</time>
      </trkpt>
      <trkpt lat="40.424050" lon="-5.300450">
        <ele>1958.0</ele>
        <time>2016-06-11T12:27:51Z</time>
      </trkpt>
      <trkpt lat="40.424083" lon="-5.300467">
        <ele>1959.0</ele>
        <time>2016-06-11T12:27:52Z</time>
      </trkpt>
      <trkpt lat="40.424117" lon="-5.300483">
        <ele>1960.0</ele>
        <time>2016-06-11T12:27:53Z</time>
      </trkpt>
      <trkpt lat="40.424167" lon="-5.300500">
        <ele>1961.0</ele>
        <time>2016-06-11T12:27:54Z</time>
      </trkpt>
      <trkpt lat="40.424217" lon="-5.300517">
        <ele>1963.0</ele>
        <time>2016-06-11T12:27:55Z</time>
      </trkpt>
      <trkpt lat="40.424250" lon="-5.300533">
        <ele>1965.0</ele>
        <time>2016-06-11T12:27:56Z</time>
      </trkpt>
      <trkpt lat="40.424283" lon="-5.300550">
        <ele>1967.0</ele>
        <time>2016-06-11T12:27:57Z</time>
      </trkpt>
      <trkpt lat="40.424317" lon="-5.300550">
        <ele>1967.0</ele>
        <time>2016-06-11T12:27:58Z</time>
      </trkpt>
      <trkpt lat="40.424350" lon="-5.300567">
        <ele>1969.0</ele>
        <time>2016-06-11T12:27:59Z</time>
      </trkpt>
      <trkpt lat="40.424417" lon="-5.300550">
        <ele>1970.0</ele>
        <time>2016-06-11T12:28:00Z</time>
      </trkpt>
      <trkpt lat="40.424483" lon="-5.300533">
        <ele>1973.0</ele>
        <time>2016-06-11T12:28:01Z</time>
      </trkpt>
      <trkpt lat="40.424533" lon="-5.300517">
        <ele>1977.0</ele>
        <time>2016-06-11T12:28:02Z</time>
      </trkpt>
      <trkpt lat="40.424583" lon="-5.300550">
        <ele>1981.0</ele>
        <time>2016-06-11T12:28:03Z</time>
      </trkpt>
      <trkpt lat="40.424617" lon="-5.300583">
        <ele>1984.0</ele>
        <time>2016-06-11T12:28:04Z</time>
      </trkpt>
      <trkpt lat="40.424650" lon="-5.300617">
        <ele>1987.0</ele>
        <time>2016-06-11T12:28:05Z</time>
      </trkpt>
      <trkpt lat="40.424667" lon="-5.300667">
        <ele>1989.0</ele>
        <time>2016-06-11T12:28:06Z</time>
      </trkpt>
      <trkpt lat="40.424700" lon="-5.300700">
        <ele>1990.0</ele>
        <time>2016-06-11T12:28:07Z</time>
      </trkpt>
      <trkpt lat="40.424733" lon="-5.300733">
        <ele>1991.0</ele>
        <time>2016-06-11T12:28:08Z</time>
      </trkpt>
      <trkpt lat="40.424767" lon="-5.300767">
        <ele>1992.0</ele>
        <time>2016-06-11T12:28:09Z</time>
      </trkpt>
      <trkpt lat="40.424817" lon="-5.300767">
        <ele>1993.0</ele>
        <time>2016-06-11T12:28:10Z</time>
      </trkpt>
      <trkpt lat="40.424850" lon="-5.300750">
        <ele>1993.0</ele>
        <time>2016-06-11T12:28:11Z</time>
      </trkpt>
      <trkpt lat="40.424900" lon="-5.300750">
        <ele>1994.0</ele>
        <time>2016-06-11T12:28:12Z</time>
      </trkpt>
      <trkpt lat="40.424933" lon="-5.300783">
        <ele>1994.0</ele>
        <time>2016-06-11T12:28:13Z</time>
      </trkpt>
      <trkpt lat="40.424967" lon="-5.300833">
        <ele>1993.0</ele>
        <time>2016-06-11T12:28:14Z</time>
      </trkpt>
      <trkpt lat="40.424983" lon="-5.300917">
        <ele>1993.0</ele>
        <time>2016-06-11T12:28:15Z</time>
      </trkpt>
      <trkpt lat="40.425000" lon="-5.301000">
        <ele>1994.0</ele>
        <time>2016-06-11T12:28:16Z</time>
      </trkpt>
      <trkpt lat="40.425017" lon="-5.301067">
        <ele>1995.0</ele>
        <time>2016-06-11T12:28:17Z</time>
      </trkpt>
      <trkpt lat="40.425017" lon="-5.301133">
        <ele>1995.0</ele>
        <time>2016-06-11T12:28:18Z</time>
      </trkpt>
      <trkpt lat="40.425017" lon="-5.301200">
        <ele>1994.0</ele>
        <time>2016-06-11T12:28:19Z</time>
      </trkpt>
      <trkpt lat="40.425017" lon="-5.301283">
        <ele>1992.0</ele>
        <time>2016-06-11T12:28:20Z</time>
      </trkpt>
      <trkpt lat="40.424983" lon="-5.301367">
        <ele>1991.0</ele>
        <time>2016-06-11T12:28:21Z</time>
      </trkpt>
      <trkpt lat="40.424933" lon="-5.301450">
        <ele>1990.0</ele>
        <time>2016-06-11T12:28:22Z</time>
      </trkpt>
      <trkpt lat="40.424850" lon="-5.301517">
        <ele>1989.0</ele>
        <time>2016-06-11T12:28:23Z</time>
      </trkpt>
      <trkpt lat="40.424750" lon="-5.301567">
        <ele>1988.0</ele>
        <time>2016-06-11T12:28:24Z</time>
      </trkpt>
      <trkpt lat="40.424650" lon="-5.301550">
        <ele>1987.0</ele>
        <time>2016-06-11T12:28:25Z</time>
      </trkpt>
      <trkpt lat="40.424533" lon="-5.301483">
        <ele>1985.0</ele>
        <time>2016-06-11T12:28:26Z</time>
      </trkpt>
      <trkpt lat="40.424450" lon="-5.301383">
        <ele>1983.0</ele>
        <time>2016-06-11T12:28:27Z</time>
      </trkpt>
      <trkpt lat="40.424400" lon="-5.301233">
        <ele>1982.0</ele>
        <time>2016-06-11T12:28:28Z</time>
      </trkpt>
      <trkpt lat="40.424383" lon="-5.301100">
        <ele>1981.0</ele>
        <time>2016-06-11T12:28:29Z</time>
      </trkpt>
      <trkpt lat="40.424383" lon="-5.300983">
        <ele>1980.0</ele>
        <time>2016-06-11T12:28:30Z</time>
      </trkpt>
      <trkpt lat="40.424417" lon="-5.300883">
        <ele>1980.0</ele>
        <time>2016-06-11T12:28:31Z</time>
      </trkpt>
      <trkpt lat="40.424450" lon="-5.300817">
        <ele>1982.0</ele>
        <time>2016-06-11T12:28:32Z</time>
      </trkpt>
      <trkpt lat="40.424450" lon="-5.300783">
        <ele>1982.0</ele>
        <time>2016-06-11T12:28:33Z</time>
      </trkpt>
      <trkpt lat="40.424467" lon="-5.300750">
        <ele>1983.0</ele>
        <time>2016-06-11T12:28:34Z</time>
      </trkpt>
      <trkpt lat="40.424517" lon="-5.300733">
        <ele>1983.0</ele>
        <time>2016-06-11T12:28:35Z</time>
      </trkpt>
      <trkpt lat="40.424567" lon="-5.300733">
        <ele>1982.0</ele>
        <time>2016-06-11T12:28:36Z</time>
      </trkpt>
      <trkpt lat="40.424600" lon="-5.300733">
        <ele>1982.0</ele>
        <time>2016-06-11T12:28:37Z</time>
      </trkpt>
      <trkpt lat="40.424650" lon="-5.300750">
        <ele>1983.0</ele>
        <time>2016-06-11T12:28:38Z</time>
      </trkpt>
      <trkpt lat="40.424700" lon="-5.300767">
        <ele>1984.0</ele>
        <time>2016-06-11T12:28:39Z</time>
      </trkpt>
      <trkpt lat="40.424733" lon="-5.300750">
        <ele>1984.0</ele>
        <time>2016-06-11T12:28:40Z</time>
      </trkpt>
      <trkpt lat="40.424767" lon="-5.300733">
        <ele>1984.0</ele>
        <time>2016-06-11T12:28:41Z</time>
      </trkpt>
      <trkpt lat="40.424800" lon="-5.300700">
        <ele>1983.0</ele>
        <time>2016-06-11T12:28:42Z</time>
      </trkpt>
      <trkpt lat="40.424850" lon="-5.300700">
        <ele>1981.0</ele>
        <time>2016-06-11T12:28:43Z</time>
      </trkpt>
      <trkpt lat="40.424883" lon="-5.300717">
        <ele>1981.0</ele>
        <time>2016-06-11T12:28:44Z</time>
      </trkpt>
      <trkpt lat="40.424917" lon="-5.300733">
        <ele>1982.0</ele>
        <time>2016-06-11T12:28:45Z</time>
      </trkpt>
      <trkpt lat="40.424933" lon="-5.300767">
        <ele>1984.0</ele>
        <time>2016-06-11T12:28:46Z</time>
      </trkpt>
      <trkpt lat="40.424933" lon="-5.300767">
        <ele>1984.0</ele>
        <time>2016-06-11T12:28:47Z</time>
      </trkpt>
      <trkpt lat="40.424950" lon="-5.300783">
        <ele>1983.0</ele>
        <time>2016-06-11T12:28:48Z</time>
      </trkpt>
      <trkpt lat="40.425000" lon="-5.300817">
        <ele>1982.0</ele>
        <time>2016-06-11T12:28:49Z</time>
      </trkpt>
      <trkpt lat="40.425033" lon="-5.300850">
        <ele>1983.0</ele>
        <time>2016-06-11T12:28:50Z</time>
      </trkpt>
      <trkpt lat="40.425050" lon="-5.300883">
        <ele>1987.0</ele>
        <time>2016-06-11T12:28:51Z</time>
      </trkpt>
      <trkpt lat="40.425050" lon="-5.300917">
        <ele>1990.0</ele>
        <time>2016-06-11T12:28:52Z</time>
      </trkpt>
      <trkpt lat="40.425050" lon="-5.300950">
        <ele>1991.0</ele>
        <time>2016-06-11T12:28:53Z</time>
      </trkpt>
      <trkpt lat="40.425067" lon="-5.300983">
        <ele>1989.0</ele>
        <time>2016-06-11T12:28:54Z</time>
      </trkpt>
      <trkpt lat="40.425100" lon="-5.301017">
        <ele>1987.0</ele>
        <time>2016-06-11T12:28:55Z</time>
      </trkpt>
      <trkpt lat="40.425150" lon="-5.301067">
        <ele>1985.0</ele>
        <time>2016-06-11T12:28:56Z</time>
      </trkpt>
      <trkpt lat="40.425217" lon="-5.301117">
        <ele>1985.0</ele>
        <time>2016-06-11T12:28:57Z</time>
      </trkpt>
      <trkpt lat="40.425250" lon="-5.301133">
        <ele>1987.0</ele>
        <time>2016-06-11T12:28:58Z</time>
      </trkpt>
      <trkpt lat="40.425300" lon="-5.301150">
        <ele>1988.0</ele>
        <time>2016-06-11T12:28:59Z</time>
      </trkpt>
      <trkpt lat="40.425350" lon="-5.301167">
        <ele>1988.0</ele>
        <time>2016-06-11T12:29:00Z</time>
      </trkpt>
      <trkpt lat="40.425400" lon="-5.301200">
        <ele>1987.0</ele>
        <time>2016-06-11T12:29:01Z</time>
      </trkpt>
      <trkpt lat="40.425467" lon="-5.301233">
        <ele>1986.0</ele>
        <time>2016-06-11T12:29:02Z</time>
      </trkpt>
      <trkpt lat="40.425517" lon="-5.301283">
        <ele>1986.0</ele>
        <time>2016-06-11T12:29:03Z</time>
      </trkpt>
      <trkpt lat="40.425567" lon="-5.301317">
        <ele>1985.0</ele>
        <time>2016-06-11T12:29:04Z</time>
      </trkpt>
      <trkpt lat="40.425617" lon="-5.301350">
        <ele>1984.0</ele>
        <time>2016-06-11T12:29:05Z</time>
      </trkpt>
      <trkpt lat="40.425667" lon="-5.301367">
        <ele>1981.0</ele>
        <time>2016-06-11T12:29:06Z</time>
      </trkpt>
      <trkpt lat="40.425733" lon="-5.301350">
        <ele>1978.0</ele>
        <time>2016-06-11T12:29:07Z</time>
      </trkpt>
      <trkpt lat="40.425817" lon="-5.301317">
        <ele>1976.0</ele>
        <time>2016-06-11T12:29:08Z</time>
      </trkpt>
      <trkpt lat="40.425883" lon="-5.301283">
        <ele>1976.0</ele>
        <time>2016-06-11T12:29:09Z</time>
      </trkpt>
      <trkpt lat="40.425917" lon="-5.301217">
        <ele>1977.0</ele>
        <time>2016-06-11T12:29:10Z</time>
      </trkpt>
      <trkpt lat="40.425950" lon="-5.301167">
        <ele>1977.0</ele>
        <time>2016-06-11T12:29:11Z</time>
      </trkpt>
      <trkpt lat="40.425983" lon="-5.301100">
        <ele>1978.0</ele>
        <time>2016-06-11T12:29:12Z</time>
      </trkpt>
      <trkpt lat="40.426000" lon="-5.301050">
        <ele>1977.0</ele>
        <time>2016-06-11T12:29:13Z</time>
      </trkpt>
      <trkpt lat="40.426050" lon="-5.300983">
        <ele>1975.0</ele>
        <time>2016-06-11T12:29:14Z</time>
      </trkpt>
      <trkpt lat="40.426083" lon="-5.300900">
        <ele>1973.0</ele>
        <time>2016-06-11T12:29:15Z</time>
      </trkpt>
      <trkpt lat="40.426117" lon="-5.300800">
        <ele>1972.0</ele>
        <time>2016-06-11T12:29:16Z</time>
      </trkpt>
      <trkpt lat="40.426150" lon="-5.300717">
        <ele>1971.0</ele>
        <time>2016-06-11T12:29:17Z</time>
      </trkpt>
      <trkpt lat="40.426183" lon="-5.300650">
        <ele>1970.0</ele>
        <time>2016-06-11T12:29:18Z</time>
      </trkpt>
      <trkpt lat="40.426233" lon="-5.300583">
        <ele>1968.0</ele>
        <time>2016-06-11T12:29:19Z</time>
      </trkpt>
      <trkpt lat="40.426300" lon="-5.300533">
        <ele>1967.0</ele>
        <time>2016-06-11T12:29:20Z</time>
      </trkpt>
      <trkpt lat="40.426367" lon="-5.300500">
        <ele>1965.0</ele>
        <time>2016-06-11T12:29:21Z</time>
      </trkpt>
      <trkpt lat="40.426433" lon="-5.300483">
        <ele>1965.0</ele>
        <time>2016-06-11T12:29:22Z</time>
      </trkpt>
      <trkpt lat="40.426483" lon="-5.300483">
        <ele>1965.0</ele>
        <time>2016-06-11T12:29:23Z</time>
      </trkpt>
      <trkpt lat="40.426533" lon="-5.300483">
        <ele>1965.0</ele>
        <time>2016-06-11T12:29:24Z</time>
      </trkpt>
      <trkpt lat="40.426583" lon="-5.300467">
        <ele>1963.0</ele>
        <time>2016-06-11T12:29:25Z</time>
      </trkpt>
      <trkpt lat="40.426650" lon="-5.300433">
        <ele>1962.0</ele>
        <time>2016-06-11T12:29:26Z</time>
      </trkpt>
      <trkpt lat="40.426717" lon="-5.300417">
        <ele>1962.0</ele>
        <time>2016-06-11T12:29:27Z</time>
      </trkpt>
      <trkpt lat="40.426783" lon="-5.300383">
        <ele>1963.0</ele>
        <time>2016-06-11T12:29:28Z</time>
      </trkpt>
      <trkpt lat="40.426833" lon="-5.300367">
        <ele>1964.0</ele>
        <time>2016-06-11T12:29:29Z</time>
      </trkpt>
      <trkpt lat="40.426883" lon="-5.300367">
        <ele>1964.0</ele>
        <time>2016-06-11T12:29:30Z</time>
      </trkpt>
      <trkpt lat="40.426933" lon="-5.300350">
        <ele>1963.0</ele>
        <time>2016-06-11T12:29:31Z</time>
      </trkpt>
      <trkpt lat="40.426983" lon="-5.300333">
        <ele>1962.0</ele>
        <time>2016-06-11T12:29:32Z</time>
      </trkpt>
      <trkpt lat="40.427033" lon="-5.300300">
        <ele>1961.0</ele>
        <time>2016-06-11T12:29:33Z</time>
      </trkpt>
      <trkpt lat="40.427100" lon="-5.300267">
        <ele>1961.0</ele>
        <time>2016-06-11T12:29:34Z</time>
      </trkpt>
      <trkpt lat="40.427150" lon="-5.300233">
        <ele>1960.0</ele>
        <time>2016-06-11T12:29:35Z</time>
      </trkpt>
      <trkpt lat="40.427200" lon="-5.300217">
        <ele>1959.0</ele>
        <time>2016-06-11T12:29:36Z</time>
      </trkpt>
      <trkpt lat="40.427250" lon="-5.300200">
        <ele>1957.0</ele>
        <time>2016-06-11T12:29:37Z</time>
      </trkpt>
      <trkpt lat="40.427317" lon="-5.300183">
        <ele>1956.0</ele>
        <time>2016-06-11T12:29:38Z</time>
      </trkpt>
      <trkpt lat="40.427400" lon="-5.300167">
        <ele>1954.0</ele>
        <time>2016-06-11T12:29:39Z</time>
      </trkpt>
      <trkpt lat="40.427467" lon="-5.300150">
        <ele>1953.0</ele>
        <time>2016-06-11T12:29:40Z</time>
      </trkpt>
      <trkpt lat="40.427533" lon="-5.300117">
        <ele>1953.0</ele>
        <time>2016-06-11T12:29:41Z</time>
      </trkpt>
      <trkpt lat="40.427600" lon="-5.300100">
        <ele>1953.0</ele>
        <time>2016-06-11T12:29:42Z</time>
      </trkpt>
      <trkpt lat="40.427667" lon="-5.300083">
        <ele>1952.0</ele>
        <time>2016-06-11T12:29:43Z</time>
      </trkpt>
      <trkpt lat="40.427717" lon="-5.300083">
        <ele>1951.0</ele>
        <time>2016-06-11T12:29:44Z</time>
      </trkpt>
      <trkpt lat="40.427783" lon="-5.300067">
        <ele>1949.0</ele>
        <time>2016-06-11T12:29:45Z</time>
      </trkpt>
      <trkpt lat="40.427850" lon="-5.300067">
        <ele>1948.0</ele>
        <time>2016-06-11T12:29:46Z</time>
      </trkpt>
      <trkpt lat="40.427900" lon="-5.300083">
        <ele>1947.0</ele>
        <time>2016-06-11T12:29:47Z</time>
      </trkpt>
      <trkpt lat="40.427967" lon="-5.300100">
        <ele>1946.0</ele>
        <time>2016-06-11T12:29:48Z</time>
      </trkpt>
      <trkpt lat="40.428033" lon="-5.300117">
        <ele>1945.0</ele>
        <time>2016-06-11T12:29:49Z</time>
      </trkpt>
      <trkpt lat="40.428100" lon="-5.300133">
        <ele>1943.0</ele>
        <time>2016-06-11T12:29:50Z</time>
      </trkpt>
      <trkpt lat="40.428167" lon="-5.300133">
        <ele>1942.0</ele>
        <time>2016-06-11T12:29:51Z</time>
      </trkpt>
      <trkpt lat="40.428233" lon="-5.300150">
        <ele>1940.0</ele>
        <time>2016-06-11T12:29:52Z</time>
      </trkpt>
      <trkpt lat="40.428300" lon="-5.300150">
        <ele>1938.0</ele>
        <time>2016-06-11T12:29:53Z</time>
      </trkpt>
      <trkpt lat="40.428367" lon="-5.300167">
        <ele>1936.0</ele>
        <time>2016-06-11T12:29:54Z</time>
      </trkpt>
      <trkpt lat="40.428433" lon="-5.300167">
        <ele>1933.0</ele>
        <time>2016-06-11T12:29:55Z</time>
      </trkpt>
      <trkpt lat="40.428517" lon="-5.300167">
        <ele>1932.0</ele>
        <time>2016-06-11T12:29:56Z</time>
      </trkpt>
      <trkpt lat="40.428600" lon="-5.300167">
        <ele>1930.0</ele>
        <time>2016-06-11T12:29:57Z</time>
      </trkpt>
      <trkpt lat="40.428667" lon="-5.300167">
        <ele>1928.0</ele>
        <time>2016-06-11T12:29:58Z</time>
      </trkpt>
      <trkpt lat="40.428750" lon="-5.300150">
        <ele>1927.0</ele>
        <time>2016-06-11T12:29:59Z</time>
      </trkpt>
      <trkpt lat="40.428817" lon="-5.300150">
        <ele>1925.0</ele>
        <time>2016-06-11T12:30:00Z</time>
      </trkpt>
      <trkpt lat="40.428883" lon="-5.300133">
        <ele>1924.0</ele>
        <time>2016-06-11T12:30:01Z</time>
      </trkpt>
      <trkpt lat="40.428967" lon="-5.300117">
        <ele>1922.0</ele>
        <time>2016-06-11T12:30:02Z</time>
      </trkpt>
      <trkpt lat="40.429033" lon="-5.300083">
        <ele>1921.0</ele>
        <time>2016-06-11T12:30:03Z</time>
      </trkpt>
      <trkpt lat="40.429117" lon="-5.300067">
        <ele>1921.0</ele>
        <time>2016-06-11T12:30:04Z</time>
      </trkpt>
      <trkpt lat="40.429200" lon="-5.300017">
        <ele>1922.0</ele>
        <time>2016-06-11T12:30:05Z</time>
      </trkpt>
      <trkpt lat="40.429267" lon="-5.299950">
        <ele>1924.0</ele>
        <time>2016-06-11T12:30:06Z</time>
      </trkpt>
      <trkpt lat="40.429300" lon="-5.299900">
        <ele>1926.0</ele>
        <time>2016-06-11T12:30:07Z</time>
      </trkpt>
      <trkpt lat="40.429333" lon="-5.299850">
        <ele>1926.0</ele>
        <time>2016-06-11T12:30:08Z</time>
      </trkpt>
      <trkpt lat="40.429400" lon="-5.299800">
        <ele>1925.0</ele>
        <time>2016-06-11T12:30:09Z</time>
      </trkpt>
      <trkpt lat="40.429467" lon="-5.299733">
        <ele>1925.0</ele>
        <time>2016-06-11T12:30:10Z</time>
      </trkpt>
      <trkpt lat="40.429550" lon="-5.299667">
        <ele>1927.0</ele>
        <time>2016-06-11T12:30:11Z</time>
      </trkpt>
      <trkpt lat="40.429600" lon="-5.299600">
        <ele>1929.0</ele>
        <time>2016-06-11T12:30:12Z</time>
      </trkpt>
      <trkpt lat="40.429650" lon="-5.299550">
        <ele>1932.0</ele>
        <time>2016-06-11T12:30:13Z</time>
      </trkpt>
      <trkpt lat="40.429700" lon="-5.299483">
        <ele>1934.0</ele>
        <time>2016-06-11T12:30:14Z</time>
      </trkpt>
      <trkpt lat="40.429750" lon="-5.299433">
        <ele>1935.0</ele>
        <time>2016-06-11T12:30:15Z</time>
      </trkpt>
      <trkpt lat="40.429800" lon="-5.299367">
        <ele>1935.0</ele>
        <time>2016-06-11T12:30:16Z</time>
      </trkpt>
      <trkpt lat="40.429867" lon="-5.299317">
        <ele>1934.0</ele>
        <time>2016-06-11T12:30:17Z</time>
      </trkpt>
      <trkpt lat="40.429933" lon="-5.299267">
        <ele>1934.0</ele>
        <time>2016-06-11T12:30:18Z</time>
      </trkpt>
      <trkpt lat="40.429983" lon="-5.299233">
        <ele>1935.0</ele>
        <time>2016-06-11T12:30:19Z</time>
      </trkpt>
      <trkpt lat="40.430033" lon="-5.299200">
        <ele>1935.0</ele>
        <time>2016-06-11T12:30:20Z</time>
      </trkpt>
      <trkpt lat="40.430083" lon="-5.299183">
        <ele>1935.0</ele>
        <time>2016-06-11T12:30:21Z</time>
      </trkpt>
      <trkpt lat="40.430133" lon="-5.299150">
        <ele>1934.0</ele>
        <time>2016-06-11T12:30:22Z</time>
      </trkpt>
      <trkpt lat="40.430200" lon="-5.299117">
        <ele>1933.0</ele>
        <time>2016-06-11T12:30:23Z</time>
      </trkpt>
      <trkpt lat="40.430267" lon="-5.299067">
        <ele>1933.0</ele>
        <time>2016-06-11T12:30:24Z</time>
      </trkpt>
      <trkpt lat="40.430317" lon="-5.299033">
        <ele>1934.0</ele>
        <time>2016-06-11T12:30:25Z</time>
      </trkpt>
      <trkpt lat="40.430383" lon="-5.299033">
        <ele>1933.0</ele>
        <time>2016-06-11T12:30:26Z</time>
      </trkpt>
      <trkpt lat="40.430433" lon="-5.299050">
        <ele>1932.0</ele>
        <time>2016-06-11T12:30:27Z</time>
      </trkpt>
      <trkpt lat="40.430500" lon="-5.299067">
        <ele>1931.0</ele>
        <time>2016-06-11T12:30:28Z</time>
      </trkpt>
      <trkpt lat="40.430567" lon="-5.299083">
        <ele>1930.0</ele>
        <time>2016-06-11T12:30:29Z</time>
      </trkpt>
      <trkpt lat="40.430617" lon="-5.299117">
        <ele>1931.0</ele>
        <time>2016-06-11T12:30:30Z</time>
      </trkpt>
      <trkpt lat="40.430667" lon="-5.299150">
        <ele>1930.0</ele>
        <time>2016-06-11T12:30:31Z</time>
      </trkpt>
      <trkpt lat="40.430700" lon="-5.299200">
        <ele>1928.0</ele>
        <time>2016-06-11T12:30:32Z</time>
      </trkpt>
      <trkpt lat="40.430733" lon="-5.299283">
        <ele>1927.0</ele>
        <time>2016-06-11T12:30:33Z</time>
      </trkpt>
      <trkpt lat="40.430767" lon="-5.299383">
        <ele>1927.0</ele>
        <time>2016-06-11T12:30:34Z</time>
      </trkpt>
      <trkpt lat="40.430767" lon="-5.299467">
        <ele>1926.0</ele>
        <time>2016-06-11T12:30:35Z</time>
      </trkpt>
      <trkpt lat="40.430767" lon="-5.299550">
        <ele>1927.0</ele>
        <time>2016-06-11T12:30:36Z</time>
      </trkpt>
      <trkpt lat="40.430767" lon="-5.299633">
        <ele>1927.0</ele>
        <time>2016-06-11T12:30:37Z</time>
      </trkpt>
      <trkpt lat="40.430767" lon="-5.299700">
        <ele>1927.0</ele>
        <time>2016-06-11T12:30:38Z</time>
      </trkpt>
      <trkpt lat="40.430767" lon="-5.299783">
        <ele>1927.0</ele>
        <time>2016-06-11T12:30:39Z</time>
      </trkpt>
      <trkpt lat="40.430750" lon="-5.299867">
        <ele>1926.0</ele>
        <time>2016-06-11T12:30:40Z</time>
      </trkpt>
      <trkpt lat="40.430717" lon="-5.299933">
        <ele>1925.0</ele>
        <time>2016-06-11T12:30:41Z</time>
      </trkpt>
      <trkpt lat="40.430667" lon="-5.299983">
        <ele>1924.0</ele>
        <time>2016-06-11T12:30:42Z</time>
      </trkpt>
      <trkpt lat="40.430600" lon="-5.300050">
        <ele>1922.0</ele>
        <time>2016-06-11T12:30:43Z</time>
      </trkpt>
      <trkpt lat="40.430533" lon="-5.300100">
        <ele>1920.0</ele>
        <time>2016-06-11T12:30:44Z</time>
      </trkpt>
      <trkpt lat="40.430450" lon="-5.300133">
        <ele>1919.0</ele>
        <time>2016-06-11T12:30:45Z</time>
      </trkpt>
      <trkpt lat="40.430350" lon="-5.300150">
        <ele>1918.0</ele>
        <time>2016-06-11T12:30:46Z</time>
      </trkpt>
      <trkpt lat="40.430267" lon="-5.300133">
        <ele>1917.0</ele>
        <time>2016-06-11T12:30:47Z</time>
      </trkpt>
      <trkpt lat="40.430167" lon="-5.300083">
        <ele>1915.0</ele>
        <time>2016-06-11T12:30:48Z</time>
      </trkpt>
      <trkpt lat="40.430067" lon="-5.300033">
        <ele>1914.0</ele>
        <time>2016-06-11T12:30:49Z</time>
      </trkpt>
      <trkpt lat="40.429983" lon="-5.299950">
        <ele>1913.0</ele>
        <time>2016-06-11T12:30:50Z</time>
      </trkpt>
      <trkpt lat="40.429900" lon="-5.299867">
        <ele>1911.0</ele>
        <time>2016-06-11T12:30:51Z</time>
      </trkpt>
      <trkpt lat="40.429817" lon="-5.299783">
        <ele>1910.0</ele>
        <time>2016-06-11T12:30:52Z</time>
      </trkpt>
      <trkpt lat="40.429767" lon="-5.299667">
        <ele>1910.0</ele>
        <time>2016-06-11T12:30:53Z</time>
      </trkpt>
      <trkpt lat="40.429733" lon="-5.299550">
        <ele>1909.0</ele>
        <time>2016-06-11T12:30:54Z</time>
      </trkpt>
      <trkpt lat="40.429717" lon="-5.299450">
        <ele>1909.0</ele>
        <time>2016-06-11T12:30:55Z</time>
      </trkpt>
      <trkpt lat="40.429717" lon="-5.299333">
        <ele>1908.0</ele>
        <time>2016-06-11T12:30:56Z</time>
      </trkpt>
      <trkpt lat="40.429700" lon="-5.299217">
        <ele>1906.0</ele>
        <time>2016-06-11T12:30:57Z</time>
      </trkpt>
      <trkpt lat="40.429700" lon="-5.299083">
        <ele>1904.0</ele>
        <time>2016-06-11T12:30:58Z</time>
      </trkpt>
      <trkpt lat="40.429700" lon="-5.298967">
        <ele>1904.0</ele>
        <time>2016-06-11T12:30:59Z</time>
      </trkpt>
      <trkpt lat="40.429733" lon="-5.298867">
        <ele>1903.0</ele>
        <time>2016-06-11T12:31:00Z</time>
      </trkpt>
      <trkpt lat="40.429767" lon="-5.298767">
        <ele>1902.0</ele>
        <time>2016-06-11T12:31:01Z</time>
      </trkpt>
      <trkpt lat="40.429817" lon="-5.298683">
        <ele>1902.0</ele>
        <time>2016-06-11T12:31:02Z</time>
      </trkpt>
      <trkpt lat="40.429867" lon="-5.298600">
        <ele>1901.0</ele>
        <time>2016-06-11T12:31:03Z</time>
      </trkpt>
      <trkpt lat="40.429900" lon="-5.298517">
        <ele>1899.0</ele>
        <time>2016-06-11T12:31:04Z</time>
      </trkpt>
      <trkpt lat="40.429950" lon="-5.298417">
        <ele>1897.0</ele>
        <time>2016-06-11T12:31:05Z</time>
      </trkpt>
      <trkpt lat="40.430000" lon="-5.298317">
        <ele>1896.0</ele>
        <time>2016-06-11T12:31:06Z</time>
      </trkpt>
      <trkpt lat="40.430050" lon="-5.298217">
        <ele>1895.0</ele>
        <time>2016-06-11T12:31:07Z</time>
      </trkpt>
      <trkpt lat="40.430117" lon="-5.298150">
        <ele>1894.0</ele>
        <time>2016-06-11T12:31:08Z</time>
      </trkpt>
      <trkpt lat="40.430183" lon="-5.298083">
        <ele>1893.0</ele>
        <time>2016-06-11T12:31:09Z</time>
      </trkpt>
      <trkpt lat="40.430250" lon="-5.298050">
        <ele>1891.0</ele>
        <time>2016-06-11T12:31:10Z</time>
      </trkpt>
      <trkpt lat="40.430317" lon="-5.298017">
        <ele>1890.0</ele>
        <time>2016-06-11T12:31:11Z</time>
      </trkpt>
      <trkpt lat="40.430383" lon="-5.297983">
        <ele>1888.0</ele>
        <time>2016-06-11T12:31:12Z</time>
      </trkpt>
      <trkpt lat="40.430450" lon="-5.297950">
        <ele>1886.0</ele>
        <time>2016-06-11T12:31:13Z</time>
      </trkpt>
      <trkpt lat="40.430517" lon="-5.297883">
        <ele>1884.0</ele>
        <time>2016-06-11T12:31:14Z</time>
      </trkpt>
      <trkpt lat="40.430600" lon="-5.297817">
        <ele>1883.0</ele>
        <time>2016-06-11T12:31:15Z</time>
      </trkpt>
      <trkpt lat="40.430667" lon="-5.297750">
        <ele>1882.0</ele>
        <time>2016-06-11T12:31:16Z</time>
      </trkpt>
      <trkpt lat="40.430733" lon="-5.297717">
        <ele>1882.0</ele>
        <time>2016-06-11T12:31:17Z</time>
      </trkpt>
      <trkpt lat="40.430800" lon="-5.297683">
        <ele>1881.0</ele>
        <time>2016-06-11T12:31:18Z</time>
      </trkpt>
      <trkpt lat="40.430867" lon="-5.297633">
        <ele>1879.0</ele>
        <time>2016-06-11T12:31:19Z</time>
      </trkpt>
      <trkpt lat="40.430950" lon="-5.297583">
        <ele>1877.0</ele>
        <time>2016-06-11T12:31:20Z</time>
      </trkpt>
      <trkpt lat="40.431017" lon="-5.297550">
        <ele>1875.0</ele>
        <time>2016-06-11T12:31:21Z</time>
      </trkpt>
      <trkpt lat="40.431100" lon="-5.297500">
        <ele>1874.0</ele>
        <time>2016-06-11T12:31:22Z</time>
      </trkpt>
      <trkpt lat="40.431183" lon="-5.297450">
        <ele>1874.0</ele>
        <time>2016-06-11T12:31:23Z</time>
      </trkpt>
      <trkpt lat="40.431250" lon="-5.297383">
        <ele>1873.0</ele>
        <time>2016-06-11T12:31:24Z</time>
      </trkpt>
      <trkpt lat="40.431317" lon="-5.297300">
        <ele>1872.0</ele>
        <time>2016-06-11T12:31:25Z</time>
      </trkpt>
      <trkpt lat="40.431383" lon="-5.297217">
        <ele>1871.0</ele>
        <time>2016-06-11T12:31:26Z</time>
      </trkpt>
      <trkpt lat="40.431450" lon="-5.297133">
        <ele>1870.0</ele>
        <time>2016-06-11T12:31:27Z</time>
      </trkpt>
      <trkpt lat="40.431500" lon="-5.297033">
        <ele>1869.0</ele>
        <time>2016-06-11T12:31:28Z</time>
      </trkpt>
      <trkpt lat="40.431550" lon="-5.296917">
        <ele>1868.0</ele>
        <time>2016-06-11T12:31:29Z</time>
      </trkpt>
      <trkpt lat="40.431600" lon="-5.296800">
        <ele>1866.0</ele>
        <time>2016-06-11T12:31:30Z</time>
      </trkpt>
      <trkpt lat="40.431650" lon="-5.296650">
        <ele>1864.0</ele>
        <time>2016-06-11T12:31:31Z</time>
      </trkpt>
      <trkpt lat="40.431683" lon="-5.296517">
        <ele>1863.0</ele>
        <time>2016-06-11T12:31:32Z</time>
      </trkpt>
      <trkpt lat="40.431733" lon="-5.296367">
        <ele>1863.0</ele>
        <time>2016-06-11T12:31:33Z</time>
      </trkpt>
      <trkpt lat="40.431767" lon="-5.296233">
        <ele>1864.0</ele>
        <time>2016-06-11T12:31:34Z</time>
      </trkpt>
      <trkpt lat="40.431800" lon="-5.296100">
        <ele>1864.0</ele>
        <time>2016-06-11T12:31:35Z</time>
      </trkpt>
      <trkpt lat="40.431833" lon="-5.295967">
        <ele>1865.0</ele>
        <time>2016-06-11T12:31:36Z</time>
      </trkpt>
      <trkpt lat="40.431867" lon="-5.295817">
        <ele>1865.0</ele>
        <time>2016-06-11T12:31:37Z</time>
      </trkpt>
      <trkpt lat="40.431883" lon="-5.295667">
        <ele>1867.0</ele>
        <time>2016-06-11T12:31:38Z</time>
      </trkpt>
      <trkpt lat="40.431917" lon="-5.295517">
        <ele>1870.0</ele>
        <time>2016-06-11T12:31:39Z</time>
      </trkpt>
      <trkpt lat="40.431950" lon="-5.295417">
        <ele>1873.0</ele>
        <time>2016-06-11T12:31:40Z</time>
      </trkpt>
      <trkpt lat="40.431983" lon="-5.295317">
        <ele>1875.0</ele>
        <time>2016-06-11T12:31:41Z</time>
      </trkpt>
      <trkpt lat="40.432033" lon="-5.295233">
        <ele>1875.0</ele>
        <time>2016-06-11T12:31:42Z</time>
      </trkpt>
      <trkpt lat="40.432083" lon="-5.295150">
        <ele>1876.0</ele>
        <time>2016-06-11T12:31:43Z</time>
      </trkpt>
      <trkpt lat="40.432133" lon="-5.295050">
        <ele>1877.0</ele>
        <time>2016-06-11T12:31:44Z</time>
      </trkpt>
      <trkpt lat="40.432183" lon="-5.294950">
        <ele>1878.0</ele>
        <time>2016-06-11T12:31:45Z</time>
      </trkpt>
      <trkpt lat="40.432233" lon="-5.294883">
        <ele>1880.0</ele>
        <time>2016-06-11T12:31:46Z</time>
      </trkpt>
      <trkpt lat="40.432283" lon="-5.294833">
        <ele>1879.0</ele>
        <time>2016-06-11T12:31:47Z</time>
      </trkpt>
      <trkpt lat="40.432333" lon="-5.294800">
        <ele>1878.0</ele>
        <time>2016-06-11T12:31:48Z</time>
      </trkpt>
      <trkpt lat="40.432400" lon="-5.294783">
        <ele>1875.0</ele>
        <time>2016-06-11T12:31:49Z</time>
      </trkpt>
      <trkpt lat="40.432483" lon="-5.294767">
        <ele>1872.0</ele>
        <time>2016-06-11T12:31:50Z</time>
      </trkpt>
      <trkpt lat="40.432550" lon="-5.294750">
        <ele>1870.0</ele>
        <time>2016-06-11T12:31:51Z</time>
      </trkpt>
      <trkpt lat="40.432633" lon="-5.294717">
        <ele>1869.0</ele>
        <time>2016-06-11T12:31:52Z</time>
      </trkpt>
      <trkpt lat="40.432700" lon="-5.294650">
        <ele>1867.0</ele>
        <time>2016-06-11T12:31:53Z</time>
      </trkpt>
      <trkpt lat="40.432750" lon="-5.294567">
        <ele>1866.0</ele>
        <time>2016-06-11T12:31:54Z</time>
      </trkpt>
      <trkpt lat="40.432817" lon="-5.294467">
        <ele>1864.0</ele>
        <time>2016-06-11T12:31:55Z</time>
      </trkpt>
      <trkpt lat="40.432883" lon="-5.294383">
        <ele>1862.0</ele>
        <time>2016-06-11T12:31:56Z</time>
      </trkpt>
      <trkpt lat="40.432950" lon="-5.294283">
        <ele>1861.0</ele>
        <time>2016-06-11T12:31:57Z</time>
      </trkpt>
      <trkpt lat="40.433017" lon="-5.294167">
        <ele>1860.0</ele>
        <time>2016-06-11T12:31:58Z</time>
      </trkpt>
      <trkpt lat="40.433067" lon="-5.294067">
        <ele>1860.0</ele>
        <time>2016-06-11T12:31:59Z</time>
      </trkpt>
      <trkpt lat="40.433100" lon="-5.293950">
        <ele>1860.0</ele>
        <time>2016-06-11T12:32:00Z</time>
      </trkpt>
      <trkpt lat="40.433150" lon="-5.293833">
        <ele>1859.0</ele>
        <time>2016-06-11T12:32:01Z</time>
      </trkpt>
      <trkpt lat="40.433217" lon="-5.293733">
        <ele>1858.0</ele>
        <time>2016-06-11T12:32:02Z</time>
      </trkpt>
      <trkpt lat="40.433267" lon="-5.293617">
        <ele>1858.0</ele>
        <time>2016-06-11T12:32:03Z</time>
      </trkpt>
      <trkpt lat="40.433333" lon="-5.293500">
        <ele>1858.0</ele>
        <time>2016-06-11T12:32:04Z</time>
      </trkpt>
      <trkpt lat="40.433367" lon="-5.293417">
        <ele>1859.0</ele>
        <time>2016-06-11T12:32:05Z</time>
      </trkpt>
      <trkpt lat="40.433417" lon="-5.293350">
        <ele>1859.0</ele>
        <time>2016-06-11T12:32:06Z</time>
      </trkpt>
      <trkpt lat="40.433467" lon="-5.293283">
        <ele>1859.0</ele>
        <time>2016-06-11T12:32:07Z</time>
      </trkpt>
      <trkpt lat="40.433517" lon="-5.293233">
        <ele>1858.0</ele>
        <time>2016-06-11T12:32:08Z</time>
      </trkpt>
      <trkpt lat="40.433583" lon="-5.293167">
        <ele>1858.0</ele>
        <time>2016-06-11T12:32:09Z</time>
      </trkpt>
      <trkpt lat="40.433633" lon="-5.293083">
        <ele>1857.0</ele>
        <time>2016-06-11T12:32:10Z</time>
      </trkpt>
      <trkpt lat="40.433667" lon="-5.293017">
        <ele>1856.0</ele>
        <time>2016-06-11T12:32:11Z</time>
      </trkpt>
      <trkpt lat="40.433717" lon="-5.292933">
        <ele>1855.0</ele>
        <time>2016-06-11T12:32:12Z</time>
      </trkpt>
      <trkpt lat="40.433750" lon="-5.292883">
        <ele>1853.0</ele>
        <time>2016-06-11T12:32:13Z</time>
      </trkpt>
      <trkpt lat="40.433800" lon="-5.292800">
        <ele>1850.0</ele>
        <time>2016-06-11T12:32:14Z</time>
      </trkpt>
      <trkpt lat="40.433867" lon="-5.292700">
        <ele>1848.0</ele>
        <time>2016-06-11T12:32:15Z</time>
      </trkpt>
      <trkpt lat="40.433917" lon="-5.292600">
        <ele>1846.0</ele>
        <time>2016-06-11T12:32:16Z</time>
      </trkpt>
      <trkpt lat="40.433983" lon="-5.292483">
        <ele>1846.0</ele>
        <time>2016-06-11T12:32:17Z</time>
      </trkpt>
      <trkpt lat="40.434033" lon="-5.292367">
        <ele>1847.0</ele>
        <time>2016-06-11T12:32:18Z</time>
      </trkpt>
      <trkpt lat="40.434100" lon="-5.292283">
        <ele>1849.0</ele>
        <time>2016-06-11T12:32:19Z</time>
      </trkpt>
      <trkpt lat="40.434150" lon="-5.292217">
        <ele>1850.0</ele>
        <time>2016-06-11T12:32:20Z</time>
      </trkpt>
      <trkpt lat="40.434183" lon="-5.292133">
        <ele>1851.0</ele>
        <time>2016-06-11T12:32:21Z</time>
      </trkpt>
      <trkpt lat="40.434233" lon="-5.292033">
        <ele>1850.0</ele>
        <time>2016-06-11T12:32:22Z</time>
      </trkpt>
      <trkpt lat="40.434267" lon="-5.291917">
        <ele>1848.0</ele>
        <time>2016-06-11T12:32:23Z</time>
      </trkpt>
      <trkpt lat="40.434317" lon="-5.291800">
        <ele>1845.0</ele>
        <time>2016-06-11T12:32:24Z</time>
      </trkpt>
      <trkpt lat="40.434367" lon="-5.291683">
        <ele>1843.0</ele>
        <time>2016-06-11T12:32:25Z</time>
      </trkpt>
      <trkpt lat="40.434417" lon="-5.291583">
        <ele>1840.0</ele>
        <time>2016-06-11T12:32:26Z</time>
      </trkpt>
      <trkpt lat="40.434467" lon="-5.291467">
        <ele>1837.0</ele>
        <time>2016-06-11T12:32:27Z</time>
      </trkpt>
      <trkpt lat="40.434533" lon="-5.291367">
        <ele>1834.0</ele>
        <time>2016-06-11T12:32:28Z</time>
      </trkpt>
      <trkpt lat="40.434600" lon="-5.291267">
        <ele>1833.0</ele>
        <time>2016-06-11T12:32:29Z</time>
      </trkpt>
      <trkpt lat="40.434683" lon="-5.291183">
        <ele>1832.0</ele>
        <time>2016-06-11T12:32:30Z</time>
      </trkpt>
      <trkpt lat="40.434733" lon="-5.291100">
        <ele>1832.0</ele>
        <time>2016-06-11T12:32:31Z</time>
      </trkpt>
      <trkpt lat="40.434800" lon="-5.291017">
        <ele>1832.0</ele>
        <time>2016-06-11T12:32:32Z</time>
      </trkpt>
      <trkpt lat="40.434867" lon="-5.290950">
        <ele>1831.0</ele>
        <time>2016-06-11T12:32:33Z</time>
      </trkpt>
      <trkpt lat="40.434933" lon="-5.290867">
        <ele>1829.0</ele>
        <time>2016-06-11T12:32:34Z</time>
      </trkpt>
      <trkpt lat="40.435017" lon="-5.290783">
        <ele>1826.0</ele>
        <time>2016-06-11T12:32:35Z</time>
      </trkpt>
      <trkpt lat="40.435100" lon="-5.290700">
        <ele>1825.0</ele>
        <time>2016-06-11T12:32:36Z</time>
      </trkpt>
      <trkpt lat="40.435167" lon="-5.290617">
        <ele>1824.0</ele>
        <time>2016-06-11T12:32:37Z</time>
      </trkpt>
      <trkpt lat="40.435233" lon="-5.290533">
        <ele>1824.0</ele>
        <time>2016-06-11T12:32:38Z</time>
      </trkpt>
      <trkpt lat="40.435283" lon="-5.290450">
        <ele>1824.0</ele>
        <time>2016-06-11T12:32:39Z</time>
      </trkpt>
      <trkpt lat="40.435350" lon="-5.290400">
        <ele>1823.0</ele>
        <time>2016-06-11T12:32:40Z</time>
      </trkpt>
      <trkpt lat="40.435417" lon="-5.290350">
        <ele>1822.0</ele>
        <time>2016-06-11T12:32:41Z</time>
      </trkpt>
      <trkpt lat="40.435500" lon="-5.290283">
        <ele>1821.0</ele>
        <time>2016-06-11T12:32:42Z</time>
      </trkpt>
      <trkpt lat="40.435583" lon="-5.290233">
        <ele>1821.0</ele>
        <time>2016-06-11T12:32:43Z</time>
      </trkpt>
      <trkpt lat="40.435667" lon="-5.290167">
        <ele>1821.0</ele>
        <time>2016-06-11T12:32:44Z</time>
      </trkpt>
      <trkpt lat="40.435750" lon="-5.290117">
        <ele>1821.0</ele>
        <time>2016-06-11T12:32:45Z</time>
      </trkpt>
      <trkpt lat="40.435817" lon="-5.290050">
        <ele>1821.0</ele>
        <time>2016-06-11T12:32:46Z</time>
      </trkpt>
      <trkpt lat="40.435883" lon="-5.289983">
        <ele>1821.0</ele>
        <time>2016-06-11T12:32:47Z</time>
      </trkpt>
      <trkpt lat="40.435967" lon="-5.289917">
        <ele>1821.0</ele>
        <time>2016-06-11T12:32:48Z</time>
      </trkpt>
      <trkpt lat="40.436033" lon="-5.289833">
        <ele>1820.0</ele>
        <time>2016-06-11T12:32:49Z</time>
      </trkpt>
      <trkpt lat="40.436100" lon="-5.289750">
        <ele>1820.0</ele>
        <time>2016-06-11T12:32:50Z</time>
      </trkpt>
      <trkpt lat="40.436167" lon="-5.289700">
        <ele>1821.0</ele>
        <time>2016-06-11T12:32:51Z</time>
      </trkpt>
      <trkpt lat="40.436250" lon="-5.289667">
        <ele>1821.0</ele>
        <time>2016-06-11T12:32:52Z</time>
      </trkpt>
      <trkpt lat="40.436317" lon="-5.289650">
        <ele>1821.0</ele>
        <time>2016-06-11T12:32:53Z</time>
      </trkpt>
      <trkpt lat="40.436400" lon="-5.289617">
        <ele>1823.0</ele>
        <time>2016-06-11T12:32:54Z</time>
      </trkpt>
      <trkpt lat="40.436467" lon="-5.289583">
        <ele>1824.0</ele>
        <time>2016-06-11T12:32:55Z</time>
      </trkpt>
      <trkpt lat="40.436517" lon="-5.289550">
        <ele>1824.0</ele>
        <time>2016-06-11T12:32:56Z</time>
      </trkpt>
      <trkpt lat="40.436583" lon="-5.289517">
        <ele>1824.0</ele>
        <time>2016-06-11T12:32:57Z</time>
      </trkpt>
      <trkpt lat="40.436650" lon="-5.289500">
        <ele>1823.0</ele>
        <time>2016-06-11T12:32:58Z</time>
      </trkpt>
      <trkpt lat="40.436733" lon="-5.289517">
        <ele>1823.0</ele>
        <time>2016-06-11T12:32:59Z</time>
      </trkpt>
      <trkpt lat="40.436800" lon="-5.289517">
        <ele>1825.0</ele>
        <time>2016-06-11T12:33:00Z</time>
      </trkpt>
      <trkpt lat="40.436867" lon="-5.289533">
        <ele>1827.0</ele>
        <time>2016-06-11T12:33:01Z</time>
      </trkpt>
      <trkpt lat="40.436933" lon="-5.289517">
        <ele>1830.0</ele>
        <time>2016-06-11T12:33:02Z</time>
      </trkpt>
      <trkpt lat="40.436983" lon="-5.289500">
        <ele>1832.0</ele>
        <time>2016-06-11T12:33:03Z</time>
      </trkpt>
      <trkpt lat="40.437033" lon="-5.289483">
        <ele>1834.0</ele>
        <time>2016-06-11T12:33:04Z</time>
      </trkpt>
      <trkpt lat="40.437100" lon="-5.289483">
        <ele>1835.0</ele>
        <time>2016-06-11T12:33:05Z</time>
      </trkpt>
      <trkpt lat="40.437167" lon="-5.289483">
        <ele>1837.0</ele>
        <time>2016-06-11T12:33:06Z</time>
      </trkpt>
      <trkpt lat="40.437217" lon="-5.289483">
        <ele>1842.0</ele>
        <time>2016-06-11T12:33:07Z</time>
      </trkpt>
      <trkpt lat="40.437250" lon="-5.289500">
        <ele>1846.0</ele>
        <time>2016-06-11T12:33:08Z</time>
      </trkpt>
      <trkpt lat="40.437267" lon="-5.289483">
        <ele>1848.0</ele>
        <time>2016-06-11T12:33:09Z</time>
      </trkpt>
      <trkpt lat="40.437283" lon="-5.289483">
        <ele>1847.0</ele>
        <time>2016-06-11T12:33:10Z</time>
      </trkpt>
      <trkpt lat="40.437317" lon="-5.289467">
        <ele>1846.0</ele>
        <time>2016-06-11T12:33:11Z</time>
      </trkpt>
      <trkpt lat="40.437367" lon="-5.289467">
        <ele>1846.0</ele>
        <time>2016-06-11T12:33:12Z</time>
      </trkpt>
      <trkpt lat="40.437417" lon="-5.289433">
        <ele>1848.0</ele>
        <time>2016-06-11T12:33:13Z</time>
      </trkpt>
      <trkpt lat="40.437467" lon="-5.289417">
        <ele>1849.0</ele>
        <time>2016-06-11T12:33:14Z</time>
      </trkpt>
      <trkpt lat="40.437483" lon="-5.289400">
        <ele>1851.0</ele>
        <time>2016-06-11T12:33:15Z</time>
      </trkpt>
      <trkpt lat="40.437517" lon="-5.289417">
        <ele>1852.0</ele>
        <time>2016-06-11T12:33:16Z</time>
      </trkpt>
      <trkpt lat="40.437533" lon="-5.289450">
        <ele>1852.0</ele>
        <time>2016-06-11T12:33:17Z</time>
      </trkpt>
      <trkpt lat="40.437567" lon="-5.289467">
        <ele>1852.0</ele>
        <time>2016-06-11T12:33:18Z</time>
      </trkpt>
      <trkpt lat="40.437617" lon="-5.289500">
        <ele>1852.0</ele>
        <time>2016-06-11T12:33:19Z</time>
      </trkpt>
      <trkpt lat="40.437667" lon="-5.289533">
        <ele>1852.0</ele>
        <time>2016-06-11T12:33:20Z</time>
      </trkpt>
      <trkpt lat="40.437717" lon="-5.289567">
        <ele>1854.0</ele>
        <time>2016-06-11T12:33:21Z</time>
      </trkpt>
      <trkpt lat="40.437767" lon="-5.289600">
        <ele>1856.0</ele>
        <time>2016-06-11T12:33:22Z</time>
      </trkpt>
      <trkpt lat="40.437800" lon="-5.289617">
        <ele>1857.0</ele>
        <time>2016-06-11T12:33:23Z</time>
      </trkpt>
      <trkpt lat="40.437833" lon="-5.289667">
        <ele>1857.0</ele>
        <time>2016-06-11T12:33:24Z</time>
      </trkpt>
      <trkpt lat="40.437867" lon="-5.289717">
        <ele>1857.0</ele>
        <time>2016-06-11T12:33:25Z</time>
      </trkpt>
      <trkpt lat="40.437883" lon="-5.289767">
        <ele>1857.0</ele>
        <time>2016-06-11T12:33:26Z</time>
      </trkpt>
      <trkpt lat="40.437917" lon="-5.289817">
        <ele>1858.0</ele>
        <time>2016-06-11T12:33:27Z</time>
      </trkpt>
      <trkpt lat="40.437950" lon="-5.289867">
        <ele>1859.0</ele>
        <time>2016-06-11T12:33:28Z</time>
      </trkpt>
      <trkpt lat="40.437983" lon="-5.289883">
        <ele>1859.0</ele>
        <time>2016-06-11T12:33:29Z</time>
      </trkpt>
      <trkpt lat="40.438050" lon="-5.289867">
        <ele>1859.0</ele>
        <time>2016-06-11T12:33:30Z</time>
      </trkpt>
      <trkpt lat="40.438100" lon="-5.289850">
        <ele>1860.0</ele>
        <time>2016-06-11T12:33:31Z</time>
      </trkpt>
      <trkpt lat="40.438167" lon="-5.289783">
        <ele>1861.0</ele>
        <time>2016-06-11T12:33:32Z</time>
      </trkpt>
      <trkpt lat="40.438217" lon="-5.289717">
        <ele>1861.0</ele>
        <time>2016-06-11T12:33:33Z</time>
      </trkpt>
      <trkpt lat="40.438267" lon="-5.289633">
        <ele>1861.0</ele>
        <time>2016-06-11T12:33:34Z</time>
      </trkpt>
      <trkpt lat="40.438317" lon="-5.289567">
        <ele>1862.0</ele>
        <time>2016-06-11T12:33:35Z</time>
      </trkpt>
      <trkpt lat="40.438367" lon="-5.289500">
        <ele>1863.0</ele>
        <time>2016-06-11T12:33:36Z</time>
      </trkpt>
      <trkpt lat="40.438417" lon="-5.289433">
        <ele>1865.0</ele>
        <time>2016-06-11T12:33:37Z</time>
      </trkpt>
      <trkpt lat="40.438450" lon="-5.289350">
        <ele>1866.0</ele>
        <time>2016-06-11T12:33:38Z</time>
      </trkpt>
      <trkpt lat="40.438483" lon="-5.289250">
        <ele>1868.0</ele>
        <time>2016-06-11T12:33:39Z</time>
      </trkpt>
      <trkpt lat="40.438517" lon="-5.289183">
        <ele>1869.0</ele>
        <time>2016-06-11T12:33:40Z</time>
      </trkpt>
      <trkpt lat="40.438583" lon="-5.289133">
        <ele>1869.0</ele>
        <time>2016-06-11T12:33:41Z</time>
      </trkpt>
      <trkpt lat="40.438633" lon="-5.289067">
        <ele>1869.0</ele>
        <time>2016-06-11T12:33:42Z</time>
      </trkpt>
      <trkpt lat="40.438700" lon="-5.289000">
        <ele>1870.0</ele>
        <time>2016-06-11T12:33:43Z</time>
      </trkpt>
      <trkpt lat="40.438750" lon="-5.288917">
        <ele>1872.0</ele>
        <time>2016-06-11T12:33:44Z</time>
      </trkpt>
      <trkpt lat="40.438800" lon="-5.288850">
        <ele>1876.0</ele>
        <time>2016-06-11T12:33:45Z</time>
      </trkpt>
      <trkpt lat="40.438850" lon="-5.288817">
        <ele>1879.0</ele>
        <time>2016-06-11T12:33:46Z</time>
      </trkpt>
      <trkpt lat="40.438883" lon="-5.288767">
        <ele>1880.0</ele>
        <time>2016-06-11T12:33:47Z</time>
      </trkpt>
      <trkpt lat="40.438933" lon="-5.288733">
        <ele>1882.0</ele>
        <time>2016-06-11T12:33:48Z</time>
      </trkpt>
      <trkpt lat="40.438983" lon="-5.288717">
        <ele>1883.0</ele>
        <time>2016-06-11T12:33:49Z</time>
      </trkpt>
      <trkpt lat="40.439017" lon="-5.288717">
        <ele>1884.0</ele>
        <time>2016-06-11T12:33:50Z</time>
      </trkpt>
      <trkpt lat="40.439067" lon="-5.288750">
        <ele>1884.0</ele>
        <time>2016-06-11T12:33:51Z</time>
      </trkpt>
      <trkpt lat="40.439083" lon="-5.288817">
        <ele>1885.0</ele>
        <time>2016-06-11T12:33:52Z</time>
      </trkpt>
      <trkpt lat="40.439067" lon="-5.288900">
        <ele>1886.0</ele>
        <time>2016-06-11T12:33:53Z</time>
      </trkpt>
      <trkpt lat="40.439033" lon="-5.288967">
        <ele>1888.0</ele>
        <time>2016-06-11T12:33:54Z</time>
      </trkpt>
      <trkpt lat="40.438967" lon="-5.289017">
        <ele>1890.0</ele>
        <time>2016-06-11T12:33:55Z</time>
      </trkpt>
      <trkpt lat="40.438900" lon="-5.289067">
        <ele>1892.0</ele>
        <time>2016-06-11T12:33:56Z</time>
      </trkpt>
      <trkpt lat="40.438833" lon="-5.289100">
        <ele>1894.0</ele>
        <time>2016-06-11T12:33:57Z</time>
      </trkpt>
      <trkpt lat="40.438767" lon="-5.289117">
        <ele>1896.0</ele>
        <time>2016-06-11T12:33:58Z</time>
      </trkpt>
      <trkpt lat="40.438700" lon="-5.289117">
        <ele>1897.0</ele>
        <time>2016-06-11T12:33:59Z</time>
      </trkpt>
      <trkpt lat="40.438617" lon="-5.289083">
        <ele>1897.0</ele>
        <time>2016-06-11T12:34:00Z</time>
      </trkpt>
      <trkpt lat="40.438550" lon="-5.289000">
        <ele>1896.0</ele>
        <time>2016-06-11T12:34:01Z</time>
      </trkpt>
      <trkpt lat="40.438483" lon="-5.288883">
        <ele>1895.0</ele>
        <time>2016-06-11T12:34:02Z</time>
      </trkpt>
      <trkpt lat="40.438467" lon="-5.288717">
        <ele>1896.0</ele>
        <time>2016-06-11T12:34:03Z</time>
      </trkpt>
      <trkpt lat="40.438500" lon="-5.288583">
        <ele>1898.0</ele>
        <time>2016-06-11T12:34:04Z</time>
      </trkpt>
      <trkpt lat="40.438533" lon="-5.288483">
        <ele>1902.0</ele>
        <time>2016-06-11T12:34:05Z</time>
      </trkpt>
      <trkpt lat="40.438567" lon="-5.288383">
        <ele>1906.0</ele>
        <time>2016-06-11T12:34:06Z</time>
      </trkpt>
      <trkpt lat="40.438567" lon="-5.288300">
        <ele>1909.0</ele>
        <time>2016-06-11T12:34:07Z</time>
      </trkpt>
      <trkpt lat="40.438567" lon="-5.288217">
        <ele>1910.0</ele>
        <time>2016-06-11T12:34:08Z</time>
      </trkpt>
      <trkpt lat="40.438583" lon="-5.288117">
        <ele>1911.0</ele>
        <time>2016-06-11T12:34:09Z</time>
      </trkpt>
      <trkpt lat="40.438600" lon="-5.288033">
        <ele>1912.0</ele>
        <time>2016-06-11T12:34:10Z</time>
      </trkpt>
      <trkpt lat="40.438633" lon="-5.287983">
        <ele>1913.0</ele>
        <time>2016-06-11T12:34:11Z</time>
      </trkpt>
      <trkpt lat="40.438667" lon="-5.287933">
        <ele>1913.0</ele>
        <time>2016-06-11T12:34:12Z</time>
      </trkpt>
      <trkpt lat="40.438717" lon="-5.287883">
        <ele>1914.0</ele>
        <time>2016-06-11T12:34:13Z</time>
      </trkpt>
      <trkpt lat="40.438767" lon="-5.287867">
        <ele>1916.0</ele>
        <time>2016-06-11T12:34:14Z</time>
      </trkpt>
      <trkpt lat="40.438800" lon="-5.287850">
        <ele>1917.0</ele>
        <time>2016-06-11T12:34:15Z</time>
      </trkpt>
      <trkpt lat="40.438833" lon="-5.287867">
        <ele>1918.0</ele>
        <time>2016-06-11T12:34:16Z</time>
      </trkpt>
      <trkpt lat="40.438883" lon="-5.287900">
        <ele>1918.0</ele>
        <time>2016-06-11T12:34:17Z</time>
      </trkpt>
      <trkpt lat="40.438917" lon="-5.287933">
        <ele>1917.0</ele>
        <time>2016-06-11T12:34:18Z</time>
      </trkpt>
      <trkpt lat="40.438983" lon="-5.287967">
        <ele>1917.0</ele>
        <time>2016-06-11T12:34:19Z</time>
      </trkpt>
      <trkpt lat="40.439050" lon="-5.287983">
        <ele>1918.0</ele>
        <time>2016-06-11T12:34:20Z</time>
      </trkpt>
      <trkpt lat="40.439117" lon="-5.288000">
        <ele>1921.0</ele>
        <time>2016-06-11T12:34:21Z</time>
      </trkpt>
      <trkpt lat="40.439167" lon="-5.288017">
        <ele>1925.0</ele>
        <time>2016-06-11T12:34:22Z</time>
      </trkpt>
      <trkpt lat="40.439217" lon="-5.288050">
        <ele>1929.0</ele>
        <time>2016-06-11T12:34:23Z</time>
      </trkpt>
      <trkpt lat="40.439250" lon="-5.288067">
        <ele>1933.0</ele>
        <time>2016-06-11T12:34:24Z</time>
      </trkpt>
      <trkpt lat="40.439283" lon="-5.288083">
        <ele>1936.0</ele>
        <time>2016-06-11T12:34:25Z</time>
      </trkpt>
      <trkpt lat="40.439333" lon="-5.288100">
        <ele>1938.0</ele>
        <time>2016-06-11T12:34:26Z</time>
      </trkpt>
      <trkpt lat="40.439400" lon="-5.288117">
        <ele>1940.0</ele>
        <time>2016-06-11T12:34:27Z</time>
      </trkpt>
      <trkpt lat="40.439450" lon="-5.288133">
        <ele>1942.0</ele>
        <time>2016-06-11T12:34:28Z</time>
      </trkpt>
      <trkpt lat="40.439500" lon="-5.288133">
        <ele>1945.0</ele>
        <time>2016-06-11T12:34:29Z</time>
      </trkpt>
      <trkpt lat="40.439550" lon="-5.288133">
        <ele>1947.0</ele>
        <time>2016-06-11T12:34:30Z</time>
      </trkpt>
      <trkpt lat="40.439600" lon="-5.288150">
        <ele>1950.0</ele>
        <time>2016-06-11T12:34:31Z</time>
      </trkpt>
      <trkpt lat="40.439650" lon="-5.288167">
        <ele>1954.0</ele>
        <time>2016-06-11T12:34:32Z</time>
      </trkpt>
      <trkpt lat="40.439700" lon="-5.288200">
        <ele>1958.0</ele>
        <time>2016-06-11T12:34:33Z</time>
      </trkpt>
      <trkpt lat="40.439717" lon="-5.288233">
        <ele>1962.0</ele>
        <time>2016-06-11T12:34:34Z</time>
      </trkpt>
      <trkpt lat="40.439733" lon="-5.288283">
        <ele>1965.0</ele>
        <time>2016-06-11T12:34:35Z</time>
      </trkpt>
      <trkpt lat="40.439767" lon="-5.288317">
        <ele>1967.0</ele>
        <time>2016-06-11T12:34:36Z</time>
      </trkpt>
      <trkpt lat="40.439767" lon="-5.288383">
        <ele>1969.0</ele>
        <time>2016-06-11T12:34:37Z</time>
      </trkpt>
      <trkpt lat="40.439783" lon="-5.288450">
        <ele>1970.0</ele>
        <time>2016-06-11T12:34:38Z</time>
      </trkpt>
      <trkpt lat="40.439783" lon="-5.288533">
        <ele>1971.0</ele>
        <time>2016-06-11T12:34:39Z</time>
      </trkpt>
      <trkpt lat="40.439750" lon="-5.288617">
        <ele>1973.0</ele>
        <time>2016-06-11T12:34:40Z</time>
      </trkpt>
      <trkpt lat="40.439683" lon="-5.288700">
        <ele>1974.0</ele>
        <time>2016-06-11T12:34:41Z</time>
      </trkpt>
      <trkpt lat="40.439617" lon="-5.288750">
        <ele>1975.0</ele>
        <time>2016-06-11T12:34:42Z</time>
      </trkpt>
      <trkpt lat="40.439517" lon="-5.288767">
        <ele>1975.0</ele>
        <time>2016-06-11T12:34:43Z</time>
      </trkpt>
      <trkpt lat="40.439417" lon="-5.288750">
        <ele>1974.0</ele>
        <time>2016-06-11T12:34:44Z</time>
      </trkpt>
      <trkpt lat="40.439333" lon="-5.288683">
        <ele>1973.0</ele>
        <time>2016-06-11T12:34:45Z</time>
      </trkpt>
      <trkpt lat="40.439250" lon="-5.288583">
        <ele>1971.0</ele>
        <time>2016-06-11T12:34:46Z</time>
      </trkpt>
      <trkpt lat="40.439200" lon="-5.288467">
        <ele>1969.0</ele>
        <time>2016-06-11T12:34:47Z</time>
      </trkpt>
      <trkpt lat="40.439183" lon="-5.288350">
        <ele>1969.0</ele>
        <time>2016-06-11T12:34:48Z</time>
      </trkpt>
      <trkpt lat="40.439167" lon="-5.288233">
        <ele>1970.0</ele>
        <time>2016-06-11T12:34:49Z</time>
      </trkpt>
      <trkpt lat="40.439150" lon="-5.288117">
        <ele>1971.0</ele>
        <time>2016-06-11T12:34:50Z</time>
      </trkpt>
      <trkpt lat="40.439150" lon="-5.288000">
        <ele>1972.0</ele>
        <time>2016-06-11T12:34:51Z</time>
      </trkpt>
      <trkpt lat="40.439167" lon="-5.287900">
        <ele>1974.0</ele>
        <time>2016-06-11T12:34:52Z</time>
      </trkpt>
      <trkpt lat="40.439183" lon="-5.287800">
        <ele>1976.0</ele>
        <time>2016-06-11T12:34:53Z</time>
      </trkpt>
      <trkpt lat="40.439217" lon="-5.287717">
        <ele>1978.0</ele>
        <time>2016-06-11T12:34:54Z</time>
      </trkpt>
      <trkpt lat="40.439250" lon="-5.287617">
        <ele>1982.0</ele>
        <time>2016-06-11T12:34:55Z</time>
      </trkpt>
      <trkpt lat="40.439267" lon="-5.287533">
        <ele>1986.0</ele>
        <time>2016-06-11T12:34:56Z</time>
      </trkpt>
      <trkpt lat="40.439283" lon="-5.287450">
        <ele>1989.0</ele>
        <time>2016-06-11T12:34:57Z</time>
      </trkpt>
      <trkpt lat="40.439300" lon="-5.287367">
        <ele>1990.0</ele>
        <time>2016-06-11T12:34:58Z</time>
      </trkpt>
      <trkpt lat="40.439333" lon="-5.287283">
        <ele>1991.0</ele>
        <time>2016-06-11T12:34:59Z</time>
      </trkpt>
      <trkpt lat="40.439367" lon="-5.287200">
        <ele>1992.0</ele>
        <time>2016-06-11T12:35:00Z</time>
      </trkpt>
      <trkpt lat="40.439400" lon="-5.287133">
        <ele>1992.0</ele>
        <time>2016-06-11T12:35:01Z</time>
      </trkpt>
      <trkpt lat="40.439450" lon="-5.287100">
        <ele>1993.0</ele>
        <time>2016-06-11T12:35:02Z</time>
      </trkpt>
      <trkpt lat="40.439500" lon="-5.287050">
        <ele>1993.0</ele>
        <time>2016-06-11T12:35:03Z</time>
      </trkpt>
      <trkpt lat="40.439550" lon="-5.287017">
        <ele>1993.0</ele>
        <time>2016-06-11T12:35:04Z</time>
      </trkpt>
      <trkpt lat="40.439617" lon="-5.287000">
        <ele>1993.0</ele>
        <time>2016-06-11T12:35:05Z</time>
      </trkpt>
      <trkpt lat="40.439683" lon="-5.287000">
        <ele>1992.0</ele>
        <time>2016-06-11T12:35:06Z</time>
      </trkpt>
      <trkpt lat="40.439750" lon="-5.287033">
        <ele>1992.0</ele>
        <time>2016-06-11T12:35:07Z</time>
      </trkpt>
      <trkpt lat="40.439817" lon="-5.287067">
        <ele>1991.0</ele>
        <time>2016-06-11T12:35:08Z</time>
      </trkpt>
      <trkpt lat="40.439883" lon="-5.287100">
        <ele>1992.0</ele>
        <time>2016-06-11T12:35:09Z</time>
      </trkpt>
      <trkpt lat="40.439950" lon="-5.287150">
        <ele>1992.0</ele>
        <time>2016-06-11T12:35:10Z</time>
      </trkpt>
      <trkpt lat="40.440017" lon="-5.287200">
        <ele>1992.0</ele>
        <time>2016-06-11T12:35:11Z</time>
      </trkpt>
      <trkpt lat="40.440083" lon="-5.287250">
        <ele>1991.0</ele>
        <time>2016-06-11T12:35:12Z</time>
      </trkpt>
      <trkpt lat="40.440133" lon="-5.287300">
        <ele>1990.0</ele>
        <time>2016-06-11T12:35:13Z</time>
      </trkpt>
      <trkpt lat="40.440200" lon="-5.287367">
        <ele>1989.0</ele>
        <time>2016-06-11T12:35:14Z</time>
      </trkpt>
      <trkpt lat="40.440267" lon="-5.287433">
        <ele>1988.0</ele>
        <time>2016-06-11T12:35:15Z</time>
      </trkpt>
      <trkpt lat="40.440317" lon="-5.287483">
        <ele>1988.0</ele>
        <time>2016-06-11T12:35:16Z</time>
      </trkpt>
      <trkpt lat="40.440367" lon="-5.287567">
        <ele>1987.0</ele>
        <time>2016-06-11T12:35:17Z</time>
      </trkpt>
      <trkpt lat="40.440417" lon="-5.287650">
        <ele>1987.0</ele>
        <time>2016-06-11T12:35:18Z</time>
      </trkpt>
      <trkpt lat="40.440450" lon="-5.287733">
        <ele>1988.0</ele>
        <time>2016-06-11T12:35:19Z</time>
      </trkpt>
      <trkpt lat="40.440500" lon="-5.287817">
        <ele>1988.0</ele>
        <time>2016-06-11T12:35:20Z</time>
      </trkpt>
      <trkpt lat="40.440550" lon="-5.287900">
        <ele>1989.0</ele>
        <time>2016-06-11T12:35:21Z</time>
      </trkpt>
      <trkpt lat="40.440600" lon="-5.287967">
        <ele>1990.0</ele>
        <time>2016-06-11T12:35:22Z</time>
      </trkpt>
      <trkpt lat="40.440633" lon="-5.288050">
        <ele>1993.0</ele>
        <time>2016-06-11T12:35:23Z</time>
      </trkpt>
      <trkpt lat="40.440650" lon="-5.288117">
        <ele>1996.0</ele>
        <time>2016-06-11T12:35:24Z</time>
      </trkpt>
      <trkpt lat="40.440667" lon="-5.288200">
        <ele>1999.0</ele>
        <time>2016-06-11T12:35:25Z</time>
      </trkpt>
      <trkpt lat="40.440683" lon="-5.288267">
        <ele>2000.0</ele>
        <time>2016-06-11T12:35:26Z</time>
      </trkpt>
      <trkpt lat="40.440717" lon="-5.288333">
        <ele>2001.0</ele>
        <time>2016-06-11T12:35:27Z</time>
      </trkpt>
      <trkpt lat="40.440750" lon="-5.288383">
        <ele>2002.0</ele>
        <time>2016-06-11T12:35:28Z</time>
      </trkpt>
      <trkpt lat="40.440800" lon="-5.288417">
        <ele>2002.0</ele>
        <time>2016-06-11T12:35:29Z</time>
      </trkpt>
      <trkpt lat="40.440850" lon="-5.288450">
        <ele>2002.0</ele>
        <time>2016-06-11T12:35:30Z</time>
      </trkpt>
      <trkpt lat="40.440917" lon="-5.288467">
        <ele>2001.0</ele>
        <time>2016-06-11T12:35:31Z</time>
      </trkpt>
      <trkpt lat="40.440983" lon="-5.288467">
        <ele>2002.0</ele>
        <time>2016-06-11T12:35:32Z</time>
      </trkpt>
      <trkpt lat="40.441050" lon="-5.288467">
        <ele>2003.0</ele>
        <time>2016-06-11T12:35:33Z</time>
      </trkpt>
      <trkpt lat="40.441100" lon="-5.288467">
        <ele>2005.0</ele>
        <time>2016-06-11T12:35:34Z</time>
      </trkpt>
      <trkpt lat="40.441133" lon="-5.288450">
        <ele>2006.0</ele>
        <time>2016-06-11T12:35:35Z</time>
      </trkpt>
      <trkpt lat="40.441167" lon="-5.288433">
        <ele>2007.0</ele>
        <time>2016-06-11T12:35:36Z</time>
      </trkpt>
      <trkpt lat="40.441217" lon="-5.288400">
        <ele>2007.0</ele>
        <time>2016-06-11T12:35:37Z</time>
      </trkpt>
      <trkpt lat="40.441250" lon="-5.288383">
        <ele>2007.0</ele>
        <time>2016-06-11T12:35:38Z</time>
      </trkpt>
      <trkpt lat="40.441300" lon="-5.288367">
        <ele>2007.0</ele>
        <time>2016-06-11T12:35:39Z</time>
      </trkpt>
      <trkpt lat="40.441350" lon="-5.288333">
        <ele>2007.0</ele>
        <time>2016-06-11T12:35:40Z</time>
      </trkpt>
      <trkpt lat="40.441400" lon="-5.288300">
        <ele>2007.0</ele>
        <time>2016-06-11T12:35:41Z</time>
      </trkpt>
      <trkpt lat="40.441450" lon="-5.288250">
        <ele>2009.0</ele>
        <time>2016-06-11T12:35:42Z</time>
      </trkpt>
      <trkpt lat="40.441483" lon="-5.288183">
        <ele>2011.0</ele>
        <time>2016-06-11T12:35:43Z</time>
      </trkpt>
      <trkpt lat="40.441533" lon="-5.288117">
        <ele>2012.0</ele>
        <time>2016-06-11T12:35:44Z</time>
      </trkpt>
      <trkpt lat="40.441567" lon="-5.288033">
        <ele>2013.0</ele>
        <time>2016-06-11T12:35:45Z</time>
      </trkpt>
      <trkpt lat="40.441617" lon="-5.287950">
        <ele>2014.0</ele>
        <time>2016-06-11T12:35:46Z</time>
      </trkpt>
      <trkpt lat="40.441667" lon="-5.287900">
        <ele>2015.0</ele>
        <time>2016-06-11T12:35:47Z</time>
      </trkpt>
      <trkpt lat="40.441733" lon="-5.287850">
        <ele>2017.0</ele>
        <time>2016-06-11T12:35:48Z</time>
      </trkpt>
      <trkpt lat="40.441783" lon="-5.287783">
        <ele>2019.0</ele>
        <time>2016-06-11T12:35:49Z</time>
      </trkpt>
      <trkpt lat="40.441817" lon="-5.287683">
        <ele>2021.0</ele>
        <time>2016-06-11T12:35:50Z</time>
      </trkpt>
      <trkpt lat="40.441850" lon="-5.287583">
        <ele>2023.0</ele>
        <time>2016-06-11T12:35:51Z</time>
      </trkpt>
      <trkpt lat="40.441900" lon="-5.287483">
        <ele>2025.0</ele>
        <time>2016-06-11T12:35:52Z</time>
      </trkpt>
      <trkpt lat="40.441933" lon="-5.287400">
        <ele>2027.0</ele>
        <time>2016-06-11T12:35:53Z</time>
      </trkpt>
      <trkpt lat="40.441950" lon="-5.287300">
        <ele>2029.0</ele>
        <time>2016-06-11T12:35:54Z</time>
      </trkpt>
      <trkpt lat="40.441967" lon="-5.287200">
        <ele>2031.0</ele>
        <time>2016-06-11T12:35:55Z</time>
      </trkpt>
      <trkpt lat="40.441983" lon="-5.287100">
        <ele>2034.0</ele>
        <time>2016-06-11T12:35:56Z</time>
      </trkpt>
      <trkpt lat="40.441983" lon="-5.286983">
        <ele>2036.0</ele>
        <time>2016-06-11T12:35:57Z</time>
      </trkpt>
      <trkpt lat="40.442000" lon="-5.286883">
        <ele>2039.0</ele>
        <time>2016-06-11T12:35:58Z</time>
      </trkpt>
      <trkpt lat="40.442033" lon="-5.286800">
        <ele>2042.0</ele>
        <time>2016-06-11T12:35:59Z</time>
      </trkpt>
      <trkpt lat="40.442050" lon="-5.286700">
        <ele>2044.0</ele>
        <time>2016-06-11T12:36:00Z</time>
      </trkpt>
      <trkpt lat="40.442067" lon="-5.286583">
        <ele>2045.0</ele>
        <time>2016-06-11T12:36:01Z</time>
      </trkpt>
      <trkpt lat="40.442050" lon="-5.286450">
        <ele>2047.0</ele>
        <time>2016-06-11T12:36:02Z</time>
      </trkpt>
      <trkpt lat="40.442017" lon="-5.286333">
        <ele>2051.0</ele>
        <time>2016-06-11T12:36:03Z</time>
      </trkpt>
      <trkpt lat="40.441983" lon="-5.286233">
        <ele>2055.0</ele>
        <time>2016-06-11T12:36:04Z</time>
      </trkpt>
      <trkpt lat="40.441950" lon="-5.286133">
        <ele>2058.0</ele>
        <time>2016-06-11T12:36:05Z</time>
      </trkpt>
      <trkpt lat="40.441917" lon="-5.286050">
        <ele>2060.0</ele>
        <time>2016-06-11T12:36:06Z</time>
      </trkpt>
      <trkpt lat="40.441883" lon="-5.285983">
        <ele>2061.0</ele>
        <time>2016-06-11T12:36:07Z</time>
      </trkpt>
      <trkpt lat="40.441833" lon="-5.285917">
        <ele>2061.0</ele>
        <time>2016-06-11T12:36:08Z</time>
      </trkpt>
      <trkpt lat="40.441750" lon="-5.285850">
        <ele>2060.0</ele>
        <time>2016-06-11T12:36:09Z</time>
      </trkpt>
      <trkpt lat="40.441650" lon="-5.285833">
        <ele>2060.0</ele>
        <time>2016-06-11T12:36:10Z</time>
      </trkpt>
      <trkpt lat="40.441567" lon="-5.285867">
        <ele>2062.0</ele>
        <time>2016-06-11T12:36:11Z</time>
      </trkpt>
      <trkpt lat="40.441483" lon="-5.285917">
        <ele>2064.0</ele>
        <time>2016-06-11T12:36:12Z</time>
      </trkpt>
      <trkpt lat="40.441433" lon="-5.285967">
        <ele>2067.0</ele>
        <time>2016-06-11T12:36:13Z</time>
      </trkpt>
      <trkpt lat="40.441367" lon="-5.286017">
        <ele>2069.0</ele>
        <time>2016-06-11T12:36:14Z</time>
      </trkpt>
      <trkpt lat="40.441300" lon="-5.286067">
        <ele>2071.0</ele>
        <time>2016-06-11T12:36:15Z</time>
      </trkpt>
      <trkpt lat="40.441250" lon="-5.286133">
        <ele>2071.0</ele>
        <time>2016-06-11T12:36:16Z</time>
      </trkpt>
      <trkpt lat="40.441200" lon="-5.286217">
        <ele>2072.0</ele>
        <time>2016-06-11T12:36:17Z</time>
      </trkpt>
      <trkpt lat="40.441150" lon="-5.286317">
        <ele>2073.0</ele>
        <time>2016-06-11T12:36:18Z</time>
      </trkpt>
      <trkpt lat="40.441117" lon="-5.286417">
        <ele>2076.0</ele>
        <time>2016-06-11T12:36:19Z</time>
      </trkpt>
      <trkpt lat="40.441100" lon="-5.286517">
        <ele>2080.0</ele>
        <time>2016-06-11T12:36:20Z</time>
      </trkpt>
      <trkpt lat="40.441083" lon="-5.286600">
        <ele>2084.0</ele>
        <time>2016-06-11T12:36:21Z</time>
      </trkpt>
      <trkpt lat="40.441067" lon="-5.286683">
        <ele>2088.0</ele>
        <time>2016-06-11T12:36:22Z</time>
      </trkpt>
      <trkpt lat="40.441050" lon="-5.286750">
        <ele>2090.0</ele>
        <time>2016-06-11T12:36:23Z</time>
      </trkpt>
      <trkpt lat="40.441050" lon="-5.286817">
        <ele>2092.0</ele>
        <time>2016-06-11T12:36:24Z</time>
      </trkpt>
      <trkpt lat="40.441050" lon="-5.286900">
        <ele>2093.0</ele>
        <time>2016-06-11T12:36:25Z</time>
      </trkpt>
      <trkpt lat="40.441050" lon="-5.286967">
        <ele>2094.0</ele>
        <time>2016-06-11T12:36:26Z</time>
      </trkpt>
      <trkpt lat="40.441050" lon="-5.287033">
        <ele>2095.0</ele>
        <time>2016-06-11T12:36:27Z</time>
      </trkpt>
      <trkpt lat="40.441067" lon="-5.287100">
        <ele>2097.0</ele>
        <time>2016-06-11T12:36:28Z</time>
      </trkpt>
      <trkpt lat="40.441067" lon="-5.287167">
        <ele>2099.0</ele>
        <time>2016-06-11T12:36:29Z</time>
      </trkpt>
      <trkpt lat="40.441100" lon="-5.287217">
        <ele>2100.0</ele>
        <time>2016-06-11T12:36:30Z</time>
      </trkpt>
      <trkpt lat="40.441117" lon="-5.287267">
        <ele>2100.0</ele>
        <time>2016-06-11T12:36:31Z</time>
      </trkpt>
      <trkpt lat="40.441167" lon="-5.287317">
        <ele>2101.0</ele>
        <time>2016-06-11T12:36:32Z</time>
      </trkpt>
      <trkpt lat="40.441200" lon="-5.287350">
        <ele>2102.0</ele>
        <time>2016-06-11T12:36:33Z</time>
      </trkpt>
      <trkpt lat="40.441233" lon="-5.287400">
        <ele>2103.0</ele>
        <time>2016-06-11T12:36:34Z</time>
      </trkpt>
      <trkpt lat="40.441267" lon="-5.287450">
        <ele>2103.0</ele>
        <time>2016-06-11T12:36:35Z</time>
      </trkpt>
      <trkpt lat="40.441300" lon="-5.287500">
        <ele>2104.0</ele>
        <time>2016-06-11T12:36:36Z</time>
      </trkpt>
      <trkpt lat="40.441350" lon="-5.287550">
        <ele>2104.0</ele>
        <time>2016-06-11T12:36:37Z</time>
      </trkpt>
      <trkpt lat="40.441417" lon="-5.287567">
        <ele>2103.0</ele>
        <time>2016-06-11T12:36:38Z</time>
      </trkpt>
      <trkpt lat="40.441483" lon="-5.287567">
        <ele>2101.0</ele>
        <time>2016-06-11T12:36:39Z</time>
      </trkpt>
      <trkpt lat="40.441567" lon="-5.287550">
        <ele>2101.0</ele>
        <time>2016-06-11T12:36:40Z</time>
      </trkpt>
      <trkpt lat="40.441633" lon="-5.287533">
        <ele>2101.0</ele>
        <time>2016-06-11T12:36:41Z</time>
      </trkpt>
      <trkpt lat="40.441683" lon="-5.287517">
        <ele>2102.0</ele>
        <time>2016-06-11T12:36:42Z</time>
      </trkpt>
      <trkpt lat="40.441733" lon="-5.287483">
        <ele>2102.0</ele>
        <time>2016-06-11T12:36:43Z</time>
      </trkpt>
      <trkpt lat="40.441800" lon="-5.287450">
        <ele>2101.0</ele>
        <time>2016-06-11T12:36:44Z</time>
      </trkpt>
      <trkpt lat="40.441850" lon="-5.287383">
        <ele>2100.0</ele>
        <time>2016-06-11T12:36:45Z</time>
      </trkpt>
      <trkpt lat="40.441900" lon="-5.287317">
        <ele>2099.0</ele>
        <time>2016-06-11T12:36:46Z</time>
      </trkpt>
      <trkpt lat="40.441967" lon="-5.287233">
        <ele>2099.0</ele>
        <time>2016-06-11T12:36:47Z</time>
      </trkpt>
      <trkpt lat="40.442000" lon="-5.287133">
        <ele>2099.0</ele>
        <time>2016-06-11T12:36:48Z</time>
      </trkpt>
      <trkpt lat="40.442050" lon="-5.287050">
        <ele>2099.0</ele>
        <time>2016-06-11T12:36:49Z</time>
      </trkpt>
      <trkpt lat="40.442083" lon="-5.286967">
        <ele>2099.0</ele>
        <time>2016-06-11T12:36:50Z</time>
      </trkpt>
      <trkpt lat="40.442133" lon="-5.286900">
        <ele>2099.0</ele>
        <time>2016-06-11T12:36:51Z</time>
      </trkpt>
      <trkpt lat="40.442167" lon="-5.286817">
        <ele>2097.0</ele>
        <time>2016-06-11T12:36:52Z</time>
      </trkpt>
      <trkpt lat="40.442217" lon="-5.286733">
        <ele>2096.0</ele>
        <time>2016-06-11T12:36:53Z</time>
      </trkpt>
      <trkpt lat="40.442233" lon="-5.286600">
        <ele>2095.0</ele>
        <time>2016-06-11T12:36:54Z</time>
      </trkpt>
      <trkpt lat="40.442233" lon="-5.286467">
        <ele>2095.0</ele>
        <time>2016-06-11T12:36:55Z</time>
      </trkpt>
      <trkpt lat="40.442217" lon="-5.286350">
        <ele>2094.0</ele>
        <time>2016-06-11T12:36:56Z</time>
      </trkpt>
      <trkpt lat="40.442217" lon="-5.286217">
        <ele>2094.0</ele>
        <time>2016-06-11T12:36:57Z</time>
      </trkpt>
      <trkpt lat="40.442217" lon="-5.286100">
        <ele>2093.0</ele>
        <time>2016-06-11T12:36:58Z</time>
      </trkpt>
      <trkpt lat="40.442217" lon="-5.286000">
        <ele>2092.0</ele>
        <time>2016-06-11T12:36:59Z</time>
      </trkpt>
      <trkpt lat="40.442217" lon="-5.285867">
        <ele>2090.0</ele>
        <time>2016-06-11T12:37:00Z</time>
      </trkpt>
      <trkpt lat="40.442200" lon="-5.285750">
        <ele>2088.0</ele>
        <time>2016-06-11T12:37:01Z</time>
      </trkpt>
      <trkpt lat="40.442150" lon="-5.285617">
        <ele>2086.0</ele>
        <time>2016-06-11T12:37:02Z</time>
      </trkpt>
      <trkpt lat="40.442083" lon="-5.285500">
        <ele>2084.0</ele>
        <time>2016-06-11T12:37:03Z</time>
      </trkpt>
      <trkpt lat="40.442033" lon="-5.285400">
        <ele>2083.0</ele>
        <time>2016-06-11T12:37:04Z</time>
      </trkpt>
      <trkpt lat="40.441967" lon="-5.285283">
        <ele>2083.0</ele>
        <time>2016-06-11T12:37:05Z</time>
      </trkpt>
      <trkpt lat="40.441900" lon="-5.285167">
        <ele>2083.0</ele>
        <time>2016-06-11T12:37:06Z</time>
      </trkpt>
      <trkpt lat="40.441867" lon="-5.285033">
        <ele>2083.0</ele>
        <time>2016-06-11T12:37:07Z</time>
      </trkpt>
      <trkpt lat="40.441817" lon="-5.284900">
        <ele>2086.0</ele>
        <time>2016-06-11T12:37:08Z</time>
      </trkpt>
      <trkpt lat="40.441800" lon="-5.284767">
        <ele>2090.0</ele>
        <time>2016-06-11T12:37:09Z</time>
      </trkpt>
      <trkpt lat="40.441800" lon="-5.284667">
        <ele>2094.0</ele>
        <time>2016-06-11T12:37:10Z</time>
      </trkpt>
      <trkpt lat="40.441800" lon="-5.284583">
        <ele>2097.0</ele>
        <time>2016-06-11T12:37:11Z</time>
      </trkpt>
      <trkpt lat="40.441817" lon="-5.284517">
        <ele>2099.0</ele>
        <time>2016-06-11T12:37:12Z</time>
      </trkpt>
      <trkpt lat="40.441833" lon="-5.284417">
        <ele>2100.0</ele>
        <time>2016-06-11T12:37:13Z</time>
      </trkpt>
      <trkpt lat="40.441867" lon="-5.284317">
        <ele>2101.0</ele>
        <time>2016-06-11T12:37:14Z</time>
      </trkpt>
      <trkpt lat="40.441917" lon="-5.284200">
        <ele>2103.0</ele>
        <time>2016-06-11T12:37:15Z</time>
      </trkpt>
      <trkpt lat="40.442000" lon="-5.284117">
        <ele>2106.0</ele>
        <time>2016-06-11T12:37:16Z</time>
      </trkpt>
      <trkpt lat="40.442067" lon="-5.284050">
        <ele>2109.0</ele>
        <time>2016-06-11T12:37:17Z</time>
      </trkpt>
      <trkpt lat="40.442133" lon="-5.284000">
        <ele>2111.0</ele>
        <time>2016-06-11T12:37:18Z</time>
      </trkpt>
      <trkpt lat="40.442200" lon="-5.283950">
        <ele>2112.0</ele>
        <time>2016-06-11T12:37:19Z</time>
      </trkpt>
      <trkpt lat="40.442267" lon="-5.283917">
        <ele>2109.0</ele>
        <time>2016-06-11T12:37:20Z</time>
      </trkpt>
      <trkpt lat="40.442317" lon="-5.283867">
        <ele>2107.0</ele>
        <time>2016-06-11T12:37:21Z</time>
      </trkpt>
      <trkpt lat="40.442383" lon="-5.283833">
        <ele>2104.0</ele>
        <time>2016-06-11T12:37:22Z</time>
      </trkpt>
      <trkpt lat="40.442450" lon="-5.283817">
        <ele>2101.0</ele>
        <time>2016-06-11T12:37:23Z</time>
      </trkpt>
      <trkpt lat="40.442517" lon="-5.283850">
        <ele>2099.0</ele>
        <time>2016-06-11T12:37:24Z</time>
      </trkpt>
      <trkpt lat="40.442567" lon="-5.283900">
        <ele>2097.0</ele>
        <time>2016-06-11T12:37:25Z</time>
      </trkpt>
      <trkpt lat="40.442617" lon="-5.283983">
        <ele>2096.0</ele>
        <time>2016-06-11T12:37:26Z</time>
      </trkpt>
      <trkpt lat="40.442650" lon="-5.284083">
        <ele>2094.0</ele>
        <time>2016-06-11T12:37:27Z</time>
      </trkpt>
      <trkpt lat="40.442650" lon="-5.284200">
        <ele>2093.0</ele>
        <time>2016-06-11T12:37:28Z</time>
      </trkpt>
      <trkpt lat="40.442650" lon="-5.284317">
        <ele>2093.0</ele>
        <time>2016-06-11T12:37:29Z</time>
      </trkpt>
      <trkpt lat="40.442633" lon="-5.284417">
        <ele>2092.0</ele>
        <time>2016-06-11T12:37:30Z</time>
      </trkpt>
      <trkpt lat="40.442600" lon="-5.284517">
        <ele>2091.0</ele>
        <time>2016-06-11T12:37:31Z</time>
      </trkpt>
      <trkpt lat="40.442550" lon="-5.284600">
        <ele>2089.0</ele>
        <time>2016-06-11T12:37:32Z</time>
      </trkpt>
      <trkpt lat="40.442483" lon="-5.284683">
        <ele>2087.0</ele>
        <time>2016-06-11T12:37:33Z</time>
      </trkpt>
      <trkpt lat="40.442417" lon="-5.284767">
        <ele>2086.0</ele>
        <time>2016-06-11T12:37:34Z</time>
      </trkpt>
      <trkpt lat="40.442317" lon="-5.284817">
        <ele>2084.0</ele>
        <time>2016-06-11T12:37:35Z</time>
      </trkpt>
      <trkpt lat="40.442217" lon="-5.284833">
        <ele>2084.0</ele>
        <time>2016-06-11T12:37:36Z</time>
      </trkpt>
      <trkpt lat="40.442117" lon="-5.284850">
        <ele>2084.0</ele>
        <time>2016-06-11T12:37:37Z</time>
      </trkpt>
      <trkpt lat="40.442017" lon="-5.284867">
        <ele>2083.0</ele>
        <time>2016-06-11T12:37:38Z</time>
      </trkpt>
      <trkpt lat="40.441917" lon="-5.284867">
        <ele>2082.0</ele>
        <time>2016-06-11T12:37:39Z</time>
      </trkpt>
      <trkpt lat="40.441800" lon="-5.284867">
        <ele>2081.0</ele>
        <time>2016-06-11T12:37:40Z</time>
      </trkpt>
      <trkpt lat="40.441700" lon="-5.284833">
        <ele>2080.0</ele>
        <time>2016-06-11T12:37:41Z</time>
      </trkpt>
      <trkpt lat="40.441600" lon="-5.284783">
        <ele>2079.0</ele>
        <time>2016-06-11T12:37:42Z</time>
      </trkpt>
      <trkpt lat="40.441517" lon="-5.284683">
        <ele>2077.0</ele>
        <time>2016-06-11T12:37:43Z</time>
      </trkpt>
      <trkpt lat="40.441433" lon="-5.284550">
        <ele>2075.0</ele>
        <time>2016-06-11T12:37:44Z</time>
      </trkpt>
      <trkpt lat="40.441383" lon="-5.284417">
        <ele>2074.0</ele>
        <time>2016-06-11T12:37:45Z</time>
      </trkpt>
      <trkpt lat="40.441350" lon="-5.284283">
        <ele>2072.0</ele>
        <time>2016-06-11T12:37:46Z</time>
      </trkpt>
      <trkpt lat="40.441350" lon="-5.284133">
        <ele>2071.0</ele>
        <time>2016-06-11T12:37:47Z</time>
      </trkpt>
      <trkpt lat="40.441350" lon="-5.284017">
        <ele>2070.0</ele>
        <time>2016-06-11T12:37:48Z</time>
      </trkpt>
      <trkpt lat="40.441383" lon="-5.283883">
        <ele>2069.0</ele>
        <time>2016-06-11T12:37:49Z</time>
      </trkpt>
      <trkpt lat="40.441417" lon="-5.283783">
        <ele>2069.0</ele>
        <time>2016-06-11T12:37:50Z</time>
      </trkpt>
      <trkpt lat="40.441467" lon="-5.283700">
        <ele>2070.0</ele>
        <time>2016-06-11T12:37:51Z</time>
      </trkpt>
      <trkpt lat="40.441533" lon="-5.283633">
        <ele>2070.0</ele>
        <time>2016-06-11T12:37:52Z</time>
      </trkpt>
      <trkpt lat="40.441583" lon="-5.283550">
        <ele>2072.0</ele>
        <time>2016-06-11T12:37:53Z</time>
      </trkpt>
      <trkpt lat="40.441650" lon="-5.283467">
        <ele>2074.0</ele>
        <time>2016-06-11T12:37:54Z</time>
      </trkpt>
      <trkpt lat="40.441683" lon="-5.283383">
        <ele>2077.0</ele>
        <time>2016-06-11T12:37:55Z</time>
      </trkpt>
      <trkpt lat="40.441717" lon="-5.283317">
        <ele>2080.0</ele>
        <time>2016-06-11T12:37:56Z</time>
      </trkpt>
      <trkpt lat="40.441767" lon="-5.283267">
        <ele>2082.0</ele>
        <time>2016-06-11T12:37:57Z</time>
      </trkpt>
      <trkpt lat="40.441817" lon="-5.283217">
        <ele>2083.0</ele>
        <time>2016-06-11T12:37:58Z</time>
      </trkpt>
      <trkpt lat="40.441867" lon="-5.283183">
        <ele>2085.0</ele>
        <time>2016-06-11T12:37:59Z</time>
      </trkpt>
      <trkpt lat="40.441933" lon="-5.283133">
        <ele>2087.0</ele>
        <time>2016-06-11T12:38:00Z</time>
      </trkpt>
      <trkpt lat="40.441983" lon="-5.283100">
        <ele>2091.0</ele>
        <time>2016-06-11T12:38:01Z</time>
      </trkpt>
      <trkpt lat="40.442017" lon="-5.283050">
        <ele>2094.0</ele>
        <time>2016-06-11T12:38:02Z</time>
      </trkpt>
      <trkpt lat="40.442050" lon="-5.283000">
        <ele>2096.0</ele>
        <time>2016-06-11T12:38:03Z</time>
      </trkpt>
      <trkpt lat="40.442083" lon="-5.282933">
        <ele>2098.0</ele>
        <time>2016-06-11T12:38:04Z</time>
      </trkpt>
      <trkpt lat="40.442133" lon="-5.282867">
        <ele>2100.0</ele>
        <time>2016-06-11T12:38:05Z</time>
      </trkpt>
      <trkpt lat="40.442150" lon="-5.282783">
        <ele>2103.0</ele>
        <time>2016-06-11T12:38:06Z</time>
      </trkpt>
      <trkpt lat="40.442183" lon="-5.282700">
        <ele>2106.0</ele>
        <time>2016-06-11T12:38:07Z</time>
      </trkpt>
      <trkpt lat="40.442200" lon="-5.282617">
        <ele>2108.0</ele>
        <time>2016-06-11T12:38:08Z</time>
      </trkpt>
      <trkpt lat="40.442217" lon="-5.282517">
        <ele>2109.0</ele>
        <time>2016-06-11T12:38:09Z</time>
      </trkpt>
      <trkpt lat="40.442217" lon="-5.282417">
        <ele>2110.0</ele>
        <time>2016-06-11T12:38:10Z</time>
      </trkpt>
      <trkpt lat="40.442200" lon="-5.282283">
        <ele>2110.0</ele>
        <time>2016-06-11T12:38:11Z</time>
      </trkpt>
      <trkpt lat="40.442150" lon="-5.282167">
        <ele>2110.0</ele>
        <time>2016-06-11T12:38:12Z</time>
      </trkpt>
      <trkpt lat="40.442083" lon="-5.282050">
        <ele>2111.0</ele>
        <time>2016-06-11T12:38:13Z</time>
      </trkpt>
      <trkpt lat="40.442000" lon="-5.281950">
        <ele>2113.0</ele>
        <time>2016-06-11T12:38:14Z</time>
      </trkpt>
      <trkpt lat="40.441917" lon="-5.281883">
        <ele>2115.0</ele>
        <time>2016-06-11T12:38:15Z</time>
      </trkpt>
      <trkpt lat="40.441833" lon="-5.281833">
        <ele>2117.0</ele>
        <time>2016-06-11T12:38:16Z</time>
      </trkpt>
      <trkpt lat="40.441750" lon="-5.281817">
        <ele>2118.0</ele>
        <time>2016-06-11T12:38:17Z</time>
      </trkpt>
      <trkpt lat="40.441650" lon="-5.281800">
        <ele>2118.0</ele>
        <time>2016-06-11T12:38:18Z</time>
      </trkpt>
      <trkpt lat="40.441567" lon="-5.281833">
        <ele>2119.0</ele>
        <time>2016-06-11T12:38:19Z</time>
      </trkpt>
      <trkpt lat="40.441483" lon="-5.281883">
        <ele>2120.0</ele>
        <time>2016-06-11T12:38:20Z</time>
      </trkpt>
      <trkpt lat="40.441417" lon="-5.281950">
        <ele>2123.0</ele>
        <time>2016-06-11T12:38:21Z</time>
      </trkpt>
      <trkpt lat="40.441367" lon="-5.282017">
        <ele>2125.0</ele>
        <time>2016-06-11T12:38:22Z</time>
      </trkpt>
      <trkpt lat="40.441317" lon="-5.282083">
        <ele>2128.0</ele>
        <time>2016-06-11T12:38:23Z</time>
      </trkpt>
      <trkpt lat="40.441283" lon="-5.282150">
        <ele>2131.0</ele>
        <time>2016-06-11T12:38:24Z</time>
      </trkpt>
      <trkpt lat="40.441233" lon="-5.282233">
        <ele>2134.0</ele>
        <time>2016-06-11T12:38:25Z</time>
      </trkpt>
      <trkpt lat="40.441200" lon="-5.282300">
        <ele>2138.0</ele>
        <time>2016-06-11T12:38:26Z</time>
      </trkpt>
      <trkpt lat="40.441183" lon="-5.282383">
        <ele>2141.0</ele>
        <time>2016-06-11T12:38:27Z</time>
      </trkpt>
      <trkpt lat="40.441167" lon="-5.282450">
        <ele>2144.0</ele>
        <time>2016-06-11T12:38:28Z</time>
      </trkpt>
      <trkpt lat="40.441150" lon="-5.282517">
        <ele>2147.0</ele>
        <time>2016-06-11T12:38:29Z</time>
      </trkpt>
      <trkpt lat="40.441133" lon="-5.282567">
        <ele>2149.0</ele>
        <time>2016-06-11T12:38:30Z</time>
      </trkpt>
      <trkpt lat="40.441150" lon="-5.282617">
        <ele>2149.0</ele>
        <time>2016-06-11T12:38:31Z</time>
      </trkpt>
      <trkpt lat="40.441183" lon="-5.282650">
        <ele>2148.0</ele>
        <time>2016-06-11T12:38:32Z</time>
      </trkpt>
      <trkpt lat="40.441217" lon="-5.282683">
        <ele>2146.0</ele>
        <time>2016-06-11T12:38:33Z</time>
      </trkpt>
      <trkpt lat="40.441283" lon="-5.282683">
        <ele>2143.0</ele>
        <time>2016-06-11T12:38:34Z</time>
      </trkpt>
      <trkpt lat="40.441367" lon="-5.282667">
        <ele>2140.0</ele>
        <time>2016-06-11T12:38:35Z</time>
      </trkpt>
      <trkpt lat="40.441433" lon="-5.282633">
        <ele>2137.0</ele>
        <time>2016-06-11T12:38:36Z</time>
      </trkpt>
      <trkpt lat="40.441500" lon="-5.282583">
        <ele>2136.0</ele>
        <time>2016-06-11T12:38:37Z</time>
      </trkpt>
      <trkpt lat="40.441550" lon="-5.282517">
        <ele>2134.0</ele>
        <time>2016-06-11T12:38:38Z</time>
      </trkpt>
      <trkpt lat="40.441600" lon="-5.282433">
        <ele>2132.0</ele>
        <time>2016-06-11T12:38:39Z</time>
      </trkpt>
      <trkpt lat="40.441650" lon="-5.282350">
        <ele>2130.0</ele>
        <time>2016-06-11T12:38:40Z</time>
      </trkpt>
      <trkpt lat="40.441683" lon="-5.282267">
        <ele>2127.0</ele>
        <time>2016-06-11T12:38:41Z</time>
      </trkpt>
      <trkpt lat="40.441733" lon="-5.282167">
        <ele>2125.0</ele>
        <time>2016-06-11T12:38:42Z</time>
      </trkpt>
      <trkpt lat="40.441767" lon="-5.282050">
        <ele>2123.0</ele>
        <time>2016-06-11T12:38:43Z</time>
      </trkpt>
      <trkpt lat="40.441800" lon="-5.281933">
        <ele>2121.0</ele>
        <time>2016-06-11T12:38:44Z</time>
      </trkpt>
      <trkpt lat="40.441850" lon="-5.281817">
        <ele>2119.0</ele>
        <time>2016-06-11T12:38:45Z</time>
      </trkpt>
      <trkpt lat="40.441883" lon="-5.281700">
        <ele>2119.0</ele>
        <time>2016-06-11T12:38:46Z</time>
      </trkpt>
      <trkpt lat="40.441917" lon="-5.281583">
        <ele>2120.0</ele>
        <time>2016-06-11T12:38:47Z</time>
      </trkpt>
      <trkpt lat="40.441950" lon="-5.281467">
        <ele>2121.0</ele>
        <time>2016-06-11T12:38:48Z</time>
      </trkpt>
      <trkpt lat="40.441967" lon="-5.281350">
        <ele>2123.0</ele>
        <time>2016-06-11T12:38:49Z</time>
      </trkpt>
      <trkpt lat="40.441983" lon="-5.281250">
        <ele>2124.0</ele>
        <time>2016-06-11T12:38:50Z</time>
      </trkpt>
      <trkpt lat="40.442017" lon="-5.281133">
        <ele>2124.0</ele>
        <time>2016-06-11T12:38:51Z</time>
      </trkpt>
      <trkpt lat="40.442067" lon="-5.281033">
        <ele>2124.0</ele>
        <time>2016-06-11T12:38:52Z</time>
      </trkpt>
      <trkpt lat="40.442117" lon="-5.280917">
        <ele>2123.0</ele>
        <time>2016-06-11T12:38:53Z</time>
      </trkpt>
      <trkpt lat="40.442150" lon="-5.280817">
        <ele>2122.0</ele>
        <time>2016-06-11T12:38:54Z</time>
      </trkpt>
      <trkpt lat="40.442200" lon="-5.280717">
        <ele>2120.0</ele>
        <time>2016-06-11T12:38:55Z</time>
      </trkpt>
      <trkpt lat="40.442267" lon="-5.280617">
        <ele>2117.0</ele>
        <time>2016-06-11T12:38:56Z</time>
      </trkpt>
      <trkpt lat="40.442317" lon="-5.280517">
        <ele>2115.0</ele>
        <time>2016-06-11T12:38:57Z</time>
      </trkpt>
      <trkpt lat="40.442383" lon="-5.280417">
        <ele>2113.0</ele>
        <time>2016-06-11T12:38:58Z</time>
      </trkpt>
      <trkpt lat="40.442450" lon="-5.280317">
        <ele>2110.0</ele>
        <time>2016-06-11T12:38:59Z</time>
      </trkpt>
      <trkpt lat="40.442517" lon="-5.280250">
        <ele>2108.0</ele>
        <time>2016-06-11T12:39:00Z</time>
      </trkpt>
      <trkpt lat="40.442583" lon="-5.280167">
        <ele>2106.0</ele>
        <time>2016-06-11T12:39:01Z</time>
      </trkpt>
      <trkpt lat="40.442650" lon="-5.280117">
        <ele>2104.0</ele>
        <time>2016-06-11T12:39:02Z</time>
      </trkpt>
      <trkpt lat="40.442717" lon="-5.280050">
        <ele>2101.0</ele>
        <time>2016-06-11T12:39:03Z</time>
      </trkpt>
      <trkpt lat="40.442783" lon="-5.279983">
        <ele>2098.0</ele>
        <time>2016-06-11T12:39:04Z</time>
      </trkpt>
      <trkpt lat="40.442867" lon="-5.279917">
        <ele>2094.0</ele>
        <time>2016-06-11T12:39:05Z</time>
      </trkpt>
      <trkpt lat="40.442950" lon="-5.279850">
        <ele>2091.0</ele>
        <time>2016-06-11T12:39:06Z</time>
      </trkpt>
      <trkpt lat="40.443017" lon="-5.279800">
        <ele>2090.0</ele>
        <time>2016-06-11T12:39:07Z</time>
      </trkpt>
      <trkpt lat="40.443100" lon="-5.279750">
        <ele>2088.0</ele>
        <time>2016-06-11T12:39:08Z</time>
      </trkpt>
      <trkpt lat="40.443183" lon="-5.279700">
        <ele>2086.0</ele>
        <time>2016-06-11T12:39:09Z</time>
      </trkpt>
      <trkpt lat="40.443250" lon="-5.279617">
        <ele>2084.0</ele>
        <time>2016-06-11T12:39:10Z</time>
      </trkpt>
      <trkpt lat="40.443333" lon="-5.279550">
        <ele>2083.0</ele>
        <time>2016-06-11T12:39:11Z</time>
      </trkpt>
      <trkpt lat="40.443417" lon="-5.279467">
        <ele>2081.0</ele>
        <time>2016-06-11T12:39:12Z</time>
      </trkpt>
      <trkpt lat="40.443500" lon="-5.279383">
        <ele>2079.0</ele>
        <time>2016-06-11T12:39:13Z</time>
      </trkpt>
      <trkpt lat="40.443583" lon="-5.279317">
        <ele>2078.0</ele>
        <time>2016-06-11T12:39:14Z</time>
      </trkpt>
      <trkpt lat="40.443667" lon="-5.279267">
        <ele>2076.0</ele>
        <time>2016-06-11T12:39:15Z</time>
      </trkpt>
      <trkpt lat="40.443750" lon="-5.279217">
        <ele>2075.0</ele>
        <time>2016-06-11T12:39:16Z</time>
      </trkpt>
      <trkpt lat="40.443833" lon="-5.279167">
        <ele>2074.0</ele>
        <time>2016-06-11T12:39:17Z</time>
      </trkpt>
      <trkpt lat="40.443933" lon="-5.279117">
        <ele>2073.0</ele>
        <time>2016-06-11T12:39:18Z</time>
      </trkpt>
      <trkpt lat="40.444017" lon="-5.279100">
        <ele>2073.0</ele>
        <time>2016-06-11T12:39:19Z</time>
      </trkpt>
      <trkpt lat="40.444083" lon="-5.279067">
        <ele>2074.0</ele>
        <time>2016-06-11T12:39:20Z</time>
      </trkpt>
      <trkpt lat="40.444167" lon="-5.279033">
        <ele>2073.0</ele>
        <time>2016-06-11T12:39:21Z</time>
      </trkpt>
      <trkpt lat="40.444233" lon="-5.278983">
        <ele>2073.0</ele>
        <time>2016-06-11T12:39:22Z</time>
      </trkpt>
      <trkpt lat="40.444317" lon="-5.278950">
        <ele>2072.0</ele>
        <time>2016-06-11T12:39:23Z</time>
      </trkpt>
      <trkpt lat="40.444400" lon="-5.278900">
        <ele>2070.0</ele>
        <time>2016-06-11T12:39:24Z</time>
      </trkpt>
      <trkpt lat="40.444467" lon="-5.278850">
        <ele>2069.0</ele>
        <time>2016-06-11T12:39:25Z</time>
      </trkpt>
      <trkpt lat="40.444550" lon="-5.278800">
        <ele>2068.0</ele>
        <time>2016-06-11T12:39:26Z</time>
      </trkpt>
      <trkpt lat="40.444633" lon="-5.278750">
        <ele>2066.0</ele>
        <time>2016-06-11T12:39:27Z</time>
      </trkpt>
      <trkpt lat="40.444700" lon="-5.278683">
        <ele>2064.0</ele>
        <time>2016-06-11T12:39:28Z</time>
      </trkpt>
      <trkpt lat="40.444783" lon="-5.278617">
        <ele>2063.0</ele>
        <time>2016-06-11T12:39:29Z</time>
      </trkpt>
      <trkpt lat="40.444850" lon="-5.278550">
        <ele>2061.0</ele>
        <time>2016-06-11T12:39:30Z</time>
      </trkpt>
      <trkpt lat="40.444933" lon="-5.278483">
        <ele>2059.0</ele>
        <time>2016-06-11T12:39:31Z</time>
      </trkpt>
      <trkpt lat="40.445017" lon="-5.278400">
        <ele>2057.0</ele>
        <time>2016-06-11T12:39:32Z</time>
      </trkpt>
      <trkpt lat="40.445100" lon="-5.278300">
        <ele>2056.0</ele>
        <time>2016-06-11T12:39:33Z</time>
      </trkpt>
      <trkpt lat="40.445167" lon="-5.278217">
        <ele>2055.0</ele>
        <time>2016-06-11T12:39:34Z</time>
      </trkpt>
      <trkpt lat="40.445233" lon="-5.278117">
        <ele>2054.0</ele>
        <time>2016-06-11T12:39:35Z</time>
      </trkpt>
      <trkpt lat="40.445300" lon="-5.278017">
        <ele>2053.0</ele>
        <time>2016-06-11T12:39:36Z</time>
      </trkpt>
      <trkpt lat="40.445367" lon="-5.277917">
        <ele>2051.0</ele>
        <time>2016-06-11T12:39:37Z</time>
      </trkpt>
      <trkpt lat="40.445450" lon="-5.277800">
        <ele>2049.0</ele>
        <time>2016-06-11T12:39:38Z</time>
      </trkpt>
      <trkpt lat="40.445533" lon="-5.277717">
        <ele>2049.0</ele>
        <time>2016-06-11T12:39:39Z</time>
      </trkpt>
      <trkpt lat="40.445617" lon="-5.277633">
        <ele>2050.0</ele>
        <time>2016-06-11T12:39:40Z</time>
      </trkpt>
      <trkpt lat="40.445683" lon="-5.277550">
        <ele>2052.0</ele>
        <time>2016-06-11T12:39:41Z</time>
      </trkpt>
      <trkpt lat="40.445750" lon="-5.277467">
        <ele>2053.0</ele>
        <time>2016-06-11T12:39:42Z</time>
      </trkpt>
      <trkpt lat="40.445817" lon="-5.277383">
        <ele>2056.0</ele>
        <time>2016-06-11T12:39:43Z</time>
      </trkpt>
      <trkpt lat="40.445867" lon="-5.277300">
        <ele>2059.0</ele>
        <time>2016-06-11T12:39:44Z</time>
      </trkpt>
      <trkpt lat="40.445917" lon="-5.277233">
        <ele>2063.0</ele>
        <time>2016-06-11T12:39:45Z</time>
      </trkpt>
      <trkpt lat="40.445933" lon="-5.277183">
        <ele>2066.0</ele>
        <time>2016-06-11T12:39:46Z</time>
      </trkpt>
      <trkpt lat="40.445967" lon="-5.277117">
        <ele>2067.0</ele>
        <time>2016-06-11T12:39:47Z</time>
      </trkpt>
      <trkpt lat="40.446017" lon="-5.277067">
        <ele>2069.0</ele>
        <time>2016-06-11T12:39:48Z</time>
      </trkpt>
      <trkpt lat="40.446067" lon="-5.277017">
        <ele>2070.0</ele>
        <time>2016-06-11T12:39:49Z</time>
      </trkpt>
      <trkpt lat="40.446117" lon="-5.276983">
        <ele>2072.0</ele>
        <time>2016-06-11T12:39:50Z</time>
      </trkpt>
      <trkpt lat="40.446167" lon="-5.276967">
        <ele>2076.0</ele>
        <time>2016-06-11T12:39:51Z</time>
      </trkpt>
      <trkpt lat="40.446200" lon="-5.276933">
        <ele>2078.0</ele>
        <time>2016-06-11T12:39:52Z</time>
      </trkpt>
      <trkpt lat="40.446250" lon="-5.276883">
        <ele>2081.0</ele>
        <time>2016-06-11T12:39:53Z</time>
      </trkpt>
      <trkpt lat="40.446283" lon="-5.276850">
        <ele>2083.0</ele>
        <time>2016-06-11T12:39:54Z</time>
      </trkpt>
      <trkpt lat="40.446317" lon="-5.276833">
        <ele>2084.0</ele>
        <time>2016-06-11T12:39:55Z</time>
      </trkpt>
      <trkpt lat="40.446367" lon="-5.276833">
        <ele>2086.0</ele>
        <time>2016-06-11T12:39:56Z</time>
      </trkpt>
      <trkpt lat="40.446400" lon="-5.276850">
        <ele>2087.0</ele>
        <time>2016-06-11T12:39:57Z</time>
      </trkpt>
      <trkpt lat="40.446450" lon="-5.276867">
        <ele>2087.0</ele>
        <time>2016-06-11T12:39:58Z</time>
      </trkpt>
      <trkpt lat="40.446483" lon="-5.276883">
        <ele>2088.0</ele>
        <time>2016-06-11T12:39:59Z</time>
      </trkpt>
      <trkpt lat="40.446533" lon="-5.276900">
        <ele>2089.0</ele>
        <time>2016-06-11T12:40:00Z</time>
      </trkpt>
      <trkpt lat="40.446583" lon="-5.276900">
        <ele>2090.0</ele>
        <time>2016-06-11T12:40:01Z</time>
      </trkpt>
      <trkpt lat="40.446617" lon="-5.276933">
        <ele>2091.0</ele>
        <time>2016-06-11T12:40:02Z</time>
      </trkpt>
      <trkpt lat="40.446650" lon="-5.276983">
        <ele>2091.0</ele>
        <time>2016-06-11T12:40:03Z</time>
      </trkpt>
      <trkpt lat="40.446667" lon="-5.277033">
        <ele>2091.0</ele>
        <time>2016-06-11T12:40:04Z</time>
      </trkpt>
      <trkpt lat="40.446700" lon="-5.277100">
        <ele>2091.0</ele>
        <time>2016-06-11T12:40:05Z</time>
      </trkpt>
      <trkpt lat="40.446717" lon="-5.277150">
        <ele>2092.0</ele>
        <time>2016-06-11T12:40:06Z</time>
      </trkpt>
      <trkpt lat="40.446733" lon="-5.277200">
        <ele>2093.0</ele>
        <time>2016-06-11T12:40:07Z</time>
      </trkpt>
      <trkpt lat="40.446750" lon="-5.277283">
        <ele>2094.0</ele>
        <time>2016-06-11T12:40:08Z</time>
      </trkpt>
      <trkpt lat="40.446733" lon="-5.277350">
        <ele>2096.0</ele>
        <time>2016-06-11T12:40:09Z</time>
      </trkpt>
      <trkpt lat="40.446717" lon="-5.277433">
        <ele>2098.0</ele>
        <time>2016-06-11T12:40:10Z</time>
      </trkpt>
      <trkpt lat="40.446700" lon="-5.277500">
        <ele>2102.0</ele>
        <time>2016-06-11T12:40:11Z</time>
      </trkpt>
      <trkpt lat="40.446700" lon="-5.277550">
        <ele>2104.0</ele>
        <time>2016-06-11T12:40:12Z</time>
      </trkpt>
      <trkpt lat="40.446683" lon="-5.277600">
        <ele>2106.0</ele>
        <time>2016-06-11T12:40:13Z</time>
      </trkpt>
      <trkpt lat="40.446667" lon="-5.277683">
        <ele>2108.0</ele>
        <time>2016-06-11T12:40:14Z</time>
      </trkpt>
      <trkpt lat="40.446633" lon="-5.277750">
        <ele>2111.0</ele>
        <time>2016-06-11T12:40:15Z</time>
      </trkpt>
      <trkpt lat="40.446600" lon="-5.277817">
        <ele>2114.0</ele>
        <time>2016-06-11T12:40:16Z</time>
      </trkpt>
      <trkpt lat="40.446550" lon="-5.277867">
        <ele>2116.0</ele>
        <time>2016-06-11T12:40:17Z</time>
      </trkpt>
      <trkpt lat="40.446500" lon="-5.277933">
        <ele>2118.0</ele>
        <time>2016-06-11T12:40:18Z</time>
      </trkpt>
      <trkpt lat="40.446433" lon="-5.277967">
        <ele>2120.0</ele>
        <time>2016-06-11T12:40:19Z</time>
      </trkpt>
      <trkpt lat="40.446350" lon="-5.278000">
        <ele>2120.0</ele>
        <time>2016-06-11T12:40:20Z</time>
      </trkpt>
      <trkpt lat="40.446250" lon="-5.278017">
        <ele>2120.0</ele>
        <time>2016-06-11T12:40:21Z</time>
      </trkpt>
      <trkpt lat="40.446133" lon="-5.278000">
        <ele>2121.0</ele>
        <time>2016-06-11T12:40:22Z</time>
      </trkpt>
      <trkpt lat="40.446017" lon="-5.277967">
        <ele>2123.0</ele>
        <time>2016-06-11T12:40:23Z</time>
      </trkpt>
      <trkpt lat="40.445900" lon="-5.277917">
        <ele>2126.0</ele>
        <time>2016-06-11T12:40:24Z</time>
      </trkpt>
      <trkpt lat="40.445817" lon="-5.277850">
        <ele>2129.0</ele>
        <time>2016-06-11T12:40:25Z</time>
      </trkpt>
      <trkpt lat="40.445733" lon="-5.277767">
        <ele>2131.0</ele>
        <time>2016-06-11T12:40:26Z</time>
      </trkpt>
      <trkpt lat="40.445683" lon="-5.277650">
        <ele>2133.0</ele>
        <time>2016-06-11T12:40:27Z</time>
      </trkpt>
      <trkpt lat="40.445633" lon="-5.277533">
        <ele>2135.0</ele>
        <time>2016-06-11T12:40:28Z</time>
      </trkpt>
      <trkpt lat="40.445617" lon="-5.277417">
        <ele>2138.0</ele>
        <time>2016-06-11T12:40:29Z</time>
      </trkpt>
      <trkpt lat="40.445617" lon="-5.277317">
        <ele>2140.0</ele>
        <time>2016-06-11T12:40:30Z</time>
      </trkpt>
      <trkpt lat="40.445633" lon="-5.277200">
        <ele>2142.0</ele>
        <time>2016-06-11T12:40:31Z</time>
      </trkpt>
      <trkpt lat="40.445667" lon="-5.277117">
        <ele>2144.0</ele>
        <time>2016-06-11T12:40:32Z</time>
      </trkpt>
      <trkpt lat="40.445717" lon="-5.277033">
        <ele>2147.0</ele>
        <time>2016-06-11T12:40:33Z</time>
      </trkpt>
      <trkpt lat="40.445767" lon="-5.276983">
        <ele>2149.0</ele>
        <time>2016-06-11T12:40:34Z</time>
      </trkpt>
      <trkpt lat="40.445833" lon="-5.276917">
        <ele>2152.0</ele>
        <time>2016-06-11T12:40:35Z</time>
      </trkpt>
      <trkpt lat="40.445883" lon="-5.276883">
        <ele>2155.0</ele>
        <time>2016-06-11T12:40:36Z</time>
      </trkpt>
      <trkpt lat="40.445950" lon="-5.276850">
        <ele>2158.0</ele>
        <time>2016-06-11T12:40:37Z</time>
      </trkpt>
      <trkpt lat="40.446000" lon="-5.276833">
        <ele>2160.0</ele>
        <time>2016-06-11T12:40:38Z</time>
      </trkpt>
      <trkpt lat="40.446033" lon="-5.276850">
        <ele>2163.0</ele>
        <time>2016-06-11T12:40:39Z</time>
      </trkpt>
      <trkpt lat="40.446083" lon="-5.276867">
        <ele>2165.0</ele>
        <time>2016-06-11T12:40:40Z</time>
      </trkpt>
      <trkpt lat="40.446117" lon="-5.276900">
        <ele>2168.0</ele>
        <time>2016-06-11T12:40:41Z</time>
      </trkpt>
      <trkpt lat="40.446133" lon="-5.276967">
        <ele>2170.0</ele>
        <time>2016-06-11T12:40:42Z</time>
      </trkpt>
      <trkpt lat="40.446133" lon="-5.277033">
        <ele>2172.0</ele>
        <time>2016-06-11T12:40:43Z</time>
      </trkpt>
      <trkpt lat="40.446100" lon="-5.277117">
        <ele>2175.0</ele>
        <time>2016-06-11T12:40:44Z</time>
      </trkpt>
      <trkpt lat="40.446067" lon="-5.277183">
        <ele>2178.0</ele>
        <time>2016-06-11T12:40:45Z</time>
      </trkpt>
      <trkpt lat="40.446000" lon="-5.277250">
        <ele>2180.0</ele>
        <time>2016-06-11T12:40:46Z</time>
      </trkpt>
      <trkpt lat="40.445933" lon="-5.277283">
        <ele>2183.0</ele>
        <time>2016-06-11T12:40:47Z</time>
      </trkpt>
      <trkpt lat="40.445867" lon="-5.277333">
        <ele>2184.0</ele>
        <time>2016-06-11T12:40:48Z</time>
      </trkpt>
      <trkpt lat="40.445767" lon="-5.277367">
        <ele>2185.0</ele>
        <time>2016-06-11T12:40:49Z</time>
      </trkpt>
      <trkpt lat="40.445650" lon="-5.277383">
        <ele>2188.0</ele>
        <time>2016-06-11T12:40:50Z</time>
      </trkpt>
      <trkpt lat="40.445550" lon="-5.277350">
        <ele>2190.0</ele>
        <time>2016-06-11T12:40:51Z</time>
      </trkpt>
      <trkpt lat="40.445467" lon="-5.277300">
        <ele>2193.0</ele>
        <time>2016-06-11T12:40:52Z</time>
      </trkpt>
      <trkpt lat="40.445367" lon="-5.277217">
        <ele>2195.0</ele>
        <time>2016-06-11T12:40:53Z</time>
      </trkpt>
      <trkpt lat="40.445283" lon="-5.277133">
        <ele>2197.0</ele>
        <time>2016-06-11T12:40:54Z</time>
      </trkpt>
      <trkpt lat="40.445217" lon="-5.277017">
        <ele>2198.0</ele>
        <time>2016-06-11T12:40:55Z</time>
      </trkpt>
      <trkpt lat="40.445167" lon="-5.276883">
        <ele>2200.0</ele>
        <time>2016-06-11T12:40:56Z</time>
      </trkpt>
      <trkpt lat="40.445150" lon="-5.276750">
        <ele>2203.0</ele>
        <time>2016-06-11T12:40:57Z</time>
      </trkpt>
      <trkpt lat="40.445150" lon="-5.276617">
        <ele>2207.0</ele>
        <time>2016-06-11T12:40:58Z</time>
      </trkpt>
      <trkpt lat="40.445150" lon="-5.276500">
        <ele>2211.0</ele>
        <time>2016-06-11T12:40:59Z</time>
      </trkpt>
      <trkpt lat="40.445150" lon="-5.276400">
        <ele>2214.0</ele>
        <time>2016-06-11T12:41:00Z</time>
      </trkpt>
      <trkpt lat="40.445167" lon="-5.276283">
        <ele>2216.0</ele>
        <time>2016-06-11T12:41:01Z</time>
      </trkpt>
      <trkpt lat="40.445200" lon="-5.276183">
        <ele>2218.0</ele>
        <time>2016-06-11T12:41:02Z</time>
      </trkpt>
      <trkpt lat="40.445250" lon="-5.276100">
        <ele>2220.0</ele>
        <time>2016-06-11T12:41:03Z</time>
      </trkpt>
      <trkpt lat="40.445283" lon="-5.276000">
        <ele>2223.0</ele>
        <time>2016-06-11T12:41:04Z</time>
      </trkpt>
      <trkpt lat="40.445333" lon="-5.275933">
        <ele>2225.0</ele>
        <time>2016-06-11T12:41:05Z</time>
      </trkpt>
      <trkpt lat="40.445383" lon="-5.275867">
        <ele>2227.0</ele>
        <time>2016-06-11T12:41:06Z</time>
      </trkpt>
      <trkpt lat="40.445433" lon="-5.275800">
        <ele>2229.0</ele>
        <time>2016-06-11T12:41:07Z</time>
      </trkpt>
      <trkpt lat="40.445500" lon="-5.275750">
        <ele>2230.0</ele>
        <time>2016-06-11T12:41:08Z</time>
      </trkpt>
      <trkpt lat="40.445550" lon="-5.275717">
        <ele>2233.0</ele>
        <time>2016-06-11T12:41:09Z</time>
      </trkpt>
      <trkpt lat="40.445600" lon="-5.275717">
        <ele>2234.0</ele>
        <time>2016-06-11T12:41:10Z</time>
      </trkpt>
      <trkpt lat="40.445650" lon="-5.275750">
        <ele>2235.0</ele>
        <time>2016-06-11T12:41:11Z</time>
      </trkpt>
      <trkpt lat="40.445683" lon="-5.275800">
        <ele>2234.0</ele>
        <time>2016-06-11T12:41:12Z</time>
      </trkpt>
      <trkpt lat="40.445700" lon="-5.275850">
        <ele>2234.0</ele>
        <time>2016-06-11T12:41:13Z</time>
      </trkpt>
      <trkpt lat="40.445733" lon="-5.275900">
        <ele>2234.0</ele>
        <time>2016-06-11T12:41:14Z</time>
      </trkpt>
      <trkpt lat="40.445750" lon="-5.275967">
        <ele>2234.0</ele>
        <time>2016-06-11T12:41:15Z</time>
      </trkpt>
      <trkpt lat="40.445733" lon="-5.276050">
        <ele>2236.0</ele>
        <time>2016-06-11T12:41:16Z</time>
      </trkpt>
      <trkpt lat="40.445717" lon="-5.276117">
        <ele>2238.0</ele>
        <time>2016-06-11T12:41:17Z</time>
      </trkpt>
      <trkpt lat="40.445683" lon="-5.276167">
        <ele>2240.0</ele>
        <time>2016-06-11T12:41:18Z</time>
      </trkpt>
      <trkpt lat="40.445650" lon="-5.276217">
        <ele>2241.0</ele>
        <time>2016-06-11T12:41:19Z</time>
      </trkpt>
      <trkpt lat="40.445617" lon="-5.276283">
        <ele>2242.0</ele>
        <time>2016-06-11T12:41:20Z</time>
      </trkpt>
      <trkpt lat="40.445567" lon="-5.276350">
        <ele>2243.0</ele>
        <time>2016-06-11T12:41:21Z</time>
      </trkpt>
      <trkpt lat="40.445517" lon="-5.276417">
        <ele>2245.0</ele>
        <time>2016-06-11T12:41:22Z</time>
      </trkpt>
      <trkpt lat="40.445467" lon="-5.276483">
        <ele>2247.0</ele>
        <time>2016-06-11T12:41:23Z</time>
      </trkpt>
      <trkpt lat="40.445400" lon="-5.276517">
        <ele>2250.0</ele>
        <time>2016-06-11T12:41:24Z</time>
      </trkpt>
      <trkpt lat="40.445333" lon="-5.276550">
        <ele>2252.0</ele>
        <time>2016-06-11T12:41:25Z</time>
      </trkpt>
      <trkpt lat="40.445267" lon="-5.276567">
        <ele>2254.0</ele>
        <time>2016-06-11T12:41:26Z</time>
      </trkpt>
      <trkpt lat="40.445200" lon="-5.276600">
        <ele>2256.0</ele>
        <time>2016-06-11T12:41:27Z</time>
      </trkpt>
      <trkpt lat="40.445117" lon="-5.276617">
        <ele>2258.0</ele>
        <time>2016-06-11T12:41:28Z</time>
      </trkpt>
      <trkpt lat="40.445033" lon="-5.276617">
        <ele>2260.0</ele>
        <time>2016-06-11T12:41:29Z</time>
      </trkpt>
      <trkpt lat="40.444950" lon="-5.276600">
        <ele>2262.0</ele>
        <time>2016-06-11T12:41:30Z</time>
      </trkpt>
      <trkpt lat="40.444883" lon="-5.276567">
        <ele>2264.0</ele>
        <time>2016-06-11T12:41:31Z</time>
      </trkpt>
      <trkpt lat="40.444800" lon="-5.276550">
        <ele>2265.0</ele>
        <time>2016-06-11T12:41:32Z</time>
      </trkpt>
      <trkpt lat="40.444717" lon="-5.276533">
        <ele>2266.0</ele>
        <time>2016-06-11T12:41:33Z</time>
      </trkpt>
      <trkpt lat="40.444617" lon="-5.276517">
        <ele>2268.0</ele>
        <time>2016-06-11T12:41:34Z</time>
      </trkpt>
      <trkpt lat="40.444533" lon="-5.276500">
        <ele>2271.0</ele>
        <time>2016-06-11T12:41:35Z</time>
      </trkpt>
      <trkpt lat="40.444433" lon="-5.276483">
        <ele>2274.0</ele>
        <time>2016-06-11T12:41:36Z</time>
      </trkpt>
      <trkpt lat="40.444350" lon="-5.276467">
        <ele>2277.0</ele>
        <time>2016-06-11T12:41:37Z</time>
      </trkpt>
      <trkpt lat="40.444267" lon="-5.276417">
        <ele>2280.0</ele>
        <time>2016-06-11T12:41:38Z</time>
      </trkpt>
      <trkpt lat="40.444183" lon="-5.276367">
        <ele>2283.0</ele>
        <time>2016-06-11T12:41:39Z</time>
      </trkpt>
      <trkpt lat="40.444117" lon="-5.276283">
        <ele>2286.0</ele>
        <time>2016-06-11T12:41:40Z</time>
      </trkpt>
      <trkpt lat="40.444067" lon="-5.276183">
        <ele>2288.0</ele>
        <time>2016-06-11T12:41:41Z</time>
      </trkpt>
      <trkpt lat="40.444033" lon="-5.276083">
        <ele>2290.0</ele>
        <time>2016-06-11T12:41:42Z</time>
      </trkpt>
      <trkpt lat="40.444000" lon="-5.275967">
        <ele>2292.0</ele>
        <time>2016-06-11T12:41:43Z</time>
      </trkpt>
      <trkpt lat="40.443967" lon="-5.275833">
        <ele>2293.0</ele>
        <time>2016-06-11T12:41:44Z</time>
      </trkpt>
      <trkpt lat="40.443950" lon="-5.275700">
        <ele>2293.0</ele>
        <time>2016-06-11T12:41:45Z</time>
      </trkpt>
      <trkpt lat="40.443950" lon="-5.275550">
        <ele>2295.0</ele>
        <time>2016-06-11T12:41:46Z</time>
      </trkpt>
      <trkpt lat="40.443950" lon="-5.275417">
        <ele>2298.0</ele>
        <time>2016-06-11T12:41:47Z</time>
      </trkpt>
      <trkpt lat="40.443967" lon="-5.275300">
        <ele>2300.0</ele>
        <time>2016-06-11T12:41:48Z</time>
      </trkpt>
      <trkpt lat="40.443983" lon="-5.275167">
        <ele>2302.0</ele>
        <time>2016-06-11T12:41:49Z</time>
      </trkpt>
      <trkpt lat="40.444017" lon="-5.275067">
        <ele>2304.0</ele>
        <time>2016-06-11T12:41:50Z</time>
      </trkpt>
      <trkpt lat="40.444050" lon="-5.274967">
        <ele>2305.0</ele>
        <time>2016-06-11T12:41:51Z</time>
      </trkpt>
      <trkpt lat="40.444100" lon="-5.274850">
        <ele>2307.0</ele>
        <time>2016-06-11T12:41:52Z</time>
      </trkpt>
      <trkpt lat="40.444133" lon="-5.274767">
        <ele>2308.0</ele>
        <time>2016-06-11T12:41:53Z</time>
      </trkpt>
      <trkpt lat="40.444200" lon="-5.274700">
        <ele>2310.0</ele>
        <time>2016-06-11T12:41:54Z</time>
      </trkpt>
      <trkpt lat="40.444267" lon="-5.274667">
        <ele>2310.0</ele>
        <time>2016-06-11T12:41:55Z</time>
      </trkpt>
      <trkpt lat="40.444317" lon="-5.274650">
        <ele>2311.0</ele>
        <time>2016-06-11T12:41:56Z</time>
      </trkpt>
      <trkpt lat="40.444367" lon="-5.274633">
        <ele>2312.0</ele>
        <time>2016-06-11T12:41:57Z</time>
      </trkpt>
      <trkpt lat="40.444417" lon="-5.274600">
        <ele>2312.0</ele>
        <time>2016-06-11T12:41:58Z</time>
      </trkpt>
      <trkpt lat="40.444450" lon="-5.274583">
        <ele>2312.0</ele>
        <time>2016-06-11T12:41:59Z</time>
      </trkpt>
      <trkpt lat="40.444500" lon="-5.274550">
        <ele>2310.0</ele>
        <time>2016-06-11T12:42:00Z</time>
      </trkpt>
      <trkpt lat="40.444550" lon="-5.274533">
        <ele>2309.0</ele>
        <time>2016-06-11T12:42:01Z</time>
      </trkpt>
      <trkpt lat="40.444617" lon="-5.274533">
        <ele>2308.0</ele>
        <time>2016-06-11T12:42:02Z</time>
      </trkpt>
      <trkpt lat="40.444667" lon="-5.274567">
        <ele>2308.0</ele>
        <time>2016-06-11T12:42:03Z</time>
      </trkpt>
      <trkpt lat="40.444700" lon="-5.274600">
        <ele>2308.0</ele>
        <time>2016-06-11T12:42:04Z</time>
      </trkpt>
      <trkpt lat="40.444733" lon="-5.274633">
        <ele>2310.0</ele>
        <time>2016-06-11T12:42:05Z</time>
      </trkpt>
      <trkpt lat="40.444767" lon="-5.274650">
        <ele>2311.0</ele>
        <time>2016-06-11T12:42:06Z</time>
      </trkpt>
      <trkpt lat="40.444800" lon="-5.274650">
        <ele>2312.0</ele>
        <time>2016-06-11T12:42:07Z</time>
      </trkpt>
      <trkpt lat="40.444833" lon="-5.274650">
        <ele>2311.0</ele>
        <time>2016-06-11T12:42:08Z</time>
      </trkpt>
      <trkpt lat="40.444867" lon="-5.274683">
        <ele>2310.0</ele>
        <time>2016-06-11T12:42:09Z</time>
      </trkpt>
      <trkpt lat="40.444900" lon="-5.274733">
        <ele>2309.0</ele>
        <time>2016-06-11T12:42:10Z</time>
      </trkpt>
      <trkpt lat="40.444933" lon="-5.274800">
        <ele>2309.0</ele>
        <time>2016-06-11T12:42:11Z</time>
      </trkpt>
      <trkpt lat="40.444950" lon="-5.274867">
        <ele>2310.0</ele>
        <time>2016-06-11T12:42:12Z</time>
      </trkpt>
      <trkpt lat="40.444967" lon="-5.274933">
        <ele>2311.0</ele>
        <time>2016-06-11T12:42:13Z</time>
      </trkpt>
      <trkpt lat="40.444983" lon="-5.274983">
        <ele>2311.0</ele>
        <time>2016-06-11T12:42:14Z</time>
      </trkpt>
      <trkpt lat="40.445000" lon="-5.275033">
        <ele>2310.0</ele>
        <time>2016-06-11T12:42:15Z</time>
      </trkpt>
      <trkpt lat="40.445017" lon="-5.275083">
        <ele>2310.0</ele>
        <time>2016-06-11T12:42:16Z</time>
      </trkpt>
      <trkpt lat="40.445033" lon="-5.275150">
        <ele>2309.0</ele>
        <time>2016-06-11T12:42:17Z</time>
      </trkpt>
      <trkpt lat="40.445033" lon="-5.275217">
        <ele>2309.0</ele>
        <time>2016-06-11T12:42:18Z</time>
      </trkpt>
      <trkpt lat="40.445017" lon="-5.275283">
        <ele>2308.0</ele>
        <time>2016-06-11T12:42:19Z</time>
      </trkpt>
      <trkpt lat="40.445017" lon="-5.275350">
        <ele>2307.0</ele>
        <time>2016-06-11T12:42:20Z</time>
      </trkpt>
      <trkpt lat="40.445000" lon="-5.275417">
        <ele>2306.0</ele>
        <time>2016-06-11T12:42:21Z</time>
      </trkpt>
      <trkpt lat="40.444983" lon="-5.275500">
        <ele>2305.0</ele>
        <time>2016-06-11T12:42:22Z</time>
      </trkpt>
      <trkpt lat="40.444967" lon="-5.275567">
        <ele>2304.0</ele>
        <time>2016-06-11T12:42:23Z</time>
      </trkpt>
      <trkpt lat="40.444933" lon="-5.275633">
        <ele>2304.0</ele>
        <time>2016-06-11T12:42:24Z</time>
      </trkpt>
      <trkpt lat="40.444900" lon="-5.275700">
        <ele>2303.0</ele>
        <time>2016-06-11T12:42:25Z</time>
      </trkpt>
      <trkpt lat="40.444850" lon="-5.275767">
        <ele>2303.0</ele>
        <time>2016-06-11T12:42:26Z</time>
      </trkpt>
      <trkpt lat="40.444800" lon="-5.275833">
        <ele>2302.0</ele>
        <time>2016-06-11T12:42:27Z</time>
      </trkpt>
      <trkpt lat="40.444750" lon="-5.275900">
        <ele>2302.0</ele>
        <time>2016-06-11T12:42:28Z</time>
      </trkpt>
      <trkpt lat="40.444667" lon="-5.275950">
        <ele>2301.0</ele>
        <time>2016-06-11T12:42:29Z</time>
      </trkpt>
      <trkpt lat="40.444583" lon="-5.275967">
        <ele>2301.0</ele>
        <time>2016-06-11T12:42:30Z</time>
      </trkpt>
      <trkpt lat="40.444467" lon="-5.275967">
        <ele>2300.0</ele>
        <time>2016-06-11T12:42:31Z</time>
      </trkpt>
      <trkpt lat="40.444367" lon="-5.275967">
        <ele>2300.0</ele>
        <time>2016-06-11T12:42:32Z</time>
      </trkpt>
      <trkpt lat="40.444267" lon="-5.275933">
        <ele>2301.0</ele>
        <time>2016-06-11T12:42:33Z</time>
      </trkpt>
      <trkpt lat="40.444167" lon="-5.275933">
        <ele>2303.0</ele>
        <time>2016-06-11T12:42:34Z</time>
      </trkpt>
      <trkpt lat="40.444067" lon="-5.275933">
        <ele>2303.0</ele>
        <time>2016-06-11T12:42:35Z</time>
      </trkpt>
      <trkpt lat="40.443983" lon="-5.275917">
        <ele>2303.0</ele>
        <time>2016-06-11T12:42:36Z</time>
      </trkpt>
      <trkpt lat="40.443900" lon="-5.275883">
        <ele>2302.0</ele>
        <time>2016-06-11T12:42:37Z</time>
      </trkpt>
      <trkpt lat="40.443800" lon="-5.275817">
        <ele>2298.0</ele>
        <time>2016-06-11T12:42:38Z</time>
      </trkpt>
      <trkpt lat="40.443700" lon="-5.275733">
        <ele>2295.0</ele>
        <time>2016-06-11T12:42:39Z</time>
      </trkpt>
      <trkpt lat="40.443600" lon="-5.275600">
        <ele>2293.0</ele>
        <time>2016-06-11T12:42:40Z</time>
      </trkpt>
      <trkpt lat="40.443533" lon="-5.275467">
        <ele>2293.0</ele>
        <time>2016-06-11T12:42:41Z</time>
      </trkpt>
      <trkpt lat="40.443483" lon="-5.275317">
        <ele>2292.0</ele>
        <time>2016-06-11T12:42:42Z</time>
      </trkpt>
      <trkpt lat="40.443450" lon="-5.275150">
        <ele>2292.0</ele>
        <time>2016-06-11T12:42:43Z</time>
      </trkpt>
      <trkpt lat="40.443433" lon="-5.275000">
        <ele>2291.0</ele>
        <time>2016-06-11T12:42:44Z</time>
      </trkpt>
      <trkpt lat="40.443417" lon="-5.274850">
        <ele>2289.0</ele>
        <time>2016-06-11T12:42:45Z</time>
      </trkpt>
      <trkpt lat="40.443417" lon="-5.274700">
        <ele>2288.0</ele>
        <time>2016-06-11T12:42:46Z</time>
      </trkpt>
      <trkpt lat="40.443450" lon="-5.274533">
        <ele>2287.0</ele>
        <time>2016-06-11T12:42:47Z</time>
      </trkpt>
      <trkpt lat="40.443483" lon="-5.274400">
        <ele>2286.0</ele>
        <time>2016-06-11T12:42:48Z</time>
      </trkpt>
      <trkpt lat="40.443550" lon="-5.274267">
        <ele>2286.0</ele>
        <time>2016-06-11T12:42:49Z</time>
      </trkpt>
      <trkpt lat="40.443600" lon="-5.274167">
        <ele>2287.0</ele>
        <time>2016-06-11T12:42:50Z</time>
      </trkpt>
      <trkpt lat="40.443650" lon="-5.274083">
        <ele>2288.0</ele>
        <time>2016-06-11T12:42:51Z</time>
      </trkpt>
      <trkpt lat="40.443683" lon="-5.274000">
        <ele>2288.0</ele>
        <time>2016-06-11T12:42:52Z</time>
      </trkpt>
      <trkpt lat="40.443750" lon="-5.273917">
        <ele>2287.0</ele>
        <time>2016-06-11T12:42:53Z</time>
      </trkpt>
      <trkpt lat="40.443817" lon="-5.273850">
        <ele>2285.0</ele>
        <time>2016-06-11T12:42:54Z</time>
      </trkpt>
      <trkpt lat="40.443900" lon="-5.273783">
        <ele>2284.0</ele>
        <time>2016-06-11T12:42:55Z</time>
      </trkpt>
      <trkpt lat="40.443983" lon="-5.273717">
        <ele>2285.0</ele>
        <time>2016-06-11T12:42:56Z</time>
      </trkpt>
      <trkpt lat="40.444033" lon="-5.273667">
        <ele>2286.0</ele>
        <time>2016-06-11T12:42:57Z</time>
      </trkpt>
      <trkpt lat="40.444083" lon="-5.273617">
        <ele>2287.0</ele>
        <time>2016-06-11T12:42:58Z</time>
      </trkpt>
      <trkpt lat="40.444133" lon="-5.273550">
        <ele>2285.0</ele>
        <time>2016-06-11T12:42:59Z</time>
      </trkpt>
      <trkpt lat="40.444183" lon="-5.273483">
        <ele>2282.0</ele>
        <time>2016-06-11T12:43:00Z</time>
      </trkpt>
      <trkpt lat="40.444250" lon="-5.273400">
        <ele>2279.0</ele>
        <time>2016-06-11T12:43:01Z</time>
      </trkpt>
      <trkpt lat="40.444317" lon="-5.273300">
        <ele>2278.0</ele>
        <time>2016-06-11T12:43:02Z</time>
      </trkpt>
      <trkpt lat="40.444367" lon="-5.273217">
        <ele>2278.0</ele>
        <time>2016-06-11T12:43:03Z</time>
      </trkpt>
      <trkpt lat="40.444417" lon="-5.273133">
        <ele>2277.0</ele>
        <time>2016-06-11T12:43:04Z</time>
      </trkpt>
      <trkpt lat="40.444450" lon="-5.273033">
        <ele>2275.0</ele>
        <time>2016-06-11T12:43:05Z</time>
      </trkpt>
      <trkpt lat="40.444500" lon="-5.272950">
        <ele>2272.0</ele>
        <time>2016-06-11T12:43:06Z</time>
      </trkpt>
      <trkpt lat="40.444567" lon="-5.272850">
        <ele>2270.0</ele>
        <time>2016-06-11T12:43:07Z</time>
      </trkpt>
      <trkpt lat="40.444633" lon="-5.272767">
        <ele>2270.0</ele>
        <time>2016-06-11T12:43:08Z</time>
      </trkpt>
      <trkpt lat="40.444700" lon="-5.272700">
        <ele>2270.0</ele>
        <time>2016-06-11T12:43:09Z</time>
      </trkpt>
      <trkpt lat="40.444750" lon="-5.272633">
        <ele>2270.0</ele>
        <time>2016-06-11T12:43:10Z</time>
      </trkpt>
      <trkpt lat="40.444800" lon="-5.272533">
        <ele>2269.0</ele>
        <time>2016-06-11T12:43:11Z</time>
      </trkpt>
      <trkpt lat="40.444850" lon="-5.272433">
        <ele>2268.0</ele>
        <time>2016-06-11T12:43:12Z</time>
      </trkpt>
      <trkpt lat="40.444933" lon="-5.272333">
        <ele>2266.0</ele>
        <time>2016-06-11T12:43:13Z</time>
      </trkpt>
      <trkpt lat="40.445017" lon="-5.272250">
        <ele>2264.0</ele>
        <time>2016-06-11T12:43:14Z</time>
      </trkpt>
      <trkpt lat="40.445100" lon="-5.272200">
        <ele>2264.0</ele>
        <time>2016-06-11T12:43:15Z</time>
      </trkpt>
      <trkpt lat="40.445183" lon="-5.272150">
        <ele>2264.0</ele>
        <time>2016-06-11T12:43:16Z</time>
      </trkpt>
      <trkpt lat="40.445250" lon="-5.272100">
        <ele>2264.0</ele>
        <time>2016-06-11T12:43:17Z</time>
      </trkpt>
      <trkpt lat="40.445300" lon="-5.272033">
        <ele>2263.0</ele>
        <time>2016-06-11T12:43:18Z</time>
      </trkpt>
      <trkpt lat="40.445350" lon="-5.271967">
        <ele>2261.0</ele>
        <time>2016-06-11T12:43:19Z</time>
      </trkpt>
      <trkpt lat="40.445417" lon="-5.271883">
        <ele>2259.0</ele>
        <time>2016-06-11T12:43:20Z</time>
      </trkpt>
      <trkpt lat="40.445500" lon="-5.271817">
        <ele>2257.0</ele>
        <time>2016-06-11T12:43:21Z</time>
      </trkpt>
      <trkpt lat="40.445583" lon="-5.271750">
        <ele>2256.0</ele>
        <time>2016-06-11T12:43:22Z</time>
      </trkpt>
      <trkpt lat="40.445650" lon="-5.271683">
        <ele>2257.0</ele>
        <time>2016-06-11T12:43:23Z</time>
      </trkpt>
      <trkpt lat="40.445717" lon="-5.271600">
        <ele>2258.0</ele>
        <time>2016-06-11T12:43:24Z</time>
      </trkpt>
      <trkpt lat="40.445767" lon="-5.271533">
        <ele>2258.0</ele>
        <time>2016-06-11T12:43:25Z</time>
      </trkpt>
      <trkpt lat="40.445817" lon="-5.271467">
        <ele>2257.0</ele>
        <time>2016-06-11T12:43:26Z</time>
      </trkpt>
      <trkpt lat="40.445883" lon="-5.271400">
        <ele>2255.0</ele>
        <time>2016-06-11T12:43:27Z</time>
      </trkpt>
      <trkpt lat="40.445950" lon="-5.271300">
        <ele>2252.0</ele>
        <time>2016-06-11T12:43:28Z</time>
      </trkpt>
      <trkpt lat="40.446033" lon="-5.271217">
        <ele>2248.0</ele>
        <time>2016-06-11T12:43:29Z</time>
      </trkpt>
      <trkpt lat="40.446117" lon="-5.271150">
        <ele>2246.0</ele>
        <time>2016-06-11T12:43:30Z</time>
      </trkpt>
      <trkpt lat="40.446200" lon="-5.271067">
        <ele>2246.0</ele>
        <time>2016-06-11T12:43:31Z</time>
      </trkpt>
      <trkpt lat="40.446250" lon="-5.271000">
        <ele>2245.0</ele>
        <time>2016-06-11T12:43:32Z</time>
      </trkpt>
      <trkpt lat="40.446283" lon="-5.270917">
        <ele>2243.0</ele>
        <time>2016-06-11T12:43:33Z</time>
      </trkpt>
      <trkpt lat="40.446317" lon="-5.270817">
        <ele>2241.0</ele>
        <time>2016-06-11T12:43:34Z</time>
      </trkpt>
      <trkpt lat="40.446367" lon="-5.270717">
        <ele>2237.0</ele>
        <time>2016-06-11T12:43:35Z</time>
      </trkpt>
      <trkpt lat="40.446417" lon="-5.270600">
        <ele>2235.0</ele>
        <time>2016-06-11T12:43:36Z</time>
      </trkpt>
      <trkpt lat="40.446467" lon="-5.270517">
        <ele>2233.0</ele>
        <time>2016-06-11T12:43:37Z</time>
      </trkpt>
      <trkpt lat="40.446500" lon="-5.270433">
        <ele>2231.0</ele>
        <time>2016-06-11T12:43:38Z</time>
      </trkpt>
      <trkpt lat="40.446533" lon="-5.270350">
        <ele>2228.0</ele>
        <time>2016-06-11T12:43:39Z</time>
      </trkpt>
      <trkpt lat="40.446583" lon="-5.270250">
        <ele>2223.0</ele>
        <time>2016-06-11T12:43:40Z</time>
      </trkpt>
      <trkpt lat="40.446650" lon="-5.270150">
        <ele>2218.0</ele>
        <time>2016-06-11T12:43:41Z</time>
      </trkpt>
      <trkpt lat="40.446700" lon="-5.270033">
        <ele>2214.0</ele>
        <time>2016-06-11T12:43:42Z</time>
      </trkpt>
      <trkpt lat="40.446767" lon="-5.269933">
        <ele>2212.0</ele>
        <time>2016-06-11T12:43:43Z</time>
      </trkpt>
      <trkpt lat="40.446833" lon="-5.269833">
        <ele>2209.0</ele>
        <time>2016-06-11T12:43:44Z</time>
      </trkpt>
      <trkpt lat="40.446883" lon="-5.269733">
        <ele>2206.0</ele>
        <time>2016-06-11T12:43:45Z</time>
      </trkpt>
      <trkpt lat="40.446933" lon="-5.269633">
        <ele>2204.0</ele>
        <time>2016-06-11T12:43:46Z</time>
      </trkpt>
      <trkpt lat="40.446983" lon="-5.269533">
        <ele>2201.0</ele>
        <time>2016-06-11T12:43:47Z</time>
      </trkpt>
      <trkpt lat="40.447050" lon="-5.269450">
        <ele>2197.0</ele>
        <time>2016-06-11T12:43:48Z</time>
      </trkpt>
      <trkpt lat="40.447117" lon="-5.269350">
        <ele>2194.0</ele>
        <time>2016-06-11T12:43:49Z</time>
      </trkpt>
      <trkpt lat="40.447200" lon="-5.269267">
        <ele>2192.0</ele>
        <time>2016-06-11T12:43:50Z</time>
      </trkpt>
      <trkpt lat="40.447267" lon="-5.269183">
        <ele>2190.0</ele>
        <time>2016-06-11T12:43:51Z</time>
      </trkpt>
      <trkpt lat="40.447333" lon="-5.269100">
        <ele>2188.0</ele>
        <time>2016-06-11T12:43:52Z</time>
      </trkpt>
      <trkpt lat="40.447400" lon="-5.269017">
        <ele>2186.0</ele>
        <time>2016-06-11T12:43:53Z</time>
      </trkpt>
      <trkpt lat="40.447467" lon="-5.268917">
        <ele>2184.0</ele>
        <time>2016-06-11T12:43:54Z</time>
      </trkpt>
      <trkpt lat="40.447533" lon="-5.268833">
        <ele>2182.0</ele>
        <time>2016-06-11T12:43:55Z</time>
      </trkpt>
      <trkpt lat="40.447617" lon="-5.268750">
        <ele>2179.0</ele>
        <time>2016-06-11T12:43:56Z</time>
      </trkpt>
      <trkpt lat="40.447700" lon="-5.268667">
        <ele>2177.0</ele>
        <time>2016-06-11T12:43:57Z</time>
      </trkpt>
      <trkpt lat="40.447783" lon="-5.268600">
        <ele>2176.0</ele>
        <time>2016-06-11T12:43:58Z</time>
      </trkpt>
      <trkpt lat="40.447867" lon="-5.268517">
        <ele>2175.0</ele>
        <time>2016-06-11T12:43:59Z</time>
      </trkpt>
      <trkpt lat="40.447933" lon="-5.268433">
        <ele>2173.0</ele>
        <time>2016-06-11T12:44:00Z</time>
      </trkpt>
      <trkpt lat="40.448017" lon="-5.268350">
        <ele>2171.0</ele>
        <time>2016-06-11T12:44:01Z</time>
      </trkpt>
      <trkpt lat="40.448083" lon="-5.268250">
        <ele>2168.0</ele>
        <time>2016-06-11T12:44:02Z</time>
      </trkpt>
      <trkpt lat="40.448150" lon="-5.268133">
        <ele>2166.0</ele>
        <time>2016-06-11T12:44:03Z</time>
      </trkpt>
      <trkpt lat="40.448217" lon="-5.268017">
        <ele>2163.0</ele>
        <time>2016-06-11T12:44:04Z</time>
      </trkpt>
      <trkpt lat="40.448267" lon="-5.267900">
        <ele>2161.0</ele>
        <time>2016-06-11T12:44:05Z</time>
      </trkpt>
      <trkpt lat="40.448317" lon="-5.267783">
        <ele>2158.0</ele>
        <time>2016-06-11T12:44:06Z</time>
      </trkpt>
      <trkpt lat="40.448383" lon="-5.267650">
        <ele>2155.0</ele>
        <time>2016-06-11T12:44:07Z</time>
      </trkpt>
      <trkpt lat="40.448433" lon="-5.267517">
        <ele>2152.0</ele>
        <time>2016-06-11T12:44:08Z</time>
      </trkpt>
      <trkpt lat="40.448483" lon="-5.267383">
        <ele>2149.0</ele>
        <time>2016-06-11T12:44:09Z</time>
      </trkpt>
      <trkpt lat="40.448550" lon="-5.267250">
        <ele>2147.0</ele>
        <time>2016-06-11T12:44:10Z</time>
      </trkpt>
      <trkpt lat="40.448617" lon="-5.267117">
        <ele>2146.0</ele>
        <time>2016-06-11T12:44:11Z</time>
      </trkpt>
      <trkpt lat="40.448667" lon="-5.266983">
        <ele>2147.0</ele>
        <time>2016-06-11T12:44:12Z</time>
      </trkpt>
      <trkpt lat="40.448700" lon="-5.266867">
        <ele>2147.0</ele>
        <time>2016-06-11T12:44:13Z</time>
      </trkpt>
      <trkpt lat="40.448733" lon="-5.266733">
        <ele>2148.0</ele>
        <time>2016-06-11T12:44:14Z</time>
      </trkpt>
      <trkpt lat="40.448767" lon="-5.266617">
        <ele>2147.0</ele>
        <time>2016-06-11T12:44:15Z</time>
      </trkpt>
      <trkpt lat="40.448817" lon="-5.266500">
        <ele>2146.0</ele>
        <time>2016-06-11T12:44:16Z</time>
      </trkpt>
      <trkpt lat="40.448883" lon="-5.266367">
        <ele>2146.0</ele>
        <time>2016-06-11T12:44:17Z</time>
      </trkpt>
      <trkpt lat="40.448933" lon="-5.266250">
        <ele>2147.0</ele>
        <time>2016-06-11T12:44:18Z</time>
      </trkpt>
      <trkpt lat="40.448967" lon="-5.266117">
        <ele>2149.0</ele>
        <time>2016-06-11T12:44:19Z</time>
      </trkpt>
      <trkpt lat="40.449000" lon="-5.265983">
        <ele>2150.0</ele>
        <time>2016-06-11T12:44:20Z</time>
      </trkpt>
      <trkpt lat="40.449033" lon="-5.265867">
        <ele>2151.0</ele>
        <time>2016-06-11T12:44:21Z</time>
      </trkpt>
      <trkpt lat="40.449083" lon="-5.265750">
        <ele>2152.0</ele>
        <time>2016-06-11T12:44:22Z</time>
      </trkpt>
      <trkpt lat="40.449150" lon="-5.265633">
        <ele>2152.0</ele>
        <time>2016-06-11T12:44:23Z</time>
      </trkpt>
      <trkpt lat="40.449200" lon="-5.265517">
        <ele>2153.0</ele>
        <time>2016-06-11T12:44:24Z</time>
      </trkpt>
      <trkpt lat="40.449250" lon="-5.265417">
        <ele>2154.0</ele>
        <time>2016-06-11T12:44:25Z</time>
      </trkpt>
      <trkpt lat="40.449300" lon="-5.265300">
        <ele>2154.0</ele>
        <time>2016-06-11T12:44:26Z</time>
      </trkpt>
      <trkpt lat="40.449350" lon="-5.265183">
        <ele>2154.0</ele>
        <time>2016-06-11T12:44:27Z</time>
      </trkpt>
      <trkpt lat="40.449400" lon="-5.265067">
        <ele>2153.0</ele>
        <time>2016-06-11T12:44:28Z</time>
      </trkpt>
      <trkpt lat="40.449467" lon="-5.264950">
        <ele>2152.0</ele>
        <time>2016-06-11T12:44:29Z</time>
      </trkpt>
      <trkpt lat="40.449517" lon="-5.264833">
        <ele>2150.0</ele>
        <time>2016-06-11T12:44:30Z</time>
      </trkpt>
      <trkpt lat="40.449550" lon="-5.264700">
        <ele>2149.0</ele>
        <time>2016-06-11T12:44:31Z</time>
      </trkpt>
      <trkpt lat="40.449583" lon="-5.264567">
        <ele>2148.0</ele>
        <time>2016-06-11T12:44:32Z</time>
      </trkpt>
      <trkpt lat="40.449617" lon="-5.264433">
        <ele>2147.0</ele>
        <time>2016-06-11T12:44:33Z</time>
      </trkpt>
      <trkpt lat="40.449667" lon="-5.264300">
        <ele>2145.0</ele>
        <time>2016-06-11T12:44:34Z</time>
      </trkpt>
      <trkpt lat="40.449700" lon="-5.264183">
        <ele>2144.0</ele>
        <time>2016-06-11T12:44:35Z</time>
      </trkpt>
      <trkpt lat="40.449750" lon="-5.264067">
        <ele>2143.0</ele>
        <time>2016-06-11T12:44:36Z</time>
      </trkpt>
      <trkpt lat="40.449783" lon="-5.263950">
        <ele>2141.0</ele>
        <time>2016-06-11T12:44:37Z</time>
      </trkpt>
      <trkpt lat="40.449833" lon="-5.263850">
        <ele>2139.0</ele>
        <time>2016-06-11T12:44:38Z</time>
      </trkpt>
      <trkpt lat="40.449883" lon="-5.263733">
        <ele>2136.0</ele>
        <time>2016-06-11T12:44:39Z</time>
      </trkpt>
      <trkpt lat="40.449933" lon="-5.263617">
        <ele>2134.0</ele>
        <time>2016-06-11T12:44:40Z</time>
      </trkpt>
      <trkpt lat="40.449983" lon="-5.263517">
        <ele>2131.0</ele>
        <time>2016-06-11T12:44:41Z</time>
      </trkpt>
      <trkpt lat="40.450050" lon="-5.263400">
        <ele>2130.0</ele>
        <time>2016-06-11T12:44:42Z</time>
      </trkpt>
      <trkpt lat="40.450100" lon="-5.263300">
        <ele>2128.0</ele>
        <time>2016-06-11T12:44:43Z</time>
      </trkpt>
      <trkpt lat="40.450150" lon="-5.263200">
        <ele>2126.0</ele>
        <time>2016-06-11T12:44:44Z</time>
      </trkpt>
      <trkpt lat="40.450217" lon="-5.263100">
        <ele>2125.0</ele>
        <time>2016-06-11T12:44:45Z</time>
      </trkpt>
      <trkpt lat="40.450267" lon="-5.263000">
        <ele>2123.0</ele>
        <time>2016-06-11T12:44:46Z</time>
      </trkpt>
      <trkpt lat="40.450333" lon="-5.262883">
        <ele>2121.0</ele>
        <time>2016-06-11T12:44:47Z</time>
      </trkpt>
      <trkpt lat="40.450400" lon="-5.262783">
        <ele>2119.0</ele>
        <time>2016-06-11T12:44:48Z</time>
      </trkpt>
      <trkpt lat="40.450450" lon="-5.262700">
        <ele>2119.0</ele>
        <time>2016-06-11T12:44:49Z</time>
      </trkpt>
      <trkpt lat="40.450500" lon="-5.262600">
        <ele>2118.0</ele>
        <time>2016-06-11T12:44:50Z</time>
      </trkpt>
      <trkpt lat="40.450567" lon="-5.262517">
        <ele>2117.0</ele>
        <time>2016-06-11T12:44:51Z</time>
      </trkpt>
      <trkpt lat="40.450617" lon="-5.262417">
        <ele>2114.0</ele>
        <time>2016-06-11T12:44:52Z</time>
      </trkpt>
      <trkpt lat="40.450683" lon="-5.262333">
        <ele>2112.0</ele>
        <time>2016-06-11T12:44:53Z</time>
      </trkpt>
      <trkpt lat="40.450750" lon="-5.262233">
        <ele>2111.0</ele>
        <time>2016-06-11T12:44:54Z</time>
      </trkpt>
      <trkpt lat="40.450800" lon="-5.262167">
        <ele>2109.0</ele>
        <time>2016-06-11T12:44:55Z</time>
      </trkpt>
      <trkpt lat="40.450867" lon="-5.262083">
        <ele>2108.0</ele>
        <time>2016-06-11T12:44:56Z</time>
      </trkpt>
      <trkpt lat="40.450917" lon="-5.262000">
        <ele>2106.0</ele>
        <time>2016-06-11T12:44:57Z</time>
      </trkpt>
      <trkpt lat="40.450983" lon="-5.261933">
        <ele>2104.0</ele>
        <time>2016-06-11T12:44:58Z</time>
      </trkpt>
      <trkpt lat="40.451033" lon="-5.261833">
        <ele>2102.0</ele>
        <time>2016-06-11T12:44:59Z</time>
      </trkpt>
      <trkpt lat="40.451100" lon="-5.261733">
        <ele>2101.0</ele>
        <time>2016-06-11T12:45:00Z</time>
      </trkpt>
      <trkpt lat="40.451167" lon="-5.261633">
        <ele>2100.0</ele>
        <time>2016-06-11T12:45:01Z</time>
      </trkpt>
      <trkpt lat="40.451217" lon="-5.261517">
        <ele>2100.0</ele>
        <time>2016-06-11T12:45:02Z</time>
      </trkpt>
      <trkpt lat="40.451267" lon="-5.261417">
        <ele>2100.0</ele>
        <time>2016-06-11T12:45:03Z</time>
      </trkpt>
      <trkpt lat="40.451317" lon="-5.261300">
        <ele>2100.0</ele>
        <time>2016-06-11T12:45:04Z</time>
      </trkpt>
      <trkpt lat="40.451383" lon="-5.261200">
        <ele>2100.0</ele>
        <time>2016-06-11T12:45:05Z</time>
      </trkpt>
      <trkpt lat="40.451433" lon="-5.261100">
        <ele>2099.0</ele>
        <time>2016-06-11T12:45:06Z</time>
      </trkpt>
      <trkpt lat="40.451500" lon="-5.261000">
        <ele>2099.0</ele>
        <time>2016-06-11T12:45:07Z</time>
      </trkpt>
      <trkpt lat="40.451567" lon="-5.260917">
        <ele>2098.0</ele>
        <time>2016-06-11T12:45:08Z</time>
      </trkpt>
      <trkpt lat="40.451633" lon="-5.260817">
        <ele>2098.0</ele>
        <time>2016-06-11T12:45:09Z</time>
      </trkpt>
      <trkpt lat="40.451717" lon="-5.260733">
        <ele>2098.0</ele>
        <time>2016-06-11T12:45:10Z</time>
      </trkpt>
      <trkpt lat="40.451783" lon="-5.260650">
        <ele>2099.0</ele>
        <time>2016-06-11T12:45:11Z</time>
      </trkpt>
      <trkpt lat="40.451867" lon="-5.260567">
        <ele>2099.0</ele>
        <time>2016-06-11T12:45:12Z</time>
      </trkpt>
      <trkpt lat="40.451933" lon="-5.260483">
        <ele>2100.0</ele>
        <time>2016-06-11T12:45:13Z</time>
      </trkpt>
      <trkpt lat="40.452017" lon="-5.260400">
        <ele>2100.0</ele>
        <time>2016-06-11T12:45:14Z</time>
      </trkpt>
      <trkpt lat="40.452083" lon="-5.260317">
        <ele>2100.0</ele>
        <time>2016-06-11T12:45:15Z</time>
      </trkpt>
      <trkpt lat="40.452150" lon="-5.260233">
        <ele>2099.0</ele>
        <time>2016-06-11T12:45:16Z</time>
      </trkpt>
      <trkpt lat="40.452217" lon="-5.260150">
        <ele>2099.0</ele>
        <time>2016-06-11T12:45:17Z</time>
      </trkpt>
      <trkpt lat="40.452283" lon="-5.260067">
        <ele>2098.0</ele>
        <time>2016-06-11T12:45:18Z</time>
      </trkpt>
      <trkpt lat="40.452367" lon="-5.260000">
        <ele>2098.0</ele>
        <time>2016-06-11T12:45:19Z</time>
      </trkpt>
      <trkpt lat="40.452433" lon="-5.259917">
        <ele>2097.0</ele>
        <time>2016-06-11T12:45:20Z</time>
      </trkpt>
      <trkpt lat="40.452500" lon="-5.259833">
        <ele>2097.0</ele>
        <time>2016-06-11T12:45:21Z</time>
      </trkpt>
      <trkpt lat="40.452583" lon="-5.259733">
        <ele>2097.0</ele>
        <time>2016-06-11T12:45:22Z</time>
      </trkpt>
      <trkpt lat="40.452650" lon="-5.259650">
        <ele>2097.0</ele>
        <time>2016-06-11T12:45:23Z</time>
      </trkpt>
      <trkpt lat="40.452717" lon="-5.259583">
        <ele>2099.0</ele>
        <time>2016-06-11T12:45:24Z</time>
      </trkpt>
      <trkpt lat="40.452767" lon="-5.259533">
        <ele>2100.0</ele>
        <time>2016-06-11T12:45:25Z</time>
      </trkpt>
      <trkpt lat="40.452817" lon="-5.259483">
        <ele>2100.0</ele>
        <time>2016-06-11T12:45:26Z</time>
      </trkpt>
      <trkpt lat="40.452867" lon="-5.259417">
        <ele>2099.0</ele>
        <time>2016-06-11T12:45:27Z</time>
      </trkpt>
      <trkpt lat="40.452933" lon="-5.259367">
        <ele>2097.0</ele>
        <time>2016-06-11T12:45:28Z</time>
      </trkpt>
      <trkpt lat="40.453033" lon="-5.259300">
        <ele>2095.0</ele>
        <time>2016-06-11T12:45:29Z</time>
      </trkpt>
      <trkpt lat="40.453133" lon="-5.259250">
        <ele>2094.0</ele>
        <time>2016-06-11T12:45:30Z</time>
      </trkpt>
      <trkpt lat="40.453217" lon="-5.259200">
        <ele>2096.0</ele>
        <time>2016-06-11T12:45:31Z</time>
      </trkpt>
      <trkpt lat="40.453283" lon="-5.259150">
        <ele>2097.0</ele>
        <time>2016-06-11T12:45:32Z</time>
      </trkpt>
      <trkpt lat="40.453350" lon="-5.259083">
        <ele>2098.0</ele>
        <time>2016-06-11T12:45:33Z</time>
      </trkpt>
      <trkpt lat="40.453433" lon="-5.259017">
        <ele>2098.0</ele>
        <time>2016-06-11T12:45:34Z</time>
      </trkpt>
      <trkpt lat="40.453517" lon="-5.258950">
        <ele>2099.0</ele>
        <time>2016-06-11T12:45:35Z</time>
      </trkpt>
      <trkpt lat="40.453600" lon="-5.258900">
        <ele>2101.0</ele>
        <time>2016-06-11T12:45:36Z</time>
      </trkpt>
      <trkpt lat="40.453667" lon="-5.258833">
        <ele>2103.0</ele>
        <time>2016-06-11T12:45:37Z</time>
      </trkpt>
      <trkpt lat="40.453717" lon="-5.258767">
        <ele>2104.0</ele>
        <time>2016-06-11T12:45:38Z</time>
      </trkpt>
      <trkpt lat="40.453783" lon="-5.258700">
        <ele>2105.0</ele>
        <time>2016-06-11T12:45:39Z</time>
      </trkpt>
      <trkpt lat="40.453850" lon="-5.258633">
        <ele>2104.0</ele>
        <time>2016-06-11T12:45:40Z</time>
      </trkpt>
      <trkpt lat="40.453900" lon="-5.258567">
        <ele>2104.0</ele>
        <time>2016-06-11T12:45:41Z</time>
      </trkpt>
      <trkpt lat="40.453983" lon="-5.258483">
        <ele>2101.0</ele>
        <time>2016-06-11T12:45:42Z</time>
      </trkpt>
      <trkpt lat="40.454050" lon="-5.258417">
        <ele>2100.0</ele>
        <time>2016-06-11T12:45:43Z</time>
      </trkpt>
      <trkpt lat="40.454117" lon="-5.258367">
        <ele>2099.0</ele>
        <time>2016-06-11T12:45:44Z</time>
      </trkpt>
      <trkpt lat="40.454183" lon="-5.258333">
        <ele>2098.0</ele>
        <time>2016-06-11T12:45:45Z</time>
      </trkpt>
      <trkpt lat="40.454250" lon="-5.258283">
        <ele>2097.0</ele>
        <time>2016-06-11T12:45:46Z</time>
      </trkpt>
      <trkpt lat="40.454317" lon="-5.258250">
        <ele>2095.0</ele>
        <time>2016-06-11T12:45:47Z</time>
      </trkpt>
      <trkpt lat="40.454383" lon="-5.258200">
        <ele>2093.0</ele>
        <time>2016-06-11T12:45:48Z</time>
      </trkpt>
      <trkpt lat="40.454450" lon="-5.258133">
        <ele>2090.0</ele>
        <time>2016-06-11T12:45:49Z</time>
      </trkpt>
      <trkpt lat="40.454550" lon="-5.258067">
        <ele>2088.0</ele>
        <time>2016-06-11T12:45:50Z</time>
      </trkpt>
      <trkpt lat="40.454633" lon="-5.258000">
        <ele>2088.0</ele>
        <time>2016-06-11T12:45:51Z</time>
      </trkpt>
      <trkpt lat="40.454700" lon="-5.257950">
        <ele>2092.0</ele>
        <time>2016-06-11T12:45:52Z</time>
      </trkpt>
      <trkpt lat="40.454767" lon="-5.257900">
        <ele>2095.0</ele>
        <time>2016-06-11T12:45:53Z</time>
      </trkpt>
      <trkpt lat="40.454833" lon="-5.257867">
        <ele>2098.0</ele>
        <time>2016-06-11T12:45:54Z</time>
      </trkpt>
      <trkpt lat="40.454883" lon="-5.257817">
        <ele>2099.0</ele>
        <time>2016-06-11T12:45:55Z</time>
      </trkpt>
      <trkpt lat="40.454950" lon="-5.257767">
        <ele>2100.0</ele>
        <time>2016-06-11T12:45:56Z</time>
      </trkpt>
      <trkpt lat="40.455033" lon="-5.257717">
        <ele>2100.0</ele>
        <time>2016-06-11T12:45:57Z</time>
      </trkpt>
      <trkpt lat="40.455100" lon="-5.257667">
        <ele>2100.0</ele>
        <time>2016-06-11T12:45:58Z</time>
      </trkpt>
      <trkpt lat="40.455183" lon="-5.257617">
        <ele>2100.0</ele>
        <time>2016-06-11T12:45:59Z</time>
      </trkpt>
      <trkpt lat="40.455250" lon="-5.257567">
        <ele>2100.0</ele>
        <time>2016-06-11T12:46:00Z</time>
      </trkpt>
      <trkpt lat="40.455317" lon="-5.257533">
        <ele>2099.0</ele>
        <time>2016-06-11T12:46:01Z</time>
      </trkpt>
      <trkpt lat="40.455383" lon="-5.257500">
        <ele>2099.0</ele>
        <time>2016-06-11T12:46:02Z</time>
      </trkpt>
      <trkpt lat="40.455450" lon="-5.257483">
        <ele>2098.0</ele>
        <time>2016-06-11T12:46:03Z</time>
      </trkpt>
      <trkpt lat="40.455517" lon="-5.257450">
        <ele>2097.0</ele>
        <time>2016-06-11T12:46:04Z</time>
      </trkpt>
      <trkpt lat="40.455583" lon="-5.257433">
        <ele>2097.0</ele>
        <time>2016-06-11T12:46:05Z</time>
      </trkpt>
      <trkpt lat="40.455650" lon="-5.257417">
        <ele>2096.0</ele>
        <time>2016-06-11T12:46:06Z</time>
      </trkpt>
      <trkpt lat="40.455700" lon="-5.257383">
        <ele>2094.0</ele>
        <time>2016-06-11T12:46:07Z</time>
      </trkpt>
      <trkpt lat="40.455767" lon="-5.257350">
        <ele>2091.0</ele>
        <time>2016-06-11T12:46:08Z</time>
      </trkpt>
      <trkpt lat="40.455833" lon="-5.257300">
        <ele>2088.0</ele>
        <time>2016-06-11T12:46:09Z</time>
      </trkpt>
      <trkpt lat="40.455917" lon="-5.257267">
        <ele>2085.0</ele>
        <time>2016-06-11T12:46:10Z</time>
      </trkpt>
      <trkpt lat="40.456000" lon="-5.257200">
        <ele>2082.0</ele>
        <time>2016-06-11T12:46:11Z</time>
      </trkpt>
      <trkpt lat="40.456083" lon="-5.257133">
        <ele>2080.0</ele>
        <time>2016-06-11T12:46:12Z</time>
      </trkpt>
      <trkpt lat="40.456150" lon="-5.257033">
        <ele>2079.0</ele>
        <time>2016-06-11T12:46:13Z</time>
      </trkpt>
      <trkpt lat="40.456217" lon="-5.256933">
        <ele>2077.0</ele>
        <time>2016-06-11T12:46:14Z</time>
      </trkpt>
      <trkpt lat="40.456283" lon="-5.256817">
        <ele>2076.0</ele>
        <time>2016-06-11T12:46:15Z</time>
      </trkpt>
      <trkpt lat="40.456350" lon="-5.256717">
        <ele>2075.0</ele>
        <time>2016-06-11T12:46:16Z</time>
      </trkpt>
      <trkpt lat="40.456417" lon="-5.256583">
        <ele>2073.0</ele>
        <time>2016-06-11T12:46:17Z</time>
      </trkpt>
      <trkpt lat="40.456467" lon="-5.256467">
        <ele>2073.0</ele>
        <time>2016-06-11T12:46:18Z</time>
      </trkpt>
      <trkpt lat="40.456517" lon="-5.256333">
        <ele>2072.0</ele>
        <time>2016-06-11T12:46:19Z</time>
      </trkpt>
      <trkpt lat="40.456567" lon="-5.256200">
        <ele>2071.0</ele>
        <time>2016-06-11T12:46:20Z</time>
      </trkpt>
      <trkpt lat="40.456617" lon="-5.256067">
        <ele>2070.0</ele>
        <time>2016-06-11T12:46:21Z</time>
      </trkpt>
      <trkpt lat="40.456667" lon="-5.255933">
        <ele>2068.0</ele>
        <time>2016-06-11T12:46:22Z</time>
      </trkpt>
      <trkpt lat="40.456733" lon="-5.255817">
        <ele>2066.0</ele>
        <time>2016-06-11T12:46:23Z</time>
      </trkpt>
      <trkpt lat="40.456800" lon="-5.255683">
        <ele>2064.0</ele>
        <time>2016-06-11T12:46:24Z</time>
      </trkpt>
      <trkpt lat="40.456867" lon="-5.255567">
        <ele>2062.0</ele>
        <time>2016-06-11T12:46:25Z</time>
      </trkpt>
      <trkpt lat="40.456933" lon="-5.255450">
        <ele>2061.0</ele>
        <time>2016-06-11T12:46:26Z</time>
      </trkpt>
      <trkpt lat="40.457000" lon="-5.255333">
        <ele>2059.0</ele>
        <time>2016-06-11T12:46:27Z</time>
      </trkpt>
      <trkpt lat="40.457083" lon="-5.255200">
        <ele>2058.0</ele>
        <time>2016-06-11T12:46:28Z</time>
      </trkpt>
      <trkpt lat="40.457150" lon="-5.255083">
        <ele>2057.0</ele>
        <time>2016-06-11T12:46:29Z</time>
      </trkpt>
      <trkpt lat="40.457217" lon="-5.254967">
        <ele>2056.0</ele>
        <time>2016-06-11T12:46:30Z</time>
      </trkpt>
      <trkpt lat="40.457283" lon="-5.254833">
        <ele>2054.0</ele>
        <time>2016-06-11T12:46:31Z</time>
      </trkpt>
      <trkpt lat="40.457350" lon="-5.254700">
        <ele>2052.0</ele>
        <time>2016-06-11T12:46:32Z</time>
      </trkpt>
      <trkpt lat="40.457417" lon="-5.254567">
        <ele>2050.0</ele>
        <time>2016-06-11T12:46:33Z</time>
      </trkpt>
      <trkpt lat="40.457483" lon="-5.254417">
        <ele>2049.0</ele>
        <time>2016-06-11T12:46:34Z</time>
      </trkpt>
      <trkpt lat="40.457533" lon="-5.254283">
        <ele>2048.0</ele>
        <time>2016-06-11T12:46:35Z</time>
      </trkpt>
      <trkpt lat="40.457600" lon="-5.254133">
        <ele>2048.0</ele>
        <time>2016-06-11T12:46:36Z</time>
      </trkpt>
      <trkpt lat="40.457650" lon="-5.253983">
        <ele>2047.0</ele>
        <time>2016-06-11T12:46:37Z</time>
      </trkpt>
      <trkpt lat="40.457683" lon="-5.253833">
        <ele>2047.0</ele>
        <time>2016-06-11T12:46:38Z</time>
      </trkpt>
      <trkpt lat="40.457733" lon="-5.253683">
        <ele>2046.0</ele>
        <time>2016-06-11T12:46:39Z</time>
      </trkpt>
      <trkpt lat="40.457783" lon="-5.253517">
        <ele>2045.0</ele>
        <time>2016-06-11T12:46:40Z</time>
      </trkpt>
      <trkpt lat="40.457850" lon="-5.253367">
        <ele>2046.0</ele>
        <time>2016-06-11T12:46:41Z</time>
      </trkpt>
      <trkpt lat="40.457917" lon="-5.253233">
        <ele>2048.0</ele>
        <time>2016-06-11T12:46:42Z</time>
      </trkpt>
      <trkpt lat="40.457983" lon="-5.253100">
        <ele>2051.0</ele>
        <time>2016-06-11T12:46:43Z</time>
      </trkpt>
      <trkpt lat="40.458033" lon="-5.253000">
        <ele>2053.0</ele>
        <time>2016-06-11T12:46:44Z</time>
      </trkpt>
      <trkpt lat="40.458100" lon="-5.252900">
        <ele>2055.0</ele>
        <time>2016-06-11T12:46:45Z</time>
      </trkpt>
      <trkpt lat="40.458150" lon="-5.252817">
        <ele>2056.0</ele>
        <time>2016-06-11T12:46:46Z</time>
      </trkpt>
      <trkpt lat="40.458217" lon="-5.252717">
        <ele>2056.0</ele>
        <time>2016-06-11T12:46:47Z</time>
      </trkpt>
      <trkpt lat="40.458283" lon="-5.252633">
        <ele>2056.0</ele>
        <time>2016-06-11T12:46:48Z</time>
      </trkpt>
      <trkpt lat="40.458350" lon="-5.252567">
        <ele>2056.0</ele>
        <time>2016-06-11T12:46:49Z</time>
      </trkpt>
      <trkpt lat="40.458417" lon="-5.252483">
        <ele>2057.0</ele>
        <time>2016-06-11T12:46:50Z</time>
      </trkpt>
      <trkpt lat="40.458483" lon="-5.252417">
        <ele>2057.0</ele>
        <time>2016-06-11T12:46:51Z</time>
      </trkpt>
      <trkpt lat="40.458567" lon="-5.252367">
        <ele>2057.0</ele>
        <time>2016-06-11T12:46:52Z</time>
      </trkpt>
      <trkpt lat="40.458633" lon="-5.252333">
        <ele>2057.0</ele>
        <time>2016-06-11T12:46:53Z</time>
      </trkpt>
      <trkpt lat="40.458717" lon="-5.252283">
        <ele>2058.0</ele>
        <time>2016-06-11T12:46:54Z</time>
      </trkpt>
      <trkpt lat="40.458800" lon="-5.252200">
        <ele>2058.0</ele>
        <time>2016-06-11T12:46:55Z</time>
      </trkpt>
      <trkpt lat="40.458867" lon="-5.252083">
        <ele>2058.0</ele>
        <time>2016-06-11T12:46:56Z</time>
      </trkpt>
      <trkpt lat="40.458917" lon="-5.251950">
        <ele>2058.0</ele>
        <time>2016-06-11T12:46:57Z</time>
      </trkpt>
      <trkpt lat="40.458950" lon="-5.251800">
        <ele>2060.0</ele>
        <time>2016-06-11T12:46:58Z</time>
      </trkpt>
      <trkpt lat="40.458983" lon="-5.251667">
        <ele>2062.0</ele>
        <time>2016-06-11T12:46:59Z</time>
      </trkpt>
      <trkpt lat="40.458983" lon="-5.251517">
        <ele>2064.0</ele>
        <time>2016-06-11T12:47:00Z</time>
      </trkpt>
      <trkpt lat="40.458967" lon="-5.251350">
        <ele>2066.0</ele>
        <time>2016-06-11T12:47:01Z</time>
      </trkpt>
      <trkpt lat="40.458967" lon="-5.251200">
        <ele>2067.0</ele>
        <time>2016-06-11T12:47:02Z</time>
      </trkpt>
      <trkpt lat="40.458967" lon="-5.251050">
        <ele>2069.0</ele>
        <time>2016-06-11T12:47:03Z</time>
      </trkpt>
      <trkpt lat="40.458983" lon="-5.250883">
        <ele>2069.0</ele>
        <time>2016-06-11T12:47:04Z</time>
      </trkpt>
      <trkpt lat="40.459000" lon="-5.250733">
        <ele>2070.0</ele>
        <time>2016-06-11T12:47:05Z</time>
      </trkpt>
      <trkpt lat="40.459017" lon="-5.250583">
        <ele>2071.0</ele>
        <time>2016-06-11T12:47:06Z</time>
      </trkpt>
      <trkpt lat="40.459050" lon="-5.250450">
        <ele>2071.0</ele>
        <time>2016-06-11T12:47:07Z</time>
      </trkpt>
      <trkpt lat="40.459083" lon="-5.250333">
        <ele>2070.0</ele>
        <time>2016-06-11T12:47:08Z</time>
      </trkpt>
      <trkpt lat="40.459150" lon="-5.250217">
        <ele>2068.0</ele>
        <time>2016-06-11T12:47:09Z</time>
      </trkpt>
      <trkpt lat="40.459233" lon="-5.250100">
        <ele>2067.0</ele>
        <time>2016-06-11T12:47:10Z</time>
      </trkpt>
      <trkpt lat="40.459333" lon="-5.250017">
        <ele>2066.0</ele>
        <time>2016-06-11T12:47:11Z</time>
      </trkpt>
      <trkpt lat="40.459417" lon="-5.249983">
        <ele>2067.0</ele>
        <time>2016-06-11T12:47:12Z</time>
      </trkpt>
      <trkpt lat="40.459483" lon="-5.249967">
        <ele>2069.0</ele>
        <time>2016-06-11T12:47:13Z</time>
      </trkpt>
      <trkpt lat="40.459550" lon="-5.249950">
        <ele>2070.0</ele>
        <time>2016-06-11T12:47:14Z</time>
      </trkpt>
      <trkpt lat="40.459600" lon="-5.249917">
        <ele>2072.0</ele>
        <time>2016-06-11T12:47:15Z</time>
      </trkpt>
      <trkpt lat="40.459650" lon="-5.249883">
        <ele>2072.0</ele>
        <time>2016-06-11T12:47:16Z</time>
      </trkpt>
      <trkpt lat="40.459717" lon="-5.249867">
        <ele>2072.0</ele>
        <time>2016-06-11T12:47:17Z</time>
      </trkpt>
      <trkpt lat="40.459767" lon="-5.249867">
        <ele>2073.0</ele>
        <time>2016-06-11T12:47:18Z</time>
      </trkpt>
      <trkpt lat="40.459800" lon="-5.249883">
        <ele>2074.0</ele>
        <time>2016-06-11T12:47:19Z</time>
      </trkpt>
      <trkpt lat="40.459833" lon="-5.249900">
        <ele>2075.0</ele>
        <time>2016-06-11T12:47:20Z</time>
      </trkpt>
      <trkpt lat="40.459867" lon="-5.249933">
        <ele>2076.0</ele>
        <time>2016-06-11T12:47:21Z</time>
      </trkpt>
      <trkpt lat="40.459900" lon="-5.249967">
        <ele>2077.0</ele>
        <time>2016-06-11T12:47:22Z</time>
      </trkpt>
      <trkpt lat="40.459917" lon="-5.249983">
        <ele>2077.0</ele>
        <time>2016-06-11T12:47:23Z</time>
      </trkpt>
      <trkpt lat="40.459950" lon="-5.250017">
        <ele>2078.0</ele>
        <time>2016-06-11T12:47:24Z</time>
      </trkpt>
      <trkpt lat="40.459967" lon="-5.250033">
        <ele>2078.0</ele>
        <time>2016-06-11T12:47:25Z</time>
      </trkpt>
      <trkpt lat="40.459983" lon="-5.250067">
        <ele>2077.0</ele>
        <time>2016-06-11T12:47:26Z</time>
      </trkpt>
      <trkpt lat="40.459983" lon="-5.250117">
        <ele>2076.0</ele>
        <time>2016-06-11T12:47:27Z</time>
      </trkpt>
      <trkpt lat="40.459983" lon="-5.250183">
        <ele>2075.0</ele>
        <time>2016-06-11T12:47:28Z</time>
      </trkpt>
      <trkpt lat="40.459983" lon="-5.250233">
        <ele>2075.0</ele>
        <time>2016-06-11T12:47:29Z</time>
      </trkpt>
      <trkpt lat="40.459983" lon="-5.250267">
        <ele>2077.0</ele>
        <time>2016-06-11T12:47:30Z</time>
      </trkpt>
      <trkpt lat="40.459983" lon="-5.250300">
        <ele>2078.0</ele>
        <time>2016-06-11T12:47:31Z</time>
      </trkpt>
      <trkpt lat="40.459983" lon="-5.250333">
        <ele>2078.0</ele>
        <time>2016-06-11T12:47:32Z</time>
      </trkpt>
      <trkpt lat="40.459983" lon="-5.250383">
        <ele>2078.0</ele>
        <time>2016-06-11T12:47:33Z</time>
      </trkpt>
      <trkpt lat="40.459983" lon="-5.250433">
        <ele>2077.0</ele>
        <time>2016-06-11T12:47:34Z</time>
      </trkpt>
      <trkpt lat="40.459950" lon="-5.250467">
        <ele>2078.0</ele>
        <time>2016-06-11T12:47:35Z</time>
      </trkpt>
      <trkpt lat="40.459950" lon="-5.250517">
        <ele>2078.0</ele>
        <time>2016-06-11T12:47:36Z</time>
      </trkpt>
      <trkpt lat="40.459967" lon="-5.250550">
        <ele>2078.0</ele>
        <time>2016-06-11T12:47:37Z</time>
      </trkpt>
      <trkpt lat="40.459983" lon="-5.250583">
        <ele>2077.0</ele>
        <time>2016-06-11T12:47:38Z</time>
      </trkpt>
      <trkpt lat="40.460017" lon="-5.250633">
        <ele>2077.0</ele>
        <time>2016-06-11T12:47:39Z</time>
      </trkpt>
      <trkpt lat="40.460033" lon="-5.250683">
        <ele>2077.0</ele>
        <time>2016-06-11T12:47:40Z</time>
      </trkpt>
      <trkpt lat="40.460017" lon="-5.250717">
        <ele>2077.0</ele>
        <time>2016-06-11T12:47:41Z</time>
      </trkpt>
      <trkpt lat="40.460000" lon="-5.250767">
        <ele>2077.0</ele>
        <time>2016-06-11T12:47:42Z</time>
      </trkpt>
      <trkpt lat="40.460000" lon="-5.250800">
        <ele>2076.0</ele>
        <time>2016-06-11T12:47:43Z</time>
      </trkpt>
      <trkpt lat="40.460017" lon="-5.250833">
        <ele>2075.0</ele>
        <time>2016-06-11T12:47:44Z</time>
      </trkpt>
      <trkpt lat="40.460033" lon="-5.250867">
        <ele>2074.0</ele>
        <time>2016-06-11T12:47:45Z</time>
      </trkpt>
      <trkpt lat="40.460033" lon="-5.250900">
        <ele>2073.0</ele>
        <time>2016-06-11T12:47:46Z</time>
      </trkpt>
      <trkpt lat="40.460000" lon="-5.250933">
        <ele>2072.0</ele>
        <time>2016-06-11T12:47:47Z</time>
      </trkpt>
      <trkpt lat="40.459933" lon="-5.250950">
        <ele>2071.0</ele>
        <time>2016-06-11T12:47:48Z</time>
      </trkpt>
      <trkpt lat="40.459850" lon="-5.250917">
        <ele>2069.0</ele>
        <time>2016-06-11T12:47:49Z</time>
      </trkpt>
      <trkpt lat="40.459767" lon="-5.250833">
        <ele>2067.0</ele>
        <time>2016-06-11T12:47:50Z</time>
      </trkpt>
      <trkpt lat="40.459683" lon="-5.250717">
        <ele>2066.0</ele>
        <time>2016-06-11T12:47:51Z</time>
      </trkpt>
      <trkpt lat="40.459633" lon="-5.250550">
        <ele>2065.0</ele>
        <time>2016-06-11T12:47:52Z</time>
      </trkpt>
      <trkpt lat="40.459600" lon="-5.250383">
        <ele>2065.0</ele>
        <time>2016-06-11T12:47:53Z</time>
      </trkpt>
      <trkpt lat="40.459583" lon="-5.250217">
        <ele>2065.0</ele>
        <time>2016-06-11T12:47:54Z</time>
      </trkpt>
      <trkpt lat="40.459550" lon="-5.250067">
        <ele>2065.0</ele>
        <time>2016-06-11T12:47:55Z</time>
      </trkpt>
      <trkpt lat="40.459533" lon="-5.249900">
        <ele>2063.0</ele>
        <time>2016-06-11T12:47:56Z</time>
      </trkpt>
      <trkpt lat="40.459533" lon="-5.249717">
        <ele>2060.0</ele>
        <time>2016-06-11T12:47:57Z</time>
      </trkpt>
      <trkpt lat="40.459567" lon="-5.249533">
        <ele>2058.0</ele>
        <time>2016-06-11T12:47:58Z</time>
      </trkpt>
      <trkpt lat="40.459617" lon="-5.249350">
        <ele>2056.0</ele>
        <time>2016-06-11T12:47:59Z</time>
      </trkpt>
      <trkpt lat="40.459683" lon="-5.249167">
        <ele>2056.0</ele>
        <time>2016-06-11T12:48:00Z</time>
      </trkpt>
      <trkpt lat="40.459750" lon="-5.249017">
        <ele>2056.0</ele>
        <time>2016-06-11T12:48:01Z</time>
      </trkpt>
      <trkpt lat="40.459817" lon="-5.248900">
        <ele>2057.0</ele>
        <time>2016-06-11T12:48:02Z</time>
      </trkpt>
      <trkpt lat="40.459867" lon="-5.248767">
        <ele>2056.0</ele>
        <time>2016-06-11T12:48:03Z</time>
      </trkpt>
      <trkpt lat="40.459933" lon="-5.248633">
        <ele>2055.0</ele>
        <time>2016-06-11T12:48:04Z</time>
      </trkpt>
      <trkpt lat="40.460000" lon="-5.248517">
        <ele>2054.0</ele>
        <time>2016-06-11T12:48:05Z</time>
      </trkpt>
      <trkpt lat="40.460083" lon="-5.248400">
        <ele>2053.0</ele>
        <time>2016-06-11T12:48:06Z</time>
      </trkpt>
      <trkpt lat="40.460167" lon="-5.248317">
        <ele>2053.0</ele>
        <time>2016-06-11T12:48:07Z</time>
      </trkpt>
      <trkpt lat="40.460250" lon="-5.248250">
        <ele>2053.0</ele>
        <time>2016-06-11T12:48:08Z</time>
      </trkpt>
      <trkpt lat="40.460317" lon="-5.248183">
        <ele>2053.0</ele>
        <time>2016-06-11T12:48:09Z</time>
      </trkpt>
      <trkpt lat="40.460383" lon="-5.248117">
        <ele>2054.0</ele>
        <time>2016-06-11T12:48:10Z</time>
      </trkpt>
      <trkpt lat="40.460450" lon="-5.248050">
        <ele>2053.0</ele>
        <time>2016-06-11T12:48:11Z</time>
      </trkpt>
      <trkpt lat="40.460533" lon="-5.248000">
        <ele>2053.0</ele>
        <time>2016-06-11T12:48:12Z</time>
      </trkpt>
      <trkpt lat="40.460600" lon="-5.247950">
        <ele>2052.0</ele>
        <time>2016-06-11T12:48:13Z</time>
      </trkpt>
      <trkpt lat="40.460667" lon="-5.247900">
        <ele>2052.0</ele>
        <time>2016-06-11T12:48:14Z</time>
      </trkpt>
      <trkpt lat="40.460733" lon="-5.247867">
        <ele>2052.0</ele>
        <time>2016-06-11T12:48:15Z</time>
      </trkpt>
      <trkpt lat="40.460800" lon="-5.247833">
        <ele>2052.0</ele>
        <time>2016-06-11T12:48:16Z</time>
      </trkpt>
      <trkpt lat="40.460867" lon="-5.247800">
        <ele>2051.0</ele>
        <time>2016-06-11T12:48:17Z</time>
      </trkpt>
      <trkpt lat="40.460950" lon="-5.247783">
        <ele>2051.0</ele>
        <time>2016-06-11T12:48:18Z</time>
      </trkpt>
      <trkpt lat="40.461017" lon="-5.247767">
        <ele>2050.0</ele>
        <time>2016-06-11T12:48:19Z</time>
      </trkpt>
      <trkpt lat="40.461083" lon="-5.247767">
        <ele>2050.0</ele>
        <time>2016-06-11T12:48:20Z</time>
      </trkpt>
      <trkpt lat="40.461133" lon="-5.247767">
        <ele>2050.0</ele>
        <time>2016-06-11T12:48:21Z</time>
      </trkpt>
      <trkpt lat="40.461200" lon="-5.247783">
        <ele>2049.0</ele>
        <time>2016-06-11T12:48:22Z</time>
      </trkpt>
      <trkpt lat="40.461250" lon="-5.247800">
        <ele>2049.0</ele>
        <time>2016-06-11T12:48:23Z</time>
      </trkpt>
      <trkpt lat="40.461283" lon="-5.247833">
        <ele>2048.0</ele>
        <time>2016-06-11T12:48:24Z</time>
      </trkpt>
      <trkpt lat="40.461333" lon="-5.247850">
        <ele>2048.0</ele>
        <time>2016-06-11T12:48:25Z</time>
      </trkpt>
      <trkpt lat="40.461367" lon="-5.247883">
        <ele>2047.0</ele>
        <time>2016-06-11T12:48:26Z</time>
      </trkpt>
      <trkpt lat="40.461400" lon="-5.247917">
        <ele>2046.0</ele>
        <time>2016-06-11T12:48:27Z</time>
      </trkpt>
      <trkpt lat="40.461417" lon="-5.247950">
        <ele>2044.0</ele>
        <time>2016-06-11T12:48:28Z</time>
      </trkpt>
      <trkpt lat="40.461450" lon="-5.248000">
        <ele>2042.0</ele>
        <time>2016-06-11T12:48:29Z</time>
      </trkpt>
      <trkpt lat="40.461467" lon="-5.248067">
        <ele>2041.0</ele>
        <time>2016-06-11T12:48:30Z</time>
      </trkpt>
      <trkpt lat="40.461467" lon="-5.248117">
        <ele>2041.0</ele>
        <time>2016-06-11T12:48:31Z</time>
      </trkpt>
      <trkpt lat="40.461450" lon="-5.248183">
        <ele>2041.0</ele>
        <time>2016-06-11T12:48:32Z</time>
      </trkpt>
      <trkpt lat="40.461433" lon="-5.248233">
        <ele>2042.0</ele>
        <time>2016-06-11T12:48:33Z</time>
      </trkpt>
      <trkpt lat="40.461433" lon="-5.248283">
        <ele>2041.0</ele>
        <time>2016-06-11T12:48:34Z</time>
      </trkpt>
      <trkpt lat="40.461433" lon="-5.248317">
        <ele>2039.0</ele>
        <time>2016-06-11T12:48:35Z</time>
      </trkpt>
      <trkpt lat="40.461433" lon="-5.248383">
        <ele>2037.0</ele>
        <time>2016-06-11T12:48:36Z</time>
      </trkpt>
      <trkpt lat="40.461433" lon="-5.248433">
        <ele>2035.0</ele>
        <time>2016-06-11T12:48:37Z</time>
      </trkpt>
      <trkpt lat="40.461417" lon="-5.248500">
        <ele>2033.0</ele>
        <time>2016-06-11T12:48:38Z</time>
      </trkpt>
      <trkpt lat="40.461383" lon="-5.248550">
        <ele>2032.0</ele>
        <time>2016-06-11T12:48:39Z</time>
      </trkpt>
      <trkpt lat="40.461333" lon="-5.248600">
        <ele>2031.0</ele>
        <time>2016-06-11T12:48:40Z</time>
      </trkpt>
      <trkpt lat="40.461283" lon="-5.248617">
        <ele>2029.0</ele>
        <time>2016-06-11T12:48:41Z</time>
      </trkpt>
      <trkpt lat="40.461233" lon="-5.248667">
        <ele>2027.0</ele>
        <time>2016-06-11T12:48:42Z</time>
      </trkpt>
      <trkpt lat="40.461200" lon="-5.248700">
        <ele>2025.0</ele>
        <time>2016-06-11T12:48:43Z</time>
      </trkpt>
      <trkpt lat="40.461150" lon="-5.248750">
        <ele>2023.0</ele>
        <time>2016-06-11T12:48:44Z</time>
      </trkpt>
      <trkpt lat="40.461117" lon="-5.248783">
        <ele>2022.0</ele>
        <time>2016-06-11T12:48:45Z</time>
      </trkpt>
      <trkpt lat="40.461100" lon="-5.248800">
        <ele>2021.0</ele>
        <time>2016-06-11T12:48:46Z</time>
      </trkpt>
      <trkpt lat="40.461100" lon="-5.248833">
        <ele>2019.0</ele>
        <time>2016-06-11T12:48:47Z</time>
      </trkpt>
      <trkpt lat="40.461133" lon="-5.248850">
        <ele>2017.0</ele>
        <time>2016-06-11T12:48:48Z</time>
      </trkpt>
      <trkpt lat="40.461200" lon="-5.248867">
        <ele>2014.0</ele>
        <time>2016-06-11T12:48:49Z</time>
      </trkpt>
      <trkpt lat="40.461283" lon="-5.248850">
        <ele>2011.0</ele>
        <time>2016-06-11T12:48:50Z</time>
      </trkpt>
      <trkpt lat="40.461367" lon="-5.248800">
        <ele>2009.0</ele>
        <time>2016-06-11T12:48:51Z</time>
      </trkpt>
      <trkpt lat="40.461450" lon="-5.248717">
        <ele>2008.0</ele>
        <time>2016-06-11T12:48:52Z</time>
      </trkpt>
      <trkpt lat="40.461533" lon="-5.248633">
        <ele>2006.0</ele>
        <time>2016-06-11T12:48:53Z</time>
      </trkpt>
      <trkpt lat="40.461600" lon="-5.248550">
        <ele>2003.0</ele>
        <time>2016-06-11T12:48:54Z</time>
      </trkpt>
      <trkpt lat="40.461683" lon="-5.248467">
        <ele>1999.0</ele>
        <time>2016-06-11T12:48:55Z</time>
      </trkpt>
      <trkpt lat="40.461783" lon="-5.248400">
        <ele>1997.0</ele>
        <time>2016-06-11T12:48:56Z</time>
      </trkpt>
      <trkpt lat="40.461883" lon="-5.248350">
        <ele>1995.0</ele>
        <time>2016-06-11T12:48:57Z</time>
      </trkpt>
      <trkpt lat="40.461967" lon="-5.248267">
        <ele>1994.0</ele>
        <time>2016-06-11T12:48:58Z</time>
      </trkpt>
      <trkpt lat="40.462033" lon="-5.248183">
        <ele>1993.0</ele>
        <time>2016-06-11T12:48:59Z</time>
      </trkpt>
      <trkpt lat="40.462100" lon="-5.248083">
        <ele>1992.0</ele>
        <time>2016-06-11T12:49:00Z</time>
      </trkpt>
      <trkpt lat="40.462183" lon="-5.247983">
        <ele>1990.0</ele>
        <time>2016-06-11T12:49:01Z</time>
      </trkpt>
      <trkpt lat="40.462267" lon="-5.247883">
        <ele>1988.0</ele>
        <time>2016-06-11T12:49:02Z</time>
      </trkpt>
      <trkpt lat="40.462350" lon="-5.247783">
        <ele>1987.0</ele>
        <time>2016-06-11T12:49:03Z</time>
      </trkpt>
      <trkpt lat="40.462433" lon="-5.247700">
        <ele>1988.0</ele>
        <time>2016-06-11T12:49:04Z</time>
      </trkpt>
      <trkpt lat="40.462500" lon="-5.247617">
        <ele>1989.0</ele>
        <time>2016-06-11T12:49:05Z</time>
      </trkpt>
      <trkpt lat="40.462567" lon="-5.247550">
        <ele>1990.0</ele>
        <time>2016-06-11T12:49:06Z</time>
      </trkpt>
      <trkpt lat="40.462633" lon="-5.247467">
        <ele>1988.0</ele>
        <time>2016-06-11T12:49:07Z</time>
      </trkpt>
      <trkpt lat="40.462717" lon="-5.247383">
        <ele>1986.0</ele>
        <time>2016-06-11T12:49:08Z</time>
      </trkpt>
      <trkpt lat="40.462800" lon="-5.247300">
        <ele>1983.0</ele>
        <time>2016-06-11T12:49:09Z</time>
      </trkpt>
      <trkpt lat="40.462883" lon="-5.247217">
        <ele>1982.0</ele>
        <time>2016-06-11T12:49:10Z</time>
      </trkpt>
      <trkpt lat="40.462950" lon="-5.247150">
        <ele>1980.0</ele>
        <time>2016-06-11T12:49:11Z</time>
      </trkpt>
      <trkpt lat="40.463033" lon="-5.247100">
        <ele>1977.0</ele>
        <time>2016-06-11T12:49:12Z</time>
      </trkpt>
      <trkpt lat="40.463133" lon="-5.247033">
        <ele>1974.0</ele>
        <time>2016-06-11T12:49:13Z</time>
      </trkpt>
      <trkpt lat="40.463233" lon="-5.246967">
        <ele>1971.0</ele>
        <time>2016-06-11T12:49:14Z</time>
      </trkpt>
      <trkpt lat="40.463350" lon="-5.246900">
        <ele>1971.0</ele>
        <time>2016-06-11T12:49:15Z</time>
      </trkpt>
      <trkpt lat="40.463433" lon="-5.246817">
        <ele>1973.0</ele>
        <time>2016-06-11T12:49:16Z</time>
      </trkpt>
      <trkpt lat="40.463517" lon="-5.246717">
        <ele>1975.0</ele>
        <time>2016-06-11T12:49:17Z</time>
      </trkpt>
      <trkpt lat="40.463567" lon="-5.246633">
        <ele>1977.0</ele>
        <time>2016-06-11T12:49:18Z</time>
      </trkpt>
      <trkpt lat="40.463617" lon="-5.246550">
        <ele>1977.0</ele>
        <time>2016-06-11T12:49:19Z</time>
      </trkpt>
      <trkpt lat="40.463683" lon="-5.246450">
        <ele>1977.0</ele>
        <time>2016-06-11T12:49:20Z</time>
      </trkpt>
      <trkpt lat="40.463733" lon="-5.246333">
        <ele>1977.0</ele>
        <time>2016-06-11T12:49:21Z</time>
      </trkpt>
      <trkpt lat="40.463800" lon="-5.246200">
        <ele>1978.0</ele>
        <time>2016-06-11T12:49:22Z</time>
      </trkpt>
      <trkpt lat="40.463850" lon="-5.246083">
        <ele>1980.0</ele>
        <time>2016-06-11T12:49:23Z</time>
      </trkpt>
      <trkpt lat="40.463900" lon="-5.245967">
        <ele>1981.0</ele>
        <time>2016-06-11T12:49:24Z</time>
      </trkpt>
      <trkpt lat="40.463950" lon="-5.245867">
        <ele>1982.0</ele>
        <time>2016-06-11T12:49:25Z</time>
      </trkpt>
      <trkpt lat="40.463983" lon="-5.245750">
        <ele>1983.0</ele>
        <time>2016-06-11T12:49:26Z</time>
      </trkpt>
      <trkpt lat="40.464033" lon="-5.245633">
        <ele>1983.0</ele>
        <time>2016-06-11T12:49:27Z</time>
      </trkpt>
      <trkpt lat="40.464067" lon="-5.245517">
        <ele>1981.0</ele>
        <time>2016-06-11T12:49:28Z</time>
      </trkpt>
      <trkpt lat="40.464117" lon="-5.245383">
        <ele>1980.0</ele>
        <time>2016-06-11T12:49:29Z</time>
      </trkpt>
      <trkpt lat="40.464167" lon="-5.245250">
        <ele>1980.0</ele>
        <time>2016-06-11T12:49:30Z</time>
      </trkpt>
      <trkpt lat="40.464217" lon="-5.245133">
        <ele>1980.0</ele>
        <time>2016-06-11T12:49:31Z</time>
      </trkpt>
      <trkpt lat="40.464267" lon="-5.245017">
        <ele>1979.0</ele>
        <time>2016-06-11T12:49:32Z</time>
      </trkpt>
      <trkpt lat="40.464317" lon="-5.244917">
        <ele>1978.0</ele>
        <time>2016-06-11T12:49:33Z</time>
      </trkpt>
      <trkpt lat="40.464367" lon="-5.244800">
        <ele>1977.0</ele>
        <time>2016-06-11T12:49:34Z</time>
      </trkpt>
      <trkpt lat="40.464433" lon="-5.244667">
        <ele>1977.0</ele>
        <time>2016-06-11T12:49:35Z</time>
      </trkpt>
      <trkpt lat="40.464500" lon="-5.244550">
        <ele>1979.0</ele>
        <time>2016-06-11T12:49:36Z</time>
      </trkpt>
      <trkpt lat="40.464550" lon="-5.244433">
        <ele>1982.0</ele>
        <time>2016-06-11T12:49:37Z</time>
      </trkpt>
      <trkpt lat="40.464600" lon="-5.244350">
        <ele>1986.0</ele>
        <time>2016-06-11T12:49:38Z</time>
      </trkpt>
      <trkpt lat="40.464633" lon="-5.244267">
        <ele>1988.0</ele>
        <time>2016-06-11T12:49:39Z</time>
      </trkpt>
      <trkpt lat="40.464667" lon="-5.244167">
        <ele>1989.0</ele>
        <time>2016-06-11T12:49:40Z</time>
      </trkpt>
      <trkpt lat="40.464717" lon="-5.244050">
        <ele>1989.0</ele>
        <time>2016-06-11T12:49:41Z</time>
      </trkpt>
      <trkpt lat="40.464750" lon="-5.243933">
        <ele>1989.0</ele>
        <time>2016-06-11T12:49:42Z</time>
      </trkpt>
      <trkpt lat="40.464767" lon="-5.243800">
        <ele>1989.0</ele>
        <time>2016-06-11T12:49:43Z</time>
      </trkpt>
      <trkpt lat="40.464800" lon="-5.243667">
        <ele>1990.0</ele>
        <time>2016-06-11T12:49:44Z</time>
      </trkpt>
      <trkpt lat="40.464833" lon="-5.243550">
        <ele>1990.0</ele>
        <time>2016-06-11T12:49:45Z</time>
      </trkpt>
      <trkpt lat="40.464883" lon="-5.243433">
        <ele>1989.0</ele>
        <time>2016-06-11T12:49:46Z</time>
      </trkpt>
      <trkpt lat="40.464933" lon="-5.243317">
        <ele>1989.0</ele>
        <time>2016-06-11T12:49:47Z</time>
      </trkpt>
      <trkpt lat="40.465000" lon="-5.243183">
        <ele>1989.0</ele>
        <time>2016-06-11T12:49:48Z</time>
      </trkpt>
      <trkpt lat="40.465067" lon="-5.243067">
        <ele>1991.0</ele>
        <time>2016-06-11T12:49:49Z</time>
      </trkpt>
      <trkpt lat="40.465133" lon="-5.242983">
        <ele>1993.0</ele>
        <time>2016-06-11T12:49:50Z</time>
      </trkpt>
      <trkpt lat="40.465217" lon="-5.242900">
        <ele>1993.0</ele>
        <time>2016-06-11T12:49:51Z</time>
      </trkpt>
      <trkpt lat="40.465283" lon="-5.242817">
        <ele>1993.0</ele>
        <time>2016-06-11T12:49:52Z</time>
      </trkpt>
      <trkpt lat="40.465367" lon="-5.242750">
        <ele>1993.0</ele>
        <time>2016-06-11T12:49:53Z</time>
      </trkpt>
      <trkpt lat="40.465467" lon="-5.242683">
        <ele>1993.0</ele>
        <time>2016-06-11T12:49:54Z</time>
      </trkpt>
      <trkpt lat="40.465533" lon="-5.242633">
        <ele>1993.0</ele>
        <time>2016-06-11T12:49:55Z</time>
      </trkpt>
      <trkpt lat="40.465600" lon="-5.242617">
        <ele>1992.0</ele>
        <time>2016-06-11T12:49:56Z</time>
      </trkpt>
      <trkpt lat="40.465650" lon="-5.242617">
        <ele>1992.0</ele>
        <time>2016-06-11T12:49:57Z</time>
      </trkpt>
      <trkpt lat="40.465700" lon="-5.242650">
        <ele>1991.0</ele>
        <time>2016-06-11T12:49:58Z</time>
      </trkpt>
      <trkpt lat="40.465733" lon="-5.242683">
        <ele>1990.0</ele>
        <time>2016-06-11T12:49:59Z</time>
      </trkpt>
      <trkpt lat="40.465767" lon="-5.242717">
        <ele>1990.0</ele>
        <time>2016-06-11T12:50:00Z</time>
      </trkpt>
      <trkpt lat="40.465783" lon="-5.242767">
        <ele>1989.0</ele>
        <time>2016-06-11T12:50:01Z</time>
      </trkpt>
      <trkpt lat="40.465783" lon="-5.242817">
        <ele>1988.0</ele>
        <time>2016-06-11T12:50:02Z</time>
      </trkpt>
      <trkpt lat="40.465783" lon="-5.242867">
        <ele>1987.0</ele>
        <time>2016-06-11T12:50:03Z</time>
      </trkpt>
      <trkpt lat="40.465750" lon="-5.242933">
        <ele>1985.0</ele>
        <time>2016-06-11T12:50:04Z</time>
      </trkpt>
      <trkpt lat="40.465717" lon="-5.242983">
        <ele>1983.0</ele>
        <time>2016-06-11T12:50:05Z</time>
      </trkpt>
      <trkpt lat="40.465650" lon="-5.243033">
        <ele>1981.0</ele>
        <time>2016-06-11T12:50:06Z</time>
      </trkpt>
      <trkpt lat="40.465567" lon="-5.243067">
        <ele>1980.0</ele>
        <time>2016-06-11T12:50:07Z</time>
      </trkpt>
      <trkpt lat="40.465467" lon="-5.243083">
        <ele>1980.0</ele>
        <time>2016-06-11T12:50:08Z</time>
      </trkpt>
      <trkpt lat="40.465383" lon="-5.243100">
        <ele>1982.0</ele>
        <time>2016-06-11T12:50:09Z</time>
      </trkpt>
      <trkpt lat="40.465300" lon="-5.243133">
        <ele>1984.0</ele>
        <time>2016-06-11T12:50:10Z</time>
      </trkpt>
      <trkpt lat="40.465233" lon="-5.243150">
        <ele>1987.0</ele>
        <time>2016-06-11T12:50:11Z</time>
      </trkpt>
      <trkpt lat="40.465167" lon="-5.243167">
        <ele>1990.0</ele>
        <time>2016-06-11T12:50:12Z</time>
      </trkpt>
      <trkpt lat="40.465100" lon="-5.243167">
        <ele>1992.0</ele>
        <time>2016-06-11T12:50:13Z</time>
      </trkpt>
      <trkpt lat="40.465033" lon="-5.243183">
        <ele>1993.0</ele>
        <time>2016-06-11T12:50:14Z</time>
      </trkpt>
      <trkpt lat="40.464967" lon="-5.243200">
        <ele>1994.0</ele>
        <time>2016-06-11T12:50:15Z</time>
      </trkpt>
      <trkpt lat="40.464900" lon="-5.243233">
        <ele>1996.0</ele>
        <time>2016-06-11T12:50:16Z</time>
      </trkpt>
      <trkpt lat="40.464817" lon="-5.243250">
        <ele>1997.0</ele>
        <time>2016-06-11T12:50:17Z</time>
      </trkpt>
      <trkpt lat="40.464750" lon="-5.243267">
        <ele>1999.0</ele>
        <time>2016-06-11T12:50:18Z</time>
      </trkpt>
      <trkpt lat="40.464683" lon="-5.243283">
        <ele>2000.0</ele>
        <time>2016-06-11T12:50:19Z</time>
      </trkpt>
      <trkpt lat="40.464617" lon="-5.243317">
        <ele>2002.0</ele>
        <time>2016-06-11T12:50:20Z</time>
      </trkpt>
      <trkpt lat="40.464567" lon="-5.243367">
        <ele>2003.0</ele>
        <time>2016-06-11T12:50:21Z</time>
      </trkpt>
      <trkpt lat="40.464500" lon="-5.243400">
        <ele>2004.0</ele>
        <time>2016-06-11T12:50:22Z</time>
      </trkpt>
      <trkpt lat="40.464433" lon="-5.243417">
        <ele>2005.0</ele>
        <time>2016-06-11T12:50:23Z</time>
      </trkpt>
      <trkpt lat="40.464383" lon="-5.243433">
        <ele>2006.0</ele>
        <time>2016-06-11T12:50:24Z</time>
      </trkpt>
      <trkpt lat="40.464317" lon="-5.243467">
        <ele>2007.0</ele>
        <time>2016-06-11T12:50:25Z</time>
      </trkpt>
      <trkpt lat="40.464267" lon="-5.243500">
        <ele>2008.0</ele>
        <time>2016-06-11T12:50:26Z</time>
      </trkpt>
      <trkpt lat="40.464217" lon="-5.243533">
        <ele>2008.0</ele>
        <time>2016-06-11T12:50:27Z</time>
      </trkpt>
      <trkpt lat="40.464167" lon="-5.243567">
        <ele>2007.0</ele>
        <time>2016-06-11T12:50:28Z</time>
      </trkpt>
      <trkpt lat="40.464100" lon="-5.243617">
        <ele>2006.0</ele>
        <time>2016-06-11T12:50:29Z</time>
      </trkpt>
      <trkpt lat="40.464050" lon="-5.243667">
        <ele>2006.0</ele>
        <time>2016-06-11T12:50:30Z</time>
      </trkpt>
      <trkpt lat="40.463983" lon="-5.243700">
        <ele>2006.0</ele>
        <time>2016-06-11T12:50:31Z</time>
      </trkpt>
      <trkpt lat="40.463933" lon="-5.243750">
        <ele>2006.0</ele>
        <time>2016-06-11T12:50:32Z</time>
      </trkpt>
      <trkpt lat="40.463883" lon="-5.243783">
        <ele>2005.0</ele>
        <time>2016-06-11T12:50:33Z</time>
      </trkpt>
      <trkpt lat="40.463850" lon="-5.243833">
        <ele>2005.0</ele>
        <time>2016-06-11T12:50:34Z</time>
      </trkpt>
      <trkpt lat="40.463833" lon="-5.243867">
        <ele>2006.0</ele>
        <time>2016-06-11T12:50:35Z</time>
      </trkpt>
      <trkpt lat="40.463867" lon="-5.243900">
        <ele>2005.0</ele>
        <time>2016-06-11T12:50:36Z</time>
      </trkpt>
      <trkpt lat="40.463917" lon="-5.243883">
        <ele>2004.0</ele>
        <time>2016-06-11T12:50:37Z</time>
      </trkpt>
      <trkpt lat="40.463983" lon="-5.243850">
        <ele>2002.0</ele>
        <time>2016-06-11T12:50:38Z</time>
      </trkpt>
      <trkpt lat="40.464067" lon="-5.243800">
        <ele>2001.0</ele>
        <time>2016-06-11T12:50:39Z</time>
      </trkpt>
      <trkpt lat="40.464150" lon="-5.243733">
        <ele>2002.0</ele>
        <time>2016-06-11T12:50:40Z</time>
      </trkpt>
      <trkpt lat="40.464217" lon="-5.243650">
        <ele>2002.0</ele>
        <time>2016-06-11T12:50:41Z</time>
      </trkpt>
      <trkpt lat="40.464283" lon="-5.243567">
        <ele>2002.0</ele>
        <time>2016-06-11T12:50:42Z</time>
      </trkpt>
      <trkpt lat="40.464350" lon="-5.243483">
        <ele>2000.0</ele>
        <time>2016-06-11T12:50:43Z</time>
      </trkpt>
      <trkpt lat="40.464433" lon="-5.243383">
        <ele>1998.0</ele>
        <time>2016-06-11T12:50:44Z</time>
      </trkpt>
      <trkpt lat="40.464500" lon="-5.243250">
        <ele>1997.0</ele>
        <time>2016-06-11T12:50:45Z</time>
      </trkpt>
      <trkpt lat="40.464583" lon="-5.243117">
        <ele>1997.0</ele>
        <time>2016-06-11T12:50:46Z</time>
      </trkpt>
      <trkpt lat="40.464650" lon="-5.243000">
        <ele>1999.0</ele>
        <time>2016-06-11T12:50:47Z</time>
      </trkpt>
      <trkpt lat="40.464717" lon="-5.242883">
        <ele>2001.0</ele>
        <time>2016-06-11T12:50:48Z</time>
      </trkpt>
      <trkpt lat="40.464783" lon="-5.242800">
        <ele>2003.0</ele>
        <time>2016-06-11T12:50:49Z</time>
      </trkpt>
      <trkpt lat="40.464817" lon="-5.242683">
        <ele>2004.0</ele>
        <time>2016-06-11T12:50:50Z</time>
      </trkpt>
      <trkpt lat="40.464867" lon="-5.242567">
        <ele>2004.0</ele>
        <time>2016-06-11T12:50:51Z</time>
      </trkpt>
      <trkpt lat="40.464900" lon="-5.242433">
        <ele>2004.0</ele>
        <time>2016-06-11T12:50:52Z</time>
      </trkpt>
      <trkpt lat="40.464950" lon="-5.242300">
        <ele>2003.0</ele>
        <time>2016-06-11T12:50:53Z</time>
      </trkpt>
      <trkpt lat="40.465000" lon="-5.242183">
        <ele>2003.0</ele>
        <time>2016-06-11T12:50:54Z</time>
      </trkpt>
      <trkpt lat="40.465067" lon="-5.242083">
        <ele>2002.0</ele>
        <time>2016-06-11T12:50:55Z</time>
      </trkpt>
      <trkpt lat="40.465117" lon="-5.242000">
        <ele>2001.0</ele>
        <time>2016-06-11T12:50:56Z</time>
      </trkpt>
      <trkpt lat="40.465183" lon="-5.241900">
        <ele>2000.0</ele>
        <time>2016-06-11T12:50:57Z</time>
      </trkpt>
      <trkpt lat="40.465233" lon="-5.241800">
        <ele>1999.0</ele>
        <time>2016-06-11T12:50:58Z</time>
      </trkpt>
      <trkpt lat="40.465300" lon="-5.241700">
        <ele>1998.0</ele>
        <time>2016-06-11T12:50:59Z</time>
      </trkpt>
      <trkpt lat="40.465367" lon="-5.241617">
        <ele>1997.0</ele>
        <time>2016-06-11T12:51:00Z</time>
      </trkpt>
      <trkpt lat="40.465433" lon="-5.241567">
        <ele>1996.0</ele>
        <time>2016-06-11T12:51:01Z</time>
      </trkpt>
      <trkpt lat="40.465500" lon="-5.241533">
        <ele>1994.0</ele>
        <time>2016-06-11T12:51:02Z</time>
      </trkpt>
      <trkpt lat="40.465550" lon="-5.241533">
        <ele>1990.0</ele>
        <time>2016-06-11T12:51:03Z</time>
      </trkpt>
      <trkpt lat="40.465617" lon="-5.241533">
        <ele>1988.0</ele>
        <time>2016-06-11T12:51:04Z</time>
      </trkpt>
      <trkpt lat="40.465667" lon="-5.241517">
        <ele>1985.0</ele>
        <time>2016-06-11T12:51:05Z</time>
      </trkpt>
      <trkpt lat="40.465733" lon="-5.241483">
        <ele>1983.0</ele>
        <time>2016-06-11T12:51:06Z</time>
      </trkpt>
      <trkpt lat="40.465783" lon="-5.241450">
        <ele>1980.0</ele>
        <time>2016-06-11T12:51:07Z</time>
      </trkpt>
      <trkpt lat="40.465867" lon="-5.241383">
        <ele>1977.0</ele>
        <time>2016-06-11T12:51:08Z</time>
      </trkpt>
      <trkpt lat="40.465933" lon="-5.241350">
        <ele>1974.0</ele>
        <time>2016-06-11T12:51:09Z</time>
      </trkpt>
      <trkpt lat="40.466000" lon="-5.241300">
        <ele>1971.0</ele>
        <time>2016-06-11T12:51:10Z</time>
      </trkpt>
      <trkpt lat="40.466083" lon="-5.241267">
        <ele>1969.0</ele>
        <time>2016-06-11T12:51:11Z</time>
      </trkpt>
      <trkpt lat="40.466150" lon="-5.241233">
        <ele>1967.0</ele>
        <time>2016-06-11T12:51:12Z</time>
      </trkpt>
      <trkpt lat="40.466233" lon="-5.241183">
        <ele>1964.0</ele>
        <time>2016-06-11T12:51:13Z</time>
      </trkpt>
      <trkpt lat="40.466333" lon="-5.241133">
        <ele>1961.0</ele>
        <time>2016-06-11T12:51:14Z</time>
      </trkpt>
      <trkpt lat="40.466417" lon="-5.241083">
        <ele>1959.0</ele>
        <time>2016-06-11T12:51:15Z</time>
      </trkpt>
      <trkpt lat="40.466500" lon="-5.241033">
        <ele>1957.0</ele>
        <time>2016-06-11T12:51:16Z</time>
      </trkpt>
      <trkpt lat="40.466600" lon="-5.240983">
        <ele>1955.0</ele>
        <time>2016-06-11T12:51:17Z</time>
      </trkpt>
      <trkpt lat="40.466683" lon="-5.240950">
        <ele>1953.0</ele>
        <time>2016-06-11T12:51:18Z</time>
      </trkpt>
      <trkpt lat="40.466767" lon="-5.240900">
        <ele>1951.0</ele>
        <time>2016-06-11T12:51:19Z</time>
      </trkpt>
      <trkpt lat="40.466850" lon="-5.240833">
        <ele>1948.0</ele>
        <time>2016-06-11T12:51:20Z</time>
      </trkpt>
      <trkpt lat="40.466950" lon="-5.240783">
        <ele>1945.0</ele>
        <time>2016-06-11T12:51:21Z</time>
      </trkpt>
      <trkpt lat="40.467033" lon="-5.240733">
        <ele>1943.0</ele>
        <time>2016-06-11T12:51:22Z</time>
      </trkpt>
      <trkpt lat="40.467133" lon="-5.240683">
        <ele>1942.0</ele>
        <time>2016-06-11T12:51:23Z</time>
      </trkpt>
      <trkpt lat="40.467217" lon="-5.240650">
        <ele>1941.0</ele>
        <time>2016-06-11T12:51:24Z</time>
      </trkpt>
      <trkpt lat="40.467300" lon="-5.240617">
        <ele>1940.0</ele>
        <time>2016-06-11T12:51:25Z</time>
      </trkpt>
      <trkpt lat="40.467383" lon="-5.240583">
        <ele>1939.0</ele>
        <time>2016-06-11T12:51:26Z</time>
      </trkpt>
      <trkpt lat="40.467467" lon="-5.240533">
        <ele>1937.0</ele>
        <time>2016-06-11T12:51:27Z</time>
      </trkpt>
      <trkpt lat="40.467533" lon="-5.240483">
        <ele>1935.0</ele>
        <time>2016-06-11T12:51:28Z</time>
      </trkpt>
      <trkpt lat="40.467633" lon="-5.240417">
        <ele>1933.0</ele>
        <time>2016-06-11T12:51:29Z</time>
      </trkpt>
      <trkpt lat="40.467717" lon="-5.240333">
        <ele>1931.0</ele>
        <time>2016-06-11T12:51:30Z</time>
      </trkpt>
      <trkpt lat="40.467800" lon="-5.240250">
        <ele>1929.0</ele>
        <time>2016-06-11T12:51:31Z</time>
      </trkpt>
      <trkpt lat="40.467883" lon="-5.240167">
        <ele>1926.0</ele>
        <time>2016-06-11T12:51:32Z</time>
      </trkpt>
      <trkpt lat="40.467983" lon="-5.240100">
        <ele>1924.0</ele>
        <time>2016-06-11T12:51:33Z</time>
      </trkpt>
      <trkpt lat="40.468067" lon="-5.240017">
        <ele>1921.0</ele>
        <time>2016-06-11T12:51:34Z</time>
      </trkpt>
      <trkpt lat="40.468167" lon="-5.239950">
        <ele>1919.0</ele>
        <time>2016-06-11T12:51:35Z</time>
      </trkpt>
      <trkpt lat="40.468250" lon="-5.239883">
        <ele>1917.0</ele>
        <time>2016-06-11T12:51:36Z</time>
      </trkpt>
      <trkpt lat="40.468333" lon="-5.239817">
        <ele>1915.0</ele>
        <time>2016-06-11T12:51:37Z</time>
      </trkpt>
      <trkpt lat="40.468433" lon="-5.239750">
        <ele>1912.0</ele>
        <time>2016-06-11T12:51:38Z</time>
      </trkpt>
      <trkpt lat="40.468517" lon="-5.239683">
        <ele>1910.0</ele>
        <time>2016-06-11T12:51:39Z</time>
      </trkpt>
      <trkpt lat="40.468600" lon="-5.239617">
        <ele>1906.0</ele>
        <time>2016-06-11T12:51:40Z</time>
      </trkpt>
      <trkpt lat="40.468700" lon="-5.239517">
        <ele>1904.0</ele>
        <time>2016-06-11T12:51:41Z</time>
      </trkpt>
      <trkpt lat="40.468817" lon="-5.239433">
        <ele>1902.0</ele>
        <time>2016-06-11T12:51:42Z</time>
      </trkpt>
      <trkpt lat="40.468917" lon="-5.239350">
        <ele>1903.0</ele>
        <time>2016-06-11T12:51:43Z</time>
      </trkpt>
      <trkpt lat="40.469017" lon="-5.239283">
        <ele>1903.0</ele>
        <time>2016-06-11T12:51:44Z</time>
      </trkpt>
      <trkpt lat="40.469100" lon="-5.239200">
        <ele>1904.0</ele>
        <time>2016-06-11T12:51:45Z</time>
      </trkpt>
      <trkpt lat="40.469183" lon="-5.239133">
        <ele>1902.0</ele>
        <time>2016-06-11T12:51:46Z</time>
      </trkpt>
      <trkpt lat="40.469283" lon="-5.239083">
        <ele>1900.0</ele>
        <time>2016-06-11T12:51:47Z</time>
      </trkpt>
      <trkpt lat="40.469400" lon="-5.239033">
        <ele>1898.0</ele>
        <time>2016-06-11T12:51:48Z</time>
      </trkpt>
      <trkpt lat="40.469517" lon="-5.238983">
        <ele>1897.0</ele>
        <time>2016-06-11T12:51:49Z</time>
      </trkpt>
      <trkpt lat="40.469617" lon="-5.238933">
        <ele>1896.0</ele>
        <time>2016-06-11T12:51:50Z</time>
      </trkpt>
      <trkpt lat="40.469733" lon="-5.238883">
        <ele>1897.0</ele>
        <time>2016-06-11T12:51:51Z</time>
      </trkpt>
      <trkpt lat="40.469833" lon="-5.238850">
        <ele>1897.0</ele>
        <time>2016-06-11T12:51:52Z</time>
      </trkpt>
      <trkpt lat="40.469933" lon="-5.238817">
        <ele>1897.0</ele>
        <time>2016-06-11T12:51:53Z</time>
      </trkpt>
      <trkpt lat="40.470033" lon="-5.238783">
        <ele>1897.0</ele>
        <time>2016-06-11T12:51:54Z</time>
      </trkpt>
      <trkpt lat="40.470117" lon="-5.238733">
        <ele>1897.0</ele>
        <time>2016-06-11T12:51:55Z</time>
      </trkpt>
      <trkpt lat="40.470217" lon="-5.238700">
        <ele>1896.0</ele>
        <time>2016-06-11T12:51:56Z</time>
      </trkpt>
      <trkpt lat="40.470333" lon="-5.238650">
        <ele>1895.0</ele>
        <time>2016-06-11T12:51:57Z</time>
      </trkpt>
      <trkpt lat="40.470433" lon="-5.238617">
        <ele>1894.0</ele>
        <time>2016-06-11T12:51:58Z</time>
      </trkpt>
      <trkpt lat="40.470550" lon="-5.238600">
        <ele>1894.0</ele>
        <time>2016-06-11T12:51:59Z</time>
      </trkpt>
      <trkpt lat="40.470650" lon="-5.238583">
        <ele>1894.0</ele>
        <time>2016-06-11T12:52:00Z</time>
      </trkpt>
      <trkpt lat="40.470750" lon="-5.238567">
        <ele>1895.0</ele>
        <time>2016-06-11T12:52:01Z</time>
      </trkpt>
      <trkpt lat="40.470850" lon="-5.238533">
        <ele>1895.0</ele>
        <time>2016-06-11T12:52:02Z</time>
      </trkpt>
      <trkpt lat="40.470950" lon="-5.238517">
        <ele>1896.0</ele>
        <time>2016-06-11T12:52:03Z</time>
      </trkpt>
      <trkpt lat="40.471050" lon="-5.238483">
        <ele>1895.0</ele>
        <time>2016-06-11T12:52:04Z</time>
      </trkpt>
      <trkpt lat="40.471133" lon="-5.238450">
        <ele>1894.0</ele>
        <time>2016-06-11T12:52:05Z</time>
      </trkpt>
      <trkpt lat="40.471233" lon="-5.238433">
        <ele>1894.0</ele>
        <time>2016-06-11T12:52:06Z</time>
      </trkpt>
      <trkpt lat="40.471333" lon="-5.238417">
        <ele>1893.0</ele>
        <time>2016-06-11T12:52:07Z</time>
      </trkpt>
      <trkpt lat="40.471417" lon="-5.238400">
        <ele>1893.0</ele>
        <time>2016-06-11T12:52:08Z</time>
      </trkpt>
      <trkpt lat="40.471517" lon="-5.238350">
        <ele>1893.0</ele>
        <time>2016-06-11T12:52:09Z</time>
      </trkpt>
      <trkpt lat="40.471600" lon="-5.238283">
        <ele>1892.0</ele>
        <time>2016-06-11T12:52:10Z</time>
      </trkpt>
      <trkpt lat="40.471700" lon="-5.238250">
        <ele>1891.0</ele>
        <time>2016-06-11T12:52:11Z</time>
      </trkpt>
      <trkpt lat="40.471800" lon="-5.238200">
        <ele>1889.0</ele>
        <time>2016-06-11T12:52:12Z</time>
      </trkpt>
      <trkpt lat="40.471900" lon="-5.238167">
        <ele>1889.0</ele>
        <time>2016-06-11T12:52:13Z</time>
      </trkpt>
      <trkpt lat="40.472000" lon="-5.238117">
        <ele>1888.0</ele>
        <time>2016-06-11T12:52:14Z</time>
      </trkpt>
      <trkpt lat="40.472083" lon="-5.238033">
        <ele>1887.0</ele>
        <time>2016-06-11T12:52:15Z</time>
      </trkpt>
      <trkpt lat="40.472167" lon="-5.237967">
        <ele>1885.0</ele>
        <time>2016-06-11T12:52:16Z</time>
      </trkpt>
      <trkpt lat="40.472250" lon="-5.237917">
        <ele>1883.0</ele>
        <time>2016-06-11T12:52:17Z</time>
      </trkpt>
      <trkpt lat="40.472333" lon="-5.237867">
        <ele>1879.0</ele>
        <time>2016-06-11T12:52:18Z</time>
      </trkpt>
      <trkpt lat="40.472417" lon="-5.237817">
        <ele>1874.0</ele>
        <time>2016-06-11T12:52:19Z</time>
      </trkpt>
      <trkpt lat="40.472517" lon="-5.237750">
        <ele>1871.0</ele>
        <time>2016-06-11T12:52:20Z</time>
      </trkpt>
      <trkpt lat="40.472617" lon="-5.237667">
        <ele>1867.0</ele>
        <time>2016-06-11T12:52:21Z</time>
      </trkpt>
      <trkpt lat="40.472700" lon="-5.237550">
        <ele>1864.0</ele>
        <time>2016-06-11T12:52:22Z</time>
      </trkpt>
      <trkpt lat="40.472783" lon="-5.237433">
        <ele>1862.0</ele>
        <time>2016-06-11T12:52:23Z</time>
      </trkpt>
      <trkpt lat="40.472867" lon="-5.237317">
        <ele>1859.0</ele>
        <time>2016-06-11T12:52:24Z</time>
      </trkpt>
      <trkpt lat="40.472967" lon="-5.237183">
        <ele>1856.0</ele>
        <time>2016-06-11T12:52:25Z</time>
      </trkpt>
      <trkpt lat="40.473050" lon="-5.237050">
        <ele>1853.0</ele>
        <time>2016-06-11T12:52:26Z</time>
      </trkpt>
      <trkpt lat="40.473117" lon="-5.236900">
        <ele>1850.0</ele>
        <time>2016-06-11T12:52:27Z</time>
      </trkpt>
      <trkpt lat="40.473200" lon="-5.236733">
        <ele>1848.0</ele>
        <time>2016-06-11T12:52:28Z</time>
      </trkpt>
      <trkpt lat="40.473267" lon="-5.236567">
        <ele>1847.0</ele>
        <time>2016-06-11T12:52:29Z</time>
      </trkpt>
      <trkpt lat="40.473333" lon="-5.236383">
        <ele>1846.0</ele>
        <time>2016-06-11T12:52:30Z</time>
      </trkpt>
      <trkpt lat="40.473383" lon="-5.236217">
        <ele>1845.0</ele>
        <time>2016-06-11T12:52:31Z</time>
      </trkpt>
      <trkpt lat="40.473450" lon="-5.236050">
        <ele>1844.0</ele>
        <time>2016-06-11T12:52:32Z</time>
      </trkpt>
      <trkpt lat="40.473483" lon="-5.235883">
        <ele>1842.0</ele>
        <time>2016-06-11T12:52:33Z</time>
      </trkpt>
      <trkpt lat="40.473533" lon="-5.235700">
        <ele>1839.0</ele>
        <time>2016-06-11T12:52:34Z</time>
      </trkpt>
      <trkpt lat="40.473583" lon="-5.235517">
        <ele>1836.0</ele>
        <time>2016-06-11T12:52:35Z</time>
      </trkpt>
      <trkpt lat="40.473650" lon="-5.235333">
        <ele>1834.0</ele>
        <time>2016-06-11T12:52:36Z</time>
      </trkpt>
      <trkpt lat="40.473700" lon="-5.235150">
        <ele>1834.0</ele>
        <time>2016-06-11T12:52:37Z</time>
      </trkpt>
      <trkpt lat="40.473733" lon="-5.234967">
        <ele>1834.0</ele>
        <time>2016-06-11T12:52:38Z</time>
      </trkpt>
      <trkpt lat="40.473767" lon="-5.234800">
        <ele>1833.0</ele>
        <time>2016-06-11T12:52:39Z</time>
      </trkpt>
      <trkpt lat="40.473800" lon="-5.234617">
        <ele>1832.0</ele>
        <time>2016-06-11T12:52:40Z</time>
      </trkpt>
      <trkpt lat="40.473850" lon="-5.234433">
        <ele>1830.0</ele>
        <time>2016-06-11T12:52:41Z</time>
      </trkpt>
      <trkpt lat="40.473883" lon="-5.234250">
        <ele>1828.0</ele>
        <time>2016-06-11T12:52:42Z</time>
      </trkpt>
      <trkpt lat="40.473933" lon="-5.234050">
        <ele>1826.0</ele>
        <time>2016-06-11T12:52:43Z</time>
      </trkpt>
      <trkpt lat="40.473967" lon="-5.233867">
        <ele>1824.0</ele>
        <time>2016-06-11T12:52:44Z</time>
      </trkpt>
      <trkpt lat="40.474000" lon="-5.233683">
        <ele>1823.0</ele>
        <time>2016-06-11T12:52:45Z</time>
      </trkpt>
      <trkpt lat="40.474033" lon="-5.233500">
        <ele>1821.0</ele>
        <time>2016-06-11T12:52:46Z</time>
      </trkpt>
      <trkpt lat="40.474067" lon="-5.233317">
        <ele>1818.0</ele>
        <time>2016-06-11T12:52:47Z</time>
      </trkpt>
      <trkpt lat="40.474117" lon="-5.233133">
        <ele>1816.0</ele>
        <time>2016-06-11T12:52:48Z</time>
      </trkpt>
      <trkpt lat="40.474150" lon="-5.232950">
        <ele>1814.0</ele>
        <time>2016-06-11T12:52:49Z</time>
      </trkpt>
      <trkpt lat="40.474183" lon="-5.232750">
        <ele>1813.0</ele>
        <time>2016-06-11T12:52:50Z</time>
      </trkpt>
      <trkpt lat="40.474233" lon="-5.232583">
        <ele>1813.0</ele>
        <time>2016-06-11T12:52:51Z</time>
      </trkpt>
      <trkpt lat="40.474300" lon="-5.232400">
        <ele>1815.0</ele>
        <time>2016-06-11T12:52:52Z</time>
      </trkpt>
      <trkpt lat="40.474350" lon="-5.232250">
        <ele>1819.0</ele>
        <time>2016-06-11T12:52:53Z</time>
      </trkpt>
      <trkpt lat="40.474400" lon="-5.232133">
        <ele>1823.0</ele>
        <time>2016-06-11T12:52:54Z</time>
      </trkpt>
      <trkpt lat="40.474467" lon="-5.232033">
        <ele>1825.0</ele>
        <time>2016-06-11T12:52:55Z</time>
      </trkpt>
      <trkpt lat="40.474533" lon="-5.231917">
        <ele>1826.0</ele>
        <time>2016-06-11T12:52:56Z</time>
      </trkpt>
      <trkpt lat="40.474600" lon="-5.231800">
        <ele>1827.0</ele>
        <time>2016-06-11T12:52:57Z</time>
      </trkpt>
      <trkpt lat="40.474683" lon="-5.231667">
        <ele>1829.0</ele>
        <time>2016-06-11T12:52:58Z</time>
      </trkpt>
      <trkpt lat="40.474767" lon="-5.231517">
        <ele>1833.0</ele>
        <time>2016-06-11T12:52:59Z</time>
      </trkpt>
      <trkpt lat="40.474817" lon="-5.231400">
        <ele>1838.0</ele>
        <time>2016-06-11T12:53:00Z</time>
      </trkpt>
      <trkpt lat="40.474833" lon="-5.231300">
        <ele>1842.0</ele>
        <time>2016-06-11T12:53:01Z</time>
      </trkpt>
      <trkpt lat="40.474867" lon="-5.231200">
        <ele>1843.0</ele>
        <time>2016-06-11T12:53:02Z</time>
      </trkpt>
      <trkpt lat="40.474900" lon="-5.231100">
        <ele>1843.0</ele>
        <time>2016-06-11T12:53:03Z</time>
      </trkpt>
      <trkpt lat="40.474967" lon="-5.231000">
        <ele>1841.0</ele>
        <time>2016-06-11T12:53:04Z</time>
      </trkpt>
      <trkpt lat="40.475050" lon="-5.230950">
        <ele>1840.0</ele>
        <time>2016-06-11T12:53:05Z</time>
      </trkpt>
      <trkpt lat="40.475133" lon="-5.230933">
        <ele>1841.0</ele>
        <time>2016-06-11T12:53:06Z</time>
      </trkpt>
      <trkpt lat="40.475183" lon="-5.230950">
        <ele>1844.0</ele>
        <time>2016-06-11T12:53:07Z</time>
      </trkpt>
      <trkpt lat="40.475217" lon="-5.231000">
        <ele>1847.0</ele>
        <time>2016-06-11T12:53:08Z</time>
      </trkpt>
      <trkpt lat="40.475250" lon="-5.231033">
        <ele>1851.0</ele>
        <time>2016-06-11T12:53:09Z</time>
      </trkpt>
      <trkpt lat="40.475267" lon="-5.231050">
        <ele>1854.0</ele>
        <time>2016-06-11T12:53:10Z</time>
      </trkpt>
      <trkpt lat="40.475283" lon="-5.231083">
        <ele>1855.0</ele>
        <time>2016-06-11T12:53:11Z</time>
      </trkpt>
      <trkpt lat="40.475300" lon="-5.231100">
        <ele>1856.0</ele>
        <time>2016-06-11T12:53:12Z</time>
      </trkpt>
      <trkpt lat="40.475317" lon="-5.231150">
        <ele>1857.0</ele>
        <time>2016-06-11T12:53:13Z</time>
      </trkpt>
      <trkpt lat="40.475317" lon="-5.231217">
        <ele>1858.0</ele>
        <time>2016-06-11T12:53:14Z</time>
      </trkpt>
      <trkpt lat="40.475300" lon="-5.231267">
        <ele>1859.0</ele>
        <time>2016-06-11T12:53:15Z</time>
      </trkpt>
      <trkpt lat="40.475283" lon="-5.231317">
        <ele>1861.0</ele>
        <time>2016-06-11T12:53:16Z</time>
      </trkpt>
      <trkpt lat="40.475233" lon="-5.231367">
        <ele>1864.0</ele>
        <time>2016-06-11T12:53:17Z</time>
      </trkpt>
      <trkpt lat="40.475183" lon="-5.231383">
        <ele>1866.0</ele>
        <time>2016-06-11T12:53:18Z</time>
      </trkpt>
      <trkpt lat="40.475133" lon="-5.231383">
        <ele>1868.0</ele>
        <time>2016-06-11T12:53:19Z</time>
      </trkpt>
      <trkpt lat="40.475067" lon="-5.231400">
        <ele>1869.0</ele>
        <time>2016-06-11T12:53:20Z</time>
      </trkpt>
      <trkpt lat="40.475017" lon="-5.231417">
        <ele>1871.0</ele>
        <time>2016-06-11T12:53:21Z</time>
      </trkpt>
      <trkpt lat="40.474967" lon="-5.231433">
        <ele>1873.0</ele>
        <time>2016-06-11T12:53:22Z</time>
      </trkpt>
      <trkpt lat="40.474933" lon="-5.231417">
        <ele>1876.0</ele>
        <time>2016-06-11T12:53:23Z</time>
      </trkpt>
      <trkpt lat="40.474883" lon="-5.231400">
        <ele>1877.0</ele>
        <time>2016-06-11T12:53:24Z</time>
      </trkpt>
      <trkpt lat="40.474833" lon="-5.231367">
        <ele>1880.0</ele>
        <time>2016-06-11T12:53:25Z</time>
      </trkpt>
      <trkpt lat="40.474800" lon="-5.231350">
        <ele>1883.0</ele>
        <time>2016-06-11T12:53:26Z</time>
      </trkpt>
      <trkpt lat="40.474767" lon="-5.231333">
        <ele>1886.0</ele>
        <time>2016-06-11T12:53:27Z</time>
      </trkpt>
      <trkpt lat="40.474733" lon="-5.231317">
        <ele>1889.0</ele>
        <time>2016-06-11T12:53:28Z</time>
      </trkpt>
      <trkpt lat="40.474683" lon="-5.231267">
        <ele>1890.0</ele>
        <time>2016-06-11T12:53:29Z</time>
      </trkpt>
      <trkpt lat="40.474633" lon="-5.231200">
        <ele>1892.0</ele>
        <time>2016-06-11T12:53:30Z</time>
      </trkpt>
      <trkpt lat="40.474583" lon="-5.231133">
        <ele>1894.0</ele>
        <time>2016-06-11T12:53:31Z</time>
      </trkpt>
      <trkpt lat="40.474550" lon="-5.231033">
        <ele>1895.0</ele>
        <time>2016-06-11T12:53:32Z</time>
      </trkpt>
      <trkpt lat="40.474533" lon="-5.230933">
        <ele>1895.0</ele>
        <time>2016-06-11T12:53:33Z</time>
      </trkpt>
      <trkpt lat="40.474533" lon="-5.230783">
        <ele>1895.0</ele>
        <time>2016-06-11T12:53:34Z</time>
      </trkpt>
      <trkpt lat="40.474533" lon="-5.230633">
        <ele>1894.0</ele>
        <time>2016-06-11T12:53:35Z</time>
      </trkpt>
      <trkpt lat="40.474583" lon="-5.230467">
        <ele>1895.0</ele>
        <time>2016-06-11T12:53:36Z</time>
      </trkpt>
      <trkpt lat="40.474650" lon="-5.230317">
        <ele>1896.0</ele>
        <time>2016-06-11T12:53:37Z</time>
      </trkpt>
      <trkpt lat="40.474733" lon="-5.230183">
        <ele>1897.0</ele>
        <time>2016-06-11T12:53:38Z</time>
      </trkpt>
      <trkpt lat="40.474817" lon="-5.230067">
        <ele>1898.0</ele>
        <time>2016-06-11T12:53:39Z</time>
      </trkpt>
      <trkpt lat="40.474900" lon="-5.229950">
        <ele>1900.0</ele>
        <time>2016-06-11T12:53:40Z</time>
      </trkpt>
      <trkpt lat="40.474983" lon="-5.229817">
        <ele>1903.0</ele>
        <time>2016-06-11T12:53:41Z</time>
      </trkpt>
      <trkpt lat="40.475067" lon="-5.229700">
        <ele>1906.0</ele>
        <time>2016-06-11T12:53:42Z</time>
      </trkpt>
      <trkpt lat="40.475133" lon="-5.229600">
        <ele>1907.0</ele>
        <time>2016-06-11T12:53:43Z</time>
      </trkpt>
      <trkpt lat="40.475200" lon="-5.229550">
        <ele>1908.0</ele>
        <time>2016-06-11T12:53:44Z</time>
      </trkpt>
      <trkpt lat="40.475250" lon="-5.229533">
        <ele>1909.0</ele>
        <time>2016-06-11T12:53:45Z</time>
      </trkpt>
      <trkpt lat="40.475333" lon="-5.229500">
        <ele>1910.0</ele>
        <time>2016-06-11T12:53:46Z</time>
      </trkpt>
      <trkpt lat="40.475400" lon="-5.229467">
        <ele>1911.0</ele>
        <time>2016-06-11T12:53:47Z</time>
      </trkpt>
      <trkpt lat="40.475467" lon="-5.229433">
        <ele>1912.0</ele>
        <time>2016-06-11T12:53:48Z</time>
      </trkpt>
      <trkpt lat="40.475550" lon="-5.229433">
        <ele>1912.0</ele>
        <time>2016-06-11T12:53:49Z</time>
      </trkpt>
      <trkpt lat="40.475600" lon="-5.229450">
        <ele>1912.0</ele>
        <time>2016-06-11T12:53:50Z</time>
      </trkpt>
      <trkpt lat="40.475650" lon="-5.229500">
        <ele>1913.0</ele>
        <time>2016-06-11T12:53:51Z</time>
      </trkpt>
      <trkpt lat="40.475683" lon="-5.229533">
        <ele>1914.0</ele>
        <time>2016-06-11T12:53:52Z</time>
      </trkpt>
      <trkpt lat="40.475700" lon="-5.229583">
        <ele>1917.0</ele>
        <time>2016-06-11T12:53:53Z</time>
      </trkpt>
      <trkpt lat="40.475700" lon="-5.229600">
        <ele>1920.0</ele>
        <time>2016-06-11T12:53:54Z</time>
      </trkpt>
      <trkpt lat="40.475700" lon="-5.229600">
        <ele>1922.0</ele>
        <time>2016-06-11T12:53:55Z</time>
      </trkpt>
      <trkpt lat="40.475717" lon="-5.229617">
        <ele>1923.0</ele>
        <time>2016-06-11T12:53:56Z</time>
      </trkpt>
      <trkpt lat="40.475733" lon="-5.229633">
        <ele>1923.0</ele>
        <time>2016-06-11T12:53:57Z</time>
      </trkpt>
      <trkpt lat="40.475750" lon="-5.229650">
        <ele>1922.0</ele>
        <time>2016-06-11T12:53:58Z</time>
      </trkpt>
      <trkpt lat="40.475750" lon="-5.229683">
        <ele>1922.0</ele>
        <time>2016-06-11T12:53:59Z</time>
      </trkpt>
      <trkpt lat="40.475750" lon="-5.229717">
        <ele>1922.0</ele>
        <time>2016-06-11T12:54:00Z</time>
      </trkpt>
      <trkpt lat="40.475717" lon="-5.229750">
        <ele>1921.0</ele>
        <time>2016-06-11T12:54:01Z</time>
      </trkpt>
      <trkpt lat="40.475683" lon="-5.229767">
        <ele>1921.0</ele>
        <time>2016-06-11T12:54:02Z</time>
      </trkpt>
      <trkpt lat="40.475633" lon="-5.229767">
        <ele>1920.0</ele>
        <time>2016-06-11T12:54:03Z</time>
      </trkpt>
      <trkpt lat="40.475567" lon="-5.229750">
        <ele>1920.0</ele>
        <time>2016-06-11T12:54:04Z</time>
      </trkpt>
      <trkpt lat="40.475483" lon="-5.229700">
        <ele>1920.0</ele>
        <time>2016-06-11T12:54:05Z</time>
      </trkpt>
      <trkpt lat="40.475417" lon="-5.229650">
        <ele>1921.0</ele>
        <time>2016-06-11T12:54:06Z</time>
      </trkpt>
      <trkpt lat="40.475350" lon="-5.229583">
        <ele>1923.0</ele>
        <time>2016-06-11T12:54:07Z</time>
      </trkpt>
      <trkpt lat="40.475283" lon="-5.229533">
        <ele>1922.0</ele>
        <time>2016-06-11T12:54:08Z</time>
      </trkpt>
      <trkpt lat="40.475217" lon="-5.229467">
        <ele>1922.0</ele>
        <time>2016-06-11T12:54:09Z</time>
      </trkpt>
      <trkpt lat="40.475133" lon="-5.229400">
        <ele>1921.0</ele>
        <time>2016-06-11T12:54:10Z</time>
      </trkpt>
      <trkpt lat="40.475050" lon="-5.229300">
        <ele>1922.0</ele>
        <time>2016-06-11T12:54:11Z</time>
      </trkpt>
      <trkpt lat="40.474983" lon="-5.229200">
        <ele>1925.0</ele>
        <time>2016-06-11T12:54:12Z</time>
      </trkpt>
      <trkpt lat="40.474917" lon="-5.229100">
        <ele>1928.0</ele>
        <time>2016-06-11T12:54:13Z</time>
      </trkpt>
      <trkpt lat="40.474867" lon="-5.229000">
        <ele>1930.0</ele>
        <time>2016-06-11T12:54:14Z</time>
      </trkpt>
      <trkpt lat="40.474817" lon="-5.228917">
        <ele>1931.0</ele>
        <time>2016-06-11T12:54:15Z</time>
      </trkpt>
      <trkpt lat="40.474767" lon="-5.228833">
        <ele>1932.0</ele>
        <time>2016-06-11T12:54:16Z</time>
      </trkpt>
      <trkpt lat="40.474700" lon="-5.228733">
        <ele>1931.0</ele>
        <time>2016-06-11T12:54:17Z</time>
      </trkpt>
      <trkpt lat="40.474650" lon="-5.228600">
        <ele>1930.0</ele>
        <time>2016-06-11T12:54:18Z</time>
      </trkpt>
      <trkpt lat="40.474617" lon="-5.228483">
        <ele>1930.0</ele>
        <time>2016-06-11T12:54:19Z</time>
      </trkpt>
      <trkpt lat="40.474567" lon="-5.228350">
        <ele>1929.0</ele>
        <time>2016-06-11T12:54:20Z</time>
      </trkpt>
      <trkpt lat="40.474517" lon="-5.228233">
        <ele>1928.0</ele>
        <time>2016-06-11T12:54:21Z</time>
      </trkpt>
      <trkpt lat="40.474483" lon="-5.228133">
        <ele>1926.0</ele>
        <time>2016-06-11T12:54:22Z</time>
      </trkpt>
      <trkpt lat="40.474433" lon="-5.228017">
        <ele>1925.0</ele>
        <time>2016-06-11T12:54:23Z</time>
      </trkpt>
      <trkpt lat="40.474400" lon="-5.227867">
        <ele>1923.0</ele>
        <time>2016-06-11T12:54:24Z</time>
      </trkpt>
      <trkpt lat="40.474383" lon="-5.227700">
        <ele>1921.0</ele>
        <time>2016-06-11T12:54:25Z</time>
      </trkpt>
      <trkpt lat="40.474367" lon="-5.227500">
        <ele>1921.0</ele>
        <time>2016-06-11T12:54:26Z</time>
      </trkpt>
      <trkpt lat="40.474367" lon="-5.227333">
        <ele>1921.0</ele>
        <time>2016-06-11T12:54:27Z</time>
      </trkpt>
      <trkpt lat="40.474383" lon="-5.227150">
        <ele>1922.0</ele>
        <time>2016-06-11T12:54:28Z</time>
      </trkpt>
      <trkpt lat="40.474383" lon="-5.226983">
        <ele>1923.0</ele>
        <time>2016-06-11T12:54:29Z</time>
      </trkpt>
      <trkpt lat="40.474400" lon="-5.226817">
        <ele>1923.0</ele>
        <time>2016-06-11T12:54:30Z</time>
      </trkpt>
      <trkpt lat="40.474400" lon="-5.226633">
        <ele>1924.0</ele>
        <time>2016-06-11T12:54:31Z</time>
      </trkpt>
      <trkpt lat="40.474400" lon="-5.226450">
        <ele>1925.0</ele>
        <time>2016-06-11T12:54:32Z</time>
      </trkpt>
      <trkpt lat="40.474417" lon="-5.226283">
        <ele>1927.0</ele>
        <time>2016-06-11T12:54:33Z</time>
      </trkpt>
      <trkpt lat="40.474433" lon="-5.226133">
        <ele>1929.0</ele>
        <time>2016-06-11T12:54:34Z</time>
      </trkpt>
      <trkpt lat="40.474467" lon="-5.226000">
        <ele>1930.0</ele>
        <time>2016-06-11T12:54:35Z</time>
      </trkpt>
      <trkpt lat="40.474517" lon="-5.225867">
        <ele>1930.0</ele>
        <time>2016-06-11T12:54:36Z</time>
      </trkpt>
      <trkpt lat="40.474550" lon="-5.225733">
        <ele>1930.0</ele>
        <time>2016-06-11T12:54:37Z</time>
      </trkpt>
      <trkpt lat="40.474600" lon="-5.225617">
        <ele>1931.0</ele>
        <time>2016-06-11T12:54:38Z</time>
      </trkpt>
      <trkpt lat="40.474633" lon="-5.225533">
        <ele>1931.0</ele>
        <time>2016-06-11T12:54:39Z</time>
      </trkpt>
      <trkpt lat="40.474683" lon="-5.225450">
        <ele>1931.0</ele>
        <time>2016-06-11T12:54:40Z</time>
      </trkpt>
      <trkpt lat="40.474733" lon="-5.225383">
        <ele>1929.0</ele>
        <time>2016-06-11T12:54:41Z</time>
      </trkpt>
      <trkpt lat="40.474767" lon="-5.225300">
        <ele>1928.0</ele>
        <time>2016-06-11T12:54:42Z</time>
      </trkpt>
      <trkpt lat="40.474817" lon="-5.225217">
        <ele>1927.0</ele>
        <time>2016-06-11T12:54:43Z</time>
      </trkpt>
      <trkpt lat="40.474850" lon="-5.225167">
        <ele>1927.0</ele>
        <time>2016-06-11T12:54:44Z</time>
      </trkpt>
      <trkpt lat="40.474883" lon="-5.225117">
        <ele>1925.0</ele>
        <time>2016-06-11T12:54:45Z</time>
      </trkpt>
      <trkpt lat="40.474917" lon="-5.225117">
        <ele>1923.0</ele>
        <time>2016-06-11T12:54:46Z</time>
      </trkpt>
      <trkpt lat="40.474950" lon="-5.225133">
        <ele>1920.0</ele>
        <time>2016-06-11T12:54:47Z</time>
      </trkpt>
      <trkpt lat="40.474967" lon="-5.225183">
        <ele>1918.0</ele>
        <time>2016-06-11T12:54:48Z</time>
      </trkpt>
      <trkpt lat="40.474967" lon="-5.225233">
        <ele>1917.0</ele>
        <time>2016-06-11T12:54:49Z</time>
      </trkpt>
      <trkpt lat="40.474967" lon="-5.225283">
        <ele>1918.0</ele>
        <time>2016-06-11T12:54:50Z</time>
      </trkpt>
      <trkpt lat="40.474950" lon="-5.225317">
        <ele>1918.0</ele>
        <time>2016-06-11T12:54:51Z</time>
      </trkpt>
      <trkpt lat="40.474950" lon="-5.225333">
        <ele>1918.0</ele>
        <time>2016-06-11T12:54:52Z</time>
      </trkpt>
      <trkpt lat="40.474933" lon="-5.225333">
        <ele>1916.0</ele>
        <time>2016-06-11T12:54:53Z</time>
      </trkpt>
      <trkpt lat="40.474917" lon="-5.225367">
        <ele>1914.0</ele>
        <time>2016-06-11T12:54:54Z</time>
      </trkpt>
      <trkpt lat="40.474883" lon="-5.225433">
        <ele>1911.0</ele>
        <time>2016-06-11T12:54:55Z</time>
      </trkpt>
      <trkpt lat="40.474850" lon="-5.225483">
        <ele>1909.0</ele>
        <time>2016-06-11T12:54:56Z</time>
      </trkpt>
      <trkpt lat="40.474817" lon="-5.225517">
        <ele>1908.0</ele>
        <time>2016-06-11T12:54:57Z</time>
      </trkpt>
      <trkpt lat="40.474800" lon="-5.225550">
        <ele>1907.0</ele>
        <time>2016-06-11T12:54:58Z</time>
      </trkpt>
      <trkpt lat="40.474817" lon="-5.225583">
        <ele>1906.0</ele>
        <time>2016-06-11T12:54:59Z</time>
      </trkpt>
      <trkpt lat="40.474833" lon="-5.225600">
        <ele>1905.0</ele>
        <time>2016-06-11T12:55:00Z</time>
      </trkpt>
      <trkpt lat="40.474867" lon="-5.225617">
        <ele>1905.0</ele>
        <time>2016-06-11T12:55:01Z</time>
      </trkpt>
      <trkpt lat="40.474900" lon="-5.225617">
        <ele>1905.0</ele>
        <time>2016-06-11T12:55:02Z</time>
      </trkpt>
      <trkpt lat="40.474950" lon="-5.225617">
        <ele>1904.0</ele>
        <time>2016-06-11T12:55:03Z</time>
      </trkpt>
      <trkpt lat="40.475017" lon="-5.225583">
        <ele>1901.0</ele>
        <time>2016-06-11T12:55:04Z</time>
      </trkpt>
      <trkpt lat="40.475083" lon="-5.225567">
        <ele>1898.0</ele>
        <time>2016-06-11T12:55:05Z</time>
      </trkpt>
      <trkpt lat="40.475150" lon="-5.225550">
        <ele>1896.0</ele>
        <time>2016-06-11T12:55:06Z</time>
      </trkpt>
      <trkpt lat="40.475200" lon="-5.225550">
        <ele>1896.0</ele>
        <time>2016-06-11T12:55:07Z</time>
      </trkpt>
      <trkpt lat="40.475250" lon="-5.225533">
        <ele>1895.0</ele>
        <time>2016-06-11T12:55:08Z</time>
      </trkpt>
      <trkpt lat="40.475300" lon="-5.225517">
        <ele>1894.0</ele>
        <time>2016-06-11T12:55:09Z</time>
      </trkpt>
      <trkpt lat="40.475350" lon="-5.225483">
        <ele>1892.0</ele>
        <time>2016-06-11T12:55:10Z</time>
      </trkpt>
      <trkpt lat="40.475417" lon="-5.225450">
        <ele>1889.0</ele>
        <time>2016-06-11T12:55:11Z</time>
      </trkpt>
      <trkpt lat="40.475500" lon="-5.225417">
        <ele>1886.0</ele>
        <time>2016-06-11T12:55:12Z</time>
      </trkpt>
      <trkpt lat="40.475567" lon="-5.225383">
        <ele>1885.0</ele>
        <time>2016-06-11T12:55:13Z</time>
      </trkpt>
      <trkpt lat="40.475633" lon="-5.225333">
        <ele>1884.0</ele>
        <time>2016-06-11T12:55:14Z</time>
      </trkpt>
      <trkpt lat="40.475683" lon="-5.225317">
        <ele>1883.0</ele>
        <time>2016-06-11T12:55:15Z</time>
      </trkpt>
      <trkpt lat="40.475750" lon="-5.225283">
        <ele>1882.0</ele>
        <time>2016-06-11T12:55:16Z</time>
      </trkpt>
      <trkpt lat="40.475800" lon="-5.225250">
        <ele>1881.0</ele>
        <time>2016-06-11T12:55:17Z</time>
      </trkpt>
      <trkpt lat="40.475850" lon="-5.225217">
        <ele>1879.0</ele>
        <time>2016-06-11T12:55:18Z</time>
      </trkpt>
      <trkpt lat="40.475917" lon="-5.225183">
        <ele>1878.0</ele>
        <time>2016-06-11T12:55:19Z</time>
      </trkpt>
      <trkpt lat="40.475967" lon="-5.225150">
        <ele>1877.0</ele>
        <time>2016-06-11T12:55:20Z</time>
      </trkpt>
      <trkpt lat="40.476000" lon="-5.225133">
        <ele>1876.0</ele>
        <time>2016-06-11T12:55:21Z</time>
      </trkpt>
      <trkpt lat="40.476050" lon="-5.225117">
        <ele>1874.0</ele>
        <time>2016-06-11T12:55:22Z</time>
      </trkpt>
      <trkpt lat="40.476100" lon="-5.225117">
        <ele>1872.0</ele>
        <time>2016-06-11T12:55:23Z</time>
      </trkpt>
      <trkpt lat="40.476167" lon="-5.225100">
        <ele>1870.0</ele>
        <time>2016-06-11T12:55:24Z</time>
      </trkpt>
      <trkpt lat="40.476217" lon="-5.225100">
        <ele>1868.0</ele>
        <time>2016-06-11T12:55:25Z</time>
      </trkpt>
      <trkpt lat="40.476283" lon="-5.225083">
        <ele>1867.0</ele>
        <time>2016-06-11T12:55:26Z</time>
      </trkpt>
      <trkpt lat="40.476333" lon="-5.225083">
        <ele>1866.0</ele>
        <time>2016-06-11T12:55:27Z</time>
      </trkpt>
      <trkpt lat="40.476400" lon="-5.225100">
        <ele>1865.0</ele>
        <time>2016-06-11T12:55:28Z</time>
      </trkpt>
      <trkpt lat="40.476450" lon="-5.225100">
        <ele>1864.0</ele>
        <time>2016-06-11T12:55:29Z</time>
      </trkpt>
      <trkpt lat="40.476517" lon="-5.225100">
        <ele>1864.0</ele>
        <time>2016-06-11T12:55:30Z</time>
      </trkpt>
      <trkpt lat="40.476550" lon="-5.225100">
        <ele>1864.0</ele>
        <time>2016-06-11T12:55:31Z</time>
      </trkpt>
      <trkpt lat="40.476600" lon="-5.225100">
        <ele>1862.0</ele>
        <time>2016-06-11T12:55:32Z</time>
      </trkpt>
      <trkpt lat="40.476650" lon="-5.225100">
        <ele>1861.0</ele>
        <time>2016-06-11T12:55:33Z</time>
      </trkpt>
      <trkpt lat="40.476717" lon="-5.225100">
        <ele>1859.0</ele>
        <time>2016-06-11T12:55:34Z</time>
      </trkpt>
      <trkpt lat="40.476767" lon="-5.225100">
        <ele>1858.0</ele>
        <time>2016-06-11T12:55:35Z</time>
      </trkpt>
      <trkpt lat="40.476817" lon="-5.225083">
        <ele>1858.0</ele>
        <time>2016-06-11T12:55:36Z</time>
      </trkpt>
      <trkpt lat="40.476850" lon="-5.225067">
        <ele>1858.0</ele>
        <time>2016-06-11T12:55:37Z</time>
      </trkpt>
      <trkpt lat="40.476900" lon="-5.225067">
        <ele>1857.0</ele>
        <time>2016-06-11T12:55:38Z</time>
      </trkpt>
      <trkpt lat="40.476950" lon="-5.225050">
        <ele>1854.0</ele>
        <time>2016-06-11T12:55:39Z</time>
      </trkpt>
      <trkpt lat="40.477017" lon="-5.225067">
        <ele>1851.0</ele>
        <time>2016-06-11T12:55:40Z</time>
      </trkpt>
      <trkpt lat="40.477083" lon="-5.225067">
        <ele>1849.0</ele>
        <time>2016-06-11T12:55:41Z</time>
      </trkpt>
      <trkpt lat="40.477150" lon="-5.225050">
        <ele>1848.0</ele>
        <time>2016-06-11T12:55:42Z</time>
      </trkpt>
      <trkpt lat="40.477217" lon="-5.225033">
        <ele>1846.0</ele>
        <time>2016-06-11T12:55:43Z</time>
      </trkpt>
      <trkpt lat="40.477283" lon="-5.225000">
        <ele>1845.0</ele>
        <time>2016-06-11T12:55:44Z</time>
      </trkpt>
      <trkpt lat="40.477350" lon="-5.224967">
        <ele>1843.0</ele>
        <time>2016-06-11T12:55:45Z</time>
      </trkpt>
      <trkpt lat="40.477417" lon="-5.224933">
        <ele>1840.0</ele>
        <time>2016-06-11T12:55:46Z</time>
      </trkpt>
      <trkpt lat="40.477483" lon="-5.224900">
        <ele>1837.0</ele>
        <time>2016-06-11T12:55:47Z</time>
      </trkpt>
      <trkpt lat="40.477567" lon="-5.224883">
        <ele>1834.0</ele>
        <time>2016-06-11T12:55:48Z</time>
      </trkpt>
      <trkpt lat="40.477650" lon="-5.224833">
        <ele>1831.0</ele>
        <time>2016-06-11T12:55:49Z</time>
      </trkpt>
      <trkpt lat="40.477750" lon="-5.224767">
        <ele>1827.0</ele>
        <time>2016-06-11T12:55:50Z</time>
      </trkpt>
      <trkpt lat="40.477833" lon="-5.224667">
        <ele>1825.0</ele>
        <time>2016-06-11T12:55:51Z</time>
      </trkpt>
      <trkpt lat="40.477917" lon="-5.224550">
        <ele>1823.0</ele>
        <time>2016-06-11T12:55:52Z</time>
      </trkpt>
      <trkpt lat="40.478000" lon="-5.224417">
        <ele>1822.0</ele>
        <time>2016-06-11T12:55:53Z</time>
      </trkpt>
      <trkpt lat="40.478067" lon="-5.224283">
        <ele>1821.0</ele>
        <time>2016-06-11T12:55:54Z</time>
      </trkpt>
      <trkpt lat="40.478133" lon="-5.224150">
        <ele>1821.0</ele>
        <time>2016-06-11T12:55:55Z</time>
      </trkpt>
      <trkpt lat="40.478200" lon="-5.224017">
        <ele>1819.0</ele>
        <time>2016-06-11T12:55:56Z</time>
      </trkpt>
      <trkpt lat="40.478283" lon="-5.223883">
        <ele>1816.0</ele>
        <time>2016-06-11T12:55:57Z</time>
      </trkpt>
      <trkpt lat="40.478367" lon="-5.223733">
        <ele>1813.0</ele>
        <time>2016-06-11T12:55:58Z</time>
      </trkpt>
      <trkpt lat="40.478450" lon="-5.223583">
        <ele>1812.0</ele>
        <time>2016-06-11T12:55:59Z</time>
      </trkpt>
      <trkpt lat="40.478533" lon="-5.223433">
        <ele>1811.0</ele>
        <time>2016-06-11T12:56:00Z</time>
      </trkpt>
      <trkpt lat="40.478600" lon="-5.223300">
        <ele>1811.0</ele>
        <time>2016-06-11T12:56:01Z</time>
      </trkpt>
      <trkpt lat="40.478650" lon="-5.223150">
        <ele>1811.0</ele>
        <time>2016-06-11T12:56:02Z</time>
      </trkpt>
      <trkpt lat="40.478700" lon="-5.223017">
        <ele>1810.0</ele>
        <time>2016-06-11T12:56:03Z</time>
      </trkpt>
      <trkpt lat="40.478767" lon="-5.222867">
        <ele>1808.0</ele>
        <time>2016-06-11T12:56:04Z</time>
      </trkpt>
      <trkpt lat="40.478850" lon="-5.222733">
        <ele>1807.0</ele>
        <time>2016-06-11T12:56:05Z</time>
      </trkpt>
      <trkpt lat="40.478917" lon="-5.222600">
        <ele>1806.0</ele>
        <time>2016-06-11T12:56:06Z</time>
      </trkpt>
      <trkpt lat="40.478983" lon="-5.222467">
        <ele>1806.0</ele>
        <time>2016-06-11T12:56:07Z</time>
      </trkpt>
      <trkpt lat="40.479050" lon="-5.222317">
        <ele>1806.0</ele>
        <time>2016-06-11T12:56:08Z</time>
      </trkpt>
      <trkpt lat="40.479117" lon="-5.222183">
        <ele>1806.0</ele>
        <time>2016-06-11T12:56:09Z</time>
      </trkpt>
      <trkpt lat="40.479183" lon="-5.222050">
        <ele>1805.0</ele>
        <time>2016-06-11T12:56:10Z</time>
      </trkpt>
      <trkpt lat="40.479267" lon="-5.221917">
        <ele>1803.0</ele>
        <time>2016-06-11T12:56:11Z</time>
      </trkpt>
      <trkpt lat="40.479333" lon="-5.221767">
        <ele>1803.0</ele>
        <time>2016-06-11T12:56:12Z</time>
      </trkpt>
      <trkpt lat="40.479400" lon="-5.221633">
        <ele>1802.0</ele>
        <time>2016-06-11T12:56:13Z</time>
      </trkpt>
      <trkpt lat="40.479467" lon="-5.221500">
        <ele>1800.0</ele>
        <time>2016-06-11T12:56:14Z</time>
      </trkpt>
      <trkpt lat="40.479533" lon="-5.221367">
        <ele>1799.0</ele>
        <time>2016-06-11T12:56:15Z</time>
      </trkpt>
      <trkpt lat="40.479600" lon="-5.221233">
        <ele>1797.0</ele>
        <time>2016-06-11T12:56:16Z</time>
      </trkpt>
      <trkpt lat="40.479683" lon="-5.221100">
        <ele>1796.0</ele>
        <time>2016-06-11T12:56:17Z</time>
      </trkpt>
      <trkpt lat="40.479767" lon="-5.220967">
        <ele>1795.0</ele>
        <time>2016-06-11T12:56:18Z</time>
      </trkpt>
      <trkpt lat="40.479833" lon="-5.220833">
        <ele>1794.0</ele>
        <time>2016-06-11T12:56:19Z</time>
      </trkpt>
      <trkpt lat="40.479917" lon="-5.220717">
        <ele>1793.0</ele>
        <time>2016-06-11T12:56:20Z</time>
      </trkpt>
      <trkpt lat="40.480000" lon="-5.220600">
        <ele>1792.0</ele>
        <time>2016-06-11T12:56:21Z</time>
      </trkpt>
      <trkpt lat="40.480067" lon="-5.220483">
        <ele>1791.0</ele>
        <time>2016-06-11T12:56:22Z</time>
      </trkpt>
      <trkpt lat="40.480150" lon="-5.220350">
        <ele>1790.0</ele>
        <time>2016-06-11T12:56:23Z</time>
      </trkpt>
      <trkpt lat="40.480233" lon="-5.220250">
        <ele>1789.0</ele>
        <time>2016-06-11T12:56:24Z</time>
      </trkpt>
      <trkpt lat="40.480317" lon="-5.220133">
        <ele>1788.0</ele>
        <time>2016-06-11T12:56:25Z</time>
      </trkpt>
      <trkpt lat="40.480383" lon="-5.220033">
        <ele>1786.0</ele>
        <time>2016-06-11T12:56:26Z</time>
      </trkpt>
      <trkpt lat="40.480467" lon="-5.219917">
        <ele>1784.0</ele>
        <time>2016-06-11T12:56:27Z</time>
      </trkpt>
      <trkpt lat="40.480567" lon="-5.219800">
        <ele>1782.0</ele>
        <time>2016-06-11T12:56:28Z</time>
      </trkpt>
      <trkpt lat="40.480650" lon="-5.219667">
        <ele>1780.0</ele>
        <time>2016-06-11T12:56:29Z</time>
      </trkpt>
      <trkpt lat="40.480750" lon="-5.219550">
        <ele>1777.0</ele>
        <time>2016-06-11T12:56:30Z</time>
      </trkpt>
      <trkpt lat="40.480833" lon="-5.219433">
        <ele>1776.0</ele>
        <time>2016-06-11T12:56:31Z</time>
      </trkpt>
      <trkpt lat="40.480917" lon="-5.219300">
        <ele>1774.0</ele>
        <time>2016-06-11T12:56:32Z</time>
      </trkpt>
      <trkpt lat="40.481000" lon="-5.219167">
        <ele>1771.0</ele>
        <time>2016-06-11T12:56:33Z</time>
      </trkpt>
      <trkpt lat="40.481067" lon="-5.219033">
        <ele>1768.0</ele>
        <time>2016-06-11T12:56:34Z</time>
      </trkpt>
      <trkpt lat="40.481150" lon="-5.218900">
        <ele>1765.0</ele>
        <time>2016-06-11T12:56:35Z</time>
      </trkpt>
      <trkpt lat="40.481233" lon="-5.218750">
        <ele>1762.0</ele>
        <time>2016-06-11T12:56:36Z</time>
      </trkpt>
      <trkpt lat="40.481317" lon="-5.218600">
        <ele>1759.0</ele>
        <time>2016-06-11T12:56:37Z</time>
      </trkpt>
      <trkpt lat="40.481400" lon="-5.218450">
        <ele>1756.0</ele>
        <time>2016-06-11T12:56:38Z</time>
      </trkpt>
      <trkpt lat="40.481500" lon="-5.218300">
        <ele>1755.0</ele>
        <time>2016-06-11T12:56:39Z</time>
      </trkpt>
      <trkpt lat="40.481583" lon="-5.218150">
        <ele>1755.0</ele>
        <time>2016-06-11T12:56:40Z</time>
      </trkpt>
      <trkpt lat="40.481667" lon="-5.218000">
        <ele>1756.0</ele>
        <time>2016-06-11T12:56:41Z</time>
      </trkpt>
      <trkpt lat="40.481717" lon="-5.217850">
        <ele>1756.0</ele>
        <time>2016-06-11T12:56:42Z</time>
      </trkpt>
      <trkpt lat="40.481767" lon="-5.217700">
        <ele>1756.0</ele>
        <time>2016-06-11T12:56:43Z</time>
      </trkpt>
      <trkpt lat="40.481833" lon="-5.217550">
        <ele>1754.0</ele>
        <time>2016-06-11T12:56:44Z</time>
      </trkpt>
      <trkpt lat="40.481900" lon="-5.217400">
        <ele>1752.0</ele>
        <time>2016-06-11T12:56:45Z</time>
      </trkpt>
      <trkpt lat="40.481983" lon="-5.217267">
        <ele>1750.0</ele>
        <time>2016-06-11T12:56:46Z</time>
      </trkpt>
      <trkpt lat="40.482050" lon="-5.217117">
        <ele>1748.0</ele>
        <time>2016-06-11T12:56:47Z</time>
      </trkpt>
      <trkpt lat="40.482117" lon="-5.216967">
        <ele>1746.0</ele>
        <time>2016-06-11T12:56:48Z</time>
      </trkpt>
      <trkpt lat="40.482183" lon="-5.216800">
        <ele>1744.0</ele>
        <time>2016-06-11T12:56:49Z</time>
      </trkpt>
      <trkpt lat="40.482250" lon="-5.216650">
        <ele>1743.0</ele>
        <time>2016-06-11T12:56:50Z</time>
      </trkpt>
      <trkpt lat="40.482317" lon="-5.216500">
        <ele>1742.0</ele>
        <time>2016-06-11T12:56:51Z</time>
      </trkpt>
      <trkpt lat="40.482383" lon="-5.216350">
        <ele>1741.0</ele>
        <time>2016-06-11T12:56:52Z</time>
      </trkpt>
      <trkpt lat="40.482450" lon="-5.216217">
        <ele>1740.0</ele>
        <time>2016-06-11T12:56:53Z</time>
      </trkpt>
      <trkpt lat="40.482500" lon="-5.216083">
        <ele>1737.0</ele>
        <time>2016-06-11T12:56:54Z</time>
      </trkpt>
      <trkpt lat="40.482567" lon="-5.215950">
        <ele>1734.0</ele>
        <time>2016-06-11T12:56:55Z</time>
      </trkpt>
      <trkpt lat="40.482633" lon="-5.215817">
        <ele>1731.0</ele>
        <time>2016-06-11T12:56:56Z</time>
      </trkpt>
      <trkpt lat="40.482717" lon="-5.215667">
        <ele>1729.0</ele>
        <time>2016-06-11T12:56:57Z</time>
      </trkpt>
      <trkpt lat="40.482783" lon="-5.215517">
        <ele>1729.0</ele>
        <time>2016-06-11T12:56:58Z</time>
      </trkpt>
      <trkpt lat="40.482867" lon="-5.215383">
        <ele>1729.0</ele>
        <time>2016-06-11T12:56:59Z</time>
      </trkpt>
      <trkpt lat="40.482950" lon="-5.215250">
        <ele>1729.0</ele>
        <time>2016-06-11T12:57:00Z</time>
      </trkpt>
      <trkpt lat="40.483017" lon="-5.215133">
        <ele>1727.0</ele>
        <time>2016-06-11T12:57:01Z</time>
      </trkpt>
      <trkpt lat="40.483083" lon="-5.214983">
        <ele>1725.0</ele>
        <time>2016-06-11T12:57:02Z</time>
      </trkpt>
      <trkpt lat="40.483150" lon="-5.214817">
        <ele>1723.0</ele>
        <time>2016-06-11T12:57:03Z</time>
      </trkpt>
      <trkpt lat="40.483217" lon="-5.214650">
        <ele>1721.0</ele>
        <time>2016-06-11T12:57:04Z</time>
      </trkpt>
      <trkpt lat="40.483283" lon="-5.214500">
        <ele>1719.0</ele>
        <time>2016-06-11T12:57:05Z</time>
      </trkpt>
      <trkpt lat="40.483350" lon="-5.214350">
        <ele>1718.0</ele>
        <time>2016-06-11T12:57:06Z</time>
      </trkpt>
      <trkpt lat="40.483417" lon="-5.214217">
        <ele>1716.0</ele>
        <time>2016-06-11T12:57:07Z</time>
      </trkpt>
      <trkpt lat="40.483483" lon="-5.214083">
        <ele>1713.0</ele>
        <time>2016-06-11T12:57:08Z</time>
      </trkpt>
      <trkpt lat="40.483550" lon="-5.213933">
        <ele>1710.0</ele>
        <time>2016-06-11T12:57:09Z</time>
      </trkpt>
      <trkpt lat="40.483633" lon="-5.213800">
        <ele>1707.0</ele>
        <time>2016-06-11T12:57:10Z</time>
      </trkpt>
      <trkpt lat="40.483717" lon="-5.213667">
        <ele>1704.0</ele>
        <time>2016-06-11T12:57:11Z</time>
      </trkpt>
      <trkpt lat="40.483800" lon="-5.213533">
        <ele>1702.0</ele>
        <time>2016-06-11T12:57:12Z</time>
      </trkpt>
      <trkpt lat="40.483883" lon="-5.213417">
        <ele>1701.0</ele>
        <time>2016-06-11T12:57:13Z</time>
      </trkpt>
      <trkpt lat="40.483967" lon="-5.213300">
        <ele>1698.0</ele>
        <time>2016-06-11T12:57:14Z</time>
      </trkpt>
      <trkpt lat="40.484050" lon="-5.213167">
        <ele>1695.0</ele>
        <time>2016-06-11T12:57:15Z</time>
      </trkpt>
      <trkpt lat="40.484133" lon="-5.213050">
        <ele>1692.0</ele>
        <time>2016-06-11T12:57:16Z</time>
      </trkpt>
      <trkpt lat="40.484217" lon="-5.212950">
        <ele>1689.0</ele>
        <time>2016-06-11T12:57:17Z</time>
      </trkpt>
      <trkpt lat="40.484317" lon="-5.212833">
        <ele>1687.0</ele>
        <time>2016-06-11T12:57:18Z</time>
      </trkpt>
      <trkpt lat="40.484417" lon="-5.212717">
        <ele>1685.0</ele>
        <time>2016-06-11T12:57:19Z</time>
      </trkpt>
      <trkpt lat="40.484500" lon="-5.212617">
        <ele>1683.0</ele>
        <time>2016-06-11T12:57:20Z</time>
      </trkpt>
      <trkpt lat="40.484583" lon="-5.212517">
        <ele>1682.0</ele>
        <time>2016-06-11T12:57:21Z</time>
      </trkpt>
      <trkpt lat="40.484650" lon="-5.212400">
        <ele>1680.0</ele>
        <time>2016-06-11T12:57:22Z</time>
      </trkpt>
      <trkpt lat="40.484750" lon="-5.212300">
        <ele>1677.0</ele>
        <time>2016-06-11T12:57:23Z</time>
      </trkpt>
      <trkpt lat="40.484833" lon="-5.212200">
        <ele>1675.0</ele>
        <time>2016-06-11T12:57:24Z</time>
      </trkpt>
      <trkpt lat="40.484933" lon="-5.212083">
        <ele>1672.0</ele>
        <time>2016-06-11T12:57:25Z</time>
      </trkpt>
      <trkpt lat="40.485017" lon="-5.211967">
        <ele>1671.0</ele>
        <time>2016-06-11T12:57:26Z</time>
      </trkpt>
      <trkpt lat="40.485100" lon="-5.211867">
        <ele>1669.0</ele>
        <time>2016-06-11T12:57:27Z</time>
      </trkpt>
      <trkpt lat="40.485183" lon="-5.211750">
        <ele>1668.0</ele>
        <time>2016-06-11T12:57:28Z</time>
      </trkpt>
      <trkpt lat="40.485267" lon="-5.211650">
        <ele>1666.0</ele>
        <time>2016-06-11T12:57:29Z</time>
      </trkpt>
      <trkpt lat="40.485350" lon="-5.211550">
        <ele>1664.0</ele>
        <time>2016-06-11T12:57:30Z</time>
      </trkpt>
      <trkpt lat="40.485433" lon="-5.211450">
        <ele>1662.0</ele>
        <time>2016-06-11T12:57:31Z</time>
      </trkpt>
      <trkpt lat="40.485517" lon="-5.211350">
        <ele>1661.0</ele>
        <time>2016-06-11T12:57:32Z</time>
      </trkpt>
      <trkpt lat="40.485600" lon="-5.211250">
        <ele>1660.0</ele>
        <time>2016-06-11T12:57:33Z</time>
      </trkpt>
      <trkpt lat="40.485667" lon="-5.211167">
        <ele>1660.0</ele>
        <time>2016-06-11T12:57:34Z</time>
      </trkpt>
      <trkpt lat="40.485750" lon="-5.211083">
        <ele>1659.0</ele>
        <time>2016-06-11T12:57:35Z</time>
      </trkpt>
      <trkpt lat="40.485833" lon="-5.211000">
        <ele>1657.0</ele>
        <time>2016-06-11T12:57:36Z</time>
      </trkpt>
      <trkpt lat="40.485917" lon="-5.210917">
        <ele>1655.0</ele>
        <time>2016-06-11T12:57:37Z</time>
      </trkpt>
      <trkpt lat="40.486000" lon="-5.210833">
        <ele>1652.0</ele>
        <time>2016-06-11T12:57:38Z</time>
      </trkpt>
      <trkpt lat="40.486100" lon="-5.210750">
        <ele>1650.0</ele>
        <time>2016-06-11T12:57:39Z</time>
      </trkpt>
      <trkpt lat="40.486183" lon="-5.210667">
        <ele>1648.0</ele>
        <time>2016-06-11T12:57:40Z</time>
      </trkpt>
      <trkpt lat="40.486267" lon="-5.210567">
        <ele>1645.0</ele>
        <time>2016-06-11T12:57:41Z</time>
      </trkpt>
      <trkpt lat="40.486333" lon="-5.210483">
        <ele>1643.0</ele>
        <time>2016-06-11T12:57:42Z</time>
      </trkpt>
      <trkpt lat="40.486417" lon="-5.210417">
        <ele>1640.0</ele>
        <time>2016-06-11T12:57:43Z</time>
      </trkpt>
      <trkpt lat="40.486500" lon="-5.210333">
        <ele>1637.0</ele>
        <time>2016-06-11T12:57:44Z</time>
      </trkpt>
      <trkpt lat="40.486583" lon="-5.210250">
        <ele>1635.0</ele>
        <time>2016-06-11T12:57:45Z</time>
      </trkpt>
      <trkpt lat="40.486650" lon="-5.210150">
        <ele>1631.0</ele>
        <time>2016-06-11T12:57:46Z</time>
      </trkpt>
      <trkpt lat="40.486733" lon="-5.210050">
        <ele>1628.0</ele>
        <time>2016-06-11T12:57:47Z</time>
      </trkpt>
      <trkpt lat="40.486817" lon="-5.209950">
        <ele>1625.0</ele>
        <time>2016-06-11T12:57:48Z</time>
      </trkpt>
      <trkpt lat="40.486900" lon="-5.209850">
        <ele>1622.0</ele>
        <time>2016-06-11T12:57:49Z</time>
      </trkpt>
      <trkpt lat="40.486967" lon="-5.209750">
        <ele>1619.0</ele>
        <time>2016-06-11T12:57:50Z</time>
      </trkpt>
      <trkpt lat="40.487033" lon="-5.209633">
        <ele>1617.0</ele>
        <time>2016-06-11T12:57:51Z</time>
      </trkpt>
      <trkpt lat="40.487100" lon="-5.209517">
        <ele>1614.0</ele>
        <time>2016-06-11T12:57:52Z</time>
      </trkpt>
      <trkpt lat="40.487167" lon="-5.209383">
        <ele>1610.0</ele>
        <time>2016-06-11T12:57:53Z</time>
      </trkpt>
      <trkpt lat="40.487250" lon="-5.209267">
        <ele>1607.0</ele>
        <time>2016-06-11T12:57:54Z</time>
      </trkpt>
      <trkpt lat="40.487333" lon="-5.209167">
        <ele>1604.0</ele>
        <time>2016-06-11T12:57:55Z</time>
      </trkpt>
      <trkpt lat="40.487417" lon="-5.209050">
        <ele>1601.0</ele>
        <time>2016-06-11T12:57:56Z</time>
      </trkpt>
      <trkpt lat="40.487483" lon="-5.208933">
        <ele>1599.0</ele>
        <time>2016-06-11T12:57:57Z</time>
      </trkpt>
      <trkpt lat="40.487567" lon="-5.208817">
        <ele>1597.0</ele>
        <time>2016-06-11T12:57:58Z</time>
      </trkpt>
      <trkpt lat="40.487633" lon="-5.208700">
        <ele>1595.0</ele>
        <time>2016-06-11T12:57:59Z</time>
      </trkpt>
      <trkpt lat="40.487717" lon="-5.208583">
        <ele>1593.0</ele>
        <time>2016-06-11T12:58:00Z</time>
      </trkpt>
      <trkpt lat="40.487800" lon="-5.208450">
        <ele>1592.0</ele>
        <time>2016-06-11T12:58:01Z</time>
      </trkpt>
      <trkpt lat="40.487867" lon="-5.208333">
        <ele>1590.0</ele>
        <time>2016-06-11T12:58:02Z</time>
      </trkpt>
      <trkpt lat="40.487933" lon="-5.208200">
        <ele>1587.0</ele>
        <time>2016-06-11T12:58:03Z</time>
      </trkpt>
      <trkpt lat="40.488000" lon="-5.208050">
        <ele>1584.0</ele>
        <time>2016-06-11T12:58:04Z</time>
      </trkpt>
      <trkpt lat="40.488067" lon="-5.207900">
        <ele>1581.0</ele>
        <time>2016-06-11T12:58:05Z</time>
      </trkpt>
      <trkpt lat="40.488150" lon="-5.207767">
        <ele>1578.0</ele>
        <time>2016-06-11T12:58:06Z</time>
      </trkpt>
      <trkpt lat="40.488250" lon="-5.207633">
        <ele>1576.0</ele>
        <time>2016-06-11T12:58:07Z</time>
      </trkpt>
      <trkpt lat="40.488333" lon="-5.207500">
        <ele>1574.0</ele>
        <time>2016-06-11T12:58:08Z</time>
      </trkpt>
      <trkpt lat="40.488417" lon="-5.207383">
        <ele>1572.0</ele>
        <time>2016-06-11T12:58:09Z</time>
      </trkpt>
      <trkpt lat="40.488517" lon="-5.207267">
        <ele>1570.0</ele>
        <time>2016-06-11T12:58:10Z</time>
      </trkpt>
      <trkpt lat="40.488600" lon="-5.207150">
        <ele>1568.0</ele>
        <time>2016-06-11T12:58:11Z</time>
      </trkpt>
      <trkpt lat="40.488683" lon="-5.207033">
        <ele>1565.0</ele>
        <time>2016-06-11T12:58:12Z</time>
      </trkpt>
      <trkpt lat="40.488783" lon="-5.206917">
        <ele>1563.0</ele>
        <time>2016-06-11T12:58:13Z</time>
      </trkpt>
      <trkpt lat="40.488883" lon="-5.206783">
        <ele>1561.0</ele>
        <time>2016-06-11T12:58:14Z</time>
      </trkpt>
      <trkpt lat="40.488983" lon="-5.206667">
        <ele>1559.0</ele>
        <time>2016-06-11T12:58:15Z</time>
      </trkpt>
      <trkpt lat="40.489083" lon="-5.206550">
        <ele>1557.0</ele>
        <time>2016-06-11T12:58:16Z</time>
      </trkpt>
      <trkpt lat="40.489183" lon="-5.206417">
        <ele>1555.0</ele>
        <time>2016-06-11T12:58:17Z</time>
      </trkpt>
      <trkpt lat="40.489283" lon="-5.206283">
        <ele>1553.0</ele>
        <time>2016-06-11T12:58:18Z</time>
      </trkpt>
      <trkpt lat="40.489383" lon="-5.206150">
        <ele>1551.0</ele>
        <time>2016-06-11T12:58:19Z</time>
      </trkpt>
      <trkpt lat="40.489483" lon="-5.206017">
        <ele>1549.0</ele>
        <time>2016-06-11T12:58:20Z</time>
      </trkpt>
      <trkpt lat="40.489567" lon="-5.205883">
        <ele>1548.0</ele>
        <time>2016-06-11T12:58:21Z</time>
      </trkpt>
      <trkpt lat="40.489667" lon="-5.205733">
        <ele>1546.0</ele>
        <time>2016-06-11T12:58:22Z</time>
      </trkpt>
      <trkpt lat="40.489767" lon="-5.205600">
        <ele>1544.0</ele>
        <time>2016-06-11T12:58:23Z</time>
      </trkpt>
      <trkpt lat="40.489850" lon="-5.205433">
        <ele>1542.0</ele>
        <time>2016-06-11T12:58:24Z</time>
      </trkpt>
      <trkpt lat="40.489933" lon="-5.205283">
        <ele>1540.0</ele>
        <time>2016-06-11T12:58:25Z</time>
      </trkpt>
      <trkpt lat="40.490017" lon="-5.205133">
        <ele>1538.0</ele>
        <time>2016-06-11T12:58:26Z</time>
      </trkpt>
      <trkpt lat="40.490100" lon="-5.204967">
        <ele>1537.0</ele>
        <time>2016-06-11T12:58:27Z</time>
      </trkpt>
      <trkpt lat="40.490183" lon="-5.204817">
        <ele>1535.0</ele>
        <time>2016-06-11T12:58:28Z</time>
      </trkpt>
      <trkpt lat="40.490250" lon="-5.204667">
        <ele>1532.0</ele>
        <time>2016-06-11T12:58:29Z</time>
      </trkpt>
      <trkpt lat="40.490333" lon="-5.204500">
        <ele>1530.0</ele>
        <time>2016-06-11T12:58:30Z</time>
      </trkpt>
      <trkpt lat="40.490400" lon="-5.204333">
        <ele>1527.0</ele>
        <time>2016-06-11T12:58:31Z</time>
      </trkpt>
      <trkpt lat="40.490467" lon="-5.204150">
        <ele>1525.0</ele>
        <time>2016-06-11T12:58:32Z</time>
      </trkpt>
      <trkpt lat="40.490550" lon="-5.203983">
        <ele>1522.0</ele>
        <time>2016-06-11T12:58:33Z</time>
      </trkpt>
      <trkpt lat="40.490600" lon="-5.203800">
        <ele>1520.0</ele>
        <time>2016-06-11T12:58:34Z</time>
      </trkpt>
      <trkpt lat="40.490667" lon="-5.203617">
        <ele>1517.0</ele>
        <time>2016-06-11T12:58:35Z</time>
      </trkpt>
      <trkpt lat="40.490750" lon="-5.203433">
        <ele>1514.0</ele>
        <time>2016-06-11T12:58:36Z</time>
      </trkpt>
      <trkpt lat="40.490817" lon="-5.203250">
        <ele>1512.0</ele>
        <time>2016-06-11T12:58:37Z</time>
      </trkpt>
      <trkpt lat="40.490883" lon="-5.203067">
        <ele>1510.0</ele>
        <time>2016-06-11T12:58:38Z</time>
      </trkpt>
      <trkpt lat="40.490950" lon="-5.202900">
        <ele>1508.0</ele>
        <time>2016-06-11T12:58:39Z</time>
      </trkpt>
      <trkpt lat="40.491017" lon="-5.202717">
        <ele>1506.0</ele>
        <time>2016-06-11T12:58:40Z</time>
      </trkpt>
      <trkpt lat="40.491083" lon="-5.202533">
        <ele>1504.0</ele>
        <time>2016-06-11T12:58:41Z</time>
      </trkpt>
      <trkpt lat="40.491150" lon="-5.202367">
        <ele>1502.0</ele>
        <time>2016-06-11T12:58:42Z</time>
      </trkpt>
      <trkpt lat="40.491217" lon="-5.202183">
        <ele>1501.0</ele>
        <time>2016-06-11T12:58:43Z</time>
      </trkpt>
      <trkpt lat="40.491283" lon="-5.201983">
        <ele>1499.0</ele>
        <time>2016-06-11T12:58:44Z</time>
      </trkpt>
      <trkpt lat="40.491333" lon="-5.201800">
        <ele>1498.0</ele>
        <time>2016-06-11T12:58:45Z</time>
      </trkpt>
      <trkpt lat="40.491383" lon="-5.201617">
        <ele>1497.0</ele>
        <time>2016-06-11T12:58:46Z</time>
      </trkpt>
      <trkpt lat="40.491450" lon="-5.201433">
        <ele>1495.0</ele>
        <time>2016-06-11T12:58:47Z</time>
      </trkpt>
      <trkpt lat="40.491500" lon="-5.201250">
        <ele>1494.0</ele>
        <time>2016-06-11T12:58:48Z</time>
      </trkpt>
      <trkpt lat="40.491550" lon="-5.201067">
        <ele>1493.0</ele>
        <time>2016-06-11T12:58:49Z</time>
      </trkpt>
      <trkpt lat="40.491600" lon="-5.200883">
        <ele>1491.0</ele>
        <time>2016-06-11T12:58:50Z</time>
      </trkpt>
      <trkpt lat="40.491667" lon="-5.200700">
        <ele>1489.0</ele>
        <time>2016-06-11T12:58:51Z</time>
      </trkpt>
      <trkpt lat="40.491717" lon="-5.200517">
        <ele>1488.0</ele>
        <time>2016-06-11T12:58:52Z</time>
      </trkpt>
      <trkpt lat="40.491783" lon="-5.200333">
        <ele>1488.0</ele>
        <time>2016-06-11T12:58:53Z</time>
      </trkpt>
      <trkpt lat="40.491817" lon="-5.200150">
        <ele>1489.0</ele>
        <time>2016-06-11T12:58:54Z</time>
      </trkpt>
      <trkpt lat="40.491867" lon="-5.199983">
        <ele>1489.0</ele>
        <time>2016-06-11T12:58:55Z</time>
      </trkpt>
      <trkpt lat="40.491900" lon="-5.199800">
        <ele>1488.0</ele>
        <time>2016-06-11T12:58:56Z</time>
      </trkpt>
      <trkpt lat="40.491933" lon="-5.199617">
        <ele>1487.0</ele>
        <time>2016-06-11T12:58:57Z</time>
      </trkpt>
      <trkpt lat="40.491983" lon="-5.199417">
        <ele>1486.0</ele>
        <time>2016-06-11T12:58:58Z</time>
      </trkpt>
      <trkpt lat="40.492017" lon="-5.199217">
        <ele>1485.0</ele>
        <time>2016-06-11T12:58:59Z</time>
      </trkpt>
      <trkpt lat="40.492050" lon="-5.199033">
        <ele>1485.0</ele>
        <time>2016-06-11T12:59:00Z</time>
      </trkpt>
      <trkpt lat="40.492067" lon="-5.198850">
        <ele>1485.0</ele>
        <time>2016-06-11T12:59:01Z</time>
      </trkpt>
      <trkpt lat="40.492100" lon="-5.198667">
        <ele>1486.0</ele>
        <time>2016-06-11T12:59:02Z</time>
      </trkpt>
      <trkpt lat="40.492117" lon="-5.198500">
        <ele>1485.0</ele>
        <time>2016-06-11T12:59:03Z</time>
      </trkpt>
      <trkpt lat="40.492167" lon="-5.198333">
        <ele>1484.0</ele>
        <time>2016-06-11T12:59:04Z</time>
      </trkpt>
      <trkpt lat="40.492200" lon="-5.198167">
        <ele>1483.0</ele>
        <time>2016-06-11T12:59:05Z</time>
      </trkpt>
      <trkpt lat="40.492217" lon="-5.197983">
        <ele>1482.0</ele>
        <time>2016-06-11T12:59:06Z</time>
      </trkpt>
      <trkpt lat="40.492250" lon="-5.197800">
        <ele>1482.0</ele>
        <time>2016-06-11T12:59:07Z</time>
      </trkpt>
      <trkpt lat="40.492283" lon="-5.197633">
        <ele>1481.0</ele>
        <time>2016-06-11T12:59:08Z</time>
      </trkpt>
      <trkpt lat="40.492317" lon="-5.197450">
        <ele>1481.0</ele>
        <time>2016-06-11T12:59:09Z</time>
      </trkpt>
      <trkpt lat="40.492367" lon="-5.197300">
        <ele>1481.0</ele>
        <time>2016-06-11T12:59:10Z</time>
      </trkpt>
      <trkpt lat="40.492433" lon="-5.197150">
        <ele>1481.0</ele>
        <time>2016-06-11T12:59:11Z</time>
      </trkpt>
      <trkpt lat="40.492500" lon="-5.197017">
        <ele>1481.0</ele>
        <time>2016-06-11T12:59:12Z</time>
      </trkpt>
      <trkpt lat="40.492583" lon="-5.196883">
        <ele>1481.0</ele>
        <time>2016-06-11T12:59:13Z</time>
      </trkpt>
      <trkpt lat="40.492667" lon="-5.196783">
        <ele>1481.0</ele>
        <time>2016-06-11T12:59:14Z</time>
      </trkpt>
      <trkpt lat="40.492767" lon="-5.196700">
        <ele>1480.0</ele>
        <time>2016-06-11T12:59:15Z</time>
      </trkpt>
      <trkpt lat="40.492867" lon="-5.196650">
        <ele>1480.0</ele>
        <time>2016-06-11T12:59:16Z</time>
      </trkpt>
      <trkpt lat="40.492967" lon="-5.196617">
        <ele>1481.0</ele>
        <time>2016-06-11T12:59:17Z</time>
      </trkpt>
      <trkpt lat="40.493050" lon="-5.196567">
        <ele>1483.0</ele>
        <time>2016-06-11T12:59:18Z</time>
      </trkpt>
      <trkpt lat="40.493117" lon="-5.196533">
        <ele>1485.0</ele>
        <time>2016-06-11T12:59:19Z</time>
      </trkpt>
      <trkpt lat="40.493183" lon="-5.196500">
        <ele>1486.0</ele>
        <time>2016-06-11T12:59:20Z</time>
      </trkpt>
      <trkpt lat="40.493250" lon="-5.196467">
        <ele>1487.0</ele>
        <time>2016-06-11T12:59:21Z</time>
      </trkpt>
      <trkpt lat="40.493317" lon="-5.196450">
        <ele>1488.0</ele>
        <time>2016-06-11T12:59:22Z</time>
      </trkpt>
      <trkpt lat="40.493400" lon="-5.196433">
        <ele>1490.0</ele>
        <time>2016-06-11T12:59:23Z</time>
      </trkpt>
      <trkpt lat="40.493467" lon="-5.196400">
        <ele>1492.0</ele>
        <time>2016-06-11T12:59:24Z</time>
      </trkpt>
      <trkpt lat="40.493517" lon="-5.196383">
        <ele>1494.0</ele>
        <time>2016-06-11T12:59:25Z</time>
      </trkpt>
      <trkpt lat="40.493583" lon="-5.196367">
        <ele>1494.0</ele>
        <time>2016-06-11T12:59:26Z</time>
      </trkpt>
      <trkpt lat="40.493650" lon="-5.196350">
        <ele>1495.0</ele>
        <time>2016-06-11T12:59:27Z</time>
      </trkpt>
      <trkpt lat="40.493717" lon="-5.196350">
        <ele>1495.0</ele>
        <time>2016-06-11T12:59:28Z</time>
      </trkpt>
      <trkpt lat="40.493800" lon="-5.196333">
        <ele>1496.0</ele>
        <time>2016-06-11T12:59:29Z</time>
      </trkpt>
      <trkpt lat="40.493867" lon="-5.196300">
        <ele>1499.0</ele>
        <time>2016-06-11T12:59:30Z</time>
      </trkpt>
      <trkpt lat="40.493917" lon="-5.196250">
        <ele>1501.0</ele>
        <time>2016-06-11T12:59:31Z</time>
      </trkpt>
      <trkpt lat="40.493950" lon="-5.196217">
        <ele>1503.0</ele>
        <time>2016-06-11T12:59:32Z</time>
      </trkpt>
      <trkpt lat="40.493983" lon="-5.196183">
        <ele>1504.0</ele>
        <time>2016-06-11T12:59:33Z</time>
      </trkpt>
      <trkpt lat="40.494050" lon="-5.196150">
        <ele>1503.0</ele>
        <time>2016-06-11T12:59:34Z</time>
      </trkpt>
      <trkpt lat="40.494117" lon="-5.196133">
        <ele>1504.0</ele>
        <time>2016-06-11T12:59:35Z</time>
      </trkpt>
      <trkpt lat="40.494167" lon="-5.196117">
        <ele>1505.0</ele>
        <time>2016-06-11T12:59:36Z</time>
      </trkpt>
      <trkpt lat="40.494200" lon="-5.196117">
        <ele>1507.0</ele>
        <time>2016-06-11T12:59:37Z</time>
      </trkpt>
      <trkpt lat="40.494217" lon="-5.196100">
        <ele>1507.0</ele>
        <time>2016-06-11T12:59:38Z</time>
      </trkpt>
      <trkpt lat="40.494250" lon="-5.196100">
        <ele>1507.0</ele>
        <time>2016-06-11T12:59:39Z</time>
      </trkpt>
      <trkpt lat="40.494283" lon="-5.196083">
        <ele>1506.0</ele>
        <time>2016-06-11T12:59:40Z</time>
      </trkpt>
      <trkpt lat="40.494317" lon="-5.196083">
        <ele>1506.0</ele>
        <time>2016-06-11T12:59:41Z</time>
      </trkpt>
      <trkpt lat="40.494333" lon="-5.196100">
        <ele>1506.0</ele>
        <time>2016-06-11T12:59:42Z</time>
      </trkpt>
      <trkpt lat="40.494333" lon="-5.196117">
        <ele>1507.0</ele>
        <time>2016-06-11T12:59:43Z</time>
      </trkpt>
      <trkpt lat="40.494300" lon="-5.196133">
        <ele>1507.0</ele>
        <time>2016-06-11T12:59:44Z</time>
      </trkpt>
      <trkpt lat="40.494233" lon="-5.196117">
        <ele>1506.0</ele>
        <time>2016-06-11T12:59:45Z</time>
      </trkpt>
      <trkpt lat="40.494150" lon="-5.196083">
        <ele>1505.0</ele>
        <time>2016-06-11T12:59:46Z</time>
      </trkpt>
      <trkpt lat="40.494067" lon="-5.196017">
        <ele>1504.0</ele>
        <time>2016-06-11T12:59:47Z</time>
      </trkpt>
      <trkpt lat="40.493983" lon="-5.195950">
        <ele>1505.0</ele>
        <time>2016-06-11T12:59:48Z</time>
      </trkpt>
      <trkpt lat="40.493900" lon="-5.195900">
        <ele>1506.0</ele>
        <time>2016-06-11T12:59:49Z</time>
      </trkpt>
      <trkpt lat="40.493833" lon="-5.195850">
        <ele>1505.0</ele>
        <time>2016-06-11T12:59:50Z</time>
      </trkpt>
      <trkpt lat="40.493750" lon="-5.195833">
        <ele>1504.0</ele>
        <time>2016-06-11T12:59:51Z</time>
      </trkpt>
      <trkpt lat="40.493683" lon="-5.195833">
        <ele>1503.0</ele>
        <time>2016-06-11T12:59:52Z</time>
      </trkpt>
      <trkpt lat="40.493633" lon="-5.195833">
        <ele>1503.0</ele>
        <time>2016-06-11T12:59:53Z</time>
      </trkpt>
      <trkpt lat="40.493567" lon="-5.195833">
        <ele>1503.0</ele>
        <time>2016-06-11T12:59:54Z</time>
      </trkpt>
      <trkpt lat="40.493533" lon="-5.195867">
        <ele>1502.0</ele>
        <time>2016-06-11T12:59:55Z</time>
      </trkpt>
      <trkpt lat="40.493517" lon="-5.195900">
        <ele>1502.0</ele>
        <time>2016-06-11T12:59:56Z</time>
      </trkpt>
      <trkpt lat="40.493517" lon="-5.195933">
        <ele>1502.0</ele>
        <time>2016-06-11T12:59:57Z</time>
      </trkpt>
      <trkpt lat="40.493517" lon="-5.195967">
        <ele>1502.0</ele>
        <time>2016-06-11T12:59:58Z</time>
      </trkpt>
      <trkpt lat="40.493500" lon="-5.195983">
        <ele>1503.0</ele>
        <time>2016-06-11T12:59:59Z</time>
      </trkpt>
      <trkpt lat="40.493483" lon="-5.196017">
        <ele>1503.0</ele>
        <time>2016-06-11T13:00:00Z</time>
      </trkpt>
      <trkpt lat="40.493450" lon="-5.196067">
        <ele>1505.0</ele>
        <time>2016-06-11T13:00:01Z</time>
      </trkpt>
      <trkpt lat="40.493417" lon="-5.196083">
        <ele>1507.0</ele>
        <time>2016-06-11T13:00:02Z</time>
      </trkpt>
      <trkpt lat="40.493383" lon="-5.196100">
        <ele>1509.0</ele>
        <time>2016-06-11T13:00:03Z</time>
      </trkpt>
      <trkpt lat="40.493350" lon="-5.196133">
        <ele>1511.0</ele>
        <time>2016-06-11T13:00:04Z</time>
      </trkpt>
      <trkpt lat="40.493317" lon="-5.196150">
        <ele>1512.0</ele>
        <time>2016-06-11T13:00:05Z</time>
      </trkpt>
      <trkpt lat="40.493267" lon="-5.196183">
        <ele>1514.0</ele>
        <time>2016-06-11T13:00:06Z</time>
      </trkpt>
      <trkpt lat="40.493217" lon="-5.196217">
        <ele>1516.0</ele>
        <time>2016-06-11T13:00:07Z</time>
      </trkpt>
      <trkpt lat="40.493183" lon="-5.196267">
        <ele>1519.0</ele>
        <time>2016-06-11T13:00:08Z</time>
      </trkpt>
      <trkpt lat="40.493150" lon="-5.196317">
        <ele>1522.0</ele>
        <time>2016-06-11T13:00:09Z</time>
      </trkpt>
      <trkpt lat="40.493133" lon="-5.196350">
        <ele>1527.0</ele>
        <time>2016-06-11T13:00:10Z</time>
      </trkpt>
      <trkpt lat="40.493117" lon="-5.196367">
        <ele>1531.0</ele>
        <time>2016-06-11T13:00:11Z</time>
      </trkpt>
      <trkpt lat="40.493083" lon="-5.196367">
        <ele>1534.0</ele>
        <time>2016-06-11T13:00:12Z</time>
      </trkpt>
      <trkpt lat="40.493050" lon="-5.196367">
        <ele>1536.0</ele>
        <time>2016-06-11T13:00:13Z</time>
      </trkpt>
      <trkpt lat="40.493033" lon="-5.196383">
        <ele>1537.0</ele>
        <time>2016-06-11T13:00:14Z</time>
      </trkpt>
      <trkpt lat="40.493017" lon="-5.196417">
        <ele>1538.0</ele>
        <time>2016-06-11T13:00:15Z</time>
      </trkpt>
      <trkpt lat="40.493017" lon="-5.196450">
        <ele>1540.0</ele>
        <time>2016-06-11T13:00:16Z</time>
      </trkpt>
      <trkpt lat="40.493050" lon="-5.196483">
        <ele>1542.0</ele>
        <time>2016-06-11T13:00:17Z</time>
      </trkpt>
      <trkpt lat="40.493067" lon="-5.196500">
        <ele>1544.0</ele>
        <time>2016-06-11T13:00:18Z</time>
      </trkpt>
      <trkpt lat="40.493100" lon="-5.196517">
        <ele>1546.0</ele>
        <time>2016-06-11T13:00:19Z</time>
      </trkpt>
      <trkpt lat="40.493133" lon="-5.196517">
        <ele>1547.0</ele>
        <time>2016-06-11T13:00:20Z</time>
      </trkpt>
      <trkpt lat="40.493183" lon="-5.196533">
        <ele>1548.0</ele>
        <time>2016-06-11T13:00:21Z</time>
      </trkpt>
      <trkpt lat="40.493250" lon="-5.196517">
        <ele>1548.0</ele>
        <time>2016-06-11T13:00:22Z</time>
      </trkpt>
      <trkpt lat="40.493333" lon="-5.196483">
        <ele>1548.0</ele>
        <time>2016-06-11T13:00:23Z</time>
      </trkpt>
      <trkpt lat="40.493433" lon="-5.196417">
        <ele>1549.0</ele>
        <time>2016-06-11T13:00:24Z</time>
      </trkpt>
      <trkpt lat="40.493517" lon="-5.196333">
        <ele>1550.0</ele>
        <time>2016-06-11T13:00:25Z</time>
      </trkpt>
      <trkpt lat="40.493583" lon="-5.196200">
        <ele>1551.0</ele>
        <time>2016-06-11T13:00:26Z</time>
      </trkpt>
      <trkpt lat="40.493617" lon="-5.196033">
        <ele>1551.0</ele>
        <time>2016-06-11T13:00:27Z</time>
      </trkpt>
      <trkpt lat="40.493617" lon="-5.195850">
        <ele>1550.0</ele>
        <time>2016-06-11T13:00:28Z</time>
      </trkpt>
      <trkpt lat="40.493567" lon="-5.195683">
        <ele>1549.0</ele>
        <time>2016-06-11T13:00:29Z</time>
      </trkpt>
      <trkpt lat="40.493467" lon="-5.195600">
        <ele>1547.0</ele>
        <time>2016-06-11T13:00:30Z</time>
      </trkpt>
      <trkpt lat="40.493367" lon="-5.195583">
        <ele>1546.0</ele>
        <time>2016-06-11T13:00:31Z</time>
      </trkpt>
      <trkpt lat="40.493300" lon="-5.195617">
        <ele>1547.0</ele>
        <time>2016-06-11T13:00:32Z</time>
      </trkpt>
      <trkpt lat="40.493267" lon="-5.195633">
        <ele>1551.0</ele>
        <time>2016-06-11T13:00:33Z</time>
      </trkpt>
      <trkpt lat="40.493233" lon="-5.195650">
        <ele>1554.0</ele>
        <time>2016-06-11T13:00:34Z</time>
      </trkpt>
      <trkpt lat="40.493217" lon="-5.195650">
        <ele>1557.0</ele>
        <time>2016-06-11T13:00:35Z</time>
      </trkpt>
      <trkpt lat="40.493200" lon="-5.195683">
        <ele>1558.0</ele>
        <time>2016-06-11T13:00:36Z</time>
      </trkpt>
      <trkpt lat="40.493167" lon="-5.195717">
        <ele>1558.0</ele>
        <time>2016-06-11T13:00:37Z</time>
      </trkpt>
      <trkpt lat="40.493133" lon="-5.195750">
        <ele>1559.0</ele>
        <time>2016-06-11T13:00:38Z</time>
      </trkpt>
      <trkpt lat="40.493100" lon="-5.195800">
        <ele>1561.0</ele>
        <time>2016-06-11T13:00:39Z</time>
      </trkpt>
      <trkpt lat="40.493050" lon="-5.195833">
        <ele>1564.0</ele>
        <time>2016-06-11T13:00:40Z</time>
      </trkpt>
      <trkpt lat="40.493000" lon="-5.195833">
        <ele>1568.0</ele>
        <time>2016-06-11T13:00:41Z</time>
      </trkpt>
      <trkpt lat="40.492983" lon="-5.195833">
        <ele>1570.0</ele>
        <time>2016-06-11T13:00:42Z</time>
      </trkpt>
      <trkpt lat="40.492950" lon="-5.195850">
        <ele>1571.0</ele>
        <time>2016-06-11T13:00:43Z</time>
      </trkpt>
      <trkpt lat="40.492917" lon="-5.195867">
        <ele>1571.0</ele>
        <time>2016-06-11T13:00:44Z</time>
      </trkpt>
      <trkpt lat="40.492867" lon="-5.195883">
        <ele>1572.0</ele>
        <time>2016-06-11T13:00:45Z</time>
      </trkpt>
      <trkpt lat="40.492833" lon="-5.195900">
        <ele>1574.0</ele>
        <time>2016-06-11T13:00:46Z</time>
      </trkpt>
      <trkpt lat="40.492817" lon="-5.195917">
        <ele>1577.0</ele>
        <time>2016-06-11T13:00:47Z</time>
      </trkpt>
      <trkpt lat="40.492800" lon="-5.195917">
        <ele>1578.0</ele>
        <time>2016-06-11T13:00:48Z</time>
      </trkpt>
      <trkpt lat="40.492783" lon="-5.195933">
        <ele>1579.0</ele>
        <time>2016-06-11T13:00:49Z</time>
      </trkpt>
      <trkpt lat="40.492750" lon="-5.195933">
        <ele>1579.0</ele>
        <time>2016-06-11T13:00:50Z</time>
      </trkpt>
      <trkpt lat="40.492733" lon="-5.195933">
        <ele>1578.0</ele>
        <time>2016-06-11T13:00:51Z</time>
      </trkpt>
      <trkpt lat="40.492717" lon="-5.195967">
        <ele>1576.0</ele>
        <time>2016-06-11T13:00:52Z</time>
      </trkpt>
      <trkpt lat="40.492717" lon="-5.196000">
        <ele>1574.0</ele>
        <time>2016-06-11T13:00:53Z</time>
      </trkpt>
      <trkpt lat="40.492717" lon="-5.196050">
        <ele>1574.0</ele>
        <time>2016-06-11T13:00:54Z</time>
      </trkpt>
      <trkpt lat="40.492717" lon="-5.196083">
        <ele>1574.0</ele>
        <time>2016-06-11T13:00:55Z</time>
      </trkpt>
      <trkpt lat="40.492717" lon="-5.196117">
        <ele>1574.0</ele>
        <time>2016-06-11T13:00:56Z</time>
      </trkpt>
      <trkpt lat="40.492700" lon="-5.196133">
        <ele>1574.0</ele>
        <time>2016-06-11T13:00:57Z</time>
      </trkpt>
      <trkpt lat="40.492717" lon="-5.196167">
        <ele>1573.0</ele>
        <time>2016-06-11T13:00:58Z</time>
      </trkpt>
      <trkpt lat="40.492733" lon="-5.196200">
        <ele>1571.0</ele>
        <time>2016-06-11T13:00:59Z</time>
      </trkpt>
      <trkpt lat="40.492750" lon="-5.196250">
        <ele>1570.0</ele>
        <time>2016-06-11T13:01:00Z</time>
      </trkpt>
      <trkpt lat="40.492767" lon="-5.196300">
        <ele>1570.0</ele>
        <time>2016-06-11T13:01:01Z</time>
      </trkpt>
      <trkpt lat="40.492767" lon="-5.196333">
        <ele>1571.0</ele>
        <time>2016-06-11T13:01:02Z</time>
      </trkpt>
      <trkpt lat="40.492767" lon="-5.196367">
        <ele>1571.0</ele>
        <time>2016-06-11T13:01:03Z</time>
      </trkpt>
      <trkpt lat="40.492767" lon="-5.196417">
        <ele>1570.0</ele>
        <time>2016-06-11T13:01:04Z</time>
      </trkpt>
      <trkpt lat="40.492767" lon="-5.196450">
        <ele>1569.0</ele>
        <time>2016-06-11T13:01:05Z</time>
      </trkpt>
      <trkpt lat="40.492783" lon="-5.196500">
        <ele>1568.0</ele>
        <time>2016-06-11T13:01:06Z</time>
      </trkpt>
      <trkpt lat="40.492783" lon="-5.196517">
        <ele>1568.0</ele>
        <time>2016-06-11T13:01:07Z</time>
      </trkpt>
      <trkpt lat="40.492817" lon="-5.196517">
        <ele>1567.0</ele>
        <time>2016-06-11T13:01:08Z</time>
      </trkpt>
      <trkpt lat="40.492883" lon="-5.196500">
        <ele>1566.0</ele>
        <time>2016-06-11T13:01:09Z</time>
      </trkpt>
      <trkpt lat="40.492950" lon="-5.196467">
        <ele>1563.0</ele>
        <time>2016-06-11T13:01:10Z</time>
      </trkpt>
      <trkpt lat="40.493033" lon="-5.196417">
        <ele>1562.0</ele>
        <time>2016-06-11T13:01:11Z</time>
      </trkpt>
      <trkpt lat="40.493100" lon="-5.196367">
        <ele>1562.0</ele>
        <time>2016-06-11T13:01:12Z</time>
      </trkpt>
      <trkpt lat="40.493183" lon="-5.196317">
        <ele>1561.0</ele>
        <time>2016-06-11T13:01:13Z</time>
      </trkpt>
      <trkpt lat="40.493250" lon="-5.196233">
        <ele>1560.0</ele>
        <time>2016-06-11T13:01:14Z</time>
      </trkpt>
      <trkpt lat="40.493317" lon="-5.196167">
        <ele>1558.0</ele>
        <time>2016-06-11T13:01:15Z</time>
      </trkpt>
      <trkpt lat="40.493400" lon="-5.196083">
        <ele>1557.0</ele>
        <time>2016-06-11T13:01:16Z</time>
      </trkpt>
      <trkpt lat="40.493467" lon="-5.196017">
        <ele>1556.0</ele>
        <time>2016-06-11T13:01:17Z</time>
      </trkpt>
      <trkpt lat="40.493550" lon="-5.195967">
        <ele>1555.0</ele>
        <time>2016-06-11T13:01:18Z</time>
      </trkpt>
      <trkpt lat="40.493617" lon="-5.195933">
        <ele>1554.0</ele>
        <time>2016-06-11T13:01:19Z</time>
      </trkpt>
      <trkpt lat="40.493683" lon="-5.195917">
        <ele>1553.0</ele>
        <time>2016-06-11T13:01:20Z</time>
      </trkpt>
      <trkpt lat="40.493750" lon="-5.195900">
        <ele>1552.0</ele>
        <time>2016-06-11T13:01:21Z</time>
      </trkpt>
      <trkpt lat="40.493817" lon="-5.195883">
        <ele>1551.0</ele>
        <time>2016-06-11T13:01:22Z</time>
      </trkpt>
      <trkpt lat="40.493883" lon="-5.195883">
        <ele>1550.0</ele>
        <time>2016-06-11T13:01:23Z</time>
      </trkpt>
      <trkpt lat="40.493950" lon="-5.195883">
        <ele>1549.0</ele>
        <time>2016-06-11T13:01:24Z</time>
      </trkpt>
      <trkpt lat="40.494000" lon="-5.195900">
        <ele>1549.0</ele>
        <time>2016-06-11T13:01:25Z</time>
      </trkpt>
      <trkpt lat="40.494050" lon="-5.195917">
        <ele>1548.0</ele>
        <time>2016-06-11T13:01:26Z</time>
      </trkpt>
      <trkpt lat="40.494100" lon="-5.195933">
        <ele>1547.0</ele>
        <time>2016-06-11T13:01:27Z</time>
      </trkpt>
      <trkpt lat="40.494167" lon="-5.195933">
        <ele>1547.0</ele>
        <time>2016-06-11T13:01:28Z</time>
      </trkpt>
      <trkpt lat="40.494233" lon="-5.195933">
        <ele>1547.0</ele>
        <time>2016-06-11T13:01:29Z</time>
      </trkpt>
      <trkpt lat="40.494300" lon="-5.195917">
        <ele>1547.0</ele>
        <time>2016-06-11T13:01:30Z</time>
      </trkpt>
      <trkpt lat="40.494367" lon="-5.195917">
        <ele>1547.0</ele>
        <time>2016-06-11T13:01:31Z</time>
      </trkpt>
      <trkpt lat="40.494417" lon="-5.195933">
        <ele>1547.0</ele>
        <time>2016-06-11T13:01:32Z</time>
      </trkpt>
      <trkpt lat="40.494467" lon="-5.195950">
        <ele>1547.0</ele>
        <time>2016-06-11T13:01:33Z</time>
      </trkpt>
      <trkpt lat="40.494517" lon="-5.195967">
        <ele>1548.0</ele>
        <time>2016-06-11T13:01:34Z</time>
      </trkpt>
      <trkpt lat="40.494583" lon="-5.195967">
        <ele>1548.0</ele>
        <time>2016-06-11T13:01:35Z</time>
      </trkpt>
      <trkpt lat="40.494667" lon="-5.195950">
        <ele>1548.0</ele>
        <time>2016-06-11T13:01:36Z</time>
      </trkpt>
      <trkpt lat="40.494733" lon="-5.195933">
        <ele>1548.0</ele>
        <time>2016-06-11T13:01:37Z</time>
      </trkpt>
      <trkpt lat="40.494800" lon="-5.195917">
        <ele>1548.0</ele>
        <time>2016-06-11T13:01:38Z</time>
      </trkpt>
      <trkpt lat="40.494867" lon="-5.195917">
        <ele>1548.0</ele>
        <time>2016-06-11T13:01:39Z</time>
      </trkpt>
      <trkpt lat="40.494917" lon="-5.195917">
        <ele>1548.0</ele>
        <time>2016-06-11T13:01:40Z</time>
      </trkpt>
      <trkpt lat="40.494983" lon="-5.195917">
        <ele>1548.0</ele>
        <time>2016-06-11T13:01:41Z</time>
      </trkpt>
      <trkpt lat="40.495017" lon="-5.195933">
        <ele>1548.0</ele>
        <time>2016-06-11T13:01:42Z</time>
      </trkpt>
      <trkpt lat="40.495050" lon="-5.195967">
        <ele>1548.0</ele>
        <time>2016-06-11T13:01:43Z</time>
      </trkpt>
      <trkpt lat="40.495067" lon="-5.196000">
        <ele>1547.0</ele>
        <time>2016-06-11T13:01:44Z</time>
      </trkpt>
      <trkpt lat="40.495100" lon="-5.196050">
        <ele>1547.0</ele>
        <time>2016-06-11T13:01:45Z</time>
      </trkpt>
      <trkpt lat="40.495117" lon="-5.196083">
        <ele>1548.0</ele>
        <time>2016-06-11T13:01:46Z</time>
      </trkpt>
      <trkpt lat="40.495133" lon="-5.196133">
        <ele>1549.0</ele>
        <time>2016-06-11T13:01:47Z</time>
      </trkpt>
      <trkpt lat="40.495133" lon="-5.196167">
        <ele>1549.0</ele>
        <time>2016-06-11T13:01:48Z</time>
      </trkpt>
      <trkpt lat="40.495133" lon="-5.196217">
        <ele>1549.0</ele>
        <time>2016-06-11T13:01:49Z</time>
      </trkpt>
      <trkpt lat="40.495133" lon="-5.196250">
        <ele>1549.0</ele>
        <time>2016-06-11T13:01:50Z</time>
      </trkpt>
      <trkpt lat="40.495150" lon="-5.196300">
        <ele>1549.0</ele>
        <time>2016-06-11T13:01:51Z</time>
      </trkpt>
      <trkpt lat="40.495167" lon="-5.196350">
        <ele>1549.0</ele>
        <time>2016-06-11T13:01:52Z</time>
      </trkpt>
      <trkpt lat="40.495183" lon="-5.196400">
        <ele>1549.0</ele>
        <time>2016-06-11T13:01:53Z</time>
      </trkpt>
      <trkpt lat="40.495200" lon="-5.196433">
        <ele>1550.0</ele>
        <time>2016-06-11T13:01:54Z</time>
      </trkpt>
      <trkpt lat="40.495217" lon="-5.196467">
        <ele>1550.0</ele>
        <time>2016-06-11T13:01:55Z</time>
      </trkpt>
      <trkpt lat="40.495217" lon="-5.196517">
        <ele>1549.0</ele>
        <time>2016-06-11T13:01:56Z</time>
      </trkpt>
      <trkpt lat="40.495233" lon="-5.196567">
        <ele>1549.0</ele>
        <time>2016-06-11T13:01:57Z</time>
      </trkpt>
      <trkpt lat="40.495250" lon="-5.196617">
        <ele>1548.0</ele>
        <time>2016-06-11T13:01:58Z</time>
      </trkpt>
      <trkpt lat="40.495267" lon="-5.196683">
        <ele>1548.0</ele>
        <time>2016-06-11T13:01:59Z</time>
      </trkpt>
      <trkpt lat="40.495283" lon="-5.196733">
        <ele>1548.0</ele>
        <time>2016-06-11T13:02:00Z</time>
      </trkpt>
      <trkpt lat="40.495300" lon="-5.196783">
        <ele>1548.0</ele>
        <time>2016-06-11T13:02:01Z</time>
      </trkpt>
      <trkpt lat="40.495317" lon="-5.196833">
        <ele>1548.0</ele>
        <time>2016-06-11T13:02:02Z</time>
      </trkpt>
      <trkpt lat="40.495333" lon="-5.196867">
        <ele>1548.0</ele>
        <time>2016-06-11T13:02:03Z</time>
      </trkpt>
      <trkpt lat="40.495350" lon="-5.196917">
        <ele>1547.0</ele>
        <time>2016-06-11T13:02:04Z</time>
      </trkpt>
      <trkpt lat="40.495367" lon="-5.196967">
        <ele>1546.0</ele>
        <time>2016-06-11T13:02:05Z</time>
      </trkpt>
      <trkpt lat="40.495383" lon="-5.197017">
        <ele>1545.0</ele>
        <time>2016-06-11T13:02:06Z</time>
      </trkpt>
      <trkpt lat="40.495417" lon="-5.197067">
        <ele>1544.0</ele>
        <time>2016-06-11T13:02:07Z</time>
      </trkpt>
      <trkpt lat="40.495433" lon="-5.197117">
        <ele>1544.0</ele>
        <time>2016-06-11T13:02:08Z</time>
      </trkpt>
      <trkpt lat="40.495450" lon="-5.197150">
        <ele>1544.0</ele>
        <time>2016-06-11T13:02:09Z</time>
      </trkpt>
      <trkpt lat="40.495483" lon="-5.197200">
        <ele>1544.0</ele>
        <time>2016-06-11T13:02:10Z</time>
      </trkpt>
      <trkpt lat="40.495517" lon="-5.197233">
        <ele>1543.0</ele>
        <time>2016-06-11T13:02:11Z</time>
      </trkpt>
      <trkpt lat="40.495550" lon="-5.197283">
        <ele>1543.0</ele>
        <time>2016-06-11T13:02:12Z</time>
      </trkpt>
      <trkpt lat="40.495567" lon="-5.197317">
        <ele>1542.0</ele>
        <time>2016-06-11T13:02:13Z</time>
      </trkpt>
      <trkpt lat="40.495600" lon="-5.197367">
        <ele>1542.0</ele>
        <time>2016-06-11T13:02:14Z</time>
      </trkpt>
      <trkpt lat="40.495617" lon="-5.197417">
        <ele>1542.0</ele>
        <time>2016-06-11T13:02:15Z</time>
      </trkpt>
      <trkpt lat="40.495633" lon="-5.197450">
        <ele>1542.0</ele>
        <time>2016-06-11T13:02:16Z</time>
      </trkpt>
      <trkpt lat="40.495650" lon="-5.197500">
        <ele>1541.0</ele>
        <time>2016-06-11T13:02:17Z</time>
      </trkpt>
      <trkpt lat="40.495667" lon="-5.197533">
        <ele>1541.0</ele>
        <time>2016-06-11T13:02:18Z</time>
      </trkpt>
      <trkpt lat="40.495683" lon="-5.197583">
        <ele>1540.0</ele>
        <time>2016-06-11T13:02:19Z</time>
      </trkpt>
      <trkpt lat="40.495717" lon="-5.197633">
        <ele>1540.0</ele>
        <time>2016-06-11T13:02:20Z</time>
      </trkpt>
      <trkpt lat="40.495733" lon="-5.197667">
        <ele>1540.0</ele>
        <time>2016-06-11T13:02:21Z</time>
      </trkpt>
      <trkpt lat="40.495767" lon="-5.197717">
        <ele>1539.0</ele>
        <time>2016-06-11T13:02:22Z</time>
      </trkpt>
      <trkpt lat="40.495800" lon="-5.197750">
        <ele>1538.0</ele>
        <time>2016-06-11T13:02:23Z</time>
      </trkpt>
      <trkpt lat="40.495833" lon="-5.197800">
        <ele>1537.0</ele>
        <time>2016-06-11T13:02:24Z</time>
      </trkpt>
      <trkpt lat="40.495883" lon="-5.197850">
        <ele>1536.0</ele>
        <time>2016-06-11T13:02:25Z</time>
      </trkpt>
      <trkpt lat="40.495933" lon="-5.197900">
        <ele>1536.0</ele>
        <time>2016-06-11T13:02:26Z</time>
      </trkpt>
      <trkpt lat="40.495967" lon="-5.197933">
        <ele>1535.0</ele>
        <time>2016-06-11T13:02:27Z</time>
      </trkpt>
      <trkpt lat="40.496017" lon="-5.197983">
        <ele>1534.0</ele>
        <time>2016-06-11T13:02:28Z</time>
      </trkpt>
      <trkpt lat="40.496067" lon="-5.198017">
        <ele>1533.0</ele>
        <time>2016-06-11T13:02:29Z</time>
      </trkpt>
      <trkpt lat="40.496133" lon="-5.198067">
        <ele>1532.0</ele>
        <time>2016-06-11T13:02:30Z</time>
      </trkpt>
      <trkpt lat="40.496183" lon="-5.198117">
        <ele>1532.0</ele>
        <time>2016-06-11T13:02:31Z</time>
      </trkpt>
      <trkpt lat="40.496250" lon="-5.198150">
        <ele>1532.0</ele>
        <time>2016-06-11T13:02:32Z</time>
      </trkpt>
      <trkpt lat="40.496300" lon="-5.198183">
        <ele>1533.0</ele>
        <time>2016-06-11T13:02:33Z</time>
      </trkpt>
      <trkpt lat="40.496350" lon="-5.198233">
        <ele>1533.0</ele>
        <time>2016-06-11T13:02:34Z</time>
      </trkpt>
      <trkpt lat="40.496400" lon="-5.198267">
        <ele>1532.0</ele>
        <time>2016-06-11T13:02:35Z</time>
      </trkpt>
      <trkpt lat="40.496433" lon="-5.198317">
        <ele>1531.0</ele>
        <time>2016-06-11T13:02:36Z</time>
      </trkpt>
      <trkpt lat="40.496483" lon="-5.198367">
        <ele>1530.0</ele>
        <time>2016-06-11T13:02:37Z</time>
      </trkpt>
      <trkpt lat="40.496550" lon="-5.198417">
        <ele>1529.0</ele>
        <time>2016-06-11T13:02:38Z</time>
      </trkpt>
      <trkpt lat="40.496600" lon="-5.198450">
        <ele>1528.0</ele>
        <time>2016-06-11T13:02:39Z</time>
      </trkpt>
      <trkpt lat="40.496633" lon="-5.198500">
        <ele>1528.0</ele>
        <time>2016-06-11T13:02:40Z</time>
      </trkpt>
      <trkpt lat="40.496683" lon="-5.198550">
        <ele>1527.0</ele>
        <time>2016-06-11T13:02:41Z</time>
      </trkpt>
      <trkpt lat="40.496717" lon="-5.198600">
        <ele>1527.0</ele>
        <time>2016-06-11T13:02:42Z</time>
      </trkpt>
      <trkpt lat="40.496750" lon="-5.198650">
        <ele>1526.0</ele>
        <time>2016-06-11T13:02:43Z</time>
      </trkpt>
      <trkpt lat="40.496783" lon="-5.198700">
        <ele>1526.0</ele>
        <time>2016-06-11T13:02:44Z</time>
      </trkpt>
      <trkpt lat="40.496817" lon="-5.198750">
        <ele>1526.0</ele>
        <time>2016-06-11T13:02:45Z</time>
      </trkpt>
      <trkpt lat="40.496850" lon="-5.198817">
        <ele>1527.0</ele>
        <time>2016-06-11T13:02:46Z</time>
      </trkpt>
      <trkpt lat="40.496883" lon="-5.198850">
        <ele>1528.0</ele>
        <time>2016-06-11T13:02:47Z</time>
      </trkpt>
      <trkpt lat="40.496917" lon="-5.198900">
        <ele>1528.0</ele>
        <time>2016-06-11T13:02:48Z</time>
      </trkpt>
      <trkpt lat="40.496950" lon="-5.198933">
        <ele>1528.0</ele>
        <time>2016-06-11T13:02:49Z</time>
      </trkpt>
      <trkpt lat="40.496983" lon="-5.198983">
        <ele>1527.0</ele>
        <time>2016-06-11T13:02:50Z</time>
      </trkpt>
      <trkpt lat="40.497017" lon="-5.199050">
        <ele>1525.0</ele>
        <time>2016-06-11T13:02:51Z</time>
      </trkpt>
      <trkpt lat="40.497067" lon="-5.199117">
        <ele>1525.0</ele>
        <time>2016-06-11T13:02:52Z</time>
      </trkpt>
      <trkpt lat="40.497100" lon="-5.199183">
        <ele>1525.0</ele>
        <time>2016-06-11T13:02:53Z</time>
      </trkpt>
      <trkpt lat="40.497133" lon="-5.199233">
        <ele>1526.0</ele>
        <time>2016-06-11T13:02:54Z</time>
      </trkpt>
      <trkpt lat="40.497183" lon="-5.199283">
        <ele>1527.0</ele>
        <time>2016-06-11T13:02:55Z</time>
      </trkpt>
      <trkpt lat="40.497217" lon="-5.199333">
        <ele>1527.0</ele>
        <time>2016-06-11T13:02:56Z</time>
      </trkpt>
      <trkpt lat="40.497250" lon="-5.199383">
        <ele>1527.0</ele>
        <time>2016-06-11T13:02:57Z</time>
      </trkpt>
      <trkpt lat="40.497300" lon="-5.199417">
        <ele>1527.0</ele>
        <time>2016-06-11T13:02:58Z</time>
      </trkpt>
      <trkpt lat="40.497350" lon="-5.199467">
        <ele>1526.0</ele>
        <time>2016-06-11T13:02:59Z</time>
      </trkpt>
      <trkpt lat="40.497383" lon="-5.199500">
        <ele>1526.0</ele>
        <time>2016-06-11T13:03:00Z</time>
      </trkpt>
      <trkpt lat="40.497433" lon="-5.199517">
        <ele>1527.0</ele>
        <time>2016-06-11T13:03:01Z</time>
      </trkpt>
      <trkpt lat="40.497467" lon="-5.199550">
        <ele>1526.0</ele>
        <time>2016-06-11T13:03:02Z</time>
      </trkpt>
      <trkpt lat="40.497517" lon="-5.199583">
        <ele>1526.0</ele>
        <time>2016-06-11T13:03:03Z</time>
      </trkpt>
      <trkpt lat="40.497550" lon="-5.199617">
        <ele>1525.0</ele>
        <time>2016-06-11T13:03:04Z</time>
      </trkpt>
      <trkpt lat="40.497583" lon="-5.199667">
        <ele>1525.0</ele>
        <time>2016-06-11T13:03:05Z</time>
      </trkpt>
      <trkpt lat="40.497633" lon="-5.199733">
        <ele>1525.0</ele>
        <time>2016-06-11T13:03:06Z</time>
      </trkpt>
      <trkpt lat="40.497667" lon="-5.199783">
        <ele>1526.0</ele>
        <time>2016-06-11T13:03:07Z</time>
      </trkpt>
      <trkpt lat="40.497700" lon="-5.199817">
        <ele>1527.0</ele>
        <time>2016-06-11T13:03:08Z</time>
      </trkpt>
      <trkpt lat="40.497733" lon="-5.199867">
        <ele>1528.0</ele>
        <time>2016-06-11T13:03:09Z</time>
      </trkpt>
      <trkpt lat="40.497767" lon="-5.199900">
        <ele>1528.0</ele>
        <time>2016-06-11T13:03:10Z</time>
      </trkpt>
      <trkpt lat="40.497817" lon="-5.199933">
        <ele>1528.0</ele>
        <time>2016-06-11T13:03:11Z</time>
      </trkpt>
      <trkpt lat="40.497850" lon="-5.199967">
        <ele>1528.0</ele>
        <time>2016-06-11T13:03:12Z</time>
      </trkpt>
      <trkpt lat="40.497900" lon="-5.199983">
        <ele>1529.0</ele>
        <time>2016-06-11T13:03:13Z</time>
      </trkpt>
      <trkpt lat="40.497950" lon="-5.200000">
        <ele>1529.0</ele>
        <time>2016-06-11T13:03:14Z</time>
      </trkpt>
      <trkpt lat="40.498000" lon="-5.200017">
        <ele>1529.0</ele>
        <time>2016-06-11T13:03:15Z</time>
      </trkpt>
      <trkpt lat="40.498067" lon="-5.200017">
        <ele>1530.0</ele>
        <time>2016-06-11T13:03:16Z</time>
      </trkpt>
      <trkpt lat="40.498117" lon="-5.200000">
        <ele>1530.0</ele>
        <time>2016-06-11T13:03:17Z</time>
      </trkpt>
      <trkpt lat="40.498167" lon="-5.199983">
        <ele>1530.0</ele>
        <time>2016-06-11T13:03:18Z</time>
      </trkpt>
      <trkpt lat="40.498217" lon="-5.199967">
        <ele>1529.0</ele>
        <time>2016-06-11T13:03:19Z</time>
      </trkpt>
      <trkpt lat="40.498283" lon="-5.199933">
        <ele>1529.0</ele>
        <time>2016-06-11T13:03:20Z</time>
      </trkpt>
      <trkpt lat="40.498333" lon="-5.199900">
        <ele>1528.0</ele>
        <time>2016-06-11T13:03:21Z</time>
      </trkpt>
      <trkpt lat="40.498400" lon="-5.199850">
        <ele>1527.0</ele>
        <time>2016-06-11T13:03:22Z</time>
      </trkpt>
      <trkpt lat="40.498467" lon="-5.199800">
        <ele>1527.0</ele>
        <time>2016-06-11T13:03:23Z</time>
      </trkpt>
      <trkpt lat="40.498533" lon="-5.199767">
        <ele>1527.0</ele>
        <time>2016-06-11T13:03:24Z</time>
      </trkpt>
      <trkpt lat="40.498583" lon="-5.199717">
        <ele>1527.0</ele>
        <time>2016-06-11T13:03:25Z</time>
      </trkpt>
      <trkpt lat="40.498650" lon="-5.199650">
        <ele>1527.0</ele>
        <time>2016-06-11T13:03:26Z</time>
      </trkpt>
      <trkpt lat="40.498700" lon="-5.199583">
        <ele>1526.0</ele>
        <time>2016-06-11T13:03:27Z</time>
      </trkpt>
      <trkpt lat="40.498767" lon="-5.199500">
        <ele>1526.0</ele>
        <time>2016-06-11T13:03:28Z</time>
      </trkpt>
      <trkpt lat="40.498817" lon="-5.199433">
        <ele>1525.0</ele>
        <time>2016-06-11T13:03:29Z</time>
      </trkpt>
      <trkpt lat="40.498900" lon="-5.199367">
        <ele>1525.0</ele>
        <time>2016-06-11T13:03:30Z</time>
      </trkpt>
      <trkpt lat="40.498967" lon="-5.199317">
        <ele>1526.0</ele>
        <time>2016-06-11T13:03:31Z</time>
      </trkpt>
      <trkpt lat="40.499033" lon="-5.199250">
        <ele>1526.0</ele>
        <time>2016-06-11T13:03:32Z</time>
      </trkpt>
      <trkpt lat="40.499100" lon="-5.199200">
        <ele>1526.0</ele>
        <time>2016-06-11T13:03:33Z</time>
      </trkpt>
      <trkpt lat="40.499183" lon="-5.199167">
        <ele>1526.0</ele>
        <time>2016-06-11T13:03:34Z</time>
      </trkpt>
      <trkpt lat="40.499250" lon="-5.199133">
        <ele>1527.0</ele>
        <time>2016-06-11T13:03:35Z</time>
      </trkpt>
      <trkpt lat="40.499317" lon="-5.199067">
        <ele>1528.0</ele>
        <time>2016-06-11T13:03:36Z</time>
      </trkpt>
      <trkpt lat="40.499400" lon="-5.199017">
        <ele>1529.0</ele>
        <time>2016-06-11T13:03:37Z</time>
      </trkpt>
      <trkpt lat="40.499467" lon="-5.198967">
        <ele>1531.0</ele>
        <time>2016-06-11T13:03:38Z</time>
      </trkpt>
      <trkpt lat="40.499533" lon="-5.198933">
        <ele>1533.0</ele>
        <time>2016-06-11T13:03:39Z</time>
      </trkpt>
      <trkpt lat="40.499600" lon="-5.198917">
        <ele>1536.0</ele>
        <time>2016-06-11T13:03:40Z</time>
      </trkpt>
      <trkpt lat="40.499667" lon="-5.198867">
        <ele>1539.0</ele>
        <time>2016-06-11T13:03:41Z</time>
      </trkpt>
      <trkpt lat="40.499717" lon="-5.198800">
        <ele>1542.0</ele>
        <time>2016-06-11T13:03:42Z</time>
      </trkpt>
      <trkpt lat="40.499783" lon="-5.198733">
        <ele>1543.0</ele>
        <time>2016-06-11T13:03:43Z</time>
      </trkpt>
      <trkpt lat="40.499850" lon="-5.198700">
        <ele>1544.0</ele>
        <time>2016-06-11T13:03:44Z</time>
      </trkpt>
      <trkpt lat="40.499933" lon="-5.198683">
        <ele>1544.0</ele>
        <time>2016-06-11T13:03:45Z</time>
      </trkpt>
      <trkpt lat="40.500000" lon="-5.198700">
        <ele>1545.0</ele>
        <time>2016-06-11T13:03:46Z</time>
      </trkpt>
      <trkpt lat="40.500050" lon="-5.198733">
        <ele>1547.0</ele>
        <time>2016-06-11T13:03:47Z</time>
      </trkpt>
      <trkpt lat="40.500100" lon="-5.198783">
        <ele>1549.0</ele>
        <time>2016-06-11T13:03:48Z</time>
      </trkpt>
      <trkpt lat="40.500150" lon="-5.198817">
        <ele>1549.0</ele>
        <time>2016-06-11T13:03:49Z</time>
      </trkpt>
      <trkpt lat="40.500183" lon="-5.198833">
        <ele>1550.0</ele>
        <time>2016-06-11T13:03:50Z</time>
      </trkpt>
      <trkpt lat="40.500200" lon="-5.198867">
        <ele>1549.0</ele>
        <time>2016-06-11T13:03:51Z</time>
      </trkpt>
      <trkpt lat="40.500200" lon="-5.198900">
        <ele>1547.0</ele>
        <time>2016-06-11T13:03:52Z</time>
      </trkpt>
      <trkpt lat="40.500200" lon="-5.198950">
        <ele>1547.0</ele>
        <time>2016-06-11T13:03:53Z</time>
      </trkpt>
      <trkpt lat="40.500150" lon="-5.198983">
        <ele>1546.0</ele>
        <time>2016-06-11T13:03:54Z</time>
      </trkpt>
      <trkpt lat="40.500100" lon="-5.199017">
        <ele>1546.0</ele>
        <time>2016-06-11T13:03:55Z</time>
      </trkpt>
      <trkpt lat="40.500067" lon="-5.199017">
        <ele>1545.0</ele>
        <time>2016-06-11T13:03:56Z</time>
      </trkpt>
      <trkpt lat="40.500033" lon="-5.199050">
        <ele>1545.0</ele>
        <time>2016-06-11T13:03:57Z</time>
      </trkpt>
      <trkpt lat="40.500000" lon="-5.199067">
        <ele>1543.0</ele>
        <time>2016-06-11T13:03:58Z</time>
      </trkpt>
      <trkpt lat="40.499950" lon="-5.199083">
        <ele>1541.0</ele>
        <time>2016-06-11T13:03:59Z</time>
      </trkpt>
      <trkpt lat="40.499900" lon="-5.199067">
        <ele>1540.0</ele>
        <time>2016-06-11T13:04:00Z</time>
      </trkpt>
      <trkpt lat="40.499833" lon="-5.199050">
        <ele>1539.0</ele>
        <time>2016-06-11T13:04:01Z</time>
      </trkpt>
      <trkpt lat="40.499783" lon="-5.199033">
        <ele>1539.0</ele>
        <time>2016-06-11T13:04:02Z</time>
      </trkpt>
      <trkpt lat="40.499733" lon="-5.199033">
        <ele>1538.0</ele>
        <time>2016-06-11T13:04:03Z</time>
      </trkpt>
      <trkpt lat="40.499667" lon="-5.199033">
        <ele>1538.0</ele>
        <time>2016-06-11T13:04:04Z</time>
      </trkpt>
      <trkpt lat="40.499617" lon="-5.199067">
        <ele>1540.0</ele>
        <time>2016-06-11T13:04:05Z</time>
      </trkpt>
      <trkpt lat="40.499567" lon="-5.199067">
        <ele>1542.0</ele>
        <time>2016-06-11T13:04:06Z</time>
      </trkpt>
      <trkpt lat="40.499550" lon="-5.199083">
        <ele>1543.0</ele>
        <time>2016-06-11T13:04:07Z</time>
      </trkpt>
      <trkpt lat="40.499517" lon="-5.199100">
        <ele>1544.0</ele>
        <time>2016-06-11T13:04:08Z</time>
      </trkpt>
      <trkpt lat="40.499483" lon="-5.199133">
        <ele>1543.0</ele>
        <time>2016-06-11T13:04:09Z</time>
      </trkpt>
      <trkpt lat="40.499450" lon="-5.199167">
        <ele>1540.0</ele>
        <time>2016-06-11T13:04:10Z</time>
      </trkpt>
      <trkpt lat="40.499400" lon="-5.199200">
        <ele>1539.0</ele>
        <time>2016-06-11T13:04:11Z</time>
      </trkpt>
      <trkpt lat="40.499350" lon="-5.199217">
        <ele>1538.0</ele>
        <time>2016-06-11T13:04:12Z</time>
      </trkpt>
      <trkpt lat="40.499283" lon="-5.199217">
        <ele>1537.0</ele>
        <time>2016-06-11T13:04:13Z</time>
      </trkpt>
      <trkpt lat="40.499217" lon="-5.199183">
        <ele>1536.0</ele>
        <time>2016-06-11T13:04:14Z</time>
      </trkpt>
      <trkpt lat="40.499167" lon="-5.199167">
        <ele>1534.0</ele>
        <time>2016-06-11T13:04:15Z</time>
      </trkpt>
      <trkpt lat="40.499133" lon="-5.199200">
        <ele>1530.0</ele>
        <time>2016-06-11T13:04:16Z</time>
      </trkpt>
      <trkpt lat="40.499117" lon="-5.199250">
        <ele>1526.0</ele>
        <time>2016-06-11T13:04:17Z</time>
      </trkpt>
      <trkpt lat="40.499133" lon="-5.199333">
        <ele>1522.0</ele>
        <time>2016-06-11T13:04:18Z</time>
      </trkpt>
      <trkpt lat="40.499167" lon="-5.199400">
        <ele>1520.0</ele>
        <time>2016-06-11T13:04:19Z</time>
      </trkpt>
      <trkpt lat="40.499233" lon="-5.199433">
        <ele>1518.0</ele>
        <time>2016-06-11T13:04:20Z</time>
      </trkpt>
      <trkpt lat="40.499317" lon="-5.199400">
        <ele>1516.0</ele>
        <time>2016-06-11T13:04:21Z</time>
      </trkpt>
      <trkpt lat="40.499400" lon="-5.199350">
        <ele>1513.0</ele>
        <time>2016-06-11T13:04:22Z</time>
      </trkpt>
      <trkpt lat="40.499483" lon="-5.199267">
        <ele>1511.0</ele>
        <time>2016-06-11T13:04:23Z</time>
      </trkpt>
      <trkpt lat="40.499550" lon="-5.199167">
        <ele>1508.0</ele>
        <time>2016-06-11T13:04:24Z</time>
      </trkpt>
      <trkpt lat="40.499633" lon="-5.199100">
        <ele>1506.0</ele>
        <time>2016-06-11T13:04:25Z</time>
      </trkpt>
      <trkpt lat="40.499717" lon="-5.199017">
        <ele>1504.0</ele>
        <time>2016-06-11T13:04:26Z</time>
      </trkpt>
      <trkpt lat="40.499800" lon="-5.198933">
        <ele>1502.0</ele>
        <time>2016-06-11T13:04:27Z</time>
      </trkpt>
      <trkpt lat="40.499883" lon="-5.198833">
        <ele>1500.0</ele>
        <time>2016-06-11T13:04:28Z</time>
      </trkpt>
      <trkpt lat="40.499967" lon="-5.198733">
        <ele>1499.0</ele>
        <time>2016-06-11T13:04:29Z</time>
      </trkpt>
      <trkpt lat="40.500050" lon="-5.198633">
        <ele>1499.0</ele>
        <time>2016-06-11T13:04:30Z</time>
      </trkpt>
      <trkpt lat="40.500117" lon="-5.198533">
        <ele>1498.0</ele>
        <time>2016-06-11T13:04:31Z</time>
      </trkpt>
      <trkpt lat="40.500183" lon="-5.198417">
        <ele>1497.0</ele>
        <time>2016-06-11T13:04:32Z</time>
      </trkpt>
      <trkpt lat="40.500250" lon="-5.198317">
        <ele>1495.0</ele>
        <time>2016-06-11T13:04:33Z</time>
      </trkpt>
      <trkpt lat="40.500317" lon="-5.198233">
        <ele>1493.0</ele>
        <time>2016-06-11T13:04:34Z</time>
      </trkpt>
      <trkpt lat="40.500400" lon="-5.198150">
        <ele>1490.0</ele>
        <time>2016-06-11T13:04:35Z</time>
      </trkpt>
      <trkpt lat="40.500483" lon="-5.198067">
        <ele>1488.0</ele>
        <time>2016-06-11T13:04:36Z</time>
      </trkpt>
      <trkpt lat="40.500567" lon="-5.198000">
        <ele>1487.0</ele>
        <time>2016-06-11T13:04:37Z</time>
      </trkpt>
      <trkpt lat="40.500650" lon="-5.197950">
        <ele>1485.0</ele>
        <time>2016-06-11T13:04:38Z</time>
      </trkpt>
      <trkpt lat="40.500733" lon="-5.197900">
        <ele>1483.0</ele>
        <time>2016-06-11T13:04:39Z</time>
      </trkpt>
      <trkpt lat="40.500817" lon="-5.197850">
        <ele>1482.0</ele>
        <time>2016-06-11T13:04:40Z</time>
      </trkpt>
      <trkpt lat="40.500900" lon="-5.197783">
        <ele>1480.0</ele>
        <time>2016-06-11T13:04:41Z</time>
      </trkpt>
      <trkpt lat="40.500983" lon="-5.197717">
        <ele>1478.0</ele>
        <time>2016-06-11T13:04:42Z</time>
      </trkpt>
      <trkpt lat="40.501083" lon="-5.197667">
        <ele>1474.0</ele>
        <time>2016-06-11T13:04:43Z</time>
      </trkpt>
      <trkpt lat="40.501167" lon="-5.197617">
        <ele>1471.0</ele>
        <time>2016-06-11T13:04:44Z</time>
      </trkpt>
      <trkpt lat="40.501267" lon="-5.197583">
        <ele>1469.0</ele>
        <time>2016-06-11T13:04:45Z</time>
      </trkpt>
      <trkpt lat="40.501350" lon="-5.197550">
        <ele>1468.0</ele>
        <time>2016-06-11T13:04:46Z</time>
      </trkpt>
      <trkpt lat="40.501417" lon="-5.197500">
        <ele>1467.0</ele>
        <time>2016-06-11T13:04:47Z</time>
      </trkpt>
      <trkpt lat="40.501500" lon="-5.197450">
        <ele>1466.0</ele>
        <time>2016-06-11T13:04:48Z</time>
      </trkpt>
      <trkpt lat="40.501567" lon="-5.197400">
        <ele>1463.0</ele>
        <time>2016-06-11T13:04:49Z</time>
      </trkpt>
      <trkpt lat="40.501650" lon="-5.197367">
        <ele>1460.0</ele>
        <time>2016-06-11T13:04:50Z</time>
      </trkpt>
      <trkpt lat="40.501750" lon="-5.197317">
        <ele>1458.0</ele>
        <time>2016-06-11T13:04:51Z</time>
      </trkpt>
      <trkpt lat="40.501850" lon="-5.197283">
        <ele>1456.0</ele>
        <time>2016-06-11T13:04:52Z</time>
      </trkpt>
      <trkpt lat="40.501933" lon="-5.197250">
        <ele>1454.0</ele>
        <time>2016-06-11T13:04:53Z</time>
      </trkpt>
      <trkpt lat="40.502017" lon="-5.197200">
        <ele>1453.0</ele>
        <time>2016-06-11T13:04:54Z</time>
      </trkpt>
      <trkpt lat="40.502117" lon="-5.197167">
        <ele>1451.0</ele>
        <time>2016-06-11T13:04:55Z</time>
      </trkpt>
      <trkpt lat="40.502200" lon="-5.197117">
        <ele>1449.0</ele>
        <time>2016-06-11T13:04:56Z</time>
      </trkpt>
      <trkpt lat="40.502300" lon="-5.197083">
        <ele>1448.0</ele>
        <time>2016-06-11T13:04:57Z</time>
      </trkpt>
      <trkpt lat="40.502383" lon="-5.197050">
        <ele>1447.0</ele>
        <time>2016-06-11T13:04:58Z</time>
      </trkpt>
      <trkpt lat="40.502467" lon="-5.197017">
        <ele>1446.0</ele>
        <time>2016-06-11T13:04:59Z</time>
      </trkpt>
      <trkpt lat="40.502567" lon="-5.196983">
        <ele>1446.0</ele>
        <time>2016-06-11T13:05:00Z</time>
      </trkpt>
      <trkpt lat="40.502650" lon="-5.196933">
        <ele>1446.0</ele>
        <time>2016-06-11T13:05:01Z</time>
      </trkpt>
      <trkpt lat="40.502733" lon="-5.196883">
        <ele>1446.0</ele>
        <time>2016-06-11T13:05:02Z</time>
      </trkpt>
      <trkpt lat="40.502800" lon="-5.196817">
        <ele>1446.0</ele>
        <time>2016-06-11T13:05:03Z</time>
      </trkpt>
      <trkpt lat="40.502883" lon="-5.196767">
        <ele>1445.0</ele>
        <time>2016-06-11T13:05:04Z</time>
      </trkpt>
      <trkpt lat="40.502967" lon="-5.196700">
        <ele>1444.0</ele>
        <time>2016-06-11T13:05:05Z</time>
      </trkpt>
      <trkpt lat="40.503050" lon="-5.196633">
        <ele>1444.0</ele>
        <time>2016-06-11T13:05:06Z</time>
      </trkpt>
      <trkpt lat="40.503117" lon="-5.196567">
        <ele>1444.0</ele>
        <time>2016-06-11T13:05:07Z</time>
      </trkpt>
      <trkpt lat="40.503183" lon="-5.196500">
        <ele>1443.0</ele>
        <time>2016-06-11T13:05:08Z</time>
      </trkpt>
      <trkpt lat="40.503250" lon="-5.196417">
        <ele>1443.0</ele>
        <time>2016-06-11T13:05:09Z</time>
      </trkpt>
      <trkpt lat="40.503317" lon="-5.196350">
        <ele>1442.0</ele>
        <time>2016-06-11T13:05:10Z</time>
      </trkpt>
      <trkpt lat="40.503383" lon="-5.196267">
        <ele>1442.0</ele>
        <time>2016-06-11T13:05:11Z</time>
      </trkpt>
      <trkpt lat="40.503467" lon="-5.196183">
        <ele>1440.0</ele>
        <time>2016-06-11T13:05:12Z</time>
      </trkpt>
      <trkpt lat="40.503533" lon="-5.196100">
        <ele>1439.0</ele>
        <time>2016-06-11T13:05:13Z</time>
      </trkpt>
      <trkpt lat="40.503617" lon="-5.196033">
        <ele>1439.0</ele>
        <time>2016-06-11T13:05:14Z</time>
      </trkpt>
      <trkpt lat="40.503683" lon="-5.195967">
        <ele>1438.0</ele>
        <time>2016-06-11T13:05:15Z</time>
      </trkpt>
      <trkpt lat="40.503767" lon="-5.195900">
        <ele>1437.0</ele>
        <time>2016-06-11T13:05:16Z</time>
      </trkpt>
      <trkpt lat="40.503833" lon="-5.195867">
        <ele>1435.0</ele>
        <time>2016-06-11T13:05:17Z</time>
      </trkpt>
      <trkpt lat="40.503933" lon="-5.195833">
        <ele>1434.0</ele>
        <time>2016-06-11T13:05:18Z</time>
      </trkpt>
      <trkpt lat="40.504017" lon="-5.195817">
        <ele>1433.0</ele>
        <time>2016-06-11T13:05:19Z</time>
      </trkpt>
      <trkpt lat="40.504100" lon="-5.195783">
        <ele>1432.0</ele>
        <time>2016-06-11T13:05:20Z</time>
      </trkpt>
      <trkpt lat="40.504183" lon="-5.195750">
        <ele>1432.0</ele>
        <time>2016-06-11T13:05:21Z</time>
      </trkpt>
      <trkpt lat="40.504250" lon="-5.195700">
        <ele>1431.0</ele>
        <time>2016-06-11T13:05:22Z</time>
      </trkpt>
      <trkpt lat="40.504333" lon="-5.195650">
        <ele>1429.0</ele>
        <time>2016-06-11T13:05:23Z</time>
      </trkpt>
      <trkpt lat="40.504417" lon="-5.195600">
        <ele>1428.0</ele>
        <time>2016-06-11T13:05:24Z</time>
      </trkpt>
      <trkpt lat="40.504500" lon="-5.195550">
        <ele>1428.0</ele>
        <time>2016-06-11T13:05:25Z</time>
      </trkpt>
      <trkpt lat="40.504567" lon="-5.195483">
        <ele>1428.0</ele>
        <time>2016-06-11T13:05:26Z</time>
      </trkpt>
      <trkpt lat="40.504617" lon="-5.195417">
        <ele>1429.0</ele>
        <time>2016-06-11T13:05:27Z</time>
      </trkpt>
      <trkpt lat="40.504683" lon="-5.195350">
        <ele>1428.0</ele>
        <time>2016-06-11T13:05:28Z</time>
      </trkpt>
      <trkpt lat="40.504733" lon="-5.195267">
        <ele>1427.0</ele>
        <time>2016-06-11T13:05:29Z</time>
      </trkpt>
      <trkpt lat="40.504800" lon="-5.195200">
        <ele>1424.0</ele>
        <time>2016-06-11T13:05:30Z</time>
      </trkpt>
      <trkpt lat="40.504867" lon="-5.195117">
        <ele>1422.0</ele>
        <time>2016-06-11T13:05:31Z</time>
      </trkpt>
      <trkpt lat="40.504950" lon="-5.195033">
        <ele>1421.0</ele>
        <time>2016-06-11T13:05:32Z</time>
      </trkpt>
      <trkpt lat="40.505017" lon="-5.194967">
        <ele>1420.0</ele>
        <time>2016-06-11T13:05:33Z</time>
      </trkpt>
      <trkpt lat="40.505100" lon="-5.194950">
        <ele>1419.0</ele>
        <time>2016-06-11T13:05:34Z</time>
      </trkpt>
      <trkpt lat="40.505167" lon="-5.194950">
        <ele>1417.0</ele>
        <time>2016-06-11T13:05:35Z</time>
      </trkpt>
      <trkpt lat="40.505233" lon="-5.195017">
        <ele>1413.0</ele>
        <time>2016-06-11T13:05:36Z</time>
      </trkpt>
      <trkpt lat="40.505267" lon="-5.195100">
        <ele>1410.0</ele>
        <time>2016-06-11T13:05:37Z</time>
      </trkpt>
      <trkpt lat="40.505250" lon="-5.195200">
        <ele>1408.0</ele>
        <time>2016-06-11T13:05:38Z</time>
      </trkpt>
      <trkpt lat="40.505217" lon="-5.195283">
        <ele>1407.0</ele>
        <time>2016-06-11T13:05:39Z</time>
      </trkpt>
      <trkpt lat="40.505183" lon="-5.195350">
        <ele>1406.0</ele>
        <time>2016-06-11T13:05:40Z</time>
      </trkpt>
      <trkpt lat="40.505167" lon="-5.195400">
        <ele>1405.0</ele>
        <time>2016-06-11T13:05:41Z</time>
      </trkpt>
      <trkpt lat="40.505150" lon="-5.195483">
        <ele>1404.0</ele>
        <time>2016-06-11T13:05:42Z</time>
      </trkpt>
      <trkpt lat="40.505133" lon="-5.195550">
        <ele>1402.0</ele>
        <time>2016-06-11T13:05:43Z</time>
      </trkpt>
      <trkpt lat="40.505117" lon="-5.195650">
        <ele>1401.0</ele>
        <time>2016-06-11T13:05:44Z</time>
      </trkpt>
      <trkpt lat="40.505083" lon="-5.195733">
        <ele>1400.0</ele>
        <time>2016-06-11T13:05:45Z</time>
      </trkpt>
      <trkpt lat="40.505033" lon="-5.195800">
        <ele>1401.0</ele>
        <time>2016-06-11T13:05:46Z</time>
      </trkpt>
      <trkpt lat="40.505017" lon="-5.195850">
        <ele>1401.0</ele>
        <time>2016-06-11T13:05:47Z</time>
      </trkpt>
      <trkpt lat="40.505017" lon="-5.195917">
        <ele>1400.0</ele>
        <time>2016-06-11T13:05:48Z</time>
      </trkpt>
      <trkpt lat="40.505000" lon="-5.195983">
        <ele>1398.0</ele>
        <time>2016-06-11T13:05:49Z</time>
      </trkpt>
      <trkpt lat="40.504983" lon="-5.196083">
        <ele>1396.0</ele>
        <time>2016-06-11T13:05:50Z</time>
      </trkpt>
      <trkpt lat="40.504967" lon="-5.196183">
        <ele>1395.0</ele>
        <time>2016-06-11T13:05:51Z</time>
      </trkpt>
      <trkpt lat="40.504950" lon="-5.196267">
        <ele>1397.0</ele>
        <time>2016-06-11T13:05:52Z</time>
      </trkpt>
      <trkpt lat="40.504950" lon="-5.196333">
        <ele>1398.0</ele>
        <time>2016-06-11T13:05:53Z</time>
      </trkpt>
      <trkpt lat="40.504933" lon="-5.196383">
        <ele>1398.0</ele>
        <time>2016-06-11T13:05:54Z</time>
      </trkpt>
      <trkpt lat="40.504933" lon="-5.196450">
        <ele>1397.0</ele>
        <time>2016-06-11T13:05:55Z</time>
      </trkpt>
      <trkpt lat="40.504933" lon="-5.196500">
        <ele>1396.0</ele>
        <time>2016-06-11T13:05:56Z</time>
      </trkpt>
      <trkpt lat="40.504933" lon="-5.196567">
        <ele>1394.0</ele>
        <time>2016-06-11T13:05:57Z</time>
      </trkpt>
      <trkpt lat="40.504933" lon="-5.196633">
        <ele>1392.0</ele>
        <time>2016-06-11T13:05:58Z</time>
      </trkpt>
      <trkpt lat="40.504917" lon="-5.196717">
        <ele>1392.0</ele>
        <time>2016-06-11T13:05:59Z</time>
      </trkpt>
      <trkpt lat="40.504917" lon="-5.196783">
        <ele>1394.0</ele>
        <time>2016-06-11T13:06:00Z</time>
      </trkpt>
      <trkpt lat="40.504900" lon="-5.196833">
        <ele>1396.0</ele>
        <time>2016-06-11T13:06:01Z</time>
      </trkpt>
      <trkpt lat="40.504883" lon="-5.196833">
        <ele>1399.0</ele>
        <time>2016-06-11T13:06:02Z</time>
      </trkpt>
      <trkpt lat="40.504883" lon="-5.196833">
        <ele>1399.0</ele>
        <time>2016-06-11T13:06:03Z</time>
      </trkpt>
      <trkpt lat="40.504883" lon="-5.196833">
        <ele>1399.0</ele>
        <time>2016-06-11T13:06:04Z</time>
      </trkpt>
      <trkpt lat="40.504900" lon="-5.196850">
        <ele>1397.0</ele>
        <time>2016-06-11T13:06:05Z</time>
      </trkpt>
      <trkpt lat="40.504917" lon="-5.196900">
        <ele>1396.0</ele>
        <time>2016-06-11T13:06:06Z</time>
      </trkpt>
      <trkpt lat="40.504950" lon="-5.196933">
        <ele>1394.0</ele>
        <time>2016-06-11T13:06:07Z</time>
      </trkpt>
      <trkpt lat="40.505000" lon="-5.196950">
        <ele>1397.0</ele>
        <time>2016-06-11T13:06:08Z</time>
      </trkpt>
      <trkpt lat="40.505033" lon="-5.196967">
        <ele>1399.0</ele>
        <time>2016-06-11T13:06:09Z</time>
      </trkpt>
      <trkpt lat="40.505050" lon="-5.196983">
        <ele>1398.0</ele>
        <time>2016-06-11T13:06:10Z</time>
      </trkpt>
      <trkpt lat="40.505083" lon="-5.197017">
        <ele>1397.0</ele>
        <time>2016-06-11T13:06:11Z</time>
      </trkpt>
      <trkpt lat="40.505117" lon="-5.197067">
        <ele>1397.0</ele>
        <time>2016-06-11T13:06:12Z</time>
      </trkpt>
      <trkpt lat="40.505133" lon="-5.197117">
        <ele>1398.0</ele>
        <time>2016-06-11T13:06:13Z</time>
      </trkpt>
      <trkpt lat="40.505150" lon="-5.197167">
        <ele>1399.0</ele>
        <time>2016-06-11T13:06:14Z</time>
      </trkpt>
      <trkpt lat="40.505150" lon="-5.197200">
        <ele>1400.0</ele>
        <time>2016-06-11T13:06:15Z</time>
      </trkpt>
      <trkpt lat="40.505150" lon="-5.197233">
        <ele>1401.0</ele>
        <time>2016-06-11T13:06:16Z</time>
      </trkpt>
      <trkpt lat="40.505150" lon="-5.197267">
        <ele>1401.0</ele>
        <time>2016-06-11T13:06:17Z</time>
      </trkpt>
      <trkpt lat="40.505150" lon="-5.197283">
        <ele>1401.0</ele>
        <time>2016-06-11T13:06:18Z</time>
      </trkpt>
      <trkpt lat="40.505167" lon="-5.197317">
        <ele>1400.0</ele>
        <time>2016-06-11T13:06:19Z</time>
      </trkpt>
      <trkpt lat="40.505167" lon="-5.197367">
        <ele>1399.0</ele>
        <time>2016-06-11T13:06:20Z</time>
      </trkpt>
      <trkpt lat="40.505167" lon="-5.197417">
        <ele>1400.0</ele>
        <time>2016-06-11T13:06:21Z</time>
      </trkpt>
      <trkpt lat="40.505150" lon="-5.197450">
        <ele>1400.0</ele>
        <time>2016-06-11T13:06:22Z</time>
      </trkpt>
      <trkpt lat="40.505150" lon="-5.197467">
        <ele>1401.0</ele>
        <time>2016-06-11T13:06:23Z</time>
      </trkpt>
      <trkpt lat="40.505117" lon="-5.197500">
        <ele>1400.0</ele>
        <time>2016-06-11T13:06:24Z</time>
      </trkpt>
      <trkpt lat="40.505083" lon="-5.197517">
        <ele>1399.0</ele>
        <time>2016-06-11T13:06:25Z</time>
      </trkpt>
      <trkpt lat="40.505033" lon="-5.197550">
        <ele>1397.0</ele>
        <time>2016-06-11T13:06:26Z</time>
      </trkpt>
      <trkpt lat="40.504983" lon="-5.197583">
        <ele>1397.0</ele>
        <time>2016-06-11T13:06:27Z</time>
      </trkpt>
      <trkpt lat="40.504950" lon="-5.197600">
        <ele>1397.0</ele>
        <time>2016-06-11T13:06:28Z</time>
      </trkpt>
      <trkpt lat="40.504933" lon="-5.197650">
        <ele>1397.0</ele>
        <time>2016-06-11T13:06:29Z</time>
      </trkpt>
      <trkpt lat="40.504917" lon="-5.197683">
        <ele>1396.0</ele>
        <time>2016-06-11T13:06:30Z</time>
      </trkpt>
      <trkpt lat="40.504900" lon="-5.197717">
        <ele>1394.0</ele>
        <time>2016-06-11T13:06:31Z</time>
      </trkpt>
      <trkpt lat="40.504883" lon="-5.197767">
        <ele>1392.0</ele>
        <time>2016-06-11T13:06:32Z</time>
      </trkpt>
      <trkpt lat="40.504850" lon="-5.197800">
        <ele>1390.0</ele>
        <time>2016-06-11T13:06:33Z</time>
      </trkpt>
      <trkpt lat="40.504800" lon="-5.197850">
        <ele>1388.0</ele>
        <time>2016-06-11T13:06:34Z</time>
      </trkpt>
      <trkpt lat="40.504767" lon="-5.197883">
        <ele>1387.0</ele>
        <time>2016-06-11T13:06:35Z</time>
      </trkpt>
      <trkpt lat="40.504733" lon="-5.197917">
        <ele>1387.0</ele>
        <time>2016-06-11T13:06:36Z</time>
      </trkpt>
      <trkpt lat="40.504717" lon="-5.197950">
        <ele>1386.0</ele>
        <time>2016-06-11T13:06:37Z</time>
      </trkpt>
      <trkpt lat="40.504700" lon="-5.197983">
        <ele>1385.0</ele>
        <time>2016-06-11T13:06:38Z</time>
      </trkpt>
      <trkpt lat="40.504683" lon="-5.198000">
        <ele>1385.0</ele>
        <time>2016-06-11T13:06:39Z</time>
      </trkpt>
      <trkpt lat="40.504650" lon="-5.198033">
        <ele>1384.0</ele>
        <time>2016-06-11T13:06:40Z</time>
      </trkpt>
      <trkpt lat="40.504617" lon="-5.198050">
        <ele>1383.0</ele>
        <time>2016-06-11T13:06:41Z</time>
      </trkpt>
      <trkpt lat="40.504567" lon="-5.198083">
        <ele>1384.0</ele>
        <time>2016-06-11T13:06:42Z</time>
      </trkpt>
      <trkpt lat="40.504533" lon="-5.198100">
        <ele>1386.0</ele>
        <time>2016-06-11T13:06:43Z</time>
      </trkpt>
      <trkpt lat="40.504533" lon="-5.198133">
        <ele>1387.0</ele>
        <time>2016-06-11T13:06:44Z</time>
      </trkpt>
      <trkpt lat="40.504517" lon="-5.198150">
        <ele>1387.0</ele>
        <time>2016-06-11T13:06:45Z</time>
      </trkpt>
      <trkpt lat="40.504500" lon="-5.198167">
        <ele>1387.0</ele>
        <time>2016-06-11T13:06:46Z</time>
      </trkpt>
      <trkpt lat="40.504483" lon="-5.198200">
        <ele>1387.0</ele>
        <time>2016-06-11T13:06:47Z</time>
      </trkpt>
      <trkpt lat="40.504467" lon="-5.198217">
        <ele>1387.0</ele>
        <time>2016-06-11T13:06:48Z</time>
      </trkpt>
      <trkpt lat="40.504450" lon="-5.198233">
        <ele>1388.0</ele>
        <time>2016-06-11T13:06:49Z</time>
      </trkpt>
      <trkpt lat="40.504417" lon="-5.198233">
        <ele>1388.0</ele>
        <time>2016-06-11T13:06:50Z</time>
      </trkpt>
      <trkpt lat="40.504383" lon="-5.198233">
        <ele>1389.0</ele>
        <time>2016-06-11T13:06:51Z</time>
      </trkpt>
      <trkpt lat="40.504350" lon="-5.198233">
        <ele>1389.0</ele>
        <time>2016-06-11T13:06:52Z</time>
      </trkpt>
      <trkpt lat="40.504317" lon="-5.198233">
        <ele>1388.0</ele>
        <time>2016-06-11T13:06:53Z</time>
      </trkpt>
      <trkpt lat="40.504267" lon="-5.198250">
        <ele>1388.0</ele>
        <time>2016-06-11T13:06:54Z</time>
      </trkpt>
      <trkpt lat="40.504217" lon="-5.198250">
        <ele>1389.0</ele>
        <time>2016-06-11T13:06:55Z</time>
      </trkpt>
      <trkpt lat="40.504167" lon="-5.198217">
        <ele>1389.0</ele>
        <time>2016-06-11T13:06:56Z</time>
      </trkpt>
      <trkpt lat="40.504100" lon="-5.198183">
        <ele>1390.0</ele>
        <time>2016-06-11T13:06:57Z</time>
      </trkpt>
      <trkpt lat="40.504033" lon="-5.198150">
        <ele>1390.0</ele>
        <time>2016-06-11T13:06:58Z</time>
      </trkpt>
      <trkpt lat="40.503967" lon="-5.198117">
        <ele>1389.0</ele>
        <time>2016-06-11T13:06:59Z</time>
      </trkpt>
      <trkpt lat="40.503917" lon="-5.198100">
        <ele>1387.0</ele>
        <time>2016-06-11T13:07:00Z</time>
      </trkpt>
      <trkpt lat="40.503850" lon="-5.198100">
        <ele>1385.0</ele>
        <time>2016-06-11T13:07:01Z</time>
      </trkpt>
      <trkpt lat="40.503783" lon="-5.198133">
        <ele>1384.0</ele>
        <time>2016-06-11T13:07:02Z</time>
      </trkpt>
      <trkpt lat="40.503733" lon="-5.198167">
        <ele>1385.0</ele>
        <time>2016-06-11T13:07:03Z</time>
      </trkpt>
      <trkpt lat="40.503717" lon="-5.198200">
        <ele>1389.0</ele>
        <time>2016-06-11T13:07:04Z</time>
      </trkpt>
      <trkpt lat="40.503700" lon="-5.198217">
        <ele>1392.0</ele>
        <time>2016-06-11T13:07:05Z</time>
      </trkpt>
      <trkpt lat="40.503700" lon="-5.198250">
        <ele>1393.0</ele>
        <time>2016-06-11T13:07:06Z</time>
      </trkpt>
      <trkpt lat="40.503683" lon="-5.198283">
        <ele>1392.0</ele>
        <time>2016-06-11T13:07:07Z</time>
      </trkpt>
      <trkpt lat="40.503667" lon="-5.198350">
        <ele>1392.0</ele>
        <time>2016-06-11T13:07:08Z</time>
      </trkpt>
      <trkpt lat="40.503633" lon="-5.198417">
        <ele>1392.0</ele>
        <time>2016-06-11T13:07:09Z</time>
      </trkpt>
      <trkpt lat="40.503600" lon="-5.198450">
        <ele>1394.0</ele>
        <time>2016-06-11T13:07:10Z</time>
      </trkpt>
      <trkpt lat="40.503600" lon="-5.198483">
        <ele>1395.0</ele>
        <time>2016-06-11T13:07:11Z</time>
      </trkpt>
      <trkpt lat="40.503617" lon="-5.198500">
        <ele>1394.0</ele>
        <time>2016-06-11T13:07:12Z</time>
      </trkpt>
      <trkpt lat="40.503667" lon="-5.198517">
        <ele>1393.0</ele>
        <time>2016-06-11T13:07:13Z</time>
      </trkpt>
      <trkpt lat="40.503717" lon="-5.198533">
        <ele>1391.0</ele>
        <time>2016-06-11T13:07:14Z</time>
      </trkpt>
      <trkpt lat="40.503783" lon="-5.198500">
        <ele>1390.0</ele>
        <time>2016-06-11T13:07:15Z</time>
      </trkpt>
      <trkpt lat="40.503850" lon="-5.198433">
        <ele>1388.0</ele>
        <time>2016-06-11T13:07:16Z</time>
      </trkpt>
      <trkpt lat="40.503900" lon="-5.198300">
        <ele>1385.0</ele>
        <time>2016-06-11T13:07:17Z</time>
      </trkpt>
      <trkpt lat="40.503933" lon="-5.198150">
        <ele>1383.0</ele>
        <time>2016-06-11T13:07:18Z</time>
      </trkpt>
      <trkpt lat="40.503950" lon="-5.198017">
        <ele>1382.0</ele>
        <time>2016-06-11T13:07:19Z</time>
      </trkpt>
      <trkpt lat="40.504000" lon="-5.197900">
        <ele>1382.0</ele>
        <time>2016-06-11T13:07:20Z</time>
      </trkpt>
      <trkpt lat="40.504050" lon="-5.197800">
        <ele>1381.0</ele>
        <time>2016-06-11T13:07:21Z</time>
      </trkpt>
      <trkpt lat="40.504117" lon="-5.197683">
        <ele>1381.0</ele>
        <time>2016-06-11T13:07:22Z</time>
      </trkpt>
      <trkpt lat="40.504183" lon="-5.197550">
        <ele>1381.0</ele>
        <time>2016-06-11T13:07:23Z</time>
      </trkpt>
      <trkpt lat="40.504233" lon="-5.197433">
        <ele>1380.0</ele>
        <time>2016-06-11T13:07:24Z</time>
      </trkpt>
      <trkpt lat="40.504300" lon="-5.197333">
        <ele>1380.0</ele>
        <time>2016-06-11T13:07:25Z</time>
      </trkpt>
      <trkpt lat="40.504383" lon="-5.197233">
        <ele>1379.0</ele>
        <time>2016-06-11T13:07:26Z</time>
      </trkpt>
      <trkpt lat="40.504450" lon="-5.197133">
        <ele>1378.0</ele>
        <time>2016-06-11T13:07:27Z</time>
      </trkpt>
      <trkpt lat="40.504533" lon="-5.197067">
        <ele>1377.0</ele>
        <time>2016-06-11T13:07:28Z</time>
      </trkpt>
      <trkpt lat="40.504617" lon="-5.197000">
        <ele>1376.0</ele>
        <time>2016-06-11T13:07:29Z</time>
      </trkpt>
      <trkpt lat="40.504683" lon="-5.196983">
        <ele>1374.0</ele>
        <time>2016-06-11T13:07:30Z</time>
      </trkpt>
      <trkpt lat="40.504767" lon="-5.196983">
        <ele>1371.0</ele>
        <time>2016-06-11T13:07:31Z</time>
      </trkpt>
      <trkpt lat="40.504833" lon="-5.197017">
        <ele>1369.0</ele>
        <time>2016-06-11T13:07:32Z</time>
      </trkpt>
      <trkpt lat="40.504883" lon="-5.197050">
        <ele>1368.0</ele>
        <time>2016-06-11T13:07:33Z</time>
      </trkpt>
      <trkpt lat="40.504933" lon="-5.197067">
        <ele>1368.0</ele>
        <time>2016-06-11T13:07:34Z</time>
      </trkpt>
      <trkpt lat="40.504967" lon="-5.197100">
        <ele>1368.0</ele>
        <time>2016-06-11T13:07:35Z</time>
      </trkpt>
      <trkpt lat="40.505000" lon="-5.197133">
        <ele>1367.0</ele>
        <time>2016-06-11T13:07:36Z</time>
      </trkpt>
      <trkpt lat="40.505033" lon="-5.197183">
        <ele>1367.0</ele>
        <time>2016-06-11T13:07:37Z</time>
      </trkpt>
      <trkpt lat="40.505067" lon="-5.197250">
        <ele>1365.0</ele>
        <time>2016-06-11T13:07:38Z</time>
      </trkpt>
      <trkpt lat="40.505100" lon="-5.197300">
        <ele>1364.0</ele>
        <time>2016-06-11T13:07:39Z</time>
      </trkpt>
      <trkpt lat="40.505133" lon="-5.197367">
        <ele>1362.0</ele>
        <time>2016-06-11T13:07:40Z</time>
      </trkpt>
      <trkpt lat="40.505150" lon="-5.197417">
        <ele>1360.0</ele>
        <time>2016-06-11T13:07:41Z</time>
      </trkpt>
      <trkpt lat="40.505183" lon="-5.197483">
        <ele>1358.0</ele>
        <time>2016-06-11T13:07:42Z</time>
      </trkpt>
      <trkpt lat="40.505217" lon="-5.197533">
        <ele>1357.0</ele>
        <time>2016-06-11T13:07:43Z</time>
      </trkpt>
      <trkpt lat="40.505233" lon="-5.197567">
        <ele>1357.0</ele>
        <time>2016-06-11T13:07:44Z</time>
      </trkpt>
      <trkpt lat="40.505267" lon="-5.197583">
        <ele>1356.0</ele>
        <time>2016-06-11T13:07:45Z</time>
      </trkpt>
      <trkpt lat="40.505267" lon="-5.197617">
        <ele>1354.0</ele>
        <time>2016-06-11T13:07:46Z</time>
      </trkpt>
      <trkpt lat="40.505283" lon="-5.197683">
        <ele>1352.0</ele>
        <time>2016-06-11T13:07:47Z</time>
      </trkpt>
      <trkpt lat="40.505283" lon="-5.197733">
        <ele>1351.0</ele>
        <time>2016-06-11T13:07:48Z</time>
      </trkpt>
      <trkpt lat="40.505283" lon="-5.197783">
        <ele>1351.0</ele>
        <time>2016-06-11T13:07:49Z</time>
      </trkpt>
      <trkpt lat="40.505283" lon="-5.197833">
        <ele>1350.0</ele>
        <time>2016-06-11T13:07:50Z</time>
      </trkpt>
      <trkpt lat="40.505283" lon="-5.197867">
        <ele>1350.0</ele>
        <time>2016-06-11T13:07:51Z</time>
      </trkpt>
      <trkpt lat="40.505283" lon="-5.197917">
        <ele>1348.0</ele>
        <time>2016-06-11T13:07:52Z</time>
      </trkpt>
      <trkpt lat="40.505283" lon="-5.197950">
        <ele>1347.0</ele>
        <time>2016-06-11T13:07:53Z</time>
      </trkpt>
      <trkpt lat="40.505267" lon="-5.198017">
        <ele>1345.0</ele>
        <time>2016-06-11T13:07:54Z</time>
      </trkpt>
      <trkpt lat="40.505267" lon="-5.198083">
        <ele>1344.0</ele>
        <time>2016-06-11T13:07:55Z</time>
      </trkpt>
      <trkpt lat="40.505267" lon="-5.198133">
        <ele>1344.0</ele>
        <time>2016-06-11T13:07:56Z</time>
      </trkpt>
      <trkpt lat="40.505250" lon="-5.198183">
        <ele>1344.0</ele>
        <time>2016-06-11T13:07:57Z</time>
      </trkpt>
      <trkpt lat="40.505233" lon="-5.198217">
        <ele>1343.0</ele>
        <time>2016-06-11T13:07:58Z</time>
      </trkpt>
      <trkpt lat="40.505217" lon="-5.198267">
        <ele>1342.0</ele>
        <time>2016-06-11T13:07:59Z</time>
      </trkpt>
      <trkpt lat="40.505200" lon="-5.198300">
        <ele>1340.0</ele>
        <time>2016-06-11T13:08:00Z</time>
      </trkpt>
      <trkpt lat="40.505183" lon="-5.198350">
        <ele>1337.0</ele>
        <time>2016-06-11T13:08:01Z</time>
      </trkpt>
      <trkpt lat="40.505167" lon="-5.198400">
        <ele>1335.0</ele>
        <time>2016-06-11T13:08:02Z</time>
      </trkpt>
      <trkpt lat="40.505150" lon="-5.198467">
        <ele>1334.0</ele>
        <time>2016-06-11T13:08:03Z</time>
      </trkpt>
      <trkpt lat="40.505133" lon="-5.198533">
        <ele>1333.0</ele>
        <time>2016-06-11T13:08:04Z</time>
      </trkpt>
      <trkpt lat="40.505133" lon="-5.198583">
        <ele>1332.0</ele>
        <time>2016-06-11T13:08:05Z</time>
      </trkpt>
      <trkpt lat="40.505117" lon="-5.198650">
        <ele>1332.0</ele>
        <time>2016-06-11T13:08:06Z</time>
      </trkpt>
      <trkpt lat="40.505117" lon="-5.198700">
        <ele>1332.0</ele>
        <time>2016-06-11T13:08:07Z</time>
      </trkpt>
      <trkpt lat="40.505117" lon="-5.198750">
        <ele>1332.0</ele>
        <time>2016-06-11T13:08:08Z</time>
      </trkpt>
      <trkpt lat="40.505117" lon="-5.198783">
        <ele>1331.0</ele>
        <time>2016-06-11T13:08:09Z</time>
      </trkpt>
      <trkpt lat="40.505133" lon="-5.198817">
        <ele>1330.0</ele>
        <time>2016-06-11T13:08:10Z</time>
      </trkpt>
      <trkpt lat="40.505133" lon="-5.198850">
        <ele>1329.0</ele>
        <time>2016-06-11T13:08:11Z</time>
      </trkpt>
      <trkpt lat="40.505133" lon="-5.198900">
        <ele>1328.0</ele>
        <time>2016-06-11T13:08:12Z</time>
      </trkpt>
      <trkpt lat="40.505133" lon="-5.198917">
        <ele>1327.0</ele>
        <time>2016-06-11T13:08:13Z</time>
      </trkpt>
      <trkpt lat="40.505133" lon="-5.198950">
        <ele>1326.0</ele>
        <time>2016-06-11T13:08:14Z</time>
      </trkpt>
      <trkpt lat="40.505133" lon="-5.198983">
        <ele>1324.0</ele>
        <time>2016-06-11T13:08:15Z</time>
      </trkpt>
      <trkpt lat="40.505133" lon="-5.199033">
        <ele>1323.0</ele>
        <time>2016-06-11T13:08:16Z</time>
      </trkpt>
      <trkpt lat="40.505133" lon="-5.199083">
        <ele>1322.0</ele>
        <time>2016-06-11T13:08:17Z</time>
      </trkpt>
      <trkpt lat="40.505117" lon="-5.199117">
        <ele>1321.0</ele>
        <time>2016-06-11T13:08:18Z</time>
      </trkpt>
      <trkpt lat="40.505083" lon="-5.199150">
        <ele>1320.0</ele>
        <time>2016-06-11T13:08:19Z</time>
      </trkpt>
      <trkpt lat="40.505050" lon="-5.199183">
        <ele>1319.0</ele>
        <time>2016-06-11T13:08:20Z</time>
      </trkpt>
      <trkpt lat="40.505017" lon="-5.199200">
        <ele>1319.0</ele>
        <time>2016-06-11T13:08:21Z</time>
      </trkpt>
      <trkpt lat="40.504983" lon="-5.199217">
        <ele>1318.0</ele>
        <time>2016-06-11T13:08:22Z</time>
      </trkpt>
      <trkpt lat="40.504950" lon="-5.199250">
        <ele>1317.0</ele>
        <time>2016-06-11T13:08:23Z</time>
      </trkpt>
      <trkpt lat="40.504917" lon="-5.199267">
        <ele>1317.0</ele>
        <time>2016-06-11T13:08:24Z</time>
      </trkpt>
      <trkpt lat="40.504883" lon="-5.199283">
        <ele>1316.0</ele>
        <time>2016-06-11T13:08:25Z</time>
      </trkpt>
      <trkpt lat="40.504850" lon="-5.199300">
        <ele>1317.0</ele>
        <time>2016-06-11T13:08:26Z</time>
      </trkpt>
      <trkpt lat="40.504833" lon="-5.199317">
        <ele>1318.0</ele>
        <time>2016-06-11T13:08:27Z</time>
      </trkpt>
      <trkpt lat="40.504817" lon="-5.199350">
        <ele>1317.0</ele>
        <time>2016-06-11T13:08:28Z</time>
      </trkpt>
      <trkpt lat="40.504800" lon="-5.199367">
        <ele>1317.0</ele>
        <time>2016-06-11T13:08:29Z</time>
      </trkpt>
      <trkpt lat="40.504783" lon="-5.199383">
        <ele>1317.0</ele>
        <time>2016-06-11T13:08:30Z</time>
      </trkpt>
      <trkpt lat="40.504767" lon="-5.199400">
        <ele>1317.0</ele>
        <time>2016-06-11T13:08:31Z</time>
      </trkpt>
      <trkpt lat="40.504733" lon="-5.199400">
        <ele>1317.0</ele>
        <time>2016-06-11T13:08:32Z</time>
      </trkpt>
      <trkpt lat="40.504700" lon="-5.199400">
        <ele>1316.0</ele>
        <time>2016-06-11T13:08:33Z</time>
      </trkpt>
      <trkpt lat="40.504683" lon="-5.199417">
        <ele>1314.0</ele>
        <time>2016-06-11T13:08:34Z</time>
      </trkpt>
      <trkpt lat="40.504667" lon="-5.199450">
        <ele>1313.0</ele>
        <time>2016-06-11T13:08:35Z</time>
      </trkpt>
      <trkpt lat="40.504633" lon="-5.199500">
        <ele>1312.0</ele>
        <time>2016-06-11T13:08:36Z</time>
      </trkpt>
      <trkpt lat="40.504633" lon="-5.199533">
        <ele>1312.0</ele>
        <time>2016-06-11T13:08:37Z</time>
      </trkpt>
      <trkpt lat="40.504633" lon="-5.199567">
        <ele>1313.0</ele>
        <time>2016-06-11T13:08:38Z</time>
      </trkpt>
      <trkpt lat="40.504633" lon="-5.199600">
        <ele>1313.0</ele>
        <time>2016-06-11T13:08:39Z</time>
      </trkpt>
      <trkpt lat="40.504633" lon="-5.199633">
        <ele>1313.0</ele>
        <time>2016-06-11T13:08:40Z</time>
      </trkpt>
      <trkpt lat="40.504633" lon="-5.199683">
        <ele>1313.0</ele>
        <time>2016-06-11T13:08:41Z</time>
      </trkpt>
      <trkpt lat="40.504633" lon="-5.199733">
        <ele>1313.0</ele>
        <time>2016-06-11T13:08:42Z</time>
      </trkpt>
      <trkpt lat="40.504617" lon="-5.199783">
        <ele>1313.0</ele>
        <time>2016-06-11T13:08:43Z</time>
      </trkpt>
      <trkpt lat="40.504600" lon="-5.199817">
        <ele>1314.0</ele>
        <time>2016-06-11T13:08:44Z</time>
      </trkpt>
      <trkpt lat="40.504583" lon="-5.199833">
        <ele>1315.0</ele>
        <time>2016-06-11T13:08:45Z</time>
      </trkpt>
      <trkpt lat="40.504567" lon="-5.199867">
        <ele>1315.0</ele>
        <time>2016-06-11T13:08:46Z</time>
      </trkpt>
      <trkpt lat="40.504533" lon="-5.199900">
        <ele>1315.0</ele>
        <time>2016-06-11T13:08:47Z</time>
      </trkpt>
      <trkpt lat="40.504500" lon="-5.199933">
        <ele>1315.0</ele>
        <time>2016-06-11T13:08:48Z</time>
      </trkpt>
      <trkpt lat="40.504467" lon="-5.199950">
        <ele>1315.0</ele>
        <time>2016-06-11T13:08:49Z</time>
      </trkpt>
      <trkpt lat="40.504417" lon="-5.199950">
        <ele>1315.0</ele>
        <time>2016-06-11T13:08:50Z</time>
      </trkpt>
      <trkpt lat="40.504383" lon="-5.199950">
        <ele>1315.0</ele>
        <time>2016-06-11T13:08:51Z</time>
      </trkpt>
      <trkpt lat="40.504333" lon="-5.199950">
        <ele>1316.0</ele>
        <time>2016-06-11T13:08:52Z</time>
      </trkpt>
      <trkpt lat="40.504283" lon="-5.199933">
        <ele>1315.0</ele>
        <time>2016-06-11T13:08:53Z</time>
      </trkpt>
      <trkpt lat="40.504250" lon="-5.199950">
        <ele>1314.0</ele>
        <time>2016-06-11T13:08:54Z</time>
      </trkpt>
      <trkpt lat="40.504200" lon="-5.199967">
        <ele>1314.0</ele>
        <time>2016-06-11T13:08:55Z</time>
      </trkpt>
      <trkpt lat="40.504167" lon="-5.200000">
        <ele>1313.0</ele>
        <time>2016-06-11T13:08:56Z</time>
      </trkpt>
      <trkpt lat="40.504150" lon="-5.200033">
        <ele>1313.0</ele>
        <time>2016-06-11T13:08:57Z</time>
      </trkpt>
      <trkpt lat="40.504133" lon="-5.200067">
        <ele>1313.0</ele>
        <time>2016-06-11T13:08:58Z</time>
      </trkpt>
      <trkpt lat="40.504133" lon="-5.200133">
        <ele>1313.0</ele>
        <time>2016-06-11T13:08:59Z</time>
      </trkpt>
      <trkpt lat="40.504150" lon="-5.200183">
        <ele>1312.0</ele>
        <time>2016-06-11T13:09:00Z</time>
      </trkpt>
      <trkpt lat="40.504167" lon="-5.200250">
        <ele>1311.0</ele>
        <time>2016-06-11T13:09:01Z</time>
      </trkpt>
      <trkpt lat="40.504183" lon="-5.200333">
        <ele>1311.0</ele>
        <time>2016-06-11T13:09:02Z</time>
      </trkpt>
      <trkpt lat="40.504200" lon="-5.200400">
        <ele>1311.0</ele>
        <time>2016-06-11T13:09:03Z</time>
      </trkpt>
      <trkpt lat="40.504200" lon="-5.200450">
        <ele>1311.0</ele>
        <time>2016-06-11T13:09:04Z</time>
      </trkpt>
      <trkpt lat="40.504217" lon="-5.200517">
        <ele>1310.0</ele>
        <time>2016-06-11T13:09:05Z</time>
      </trkpt>
      <trkpt lat="40.504200" lon="-5.200583">
        <ele>1310.0</ele>
        <time>2016-06-11T13:09:06Z</time>
      </trkpt>
      <trkpt lat="40.504183" lon="-5.200633">
        <ele>1310.0</ele>
        <time>2016-06-11T13:09:07Z</time>
      </trkpt>
      <trkpt lat="40.504167" lon="-5.200683">
        <ele>1310.0</ele>
        <time>2016-06-11T13:09:08Z</time>
      </trkpt>
      <trkpt lat="40.504167" lon="-5.200717">
        <ele>1311.0</ele>
        <time>2016-06-11T13:09:09Z</time>
      </trkpt>
      <trkpt lat="40.504167" lon="-5.200767">
        <ele>1310.0</ele>
        <time>2016-06-11T13:09:10Z</time>
      </trkpt>
      <trkpt lat="40.504167" lon="-5.200833">
        <ele>1309.0</ele>
        <time>2016-06-11T13:09:11Z</time>
      </trkpt>
      <trkpt lat="40.504167" lon="-5.200883">
        <ele>1308.0</ele>
        <time>2016-06-11T13:09:12Z</time>
      </trkpt>
      <trkpt lat="40.504167" lon="-5.200950">
        <ele>1306.0</ele>
        <time>2016-06-11T13:09:13Z</time>
      </trkpt>
      <trkpt lat="40.504167" lon="-5.201017">
        <ele>1305.0</ele>
        <time>2016-06-11T13:09:14Z</time>
      </trkpt>
      <trkpt lat="40.504167" lon="-5.201083">
        <ele>1304.0</ele>
        <time>2016-06-11T13:09:15Z</time>
      </trkpt>
      <trkpt lat="40.504167" lon="-5.201150">
        <ele>1303.0</ele>
        <time>2016-06-11T13:09:16Z</time>
      </trkpt>
      <trkpt lat="40.504167" lon="-5.201217">
        <ele>1301.0</ele>
        <time>2016-06-11T13:09:17Z</time>
      </trkpt>
      <trkpt lat="40.504167" lon="-5.201267">
        <ele>1299.0</ele>
        <time>2016-06-11T13:09:18Z</time>
      </trkpt>
      <trkpt lat="40.504150" lon="-5.201350">
        <ele>1296.0</ele>
        <time>2016-06-11T13:09:19Z</time>
      </trkpt>
      <trkpt lat="40.504150" lon="-5.201417">
        <ele>1294.0</ele>
        <time>2016-06-11T13:09:20Z</time>
      </trkpt>
      <trkpt lat="40.504150" lon="-5.201500">
        <ele>1291.0</ele>
        <time>2016-06-11T13:09:21Z</time>
      </trkpt>
      <trkpt lat="40.504150" lon="-5.201567">
        <ele>1289.0</ele>
        <time>2016-06-11T13:09:22Z</time>
      </trkpt>
      <trkpt lat="40.504167" lon="-5.201633">
        <ele>1287.0</ele>
        <time>2016-06-11T13:09:23Z</time>
      </trkpt>
      <trkpt lat="40.504167" lon="-5.201700">
        <ele>1286.0</ele>
        <time>2016-06-11T13:09:24Z</time>
      </trkpt>
      <trkpt lat="40.504183" lon="-5.201783">
        <ele>1284.0</ele>
        <time>2016-06-11T13:09:25Z</time>
      </trkpt>
      <trkpt lat="40.504200" lon="-5.201850">
        <ele>1282.0</ele>
        <time>2016-06-11T13:09:26Z</time>
      </trkpt>
      <trkpt lat="40.504233" lon="-5.201917">
        <ele>1280.0</ele>
        <time>2016-06-11T13:09:27Z</time>
      </trkpt>
      <trkpt lat="40.504250" lon="-5.201983">
        <ele>1279.0</ele>
        <time>2016-06-11T13:09:28Z</time>
      </trkpt>
      <trkpt lat="40.504267" lon="-5.202050">
        <ele>1277.0</ele>
        <time>2016-06-11T13:09:29Z</time>
      </trkpt>
      <trkpt lat="40.504300" lon="-5.202117">
        <ele>1275.0</ele>
        <time>2016-06-11T13:09:30Z</time>
      </trkpt>
      <trkpt lat="40.504317" lon="-5.202183">
        <ele>1273.0</ele>
        <time>2016-06-11T13:09:31Z</time>
      </trkpt>
      <trkpt lat="40.504350" lon="-5.202250">
        <ele>1270.0</ele>
        <time>2016-06-11T13:09:32Z</time>
      </trkpt>
      <trkpt lat="40.504367" lon="-5.202317">
        <ele>1268.0</ele>
        <time>2016-06-11T13:09:33Z</time>
      </trkpt>
      <trkpt lat="40.504383" lon="-5.202383">
        <ele>1266.0</ele>
        <time>2016-06-11T13:09:34Z</time>
      </trkpt>
      <trkpt lat="40.504367" lon="-5.202450">
        <ele>1263.0</ele>
        <time>2016-06-11T13:09:35Z</time>
      </trkpt>
      <trkpt lat="40.504367" lon="-5.202517">
        <ele>1261.0</ele>
        <time>2016-06-11T13:09:36Z</time>
      </trkpt>
      <trkpt lat="40.504350" lon="-5.202600">
        <ele>1260.0</ele>
        <time>2016-06-11T13:09:37Z</time>
      </trkpt>
      <trkpt lat="40.504333" lon="-5.202667">
        <ele>1261.0</ele>
        <time>2016-06-11T13:09:38Z</time>
      </trkpt>
      <trkpt lat="40.504300" lon="-5.202733">
        <ele>1261.0</ele>
        <time>2016-06-11T13:09:39Z</time>
      </trkpt>
      <trkpt lat="40.504283" lon="-5.202783">
        <ele>1262.0</ele>
        <time>2016-06-11T13:09:40Z</time>
      </trkpt>
      <trkpt lat="40.504250" lon="-5.202833">
        <ele>1262.0</ele>
        <time>2016-06-11T13:09:41Z</time>
      </trkpt>
      <trkpt lat="40.504217" lon="-5.202900">
        <ele>1262.0</ele>
        <time>2016-06-11T13:09:42Z</time>
      </trkpt>
      <trkpt lat="40.504200" lon="-5.202950">
        <ele>1262.0</ele>
        <time>2016-06-11T13:09:43Z</time>
      </trkpt>
      <trkpt lat="40.504167" lon="-5.203000">
        <ele>1261.0</ele>
        <time>2016-06-11T13:09:44Z</time>
      </trkpt>
      <trkpt lat="40.504150" lon="-5.203050">
        <ele>1260.0</ele>
        <time>2016-06-11T13:09:45Z</time>
      </trkpt>
      <trkpt lat="40.504133" lon="-5.203117">
        <ele>1258.0</ele>
        <time>2016-06-11T13:09:46Z</time>
      </trkpt>
      <trkpt lat="40.504117" lon="-5.203200">
        <ele>1258.0</ele>
        <time>2016-06-11T13:09:47Z</time>
      </trkpt>
      <trkpt lat="40.504100" lon="-5.203267">
        <ele>1258.0</ele>
        <time>2016-06-11T13:09:48Z</time>
      </trkpt>
      <trkpt lat="40.504083" lon="-5.203333">
        <ele>1259.0</ele>
        <time>2016-06-11T13:09:49Z</time>
      </trkpt>
      <trkpt lat="40.504067" lon="-5.203383">
        <ele>1258.0</ele>
        <time>2016-06-11T13:09:50Z</time>
      </trkpt>
      <trkpt lat="40.504033" lon="-5.203433">
        <ele>1258.0</ele>
        <time>2016-06-11T13:09:51Z</time>
      </trkpt>
      <trkpt lat="40.504017" lon="-5.203500">
        <ele>1257.0</ele>
        <time>2016-06-11T13:09:52Z</time>
      </trkpt>
      <trkpt lat="40.503983" lon="-5.203567">
        <ele>1256.0</ele>
        <time>2016-06-11T13:09:53Z</time>
      </trkpt>
      <trkpt lat="40.503950" lon="-5.203633">
        <ele>1255.0</ele>
        <time>2016-06-11T13:09:54Z</time>
      </trkpt>
      <trkpt lat="40.503917" lon="-5.203683">
        <ele>1254.0</ele>
        <time>2016-06-11T13:09:55Z</time>
      </trkpt>
      <trkpt lat="40.503883" lon="-5.203750">
        <ele>1253.0</ele>
        <time>2016-06-11T13:09:56Z</time>
      </trkpt>
      <trkpt lat="40.503833" lon="-5.203817">
        <ele>1253.0</ele>
        <time>2016-06-11T13:09:57Z</time>
      </trkpt>
      <trkpt lat="40.503800" lon="-5.203867">
        <ele>1253.0</ele>
        <time>2016-06-11T13:09:58Z</time>
      </trkpt>
      <trkpt lat="40.503783" lon="-5.203933">
        <ele>1253.0</ele>
        <time>2016-06-11T13:09:59Z</time>
      </trkpt>
      <trkpt lat="40.503750" lon="-5.204000">
        <ele>1252.0</ele>
        <time>2016-06-11T13:10:00Z</time>
      </trkpt>
      <trkpt lat="40.503717" lon="-5.204067">
        <ele>1250.0</ele>
        <time>2016-06-11T13:10:01Z</time>
      </trkpt>
      <trkpt lat="40.503683" lon="-5.204150">
        <ele>1249.0</ele>
        <time>2016-06-11T13:10:02Z</time>
      </trkpt>
      <trkpt lat="40.503650" lon="-5.204217">
        <ele>1249.0</ele>
        <time>2016-06-11T13:10:03Z</time>
      </trkpt>
      <trkpt lat="40.503600" lon="-5.204250">
        <ele>1250.0</ele>
        <time>2016-06-11T13:10:04Z</time>
      </trkpt>
      <trkpt lat="40.503583" lon="-5.204283">
        <ele>1251.0</ele>
        <time>2016-06-11T13:10:05Z</time>
      </trkpt>
      <trkpt lat="40.503567" lon="-5.204317">
        <ele>1250.0</ele>
        <time>2016-06-11T13:10:06Z</time>
      </trkpt>
      <trkpt lat="40.503550" lon="-5.204350">
        <ele>1249.0</ele>
        <time>2016-06-11T13:10:07Z</time>
      </trkpt>
      <trkpt lat="40.503550" lon="-5.204417">
        <ele>1246.0</ele>
        <time>2016-06-11T13:10:08Z</time>
      </trkpt>
      <trkpt lat="40.503533" lon="-5.204483">
        <ele>1245.0</ele>
        <time>2016-06-11T13:10:09Z</time>
      </trkpt>
      <trkpt lat="40.503517" lon="-5.204550">
        <ele>1244.0</ele>
        <time>2016-06-11T13:10:10Z</time>
      </trkpt>
      <trkpt lat="40.503483" lon="-5.204617">
        <ele>1243.0</ele>
        <time>2016-06-11T13:10:11Z</time>
      </trkpt>
      <trkpt lat="40.503450" lon="-5.204667">
        <ele>1241.0</ele>
        <time>2016-06-11T13:10:12Z</time>
      </trkpt>
      <trkpt lat="40.503450" lon="-5.204717">
        <ele>1239.0</ele>
        <time>2016-06-11T13:10:13Z</time>
      </trkpt>
      <trkpt lat="40.503433" lon="-5.204800">
        <ele>1237.0</ele>
        <time>2016-06-11T13:10:14Z</time>
      </trkpt>
      <trkpt lat="40.503433" lon="-5.204883">
        <ele>1237.0</ele>
        <time>2016-06-11T13:10:15Z</time>
      </trkpt>
      <trkpt lat="40.503417" lon="-5.204967">
        <ele>1237.0</ele>
        <time>2016-06-11T13:10:16Z</time>
      </trkpt>
      <trkpt lat="40.503383" lon="-5.205033">
        <ele>1239.0</ele>
        <time>2016-06-11T13:10:17Z</time>
      </trkpt>
      <trkpt lat="40.503333" lon="-5.205100">
        <ele>1240.0</ele>
        <time>2016-06-11T13:10:18Z</time>
      </trkpt>
      <trkpt lat="40.503300" lon="-5.205150">
        <ele>1242.0</ele>
        <time>2016-06-11T13:10:19Z</time>
      </trkpt>
      <trkpt lat="40.503267" lon="-5.205217">
        <ele>1243.0</ele>
        <time>2016-06-11T13:10:20Z</time>
      </trkpt>
      <trkpt lat="40.503267" lon="-5.205283">
        <ele>1243.0</ele>
        <time>2016-06-11T13:10:21Z</time>
      </trkpt>
      <trkpt lat="40.503283" lon="-5.205350">
        <ele>1243.0</ele>
        <time>2016-06-11T13:10:22Z</time>
      </trkpt>
      <trkpt lat="40.503350" lon="-5.205400">
        <ele>1242.0</ele>
        <time>2016-06-11T13:10:23Z</time>
      </trkpt>
      <trkpt lat="40.503433" lon="-5.205433">
        <ele>1241.0</ele>
        <time>2016-06-11T13:10:24Z</time>
      </trkpt>
      <trkpt lat="40.503533" lon="-5.205400">
        <ele>1242.0</ele>
        <time>2016-06-11T13:10:25Z</time>
      </trkpt>
      <trkpt lat="40.503617" lon="-5.205367">
        <ele>1244.0</ele>
        <time>2016-06-11T13:10:26Z</time>
      </trkpt>
      <trkpt lat="40.503683" lon="-5.205350">
        <ele>1247.0</ele>
        <time>2016-06-11T13:10:27Z</time>
      </trkpt>
      <trkpt lat="40.503750" lon="-5.205350">
        <ele>1248.0</ele>
        <time>2016-06-11T13:10:28Z</time>
      </trkpt>
      <trkpt lat="40.503817" lon="-5.205333">
        <ele>1248.0</ele>
        <time>2016-06-11T13:10:29Z</time>
      </trkpt>
      <trkpt lat="40.503900" lon="-5.205283">
        <ele>1249.0</ele>
        <time>2016-06-11T13:10:30Z</time>
      </trkpt>
      <trkpt lat="40.503950" lon="-5.205183">
        <ele>1250.0</ele>
        <time>2016-06-11T13:10:31Z</time>
      </trkpt>
      <trkpt lat="40.503983" lon="-5.205050">
        <ele>1251.0</ele>
        <time>2016-06-11T13:10:32Z</time>
      </trkpt>
      <trkpt lat="40.504000" lon="-5.204917">
        <ele>1252.0</ele>
        <time>2016-06-11T13:10:33Z</time>
      </trkpt>
      <trkpt lat="40.503983" lon="-5.204783">
        <ele>1254.0</ele>
        <time>2016-06-11T13:10:34Z</time>
      </trkpt>
      <trkpt lat="40.503933" lon="-5.204667">
        <ele>1255.0</ele>
        <time>2016-06-11T13:10:35Z</time>
      </trkpt>
      <trkpt lat="40.503867" lon="-5.204583">
        <ele>1255.0</ele>
        <time>2016-06-11T13:10:36Z</time>
      </trkpt>
      <trkpt lat="40.503767" lon="-5.204550">
        <ele>1256.0</ele>
        <time>2016-06-11T13:10:37Z</time>
      </trkpt>
      <trkpt lat="40.503683" lon="-5.204567">
        <ele>1258.0</ele>
        <time>2016-06-11T13:10:38Z</time>
      </trkpt>
      <trkpt lat="40.503633" lon="-5.204600">
        <ele>1260.0</ele>
        <time>2016-06-11T13:10:39Z</time>
      </trkpt>
      <trkpt lat="40.503600" lon="-5.204633">
        <ele>1263.0</ele>
        <time>2016-06-11T13:10:40Z</time>
      </trkpt>
      <trkpt lat="40.503550" lon="-5.204667">
        <ele>1264.0</ele>
        <time>2016-06-11T13:10:41Z</time>
      </trkpt>
      <trkpt lat="40.503517" lon="-5.204717">
        <ele>1265.0</ele>
        <time>2016-06-11T13:10:42Z</time>
      </trkpt>
      <trkpt lat="40.503467" lon="-5.204767">
        <ele>1265.0</ele>
        <time>2016-06-11T13:10:43Z</time>
      </trkpt>
      <trkpt lat="40.503450" lon="-5.204850">
        <ele>1267.0</ele>
        <time>2016-06-11T13:10:44Z</time>
      </trkpt>
      <trkpt lat="40.503450" lon="-5.204917">
        <ele>1268.0</ele>
        <time>2016-06-11T13:10:45Z</time>
      </trkpt>
      <trkpt lat="40.503500" lon="-5.204967">
        <ele>1269.0</ele>
        <time>2016-06-11T13:10:46Z</time>
      </trkpt>
      <trkpt lat="40.503550" lon="-5.205017">
        <ele>1270.0</ele>
        <time>2016-06-11T13:10:47Z</time>
      </trkpt>
      <trkpt lat="40.503600" lon="-5.205050">
        <ele>1270.0</ele>
        <time>2016-06-11T13:10:48Z</time>
      </trkpt>
      <trkpt lat="40.503667" lon="-5.205083">
        <ele>1272.0</ele>
        <time>2016-06-11T13:10:49Z</time>
      </trkpt>
      <trkpt lat="40.503733" lon="-5.205117">
        <ele>1275.0</ele>
        <time>2016-06-11T13:10:50Z</time>
      </trkpt>
      <trkpt lat="40.503800" lon="-5.205100">
        <ele>1279.0</ele>
        <time>2016-06-11T13:10:51Z</time>
      </trkpt>
      <trkpt lat="40.503850" lon="-5.205050">
        <ele>1281.0</ele>
        <time>2016-06-11T13:10:52Z</time>
      </trkpt>
      <trkpt lat="40.503917" lon="-5.204967">
        <ele>1280.0</ele>
        <time>2016-06-11T13:10:53Z</time>
      </trkpt>
      <trkpt lat="40.503967" lon="-5.204867">
        <ele>1280.0</ele>
        <time>2016-06-11T13:10:54Z</time>
      </trkpt>
      <trkpt lat="40.504017" lon="-5.204733">
        <ele>1281.0</ele>
        <time>2016-06-11T13:10:55Z</time>
      </trkpt>
      <trkpt lat="40.504033" lon="-5.204600">
        <ele>1282.0</ele>
        <time>2016-06-11T13:10:56Z</time>
      </trkpt>
      <trkpt lat="40.503983" lon="-5.204450">
        <ele>1282.0</ele>
        <time>2016-06-11T13:10:57Z</time>
      </trkpt>
      <trkpt lat="40.503900" lon="-5.204350">
        <ele>1281.0</ele>
        <time>2016-06-11T13:10:58Z</time>
      </trkpt>
      <trkpt lat="40.503800" lon="-5.204317">
        <ele>1281.0</ele>
        <time>2016-06-11T13:10:59Z</time>
      </trkpt>
      <trkpt lat="40.503700" lon="-5.204317">
        <ele>1283.0</ele>
        <time>2016-06-11T13:11:00Z</time>
      </trkpt>
      <trkpt lat="40.503633" lon="-5.204367">
        <ele>1287.0</ele>
        <time>2016-06-11T13:11:01Z</time>
      </trkpt>
      <trkpt lat="40.503583" lon="-5.204400">
        <ele>1290.0</ele>
        <time>2016-06-11T13:11:02Z</time>
      </trkpt>
      <trkpt lat="40.503550" lon="-5.204450">
        <ele>1293.0</ele>
        <time>2016-06-11T13:11:03Z</time>
      </trkpt>
      <trkpt lat="40.503533" lon="-5.204483">
        <ele>1295.0</ele>
        <time>2016-06-11T13:11:04Z</time>
      </trkpt>
      <trkpt lat="40.503500" lon="-5.204517">
        <ele>1296.0</ele>
        <time>2016-06-11T13:11:05Z</time>
      </trkpt>
      <trkpt lat="40.503417" lon="-5.204550">
        <ele>1297.0</ele>
        <time>2016-06-11T13:11:06Z</time>
      </trkpt>
      <trkpt lat="40.503350" lon="-5.204550">
        <ele>1299.0</ele>
        <time>2016-06-11T13:11:07Z</time>
      </trkpt>
      <trkpt lat="40.503267" lon="-5.204567">
        <ele>1302.0</ele>
        <time>2016-06-11T13:11:08Z</time>
      </trkpt>
      <trkpt lat="40.503233" lon="-5.204600">
        <ele>1304.0</ele>
        <time>2016-06-11T13:11:09Z</time>
      </trkpt>
      <trkpt lat="40.503200" lon="-5.204667">
        <ele>1304.0</ele>
        <time>2016-06-11T13:11:10Z</time>
      </trkpt>
      <trkpt lat="40.503183" lon="-5.204733">
        <ele>1305.0</ele>
        <time>2016-06-11T13:11:11Z</time>
      </trkpt>
      <trkpt lat="40.503150" lon="-5.204800">
        <ele>1306.0</ele>
        <time>2016-06-11T13:11:12Z</time>
      </trkpt>
      <trkpt lat="40.503117" lon="-5.204850">
        <ele>1306.0</ele>
        <time>2016-06-11T13:11:13Z</time>
      </trkpt>
      <trkpt lat="40.503083" lon="-5.204900">
        <ele>1307.0</ele>
        <time>2016-06-11T13:11:14Z</time>
      </trkpt>
      <trkpt lat="40.503050" lon="-5.204967">
        <ele>1308.0</ele>
        <time>2016-06-11T13:11:15Z</time>
      </trkpt>
      <trkpt lat="40.503033" lon="-5.205050">
        <ele>1309.0</ele>
        <time>2016-06-11T13:11:16Z</time>
      </trkpt>
      <trkpt lat="40.503033" lon="-5.205117">
        <ele>1310.0</ele>
        <time>2016-06-11T13:11:17Z</time>
      </trkpt>
      <trkpt lat="40.503017" lon="-5.205183">
        <ele>1311.0</ele>
        <time>2016-06-11T13:11:18Z</time>
      </trkpt>
      <trkpt lat="40.503000" lon="-5.205250">
        <ele>1312.0</ele>
        <time>2016-06-11T13:11:19Z</time>
      </trkpt>
      <trkpt lat="40.503000" lon="-5.205317">
        <ele>1312.0</ele>
        <time>2016-06-11T13:11:20Z</time>
      </trkpt>
      <trkpt lat="40.503017" lon="-5.205383">
        <ele>1312.0</ele>
        <time>2016-06-11T13:11:21Z</time>
      </trkpt>
      <trkpt lat="40.503067" lon="-5.205450">
        <ele>1312.0</ele>
        <time>2016-06-11T13:11:22Z</time>
      </trkpt>
      <trkpt lat="40.503117" lon="-5.205500">
        <ele>1313.0</ele>
        <time>2016-06-11T13:11:23Z</time>
      </trkpt>
      <trkpt lat="40.503183" lon="-5.205533">
        <ele>1315.0</ele>
        <time>2016-06-11T13:11:24Z</time>
      </trkpt>
      <trkpt lat="40.503233" lon="-5.205567">
        <ele>1316.0</ele>
        <time>2016-06-11T13:11:25Z</time>
      </trkpt>
      <trkpt lat="40.503283" lon="-5.205617">
        <ele>1318.0</ele>
        <time>2016-06-11T13:11:26Z</time>
      </trkpt>
      <trkpt lat="40.503317" lon="-5.205650">
        <ele>1319.0</ele>
        <time>2016-06-11T13:11:27Z</time>
      </trkpt>
      <trkpt lat="40.503367" lon="-5.205667">
        <ele>1320.0</ele>
        <time>2016-06-11T13:11:28Z</time>
      </trkpt>
      <trkpt lat="40.503417" lon="-5.205683">
        <ele>1321.0</ele>
        <time>2016-06-11T13:11:29Z</time>
      </trkpt>
      <trkpt lat="40.503483" lon="-5.205667">
        <ele>1321.0</ele>
        <time>2016-06-11T13:11:30Z</time>
      </trkpt>
      <trkpt lat="40.503567" lon="-5.205617">
        <ele>1321.0</ele>
        <time>2016-06-11T13:11:31Z</time>
      </trkpt>
      <trkpt lat="40.503633" lon="-5.205550">
        <ele>1322.0</ele>
        <time>2016-06-11T13:11:32Z</time>
      </trkpt>
      <trkpt lat="40.503700" lon="-5.205450">
        <ele>1322.0</ele>
        <time>2016-06-11T13:11:33Z</time>
      </trkpt>
      <trkpt lat="40.503733" lon="-5.205300">
        <ele>1322.0</ele>
        <time>2016-06-11T13:11:34Z</time>
      </trkpt>
      <trkpt lat="40.503733" lon="-5.205150">
        <ele>1322.0</ele>
        <time>2016-06-11T13:11:35Z</time>
      </trkpt>
      <trkpt lat="40.503717" lon="-5.205017">
        <ele>1323.0</ele>
        <time>2016-06-11T13:11:36Z</time>
      </trkpt>
      <trkpt lat="40.503683" lon="-5.204883">
        <ele>1323.0</ele>
        <time>2016-06-11T13:11:37Z</time>
      </trkpt>
      <trkpt lat="40.503600" lon="-5.204783">
        <ele>1322.0</ele>
        <time>2016-06-11T13:11:38Z</time>
      </trkpt>
      <trkpt lat="40.503517" lon="-5.204700">
        <ele>1321.0</ele>
        <time>2016-06-11T13:11:39Z</time>
      </trkpt>
      <trkpt lat="40.503417" lon="-5.204667">
        <ele>1321.0</ele>
        <time>2016-06-11T13:11:40Z</time>
      </trkpt>
      <trkpt lat="40.503333" lon="-5.204650">
        <ele>1323.0</ele>
        <time>2016-06-11T13:11:41Z</time>
      </trkpt>
      <trkpt lat="40.503267" lon="-5.204650">
        <ele>1324.0</ele>
        <time>2016-06-11T13:11:42Z</time>
      </trkpt>
      <trkpt lat="40.503200" lon="-5.204667">
        <ele>1324.0</ele>
        <time>2016-06-11T13:11:43Z</time>
      </trkpt>
      <trkpt lat="40.503133" lon="-5.204700">
        <ele>1324.0</ele>
        <time>2016-06-11T13:11:44Z</time>
      </trkpt>
      <trkpt lat="40.503083" lon="-5.204733">
        <ele>1325.0</ele>
        <time>2016-06-11T13:11:45Z</time>
      </trkpt>
      <trkpt lat="40.503017" lon="-5.204783">
        <ele>1325.0</ele>
        <time>2016-06-11T13:11:46Z</time>
      </trkpt>
      <trkpt lat="40.502983" lon="-5.204833">
        <ele>1326.0</ele>
        <time>2016-06-11T13:11:47Z</time>
      </trkpt>
      <trkpt lat="40.502950" lon="-5.204900">
        <ele>1327.0</ele>
        <time>2016-06-11T13:11:48Z</time>
      </trkpt>
      <trkpt lat="40.502933" lon="-5.204967">
        <ele>1328.0</ele>
        <time>2016-06-11T13:11:49Z</time>
      </trkpt>
      <trkpt lat="40.502917" lon="-5.205050">
        <ele>1330.0</ele>
        <time>2016-06-11T13:11:50Z</time>
      </trkpt>
      <trkpt lat="40.502900" lon="-5.205117">
        <ele>1332.0</ele>
        <time>2016-06-11T13:11:51Z</time>
      </trkpt>
      <trkpt lat="40.502900" lon="-5.205183">
        <ele>1335.0</ele>
        <time>2016-06-11T13:11:52Z</time>
      </trkpt>
      <trkpt lat="40.502900" lon="-5.205250">
        <ele>1339.0</ele>
        <time>2016-06-11T13:11:53Z</time>
      </trkpt>
      <trkpt lat="40.502917" lon="-5.205283">
        <ele>1344.0</ele>
        <time>2016-06-11T13:11:54Z</time>
      </trkpt>
      <trkpt lat="40.502933" lon="-5.205317">
        <ele>1348.0</ele>
        <time>2016-06-11T13:11:55Z</time>
      </trkpt>
      <trkpt lat="40.502967" lon="-5.205350">
        <ele>1350.0</ele>
        <time>2016-06-11T13:11:56Z</time>
      </trkpt>
      <trkpt lat="40.503033" lon="-5.205350">
        <ele>1351.0</ele>
        <time>2016-06-11T13:11:57Z</time>
      </trkpt>
      <trkpt lat="40.503117" lon="-5.205317">
        <ele>1351.0</ele>
        <time>2016-06-11T13:11:58Z</time>
      </trkpt>
      <trkpt lat="40.503200" lon="-5.205217">
        <ele>1350.0</ele>
        <time>2016-06-11T13:11:59Z</time>
      </trkpt>
      <trkpt lat="40.503267" lon="-5.205067">
        <ele>1351.0</ele>
        <time>2016-06-11T13:12:00Z</time>
      </trkpt>
      <trkpt lat="40.503267" lon="-5.204917">
        <ele>1355.0</ele>
        <time>2016-06-11T13:12:01Z</time>
      </trkpt>
      <trkpt lat="40.503267" lon="-5.204783">
        <ele>1359.0</ele>
        <time>2016-06-11T13:12:02Z</time>
      </trkpt>
      <trkpt lat="40.503233" lon="-5.204683">
        <ele>1363.0</ele>
        <time>2016-06-11T13:12:03Z</time>
      </trkpt>
      <trkpt lat="40.503217" lon="-5.204567">
        <ele>1365.0</ele>
        <time>2016-06-11T13:12:04Z</time>
      </trkpt>
      <trkpt lat="40.503183" lon="-5.204450">
        <ele>1365.0</ele>
        <time>2016-06-11T13:12:05Z</time>
      </trkpt>
      <trkpt lat="40.503117" lon="-5.204333">
        <ele>1366.0</ele>
        <time>2016-06-11T13:12:06Z</time>
      </trkpt>
      <trkpt lat="40.503033" lon="-5.204250">
        <ele>1367.0</ele>
        <time>2016-06-11T13:12:07Z</time>
      </trkpt>
      <trkpt lat="40.502950" lon="-5.204233">
        <ele>1368.0</ele>
        <time>2016-06-11T13:12:08Z</time>
      </trkpt>
      <trkpt lat="40.502883" lon="-5.204283">
        <ele>1369.0</ele>
        <time>2016-06-11T13:12:09Z</time>
      </trkpt>
      <trkpt lat="40.502833" lon="-5.204350">
        <ele>1371.0</ele>
        <time>2016-06-11T13:12:10Z</time>
      </trkpt>
      <trkpt lat="40.502817" lon="-5.204433">
        <ele>1374.0</ele>
        <time>2016-06-11T13:12:11Z</time>
      </trkpt>
      <trkpt lat="40.502817" lon="-5.204500">
        <ele>1377.0</ele>
        <time>2016-06-11T13:12:12Z</time>
      </trkpt>
      <trkpt lat="40.502800" lon="-5.204550">
        <ele>1379.0</ele>
        <time>2016-06-11T13:12:13Z</time>
      </trkpt>
      <trkpt lat="40.502800" lon="-5.204617">
        <ele>1381.0</ele>
        <time>2016-06-11T13:12:14Z</time>
      </trkpt>
      <trkpt lat="40.502800" lon="-5.204700">
        <ele>1383.0</ele>
        <time>2016-06-11T13:12:15Z</time>
      </trkpt>
      <trkpt lat="40.502833" lon="-5.204800">
        <ele>1385.0</ele>
        <time>2016-06-11T13:12:16Z</time>
      </trkpt>
      <trkpt lat="40.502883" lon="-5.204850">
        <ele>1389.0</ele>
        <time>2016-06-11T13:12:17Z</time>
      </trkpt>
      <trkpt lat="40.502950" lon="-5.204867">
        <ele>1395.0</ele>
        <time>2016-06-11T13:12:18Z</time>
      </trkpt>
      <trkpt lat="40.503000" lon="-5.204833">
        <ele>1398.0</ele>
        <time>2016-06-11T13:12:19Z</time>
      </trkpt>
      <trkpt lat="40.503017" lon="-5.204800">
        <ele>1399.0</ele>
        <time>2016-06-11T13:12:20Z</time>
      </trkpt>
      <trkpt lat="40.503050" lon="-5.204767">
        <ele>1399.0</ele>
        <time>2016-06-11T13:12:21Z</time>
      </trkpt>
      <trkpt lat="40.503100" lon="-5.204717">
        <ele>1398.0</ele>
        <time>2016-06-11T13:12:22Z</time>
      </trkpt>
      <trkpt lat="40.503167" lon="-5.204650">
        <ele>1397.0</ele>
        <time>2016-06-11T13:12:23Z</time>
      </trkpt>
      <trkpt lat="40.503217" lon="-5.204517">
        <ele>1396.0</ele>
        <time>2016-06-11T13:12:24Z</time>
      </trkpt>
      <trkpt lat="40.503200" lon="-5.204367">
        <ele>1396.0</ele>
        <time>2016-06-11T13:12:25Z</time>
      </trkpt>
      <trkpt lat="40.503133" lon="-5.204233">
        <ele>1396.0</ele>
        <time>2016-06-11T13:12:26Z</time>
      </trkpt>
      <trkpt lat="40.503050" lon="-5.204133">
        <ele>1399.0</ele>
        <time>2016-06-11T13:12:27Z</time>
      </trkpt>
      <trkpt lat="40.502983" lon="-5.204050">
        <ele>1403.0</ele>
        <time>2016-06-11T13:12:28Z</time>
      </trkpt>
      <trkpt lat="40.502933" lon="-5.203950">
        <ele>1407.0</ele>
        <time>2016-06-11T13:12:29Z</time>
      </trkpt>
      <trkpt lat="40.502883" lon="-5.203867">
        <ele>1409.0</ele>
        <time>2016-06-11T13:12:30Z</time>
      </trkpt>
      <trkpt lat="40.502817" lon="-5.203783">
        <ele>1411.0</ele>
        <time>2016-06-11T13:12:31Z</time>
      </trkpt>
      <trkpt lat="40.502733" lon="-5.203750">
        <ele>1413.0</ele>
        <time>2016-06-11T13:12:32Z</time>
      </trkpt>
      <trkpt lat="40.502650" lon="-5.203767">
        <ele>1414.0</ele>
        <time>2016-06-11T13:12:33Z</time>
      </trkpt>
      <trkpt lat="40.502567" lon="-5.203800">
        <ele>1418.0</ele>
        <time>2016-06-11T13:12:34Z</time>
      </trkpt>
      <trkpt lat="40.502517" lon="-5.203800">
        <ele>1421.0</ele>
        <time>2016-06-11T13:12:35Z</time>
      </trkpt>
      <trkpt lat="40.502450" lon="-5.203800">
        <ele>1424.0</ele>
        <time>2016-06-11T13:12:36Z</time>
      </trkpt>
      <trkpt lat="40.502400" lon="-5.203817">
        <ele>1426.0</ele>
        <time>2016-06-11T13:12:37Z</time>
      </trkpt>
      <trkpt lat="40.502333" lon="-5.203833">
        <ele>1427.0</ele>
        <time>2016-06-11T13:12:38Z</time>
      </trkpt>
      <trkpt lat="40.502283" lon="-5.203900">
        <ele>1429.0</ele>
        <time>2016-06-11T13:12:39Z</time>
      </trkpt>
      <trkpt lat="40.502250" lon="-5.203967">
        <ele>1431.0</ele>
        <time>2016-06-11T13:12:40Z</time>
      </trkpt>
      <trkpt lat="40.502217" lon="-5.204017">
        <ele>1435.0</ele>
        <time>2016-06-11T13:12:41Z</time>
      </trkpt>
      <trkpt lat="40.502183" lon="-5.204050">
        <ele>1439.0</ele>
        <time>2016-06-11T13:12:42Z</time>
      </trkpt>
      <trkpt lat="40.502167" lon="-5.204067">
        <ele>1442.0</ele>
        <time>2016-06-11T13:12:43Z</time>
      </trkpt>
      <trkpt lat="40.502150" lon="-5.204083">
        <ele>1443.0</ele>
        <time>2016-06-11T13:12:44Z</time>
      </trkpt>
      <trkpt lat="40.502133" lon="-5.204117">
        <ele>1444.0</ele>
        <time>2016-06-11T13:12:45Z</time>
      </trkpt>
      <trkpt lat="40.502117" lon="-5.204167">
        <ele>1444.0</ele>
        <time>2016-06-11T13:12:46Z</time>
      </trkpt>
      <trkpt lat="40.502133" lon="-5.204217">
        <ele>1444.0</ele>
        <time>2016-06-11T13:12:47Z</time>
      </trkpt>
      <trkpt lat="40.502167" lon="-5.204250">
        <ele>1444.0</ele>
        <time>2016-06-11T13:12:48Z</time>
      </trkpt>
      <trkpt lat="40.502200" lon="-5.204283">
        <ele>1444.0</ele>
        <time>2016-06-11T13:12:49Z</time>
      </trkpt>
      <trkpt lat="40.502233" lon="-5.204300">
        <ele>1443.0</ele>
        <time>2016-06-11T13:12:50Z</time>
      </trkpt>
      <trkpt lat="40.502283" lon="-5.204300">
        <ele>1441.0</ele>
        <time>2016-06-11T13:12:51Z</time>
      </trkpt>
      <trkpt lat="40.502350" lon="-5.204250">
        <ele>1439.0</ele>
        <time>2016-06-11T13:12:52Z</time>
      </trkpt>
      <trkpt lat="40.502417" lon="-5.204167">
        <ele>1436.0</ele>
        <time>2016-06-11T13:12:53Z</time>
      </trkpt>
      <trkpt lat="40.502467" lon="-5.204033">
        <ele>1433.0</ele>
        <time>2016-06-11T13:12:54Z</time>
      </trkpt>
      <trkpt lat="40.502500" lon="-5.203883">
        <ele>1433.0</ele>
        <time>2016-06-11T13:12:55Z</time>
      </trkpt>
      <trkpt lat="40.502483" lon="-5.203733">
        <ele>1433.0</ele>
        <time>2016-06-11T13:12:56Z</time>
      </trkpt>
      <trkpt lat="40.502483" lon="-5.203600">
        <ele>1434.0</ele>
        <time>2016-06-11T13:12:57Z</time>
      </trkpt>
      <trkpt lat="40.502450" lon="-5.203483">
        <ele>1433.0</ele>
        <time>2016-06-11T13:12:58Z</time>
      </trkpt>
      <trkpt lat="40.502417" lon="-5.203333">
        <ele>1433.0</ele>
        <time>2016-06-11T13:12:59Z</time>
      </trkpt>
      <trkpt lat="40.502350" lon="-5.203200">
        <ele>1432.0</ele>
        <time>2016-06-11T13:13:00Z</time>
      </trkpt>
      <trkpt lat="40.502283" lon="-5.203083">
        <ele>1433.0</ele>
        <time>2016-06-11T13:13:01Z</time>
      </trkpt>
      <trkpt lat="40.502200" lon="-5.203000">
        <ele>1435.0</ele>
        <time>2016-06-11T13:13:02Z</time>
      </trkpt>
      <trkpt lat="40.502117" lon="-5.202917">
        <ele>1437.0</ele>
        <time>2016-06-11T13:13:03Z</time>
      </trkpt>
      <trkpt lat="40.502050" lon="-5.202850">
        <ele>1439.0</ele>
        <time>2016-06-11T13:13:04Z</time>
      </trkpt>
      <trkpt lat="40.501983" lon="-5.202767">
        <ele>1441.0</ele>
        <time>2016-06-11T13:13:05Z</time>
      </trkpt>
      <trkpt lat="40.501900" lon="-5.202717">
        <ele>1442.0</ele>
        <time>2016-06-11T13:13:06Z</time>
      </trkpt>
      <trkpt lat="40.501817" lon="-5.202667">
        <ele>1444.0</ele>
        <time>2016-06-11T13:13:07Z</time>
      </trkpt>
      <trkpt lat="40.501717" lon="-5.202633">
        <ele>1445.0</ele>
        <time>2016-06-11T13:13:08Z</time>
      </trkpt>
      <trkpt lat="40.501633" lon="-5.202600">
        <ele>1447.0</ele>
        <time>2016-06-11T13:13:09Z</time>
      </trkpt>
      <trkpt lat="40.501533" lon="-5.202567">
        <ele>1450.0</ele>
        <time>2016-06-11T13:13:10Z</time>
      </trkpt>
      <trkpt lat="40.501450" lon="-5.202533">
        <ele>1452.0</ele>
        <time>2016-06-11T13:13:11Z</time>
      </trkpt>
      <trkpt lat="40.501383" lon="-5.202533">
        <ele>1455.0</ele>
        <time>2016-06-11T13:13:12Z</time>
      </trkpt>
      <trkpt lat="40.501317" lon="-5.202550">
        <ele>1457.0</ele>
        <time>2016-06-11T13:13:13Z</time>
      </trkpt>
      <trkpt lat="40.501250" lon="-5.202567">
        <ele>1458.0</ele>
        <time>2016-06-11T13:13:14Z</time>
      </trkpt>
      <trkpt lat="40.501183" lon="-5.202617">
        <ele>1460.0</ele>
        <time>2016-06-11T13:13:15Z</time>
      </trkpt>
      <trkpt lat="40.501133" lon="-5.202650">
        <ele>1461.0</ele>
        <time>2016-06-11T13:13:16Z</time>
      </trkpt>
      <trkpt lat="40.501083" lon="-5.202683">
        <ele>1463.0</ele>
        <time>2016-06-11T13:13:17Z</time>
      </trkpt>
      <trkpt lat="40.501050" lon="-5.202717">
        <ele>1465.0</ele>
        <time>2016-06-11T13:13:18Z</time>
      </trkpt>
      <trkpt lat="40.501017" lon="-5.202750">
        <ele>1466.0</ele>
        <time>2016-06-11T13:13:19Z</time>
      </trkpt>
      <trkpt lat="40.500983" lon="-5.202783">
        <ele>1468.0</ele>
        <time>2016-06-11T13:13:20Z</time>
      </trkpt>
      <trkpt lat="40.500967" lon="-5.202833">
        <ele>1470.0</ele>
        <time>2016-06-11T13:13:21Z</time>
      </trkpt>
      <trkpt lat="40.500950" lon="-5.202883">
        <ele>1472.0</ele>
        <time>2016-06-11T13:13:22Z</time>
      </trkpt>
      <trkpt lat="40.500950" lon="-5.202933">
        <ele>1473.0</ele>
        <time>2016-06-11T13:13:23Z</time>
      </trkpt>
      <trkpt lat="40.500950" lon="-5.202983">
        <ele>1475.0</ele>
        <time>2016-06-11T13:13:24Z</time>
      </trkpt>
      <trkpt lat="40.500950" lon="-5.203017">
        <ele>1477.0</ele>
        <time>2016-06-11T13:13:25Z</time>
      </trkpt>
      <trkpt lat="40.500933" lon="-5.203067">
        <ele>1478.0</ele>
        <time>2016-06-11T13:13:26Z</time>
      </trkpt>
      <trkpt lat="40.500917" lon="-5.203100">
        <ele>1479.0</ele>
        <time>2016-06-11T13:13:27Z</time>
      </trkpt>
      <trkpt lat="40.500900" lon="-5.203150">
        <ele>1479.0</ele>
        <time>2016-06-11T13:13:28Z</time>
      </trkpt>
      <trkpt lat="40.500933" lon="-5.203183">
        <ele>1478.0</ele>
        <time>2016-06-11T13:13:29Z</time>
      </trkpt>
      <trkpt lat="40.500967" lon="-5.203200">
        <ele>1479.0</ele>
        <time>2016-06-11T13:13:30Z</time>
      </trkpt>
      <trkpt lat="40.501033" lon="-5.203183">
        <ele>1480.0</ele>
        <time>2016-06-11T13:13:31Z</time>
      </trkpt>
      <trkpt lat="40.501083" lon="-5.203167">
        <ele>1481.0</ele>
        <time>2016-06-11T13:13:32Z</time>
      </trkpt>
      <trkpt lat="40.501133" lon="-5.203117">
        <ele>1483.0</ele>
        <time>2016-06-11T13:13:33Z</time>
      </trkpt>
      <trkpt lat="40.501167" lon="-5.203033">
        <ele>1484.0</ele>
        <time>2016-06-11T13:13:34Z</time>
      </trkpt>
      <trkpt lat="40.501200" lon="-5.202950">
        <ele>1484.0</ele>
        <time>2016-06-11T13:13:35Z</time>
      </trkpt>
      <trkpt lat="40.501250" lon="-5.202817">
        <ele>1484.0</ele>
        <time>2016-06-11T13:13:36Z</time>
      </trkpt>
      <trkpt lat="40.501267" lon="-5.202683">
        <ele>1484.0</ele>
        <time>2016-06-11T13:13:37Z</time>
      </trkpt>
      <trkpt lat="40.501283" lon="-5.202517">
        <ele>1484.0</ele>
        <time>2016-06-11T13:13:38Z</time>
      </trkpt>
      <trkpt lat="40.501267" lon="-5.202367">
        <ele>1485.0</ele>
        <time>2016-06-11T13:13:39Z</time>
      </trkpt>
      <trkpt lat="40.501233" lon="-5.202217">
        <ele>1486.0</ele>
        <time>2016-06-11T13:13:40Z</time>
      </trkpt>
      <trkpt lat="40.501167" lon="-5.202100">
        <ele>1486.0</ele>
        <time>2016-06-11T13:13:41Z</time>
      </trkpt>
      <trkpt lat="40.501100" lon="-5.202000">
        <ele>1486.0</ele>
        <time>2016-06-11T13:13:42Z</time>
      </trkpt>
      <trkpt lat="40.501017" lon="-5.201933">
        <ele>1485.0</ele>
        <time>2016-06-11T13:13:43Z</time>
      </trkpt>
      <trkpt lat="40.500933" lon="-5.201883">
        <ele>1485.0</ele>
        <time>2016-06-11T13:13:44Z</time>
      </trkpt>
      <trkpt lat="40.500833" lon="-5.201850">
        <ele>1485.0</ele>
        <time>2016-06-11T13:13:45Z</time>
      </trkpt>
      <trkpt lat="40.500733" lon="-5.201817">
        <ele>1486.0</ele>
        <time>2016-06-11T13:13:46Z</time>
      </trkpt>
      <trkpt lat="40.500650" lon="-5.201817">
        <ele>1487.0</ele>
        <time>2016-06-11T13:13:47Z</time>
      </trkpt>
      <trkpt lat="40.500567" lon="-5.201800">
        <ele>1487.0</ele>
        <time>2016-06-11T13:13:48Z</time>
      </trkpt>
      <trkpt lat="40.500483" lon="-5.201800">
        <ele>1488.0</ele>
        <time>2016-06-11T13:13:49Z</time>
      </trkpt>
      <trkpt lat="40.500417" lon="-5.201817">
        <ele>1489.0</ele>
        <time>2016-06-11T13:13:50Z</time>
      </trkpt>
      <trkpt lat="40.500333" lon="-5.201850">
        <ele>1490.0</ele>
        <time>2016-06-11T13:13:51Z</time>
      </trkpt>
      <trkpt lat="40.500267" lon="-5.201900">
        <ele>1492.0</ele>
        <time>2016-06-11T13:13:52Z</time>
      </trkpt>
      <trkpt lat="40.500200" lon="-5.201950">
        <ele>1494.0</ele>
        <time>2016-06-11T13:13:53Z</time>
      </trkpt>
      <trkpt lat="40.500150" lon="-5.202000">
        <ele>1495.0</ele>
        <time>2016-06-11T13:13:54Z</time>
      </trkpt>
      <trkpt lat="40.500083" lon="-5.202050">
        <ele>1497.0</ele>
        <time>2016-06-11T13:13:55Z</time>
      </trkpt>
      <trkpt lat="40.500033" lon="-5.202100">
        <ele>1499.0</ele>
        <time>2016-06-11T13:13:56Z</time>
      </trkpt>
      <trkpt lat="40.499983" lon="-5.202167">
        <ele>1502.0</ele>
        <time>2016-06-11T13:13:57Z</time>
      </trkpt>
      <trkpt lat="40.499933" lon="-5.202183">
        <ele>1505.0</ele>
        <time>2016-06-11T13:13:58Z</time>
      </trkpt>
      <trkpt lat="40.499867" lon="-5.202217">
        <ele>1508.0</ele>
        <time>2016-06-11T13:13:59Z</time>
      </trkpt>
      <trkpt lat="40.499817" lon="-5.202233">
        <ele>1510.0</ele>
        <time>2016-06-11T13:14:00Z</time>
      </trkpt>
      <trkpt lat="40.499783" lon="-5.202267">
        <ele>1511.0</ele>
        <time>2016-06-11T13:14:01Z</time>
      </trkpt>
      <trkpt lat="40.499750" lon="-5.202317">
        <ele>1512.0</ele>
        <time>2016-06-11T13:14:02Z</time>
      </trkpt>
      <trkpt lat="40.499750" lon="-5.202350">
        <ele>1513.0</ele>
        <time>2016-06-11T13:14:03Z</time>
      </trkpt>
      <trkpt lat="40.499767" lon="-5.202400">
        <ele>1514.0</ele>
        <time>2016-06-11T13:14:04Z</time>
      </trkpt>
      <trkpt lat="40.499783" lon="-5.202433">
        <ele>1517.0</ele>
        <time>2016-06-11T13:14:05Z</time>
      </trkpt>
      <trkpt lat="40.499817" lon="-5.202467">
        <ele>1520.0</ele>
        <time>2016-06-11T13:14:06Z</time>
      </trkpt>
      <trkpt lat="40.499817" lon="-5.202500">
        <ele>1523.0</ele>
        <time>2016-06-11T13:14:07Z</time>
      </trkpt>
      <trkpt lat="40.499817" lon="-5.202517">
        <ele>1526.0</ele>
        <time>2016-06-11T13:14:08Z</time>
      </trkpt>
      <trkpt lat="40.499817" lon="-5.202550">
        <ele>1529.0</ele>
        <time>2016-06-11T13:14:09Z</time>
      </trkpt>
      <trkpt lat="40.499817" lon="-5.202583">
        <ele>1531.0</ele>
        <time>2016-06-11T13:14:10Z</time>
      </trkpt>
      <trkpt lat="40.499817" lon="-5.202617">
        <ele>1533.0</ele>
        <time>2016-06-11T13:14:11Z</time>
      </trkpt>
      <trkpt lat="40.499817" lon="-5.202683">
        <ele>1535.0</ele>
        <time>2016-06-11T13:14:12Z</time>
      </trkpt>
      <trkpt lat="40.499800" lon="-5.202750">
        <ele>1538.0</ele>
        <time>2016-06-11T13:14:13Z</time>
      </trkpt>
      <trkpt lat="40.499783" lon="-5.202817">
        <ele>1541.0</ele>
        <time>2016-06-11T13:14:14Z</time>
      </trkpt>
      <trkpt lat="40.499767" lon="-5.202867">
        <ele>1544.0</ele>
        <time>2016-06-11T13:14:15Z</time>
      </trkpt>
      <trkpt lat="40.499750" lon="-5.202917">
        <ele>1547.0</ele>
        <time>2016-06-11T13:14:16Z</time>
      </trkpt>
      <trkpt lat="40.499767" lon="-5.202933">
        <ele>1549.0</ele>
        <time>2016-06-11T13:14:17Z</time>
      </trkpt>
      <trkpt lat="40.499800" lon="-5.202950">
        <ele>1551.0</ele>
        <time>2016-06-11T13:14:18Z</time>
      </trkpt>
      <trkpt lat="40.499850" lon="-5.202933">
        <ele>1551.0</ele>
        <time>2016-06-11T13:14:19Z</time>
      </trkpt>
      <trkpt lat="40.499917" lon="-5.202900">
        <ele>1551.0</ele>
        <time>2016-06-11T13:14:20Z</time>
      </trkpt>
      <trkpt lat="40.500000" lon="-5.202817">
        <ele>1552.0</ele>
        <time>2016-06-11T13:14:21Z</time>
      </trkpt>
      <trkpt lat="40.500067" lon="-5.202667">
        <ele>1553.0</ele>
        <time>2016-06-11T13:14:22Z</time>
      </trkpt>
      <trkpt lat="40.500083" lon="-5.202500">
        <ele>1555.0</ele>
        <time>2016-06-11T13:14:23Z</time>
      </trkpt>
      <trkpt lat="40.500067" lon="-5.202350">
        <ele>1559.0</ele>
        <time>2016-06-11T13:14:24Z</time>
      </trkpt>
      <trkpt lat="40.500067" lon="-5.202183">
        <ele>1563.0</ele>
        <time>2016-06-11T13:14:25Z</time>
      </trkpt>
      <trkpt lat="40.500050" lon="-5.202033">
        <ele>1567.0</ele>
        <time>2016-06-11T13:14:26Z</time>
      </trkpt>
      <trkpt lat="40.500050" lon="-5.201900">
        <ele>1570.0</ele>
        <time>2016-06-11T13:14:27Z</time>
      </trkpt>
      <trkpt lat="40.500017" lon="-5.201767">
        <ele>1573.0</ele>
        <time>2016-06-11T13:14:28Z</time>
      </trkpt>
      <trkpt lat="40.499950" lon="-5.201633">
        <ele>1575.0</ele>
        <time>2016-06-11T13:14:29Z</time>
      </trkpt>
      <trkpt lat="40.499867" lon="-5.201517">
        <ele>1578.0</ele>
        <time>2016-06-11T13:14:30Z</time>
      </trkpt>
      <trkpt lat="40.499783" lon="-5.201450">
        <ele>1582.0</ele>
        <time>2016-06-11T13:14:31Z</time>
      </trkpt>
      <trkpt lat="40.499700" lon="-5.201383">
        <ele>1586.0</ele>
        <time>2016-06-11T13:14:32Z</time>
      </trkpt>
      <trkpt lat="40.499617" lon="-5.201350">
        <ele>1590.0</ele>
        <time>2016-06-11T13:14:33Z</time>
      </trkpt>
      <trkpt lat="40.499550" lon="-5.201317">
        <ele>1593.0</ele>
        <time>2016-06-11T13:14:34Z</time>
      </trkpt>
      <trkpt lat="40.499450" lon="-5.201283">
        <ele>1596.0</ele>
        <time>2016-06-11T13:14:35Z</time>
      </trkpt>
      <trkpt lat="40.499367" lon="-5.201267">
        <ele>1600.0</ele>
        <time>2016-06-11T13:14:36Z</time>
      </trkpt>
      <trkpt lat="40.499283" lon="-5.201267">
        <ele>1603.0</ele>
        <time>2016-06-11T13:14:37Z</time>
      </trkpt>
      <trkpt lat="40.499233" lon="-5.201283">
        <ele>1606.0</ele>
        <time>2016-06-11T13:14:38Z</time>
      </trkpt>
      <trkpt lat="40.499200" lon="-5.201333">
        <ele>1610.0</ele>
        <time>2016-06-11T13:14:39Z</time>
      </trkpt>
      <trkpt lat="40.499183" lon="-5.201367">
        <ele>1613.0</ele>
        <time>2016-06-11T13:14:40Z</time>
      </trkpt>
      <trkpt lat="40.499150" lon="-5.201400">
        <ele>1617.0</ele>
        <time>2016-06-11T13:14:41Z</time>
      </trkpt>
      <trkpt lat="40.499100" lon="-5.201450">
        <ele>1620.0</ele>
        <time>2016-06-11T13:14:42Z</time>
      </trkpt>
      <trkpt lat="40.499067" lon="-5.201483">
        <ele>1622.0</ele>
        <time>2016-06-11T13:14:43Z</time>
      </trkpt>
      <trkpt lat="40.499033" lon="-5.201550">
        <ele>1625.0</ele>
        <time>2016-06-11T13:14:44Z</time>
      </trkpt>
      <trkpt lat="40.499050" lon="-5.201600">
        <ele>1627.0</ele>
        <time>2016-06-11T13:14:45Z</time>
      </trkpt>
      <trkpt lat="40.499083" lon="-5.201633">
        <ele>1629.0</ele>
        <time>2016-06-11T13:14:46Z</time>
      </trkpt>
      <trkpt lat="40.499133" lon="-5.201650">
        <ele>1631.0</ele>
        <time>2016-06-11T13:14:47Z</time>
      </trkpt>
      <trkpt lat="40.499200" lon="-5.201633">
        <ele>1633.0</ele>
        <time>2016-06-11T13:14:48Z</time>
      </trkpt>
      <trkpt lat="40.499250" lon="-5.201600">
        <ele>1636.0</ele>
        <time>2016-06-11T13:14:49Z</time>
      </trkpt>
      <trkpt lat="40.499300" lon="-5.201550">
        <ele>1637.0</ele>
        <time>2016-06-11T13:14:50Z</time>
      </trkpt>
      <trkpt lat="40.499350" lon="-5.201467">
        <ele>1637.0</ele>
        <time>2016-06-11T13:14:51Z</time>
      </trkpt>
      <trkpt lat="40.499417" lon="-5.201333">
        <ele>1638.0</ele>
        <time>2016-06-11T13:14:52Z</time>
      </trkpt>
      <trkpt lat="40.499450" lon="-5.201167">
        <ele>1639.0</ele>
        <time>2016-06-11T13:14:53Z</time>
      </trkpt>
      <trkpt lat="40.499467" lon="-5.201000">
        <ele>1641.0</ele>
        <time>2016-06-11T13:14:54Z</time>
      </trkpt>
      <trkpt lat="40.499467" lon="-5.200817">
        <ele>1645.0</ele>
        <time>2016-06-11T13:14:55Z</time>
      </trkpt>
      <trkpt lat="40.499450" lon="-5.200650">
        <ele>1649.0</ele>
        <time>2016-06-11T13:14:56Z</time>
      </trkpt>
      <trkpt lat="40.499417" lon="-5.200517">
        <ele>1652.0</ele>
        <time>2016-06-11T13:14:57Z</time>
      </trkpt>
      <trkpt lat="40.499383" lon="-5.200367">
        <ele>1654.0</ele>
        <time>2016-06-11T13:14:58Z</time>
      </trkpt>
      <trkpt lat="40.499317" lon="-5.200233">
        <ele>1656.0</ele>
        <time>2016-06-11T13:14:59Z</time>
      </trkpt>
      <trkpt lat="40.499250" lon="-5.200100">
        <ele>1658.0</ele>
        <time>2016-06-11T13:15:00Z</time>
      </trkpt>
      <trkpt lat="40.499150" lon="-5.200000">
        <ele>1661.0</ele>
        <time>2016-06-11T13:15:01Z</time>
      </trkpt>
      <trkpt lat="40.499050" lon="-5.199917">
        <ele>1664.0</ele>
        <time>2016-06-11T13:15:02Z</time>
      </trkpt>
      <trkpt lat="40.498950" lon="-5.199867">
        <ele>1667.0</ele>
        <time>2016-06-11T13:15:03Z</time>
      </trkpt>
      <trkpt lat="40.498867" lon="-5.199817">
        <ele>1671.0</ele>
        <time>2016-06-11T13:15:04Z</time>
      </trkpt>
      <trkpt lat="40.498783" lon="-5.199783">
        <ele>1673.0</ele>
        <time>2016-06-11T13:15:05Z</time>
      </trkpt>
      <trkpt lat="40.498717" lon="-5.199783">
        <ele>1675.0</ele>
        <time>2016-06-11T13:15:06Z</time>
      </trkpt>
      <trkpt lat="40.498617" lon="-5.199783">
        <ele>1678.0</ele>
        <time>2016-06-11T13:15:07Z</time>
      </trkpt>
      <trkpt lat="40.498533" lon="-5.199800">
        <ele>1681.0</ele>
        <time>2016-06-11T13:15:08Z</time>
      </trkpt>
      <trkpt lat="40.498450" lon="-5.199817">
        <ele>1684.0</ele>
        <time>2016-06-11T13:15:09Z</time>
      </trkpt>
      <trkpt lat="40.498400" lon="-5.199850">
        <ele>1687.0</ele>
        <time>2016-06-11T13:15:10Z</time>
      </trkpt>
      <trkpt lat="40.498350" lon="-5.199900">
        <ele>1690.0</ele>
        <time>2016-06-11T13:15:11Z</time>
      </trkpt>
      <trkpt lat="40.498333" lon="-5.199983">
        <ele>1691.0</ele>
        <time>2016-06-11T13:15:12Z</time>
      </trkpt>
      <trkpt lat="40.498333" lon="-5.200050">
        <ele>1694.0</ele>
        <time>2016-06-11T13:15:13Z</time>
      </trkpt>
      <trkpt lat="40.498317" lon="-5.200117">
        <ele>1698.0</ele>
        <time>2016-06-11T13:15:14Z</time>
      </trkpt>
      <trkpt lat="40.498300" lon="-5.200150">
        <ele>1704.0</ele>
        <time>2016-06-11T13:15:15Z</time>
      </trkpt>
      <trkpt lat="40.498300" lon="-5.200200">
        <ele>1708.0</ele>
        <time>2016-06-11T13:15:16Z</time>
      </trkpt>
      <trkpt lat="40.498300" lon="-5.200250">
        <ele>1711.0</ele>
        <time>2016-06-11T13:15:17Z</time>
      </trkpt>
      <trkpt lat="40.498300" lon="-5.200300">
        <ele>1713.0</ele>
        <time>2016-06-11T13:15:18Z</time>
      </trkpt>
      <trkpt lat="40.498317" lon="-5.200333">
        <ele>1715.0</ele>
        <time>2016-06-11T13:15:19Z</time>
      </trkpt>
      <trkpt lat="40.498350" lon="-5.200367">
        <ele>1718.0</ele>
        <time>2016-06-11T13:15:20Z</time>
      </trkpt>
      <trkpt lat="40.498383" lon="-5.200367">
        <ele>1720.0</ele>
        <time>2016-06-11T13:15:21Z</time>
      </trkpt>
      <trkpt lat="40.498433" lon="-5.200333">
        <ele>1721.0</ele>
        <time>2016-06-11T13:15:22Z</time>
      </trkpt>
      <trkpt lat="40.498483" lon="-5.200300">
        <ele>1721.0</ele>
        <time>2016-06-11T13:15:23Z</time>
      </trkpt>
      <trkpt lat="40.498533" lon="-5.200233">
        <ele>1721.0</ele>
        <time>2016-06-11T13:15:24Z</time>
      </trkpt>
      <trkpt lat="40.498583" lon="-5.200150">
        <ele>1722.0</ele>
        <time>2016-06-11T13:15:25Z</time>
      </trkpt>
      <trkpt lat="40.498617" lon="-5.200017">
        <ele>1723.0</ele>
        <time>2016-06-11T13:15:26Z</time>
      </trkpt>
      <trkpt lat="40.498633" lon="-5.199867">
        <ele>1724.0</ele>
        <time>2016-06-11T13:15:27Z</time>
      </trkpt>
      <trkpt lat="40.498650" lon="-5.199717">
        <ele>1726.0</ele>
        <time>2016-06-11T13:15:28Z</time>
      </trkpt>
      <trkpt lat="40.498633" lon="-5.199567">
        <ele>1727.0</ele>
        <time>2016-06-11T13:15:29Z</time>
      </trkpt>
      <trkpt lat="40.498617" lon="-5.199417">
        <ele>1729.0</ele>
        <time>2016-06-11T13:15:30Z</time>
      </trkpt>
      <trkpt lat="40.498583" lon="-5.199267">
        <ele>1730.0</ele>
        <time>2016-06-11T13:15:31Z</time>
      </trkpt>
      <trkpt lat="40.498517" lon="-5.199117">
        <ele>1733.0</ele>
        <time>2016-06-11T13:15:32Z</time>
      </trkpt>
      <trkpt lat="40.498417" lon="-5.199017">
        <ele>1737.0</ele>
        <time>2016-06-11T13:15:33Z</time>
      </trkpt>
      <trkpt lat="40.498350" lon="-5.198933">
        <ele>1743.0</ele>
        <time>2016-06-11T13:15:34Z</time>
      </trkpt>
      <trkpt lat="40.498283" lon="-5.198850">
        <ele>1749.0</ele>
        <time>2016-06-11T13:15:35Z</time>
      </trkpt>
      <trkpt lat="40.498217" lon="-5.198783">
        <ele>1754.0</ele>
        <time>2016-06-11T13:15:36Z</time>
      </trkpt>
      <trkpt lat="40.498150" lon="-5.198733">
        <ele>1759.0</ele>
        <time>2016-06-11T13:15:37Z</time>
      </trkpt>
      <trkpt lat="40.498067" lon="-5.198733">
        <ele>1762.0</ele>
        <time>2016-06-11T13:15:38Z</time>
      </trkpt>
      <trkpt lat="40.497983" lon="-5.198733">
        <ele>1766.0</ele>
        <time>2016-06-11T13:15:39Z</time>
      </trkpt>
      <trkpt lat="40.497900" lon="-5.198767">
        <ele>1770.0</ele>
        <time>2016-06-11T13:15:40Z</time>
      </trkpt>
      <trkpt lat="40.497850" lon="-5.198800">
        <ele>1775.0</ele>
        <time>2016-06-11T13:15:41Z</time>
      </trkpt>
      <trkpt lat="40.497783" lon="-5.198833">
        <ele>1779.0</ele>
        <time>2016-06-11T13:15:42Z</time>
      </trkpt>
      <trkpt lat="40.497733" lon="-5.198867">
        <ele>1782.0</ele>
        <time>2016-06-11T13:15:43Z</time>
      </trkpt>
      <trkpt lat="40.497683" lon="-5.198900">
        <ele>1784.0</ele>
        <time>2016-06-11T13:15:44Z</time>
      </trkpt>
      <trkpt lat="40.497650" lon="-5.198967">
        <ele>1786.0</ele>
        <time>2016-06-11T13:15:45Z</time>
      </trkpt>
      <trkpt lat="40.497633" lon="-5.199033">
        <ele>1787.0</ele>
        <time>2016-06-11T13:15:46Z</time>
      </trkpt>
      <trkpt lat="40.497650" lon="-5.199117">
        <ele>1790.0</ele>
        <time>2016-06-11T13:15:47Z</time>
      </trkpt>
      <trkpt lat="40.497683" lon="-5.199150">
        <ele>1793.0</ele>
        <time>2016-06-11T13:15:48Z</time>
      </trkpt>
      <trkpt lat="40.497717" lon="-5.199183">
        <ele>1795.0</ele>
        <time>2016-06-11T13:15:49Z</time>
      </trkpt>
      <trkpt lat="40.497767" lon="-5.199183">
        <ele>1798.0</ele>
        <time>2016-06-11T13:15:50Z</time>
      </trkpt>
      <trkpt lat="40.497817" lon="-5.199183">
        <ele>1799.0</ele>
        <time>2016-06-11T13:15:51Z</time>
      </trkpt>
      <trkpt lat="40.497867" lon="-5.199183">
        <ele>1801.0</ele>
        <time>2016-06-11T13:15:52Z</time>
      </trkpt>
      <trkpt lat="40.497933" lon="-5.199133">
        <ele>1803.0</ele>
        <time>2016-06-11T13:15:53Z</time>
      </trkpt>
      <trkpt lat="40.498000" lon="-5.199067">
        <ele>1804.0</ele>
        <time>2016-06-11T13:15:54Z</time>
      </trkpt>
      <trkpt lat="40.498067" lon="-5.198950">
        <ele>1805.0</ele>
        <time>2016-06-11T13:15:55Z</time>
      </trkpt>
      <trkpt lat="40.498100" lon="-5.198817">
        <ele>1806.0</ele>
        <time>2016-06-11T13:15:56Z</time>
      </trkpt>
      <trkpt lat="40.498133" lon="-5.198667">
        <ele>1806.0</ele>
        <time>2016-06-11T13:15:57Z</time>
      </trkpt>
      <trkpt lat="40.498117" lon="-5.198517">
        <ele>1806.0</ele>
        <time>2016-06-11T13:15:58Z</time>
      </trkpt>
      <trkpt lat="40.498100" lon="-5.198350">
        <ele>1807.0</ele>
        <time>2016-06-11T13:15:59Z</time>
      </trkpt>
      <trkpt lat="40.498067" lon="-5.198217">
        <ele>1810.0</ele>
        <time>2016-06-11T13:16:00Z</time>
      </trkpt>
      <trkpt lat="40.498017" lon="-5.198083">
        <ele>1812.0</ele>
        <time>2016-06-11T13:16:01Z</time>
      </trkpt>
      <trkpt lat="40.497967" lon="-5.197950">
        <ele>1814.0</ele>
        <time>2016-06-11T13:16:02Z</time>
      </trkpt>
      <trkpt lat="40.497900" lon="-5.197817">
        <ele>1817.0</ele>
        <time>2016-06-11T13:16:03Z</time>
      </trkpt>
      <trkpt lat="40.497817" lon="-5.197700">
        <ele>1820.0</ele>
        <time>2016-06-11T13:16:04Z</time>
      </trkpt>
      <trkpt lat="40.497750" lon="-5.197583">
        <ele>1824.0</ele>
        <time>2016-06-11T13:16:05Z</time>
      </trkpt>
      <trkpt lat="40.497667" lon="-5.197483">
        <ele>1827.0</ele>
        <time>2016-06-11T13:16:06Z</time>
      </trkpt>
      <trkpt lat="40.497600" lon="-5.197367">
        <ele>1831.0</ele>
        <time>2016-06-11T13:16:07Z</time>
      </trkpt>
      <trkpt lat="40.497517" lon="-5.197267">
        <ele>1836.0</ele>
        <time>2016-06-11T13:16:08Z</time>
      </trkpt>
      <trkpt lat="40.497467" lon="-5.197167">
        <ele>1841.0</ele>
        <time>2016-06-11T13:16:09Z</time>
      </trkpt>
      <trkpt lat="40.497383" lon="-5.197100">
        <ele>1843.0</ele>
        <time>2016-06-11T13:16:10Z</time>
      </trkpt>
      <trkpt lat="40.497317" lon="-5.197033">
        <ele>1845.0</ele>
        <time>2016-06-11T13:16:11Z</time>
      </trkpt>
      <trkpt lat="40.497233" lon="-5.197017">
        <ele>1847.0</ele>
        <time>2016-06-11T13:16:12Z</time>
      </trkpt>
      <trkpt lat="40.497150" lon="-5.197000">
        <ele>1848.0</ele>
        <time>2016-06-11T13:16:13Z</time>
      </trkpt>
      <trkpt lat="40.497083" lon="-5.197000">
        <ele>1850.0</ele>
        <time>2016-06-11T13:16:14Z</time>
      </trkpt>
      <trkpt lat="40.497033" lon="-5.197017">
        <ele>1851.0</ele>
        <time>2016-06-11T13:16:15Z</time>
      </trkpt>
      <trkpt lat="40.496967" lon="-5.197050">
        <ele>1853.0</ele>
        <time>2016-06-11T13:16:16Z</time>
      </trkpt>
      <trkpt lat="40.496917" lon="-5.197083">
        <ele>1855.0</ele>
        <time>2016-06-11T13:16:17Z</time>
      </trkpt>
      <trkpt lat="40.496850" lon="-5.197133">
        <ele>1858.0</ele>
        <time>2016-06-11T13:16:18Z</time>
      </trkpt>
      <trkpt lat="40.496817" lon="-5.197183">
        <ele>1861.0</ele>
        <time>2016-06-11T13:16:19Z</time>
      </trkpt>
      <trkpt lat="40.496800" lon="-5.197233">
        <ele>1865.0</ele>
        <time>2016-06-11T13:16:20Z</time>
      </trkpt>
      <trkpt lat="40.496800" lon="-5.197267">
        <ele>1867.0</ele>
        <time>2016-06-11T13:16:21Z</time>
      </trkpt>
      <trkpt lat="40.496800" lon="-5.197300">
        <ele>1870.0</ele>
        <time>2016-06-11T13:16:22Z</time>
      </trkpt>
      <trkpt lat="40.496800" lon="-5.197350">
        <ele>1872.0</ele>
        <time>2016-06-11T13:16:23Z</time>
      </trkpt>
      <trkpt lat="40.496800" lon="-5.197400">
        <ele>1874.0</ele>
        <time>2016-06-11T13:16:24Z</time>
      </trkpt>
      <trkpt lat="40.496833" lon="-5.197450">
        <ele>1876.0</ele>
        <time>2016-06-11T13:16:25Z</time>
      </trkpt>
      <trkpt lat="40.496883" lon="-5.197483">
        <ele>1878.0</ele>
        <time>2016-06-11T13:16:26Z</time>
      </trkpt>
      <trkpt lat="40.496950" lon="-5.197500">
        <ele>1880.0</ele>
        <time>2016-06-11T13:16:27Z</time>
      </trkpt>
      <trkpt lat="40.497017" lon="-5.197483">
        <ele>1882.0</ele>
        <time>2016-06-11T13:16:28Z</time>
      </trkpt>
      <trkpt lat="40.497067" lon="-5.197450">
        <ele>1885.0</ele>
        <time>2016-06-11T13:16:29Z</time>
      </trkpt>
      <trkpt lat="40.497133" lon="-5.197417">
        <ele>1887.0</ele>
        <time>2016-06-11T13:16:30Z</time>
      </trkpt>
      <trkpt lat="40.497200" lon="-5.197367">
        <ele>1889.0</ele>
        <time>2016-06-11T13:16:31Z</time>
      </trkpt>
      <trkpt lat="40.497267" lon="-5.197317">
        <ele>1891.0</ele>
        <time>2016-06-11T13:16:32Z</time>
      </trkpt>
      <trkpt lat="40.497333" lon="-5.197250">
        <ele>1893.0</ele>
        <time>2016-06-11T13:16:33Z</time>
      </trkpt>
      <trkpt lat="40.497400" lon="-5.197150">
        <ele>1895.0</ele>
        <time>2016-06-11T13:16:34Z</time>
      </trkpt>
      <trkpt lat="40.497433" lon="-5.197033">
        <ele>1897.0</ele>
        <time>2016-06-11T13:16:35Z</time>
      </trkpt>
      <trkpt lat="40.497483" lon="-5.196933">
        <ele>1899.0</ele>
        <time>2016-06-11T13:16:36Z</time>
      </trkpt>
      <trkpt lat="40.497517" lon="-5.196817">
        <ele>1900.0</ele>
        <time>2016-06-11T13:16:37Z</time>
      </trkpt>
      <trkpt lat="40.497533" lon="-5.196667">
        <ele>1900.0</ele>
        <time>2016-06-11T13:16:38Z</time>
      </trkpt>
      <trkpt lat="40.497517" lon="-5.196500">
        <ele>1899.0</ele>
        <time>2016-06-11T13:16:39Z</time>
      </trkpt>
      <trkpt lat="40.497467" lon="-5.196350">
        <ele>1899.0</ele>
        <time>2016-06-11T13:16:40Z</time>
      </trkpt>
      <trkpt lat="40.497367" lon="-5.196217">
        <ele>1900.0</ele>
        <time>2016-06-11T13:16:41Z</time>
      </trkpt>
      <trkpt lat="40.497267" lon="-5.196133">
        <ele>1901.0</ele>
        <time>2016-06-11T13:16:42Z</time>
      </trkpt>
      <trkpt lat="40.497183" lon="-5.196067">
        <ele>1905.0</ele>
        <time>2016-06-11T13:16:43Z</time>
      </trkpt>
      <trkpt lat="40.497100" lon="-5.195983">
        <ele>1909.0</ele>
        <time>2016-06-11T13:16:44Z</time>
      </trkpt>
      <trkpt lat="40.497033" lon="-5.195917">
        <ele>1912.0</ele>
        <time>2016-06-11T13:16:45Z</time>
      </trkpt>
      <trkpt lat="40.496950" lon="-5.195867">
        <ele>1914.0</ele>
        <time>2016-06-11T13:16:46Z</time>
      </trkpt>
      <trkpt lat="40.496867" lon="-5.195817">
        <ele>1916.0</ele>
        <time>2016-06-11T13:16:47Z</time>
      </trkpt>
      <trkpt lat="40.496767" lon="-5.195783">
        <ele>1918.0</ele>
        <time>2016-06-11T13:16:48Z</time>
      </trkpt>
      <trkpt lat="40.496667" lon="-5.195750">
        <ele>1921.0</ele>
        <time>2016-06-11T13:16:49Z</time>
      </trkpt>
      <trkpt lat="40.496567" lon="-5.195717">
        <ele>1925.0</ele>
        <time>2016-06-11T13:16:50Z</time>
      </trkpt>
      <trkpt lat="40.496483" lon="-5.195700">
        <ele>1928.0</ele>
        <time>2016-06-11T13:16:51Z</time>
      </trkpt>
      <trkpt lat="40.496417" lon="-5.195717">
        <ele>1931.0</ele>
        <time>2016-06-11T13:16:52Z</time>
      </trkpt>
      <trkpt lat="40.496333" lon="-5.195733">
        <ele>1933.0</ele>
        <time>2016-06-11T13:16:53Z</time>
      </trkpt>
      <trkpt lat="40.496267" lon="-5.195767">
        <ele>1935.0</ele>
        <time>2016-06-11T13:16:54Z</time>
      </trkpt>
      <trkpt lat="40.496183" lon="-5.195800">
        <ele>1938.0</ele>
        <time>2016-06-11T13:16:55Z</time>
      </trkpt>
      <trkpt lat="40.496117" lon="-5.195833">
        <ele>1942.0</ele>
        <time>2016-06-11T13:16:56Z</time>
      </trkpt>
      <trkpt lat="40.496050" lon="-5.195883">
        <ele>1946.0</ele>
        <time>2016-06-11T13:16:57Z</time>
      </trkpt>
      <trkpt lat="40.496000" lon="-5.195917">
        <ele>1949.0</ele>
        <time>2016-06-11T13:16:58Z</time>
      </trkpt>
      <trkpt lat="40.495967" lon="-5.195967">
        <ele>1950.0</ele>
        <time>2016-06-11T13:16:59Z</time>
      </trkpt>
      <trkpt lat="40.495933" lon="-5.196017">
        <ele>1951.0</ele>
        <time>2016-06-11T13:17:00Z</time>
      </trkpt>
      <trkpt lat="40.495917" lon="-5.196067">
        <ele>1951.0</ele>
        <time>2016-06-11T13:17:01Z</time>
      </trkpt>
      <trkpt lat="40.495900" lon="-5.196117">
        <ele>1952.0</ele>
        <time>2016-06-11T13:17:02Z</time>
      </trkpt>
      <trkpt lat="40.495900" lon="-5.196183">
        <ele>1953.0</ele>
        <time>2016-06-11T13:17:03Z</time>
      </trkpt>
      <trkpt lat="40.495933" lon="-5.196233">
        <ele>1954.0</ele>
        <time>2016-06-11T13:17:04Z</time>
      </trkpt>
      <trkpt lat="40.495967" lon="-5.196283">
        <ele>1955.0</ele>
        <time>2016-06-11T13:17:05Z</time>
      </trkpt>
      <trkpt lat="40.496000" lon="-5.196333">
        <ele>1957.0</ele>
        <time>2016-06-11T13:17:06Z</time>
      </trkpt>
      <trkpt lat="40.496033" lon="-5.196383">
        <ele>1958.0</ele>
        <time>2016-06-11T13:17:07Z</time>
      </trkpt>
      <trkpt lat="40.496083" lon="-5.196417">
        <ele>1959.0</ele>
        <time>2016-06-11T13:17:08Z</time>
      </trkpt>
      <trkpt lat="40.496133" lon="-5.196450">
        <ele>1961.0</ele>
        <time>2016-06-11T13:17:09Z</time>
      </trkpt>
      <trkpt lat="40.496183" lon="-5.196450">
        <ele>1962.0</ele>
        <time>2016-06-11T13:17:10Z</time>
      </trkpt>
      <trkpt lat="40.496250" lon="-5.196450">
        <ele>1963.0</ele>
        <time>2016-06-11T13:17:11Z</time>
      </trkpt>
      <trkpt lat="40.496317" lon="-5.196433">
        <ele>1964.0</ele>
        <time>2016-06-11T13:17:12Z</time>
      </trkpt>
      <trkpt lat="40.496383" lon="-5.196417">
        <ele>1965.0</ele>
        <time>2016-06-11T13:17:13Z</time>
      </trkpt>
      <trkpt lat="40.496450" lon="-5.196400">
        <ele>1966.0</ele>
        <time>2016-06-11T13:17:14Z</time>
      </trkpt>
      <trkpt lat="40.496517" lon="-5.196383">
        <ele>1967.0</ele>
        <time>2016-06-11T13:17:15Z</time>
      </trkpt>
      <trkpt lat="40.496583" lon="-5.196333">
        <ele>1968.0</ele>
        <time>2016-06-11T13:17:16Z</time>
      </trkpt>
      <trkpt lat="40.496667" lon="-5.196250">
        <ele>1968.0</ele>
        <time>2016-06-11T13:17:17Z</time>
      </trkpt>
      <trkpt lat="40.496733" lon="-5.196150">
        <ele>1968.0</ele>
        <time>2016-06-11T13:17:18Z</time>
      </trkpt>
      <trkpt lat="40.496800" lon="-5.196033">
        <ele>1969.0</ele>
        <time>2016-06-11T13:17:19Z</time>
      </trkpt>
      <trkpt lat="40.496867" lon="-5.195900">
        <ele>1970.0</ele>
        <time>2016-06-11T13:17:20Z</time>
      </trkpt>
      <trkpt lat="40.496900" lon="-5.195767">
        <ele>1970.0</ele>
        <time>2016-06-11T13:17:21Z</time>
      </trkpt>
      <trkpt lat="40.496933" lon="-5.195617">
        <ele>1971.0</ele>
        <time>2016-06-11T13:17:22Z</time>
      </trkpt>
      <trkpt lat="40.496967" lon="-5.195467">
        <ele>1972.0</ele>
        <time>2016-06-11T13:17:23Z</time>
      </trkpt>
      <trkpt lat="40.497000" lon="-5.195300">
        <ele>1973.0</ele>
        <time>2016-06-11T13:17:24Z</time>
      </trkpt>
      <trkpt lat="40.497017" lon="-5.195150">
        <ele>1974.0</ele>
        <time>2016-06-11T13:17:25Z</time>
      </trkpt>
      <trkpt lat="40.497017" lon="-5.195000">
        <ele>1975.0</ele>
        <time>2016-06-11T13:17:26Z</time>
      </trkpt>
      <trkpt lat="40.497000" lon="-5.194833">
        <ele>1976.0</ele>
        <time>2016-06-11T13:17:27Z</time>
      </trkpt>
      <trkpt lat="40.496983" lon="-5.194683">
        <ele>1977.0</ele>
        <time>2016-06-11T13:17:28Z</time>
      </trkpt>
      <trkpt lat="40.496967" lon="-5.194533">
        <ele>1977.0</ele>
        <time>2016-06-11T13:17:29Z</time>
      </trkpt>
      <trkpt lat="40.496933" lon="-5.194367">
        <ele>1978.0</ele>
        <time>2016-06-11T13:17:30Z</time>
      </trkpt>
      <trkpt lat="40.496883" lon="-5.194233">
        <ele>1978.0</ele>
        <time>2016-06-11T13:17:31Z</time>
      </trkpt>
      <trkpt lat="40.496817" lon="-5.194100">
        <ele>1977.0</ele>
        <time>2016-06-11T13:17:32Z</time>
      </trkpt>
      <trkpt lat="40.496717" lon="-5.194000">
        <ele>1976.0</ele>
        <time>2016-06-11T13:17:33Z</time>
      </trkpt>
      <trkpt lat="40.496617" lon="-5.193950">
        <ele>1976.0</ele>
        <time>2016-06-11T13:17:34Z</time>
      </trkpt>
      <trkpt lat="40.496517" lon="-5.193917">
        <ele>1977.0</ele>
        <time>2016-06-11T13:17:35Z</time>
      </trkpt>
      <trkpt lat="40.496417" lon="-5.193867">
        <ele>1979.0</ele>
        <time>2016-06-11T13:17:36Z</time>
      </trkpt>
      <trkpt lat="40.496333" lon="-5.193817">
        <ele>1981.0</ele>
        <time>2016-06-11T13:17:37Z</time>
      </trkpt>
      <trkpt lat="40.496267" lon="-5.193767">
        <ele>1983.0</ele>
        <time>2016-06-11T13:17:38Z</time>
      </trkpt>
      <trkpt lat="40.496183" lon="-5.193750">
        <ele>1983.0</ele>
        <time>2016-06-11T13:17:39Z</time>
      </trkpt>
      <trkpt lat="40.496117" lon="-5.193750">
        <ele>1984.0</ele>
        <time>2016-06-11T13:17:40Z</time>
      </trkpt>
      <trkpt lat="40.496050" lon="-5.193767">
        <ele>1985.0</ele>
        <time>2016-06-11T13:17:41Z</time>
      </trkpt>
      <trkpt lat="40.495983" lon="-5.193783">
        <ele>1987.0</ele>
        <time>2016-06-11T13:17:42Z</time>
      </trkpt>
      <trkpt lat="40.495917" lon="-5.193767">
        <ele>1990.0</ele>
        <time>2016-06-11T13:17:43Z</time>
      </trkpt>
      <trkpt lat="40.495867" lon="-5.193750">
        <ele>1992.0</ele>
        <time>2016-06-11T13:17:44Z</time>
      </trkpt>
      <trkpt lat="40.495817" lon="-5.193750">
        <ele>1994.0</ele>
        <time>2016-06-11T13:17:45Z</time>
      </trkpt>
      <trkpt lat="40.495767" lon="-5.193750">
        <ele>1994.0</ele>
        <time>2016-06-11T13:17:46Z</time>
      </trkpt>
      <trkpt lat="40.495717" lon="-5.193767">
        <ele>1995.0</ele>
        <time>2016-06-11T13:17:47Z</time>
      </trkpt>
      <trkpt lat="40.495650" lon="-5.193767">
        <ele>1996.0</ele>
        <time>2016-06-11T13:17:48Z</time>
      </trkpt>
      <trkpt lat="40.495583" lon="-5.193800">
        <ele>1997.0</ele>
        <time>2016-06-11T13:17:49Z</time>
      </trkpt>
      <trkpt lat="40.495533" lon="-5.193833">
        <ele>1999.0</ele>
        <time>2016-06-11T13:17:50Z</time>
      </trkpt>
      <trkpt lat="40.495500" lon="-5.193867">
        <ele>2001.0</ele>
        <time>2016-06-11T13:17:51Z</time>
      </trkpt>
      <trkpt lat="40.495450" lon="-5.193917">
        <ele>2004.0</ele>
        <time>2016-06-11T13:17:52Z</time>
      </trkpt>
      <trkpt lat="40.495400" lon="-5.193950">
        <ele>2007.0</ele>
        <time>2016-06-11T13:17:53Z</time>
      </trkpt>
      <trkpt lat="40.495350" lon="-5.193967">
        <ele>2010.0</ele>
        <time>2016-06-11T13:17:54Z</time>
      </trkpt>
      <trkpt lat="40.495283" lon="-5.193983">
        <ele>2012.0</ele>
        <time>2016-06-11T13:17:55Z</time>
      </trkpt>
      <trkpt lat="40.495233" lon="-5.194017">
        <ele>2013.0</ele>
        <time>2016-06-11T13:17:56Z</time>
      </trkpt>
      <trkpt lat="40.495183" lon="-5.194050">
        <ele>2014.0</ele>
        <time>2016-06-11T13:17:57Z</time>
      </trkpt>
      <trkpt lat="40.495133" lon="-5.194083">
        <ele>2016.0</ele>
        <time>2016-06-11T13:17:58Z</time>
      </trkpt>
      <trkpt lat="40.495117" lon="-5.194133">
        <ele>2018.0</ele>
        <time>2016-06-11T13:17:59Z</time>
      </trkpt>
      <trkpt lat="40.495100" lon="-5.194167">
        <ele>2020.0</ele>
        <time>2016-06-11T13:18:00Z</time>
      </trkpt>
      <trkpt lat="40.495083" lon="-5.194200">
        <ele>2021.0</ele>
        <time>2016-06-11T13:18:01Z</time>
      </trkpt>
      <trkpt lat="40.495050" lon="-5.194233">
        <ele>2022.0</ele>
        <time>2016-06-11T13:18:02Z</time>
      </trkpt>
      <trkpt lat="40.495033" lon="-5.194267">
        <ele>2022.0</ele>
        <time>2016-06-11T13:18:03Z</time>
      </trkpt>
      <trkpt lat="40.495000" lon="-5.194317">
        <ele>2023.0</ele>
        <time>2016-06-11T13:18:04Z</time>
      </trkpt>
      <trkpt lat="40.495000" lon="-5.194367">
        <ele>2023.0</ele>
        <time>2016-06-11T13:18:05Z</time>
      </trkpt>
      <trkpt lat="40.495017" lon="-5.194417">
        <ele>2023.0</ele>
        <time>2016-06-11T13:18:06Z</time>
      </trkpt>
      <trkpt lat="40.495050" lon="-5.194450">
        <ele>2023.0</ele>
        <time>2016-06-11T13:18:07Z</time>
      </trkpt>
      <trkpt lat="40.495067" lon="-5.194483">
        <ele>2024.0</ele>
        <time>2016-06-11T13:18:08Z</time>
      </trkpt>
      <trkpt lat="40.495100" lon="-5.194533">
        <ele>2025.0</ele>
        <time>2016-06-11T13:18:09Z</time>
      </trkpt>
      <trkpt lat="40.495117" lon="-5.194567">
        <ele>2025.0</ele>
        <time>2016-06-11T13:18:10Z</time>
      </trkpt>
      <trkpt lat="40.495150" lon="-5.194600">
        <ele>2024.0</ele>
        <time>2016-06-11T13:18:11Z</time>
      </trkpt>
      <trkpt lat="40.495200" lon="-5.194633">
        <ele>2023.0</ele>
        <time>2016-06-11T13:18:12Z</time>
      </trkpt>
      <trkpt lat="40.495267" lon="-5.194667">
        <ele>2022.0</ele>
        <time>2016-06-11T13:18:13Z</time>
      </trkpt>
      <trkpt lat="40.495317" lon="-5.194683">
        <ele>2022.0</ele>
        <time>2016-06-11T13:18:14Z</time>
      </trkpt>
      <trkpt lat="40.495383" lon="-5.194700">
        <ele>2022.0</ele>
        <time>2016-06-11T13:18:15Z</time>
      </trkpt>
      <trkpt lat="40.495467" lon="-5.194683">
        <ele>2022.0</ele>
        <time>2016-06-11T13:18:16Z</time>
      </trkpt>
      <trkpt lat="40.495533" lon="-5.194667">
        <ele>2022.0</ele>
        <time>2016-06-11T13:18:17Z</time>
      </trkpt>
      <trkpt lat="40.495617" lon="-5.194650">
        <ele>2022.0</ele>
        <time>2016-06-11T13:18:18Z</time>
      </trkpt>
      <trkpt lat="40.495683" lon="-5.194633">
        <ele>2023.0</ele>
        <time>2016-06-11T13:18:19Z</time>
      </trkpt>
      <trkpt lat="40.495750" lon="-5.194633">
        <ele>2024.0</ele>
        <time>2016-06-11T13:18:20Z</time>
      </trkpt>
      <trkpt lat="40.495817" lon="-5.194617">
        <ele>2024.0</ele>
        <time>2016-06-11T13:18:21Z</time>
      </trkpt>
      <trkpt lat="40.495900" lon="-5.194617">
        <ele>2025.0</ele>
        <time>2016-06-11T13:18:22Z</time>
      </trkpt>
      <trkpt lat="40.495967" lon="-5.194583">
        <ele>2025.0</ele>
        <time>2016-06-11T13:18:23Z</time>
      </trkpt>
      <trkpt lat="40.496033" lon="-5.194550">
        <ele>2026.0</ele>
        <time>2016-06-11T13:18:24Z</time>
      </trkpt>
      <trkpt lat="40.496117" lon="-5.194500">
        <ele>2027.0</ele>
        <time>2016-06-11T13:18:25Z</time>
      </trkpt>
      <trkpt lat="40.496183" lon="-5.194433">
        <ele>2027.0</ele>
        <time>2016-06-11T13:18:26Z</time>
      </trkpt>
      <trkpt lat="40.496250" lon="-5.194367">
        <ele>2028.0</ele>
        <time>2016-06-11T13:18:27Z</time>
      </trkpt>
      <trkpt lat="40.496300" lon="-5.194283">
        <ele>2028.0</ele>
        <time>2016-06-11T13:18:28Z</time>
      </trkpt>
      <trkpt lat="40.496350" lon="-5.194200">
        <ele>2028.0</ele>
        <time>2016-06-11T13:18:29Z</time>
      </trkpt>
      <trkpt lat="40.496383" lon="-5.194083">
        <ele>2028.0</ele>
        <time>2016-06-11T13:18:30Z</time>
      </trkpt>
      <trkpt lat="40.496400" lon="-5.193950">
        <ele>2027.0</ele>
        <time>2016-06-11T13:18:31Z</time>
      </trkpt>
      <trkpt lat="40.496400" lon="-5.193817">
        <ele>2026.0</ele>
        <time>2016-06-11T13:18:32Z</time>
      </trkpt>
      <trkpt lat="40.496367" lon="-5.193667">
        <ele>2025.0</ele>
        <time>2016-06-11T13:18:33Z</time>
      </trkpt>
      <trkpt lat="40.496317" lon="-5.193533">
        <ele>2024.0</ele>
        <time>2016-06-11T13:18:34Z</time>
      </trkpt>
      <trkpt lat="40.496250" lon="-5.193433">
        <ele>2023.0</ele>
        <time>2016-06-11T13:18:35Z</time>
      </trkpt>
      <trkpt lat="40.496150" lon="-5.193350">
        <ele>2022.0</ele>
        <time>2016-06-11T13:18:36Z</time>
      </trkpt>
      <trkpt lat="40.496050" lon="-5.193283">
        <ele>2022.0</ele>
        <time>2016-06-11T13:18:37Z</time>
      </trkpt>
      <trkpt lat="40.495950" lon="-5.193250">
        <ele>2022.0</ele>
        <time>2016-06-11T13:18:38Z</time>
      </trkpt>
      <trkpt lat="40.495867" lon="-5.193233">
        <ele>2022.0</ele>
        <time>2016-06-11T13:18:39Z</time>
      </trkpt>
      <trkpt lat="40.495783" lon="-5.193217">
        <ele>2023.0</ele>
        <time>2016-06-11T13:18:40Z</time>
      </trkpt>
      <trkpt lat="40.495700" lon="-5.193217">
        <ele>2023.0</ele>
        <time>2016-06-11T13:18:41Z</time>
      </trkpt>
      <trkpt lat="40.495633" lon="-5.193217">
        <ele>2023.0</ele>
        <time>2016-06-11T13:18:42Z</time>
      </trkpt>
      <trkpt lat="40.495550" lon="-5.193200">
        <ele>2023.0</ele>
        <time>2016-06-11T13:18:43Z</time>
      </trkpt>
      <trkpt lat="40.495467" lon="-5.193183">
        <ele>2024.0</ele>
        <time>2016-06-11T13:18:44Z</time>
      </trkpt>
      <trkpt lat="40.495400" lon="-5.193200">
        <ele>2025.0</ele>
        <time>2016-06-11T13:18:45Z</time>
      </trkpt>
      <trkpt lat="40.495333" lon="-5.193217">
        <ele>2025.0</ele>
        <time>2016-06-11T13:18:46Z</time>
      </trkpt>
      <trkpt lat="40.495283" lon="-5.193250">
        <ele>2025.0</ele>
        <time>2016-06-11T13:18:47Z</time>
      </trkpt>
      <trkpt lat="40.495217" lon="-5.193283">
        <ele>2025.0</ele>
        <time>2016-06-11T13:18:48Z</time>
      </trkpt>
      <trkpt lat="40.495150" lon="-5.193317">
        <ele>2025.0</ele>
        <time>2016-06-11T13:18:49Z</time>
      </trkpt>
      <trkpt lat="40.495083" lon="-5.193350">
        <ele>2026.0</ele>
        <time>2016-06-11T13:18:50Z</time>
      </trkpt>
      <trkpt lat="40.495033" lon="-5.193367">
        <ele>2027.0</ele>
        <time>2016-06-11T13:18:51Z</time>
      </trkpt>
      <trkpt lat="40.494983" lon="-5.193400">
        <ele>2028.0</ele>
        <time>2016-06-11T13:18:52Z</time>
      </trkpt>
      <trkpt lat="40.494950" lon="-5.193433">
        <ele>2028.0</ele>
        <time>2016-06-11T13:18:53Z</time>
      </trkpt>
      <trkpt lat="40.494900" lon="-5.193483">
        <ele>2028.0</ele>
        <time>2016-06-11T13:18:54Z</time>
      </trkpt>
      <trkpt lat="40.494850" lon="-5.193533">
        <ele>2028.0</ele>
        <time>2016-06-11T13:18:55Z</time>
      </trkpt>
      <trkpt lat="40.494800" lon="-5.193583">
        <ele>2028.0</ele>
        <time>2016-06-11T13:18:56Z</time>
      </trkpt>
      <trkpt lat="40.494750" lon="-5.193633">
        <ele>2028.0</ele>
        <time>2016-06-11T13:18:57Z</time>
      </trkpt>
      <trkpt lat="40.494717" lon="-5.193700">
        <ele>2029.0</ele>
        <time>2016-06-11T13:18:58Z</time>
      </trkpt>
      <trkpt lat="40.494700" lon="-5.193750">
        <ele>2030.0</ele>
        <time>2016-06-11T13:18:59Z</time>
      </trkpt>
      <trkpt lat="40.494683" lon="-5.193800">
        <ele>2030.0</ele>
        <time>2016-06-11T13:19:00Z</time>
      </trkpt>
      <trkpt lat="40.494650" lon="-5.193850">
        <ele>2030.0</ele>
        <time>2016-06-11T13:19:01Z</time>
      </trkpt>
      <trkpt lat="40.494633" lon="-5.193900">
        <ele>2030.0</ele>
        <time>2016-06-11T13:19:02Z</time>
      </trkpt>
      <trkpt lat="40.494617" lon="-5.193967">
        <ele>2030.0</ele>
        <time>2016-06-11T13:19:03Z</time>
      </trkpt>
      <trkpt lat="40.494600" lon="-5.194033">
        <ele>2031.0</ele>
        <time>2016-06-11T13:19:04Z</time>
      </trkpt>
      <trkpt lat="40.494583" lon="-5.194100">
        <ele>2031.0</ele>
        <time>2016-06-11T13:19:05Z</time>
      </trkpt>
      <trkpt lat="40.494583" lon="-5.194150">
        <ele>2032.0</ele>
        <time>2016-06-11T13:19:06Z</time>
      </trkpt>
      <trkpt lat="40.494583" lon="-5.194200">
        <ele>2032.0</ele>
        <time>2016-06-11T13:19:07Z</time>
      </trkpt>
      <trkpt lat="40.494600" lon="-5.194233">
        <ele>2032.0</ele>
        <time>2016-06-11T13:19:08Z</time>
      </trkpt>
      <trkpt lat="40.494633" lon="-5.194267">
        <ele>2032.0</ele>
        <time>2016-06-11T13:19:09Z</time>
      </trkpt>
      <trkpt lat="40.494667" lon="-5.194300">
        <ele>2031.0</ele>
        <time>2016-06-11T13:19:10Z</time>
      </trkpt>
      <trkpt lat="40.494717" lon="-5.194317">
        <ele>2031.0</ele>
        <time>2016-06-11T13:19:11Z</time>
      </trkpt>
      <trkpt lat="40.494767" lon="-5.194317">
        <ele>2030.0</ele>
        <time>2016-06-11T13:19:12Z</time>
      </trkpt>
      <trkpt lat="40.494817" lon="-5.194300">
        <ele>2029.0</ele>
        <time>2016-06-11T13:19:13Z</time>
      </trkpt>
      <trkpt lat="40.494867" lon="-5.194283">
        <ele>2028.0</ele>
        <time>2016-06-11T13:19:14Z</time>
      </trkpt>
      <trkpt lat="40.494917" lon="-5.194250">
        <ele>2027.0</ele>
        <time>2016-06-11T13:19:15Z</time>
      </trkpt>
      <trkpt lat="40.494983" lon="-5.194217">
        <ele>2024.0</ele>
        <time>2016-06-11T13:19:16Z</time>
      </trkpt>
      <trkpt lat="40.495033" lon="-5.194167">
        <ele>2022.0</ele>
        <time>2016-06-11T13:19:17Z</time>
      </trkpt>
      <trkpt lat="40.495100" lon="-5.194117">
        <ele>2020.0</ele>
        <time>2016-06-11T13:19:18Z</time>
      </trkpt>
      <trkpt lat="40.495167" lon="-5.194083">
        <ele>2018.0</ele>
        <time>2016-06-11T13:19:19Z</time>
      </trkpt>
      <trkpt lat="40.495217" lon="-5.194033">
        <ele>2016.0</ele>
        <time>2016-06-11T13:19:20Z</time>
      </trkpt>
      <trkpt lat="40.495283" lon="-5.194000">
        <ele>2014.0</ele>
        <time>2016-06-11T13:19:21Z</time>
      </trkpt>
      <trkpt lat="40.495333" lon="-5.193967">
        <ele>2011.0</ele>
        <time>2016-06-11T13:19:22Z</time>
      </trkpt>
      <trkpt lat="40.495383" lon="-5.193933">
        <ele>2007.0</ele>
        <time>2016-06-11T13:19:23Z</time>
      </trkpt>
      <trkpt lat="40.495450" lon="-5.193867">
        <ele>2001.0</ele>
        <time>2016-06-11T13:19:24Z</time>
      </trkpt>
      <trkpt lat="40.495533" lon="-5.193800">
        <ele>1995.0</ele>
        <time>2016-06-11T13:19:25Z</time>
      </trkpt>
      <trkpt lat="40.495617" lon="-5.193717">
        <ele>1991.0</ele>
        <time>2016-06-11T13:19:26Z</time>
      </trkpt>
      <trkpt lat="40.495717" lon="-5.193650">
        <ele>1987.0</ele>
        <time>2016-06-11T13:19:27Z</time>
      </trkpt>
      <trkpt lat="40.495800" lon="-5.193583">
        <ele>1985.0</ele>
        <time>2016-06-11T13:19:28Z</time>
      </trkpt>
      <trkpt lat="40.495867" lon="-5.193500">
        <ele>1982.0</ele>
        <time>2016-06-11T13:19:29Z</time>
      </trkpt>
      <trkpt lat="40.495950" lon="-5.193417">
        <ele>1979.0</ele>
        <time>2016-06-11T13:19:30Z</time>
      </trkpt>
      <trkpt lat="40.496033" lon="-5.193300">
        <ele>1976.0</ele>
        <time>2016-06-11T13:19:31Z</time>
      </trkpt>
      <trkpt lat="40.496117" lon="-5.193200">
        <ele>1973.0</ele>
        <time>2016-06-11T13:19:32Z</time>
      </trkpt>
      <trkpt lat="40.496200" lon="-5.193133">
        <ele>1970.0</ele>
        <time>2016-06-11T13:19:33Z</time>
      </trkpt>
      <trkpt lat="40.496283" lon="-5.193050">
        <ele>1968.0</ele>
        <time>2016-06-11T13:19:34Z</time>
      </trkpt>
      <trkpt lat="40.496350" lon="-5.192983">
        <ele>1966.0</ele>
        <time>2016-06-11T13:19:35Z</time>
      </trkpt>
      <trkpt lat="40.496433" lon="-5.192900">
        <ele>1961.0</ele>
        <time>2016-06-11T13:19:36Z</time>
      </trkpt>
      <trkpt lat="40.496517" lon="-5.192800">
        <ele>1957.0</ele>
        <time>2016-06-11T13:19:37Z</time>
      </trkpt>
      <trkpt lat="40.496600" lon="-5.192700">
        <ele>1954.0</ele>
        <time>2016-06-11T13:19:38Z</time>
      </trkpt>
      <trkpt lat="40.496683" lon="-5.192600">
        <ele>1953.0</ele>
        <time>2016-06-11T13:19:39Z</time>
      </trkpt>
      <trkpt lat="40.496767" lon="-5.192533">
        <ele>1951.0</ele>
        <time>2016-06-11T13:19:40Z</time>
      </trkpt>
      <trkpt lat="40.496833" lon="-5.192467">
        <ele>1948.0</ele>
        <time>2016-06-11T13:19:41Z</time>
      </trkpt>
      <trkpt lat="40.496917" lon="-5.192400">
        <ele>1945.0</ele>
        <time>2016-06-11T13:19:42Z</time>
      </trkpt>
      <trkpt lat="40.497000" lon="-5.192333">
        <ele>1941.0</ele>
        <time>2016-06-11T13:19:43Z</time>
      </trkpt>
      <trkpt lat="40.497100" lon="-5.192267">
        <ele>1937.0</ele>
        <time>2016-06-11T13:19:44Z</time>
      </trkpt>
      <trkpt lat="40.497183" lon="-5.192183">
        <ele>1934.0</ele>
        <time>2016-06-11T13:19:45Z</time>
      </trkpt>
      <trkpt lat="40.497283" lon="-5.192117">
        <ele>1931.0</ele>
        <time>2016-06-11T13:19:46Z</time>
      </trkpt>
      <trkpt lat="40.497367" lon="-5.192067">
        <ele>1928.0</ele>
        <time>2016-06-11T13:19:47Z</time>
      </trkpt>
      <trkpt lat="40.497450" lon="-5.192017">
        <ele>1926.0</ele>
        <time>2016-06-11T13:19:48Z</time>
      </trkpt>
      <trkpt lat="40.497533" lon="-5.191967">
        <ele>1923.0</ele>
        <time>2016-06-11T13:19:49Z</time>
      </trkpt>
      <trkpt lat="40.497617" lon="-5.191900">
        <ele>1920.0</ele>
        <time>2016-06-11T13:19:50Z</time>
      </trkpt>
      <trkpt lat="40.497717" lon="-5.191833">
        <ele>1917.0</ele>
        <time>2016-06-11T13:19:51Z</time>
      </trkpt>
      <trkpt lat="40.497800" lon="-5.191767">
        <ele>1914.0</ele>
        <time>2016-06-11T13:19:52Z</time>
      </trkpt>
      <trkpt lat="40.497883" lon="-5.191700">
        <ele>1911.0</ele>
        <time>2016-06-11T13:19:53Z</time>
      </trkpt>
      <trkpt lat="40.497983" lon="-5.191633">
        <ele>1909.0</ele>
        <time>2016-06-11T13:19:54Z</time>
      </trkpt>
      <trkpt lat="40.498067" lon="-5.191583">
        <ele>1906.0</ele>
        <time>2016-06-11T13:19:55Z</time>
      </trkpt>
      <trkpt lat="40.498167" lon="-5.191517">
        <ele>1903.0</ele>
        <time>2016-06-11T13:19:56Z</time>
      </trkpt>
      <trkpt lat="40.498250" lon="-5.191433">
        <ele>1900.0</ele>
        <time>2016-06-11T13:19:57Z</time>
      </trkpt>
      <trkpt lat="40.498350" lon="-5.191333">
        <ele>1897.0</ele>
        <time>2016-06-11T13:19:58Z</time>
      </trkpt>
      <trkpt lat="40.498450" lon="-5.191233">
        <ele>1894.0</ele>
        <time>2016-06-11T13:19:59Z</time>
      </trkpt>
      <trkpt lat="40.498533" lon="-5.191133">
        <ele>1891.0</ele>
        <time>2016-06-11T13:20:00Z</time>
      </trkpt>
      <trkpt lat="40.498633" lon="-5.191033">
        <ele>1889.0</ele>
        <time>2016-06-11T13:20:01Z</time>
      </trkpt>
      <trkpt lat="40.498717" lon="-5.190967">
        <ele>1887.0</ele>
        <time>2016-06-11T13:20:02Z</time>
      </trkpt>
      <trkpt lat="40.498800" lon="-5.190900">
        <ele>1885.0</ele>
        <time>2016-06-11T13:20:03Z</time>
      </trkpt>
      <trkpt lat="40.498867" lon="-5.190800">
        <ele>1883.0</ele>
        <time>2016-06-11T13:20:04Z</time>
      </trkpt>
      <trkpt lat="40.498950" lon="-5.190717">
        <ele>1880.0</ele>
        <time>2016-06-11T13:20:05Z</time>
      </trkpt>
      <trkpt lat="40.499017" lon="-5.190600">
        <ele>1878.0</ele>
        <time>2016-06-11T13:20:06Z</time>
      </trkpt>
      <trkpt lat="40.499100" lon="-5.190517">
        <ele>1875.0</ele>
        <time>2016-06-11T13:20:07Z</time>
      </trkpt>
      <trkpt lat="40.499183" lon="-5.190433">
        <ele>1872.0</ele>
        <time>2016-06-11T13:20:08Z</time>
      </trkpt>
      <trkpt lat="40.499283" lon="-5.190367">
        <ele>1870.0</ele>
        <time>2016-06-11T13:20:09Z</time>
      </trkpt>
      <trkpt lat="40.499367" lon="-5.190300">
        <ele>1868.0</ele>
        <time>2016-06-11T13:20:10Z</time>
      </trkpt>
      <trkpt lat="40.499433" lon="-5.190233">
        <ele>1866.0</ele>
        <time>2016-06-11T13:20:11Z</time>
      </trkpt>
      <trkpt lat="40.499517" lon="-5.190167">
        <ele>1864.0</ele>
        <time>2016-06-11T13:20:12Z</time>
      </trkpt>
      <trkpt lat="40.499583" lon="-5.190100">
        <ele>1862.0</ele>
        <time>2016-06-11T13:20:13Z</time>
      </trkpt>
      <trkpt lat="40.499650" lon="-5.190033">
        <ele>1859.0</ele>
        <time>2016-06-11T13:20:14Z</time>
      </trkpt>
      <trkpt lat="40.499733" lon="-5.189983">
        <ele>1855.0</ele>
        <time>2016-06-11T13:20:15Z</time>
      </trkpt>
      <trkpt lat="40.499817" lon="-5.189933">
        <ele>1852.0</ele>
        <time>2016-06-11T13:20:16Z</time>
      </trkpt>
      <trkpt lat="40.499900" lon="-5.189883">
        <ele>1850.0</ele>
        <time>2016-06-11T13:20:17Z</time>
      </trkpt>
      <trkpt lat="40.500000" lon="-5.189850">
        <ele>1848.0</ele>
        <time>2016-06-11T13:20:18Z</time>
      </trkpt>
      <trkpt lat="40.500083" lon="-5.189800">
        <ele>1846.0</ele>
        <time>2016-06-11T13:20:19Z</time>
      </trkpt>
      <trkpt lat="40.500150" lon="-5.189750">
        <ele>1845.0</ele>
        <time>2016-06-11T13:20:20Z</time>
      </trkpt>
      <trkpt lat="40.500233" lon="-5.189700">
        <ele>1843.0</ele>
        <time>2016-06-11T13:20:21Z</time>
      </trkpt>
      <trkpt lat="40.500317" lon="-5.189650">
        <ele>1841.0</ele>
        <time>2016-06-11T13:20:22Z</time>
      </trkpt>
      <trkpt lat="40.500400" lon="-5.189617">
        <ele>1838.0</ele>
        <time>2016-06-11T13:20:23Z</time>
      </trkpt>
      <trkpt lat="40.500483" lon="-5.189567">
        <ele>1836.0</ele>
        <time>2016-06-11T13:20:24Z</time>
      </trkpt>
      <trkpt lat="40.500567" lon="-5.189533">
        <ele>1833.0</ele>
        <time>2016-06-11T13:20:25Z</time>
      </trkpt>
      <trkpt lat="40.500667" lon="-5.189483">
        <ele>1831.0</ele>
        <time>2016-06-11T13:20:26Z</time>
      </trkpt>
      <trkpt lat="40.500750" lon="-5.189450">
        <ele>1829.0</ele>
        <time>2016-06-11T13:20:27Z</time>
      </trkpt>
      <trkpt lat="40.500833" lon="-5.189417">
        <ele>1827.0</ele>
        <time>2016-06-11T13:20:28Z</time>
      </trkpt>
      <trkpt lat="40.500917" lon="-5.189367">
        <ele>1824.0</ele>
        <time>2016-06-11T13:20:29Z</time>
      </trkpt>
      <trkpt lat="40.501000" lon="-5.189317">
        <ele>1821.0</ele>
        <time>2016-06-11T13:20:30Z</time>
      </trkpt>
      <trkpt lat="40.501083" lon="-5.189267">
        <ele>1818.0</ele>
        <time>2016-06-11T13:20:31Z</time>
      </trkpt>
      <trkpt lat="40.501183" lon="-5.189217">
        <ele>1815.0</ele>
        <time>2016-06-11T13:20:32Z</time>
      </trkpt>
      <trkpt lat="40.501267" lon="-5.189167">
        <ele>1813.0</ele>
        <time>2016-06-11T13:20:33Z</time>
      </trkpt>
      <trkpt lat="40.501350" lon="-5.189117">
        <ele>1812.0</ele>
        <time>2016-06-11T13:20:34Z</time>
      </trkpt>
      <trkpt lat="40.501433" lon="-5.189050">
        <ele>1809.0</ele>
        <time>2016-06-11T13:20:35Z</time>
      </trkpt>
      <trkpt lat="40.501517" lon="-5.188983">
        <ele>1807.0</ele>
        <time>2016-06-11T13:20:36Z</time>
      </trkpt>
      <trkpt lat="40.501600" lon="-5.188900">
        <ele>1804.0</ele>
        <time>2016-06-11T13:20:37Z</time>
      </trkpt>
      <trkpt lat="40.501700" lon="-5.188833">
        <ele>1802.0</ele>
        <time>2016-06-11T13:20:38Z</time>
      </trkpt>
      <trkpt lat="40.501783" lon="-5.188767">
        <ele>1800.0</ele>
        <time>2016-06-11T13:20:39Z</time>
      </trkpt>
      <trkpt lat="40.501867" lon="-5.188683">
        <ele>1798.0</ele>
        <time>2016-06-11T13:20:40Z</time>
      </trkpt>
      <trkpt lat="40.501950" lon="-5.188600">
        <ele>1796.0</ele>
        <time>2016-06-11T13:20:41Z</time>
      </trkpt>
      <trkpt lat="40.502033" lon="-5.188517">
        <ele>1795.0</ele>
        <time>2016-06-11T13:20:42Z</time>
      </trkpt>
      <trkpt lat="40.502117" lon="-5.188417">
        <ele>1793.0</ele>
        <time>2016-06-11T13:20:43Z</time>
      </trkpt>
      <trkpt lat="40.502200" lon="-5.188317">
        <ele>1791.0</ele>
        <time>2016-06-11T13:20:44Z</time>
      </trkpt>
      <trkpt lat="40.502283" lon="-5.188233">
        <ele>1789.0</ele>
        <time>2016-06-11T13:20:45Z</time>
      </trkpt>
      <trkpt lat="40.502367" lon="-5.188167">
        <ele>1787.0</ele>
        <time>2016-06-11T13:20:46Z</time>
      </trkpt>
      <trkpt lat="40.502450" lon="-5.188083">
        <ele>1785.0</ele>
        <time>2016-06-11T13:20:47Z</time>
      </trkpt>
      <trkpt lat="40.502550" lon="-5.188000">
        <ele>1784.0</ele>
        <time>2016-06-11T13:20:48Z</time>
      </trkpt>
      <trkpt lat="40.502633" lon="-5.187917">
        <ele>1782.0</ele>
        <time>2016-06-11T13:20:49Z</time>
      </trkpt>
      <trkpt lat="40.502717" lon="-5.187833">
        <ele>1781.0</ele>
        <time>2016-06-11T13:20:50Z</time>
      </trkpt>
      <trkpt lat="40.502800" lon="-5.187767">
        <ele>1780.0</ele>
        <time>2016-06-11T13:20:51Z</time>
      </trkpt>
      <trkpt lat="40.502883" lon="-5.187683">
        <ele>1778.0</ele>
        <time>2016-06-11T13:20:52Z</time>
      </trkpt>
      <trkpt lat="40.502967" lon="-5.187600">
        <ele>1776.0</ele>
        <time>2016-06-11T13:20:53Z</time>
      </trkpt>
      <trkpt lat="40.503067" lon="-5.187517">
        <ele>1775.0</ele>
        <time>2016-06-11T13:20:54Z</time>
      </trkpt>
      <trkpt lat="40.503150" lon="-5.187450">
        <ele>1774.0</ele>
        <time>2016-06-11T13:20:55Z</time>
      </trkpt>
      <trkpt lat="40.503233" lon="-5.187367">
        <ele>1773.0</ele>
        <time>2016-06-11T13:20:56Z</time>
      </trkpt>
      <trkpt lat="40.503300" lon="-5.187283">
        <ele>1771.0</ele>
        <time>2016-06-11T13:20:57Z</time>
      </trkpt>
      <trkpt lat="40.503383" lon="-5.187200">
        <ele>1768.0</ele>
        <time>2016-06-11T13:20:58Z</time>
      </trkpt>
      <trkpt lat="40.503483" lon="-5.187100">
        <ele>1765.0</ele>
        <time>2016-06-11T13:20:59Z</time>
      </trkpt>
      <trkpt lat="40.503567" lon="-5.187000">
        <ele>1764.0</ele>
        <time>2016-06-11T13:21:00Z</time>
      </trkpt>
      <trkpt lat="40.503650" lon="-5.186933">
        <ele>1765.0</ele>
        <time>2016-06-11T13:21:01Z</time>
      </trkpt>
      <trkpt lat="40.503717" lon="-5.186850">
        <ele>1765.0</ele>
        <time>2016-06-11T13:21:02Z</time>
      </trkpt>
      <trkpt lat="40.503783" lon="-5.186783">
        <ele>1764.0</ele>
        <time>2016-06-11T13:21:03Z</time>
      </trkpt>
      <trkpt lat="40.503850" lon="-5.186700">
        <ele>1761.0</ele>
        <time>2016-06-11T13:21:04Z</time>
      </trkpt>
      <trkpt lat="40.503933" lon="-5.186583">
        <ele>1757.0</ele>
        <time>2016-06-11T13:21:05Z</time>
      </trkpt>
      <trkpt lat="40.504017" lon="-5.186483">
        <ele>1755.0</ele>
        <time>2016-06-11T13:21:06Z</time>
      </trkpt>
      <trkpt lat="40.504100" lon="-5.186367">
        <ele>1754.0</ele>
        <time>2016-06-11T13:21:07Z</time>
      </trkpt>
      <trkpt lat="40.504167" lon="-5.186250">
        <ele>1754.0</ele>
        <time>2016-06-11T13:21:08Z</time>
      </trkpt>
      <trkpt lat="40.504250" lon="-5.186150">
        <ele>1754.0</ele>
        <time>2016-06-11T13:21:09Z</time>
      </trkpt>
      <trkpt lat="40.504317" lon="-5.186033">
        <ele>1753.0</ele>
        <time>2016-06-11T13:21:10Z</time>
      </trkpt>
      <trkpt lat="40.504383" lon="-5.185933">
        <ele>1753.0</ele>
        <time>2016-06-11T13:21:11Z</time>
      </trkpt>
      <trkpt lat="40.504450" lon="-5.185833">
        <ele>1752.0</ele>
        <time>2016-06-11T13:21:12Z</time>
      </trkpt>
      <trkpt lat="40.504517" lon="-5.185717">
        <ele>1751.0</ele>
        <time>2016-06-11T13:21:13Z</time>
      </trkpt>
      <trkpt lat="40.504600" lon="-5.185600">
        <ele>1752.0</ele>
        <time>2016-06-11T13:21:14Z</time>
      </trkpt>
      <trkpt lat="40.504667" lon="-5.185500">
        <ele>1753.0</ele>
        <time>2016-06-11T13:21:15Z</time>
      </trkpt>
      <trkpt lat="40.504717" lon="-5.185417">
        <ele>1754.0</ele>
        <time>2016-06-11T13:21:16Z</time>
      </trkpt>
      <trkpt lat="40.504783" lon="-5.185333">
        <ele>1754.0</ele>
        <time>2016-06-11T13:21:17Z</time>
      </trkpt>
      <trkpt lat="40.504867" lon="-5.185250">
        <ele>1755.0</ele>
        <time>2016-06-11T13:21:18Z</time>
      </trkpt>
      <trkpt lat="40.504933" lon="-5.185183">
        <ele>1755.0</ele>
        <time>2016-06-11T13:21:19Z</time>
      </trkpt>
      <trkpt lat="40.505000" lon="-5.185117">
        <ele>1754.0</ele>
        <time>2016-06-11T13:21:20Z</time>
      </trkpt>
      <trkpt lat="40.505067" lon="-5.185067">
        <ele>1752.0</ele>
        <time>2016-06-11T13:21:21Z</time>
      </trkpt>
      <trkpt lat="40.505150" lon="-5.185033">
        <ele>1752.0</ele>
        <time>2016-06-11T13:21:22Z</time>
      </trkpt>
      <trkpt lat="40.505233" lon="-5.185000">
        <ele>1752.0</ele>
        <time>2016-06-11T13:21:23Z</time>
      </trkpt>
      <trkpt lat="40.505300" lon="-5.184983">
        <ele>1751.0</ele>
        <time>2016-06-11T13:21:24Z</time>
      </trkpt>
      <trkpt lat="40.505350" lon="-5.184983">
        <ele>1751.0</ele>
        <time>2016-06-11T13:21:25Z</time>
      </trkpt>
      <trkpt lat="40.505400" lon="-5.185000">
        <ele>1751.0</ele>
        <time>2016-06-11T13:21:26Z</time>
      </trkpt>
      <trkpt lat="40.505433" lon="-5.185033">
        <ele>1751.0</ele>
        <time>2016-06-11T13:21:27Z</time>
      </trkpt>
      <trkpt lat="40.505450" lon="-5.185067">
        <ele>1751.0</ele>
        <time>2016-06-11T13:21:28Z</time>
      </trkpt>
      <trkpt lat="40.505450" lon="-5.185100">
        <ele>1751.0</ele>
        <time>2016-06-11T13:21:29Z</time>
      </trkpt>
      <trkpt lat="40.505433" lon="-5.185133">
        <ele>1752.0</ele>
        <time>2016-06-11T13:21:30Z</time>
      </trkpt>
      <trkpt lat="40.505417" lon="-5.185167">
        <ele>1751.0</ele>
        <time>2016-06-11T13:21:31Z</time>
      </trkpt>
      <trkpt lat="40.505383" lon="-5.185200">
        <ele>1751.0</ele>
        <time>2016-06-11T13:21:32Z</time>
      </trkpt>
      <trkpt lat="40.505350" lon="-5.185233">
        <ele>1750.0</ele>
        <time>2016-06-11T13:21:33Z</time>
      </trkpt>
      <trkpt lat="40.505300" lon="-5.185250">
        <ele>1750.0</ele>
        <time>2016-06-11T13:21:34Z</time>
      </trkpt>
      <trkpt lat="40.505250" lon="-5.185250">
        <ele>1749.0</ele>
        <time>2016-06-11T13:21:35Z</time>
      </trkpt>
      <trkpt lat="40.505183" lon="-5.185250">
        <ele>1748.0</ele>
        <time>2016-06-11T13:21:36Z</time>
      </trkpt>
      <trkpt lat="40.505117" lon="-5.185250">
        <ele>1748.0</ele>
        <time>2016-06-11T13:21:37Z</time>
      </trkpt>
      <trkpt lat="40.505033" lon="-5.185250">
        <ele>1749.0</ele>
        <time>2016-06-11T13:21:38Z</time>
      </trkpt>
      <trkpt lat="40.504967" lon="-5.185250">
        <ele>1749.0</ele>
        <time>2016-06-11T13:21:39Z</time>
      </trkpt>
      <trkpt lat="40.504917" lon="-5.185250">
        <ele>1750.0</ele>
        <time>2016-06-11T13:21:40Z</time>
      </trkpt>
      <trkpt lat="40.504867" lon="-5.185250">
        <ele>1750.0</ele>
        <time>2016-06-11T13:21:41Z</time>
      </trkpt>
      <trkpt lat="40.504817" lon="-5.185250">
        <ele>1748.0</ele>
        <time>2016-06-11T13:21:42Z</time>
      </trkpt>
      <trkpt lat="40.504750" lon="-5.185267">
        <ele>1747.0</ele>
        <time>2016-06-11T13:21:43Z</time>
      </trkpt>
      <trkpt lat="40.504700" lon="-5.185283">
        <ele>1746.0</ele>
        <time>2016-06-11T13:21:44Z</time>
      </trkpt>
      <trkpt lat="40.504667" lon="-5.185300">
        <ele>1745.0</ele>
        <time>2016-06-11T13:21:45Z</time>
      </trkpt>
      <trkpt lat="40.504650" lon="-5.185350">
        <ele>1744.0</ele>
        <time>2016-06-11T13:21:46Z</time>
      </trkpt>
      <trkpt lat="40.504650" lon="-5.185383">
        <ele>1743.0</ele>
        <time>2016-06-11T13:21:47Z</time>
      </trkpt>
      <trkpt lat="40.504683" lon="-5.185417">
        <ele>1743.0</ele>
        <time>2016-06-11T13:21:48Z</time>
      </trkpt>
      <trkpt lat="40.504717" lon="-5.185450">
        <ele>1744.0</ele>
        <time>2016-06-11T13:21:49Z</time>
      </trkpt>
      <trkpt lat="40.504750" lon="-5.185467">
        <ele>1744.0</ele>
        <time>2016-06-11T13:21:50Z</time>
      </trkpt>
      <trkpt lat="40.504767" lon="-5.185483">
        <ele>1744.0</ele>
        <time>2016-06-11T13:21:51Z</time>
      </trkpt>
      <trkpt lat="40.504817" lon="-5.185517">
        <ele>1744.0</ele>
        <time>2016-06-11T13:21:52Z</time>
      </trkpt>
      <trkpt lat="40.504850" lon="-5.185533">
        <ele>1744.0</ele>
        <time>2016-06-11T13:21:53Z</time>
      </trkpt>
      <trkpt lat="40.504917" lon="-5.185533">
        <ele>1743.0</ele>
        <time>2016-06-11T13:21:54Z</time>
      </trkpt>
      <trkpt lat="40.504983" lon="-5.185533">
        <ele>1743.0</ele>
        <time>2016-06-11T13:21:55Z</time>
      </trkpt>
      <trkpt lat="40.505050" lon="-5.185500">
        <ele>1742.0</ele>
        <time>2016-06-11T13:21:56Z</time>
      </trkpt>
      <trkpt lat="40.505133" lon="-5.185467">
        <ele>1742.0</ele>
        <time>2016-06-11T13:21:57Z</time>
      </trkpt>
      <trkpt lat="40.505200" lon="-5.185417">
        <ele>1742.0</ele>
        <time>2016-06-11T13:21:58Z</time>
      </trkpt>
      <trkpt lat="40.505267" lon="-5.185367">
        <ele>1742.0</ele>
        <time>2016-06-11T13:21:59Z</time>
      </trkpt>
      <trkpt lat="40.505333" lon="-5.185300">
        <ele>1742.0</ele>
        <time>2016-06-11T13:22:00Z</time>
      </trkpt>
      <trkpt lat="40.505417" lon="-5.185233">
        <ele>1740.0</ele>
        <time>2016-06-11T13:22:01Z</time>
      </trkpt>
      <trkpt lat="40.505500" lon="-5.185167">
        <ele>1739.0</ele>
        <time>2016-06-11T13:22:02Z</time>
      </trkpt>
      <trkpt lat="40.505600" lon="-5.185083">
        <ele>1738.0</ele>
        <time>2016-06-11T13:22:03Z</time>
      </trkpt>
      <trkpt lat="40.505683" lon="-5.185000">
        <ele>1739.0</ele>
        <time>2016-06-11T13:22:04Z</time>
      </trkpt>
      <trkpt lat="40.505767" lon="-5.184900">
        <ele>1739.0</ele>
        <time>2016-06-11T13:22:05Z</time>
      </trkpt>
      <trkpt lat="40.505850" lon="-5.184800">
        <ele>1739.0</ele>
        <time>2016-06-11T13:22:06Z</time>
      </trkpt>
      <trkpt lat="40.505933" lon="-5.184700">
        <ele>1739.0</ele>
        <time>2016-06-11T13:22:07Z</time>
      </trkpt>
      <trkpt lat="40.506017" lon="-5.184600">
        <ele>1739.0</ele>
        <time>2016-06-11T13:22:08Z</time>
      </trkpt>
      <trkpt lat="40.506083" lon="-5.184500">
        <ele>1739.0</ele>
        <time>2016-06-11T13:22:09Z</time>
      </trkpt>
      <trkpt lat="40.506150" lon="-5.184417">
        <ele>1740.0</ele>
        <time>2016-06-11T13:22:10Z</time>
      </trkpt>
      <trkpt lat="40.506217" lon="-5.184333">
        <ele>1739.0</ele>
        <time>2016-06-11T13:22:11Z</time>
      </trkpt>
      <trkpt lat="40.506283" lon="-5.184250">
        <ele>1737.0</ele>
        <time>2016-06-11T13:22:12Z</time>
      </trkpt>
      <trkpt lat="40.506367" lon="-5.184183">
        <ele>1735.0</ele>
        <time>2016-06-11T13:22:13Z</time>
      </trkpt>
      <trkpt lat="40.506467" lon="-5.184100">
        <ele>1733.0</ele>
        <time>2016-06-11T13:22:14Z</time>
      </trkpt>
      <trkpt lat="40.506550" lon="-5.184017">
        <ele>1732.0</ele>
        <time>2016-06-11T13:22:15Z</time>
      </trkpt>
      <trkpt lat="40.506617" lon="-5.183933">
        <ele>1732.0</ele>
        <time>2016-06-11T13:22:16Z</time>
      </trkpt>
      <trkpt lat="40.506683" lon="-5.183850">
        <ele>1731.0</ele>
        <time>2016-06-11T13:22:17Z</time>
      </trkpt>
      <trkpt lat="40.506767" lon="-5.183783">
        <ele>1729.0</ele>
        <time>2016-06-11T13:22:18Z</time>
      </trkpt>
      <trkpt lat="40.506833" lon="-5.183700">
        <ele>1728.0</ele>
        <time>2016-06-11T13:22:19Z</time>
      </trkpt>
      <trkpt lat="40.506933" lon="-5.183600">
        <ele>1727.0</ele>
        <time>2016-06-11T13:22:20Z</time>
      </trkpt>
      <trkpt lat="40.507017" lon="-5.183517">
        <ele>1727.0</ele>
        <time>2016-06-11T13:22:21Z</time>
      </trkpt>
      <trkpt lat="40.507100" lon="-5.183450">
        <ele>1728.0</ele>
        <time>2016-06-11T13:22:22Z</time>
      </trkpt>
      <trkpt lat="40.507167" lon="-5.183367">
        <ele>1729.0</ele>
        <time>2016-06-11T13:22:23Z</time>
      </trkpt>
      <trkpt lat="40.507250" lon="-5.183300">
        <ele>1729.0</ele>
        <time>2016-06-11T13:22:24Z</time>
      </trkpt>
      <trkpt lat="40.507333" lon="-5.183233">
        <ele>1728.0</ele>
        <time>2016-06-11T13:22:25Z</time>
      </trkpt>
      <trkpt lat="40.507400" lon="-5.183167">
        <ele>1728.0</ele>
        <time>2016-06-11T13:22:26Z</time>
      </trkpt>
      <trkpt lat="40.507483" lon="-5.183100">
        <ele>1729.0</ele>
        <time>2016-06-11T13:22:27Z</time>
      </trkpt>
      <trkpt lat="40.507550" lon="-5.183017">
        <ele>1728.0</ele>
        <time>2016-06-11T13:22:28Z</time>
      </trkpt>
      <trkpt lat="40.507617" lon="-5.182950">
        <ele>1727.0</ele>
        <time>2016-06-11T13:22:29Z</time>
      </trkpt>
      <trkpt lat="40.507700" lon="-5.182883">
        <ele>1726.0</ele>
        <time>2016-06-11T13:22:30Z</time>
      </trkpt>
      <trkpt lat="40.507783" lon="-5.182833">
        <ele>1725.0</ele>
        <time>2016-06-11T13:22:31Z</time>
      </trkpt>
      <trkpt lat="40.507867" lon="-5.182783">
        <ele>1723.0</ele>
        <time>2016-06-11T13:22:32Z</time>
      </trkpt>
      <trkpt lat="40.507933" lon="-5.182767">
        <ele>1721.0</ele>
        <time>2016-06-11T13:22:33Z</time>
      </trkpt>
      <trkpt lat="40.508000" lon="-5.182733">
        <ele>1720.0</ele>
        <time>2016-06-11T13:22:34Z</time>
      </trkpt>
      <trkpt lat="40.508067" lon="-5.182700">
        <ele>1718.0</ele>
        <time>2016-06-11T13:22:35Z</time>
      </trkpt>
      <trkpt lat="40.508150" lon="-5.182633">
        <ele>1715.0</ele>
        <time>2016-06-11T13:22:36Z</time>
      </trkpt>
      <trkpt lat="40.508233" lon="-5.182550">
        <ele>1712.0</ele>
        <time>2016-06-11T13:22:37Z</time>
      </trkpt>
      <trkpt lat="40.508333" lon="-5.182450">
        <ele>1711.0</ele>
        <time>2016-06-11T13:22:38Z</time>
      </trkpt>
      <trkpt lat="40.508417" lon="-5.182333">
        <ele>1710.0</ele>
        <time>2016-06-11T13:22:39Z</time>
      </trkpt>
      <trkpt lat="40.508483" lon="-5.182217">
        <ele>1710.0</ele>
        <time>2016-06-11T13:22:40Z</time>
      </trkpt>
      <trkpt lat="40.508533" lon="-5.182083">
        <ele>1710.0</ele>
        <time>2016-06-11T13:22:41Z</time>
      </trkpt>
      <trkpt lat="40.508583" lon="-5.181967">
        <ele>1710.0</ele>
        <time>2016-06-11T13:22:42Z</time>
      </trkpt>
      <trkpt lat="40.508650" lon="-5.181833">
        <ele>1709.0</ele>
        <time>2016-06-11T13:22:43Z</time>
      </trkpt>
      <trkpt lat="40.508700" lon="-5.181717">
        <ele>1708.0</ele>
        <time>2016-06-11T13:22:44Z</time>
      </trkpt>
      <trkpt lat="40.508767" lon="-5.181583">
        <ele>1707.0</ele>
        <time>2016-06-11T13:22:45Z</time>
      </trkpt>
      <trkpt lat="40.508817" lon="-5.181467">
        <ele>1708.0</ele>
        <time>2016-06-11T13:22:46Z</time>
      </trkpt>
      <trkpt lat="40.508850" lon="-5.181350">
        <ele>1709.0</ele>
        <time>2016-06-11T13:22:47Z</time>
      </trkpt>
      <trkpt lat="40.508883" lon="-5.181217">
        <ele>1709.0</ele>
        <time>2016-06-11T13:22:48Z</time>
      </trkpt>
      <trkpt lat="40.508933" lon="-5.181083">
        <ele>1708.0</ele>
        <time>2016-06-11T13:22:49Z</time>
      </trkpt>
      <trkpt lat="40.508983" lon="-5.180950">
        <ele>1707.0</ele>
        <time>2016-06-11T13:22:50Z</time>
      </trkpt>
      <trkpt lat="40.509017" lon="-5.180783">
        <ele>1706.0</ele>
        <time>2016-06-11T13:22:51Z</time>
      </trkpt>
      <trkpt lat="40.509050" lon="-5.180617">
        <ele>1705.0</ele>
        <time>2016-06-11T13:22:52Z</time>
      </trkpt>
      <trkpt lat="40.509083" lon="-5.180433">
        <ele>1705.0</ele>
        <time>2016-06-11T13:22:53Z</time>
      </trkpt>
      <trkpt lat="40.509100" lon="-5.180250">
        <ele>1706.0</ele>
        <time>2016-06-11T13:22:54Z</time>
      </trkpt>
      <trkpt lat="40.509117" lon="-5.180083">
        <ele>1707.0</ele>
        <time>2016-06-11T13:22:55Z</time>
      </trkpt>
      <trkpt lat="40.509133" lon="-5.179917">
        <ele>1707.0</ele>
        <time>2016-06-11T13:22:56Z</time>
      </trkpt>
      <trkpt lat="40.509150" lon="-5.179750">
        <ele>1707.0</ele>
        <time>2016-06-11T13:22:57Z</time>
      </trkpt>
      <trkpt lat="40.509183" lon="-5.179567">
        <ele>1706.0</ele>
        <time>2016-06-11T13:22:58Z</time>
      </trkpt>
      <trkpt lat="40.509200" lon="-5.179383">
        <ele>1705.0</ele>
        <time>2016-06-11T13:22:59Z</time>
      </trkpt>
      <trkpt lat="40.509217" lon="-5.179200">
        <ele>1705.0</ele>
        <time>2016-06-11T13:23:00Z</time>
      </trkpt>
      <trkpt lat="40.509233" lon="-5.179033">
        <ele>1704.0</ele>
        <time>2016-06-11T13:23:01Z</time>
      </trkpt>
      <trkpt lat="40.509250" lon="-5.178867">
        <ele>1703.0</ele>
        <time>2016-06-11T13:23:02Z</time>
      </trkpt>
      <trkpt lat="40.509250" lon="-5.178683">
        <ele>1700.0</ele>
        <time>2016-06-11T13:23:03Z</time>
      </trkpt>
      <trkpt lat="40.509233" lon="-5.178500">
        <ele>1697.0</ele>
        <time>2016-06-11T13:23:04Z</time>
      </trkpt>
      <trkpt lat="40.509233" lon="-5.178300">
        <ele>1694.0</ele>
        <time>2016-06-11T13:23:05Z</time>
      </trkpt>
      <trkpt lat="40.509233" lon="-5.178100">
        <ele>1691.0</ele>
        <time>2016-06-11T13:23:06Z</time>
      </trkpt>
      <trkpt lat="40.509217" lon="-5.177900">
        <ele>1689.0</ele>
        <time>2016-06-11T13:23:07Z</time>
      </trkpt>
      <trkpt lat="40.509217" lon="-5.177700">
        <ele>1686.0</ele>
        <time>2016-06-11T13:23:08Z</time>
      </trkpt>
      <trkpt lat="40.509233" lon="-5.177517">
        <ele>1684.0</ele>
        <time>2016-06-11T13:23:09Z</time>
      </trkpt>
      <trkpt lat="40.509250" lon="-5.177317">
        <ele>1681.0</ele>
        <time>2016-06-11T13:23:10Z</time>
      </trkpt>
      <trkpt lat="40.509267" lon="-5.177133">
        <ele>1680.0</ele>
        <time>2016-06-11T13:23:11Z</time>
      </trkpt>
      <trkpt lat="40.509300" lon="-5.176967">
        <ele>1678.0</ele>
        <time>2016-06-11T13:23:12Z</time>
      </trkpt>
      <trkpt lat="40.509350" lon="-5.176817">
        <ele>1677.0</ele>
        <time>2016-06-11T13:23:13Z</time>
      </trkpt>
      <trkpt lat="40.509417" lon="-5.176683">
        <ele>1674.0</ele>
        <time>2016-06-11T13:23:14Z</time>
      </trkpt>
      <trkpt lat="40.509483" lon="-5.176583">
        <ele>1671.0</ele>
        <time>2016-06-11T13:23:15Z</time>
      </trkpt>
      <trkpt lat="40.509567" lon="-5.176483">
        <ele>1668.0</ele>
        <time>2016-06-11T13:23:16Z</time>
      </trkpt>
      <trkpt lat="40.509667" lon="-5.176383">
        <ele>1667.0</ele>
        <time>2016-06-11T13:23:17Z</time>
      </trkpt>
      <trkpt lat="40.509750" lon="-5.176283">
        <ele>1667.0</ele>
        <time>2016-06-11T13:23:18Z</time>
      </trkpt>
      <trkpt lat="40.509833" lon="-5.176200">
        <ele>1667.0</ele>
        <time>2016-06-11T13:23:19Z</time>
      </trkpt>
      <trkpt lat="40.509900" lon="-5.176133">
        <ele>1668.0</ele>
        <time>2016-06-11T13:23:20Z</time>
      </trkpt>
      <trkpt lat="40.509967" lon="-5.176050">
        <ele>1669.0</ele>
        <time>2016-06-11T13:23:21Z</time>
      </trkpt>
      <trkpt lat="40.510050" lon="-5.176000">
        <ele>1669.0</ele>
        <time>2016-06-11T13:23:22Z</time>
      </trkpt>
      <trkpt lat="40.510117" lon="-5.175933">
        <ele>1668.0</ele>
        <time>2016-06-11T13:23:23Z</time>
      </trkpt>
      <trkpt lat="40.510183" lon="-5.175883">
        <ele>1668.0</ele>
        <time>2016-06-11T13:23:24Z</time>
      </trkpt>
      <trkpt lat="40.510250" lon="-5.175833">
        <ele>1669.0</ele>
        <time>2016-06-11T13:23:25Z</time>
      </trkpt>
      <trkpt lat="40.510300" lon="-5.175800">
        <ele>1669.0</ele>
        <time>2016-06-11T13:23:26Z</time>
      </trkpt>
      <trkpt lat="40.510350" lon="-5.175767">
        <ele>1668.0</ele>
        <time>2016-06-11T13:23:27Z</time>
      </trkpt>
      <trkpt lat="40.510400" lon="-5.175733">
        <ele>1667.0</ele>
        <time>2016-06-11T13:23:28Z</time>
      </trkpt>
      <trkpt lat="40.510467" lon="-5.175700">
        <ele>1666.0</ele>
        <time>2016-06-11T13:23:29Z</time>
      </trkpt>
      <trkpt lat="40.510517" lon="-5.175667">
        <ele>1665.0</ele>
        <time>2016-06-11T13:23:30Z</time>
      </trkpt>
      <trkpt lat="40.510583" lon="-5.175617">
        <ele>1664.0</ele>
        <time>2016-06-11T13:23:31Z</time>
      </trkpt>
      <trkpt lat="40.510650" lon="-5.175567">
        <ele>1664.0</ele>
        <time>2016-06-11T13:23:32Z</time>
      </trkpt>
      <trkpt lat="40.510717" lon="-5.175517">
        <ele>1663.0</ele>
        <time>2016-06-11T13:23:33Z</time>
      </trkpt>
      <trkpt lat="40.510783" lon="-5.175467">
        <ele>1662.0</ele>
        <time>2016-06-11T13:23:34Z</time>
      </trkpt>
      <trkpt lat="40.510867" lon="-5.175400">
        <ele>1662.0</ele>
        <time>2016-06-11T13:23:35Z</time>
      </trkpt>
      <trkpt lat="40.510950" lon="-5.175350">
        <ele>1661.0</ele>
        <time>2016-06-11T13:23:36Z</time>
      </trkpt>
      <trkpt lat="40.511017" lon="-5.175283">
        <ele>1661.0</ele>
        <time>2016-06-11T13:23:37Z</time>
      </trkpt>
      <trkpt lat="40.511083" lon="-5.175217">
        <ele>1660.0</ele>
        <time>2016-06-11T13:23:38Z</time>
      </trkpt>
      <trkpt lat="40.511167" lon="-5.175150">
        <ele>1658.0</ele>
        <time>2016-06-11T13:23:39Z</time>
      </trkpt>
      <trkpt lat="40.511250" lon="-5.175050">
        <ele>1656.0</ele>
        <time>2016-06-11T13:23:40Z</time>
      </trkpt>
      <trkpt lat="40.511350" lon="-5.174950">
        <ele>1655.0</ele>
        <time>2016-06-11T13:23:41Z</time>
      </trkpt>
      <trkpt lat="40.511450" lon="-5.174850">
        <ele>1656.0</ele>
        <time>2016-06-11T13:23:42Z</time>
      </trkpt>
      <trkpt lat="40.511533" lon="-5.174767">
        <ele>1656.0</ele>
        <time>2016-06-11T13:23:43Z</time>
      </trkpt>
      <trkpt lat="40.511617" lon="-5.174700">
        <ele>1657.0</ele>
        <time>2016-06-11T13:23:44Z</time>
      </trkpt>
      <trkpt lat="40.511717" lon="-5.174633">
        <ele>1658.0</ele>
        <time>2016-06-11T13:23:45Z</time>
      </trkpt>
      <trkpt lat="40.511800" lon="-5.174567">
        <ele>1659.0</ele>
        <time>2016-06-11T13:23:46Z</time>
      </trkpt>
      <trkpt lat="40.511883" lon="-5.174500">
        <ele>1662.0</ele>
        <time>2016-06-11T13:23:47Z</time>
      </trkpt>
      <trkpt lat="40.511967" lon="-5.174433">
        <ele>1664.0</ele>
        <time>2016-06-11T13:23:48Z</time>
      </trkpt>
      <trkpt lat="40.512033" lon="-5.174367">
        <ele>1665.0</ele>
        <time>2016-06-11T13:23:49Z</time>
      </trkpt>
      <trkpt lat="40.512117" lon="-5.174317">
        <ele>1665.0</ele>
        <time>2016-06-11T13:23:50Z</time>
      </trkpt>
      <trkpt lat="40.512183" lon="-5.174283">
        <ele>1664.0</ele>
        <time>2016-06-11T13:23:51Z</time>
      </trkpt>
      <trkpt lat="40.512267" lon="-5.174250">
        <ele>1662.0</ele>
        <time>2016-06-11T13:23:52Z</time>
      </trkpt>
      <trkpt lat="40.512367" lon="-5.174233">
        <ele>1660.0</ele>
        <time>2016-06-11T13:23:53Z</time>
      </trkpt>
      <trkpt lat="40.512450" lon="-5.174250">
        <ele>1658.0</ele>
        <time>2016-06-11T13:23:54Z</time>
      </trkpt>
      <trkpt lat="40.512500" lon="-5.174300">
        <ele>1655.0</ele>
        <time>2016-06-11T13:23:55Z</time>
      </trkpt>
      <trkpt lat="40.512567" lon="-5.174333">
        <ele>1652.0</ele>
        <time>2016-06-11T13:23:56Z</time>
      </trkpt>
      <trkpt lat="40.512633" lon="-5.174367">
        <ele>1649.0</ele>
        <time>2016-06-11T13:23:57Z</time>
      </trkpt>
      <trkpt lat="40.512717" lon="-5.174367">
        <ele>1645.0</ele>
        <time>2016-06-11T13:23:58Z</time>
      </trkpt>
      <trkpt lat="40.512800" lon="-5.174350">
        <ele>1642.0</ele>
        <time>2016-06-11T13:23:59Z</time>
      </trkpt>
      <trkpt lat="40.512900" lon="-5.174317">
        <ele>1639.0</ele>
        <time>2016-06-11T13:24:00Z</time>
      </trkpt>
      <trkpt lat="40.513000" lon="-5.174283">
        <ele>1637.0</ele>
        <time>2016-06-11T13:24:01Z</time>
      </trkpt>
      <trkpt lat="40.513100" lon="-5.174217">
        <ele>1636.0</ele>
        <time>2016-06-11T13:24:02Z</time>
      </trkpt>
      <trkpt lat="40.513200" lon="-5.174167">
        <ele>1636.0</ele>
        <time>2016-06-11T13:24:03Z</time>
      </trkpt>
      <trkpt lat="40.513283" lon="-5.174117">
        <ele>1636.0</ele>
        <time>2016-06-11T13:24:04Z</time>
      </trkpt>
      <trkpt lat="40.513367" lon="-5.174067">
        <ele>1637.0</ele>
        <time>2016-06-11T13:24:05Z</time>
      </trkpt>
      <trkpt lat="40.513450" lon="-5.174017">
        <ele>1637.0</ele>
        <time>2016-06-11T13:24:06Z</time>
      </trkpt>
      <trkpt lat="40.513533" lon="-5.173950">
        <ele>1636.0</ele>
        <time>2016-06-11T13:24:07Z</time>
      </trkpt>
      <trkpt lat="40.513633" lon="-5.173883">
        <ele>1635.0</ele>
        <time>2016-06-11T13:24:08Z</time>
      </trkpt>
      <trkpt lat="40.513733" lon="-5.173817">
        <ele>1636.0</ele>
        <time>2016-06-11T13:24:09Z</time>
      </trkpt>
      <trkpt lat="40.513817" lon="-5.173767">
        <ele>1639.0</ele>
        <time>2016-06-11T13:24:10Z</time>
      </trkpt>
      <trkpt lat="40.513883" lon="-5.173700">
        <ele>1644.0</ele>
        <time>2016-06-11T13:24:11Z</time>
      </trkpt>
      <trkpt lat="40.513950" lon="-5.173650">
        <ele>1647.0</ele>
        <time>2016-06-11T13:24:12Z</time>
      </trkpt>
      <trkpt lat="40.513983" lon="-5.173617">
        <ele>1650.0</ele>
        <time>2016-06-11T13:24:13Z</time>
      </trkpt>
      <trkpt lat="40.514033" lon="-5.173600">
        <ele>1650.0</ele>
        <time>2016-06-11T13:24:14Z</time>
      </trkpt>
      <trkpt lat="40.514100" lon="-5.173567">
        <ele>1650.0</ele>
        <time>2016-06-11T13:24:15Z</time>
      </trkpt>
      <trkpt lat="40.514167" lon="-5.173567">
        <ele>1651.0</ele>
        <time>2016-06-11T13:24:16Z</time>
      </trkpt>
      <trkpt lat="40.514233" lon="-5.173550">
        <ele>1653.0</ele>
        <time>2016-06-11T13:24:17Z</time>
      </trkpt>
      <trkpt lat="40.514283" lon="-5.173550">
        <ele>1656.0</ele>
        <time>2016-06-11T13:24:18Z</time>
      </trkpt>
      <trkpt lat="40.514333" lon="-5.173550">
        <ele>1658.0</ele>
        <time>2016-06-11T13:24:19Z</time>
      </trkpt>
      <trkpt lat="40.514400" lon="-5.173550">
        <ele>1660.0</ele>
        <time>2016-06-11T13:24:20Z</time>
      </trkpt>
      <trkpt lat="40.514467" lon="-5.173550">
        <ele>1662.0</ele>
        <time>2016-06-11T13:24:21Z</time>
      </trkpt>
      <trkpt lat="40.514533" lon="-5.173583">
        <ele>1665.0</ele>
        <time>2016-06-11T13:24:22Z</time>
      </trkpt>
      <trkpt lat="40.514583" lon="-5.173600">
        <ele>1668.0</ele>
        <time>2016-06-11T13:24:23Z</time>
      </trkpt>
      <trkpt lat="40.514633" lon="-5.173617">
        <ele>1670.0</ele>
        <time>2016-06-11T13:24:24Z</time>
      </trkpt>
      <trkpt lat="40.514683" lon="-5.173650">
        <ele>1672.0</ele>
        <time>2016-06-11T13:24:25Z</time>
      </trkpt>
      <trkpt lat="40.514733" lon="-5.173683">
        <ele>1673.0</ele>
        <time>2016-06-11T13:24:26Z</time>
      </trkpt>
      <trkpt lat="40.514783" lon="-5.173717">
        <ele>1674.0</ele>
        <time>2016-06-11T13:24:27Z</time>
      </trkpt>
      <trkpt lat="40.514817" lon="-5.173783">
        <ele>1675.0</ele>
        <time>2016-06-11T13:24:28Z</time>
      </trkpt>
      <trkpt lat="40.514817" lon="-5.173867">
        <ele>1676.0</ele>
        <time>2016-06-11T13:24:29Z</time>
      </trkpt>
      <trkpt lat="40.514817" lon="-5.173917">
        <ele>1679.0</ele>
        <time>2016-06-11T13:24:30Z</time>
      </trkpt>
      <trkpt lat="40.514783" lon="-5.173983">
        <ele>1683.0</ele>
        <time>2016-06-11T13:24:31Z</time>
      </trkpt>
      <trkpt lat="40.514750" lon="-5.174033">
        <ele>1687.0</ele>
        <time>2016-06-11T13:24:32Z</time>
      </trkpt>
      <trkpt lat="40.514733" lon="-5.174067">
        <ele>1692.0</ele>
        <time>2016-06-11T13:24:33Z</time>
      </trkpt>
      <trkpt lat="40.514700" lon="-5.174083">
        <ele>1696.0</ele>
        <time>2016-06-11T13:24:34Z</time>
      </trkpt>
      <trkpt lat="40.514683" lon="-5.174100">
        <ele>1699.0</ele>
        <time>2016-06-11T13:24:35Z</time>
      </trkpt>
      <trkpt lat="40.514650" lon="-5.174117">
        <ele>1701.0</ele>
        <time>2016-06-11T13:24:36Z</time>
      </trkpt>
      <trkpt lat="40.514617" lon="-5.174133">
        <ele>1703.0</ele>
        <time>2016-06-11T13:24:37Z</time>
      </trkpt>
      <trkpt lat="40.514567" lon="-5.174150">
        <ele>1705.0</ele>
        <time>2016-06-11T13:24:38Z</time>
      </trkpt>
      <trkpt lat="40.514500" lon="-5.174167">
        <ele>1707.0</ele>
        <time>2016-06-11T13:24:39Z</time>
      </trkpt>
      <trkpt lat="40.514433" lon="-5.174150">
        <ele>1709.0</ele>
        <time>2016-06-11T13:24:40Z</time>
      </trkpt>
      <trkpt lat="40.514367" lon="-5.174117">
        <ele>1711.0</ele>
        <time>2016-06-11T13:24:41Z</time>
      </trkpt>
      <trkpt lat="40.514283" lon="-5.174050">
        <ele>1712.0</ele>
        <time>2016-06-11T13:24:42Z</time>
      </trkpt>
      <trkpt lat="40.514217" lon="-5.173967">
        <ele>1713.0</ele>
        <time>2016-06-11T13:24:43Z</time>
      </trkpt>
      <trkpt lat="40.514133" lon="-5.173850">
        <ele>1713.0</ele>
        <time>2016-06-11T13:24:44Z</time>
      </trkpt>
      <trkpt lat="40.514100" lon="-5.173700">
        <ele>1713.0</ele>
        <time>2016-06-11T13:24:45Z</time>
      </trkpt>
      <trkpt lat="40.514083" lon="-5.173533">
        <ele>1712.0</ele>
        <time>2016-06-11T13:24:46Z</time>
      </trkpt>
      <trkpt lat="40.514117" lon="-5.173367">
        <ele>1712.0</ele>
        <time>2016-06-11T13:24:47Z</time>
      </trkpt>
      <trkpt lat="40.514183" lon="-5.173217">
        <ele>1715.0</ele>
        <time>2016-06-11T13:24:48Z</time>
      </trkpt>
      <trkpt lat="40.514250" lon="-5.173117">
        <ele>1716.0</ele>
        <time>2016-06-11T13:24:49Z</time>
      </trkpt>
      <trkpt lat="40.514333" lon="-5.173033">
        <ele>1718.0</ele>
        <time>2016-06-11T13:24:50Z</time>
      </trkpt>
      <trkpt lat="40.514433" lon="-5.172967">
        <ele>1721.0</ele>
        <time>2016-06-11T13:24:51Z</time>
      </trkpt>
      <trkpt lat="40.514517" lon="-5.172933">
        <ele>1725.0</ele>
        <time>2016-06-11T13:24:52Z</time>
      </trkpt>
      <trkpt lat="40.514600" lon="-5.172883">
        <ele>1729.0</ele>
        <time>2016-06-11T13:24:53Z</time>
      </trkpt>
      <trkpt lat="40.514667" lon="-5.172850">
        <ele>1734.0</ele>
        <time>2016-06-11T13:24:54Z</time>
      </trkpt>
      <trkpt lat="40.514733" lon="-5.172817">
        <ele>1739.0</ele>
        <time>2016-06-11T13:24:55Z</time>
      </trkpt>
      <trkpt lat="40.514783" lon="-5.172783">
        <ele>1742.0</ele>
        <time>2016-06-11T13:24:56Z</time>
      </trkpt>
      <trkpt lat="40.514833" lon="-5.172783">
        <ele>1745.0</ele>
        <time>2016-06-11T13:24:57Z</time>
      </trkpt>
      <trkpt lat="40.514900" lon="-5.172783">
        <ele>1747.0</ele>
        <time>2016-06-11T13:24:58Z</time>
      </trkpt>
      <trkpt lat="40.514950" lon="-5.172783">
        <ele>1750.0</ele>
        <time>2016-06-11T13:24:59Z</time>
      </trkpt>
      <trkpt lat="40.515017" lon="-5.172800">
        <ele>1753.0</ele>
        <time>2016-06-11T13:25:00Z</time>
      </trkpt>
      <trkpt lat="40.515083" lon="-5.172800">
        <ele>1755.0</ele>
        <time>2016-06-11T13:25:01Z</time>
      </trkpt>
      <trkpt lat="40.515150" lon="-5.172817">
        <ele>1758.0</ele>
        <time>2016-06-11T13:25:02Z</time>
      </trkpt>
      <trkpt lat="40.515200" lon="-5.172850">
        <ele>1760.0</ele>
        <time>2016-06-11T13:25:03Z</time>
      </trkpt>
      <trkpt lat="40.515250" lon="-5.172883">
        <ele>1763.0</ele>
        <time>2016-06-11T13:25:04Z</time>
      </trkpt>
      <trkpt lat="40.515283" lon="-5.172933">
        <ele>1765.0</ele>
        <time>2016-06-11T13:25:05Z</time>
      </trkpt>
      <trkpt lat="40.515300" lon="-5.172983">
        <ele>1767.0</ele>
        <time>2016-06-11T13:25:06Z</time>
      </trkpt>
      <trkpt lat="40.515317" lon="-5.173033">
        <ele>1769.0</ele>
        <time>2016-06-11T13:25:07Z</time>
      </trkpt>
      <trkpt lat="40.515333" lon="-5.173067">
        <ele>1770.0</ele>
        <time>2016-06-11T13:25:08Z</time>
      </trkpt>
      <trkpt lat="40.515367" lon="-5.173117">
        <ele>1772.0</ele>
        <time>2016-06-11T13:25:09Z</time>
      </trkpt>
      <trkpt lat="40.515400" lon="-5.173167">
        <ele>1773.0</ele>
        <time>2016-06-11T13:25:10Z</time>
      </trkpt>
      <trkpt lat="40.515417" lon="-5.173233">
        <ele>1774.0</ele>
        <time>2016-06-11T13:25:11Z</time>
      </trkpt>
      <trkpt lat="40.515433" lon="-5.173317">
        <ele>1776.0</ele>
        <time>2016-06-11T13:25:12Z</time>
      </trkpt>
      <trkpt lat="40.515433" lon="-5.173383">
        <ele>1780.0</ele>
        <time>2016-06-11T13:25:13Z</time>
      </trkpt>
      <trkpt lat="40.515400" lon="-5.173450">
        <ele>1783.0</ele>
        <time>2016-06-11T13:25:14Z</time>
      </trkpt>
      <trkpt lat="40.515383" lon="-5.173517">
        <ele>1785.0</ele>
        <time>2016-06-11T13:25:15Z</time>
      </trkpt>
      <trkpt lat="40.515383" lon="-5.173600">
        <ele>1787.0</ele>
        <time>2016-06-11T13:25:16Z</time>
      </trkpt>
      <trkpt lat="40.515383" lon="-5.173667">
        <ele>1788.0</ele>
        <time>2016-06-11T13:25:17Z</time>
      </trkpt>
      <trkpt lat="40.515367" lon="-5.173733">
        <ele>1790.0</ele>
        <time>2016-06-11T13:25:18Z</time>
      </trkpt>
      <trkpt lat="40.515333" lon="-5.173767">
        <ele>1791.0</ele>
        <time>2016-06-11T13:25:19Z</time>
      </trkpt>
      <trkpt lat="40.515267" lon="-5.173800">
        <ele>1791.0</ele>
        <time>2016-06-11T13:25:20Z</time>
      </trkpt>
      <trkpt lat="40.515200" lon="-5.173800">
        <ele>1791.0</ele>
        <time>2016-06-11T13:25:21Z</time>
      </trkpt>
      <trkpt lat="40.515133" lon="-5.173800">
        <ele>1791.0</ele>
        <time>2016-06-11T13:25:22Z</time>
      </trkpt>
      <trkpt lat="40.515050" lon="-5.173783">
        <ele>1791.0</ele>
        <time>2016-06-11T13:25:23Z</time>
      </trkpt>
      <trkpt lat="40.514967" lon="-5.173717">
        <ele>1790.0</ele>
        <time>2016-06-11T13:25:24Z</time>
      </trkpt>
      <trkpt lat="40.514883" lon="-5.173633">
        <ele>1789.0</ele>
        <time>2016-06-11T13:25:25Z</time>
      </trkpt>
      <trkpt lat="40.514817" lon="-5.173500">
        <ele>1789.0</ele>
        <time>2016-06-11T13:25:26Z</time>
      </trkpt>
      <trkpt lat="40.514783" lon="-5.173383">
        <ele>1790.0</ele>
        <time>2016-06-11T13:25:27Z</time>
      </trkpt>
      <trkpt lat="40.514750" lon="-5.173250">
        <ele>1792.0</ele>
        <time>2016-06-11T13:25:28Z</time>
      </trkpt>
      <trkpt lat="40.514733" lon="-5.173150">
        <ele>1792.0</ele>
        <time>2016-06-11T13:25:29Z</time>
      </trkpt>
      <trkpt lat="40.514717" lon="-5.173033">
        <ele>1791.0</ele>
        <time>2016-06-11T13:25:30Z</time>
      </trkpt>
      <trkpt lat="40.514717" lon="-5.172917">
        <ele>1789.0</ele>
        <time>2016-06-11T13:25:31Z</time>
      </trkpt>
      <trkpt lat="40.514717" lon="-5.172783">
        <ele>1786.0</ele>
        <time>2016-06-11T13:25:32Z</time>
      </trkpt>
      <trkpt lat="40.514750" lon="-5.172633">
        <ele>1784.0</ele>
        <time>2016-06-11T13:25:33Z</time>
      </trkpt>
      <trkpt lat="40.514800" lon="-5.172483">
        <ele>1783.0</ele>
        <time>2016-06-11T13:25:34Z</time>
      </trkpt>
      <trkpt lat="40.514883" lon="-5.172383">
        <ele>1783.0</ele>
        <time>2016-06-11T13:25:35Z</time>
      </trkpt>
      <trkpt lat="40.514967" lon="-5.172300">
        <ele>1785.0</ele>
        <time>2016-06-11T13:25:36Z</time>
      </trkpt>
      <trkpt lat="40.515033" lon="-5.172250">
        <ele>1788.0</ele>
        <time>2016-06-11T13:25:37Z</time>
      </trkpt>
      <trkpt lat="40.515100" lon="-5.172217">
        <ele>1791.0</ele>
        <time>2016-06-11T13:25:38Z</time>
      </trkpt>
      <trkpt lat="40.515167" lon="-5.172183">
        <ele>1793.0</ele>
        <time>2016-06-11T13:25:39Z</time>
      </trkpt>
      <trkpt lat="40.515233" lon="-5.172150">
        <ele>1794.0</ele>
        <time>2016-06-11T13:25:40Z</time>
      </trkpt>
      <trkpt lat="40.515317" lon="-5.172117">
        <ele>1796.0</ele>
        <time>2016-06-11T13:25:41Z</time>
      </trkpt>
      <trkpt lat="40.515400" lon="-5.172100">
        <ele>1799.0</ele>
        <time>2016-06-11T13:25:42Z</time>
      </trkpt>
      <trkpt lat="40.515483" lon="-5.172067">
        <ele>1803.0</ele>
        <time>2016-06-11T13:25:43Z</time>
      </trkpt>
      <trkpt lat="40.515567" lon="-5.172050">
        <ele>1807.0</ele>
        <time>2016-06-11T13:25:44Z</time>
      </trkpt>
      <trkpt lat="40.515650" lon="-5.172050">
        <ele>1811.0</ele>
        <time>2016-06-11T13:25:45Z</time>
      </trkpt>
      <trkpt lat="40.515733" lon="-5.172033">
        <ele>1815.0</ele>
        <time>2016-06-11T13:25:46Z</time>
      </trkpt>
      <trkpt lat="40.515800" lon="-5.172017">
        <ele>1819.0</ele>
        <time>2016-06-11T13:25:47Z</time>
      </trkpt>
      <trkpt lat="40.515850" lon="-5.172000">
        <ele>1822.0</ele>
        <time>2016-06-11T13:25:48Z</time>
      </trkpt>
      <trkpt lat="40.515917" lon="-5.172000">
        <ele>1825.0</ele>
        <time>2016-06-11T13:25:49Z</time>
      </trkpt>
      <trkpt lat="40.515983" lon="-5.172017">
        <ele>1828.0</ele>
        <time>2016-06-11T13:25:50Z</time>
      </trkpt>
      <trkpt lat="40.516033" lon="-5.172050">
        <ele>1831.0</ele>
        <time>2016-06-11T13:25:51Z</time>
      </trkpt>
      <trkpt lat="40.516083" lon="-5.172083">
        <ele>1835.0</ele>
        <time>2016-06-11T13:25:52Z</time>
      </trkpt>
      <trkpt lat="40.516117" lon="-5.172083">
        <ele>1840.0</ele>
        <time>2016-06-11T13:25:53Z</time>
      </trkpt>
      <trkpt lat="40.516167" lon="-5.172083">
        <ele>1844.0</ele>
        <time>2016-06-11T13:25:54Z</time>
      </trkpt>
      <trkpt lat="40.516200" lon="-5.172067">
        <ele>1848.0</ele>
        <time>2016-06-11T13:25:55Z</time>
      </trkpt>
      <trkpt lat="40.516233" lon="-5.172050">
        <ele>1850.0</ele>
        <time>2016-06-11T13:25:56Z</time>
      </trkpt>
      <trkpt lat="40.516250" lon="-5.172067">
        <ele>1851.0</ele>
        <time>2016-06-11T13:25:57Z</time>
      </trkpt>
      <trkpt lat="40.516267" lon="-5.172100">
        <ele>1852.0</ele>
        <time>2016-06-11T13:25:58Z</time>
      </trkpt>
      <trkpt lat="40.516267" lon="-5.172133">
        <ele>1852.0</ele>
        <time>2016-06-11T13:25:59Z</time>
      </trkpt>
      <trkpt lat="40.516233" lon="-5.172167">
        <ele>1855.0</ele>
        <time>2016-06-11T13:26:00Z</time>
      </trkpt>
      <trkpt lat="40.516183" lon="-5.172200">
        <ele>1857.0</ele>
        <time>2016-06-11T13:26:01Z</time>
      </trkpt>
      <trkpt lat="40.516117" lon="-5.172200">
        <ele>1859.0</ele>
        <time>2016-06-11T13:26:02Z</time>
      </trkpt>
      <trkpt lat="40.516050" lon="-5.172167">
        <ele>1862.0</ele>
        <time>2016-06-11T13:26:03Z</time>
      </trkpt>
      <trkpt lat="40.515983" lon="-5.172133">
        <ele>1863.0</ele>
        <time>2016-06-11T13:26:04Z</time>
      </trkpt>
      <trkpt lat="40.515900" lon="-5.172100">
        <ele>1864.0</ele>
        <time>2016-06-11T13:26:05Z</time>
      </trkpt>
      <trkpt lat="40.515817" lon="-5.172050">
        <ele>1865.0</ele>
        <time>2016-06-11T13:26:06Z</time>
      </trkpt>
      <trkpt lat="40.515717" lon="-5.171967">
        <ele>1866.0</ele>
        <time>2016-06-11T13:26:07Z</time>
      </trkpt>
      <trkpt lat="40.515617" lon="-5.171850">
        <ele>1867.0</ele>
        <time>2016-06-11T13:26:08Z</time>
      </trkpt>
      <trkpt lat="40.515533" lon="-5.171717">
        <ele>1870.0</ele>
        <time>2016-06-11T13:26:09Z</time>
      </trkpt>
      <trkpt lat="40.515500" lon="-5.171583">
        <ele>1874.0</ele>
        <time>2016-06-11T13:26:10Z</time>
      </trkpt>
      <trkpt lat="40.515467" lon="-5.171450">
        <ele>1879.0</ele>
        <time>2016-06-11T13:26:11Z</time>
      </trkpt>
      <trkpt lat="40.515467" lon="-5.171317">
        <ele>1882.0</ele>
        <time>2016-06-11T13:26:12Z</time>
      </trkpt>
      <trkpt lat="40.515467" lon="-5.171200">
        <ele>1884.0</ele>
        <time>2016-06-11T13:26:13Z</time>
      </trkpt>
      <trkpt lat="40.515467" lon="-5.171083">
        <ele>1886.0</ele>
        <time>2016-06-11T13:26:14Z</time>
      </trkpt>
      <trkpt lat="40.515517" lon="-5.170950">
        <ele>1888.0</ele>
        <time>2016-06-11T13:26:15Z</time>
      </trkpt>
      <trkpt lat="40.515567" lon="-5.170817">
        <ele>1890.0</ele>
        <time>2016-06-11T13:26:16Z</time>
      </trkpt>
      <trkpt lat="40.515617" lon="-5.170700">
        <ele>1893.0</ele>
        <time>2016-06-11T13:26:17Z</time>
      </trkpt>
      <trkpt lat="40.515683" lon="-5.170600">
        <ele>1896.0</ele>
        <time>2016-06-11T13:26:18Z</time>
      </trkpt>
      <trkpt lat="40.515750" lon="-5.170517">
        <ele>1899.0</ele>
        <time>2016-06-11T13:26:19Z</time>
      </trkpt>
      <trkpt lat="40.515817" lon="-5.170433">
        <ele>1902.0</ele>
        <time>2016-06-11T13:26:20Z</time>
      </trkpt>
      <trkpt lat="40.515900" lon="-5.170383">
        <ele>1905.0</ele>
        <time>2016-06-11T13:26:21Z</time>
      </trkpt>
      <trkpt lat="40.515967" lon="-5.170333">
        <ele>1908.0</ele>
        <time>2016-06-11T13:26:22Z</time>
      </trkpt>
      <trkpt lat="40.516033" lon="-5.170300">
        <ele>1911.0</ele>
        <time>2016-06-11T13:26:23Z</time>
      </trkpt>
      <trkpt lat="40.516083" lon="-5.170283">
        <ele>1911.0</ele>
        <time>2016-06-11T13:26:24Z</time>
      </trkpt>
      <trkpt lat="40.516150" lon="-5.170267">
        <ele>1911.0</ele>
        <time>2016-06-11T13:26:25Z</time>
      </trkpt>
      <trkpt lat="40.516183" lon="-5.170267">
        <ele>1911.0</ele>
        <time>2016-06-11T13:26:26Z</time>
      </trkpt>
      <trkpt lat="40.516233" lon="-5.170283">
        <ele>1911.0</ele>
        <time>2016-06-11T13:26:27Z</time>
      </trkpt>
      <trkpt lat="40.516250" lon="-5.170317">
        <ele>1910.0</ele>
        <time>2016-06-11T13:26:28Z</time>
      </trkpt>
      <trkpt lat="40.516250" lon="-5.170367">
        <ele>1910.0</ele>
        <time>2016-06-11T13:26:29Z</time>
      </trkpt>
      <trkpt lat="40.516250" lon="-5.170417">
        <ele>1910.0</ele>
        <time>2016-06-11T13:26:30Z</time>
      </trkpt>
      <trkpt lat="40.516217" lon="-5.170467">
        <ele>1910.0</ele>
        <time>2016-06-11T13:26:31Z</time>
      </trkpt>
      <trkpt lat="40.516167" lon="-5.170500">
        <ele>1911.0</ele>
        <time>2016-06-11T13:26:32Z</time>
      </trkpt>
      <trkpt lat="40.516117" lon="-5.170533">
        <ele>1912.0</ele>
        <time>2016-06-11T13:26:33Z</time>
      </trkpt>
      <trkpt lat="40.516050" lon="-5.170550">
        <ele>1913.0</ele>
        <time>2016-06-11T13:26:34Z</time>
      </trkpt>
      <trkpt lat="40.515983" lon="-5.170533">
        <ele>1914.0</ele>
        <time>2016-06-11T13:26:35Z</time>
      </trkpt>
      <trkpt lat="40.515900" lon="-5.170517">
        <ele>1914.0</ele>
        <time>2016-06-11T13:26:36Z</time>
      </trkpt>
      <trkpt lat="40.515817" lon="-5.170483">
        <ele>1915.0</ele>
        <time>2016-06-11T13:26:37Z</time>
      </trkpt>
      <trkpt lat="40.515717" lon="-5.170467">
        <ele>1916.0</ele>
        <time>2016-06-11T13:26:38Z</time>
      </trkpt>
      <trkpt lat="40.515617" lon="-5.170433">
        <ele>1918.0</ele>
        <time>2016-06-11T13:26:39Z</time>
      </trkpt>
      <trkpt lat="40.515517" lon="-5.170383">
        <ele>1921.0</ele>
        <time>2016-06-11T13:26:40Z</time>
      </trkpt>
      <trkpt lat="40.515433" lon="-5.170317">
        <ele>1923.0</ele>
        <time>2016-06-11T13:26:41Z</time>
      </trkpt>
      <trkpt lat="40.515350" lon="-5.170250">
        <ele>1926.0</ele>
        <time>2016-06-11T13:26:42Z</time>
      </trkpt>
      <trkpt lat="40.515267" lon="-5.170200">
        <ele>1928.0</ele>
        <time>2016-06-11T13:26:43Z</time>
      </trkpt>
      <trkpt lat="40.515167" lon="-5.170133">
        <ele>1929.0</ele>
        <time>2016-06-11T13:26:44Z</time>
      </trkpt>
      <trkpt lat="40.515083" lon="-5.170083">
        <ele>1929.0</ele>
        <time>2016-06-11T13:26:45Z</time>
      </trkpt>
      <trkpt lat="40.514983" lon="-5.170000">
        <ele>1930.0</ele>
        <time>2016-06-11T13:26:46Z</time>
      </trkpt>
      <trkpt lat="40.514883" lon="-5.169917">
        <ele>1931.0</ele>
        <time>2016-06-11T13:26:47Z</time>
      </trkpt>
      <trkpt lat="40.514800" lon="-5.169800">
        <ele>1931.0</ele>
        <time>2016-06-11T13:26:48Z</time>
      </trkpt>
      <trkpt lat="40.514700" lon="-5.169667">
        <ele>1933.0</ele>
        <time>2016-06-11T13:26:49Z</time>
      </trkpt>
      <trkpt lat="40.514617" lon="-5.169550">
        <ele>1936.0</ele>
        <time>2016-06-11T13:26:50Z</time>
      </trkpt>
      <trkpt lat="40.514550" lon="-5.169433">
        <ele>1939.0</ele>
        <time>2016-06-11T13:26:51Z</time>
      </trkpt>
      <trkpt lat="40.514500" lon="-5.169317">
        <ele>1942.0</ele>
        <time>2016-06-11T13:26:52Z</time>
      </trkpt>
      <trkpt lat="40.514450" lon="-5.169183">
        <ele>1942.0</ele>
        <time>2016-06-11T13:26:53Z</time>
      </trkpt>
      <trkpt lat="40.514400" lon="-5.169050">
        <ele>1942.0</ele>
        <time>2016-06-11T13:26:54Z</time>
      </trkpt>
      <trkpt lat="40.514383" lon="-5.168900">
        <ele>1941.0</ele>
        <time>2016-06-11T13:26:55Z</time>
      </trkpt>
      <trkpt lat="40.514350" lon="-5.168750">
        <ele>1941.0</ele>
        <time>2016-06-11T13:26:56Z</time>
      </trkpt>
      <trkpt lat="40.514350" lon="-5.168583">
        <ele>1942.0</ele>
        <time>2016-06-11T13:26:57Z</time>
      </trkpt>
      <trkpt lat="40.514350" lon="-5.168433">
        <ele>1943.0</ele>
        <time>2016-06-11T13:26:58Z</time>
      </trkpt>
      <trkpt lat="40.514350" lon="-5.168300">
        <ele>1944.0</ele>
        <time>2016-06-11T13:26:59Z</time>
      </trkpt>
      <trkpt lat="40.514383" lon="-5.168150">
        <ele>1944.0</ele>
        <time>2016-06-11T13:27:00Z</time>
      </trkpt>
      <trkpt lat="40.514400" lon="-5.167983">
        <ele>1946.0</ele>
        <time>2016-06-11T13:27:01Z</time>
      </trkpt>
      <trkpt lat="40.514450" lon="-5.167833">
        <ele>1949.0</ele>
        <time>2016-06-11T13:27:02Z</time>
      </trkpt>
      <trkpt lat="40.514500" lon="-5.167717">
        <ele>1952.0</ele>
        <time>2016-06-11T13:27:03Z</time>
      </trkpt>
      <trkpt lat="40.514550" lon="-5.167600">
        <ele>1954.0</ele>
        <time>2016-06-11T13:27:04Z</time>
      </trkpt>
      <trkpt lat="40.514600" lon="-5.167500">
        <ele>1956.0</ele>
        <time>2016-06-11T13:27:05Z</time>
      </trkpt>
      <trkpt lat="40.514667" lon="-5.167367">
        <ele>1957.0</ele>
        <time>2016-06-11T13:27:06Z</time>
      </trkpt>
      <trkpt lat="40.514733" lon="-5.167233">
        <ele>1960.0</ele>
        <time>2016-06-11T13:27:07Z</time>
      </trkpt>
      <trkpt lat="40.514800" lon="-5.167117">
        <ele>1963.0</ele>
        <time>2016-06-11T13:27:08Z</time>
      </trkpt>
      <trkpt lat="40.514867" lon="-5.167033">
        <ele>1966.0</ele>
        <time>2016-06-11T13:27:09Z</time>
      </trkpt>
      <trkpt lat="40.514933" lon="-5.166950">
        <ele>1968.0</ele>
        <time>2016-06-11T13:27:10Z</time>
      </trkpt>
      <trkpt lat="40.515000" lon="-5.166867">
        <ele>1968.0</ele>
        <time>2016-06-11T13:27:11Z</time>
      </trkpt>
      <trkpt lat="40.515083" lon="-5.166783">
        <ele>1968.0</ele>
        <time>2016-06-11T13:27:12Z</time>
      </trkpt>
      <trkpt lat="40.515183" lon="-5.166700">
        <ele>1969.0</ele>
        <time>2016-06-11T13:27:13Z</time>
      </trkpt>
      <trkpt lat="40.515267" lon="-5.166650">
        <ele>1971.0</ele>
        <time>2016-06-11T13:27:14Z</time>
      </trkpt>
      <trkpt lat="40.515333" lon="-5.166600">
        <ele>1973.0</ele>
        <time>2016-06-11T13:27:15Z</time>
      </trkpt>
      <trkpt lat="40.515383" lon="-5.166583">
        <ele>1975.0</ele>
        <time>2016-06-11T13:27:16Z</time>
      </trkpt>
      <trkpt lat="40.515450" lon="-5.166533">
        <ele>1975.0</ele>
        <time>2016-06-11T13:27:17Z</time>
      </trkpt>
      <trkpt lat="40.515500" lon="-5.166467">
        <ele>1974.0</ele>
        <time>2016-06-11T13:27:18Z</time>
      </trkpt>
      <trkpt lat="40.515567" lon="-5.166400">
        <ele>1973.0</ele>
        <time>2016-06-11T13:27:19Z</time>
      </trkpt>
      <trkpt lat="40.515650" lon="-5.166333">
        <ele>1972.0</ele>
        <time>2016-06-11T13:27:20Z</time>
      </trkpt>
      <trkpt lat="40.515717" lon="-5.166317">
        <ele>1971.0</ele>
        <time>2016-06-11T13:27:21Z</time>
      </trkpt>
      <trkpt lat="40.515783" lon="-5.166317">
        <ele>1970.0</ele>
        <time>2016-06-11T13:27:22Z</time>
      </trkpt>
      <trkpt lat="40.515833" lon="-5.166350">
        <ele>1970.0</ele>
        <time>2016-06-11T13:27:23Z</time>
      </trkpt>
      <trkpt lat="40.515883" lon="-5.166350">
        <ele>1970.0</ele>
        <time>2016-06-11T13:27:24Z</time>
      </trkpt>
      <trkpt lat="40.515917" lon="-5.166350">
        <ele>1970.0</ele>
        <time>2016-06-11T13:27:25Z</time>
      </trkpt>
      <trkpt lat="40.515950" lon="-5.166367">
        <ele>1969.0</ele>
        <time>2016-06-11T13:27:26Z</time>
      </trkpt>
      <trkpt lat="40.515983" lon="-5.166383">
        <ele>1967.0</ele>
        <time>2016-06-11T13:27:27Z</time>
      </trkpt>
      <trkpt lat="40.516017" lon="-5.166417">
        <ele>1966.0</ele>
        <time>2016-06-11T13:27:28Z</time>
      </trkpt>
      <trkpt lat="40.516050" lon="-5.166450">
        <ele>1966.0</ele>
        <time>2016-06-11T13:27:29Z</time>
      </trkpt>
      <trkpt lat="40.516050" lon="-5.166500">
        <ele>1965.0</ele>
        <time>2016-06-11T13:27:30Z</time>
      </trkpt>
      <trkpt lat="40.516050" lon="-5.166550">
        <ele>1964.0</ele>
        <time>2016-06-11T13:27:31Z</time>
      </trkpt>
      <trkpt lat="40.516033" lon="-5.166600">
        <ele>1963.0</ele>
        <time>2016-06-11T13:27:32Z</time>
      </trkpt>
      <trkpt lat="40.516033" lon="-5.166650">
        <ele>1961.0</ele>
        <time>2016-06-11T13:27:33Z</time>
      </trkpt>
      <trkpt lat="40.516050" lon="-5.166700">
        <ele>1960.0</ele>
        <time>2016-06-11T13:27:34Z</time>
      </trkpt>
      <trkpt lat="40.516050" lon="-5.166733">
        <ele>1958.0</ele>
        <time>2016-06-11T13:27:35Z</time>
      </trkpt>
      <trkpt lat="40.516050" lon="-5.166783">
        <ele>1956.0</ele>
        <time>2016-06-11T13:27:36Z</time>
      </trkpt>
      <trkpt lat="40.516017" lon="-5.166850">
        <ele>1954.0</ele>
        <time>2016-06-11T13:27:37Z</time>
      </trkpt>
      <trkpt lat="40.515950" lon="-5.166917">
        <ele>1952.0</ele>
        <time>2016-06-11T13:27:38Z</time>
      </trkpt>
      <trkpt lat="40.515867" lon="-5.166950">
        <ele>1951.0</ele>
        <time>2016-06-11T13:27:39Z</time>
      </trkpt>
      <trkpt lat="40.515767" lon="-5.166967">
        <ele>1950.0</ele>
        <time>2016-06-11T13:27:40Z</time>
      </trkpt>
      <trkpt lat="40.515667" lon="-5.166950">
        <ele>1951.0</ele>
        <time>2016-06-11T13:27:41Z</time>
      </trkpt>
      <trkpt lat="40.515567" lon="-5.166917">
        <ele>1951.0</ele>
        <time>2016-06-11T13:27:42Z</time>
      </trkpt>
      <trkpt lat="40.515467" lon="-5.166900">
        <ele>1950.0</ele>
        <time>2016-06-11T13:27:43Z</time>
      </trkpt>
      <trkpt lat="40.515367" lon="-5.166883">
        <ele>1949.0</ele>
        <time>2016-06-11T13:27:44Z</time>
      </trkpt>
      <trkpt lat="40.515267" lon="-5.166867">
        <ele>1948.0</ele>
        <time>2016-06-11T13:27:45Z</time>
      </trkpt>
      <trkpt lat="40.515167" lon="-5.166833">
        <ele>1947.0</ele>
        <time>2016-06-11T13:27:46Z</time>
      </trkpt>
      <trkpt lat="40.515050" lon="-5.166800">
        <ele>1948.0</ele>
        <time>2016-06-11T13:27:47Z</time>
      </trkpt>
      <trkpt lat="40.514933" lon="-5.166733">
        <ele>1949.0</ele>
        <time>2016-06-11T13:27:48Z</time>
      </trkpt>
      <trkpt lat="40.514833" lon="-5.166667">
        <ele>1951.0</ele>
        <time>2016-06-11T13:27:49Z</time>
      </trkpt>
      <trkpt lat="40.514717" lon="-5.166583">
        <ele>1952.0</ele>
        <time>2016-06-11T13:27:50Z</time>
      </trkpt>
      <trkpt lat="40.514617" lon="-5.166500">
        <ele>1954.0</ele>
        <time>2016-06-11T13:27:51Z</time>
      </trkpt>
      <trkpt lat="40.514517" lon="-5.166417">
        <ele>1954.0</ele>
        <time>2016-06-11T13:27:52Z</time>
      </trkpt>
      <trkpt lat="40.514400" lon="-5.166317">
        <ele>1956.0</ele>
        <time>2016-06-11T13:27:53Z</time>
      </trkpt>
      <trkpt lat="40.514300" lon="-5.166217">
        <ele>1957.0</ele>
        <time>2016-06-11T13:27:54Z</time>
      </trkpt>
      <trkpt lat="40.514200" lon="-5.166100">
        <ele>1957.0</ele>
        <time>2016-06-11T13:27:55Z</time>
      </trkpt>
      <trkpt lat="40.514083" lon="-5.165983">
        <ele>1959.0</ele>
        <time>2016-06-11T13:27:56Z</time>
      </trkpt>
      <trkpt lat="40.514000" lon="-5.165850">
        <ele>1962.0</ele>
        <time>2016-06-11T13:27:57Z</time>
      </trkpt>
      <trkpt lat="40.513917" lon="-5.165750">
        <ele>1965.0</ele>
        <time>2016-06-11T13:27:58Z</time>
      </trkpt>
      <trkpt lat="40.513850" lon="-5.165650">
        <ele>1967.0</ele>
        <time>2016-06-11T13:27:59Z</time>
      </trkpt>
      <trkpt lat="40.513767" lon="-5.165550">
        <ele>1968.0</ele>
        <time>2016-06-11T13:28:00Z</time>
      </trkpt>
      <trkpt lat="40.513667" lon="-5.165483">
        <ele>1968.0</ele>
        <time>2016-06-11T13:28:01Z</time>
      </trkpt>
      <trkpt lat="40.513567" lon="-5.165417">
        <ele>1968.0</ele>
        <time>2016-06-11T13:28:02Z</time>
      </trkpt>
      <trkpt lat="40.513467" lon="-5.165383">
        <ele>1970.0</ele>
        <time>2016-06-11T13:28:03Z</time>
      </trkpt>
      <trkpt lat="40.513367" lon="-5.165350">
        <ele>1972.0</ele>
        <time>2016-06-11T13:28:04Z</time>
      </trkpt>
      <trkpt lat="40.513283" lon="-5.165300">
        <ele>1972.0</ele>
        <time>2016-06-11T13:28:05Z</time>
      </trkpt>
      <trkpt lat="40.513200" lon="-5.165250">
        <ele>1972.0</ele>
        <time>2016-06-11T13:28:06Z</time>
      </trkpt>
      <trkpt lat="40.513100" lon="-5.165217">
        <ele>1971.0</ele>
        <time>2016-06-11T13:28:07Z</time>
      </trkpt>
      <trkpt lat="40.513017" lon="-5.165233">
        <ele>1969.0</ele>
        <time>2016-06-11T13:28:08Z</time>
      </trkpt>
      <trkpt lat="40.512933" lon="-5.165267">
        <ele>1968.0</ele>
        <time>2016-06-11T13:28:09Z</time>
      </trkpt>
      <trkpt lat="40.512867" lon="-5.165317">
        <ele>1968.0</ele>
        <time>2016-06-11T13:28:10Z</time>
      </trkpt>
      <trkpt lat="40.512817" lon="-5.165367">
        <ele>1968.0</ele>
        <time>2016-06-11T13:28:11Z</time>
      </trkpt>
      <trkpt lat="40.512783" lon="-5.165417">
        <ele>1969.0</ele>
        <time>2016-06-11T13:28:12Z</time>
      </trkpt>
      <trkpt lat="40.512767" lon="-5.165450">
        <ele>1969.0</ele>
        <time>2016-06-11T13:28:13Z</time>
      </trkpt>
      <trkpt lat="40.512733" lon="-5.165500">
        <ele>1969.0</ele>
        <time>2016-06-11T13:28:14Z</time>
      </trkpt>
      <trkpt lat="40.512733" lon="-5.165550">
        <ele>1968.0</ele>
        <time>2016-06-11T13:28:15Z</time>
      </trkpt>
      <trkpt lat="40.512750" lon="-5.165600">
        <ele>1967.0</ele>
        <time>2016-06-11T13:28:16Z</time>
      </trkpt>
      <trkpt lat="40.512783" lon="-5.165650">
        <ele>1966.0</ele>
        <time>2016-06-11T13:28:17Z</time>
      </trkpt>
      <trkpt lat="40.512833" lon="-5.165683">
        <ele>1966.0</ele>
        <time>2016-06-11T13:28:18Z</time>
      </trkpt>
      <trkpt lat="40.512883" lon="-5.165667">
        <ele>1966.0</ele>
        <time>2016-06-11T13:28:19Z</time>
      </trkpt>
      <trkpt lat="40.512933" lon="-5.165650">
        <ele>1966.0</ele>
        <time>2016-06-11T13:28:20Z</time>
      </trkpt>
      <trkpt lat="40.513000" lon="-5.165600">
        <ele>1965.0</ele>
        <time>2016-06-11T13:28:21Z</time>
      </trkpt>
      <trkpt lat="40.513067" lon="-5.165533">
        <ele>1963.0</ele>
        <time>2016-06-11T13:28:22Z</time>
      </trkpt>
      <trkpt lat="40.513150" lon="-5.165450">
        <ele>1961.0</ele>
        <time>2016-06-11T13:28:23Z</time>
      </trkpt>
      <trkpt lat="40.513233" lon="-5.165350">
        <ele>1960.0</ele>
        <time>2016-06-11T13:28:24Z</time>
      </trkpt>
      <trkpt lat="40.513333" lon="-5.165250">
        <ele>1960.0</ele>
        <time>2016-06-11T13:28:25Z</time>
      </trkpt>
      <trkpt lat="40.513417" lon="-5.165150">
        <ele>1961.0</ele>
        <time>2016-06-11T13:28:26Z</time>
      </trkpt>
      <trkpt lat="40.513483" lon="-5.165067">
        <ele>1962.0</ele>
        <time>2016-06-11T13:28:27Z</time>
      </trkpt>
      <trkpt lat="40.513550" lon="-5.165000">
        <ele>1963.0</ele>
        <time>2016-06-11T13:28:28Z</time>
      </trkpt>
      <trkpt lat="40.513617" lon="-5.164933">
        <ele>1962.0</ele>
        <time>2016-06-11T13:28:29Z</time>
      </trkpt>
      <trkpt lat="40.513700" lon="-5.164867">
        <ele>1962.0</ele>
        <time>2016-06-11T13:28:30Z</time>
      </trkpt>
      <trkpt lat="40.513783" lon="-5.164783">
        <ele>1963.0</ele>
        <time>2016-06-11T13:28:31Z</time>
      </trkpt>
      <trkpt lat="40.513850" lon="-5.164700">
        <ele>1966.0</ele>
        <time>2016-06-11T13:28:32Z</time>
      </trkpt>
      <trkpt lat="40.513917" lon="-5.164633">
        <ele>1969.0</ele>
        <time>2016-06-11T13:28:33Z</time>
      </trkpt>
      <trkpt lat="40.513967" lon="-5.164567">
        <ele>1971.0</ele>
        <time>2016-06-11T13:28:34Z</time>
      </trkpt>
      <trkpt lat="40.514033" lon="-5.164533">
        <ele>1973.0</ele>
        <time>2016-06-11T13:28:35Z</time>
      </trkpt>
      <trkpt lat="40.514083" lon="-5.164483">
        <ele>1975.0</ele>
        <time>2016-06-11T13:28:36Z</time>
      </trkpt>
      <trkpt lat="40.514167" lon="-5.164433">
        <ele>1976.0</ele>
        <time>2016-06-11T13:28:37Z</time>
      </trkpt>
      <trkpt lat="40.514233" lon="-5.164400">
        <ele>1978.0</ele>
        <time>2016-06-11T13:28:38Z</time>
      </trkpt>
      <trkpt lat="40.514283" lon="-5.164350">
        <ele>1979.0</ele>
        <time>2016-06-11T13:28:39Z</time>
      </trkpt>
      <trkpt lat="40.514333" lon="-5.164317">
        <ele>1980.0</ele>
        <time>2016-06-11T13:28:40Z</time>
      </trkpt>
      <trkpt lat="40.514350" lon="-5.164283">
        <ele>1980.0</ele>
        <time>2016-06-11T13:28:41Z</time>
      </trkpt>
      <trkpt lat="40.514383" lon="-5.164250">
        <ele>1978.0</ele>
        <time>2016-06-11T13:28:42Z</time>
      </trkpt>
      <trkpt lat="40.514433" lon="-5.164183">
        <ele>1976.0</ele>
        <time>2016-06-11T13:28:43Z</time>
      </trkpt>
      <trkpt lat="40.514483" lon="-5.164083">
        <ele>1973.0</ele>
        <time>2016-06-11T13:28:44Z</time>
      </trkpt>
      <trkpt lat="40.514533" lon="-5.163950">
        <ele>1971.0</ele>
        <time>2016-06-11T13:28:45Z</time>
      </trkpt>
      <trkpt lat="40.514567" lon="-5.163800">
        <ele>1971.0</ele>
        <time>2016-06-11T13:28:46Z</time>
      </trkpt>
      <trkpt lat="40.514583" lon="-5.163667">
        <ele>1972.0</ele>
        <time>2016-06-11T13:28:47Z</time>
      </trkpt>
      <trkpt lat="40.514583" lon="-5.163500">
        <ele>1972.0</ele>
        <time>2016-06-11T13:28:48Z</time>
      </trkpt>
      <trkpt lat="40.514550" lon="-5.163317">
        <ele>1971.0</ele>
        <time>2016-06-11T13:28:49Z</time>
      </trkpt>
      <trkpt lat="40.514500" lon="-5.163133">
        <ele>1970.0</ele>
        <time>2016-06-11T13:28:50Z</time>
      </trkpt>
      <trkpt lat="40.514417" lon="-5.162950">
        <ele>1971.0</ele>
        <time>2016-06-11T13:28:51Z</time>
      </trkpt>
      <trkpt lat="40.514333" lon="-5.162817">
        <ele>1972.0</ele>
        <time>2016-06-11T13:28:52Z</time>
      </trkpt>
      <trkpt lat="40.514233" lon="-5.162683">
        <ele>1972.0</ele>
        <time>2016-06-11T13:28:53Z</time>
      </trkpt>
      <trkpt lat="40.514117" lon="-5.162600">
        <ele>1971.0</ele>
        <time>2016-06-11T13:28:54Z</time>
      </trkpt>
      <trkpt lat="40.514000" lon="-5.162517">
        <ele>1971.0</ele>
        <time>2016-06-11T13:28:55Z</time>
      </trkpt>
      <trkpt lat="40.513883" lon="-5.162450">
        <ele>1971.0</ele>
        <time>2016-06-11T13:28:56Z</time>
      </trkpt>
      <trkpt lat="40.513767" lon="-5.162400">
        <ele>1970.0</ele>
        <time>2016-06-11T13:28:57Z</time>
      </trkpt>
      <trkpt lat="40.513667" lon="-5.162383">
        <ele>1968.0</ele>
        <time>2016-06-11T13:28:58Z</time>
      </trkpt>
      <trkpt lat="40.513567" lon="-5.162400">
        <ele>1966.0</ele>
        <time>2016-06-11T13:28:59Z</time>
      </trkpt>
      <trkpt lat="40.513467" lon="-5.162417">
        <ele>1965.0</ele>
        <time>2016-06-11T13:29:00Z</time>
      </trkpt>
      <trkpt lat="40.513383" lon="-5.162433">
        <ele>1966.0</ele>
        <time>2016-06-11T13:29:01Z</time>
      </trkpt>
      <trkpt lat="40.513317" lon="-5.162450">
        <ele>1970.0</ele>
        <time>2016-06-11T13:29:02Z</time>
      </trkpt>
      <trkpt lat="40.513250" lon="-5.162450">
        <ele>1973.0</ele>
        <time>2016-06-11T13:29:03Z</time>
      </trkpt>
      <trkpt lat="40.513200" lon="-5.162450">
        <ele>1976.0</ele>
        <time>2016-06-11T13:29:04Z</time>
      </trkpt>
      <trkpt lat="40.513167" lon="-5.162450">
        <ele>1978.0</ele>
        <time>2016-06-11T13:29:05Z</time>
      </trkpt>
      <trkpt lat="40.513117" lon="-5.162467">
        <ele>1978.0</ele>
        <time>2016-06-11T13:29:06Z</time>
      </trkpt>
      <trkpt lat="40.513050" lon="-5.162500">
        <ele>1978.0</ele>
        <time>2016-06-11T13:29:07Z</time>
      </trkpt>
      <trkpt lat="40.512967" lon="-5.162533">
        <ele>1978.0</ele>
        <time>2016-06-11T13:29:08Z</time>
      </trkpt>
      <trkpt lat="40.512883" lon="-5.162533">
        <ele>1980.0</ele>
        <time>2016-06-11T13:29:09Z</time>
      </trkpt>
      <trkpt lat="40.512800" lon="-5.162533">
        <ele>1983.0</ele>
        <time>2016-06-11T13:29:10Z</time>
      </trkpt>
      <trkpt lat="40.512733" lon="-5.162550">
        <ele>1985.0</ele>
        <time>2016-06-11T13:29:11Z</time>
      </trkpt>
      <trkpt lat="40.512683" lon="-5.162567">
        <ele>1987.0</ele>
        <time>2016-06-11T13:29:12Z</time>
      </trkpt>
      <trkpt lat="40.512667" lon="-5.162600">
        <ele>1988.0</ele>
        <time>2016-06-11T13:29:13Z</time>
      </trkpt>
      <trkpt lat="40.512650" lon="-5.162617">
        <ele>1988.0</ele>
        <time>2016-06-11T13:29:14Z</time>
      </trkpt>
      <trkpt lat="40.512633" lon="-5.162650">
        <ele>1989.0</ele>
        <time>2016-06-11T13:29:15Z</time>
      </trkpt>
      <trkpt lat="40.512617" lon="-5.162683">
        <ele>1990.0</ele>
        <time>2016-06-11T13:29:16Z</time>
      </trkpt>
      <trkpt lat="40.512600" lon="-5.162717">
        <ele>1991.0</ele>
        <time>2016-06-11T13:29:17Z</time>
      </trkpt>
      <trkpt lat="40.512600" lon="-5.162767">
        <ele>1993.0</ele>
        <time>2016-06-11T13:29:18Z</time>
      </trkpt>
      <trkpt lat="40.512600" lon="-5.162800">
        <ele>1994.0</ele>
        <time>2016-06-11T13:29:19Z</time>
      </trkpt>
      <trkpt lat="40.512600" lon="-5.162833">
        <ele>1997.0</ele>
        <time>2016-06-11T13:29:20Z</time>
      </trkpt>
      <trkpt lat="40.512600" lon="-5.162867">
        <ele>1999.0</ele>
        <time>2016-06-11T13:29:21Z</time>
      </trkpt>
      <trkpt lat="40.512583" lon="-5.162883">
        <ele>2001.0</ele>
        <time>2016-06-11T13:29:22Z</time>
      </trkpt>
      <trkpt lat="40.512600" lon="-5.162883">
        <ele>2003.0</ele>
        <time>2016-06-11T13:29:23Z</time>
      </trkpt>
      <trkpt lat="40.512650" lon="-5.162850">
        <ele>2002.0</ele>
        <time>2016-06-11T13:29:24Z</time>
      </trkpt>
      <trkpt lat="40.512717" lon="-5.162833">
        <ele>2001.0</ele>
        <time>2016-06-11T13:29:25Z</time>
      </trkpt>
      <trkpt lat="40.512767" lon="-5.162783">
        <ele>2001.0</ele>
        <time>2016-06-11T13:29:26Z</time>
      </trkpt>
      <trkpt lat="40.512850" lon="-5.162733">
        <ele>2001.0</ele>
        <time>2016-06-11T13:29:27Z</time>
      </trkpt>
      <trkpt lat="40.512900" lon="-5.162683">
        <ele>2002.0</ele>
        <time>2016-06-11T13:29:28Z</time>
      </trkpt>
      <trkpt lat="40.512967" lon="-5.162600">
        <ele>2002.0</ele>
        <time>2016-06-11T13:29:29Z</time>
      </trkpt>
      <trkpt lat="40.513033" lon="-5.162533">
        <ele>2003.0</ele>
        <time>2016-06-11T13:29:30Z</time>
      </trkpt>
      <trkpt lat="40.513100" lon="-5.162450">
        <ele>2004.0</ele>
        <time>2016-06-11T13:29:31Z</time>
      </trkpt>
      <trkpt lat="40.513183" lon="-5.162333">
        <ele>2004.0</ele>
        <time>2016-06-11T13:29:32Z</time>
      </trkpt>
      <trkpt lat="40.513250" lon="-5.162200">
        <ele>2004.0</ele>
        <time>2016-06-11T13:29:33Z</time>
      </trkpt>
      <trkpt lat="40.513283" lon="-5.162050">
        <ele>2005.0</ele>
        <time>2016-06-11T13:29:34Z</time>
      </trkpt>
      <trkpt lat="40.513317" lon="-5.161883">
        <ele>2006.0</ele>
        <time>2016-06-11T13:29:35Z</time>
      </trkpt>
      <trkpt lat="40.513333" lon="-5.161700">
        <ele>2006.0</ele>
        <time>2016-06-11T13:29:36Z</time>
      </trkpt>
      <trkpt lat="40.513333" lon="-5.161500">
        <ele>2006.0</ele>
        <time>2016-06-11T13:29:37Z</time>
      </trkpt>
      <trkpt lat="40.513317" lon="-5.161300">
        <ele>2007.0</ele>
        <time>2016-06-11T13:29:38Z</time>
      </trkpt>
      <trkpt lat="40.513267" lon="-5.161133">
        <ele>2008.0</ele>
        <time>2016-06-11T13:29:39Z</time>
      </trkpt>
      <trkpt lat="40.513200" lon="-5.161000">
        <ele>2009.0</ele>
        <time>2016-06-11T13:29:40Z</time>
      </trkpt>
      <trkpt lat="40.513117" lon="-5.160900">
        <ele>2008.0</ele>
        <time>2016-06-11T13:29:41Z</time>
      </trkpt>
      <trkpt lat="40.513033" lon="-5.160800">
        <ele>2008.0</ele>
        <time>2016-06-11T13:29:42Z</time>
      </trkpt>
      <trkpt lat="40.512933" lon="-5.160733">
        <ele>2008.0</ele>
        <time>2016-06-11T13:29:43Z</time>
      </trkpt>
      <trkpt lat="40.512833" lon="-5.160667">
        <ele>2008.0</ele>
        <time>2016-06-11T13:29:44Z</time>
      </trkpt>
      <trkpt lat="40.512750" lon="-5.160617">
        <ele>2009.0</ele>
        <time>2016-06-11T13:29:45Z</time>
      </trkpt>
      <trkpt lat="40.512667" lon="-5.160600">
        <ele>2010.0</ele>
        <time>2016-06-11T13:29:46Z</time>
      </trkpt>
      <trkpt lat="40.512600" lon="-5.160583">
        <ele>2011.0</ele>
        <time>2016-06-11T13:29:47Z</time>
      </trkpt>
      <trkpt lat="40.512533" lon="-5.160567">
        <ele>2012.0</ele>
        <time>2016-06-11T13:29:48Z</time>
      </trkpt>
      <trkpt lat="40.512467" lon="-5.160567">
        <ele>2013.0</ele>
        <time>2016-06-11T13:29:49Z</time>
      </trkpt>
      <trkpt lat="40.512417" lon="-5.160583">
        <ele>2013.0</ele>
        <time>2016-06-11T13:29:50Z</time>
      </trkpt>
      <trkpt lat="40.512367" lon="-5.160583">
        <ele>2013.0</ele>
        <time>2016-06-11T13:29:51Z</time>
      </trkpt>
      <trkpt lat="40.512317" lon="-5.160567">
        <ele>2013.0</ele>
        <time>2016-06-11T13:29:52Z</time>
      </trkpt>
      <trkpt lat="40.512283" lon="-5.160567">
        <ele>2013.0</ele>
        <time>2016-06-11T13:29:53Z</time>
      </trkpt>
      <trkpt lat="40.512250" lon="-5.160550">
        <ele>2012.0</ele>
        <time>2016-06-11T13:29:54Z</time>
      </trkpt>
      <trkpt lat="40.512233" lon="-5.160567">
        <ele>2010.0</ele>
        <time>2016-06-11T13:29:55Z</time>
      </trkpt>
      <trkpt lat="40.512217" lon="-5.160600">
        <ele>2008.0</ele>
        <time>2016-06-11T13:29:56Z</time>
      </trkpt>
      <trkpt lat="40.512217" lon="-5.160633">
        <ele>2007.0</ele>
        <time>2016-06-11T13:29:57Z</time>
      </trkpt>
      <trkpt lat="40.512217" lon="-5.160650">
        <ele>2007.0</ele>
        <time>2016-06-11T13:29:58Z</time>
      </trkpt>
      <trkpt lat="40.512233" lon="-5.160667">
        <ele>2008.0</ele>
        <time>2016-06-11T13:29:59Z</time>
      </trkpt>
      <trkpt lat="40.512267" lon="-5.160683">
        <ele>2009.0</ele>
        <time>2016-06-11T13:30:00Z</time>
      </trkpt>
      <trkpt lat="40.512300" lon="-5.160700">
        <ele>2009.0</ele>
        <time>2016-06-11T13:30:01Z</time>
      </trkpt>
      <trkpt lat="40.512333" lon="-5.160717">
        <ele>2009.0</ele>
        <time>2016-06-11T13:30:02Z</time>
      </trkpt>
      <trkpt lat="40.512383" lon="-5.160717">
        <ele>2010.0</ele>
        <time>2016-06-11T13:30:03Z</time>
      </trkpt>
      <trkpt lat="40.512450" lon="-5.160700">
        <ele>2011.0</ele>
        <time>2016-06-11T13:30:04Z</time>
      </trkpt>
      <trkpt lat="40.512500" lon="-5.160683">
        <ele>2011.0</ele>
        <time>2016-06-11T13:30:05Z</time>
      </trkpt>
      <trkpt lat="40.512567" lon="-5.160683">
        <ele>2012.0</ele>
        <time>2016-06-11T13:30:06Z</time>
      </trkpt>
      <trkpt lat="40.512617" lon="-5.160683">
        <ele>2012.0</ele>
        <time>2016-06-11T13:30:07Z</time>
      </trkpt>
      <trkpt lat="40.512667" lon="-5.160683">
        <ele>2013.0</ele>
        <time>2016-06-11T13:30:08Z</time>
      </trkpt>
      <trkpt lat="40.512717" lon="-5.160667">
        <ele>2015.0</ele>
        <time>2016-06-11T13:30:09Z</time>
      </trkpt>
      <trkpt lat="40.512767" lon="-5.160633">
        <ele>2018.0</ele>
        <time>2016-06-11T13:30:10Z</time>
      </trkpt>
      <trkpt lat="40.512817" lon="-5.160600">
        <ele>2020.0</ele>
        <time>2016-06-11T13:30:11Z</time>
      </trkpt>
      <trkpt lat="40.512850" lon="-5.160550">
        <ele>2021.0</ele>
        <time>2016-06-11T13:30:12Z</time>
      </trkpt>
      <trkpt lat="40.512900" lon="-5.160550">
        <ele>2021.0</ele>
        <time>2016-06-11T13:30:13Z</time>
      </trkpt>
      <trkpt lat="40.512967" lon="-5.160533">
        <ele>2020.0</ele>
        <time>2016-06-11T13:30:14Z</time>
      </trkpt>
      <trkpt lat="40.513033" lon="-5.160533">
        <ele>2021.0</ele>
        <time>2016-06-11T13:30:15Z</time>
      </trkpt>
      <trkpt lat="40.513100" lon="-5.160500">
        <ele>2022.0</ele>
        <time>2016-06-11T13:30:16Z</time>
      </trkpt>
      <trkpt lat="40.513183" lon="-5.160467">
        <ele>2025.0</ele>
        <time>2016-06-11T13:30:17Z</time>
      </trkpt>
      <trkpt lat="40.513250" lon="-5.160433">
        <ele>2028.0</ele>
        <time>2016-06-11T13:30:18Z</time>
      </trkpt>
      <trkpt lat="40.513300" lon="-5.160400">
        <ele>2031.0</ele>
        <time>2016-06-11T13:30:19Z</time>
      </trkpt>
      <trkpt lat="40.513350" lon="-5.160383">
        <ele>2034.0</ele>
        <time>2016-06-11T13:30:20Z</time>
      </trkpt>
      <trkpt lat="40.513400" lon="-5.160350">
        <ele>2036.0</ele>
        <time>2016-06-11T13:30:21Z</time>
      </trkpt>
      <trkpt lat="40.513450" lon="-5.160300">
        <ele>2037.0</ele>
        <time>2016-06-11T13:30:22Z</time>
      </trkpt>
      <trkpt lat="40.513500" lon="-5.160250">
        <ele>2037.0</ele>
        <time>2016-06-11T13:30:23Z</time>
      </trkpt>
      <trkpt lat="40.513583" lon="-5.160183">
        <ele>2038.0</ele>
        <time>2016-06-11T13:30:24Z</time>
      </trkpt>
      <trkpt lat="40.513650" lon="-5.160117">
        <ele>2040.0</ele>
        <time>2016-06-11T13:30:25Z</time>
      </trkpt>
      <trkpt lat="40.513717" lon="-5.160033">
        <ele>2043.0</ele>
        <time>2016-06-11T13:30:26Z</time>
      </trkpt>
      <trkpt lat="40.513783" lon="-5.159933">
        <ele>2046.0</ele>
        <time>2016-06-11T13:30:27Z</time>
      </trkpt>
      <trkpt lat="40.513833" lon="-5.159833">
        <ele>2048.0</ele>
        <time>2016-06-11T13:30:28Z</time>
      </trkpt>
      <trkpt lat="40.513883" lon="-5.159717">
        <ele>2049.0</ele>
        <time>2016-06-11T13:30:29Z</time>
      </trkpt>
      <trkpt lat="40.513917" lon="-5.159583">
        <ele>2049.0</ele>
        <time>2016-06-11T13:30:30Z</time>
      </trkpt>
      <trkpt lat="40.513950" lon="-5.159450">
        <ele>2048.0</ele>
        <time>2016-06-11T13:30:31Z</time>
      </trkpt>
      <trkpt lat="40.513967" lon="-5.159283">
        <ele>2048.0</ele>
        <time>2016-06-11T13:30:32Z</time>
      </trkpt>
      <trkpt lat="40.513967" lon="-5.159083">
        <ele>2048.0</ele>
        <time>2016-06-11T13:30:33Z</time>
      </trkpt>
      <trkpt lat="40.513950" lon="-5.158883">
        <ele>2050.0</ele>
        <time>2016-06-11T13:30:34Z</time>
      </trkpt>
      <trkpt lat="40.513917" lon="-5.158717">
        <ele>2054.0</ele>
        <time>2016-06-11T13:30:35Z</time>
      </trkpt>
      <trkpt lat="40.513883" lon="-5.158567">
        <ele>2056.0</ele>
        <time>2016-06-11T13:30:36Z</time>
      </trkpt>
      <trkpt lat="40.513833" lon="-5.158450">
        <ele>2057.0</ele>
        <time>2016-06-11T13:30:37Z</time>
      </trkpt>
      <trkpt lat="40.513800" lon="-5.158317">
        <ele>2056.0</ele>
        <time>2016-06-11T13:30:38Z</time>
      </trkpt>
      <trkpt lat="40.513733" lon="-5.158183">
        <ele>2054.0</ele>
        <time>2016-06-11T13:30:39Z</time>
      </trkpt>
      <trkpt lat="40.513650" lon="-5.158050">
        <ele>2053.0</ele>
        <time>2016-06-11T13:30:40Z</time>
      </trkpt>
      <trkpt lat="40.513550" lon="-5.157950">
        <ele>2052.0</ele>
        <time>2016-06-11T13:30:41Z</time>
      </trkpt>
      <trkpt lat="40.513450" lon="-5.157883">
        <ele>2054.0</ele>
        <time>2016-06-11T13:30:42Z</time>
      </trkpt>
      <trkpt lat="40.513350" lon="-5.157850">
        <ele>2055.0</ele>
        <time>2016-06-11T13:30:43Z</time>
      </trkpt>
      <trkpt lat="40.513267" lon="-5.157850">
        <ele>2058.0</ele>
        <time>2016-06-11T13:30:44Z</time>
      </trkpt>
      <trkpt lat="40.513200" lon="-5.157817">
        <ele>2060.0</ele>
        <time>2016-06-11T13:30:45Z</time>
      </trkpt>
      <trkpt lat="40.513133" lon="-5.157800">
        <ele>2062.0</ele>
        <time>2016-06-11T13:30:46Z</time>
      </trkpt>
      <trkpt lat="40.513050" lon="-5.157783">
        <ele>2064.0</ele>
        <time>2016-06-11T13:30:47Z</time>
      </trkpt>
      <trkpt lat="40.512967" lon="-5.157783">
        <ele>2065.0</ele>
        <time>2016-06-11T13:30:48Z</time>
      </trkpt>
      <trkpt lat="40.512900" lon="-5.157783">
        <ele>2067.0</ele>
        <time>2016-06-11T13:30:49Z</time>
      </trkpt>
      <trkpt lat="40.512833" lon="-5.157783">
        <ele>2071.0</ele>
        <time>2016-06-11T13:30:50Z</time>
      </trkpt>
      <trkpt lat="40.512783" lon="-5.157800">
        <ele>2074.0</ele>
        <time>2016-06-11T13:30:51Z</time>
      </trkpt>
      <trkpt lat="40.512767" lon="-5.157800">
        <ele>2076.0</ele>
        <time>2016-06-11T13:30:52Z</time>
      </trkpt>
      <trkpt lat="40.512733" lon="-5.157817">
        <ele>2078.0</ele>
        <time>2016-06-11T13:30:53Z</time>
      </trkpt>
      <trkpt lat="40.512700" lon="-5.157833">
        <ele>2080.0</ele>
        <time>2016-06-11T13:30:54Z</time>
      </trkpt>
      <trkpt lat="40.512667" lon="-5.157850">
        <ele>2081.0</ele>
        <time>2016-06-11T13:30:55Z</time>
      </trkpt>
      <trkpt lat="40.512633" lon="-5.157867">
        <ele>2083.0</ele>
        <time>2016-06-11T13:30:56Z</time>
      </trkpt>
      <trkpt lat="40.512633" lon="-5.157883">
        <ele>2084.0</ele>
        <time>2016-06-11T13:30:57Z</time>
      </trkpt>
      <trkpt lat="40.512633" lon="-5.157883">
        <ele>2085.0</ele>
        <time>2016-06-11T13:30:58Z</time>
      </trkpt>
      <trkpt lat="40.512650" lon="-5.157900">
        <ele>2086.0</ele>
        <time>2016-06-11T13:30:59Z</time>
      </trkpt>
      <trkpt lat="40.512683" lon="-5.157917">
        <ele>2087.0</ele>
        <time>2016-06-11T13:31:00Z</time>
      </trkpt>
      <trkpt lat="40.512717" lon="-5.157917">
        <ele>2089.0</ele>
        <time>2016-06-11T13:31:01Z</time>
      </trkpt>
      <trkpt lat="40.512750" lon="-5.157900">
        <ele>2091.0</ele>
        <time>2016-06-11T13:31:02Z</time>
      </trkpt>
      <trkpt lat="40.512783" lon="-5.157867">
        <ele>2093.0</ele>
        <time>2016-06-11T13:31:03Z</time>
      </trkpt>
      <trkpt lat="40.512833" lon="-5.157833">
        <ele>2094.0</ele>
        <time>2016-06-11T13:31:04Z</time>
      </trkpt>
      <trkpt lat="40.512867" lon="-5.157817">
        <ele>2095.0</ele>
        <time>2016-06-11T13:31:05Z</time>
      </trkpt>
      <trkpt lat="40.512917" lon="-5.157800">
        <ele>2095.0</ele>
        <time>2016-06-11T13:31:06Z</time>
      </trkpt>
      <trkpt lat="40.512967" lon="-5.157783">
        <ele>2096.0</ele>
        <time>2016-06-11T13:31:07Z</time>
      </trkpt>
      <trkpt lat="40.513050" lon="-5.157717">
        <ele>2098.0</ele>
        <time>2016-06-11T13:31:08Z</time>
      </trkpt>
      <trkpt lat="40.513117" lon="-5.157650">
        <ele>2101.0</ele>
        <time>2016-06-11T13:31:09Z</time>
      </trkpt>
      <trkpt lat="40.513167" lon="-5.157600">
        <ele>2103.0</ele>
        <time>2016-06-11T13:31:10Z</time>
      </trkpt>
      <trkpt lat="40.513233" lon="-5.157550">
        <ele>2105.0</ele>
        <time>2016-06-11T13:31:11Z</time>
      </trkpt>
      <trkpt lat="40.513283" lon="-5.157517">
        <ele>2108.0</ele>
        <time>2016-06-11T13:31:12Z</time>
      </trkpt>
      <trkpt lat="40.513350" lon="-5.157467">
        <ele>2110.0</ele>
        <time>2016-06-11T13:31:13Z</time>
      </trkpt>
      <trkpt lat="40.513417" lon="-5.157400">
        <ele>2112.0</ele>
        <time>2016-06-11T13:31:14Z</time>
      </trkpt>
      <trkpt lat="40.513467" lon="-5.157333">
        <ele>2115.0</ele>
        <time>2016-06-11T13:31:15Z</time>
      </trkpt>
      <trkpt lat="40.513533" lon="-5.157283">
        <ele>2117.0</ele>
        <time>2016-06-11T13:31:16Z</time>
      </trkpt>
      <trkpt lat="40.513600" lon="-5.157233">
        <ele>2120.0</ele>
        <time>2016-06-11T13:31:17Z</time>
      </trkpt>
      <trkpt lat="40.513667" lon="-5.157167">
        <ele>2123.0</ele>
        <time>2016-06-11T13:31:18Z</time>
      </trkpt>
      <trkpt lat="40.513733" lon="-5.157100">
        <ele>2125.0</ele>
        <time>2016-06-11T13:31:19Z</time>
      </trkpt>
      <trkpt lat="40.513800" lon="-5.157000">
        <ele>2127.0</ele>
        <time>2016-06-11T13:31:20Z</time>
      </trkpt>
      <trkpt lat="40.513867" lon="-5.156883">
        <ele>2128.0</ele>
        <time>2016-06-11T13:31:21Z</time>
      </trkpt>
      <trkpt lat="40.513917" lon="-5.156750">
        <ele>2130.0</ele>
        <time>2016-06-11T13:31:22Z</time>
      </trkpt>
      <trkpt lat="40.513967" lon="-5.156617">
        <ele>2131.0</ele>
        <time>2016-06-11T13:31:23Z</time>
      </trkpt>
      <trkpt lat="40.514000" lon="-5.156467">
        <ele>2132.0</ele>
        <time>2016-06-11T13:31:24Z</time>
      </trkpt>
      <trkpt lat="40.514033" lon="-5.156317">
        <ele>2133.0</ele>
        <time>2016-06-11T13:31:25Z</time>
      </trkpt>
      <trkpt lat="40.514050" lon="-5.156167">
        <ele>2134.0</ele>
        <time>2016-06-11T13:31:26Z</time>
      </trkpt>
      <trkpt lat="40.514017" lon="-5.156033">
        <ele>2134.0</ele>
        <time>2016-06-11T13:31:27Z</time>
      </trkpt>
      <trkpt lat="40.513983" lon="-5.155883">
        <ele>2133.0</ele>
        <time>2016-06-11T13:31:28Z</time>
      </trkpt>
      <trkpt lat="40.513917" lon="-5.155733">
        <ele>2132.0</ele>
        <time>2016-06-11T13:31:29Z</time>
      </trkpt>
      <trkpt lat="40.513833" lon="-5.155600">
        <ele>2131.0</ele>
        <time>2016-06-11T13:31:30Z</time>
      </trkpt>
      <trkpt lat="40.513733" lon="-5.155467">
        <ele>2131.0</ele>
        <time>2016-06-11T13:31:31Z</time>
      </trkpt>
      <trkpt lat="40.513633" lon="-5.155383">
        <ele>2131.0</ele>
        <time>2016-06-11T13:31:32Z</time>
      </trkpt>
      <trkpt lat="40.513517" lon="-5.155350">
        <ele>2132.0</ele>
        <time>2016-06-11T13:31:33Z</time>
      </trkpt>
      <trkpt lat="40.513417" lon="-5.155317">
        <ele>2133.0</ele>
        <time>2016-06-11T13:31:34Z</time>
      </trkpt>
      <trkpt lat="40.513333" lon="-5.155283">
        <ele>2134.0</ele>
        <time>2016-06-11T13:31:35Z</time>
      </trkpt>
      <trkpt lat="40.513250" lon="-5.155233">
        <ele>2135.0</ele>
        <time>2016-06-11T13:31:36Z</time>
      </trkpt>
      <trkpt lat="40.513150" lon="-5.155217">
        <ele>2135.0</ele>
        <time>2016-06-11T13:31:37Z</time>
      </trkpt>
      <trkpt lat="40.513067" lon="-5.155217">
        <ele>2136.0</ele>
        <time>2016-06-11T13:31:38Z</time>
      </trkpt>
      <trkpt lat="40.512983" lon="-5.155250">
        <ele>2138.0</ele>
        <time>2016-06-11T13:31:39Z</time>
      </trkpt>
      <trkpt lat="40.512933" lon="-5.155283">
        <ele>2141.0</ele>
        <time>2016-06-11T13:31:40Z</time>
      </trkpt>
      <trkpt lat="40.512883" lon="-5.155317">
        <ele>2144.0</ele>
        <time>2016-06-11T13:31:41Z</time>
      </trkpt>
      <trkpt lat="40.512817" lon="-5.155333">
        <ele>2147.0</ele>
        <time>2016-06-11T13:31:42Z</time>
      </trkpt>
      <trkpt lat="40.512767" lon="-5.155350">
        <ele>2150.0</ele>
        <time>2016-06-11T13:31:43Z</time>
      </trkpt>
      <trkpt lat="40.512717" lon="-5.155367">
        <ele>2152.0</ele>
        <time>2016-06-11T13:31:44Z</time>
      </trkpt>
      <trkpt lat="40.512667" lon="-5.155383">
        <ele>2154.0</ele>
        <time>2016-06-11T13:31:45Z</time>
      </trkpt>
      <trkpt lat="40.512600" lon="-5.155417">
        <ele>2156.0</ele>
        <time>2016-06-11T13:31:46Z</time>
      </trkpt>
      <trkpt lat="40.512533" lon="-5.155467">
        <ele>2158.0</ele>
        <time>2016-06-11T13:31:47Z</time>
      </trkpt>
      <trkpt lat="40.512483" lon="-5.155500">
        <ele>2161.0</ele>
        <time>2016-06-11T13:31:48Z</time>
      </trkpt>
      <trkpt lat="40.512450" lon="-5.155533">
        <ele>2165.0</ele>
        <time>2016-06-11T13:31:49Z</time>
      </trkpt>
      <trkpt lat="40.512450" lon="-5.155550">
        <ele>2169.0</ele>
        <time>2016-06-11T13:31:50Z</time>
      </trkpt>
      <trkpt lat="40.512417" lon="-5.155567">
        <ele>2171.0</ele>
        <time>2016-06-11T13:31:51Z</time>
      </trkpt>
      <trkpt lat="40.512383" lon="-5.155583">
        <ele>2173.0</ele>
        <time>2016-06-11T13:31:52Z</time>
      </trkpt>
      <trkpt lat="40.512333" lon="-5.155617">
        <ele>2174.0</ele>
        <time>2016-06-11T13:31:53Z</time>
      </trkpt>
      <trkpt lat="40.512300" lon="-5.155650">
        <ele>2176.0</ele>
        <time>2016-06-11T13:31:54Z</time>
      </trkpt>
      <trkpt lat="40.512300" lon="-5.155683">
        <ele>2177.0</ele>
        <time>2016-06-11T13:31:55Z</time>
      </trkpt>
      <trkpt lat="40.512300" lon="-5.155717">
        <ele>2178.0</ele>
        <time>2016-06-11T13:31:56Z</time>
      </trkpt>
      <trkpt lat="40.512283" lon="-5.155733">
        <ele>2179.0</ele>
        <time>2016-06-11T13:31:57Z</time>
      </trkpt>
      <trkpt lat="40.512250" lon="-5.155767">
        <ele>2179.0</ele>
        <time>2016-06-11T13:31:58Z</time>
      </trkpt>
      <trkpt lat="40.512217" lon="-5.155800">
        <ele>2180.0</ele>
        <time>2016-06-11T13:31:59Z</time>
      </trkpt>
      <trkpt lat="40.512200" lon="-5.155817">
        <ele>2181.0</ele>
        <time>2016-06-11T13:32:00Z</time>
      </trkpt>
      <trkpt lat="40.512217" lon="-5.155850">
        <ele>2181.0</ele>
        <time>2016-06-11T13:32:01Z</time>
      </trkpt>
      <trkpt lat="40.512233" lon="-5.155867">
        <ele>2180.0</ele>
        <time>2016-06-11T13:32:02Z</time>
      </trkpt>
      <trkpt lat="40.512267" lon="-5.155883">
        <ele>2179.0</ele>
        <time>2016-06-11T13:32:03Z</time>
      </trkpt>
      <trkpt lat="40.512300" lon="-5.155900">
        <ele>2179.0</ele>
        <time>2016-06-11T13:32:04Z</time>
      </trkpt>
      <trkpt lat="40.512333" lon="-5.155917">
        <ele>2180.0</ele>
        <time>2016-06-11T13:32:05Z</time>
      </trkpt>
      <trkpt lat="40.512350" lon="-5.155933">
        <ele>2181.0</ele>
        <time>2016-06-11T13:32:06Z</time>
      </trkpt>
      <trkpt lat="40.512383" lon="-5.155933">
        <ele>2182.0</ele>
        <time>2016-06-11T13:32:07Z</time>
      </trkpt>
      <trkpt lat="40.512417" lon="-5.155933">
        <ele>2183.0</ele>
        <time>2016-06-11T13:32:08Z</time>
      </trkpt>
      <trkpt lat="40.512467" lon="-5.155950">
        <ele>2183.0</ele>
        <time>2016-06-11T13:32:09Z</time>
      </trkpt>
      <trkpt lat="40.512517" lon="-5.155967">
        <ele>2185.0</ele>
        <time>2016-06-11T13:32:10Z</time>
      </trkpt>
      <trkpt lat="40.512583" lon="-5.155967">
        <ele>2187.0</ele>
        <time>2016-06-11T13:32:11Z</time>
      </trkpt>
      <trkpt lat="40.512650" lon="-5.155967">
        <ele>2189.0</ele>
        <time>2016-06-11T13:32:12Z</time>
      </trkpt>
      <trkpt lat="40.512700" lon="-5.155967">
        <ele>2190.0</ele>
        <time>2016-06-11T13:32:13Z</time>
      </trkpt>
      <trkpt lat="40.512767" lon="-5.155967">
        <ele>2193.0</ele>
        <time>2016-06-11T13:32:14Z</time>
      </trkpt>
      <trkpt lat="40.512817" lon="-5.155950">
        <ele>2195.0</ele>
        <time>2016-06-11T13:32:15Z</time>
      </trkpt>
      <trkpt lat="40.512850" lon="-5.155950">
        <ele>2197.0</ele>
        <time>2016-06-11T13:32:16Z</time>
      </trkpt>
      <trkpt lat="40.512850" lon="-5.155950">
        <ele>2198.0</ele>
        <time>2016-06-11T13:32:17Z</time>
      </trkpt>
      <trkpt lat="40.512850" lon="-5.155950">
        <ele>2198.0</ele>
        <time>2016-06-11T13:32:18Z</time>
      </trkpt>
      <trkpt lat="40.512883" lon="-5.155917">
        <ele>2197.0</ele>
        <time>2016-06-11T13:32:19Z</time>
      </trkpt>
      <trkpt lat="40.512933" lon="-5.155883">
        <ele>2196.0</ele>
        <time>2016-06-11T13:32:20Z</time>
      </trkpt>
      <trkpt lat="40.513000" lon="-5.155800">
        <ele>2194.0</ele>
        <time>2016-06-11T13:32:21Z</time>
      </trkpt>
      <trkpt lat="40.513067" lon="-5.155700">
        <ele>2193.0</ele>
        <time>2016-06-11T13:32:22Z</time>
      </trkpt>
      <trkpt lat="40.513100" lon="-5.155583">
        <ele>2193.0</ele>
        <time>2016-06-11T13:32:23Z</time>
      </trkpt>
      <trkpt lat="40.513117" lon="-5.155467">
        <ele>2194.0</ele>
        <time>2016-06-11T13:32:24Z</time>
      </trkpt>
      <trkpt lat="40.513133" lon="-5.155350">
        <ele>2194.0</ele>
        <time>2016-06-11T13:32:25Z</time>
      </trkpt>
      <trkpt lat="40.513150" lon="-5.155217">
        <ele>2193.0</ele>
        <time>2016-06-11T13:32:26Z</time>
      </trkpt>
      <trkpt lat="40.513183" lon="-5.155083">
        <ele>2191.0</ele>
        <time>2016-06-11T13:32:27Z</time>
      </trkpt>
      <trkpt lat="40.513183" lon="-5.154917">
        <ele>2190.0</ele>
        <time>2016-06-11T13:32:28Z</time>
      </trkpt>
      <trkpt lat="40.513167" lon="-5.154750">
        <ele>2187.0</ele>
        <time>2016-06-11T13:32:29Z</time>
      </trkpt>
      <trkpt lat="40.513150" lon="-5.154567">
        <ele>2185.0</ele>
        <time>2016-06-11T13:32:30Z</time>
      </trkpt>
      <trkpt lat="40.513133" lon="-5.154367">
        <ele>2185.0</ele>
        <time>2016-06-11T13:32:31Z</time>
      </trkpt>
      <trkpt lat="40.513117" lon="-5.154183">
        <ele>2187.0</ele>
        <time>2016-06-11T13:32:32Z</time>
      </trkpt>
      <trkpt lat="40.513117" lon="-5.154033">
        <ele>2191.0</ele>
        <time>2016-06-11T13:32:33Z</time>
      </trkpt>
      <trkpt lat="40.513117" lon="-5.153883">
        <ele>2195.0</ele>
        <time>2016-06-11T13:32:34Z</time>
      </trkpt>
      <trkpt lat="40.513117" lon="-5.153750">
        <ele>2198.0</ele>
        <time>2016-06-11T13:32:35Z</time>
      </trkpt>
      <trkpt lat="40.513100" lon="-5.153600">
        <ele>2201.0</ele>
        <time>2016-06-11T13:32:36Z</time>
      </trkpt>
      <trkpt lat="40.513083" lon="-5.153433">
        <ele>2202.0</ele>
        <time>2016-06-11T13:32:37Z</time>
      </trkpt>
      <trkpt lat="40.513067" lon="-5.153267">
        <ele>2203.0</ele>
        <time>2016-06-11T13:32:38Z</time>
      </trkpt>
      <trkpt lat="40.513033" lon="-5.153117">
        <ele>2205.0</ele>
        <time>2016-06-11T13:32:39Z</time>
      </trkpt>
      <trkpt lat="40.512967" lon="-5.153000">
        <ele>2206.0</ele>
        <time>2016-06-11T13:32:40Z</time>
      </trkpt>
      <trkpt lat="40.512900" lon="-5.152917">
        <ele>2207.0</ele>
        <time>2016-06-11T13:32:41Z</time>
      </trkpt>
      <trkpt lat="40.512817" lon="-5.152850">
        <ele>2207.0</ele>
        <time>2016-06-11T13:32:42Z</time>
      </trkpt>
      <trkpt lat="40.512750" lon="-5.152783">
        <ele>2207.0</ele>
        <time>2016-06-11T13:32:43Z</time>
      </trkpt>
      <trkpt lat="40.512683" lon="-5.152733">
        <ele>2209.0</ele>
        <time>2016-06-11T13:32:44Z</time>
      </trkpt>
      <trkpt lat="40.512617" lon="-5.152683">
        <ele>2210.0</ele>
        <time>2016-06-11T13:32:45Z</time>
      </trkpt>
      <trkpt lat="40.512550" lon="-5.152650">
        <ele>2210.0</ele>
        <time>2016-06-11T13:32:46Z</time>
      </trkpt>
      <trkpt lat="40.512483" lon="-5.152633">
        <ele>2211.0</ele>
        <time>2016-06-11T13:32:47Z</time>
      </trkpt>
      <trkpt lat="40.512417" lon="-5.152633">
        <ele>2210.0</ele>
        <time>2016-06-11T13:32:48Z</time>
      </trkpt>
      <trkpt lat="40.512350" lon="-5.152650">
        <ele>2211.0</ele>
        <time>2016-06-11T13:32:49Z</time>
      </trkpt>
      <trkpt lat="40.512283" lon="-5.152667">
        <ele>2213.0</ele>
        <time>2016-06-11T13:32:50Z</time>
      </trkpt>
      <trkpt lat="40.512217" lon="-5.152667">
        <ele>2216.0</ele>
        <time>2016-06-11T13:32:51Z</time>
      </trkpt>
      <trkpt lat="40.512167" lon="-5.152700">
        <ele>2219.0</ele>
        <time>2016-06-11T13:32:52Z</time>
      </trkpt>
      <trkpt lat="40.512117" lon="-5.152717">
        <ele>2222.0</ele>
        <time>2016-06-11T13:32:53Z</time>
      </trkpt>
      <trkpt lat="40.512083" lon="-5.152750">
        <ele>2226.0</ele>
        <time>2016-06-11T13:32:54Z</time>
      </trkpt>
      <trkpt lat="40.512067" lon="-5.152767">
        <ele>2229.0</ele>
        <time>2016-06-11T13:32:55Z</time>
      </trkpt>
      <trkpt lat="40.512050" lon="-5.152783">
        <ele>2232.0</ele>
        <time>2016-06-11T13:32:56Z</time>
      </trkpt>
      <trkpt lat="40.512050" lon="-5.152800">
        <ele>2234.0</ele>
        <time>2016-06-11T13:32:57Z</time>
      </trkpt>
      <trkpt lat="40.512050" lon="-5.152817">
        <ele>2235.0</ele>
        <time>2016-06-11T13:32:58Z</time>
      </trkpt>
      <trkpt lat="40.512067" lon="-5.152850">
        <ele>2237.0</ele>
        <time>2016-06-11T13:32:59Z</time>
      </trkpt>
      <trkpt lat="40.512100" lon="-5.152883">
        <ele>2239.0</ele>
        <time>2016-06-11T13:33:00Z</time>
      </trkpt>
      <trkpt lat="40.512117" lon="-5.152900">
        <ele>2241.0</ele>
        <time>2016-06-11T13:33:01Z</time>
      </trkpt>
      <trkpt lat="40.512150" lon="-5.152917">
        <ele>2243.0</ele>
        <time>2016-06-11T13:33:02Z</time>
      </trkpt>
      <trkpt lat="40.512167" lon="-5.152883">
        <ele>2246.0</ele>
        <time>2016-06-11T13:33:03Z</time>
      </trkpt>
      <trkpt lat="40.512183" lon="-5.152850">
        <ele>2247.0</ele>
        <time>2016-06-11T13:33:04Z</time>
      </trkpt>
      <trkpt lat="40.512217" lon="-5.152817">
        <ele>2246.0</ele>
        <time>2016-06-11T13:33:05Z</time>
      </trkpt>
      <trkpt lat="40.512267" lon="-5.152783">
        <ele>2244.0</ele>
        <time>2016-06-11T13:33:06Z</time>
      </trkpt>
      <trkpt lat="40.512317" lon="-5.152733">
        <ele>2242.0</ele>
        <time>2016-06-11T13:33:07Z</time>
      </trkpt>
      <trkpt lat="40.512367" lon="-5.152683">
        <ele>2241.0</ele>
        <time>2016-06-11T13:33:08Z</time>
      </trkpt>
      <trkpt lat="40.512433" lon="-5.152583">
        <ele>2241.0</ele>
        <time>2016-06-11T13:33:09Z</time>
      </trkpt>
      <trkpt lat="40.512483" lon="-5.152483">
        <ele>2240.0</ele>
        <time>2016-06-11T13:33:10Z</time>
      </trkpt>
      <trkpt lat="40.512533" lon="-5.152333">
        <ele>2239.0</ele>
        <time>2016-06-11T13:33:11Z</time>
      </trkpt>
      <trkpt lat="40.512583" lon="-5.152183">
        <ele>2238.0</ele>
        <time>2016-06-11T13:33:12Z</time>
      </trkpt>
      <trkpt lat="40.512617" lon="-5.152000">
        <ele>2237.0</ele>
        <time>2016-06-11T13:33:13Z</time>
      </trkpt>
      <trkpt lat="40.512667" lon="-5.151833">
        <ele>2238.0</ele>
        <time>2016-06-11T13:33:14Z</time>
      </trkpt>
      <trkpt lat="40.512700" lon="-5.151667">
        <ele>2240.0</ele>
        <time>2016-06-11T13:33:15Z</time>
      </trkpt>
      <trkpt lat="40.512750" lon="-5.151517">
        <ele>2243.0</ele>
        <time>2016-06-11T13:33:16Z</time>
      </trkpt>
      <trkpt lat="40.512800" lon="-5.151367">
        <ele>2247.0</ele>
        <time>2016-06-11T13:33:17Z</time>
      </trkpt>
      <trkpt lat="40.512850" lon="-5.151233">
        <ele>2250.0</ele>
        <time>2016-06-11T13:33:18Z</time>
      </trkpt>
      <trkpt lat="40.512883" lon="-5.151117">
        <ele>2254.0</ele>
        <time>2016-06-11T13:33:19Z</time>
      </trkpt>
      <trkpt lat="40.512917" lon="-5.151000">
        <ele>2257.0</ele>
        <time>2016-06-11T13:33:20Z</time>
      </trkpt>
      <trkpt lat="40.512933" lon="-5.150883">
        <ele>2260.0</ele>
        <time>2016-06-11T13:33:21Z</time>
      </trkpt>
      <trkpt lat="40.512933" lon="-5.150733">
        <ele>2261.0</ele>
        <time>2016-06-11T13:33:22Z</time>
      </trkpt>
      <trkpt lat="40.512917" lon="-5.150583">
        <ele>2261.0</ele>
        <time>2016-06-11T13:33:23Z</time>
      </trkpt>
      <trkpt lat="40.512883" lon="-5.150433">
        <ele>2261.0</ele>
        <time>2016-06-11T13:33:24Z</time>
      </trkpt>
      <trkpt lat="40.512850" lon="-5.150283">
        <ele>2261.0</ele>
        <time>2016-06-11T13:33:25Z</time>
      </trkpt>
      <trkpt lat="40.512800" lon="-5.150150">
        <ele>2262.0</ele>
        <time>2016-06-11T13:33:26Z</time>
      </trkpt>
      <trkpt lat="40.512767" lon="-5.150017">
        <ele>2263.0</ele>
        <time>2016-06-11T13:33:27Z</time>
      </trkpt>
      <trkpt lat="40.512717" lon="-5.149883">
        <ele>2263.0</ele>
        <time>2016-06-11T13:33:28Z</time>
      </trkpt>
      <trkpt lat="40.512650" lon="-5.149750">
        <ele>2262.0</ele>
        <time>2016-06-11T13:33:29Z</time>
      </trkpt>
      <trkpt lat="40.512583" lon="-5.149633">
        <ele>2262.0</ele>
        <time>2016-06-11T13:33:30Z</time>
      </trkpt>
      <trkpt lat="40.512517" lon="-5.149550">
        <ele>2262.0</ele>
        <time>2016-06-11T13:33:31Z</time>
      </trkpt>
      <trkpt lat="40.512433" lon="-5.149500">
        <ele>2263.0</ele>
        <time>2016-06-11T13:33:32Z</time>
      </trkpt>
      <trkpt lat="40.512350" lon="-5.149467">
        <ele>2264.0</ele>
        <time>2016-06-11T13:33:33Z</time>
      </trkpt>
      <trkpt lat="40.512267" lon="-5.149467">
        <ele>2265.0</ele>
        <time>2016-06-11T13:33:34Z</time>
      </trkpt>
      <trkpt lat="40.512200" lon="-5.149467">
        <ele>2267.0</ele>
        <time>2016-06-11T13:33:35Z</time>
      </trkpt>
      <trkpt lat="40.512117" lon="-5.149450">
        <ele>2269.0</ele>
        <time>2016-06-11T13:33:36Z</time>
      </trkpt>
      <trkpt lat="40.512050" lon="-5.149433">
        <ele>2271.0</ele>
        <time>2016-06-11T13:33:37Z</time>
      </trkpt>
      <trkpt lat="40.511983" lon="-5.149417">
        <ele>2272.0</ele>
        <time>2016-06-11T13:33:38Z</time>
      </trkpt>
      <trkpt lat="40.511917" lon="-5.149417">
        <ele>2274.0</ele>
        <time>2016-06-11T13:33:39Z</time>
      </trkpt>
      <trkpt lat="40.511867" lon="-5.149433">
        <ele>2275.0</ele>
        <time>2016-06-11T13:33:40Z</time>
      </trkpt>
      <trkpt lat="40.511833" lon="-5.149467">
        <ele>2277.0</ele>
        <time>2016-06-11T13:33:41Z</time>
      </trkpt>
      <trkpt lat="40.511800" lon="-5.149500">
        <ele>2280.0</ele>
        <time>2016-06-11T13:33:42Z</time>
      </trkpt>
      <trkpt lat="40.511783" lon="-5.149533">
        <ele>2283.0</ele>
        <time>2016-06-11T13:33:43Z</time>
      </trkpt>
      <trkpt lat="40.511767" lon="-5.149550">
        <ele>2286.0</ele>
        <time>2016-06-11T13:33:44Z</time>
      </trkpt>
      <trkpt lat="40.511733" lon="-5.149583">
        <ele>2289.0</ele>
        <time>2016-06-11T13:33:45Z</time>
      </trkpt>
      <trkpt lat="40.511717" lon="-5.149600">
        <ele>2291.0</ele>
        <time>2016-06-11T13:33:46Z</time>
      </trkpt>
      <trkpt lat="40.511700" lon="-5.149633">
        <ele>2292.0</ele>
        <time>2016-06-11T13:33:47Z</time>
      </trkpt>
      <trkpt lat="40.511700" lon="-5.149683">
        <ele>2294.0</ele>
        <time>2016-06-11T13:33:48Z</time>
      </trkpt>
      <trkpt lat="40.511717" lon="-5.149717">
        <ele>2296.0</ele>
        <time>2016-06-11T13:33:49Z</time>
      </trkpt>
      <trkpt lat="40.511750" lon="-5.149750">
        <ele>2299.0</ele>
        <time>2016-06-11T13:33:50Z</time>
      </trkpt>
      <trkpt lat="40.511783" lon="-5.149767">
        <ele>2301.0</ele>
        <time>2016-06-11T13:33:51Z</time>
      </trkpt>
      <trkpt lat="40.511817" lon="-5.149783">
        <ele>2303.0</ele>
        <time>2016-06-11T13:33:52Z</time>
      </trkpt>
      <trkpt lat="40.511833" lon="-5.149800">
        <ele>2303.0</ele>
        <time>2016-06-11T13:33:53Z</time>
      </trkpt>
      <trkpt lat="40.511867" lon="-5.149817">
        <ele>2302.0</ele>
        <time>2016-06-11T13:33:54Z</time>
      </trkpt>
      <trkpt lat="40.511917" lon="-5.149800">
        <ele>2302.0</ele>
        <time>2016-06-11T13:33:55Z</time>
      </trkpt>
      <trkpt lat="40.511983" lon="-5.149783">
        <ele>2301.0</ele>
        <time>2016-06-11T13:33:56Z</time>
      </trkpt>
      <trkpt lat="40.512050" lon="-5.149733">
        <ele>2299.0</ele>
        <time>2016-06-11T13:33:57Z</time>
      </trkpt>
      <trkpt lat="40.512133" lon="-5.149667">
        <ele>2297.0</ele>
        <time>2016-06-11T13:33:58Z</time>
      </trkpt>
      <trkpt lat="40.512217" lon="-5.149583">
        <ele>2296.0</ele>
        <time>2016-06-11T13:33:59Z</time>
      </trkpt>
      <trkpt lat="40.512300" lon="-5.149483">
        <ele>2295.0</ele>
        <time>2016-06-11T13:34:00Z</time>
      </trkpt>
      <trkpt lat="40.512367" lon="-5.149383">
        <ele>2296.0</ele>
        <time>2016-06-11T13:34:01Z</time>
      </trkpt>
      <trkpt lat="40.512433" lon="-5.149283">
        <ele>2296.0</ele>
        <time>2016-06-11T13:34:02Z</time>
      </trkpt>
      <trkpt lat="40.512500" lon="-5.149183">
        <ele>2297.0</ele>
        <time>2016-06-11T13:34:03Z</time>
      </trkpt>
      <trkpt lat="40.512567" lon="-5.149050">
        <ele>2296.0</ele>
        <time>2016-06-11T13:34:04Z</time>
      </trkpt>
      <trkpt lat="40.512617" lon="-5.148900">
        <ele>2295.0</ele>
        <time>2016-06-11T13:34:05Z</time>
      </trkpt>
      <trkpt lat="40.512667" lon="-5.148733">
        <ele>2294.0</ele>
        <time>2016-06-11T13:34:06Z</time>
      </trkpt>
      <trkpt lat="40.512717" lon="-5.148583">
        <ele>2295.0</ele>
        <time>2016-06-11T13:34:07Z</time>
      </trkpt>
      <trkpt lat="40.512750" lon="-5.148433">
        <ele>2296.0</ele>
        <time>2016-06-11T13:34:08Z</time>
      </trkpt>
      <trkpt lat="40.512783" lon="-5.148283">
        <ele>2297.0</ele>
        <time>2016-06-11T13:34:09Z</time>
      </trkpt>
      <trkpt lat="40.512817" lon="-5.148117">
        <ele>2298.0</ele>
        <time>2016-06-11T13:34:10Z</time>
      </trkpt>
      <trkpt lat="40.512833" lon="-5.147950">
        <ele>2298.0</ele>
        <time>2016-06-11T13:34:11Z</time>
      </trkpt>
      <trkpt lat="40.512850" lon="-5.147800">
        <ele>2299.0</ele>
        <time>2016-06-11T13:34:12Z</time>
      </trkpt>
      <trkpt lat="40.512867" lon="-5.147650">
        <ele>2301.0</ele>
        <time>2016-06-11T13:34:13Z</time>
      </trkpt>
      <trkpt lat="40.512883" lon="-5.147500">
        <ele>2302.0</ele>
        <time>2016-06-11T13:34:14Z</time>
      </trkpt>
      <trkpt lat="40.512900" lon="-5.147367">
        <ele>2302.0</ele>
        <time>2016-06-11T13:34:15Z</time>
      </trkpt>
      <trkpt lat="40.512900" lon="-5.147200">
        <ele>2301.0</ele>
        <time>2016-06-11T13:34:16Z</time>
      </trkpt>
      <trkpt lat="40.512867" lon="-5.147033">
        <ele>2299.0</ele>
        <time>2016-06-11T13:34:17Z</time>
      </trkpt>
      <trkpt lat="40.512833" lon="-5.146850">
        <ele>2298.0</ele>
        <time>2016-06-11T13:34:18Z</time>
      </trkpt>
      <trkpt lat="40.512800" lon="-5.146683">
        <ele>2298.0</ele>
        <time>2016-06-11T13:34:19Z</time>
      </trkpt>
      <trkpt lat="40.512783" lon="-5.146533">
        <ele>2299.0</ele>
        <time>2016-06-11T13:34:20Z</time>
      </trkpt>
      <trkpt lat="40.512750" lon="-5.146400">
        <ele>2299.0</ele>
        <time>2016-06-11T13:34:21Z</time>
      </trkpt>
      <trkpt lat="40.512700" lon="-5.146250">
        <ele>2299.0</ele>
        <time>2016-06-11T13:34:22Z</time>
      </trkpt>
      <trkpt lat="40.512633" lon="-5.146117">
        <ele>2299.0</ele>
        <time>2016-06-11T13:34:23Z</time>
      </trkpt>
      <trkpt lat="40.512583" lon="-5.146000">
        <ele>2299.0</ele>
        <time>2016-06-11T13:34:24Z</time>
      </trkpt>
      <trkpt lat="40.512533" lon="-5.145867">
        <ele>2299.0</ele>
        <time>2016-06-11T13:34:25Z</time>
      </trkpt>
      <trkpt lat="40.512483" lon="-5.145733">
        <ele>2300.0</ele>
        <time>2016-06-11T13:34:26Z</time>
      </trkpt>
      <trkpt lat="40.512433" lon="-5.145600">
        <ele>2301.0</ele>
        <time>2016-06-11T13:34:27Z</time>
      </trkpt>
      <trkpt lat="40.512350" lon="-5.145483">
        <ele>2302.0</ele>
        <time>2016-06-11T13:34:28Z</time>
      </trkpt>
      <trkpt lat="40.512267" lon="-5.145383">
        <ele>2302.0</ele>
        <time>2016-06-11T13:34:29Z</time>
      </trkpt>
      <trkpt lat="40.512183" lon="-5.145267">
        <ele>2304.0</ele>
        <time>2016-06-11T13:34:30Z</time>
      </trkpt>
      <trkpt lat="40.512117" lon="-5.145150">
        <ele>2307.0</ele>
        <time>2016-06-11T13:34:31Z</time>
      </trkpt>
      <trkpt lat="40.512050" lon="-5.145050">
        <ele>2310.0</ele>
        <time>2016-06-11T13:34:32Z</time>
      </trkpt>
      <trkpt lat="40.511983" lon="-5.144950">
        <ele>2312.0</ele>
        <time>2016-06-11T13:34:33Z</time>
      </trkpt>
      <trkpt lat="40.511900" lon="-5.144850">
        <ele>2314.0</ele>
        <time>2016-06-11T13:34:34Z</time>
      </trkpt>
      <trkpt lat="40.511817" lon="-5.144767">
        <ele>2314.0</ele>
        <time>2016-06-11T13:34:35Z</time>
      </trkpt>
      <trkpt lat="40.511733" lon="-5.144683">
        <ele>2315.0</ele>
        <time>2016-06-11T13:34:36Z</time>
      </trkpt>
      <trkpt lat="40.511650" lon="-5.144633">
        <ele>2316.0</ele>
        <time>2016-06-11T13:34:37Z</time>
      </trkpt>
      <trkpt lat="40.511583" lon="-5.144583">
        <ele>2317.0</ele>
        <time>2016-06-11T13:34:38Z</time>
      </trkpt>
      <trkpt lat="40.511500" lon="-5.144550">
        <ele>2318.0</ele>
        <time>2016-06-11T13:34:39Z</time>
      </trkpt>
      <trkpt lat="40.511433" lon="-5.144500">
        <ele>2319.0</ele>
        <time>2016-06-11T13:34:40Z</time>
      </trkpt>
      <trkpt lat="40.511350" lon="-5.144450">
        <ele>2321.0</ele>
        <time>2016-06-11T13:34:41Z</time>
      </trkpt>
      <trkpt lat="40.511267" lon="-5.144400">
        <ele>2323.0</ele>
        <time>2016-06-11T13:34:42Z</time>
      </trkpt>
      <trkpt lat="40.511200" lon="-5.144350">
        <ele>2326.0</ele>
        <time>2016-06-11T13:34:43Z</time>
      </trkpt>
      <trkpt lat="40.511117" lon="-5.144317">
        <ele>2329.0</ele>
        <time>2016-06-11T13:34:44Z</time>
      </trkpt>
      <trkpt lat="40.511050" lon="-5.144300">
        <ele>2331.0</ele>
        <time>2016-06-11T13:34:45Z</time>
      </trkpt>
      <trkpt lat="40.510983" lon="-5.144283">
        <ele>2332.0</ele>
        <time>2016-06-11T13:34:46Z</time>
      </trkpt>
      <trkpt lat="40.510917" lon="-5.144283">
        <ele>2332.0</ele>
        <time>2016-06-11T13:34:47Z</time>
      </trkpt>
      <trkpt lat="40.510867" lon="-5.144300">
        <ele>2333.0</ele>
        <time>2016-06-11T13:34:48Z</time>
      </trkpt>
      <trkpt lat="40.510817" lon="-5.144333">
        <ele>2335.0</ele>
        <time>2016-06-11T13:34:49Z</time>
      </trkpt>
      <trkpt lat="40.510800" lon="-5.144367">
        <ele>2337.0</ele>
        <time>2016-06-11T13:34:50Z</time>
      </trkpt>
      <trkpt lat="40.510800" lon="-5.144383">
        <ele>2340.0</ele>
        <time>2016-06-11T13:34:51Z</time>
      </trkpt>
      <trkpt lat="40.510783" lon="-5.144417">
        <ele>2344.0</ele>
        <time>2016-06-11T13:34:52Z</time>
      </trkpt>
      <trkpt lat="40.510767" lon="-5.144417">
        <ele>2347.0</ele>
        <time>2016-06-11T13:34:53Z</time>
      </trkpt>
      <trkpt lat="40.510750" lon="-5.144450">
        <ele>2349.0</ele>
        <time>2016-06-11T13:34:54Z</time>
      </trkpt>
      <trkpt lat="40.510750" lon="-5.144467">
        <ele>2350.0</ele>
        <time>2016-06-11T13:34:55Z</time>
      </trkpt>
      <trkpt lat="40.510767" lon="-5.144500">
        <ele>2352.0</ele>
        <time>2016-06-11T13:34:56Z</time>
      </trkpt>
      <trkpt lat="40.510817" lon="-5.144533">
        <ele>2354.0</ele>
        <time>2016-06-11T13:34:57Z</time>
      </trkpt>
      <trkpt lat="40.510850" lon="-5.144550">
        <ele>2356.0</ele>
        <time>2016-06-11T13:34:58Z</time>
      </trkpt>
      <trkpt lat="40.510900" lon="-5.144567">
        <ele>2359.0</ele>
        <time>2016-06-11T13:34:59Z</time>
      </trkpt>
      <trkpt lat="40.510933" lon="-5.144550">
        <ele>2362.0</ele>
        <time>2016-06-11T13:35:00Z</time>
      </trkpt>
      <trkpt lat="40.510967" lon="-5.144550">
        <ele>2365.0</ele>
        <time>2016-06-11T13:35:01Z</time>
      </trkpt>
      <trkpt lat="40.511017" lon="-5.144533">
        <ele>2367.0</ele>
        <time>2016-06-11T13:35:02Z</time>
      </trkpt>
      <trkpt lat="40.511067" lon="-5.144533">
        <ele>2368.0</ele>
        <time>2016-06-11T13:35:03Z</time>
      </trkpt>
      <trkpt lat="40.511133" lon="-5.144517">
        <ele>2369.0</ele>
        <time>2016-06-11T13:35:04Z</time>
      </trkpt>
      <trkpt lat="40.511217" lon="-5.144483">
        <ele>2370.0</ele>
        <time>2016-06-11T13:35:05Z</time>
      </trkpt>
      <trkpt lat="40.511300" lon="-5.144400">
        <ele>2372.0</ele>
        <time>2016-06-11T13:35:06Z</time>
      </trkpt>
      <trkpt lat="40.511367" lon="-5.144317">
        <ele>2373.0</ele>
        <time>2016-06-11T13:35:07Z</time>
      </trkpt>
      <trkpt lat="40.511433" lon="-5.144233">
        <ele>2375.0</ele>
        <time>2016-06-11T13:35:08Z</time>
      </trkpt>
      <trkpt lat="40.511500" lon="-5.144133">
        <ele>2376.0</ele>
        <time>2016-06-11T13:35:09Z</time>
      </trkpt>
      <trkpt lat="40.511550" lon="-5.144033">
        <ele>2377.0</ele>
        <time>2016-06-11T13:35:10Z</time>
      </trkpt>
      <trkpt lat="40.511617" lon="-5.143917">
        <ele>2378.0</ele>
        <time>2016-06-11T13:35:11Z</time>
      </trkpt>
      <trkpt lat="40.511667" lon="-5.143783">
        <ele>2379.0</ele>
        <time>2016-06-11T13:35:12Z</time>
      </trkpt>
      <trkpt lat="40.511717" lon="-5.143633">
        <ele>2379.0</ele>
        <time>2016-06-11T13:35:13Z</time>
      </trkpt>
      <trkpt lat="40.511767" lon="-5.143483">
        <ele>2379.0</ele>
        <time>2016-06-11T13:35:14Z</time>
      </trkpt>
      <trkpt lat="40.511800" lon="-5.143317">
        <ele>2380.0</ele>
        <time>2016-06-11T13:35:15Z</time>
      </trkpt>
      <trkpt lat="40.511817" lon="-5.143150">
        <ele>2381.0</ele>
        <time>2016-06-11T13:35:16Z</time>
      </trkpt>
      <trkpt lat="40.511817" lon="-5.142967">
        <ele>2381.0</ele>
        <time>2016-06-11T13:35:17Z</time>
      </trkpt>
      <trkpt lat="40.511800" lon="-5.142783">
        <ele>2381.0</ele>
        <time>2016-06-11T13:35:18Z</time>
      </trkpt>
      <trkpt lat="40.511783" lon="-5.142600">
        <ele>2382.0</ele>
        <time>2016-06-11T13:35:19Z</time>
      </trkpt>
      <trkpt lat="40.511767" lon="-5.142433">
        <ele>2385.0</ele>
        <time>2016-06-11T13:35:20Z</time>
      </trkpt>
      <trkpt lat="40.511767" lon="-5.142283">
        <ele>2388.0</ele>
        <time>2016-06-11T13:35:21Z</time>
      </trkpt>
      <trkpt lat="40.511767" lon="-5.142117">
        <ele>2389.0</ele>
        <time>2016-06-11T13:35:22Z</time>
      </trkpt>
      <trkpt lat="40.511767" lon="-5.141950">
        <ele>2390.0</ele>
        <time>2016-06-11T13:35:23Z</time>
      </trkpt>
      <trkpt lat="40.511733" lon="-5.141767">
        <ele>2390.0</ele>
        <time>2016-06-11T13:35:24Z</time>
      </trkpt>
      <trkpt lat="40.511700" lon="-5.141583">
        <ele>2391.0</ele>
        <time>2016-06-11T13:35:25Z</time>
      </trkpt>
      <trkpt lat="40.511667" lon="-5.141400">
        <ele>2393.0</ele>
        <time>2016-06-11T13:35:26Z</time>
      </trkpt>
      <trkpt lat="40.511650" lon="-5.141233">
        <ele>2396.0</ele>
        <time>2016-06-11T13:35:27Z</time>
      </trkpt>
      <trkpt lat="40.511633" lon="-5.141100">
        <ele>2399.0</ele>
        <time>2016-06-11T13:35:28Z</time>
      </trkpt>
      <trkpt lat="40.511600" lon="-5.140950">
        <ele>2401.0</ele>
        <time>2016-06-11T13:35:29Z</time>
      </trkpt>
      <trkpt lat="40.511550" lon="-5.140800">
        <ele>2400.0</ele>
        <time>2016-06-11T13:35:30Z</time>
      </trkpt>
      <trkpt lat="40.511483" lon="-5.140650">
        <ele>2399.0</ele>
        <time>2016-06-11T13:35:31Z</time>
      </trkpt>
      <trkpt lat="40.511400" lon="-5.140500">
        <ele>2397.0</ele>
        <time>2016-06-11T13:35:32Z</time>
      </trkpt>
      <trkpt lat="40.511333" lon="-5.140350">
        <ele>2397.0</ele>
        <time>2016-06-11T13:35:33Z</time>
      </trkpt>
      <trkpt lat="40.511283" lon="-5.140200">
        <ele>2399.0</ele>
        <time>2016-06-11T13:35:34Z</time>
      </trkpt>
      <trkpt lat="40.511217" lon="-5.140067">
        <ele>2401.0</ele>
        <time>2016-06-11T13:35:35Z</time>
      </trkpt>
      <trkpt lat="40.511167" lon="-5.139967">
        <ele>2404.0</ele>
        <time>2016-06-11T13:35:36Z</time>
      </trkpt>
      <trkpt lat="40.511100" lon="-5.139867">
        <ele>2404.0</ele>
        <time>2016-06-11T13:35:37Z</time>
      </trkpt>
      <trkpt lat="40.511033" lon="-5.139783">
        <ele>2403.0</ele>
        <time>2016-06-11T13:35:38Z</time>
      </trkpt>
      <trkpt lat="40.510950" lon="-5.139717">
        <ele>2402.0</ele>
        <time>2016-06-11T13:35:39Z</time>
      </trkpt>
      <trkpt lat="40.510867" lon="-5.139683">
        <ele>2401.0</ele>
        <time>2016-06-11T13:35:40Z</time>
      </trkpt>
      <trkpt lat="40.510800" lon="-5.139650">
        <ele>2401.0</ele>
        <time>2016-06-11T13:35:41Z</time>
      </trkpt>
      <trkpt lat="40.510733" lon="-5.139650">
        <ele>2401.0</ele>
        <time>2016-06-11T13:35:42Z</time>
      </trkpt>
      <trkpt lat="40.510667" lon="-5.139650">
        <ele>2400.0</ele>
        <time>2016-06-11T13:35:43Z</time>
      </trkpt>
      <trkpt lat="40.510617" lon="-5.139683">
        <ele>2399.0</ele>
        <time>2016-06-11T13:35:44Z</time>
      </trkpt>
      <trkpt lat="40.510567" lon="-5.139733">
        <ele>2398.0</ele>
        <time>2016-06-11T13:35:45Z</time>
      </trkpt>
      <trkpt lat="40.510517" lon="-5.139783">
        <ele>2397.0</ele>
        <time>2016-06-11T13:35:46Z</time>
      </trkpt>
      <trkpt lat="40.510483" lon="-5.139833">
        <ele>2397.0</ele>
        <time>2016-06-11T13:35:47Z</time>
      </trkpt>
      <trkpt lat="40.510450" lon="-5.139883">
        <ele>2399.0</ele>
        <time>2016-06-11T13:35:48Z</time>
      </trkpt>
      <trkpt lat="40.510433" lon="-5.139917">
        <ele>2400.0</ele>
        <time>2016-06-11T13:35:49Z</time>
      </trkpt>
      <trkpt lat="40.510417" lon="-5.139950">
        <ele>2402.0</ele>
        <time>2016-06-11T13:35:50Z</time>
      </trkpt>
      <trkpt lat="40.510400" lon="-5.140000">
        <ele>2403.0</ele>
        <time>2016-06-11T13:35:51Z</time>
      </trkpt>
      <trkpt lat="40.510400" lon="-5.140067">
        <ele>2404.0</ele>
        <time>2016-06-11T13:35:52Z</time>
      </trkpt>
      <trkpt lat="40.510417" lon="-5.140117">
        <ele>2406.0</ele>
        <time>2016-06-11T13:35:53Z</time>
      </trkpt>
      <trkpt lat="40.510433" lon="-5.140167">
        <ele>2409.0</ele>
        <time>2016-06-11T13:35:54Z</time>
      </trkpt>
      <trkpt lat="40.510450" lon="-5.140200">
        <ele>2413.0</ele>
        <time>2016-06-11T13:35:55Z</time>
      </trkpt>
      <trkpt lat="40.510467" lon="-5.140217">
        <ele>2416.0</ele>
        <time>2016-06-11T13:35:56Z</time>
      </trkpt>
      <trkpt lat="40.510483" lon="-5.140233">
        <ele>2418.0</ele>
        <time>2016-06-11T13:35:57Z</time>
      </trkpt>
      <trkpt lat="40.510517" lon="-5.140267">
        <ele>2420.0</ele>
        <time>2016-06-11T13:35:58Z</time>
      </trkpt>
      <trkpt lat="40.510533" lon="-5.140317">
        <ele>2421.0</ele>
        <time>2016-06-11T13:35:59Z</time>
      </trkpt>
      <trkpt lat="40.510550" lon="-5.140367">
        <ele>2423.0</ele>
        <time>2016-06-11T13:36:00Z</time>
      </trkpt>
      <trkpt lat="40.510567" lon="-5.140400">
        <ele>2426.0</ele>
        <time>2016-06-11T13:36:01Z</time>
      </trkpt>
      <trkpt lat="40.510600" lon="-5.140433">
        <ele>2429.0</ele>
        <time>2016-06-11T13:36:02Z</time>
      </trkpt>
      <trkpt lat="40.510617" lon="-5.140467">
        <ele>2432.0</ele>
        <time>2016-06-11T13:36:03Z</time>
      </trkpt>
      <trkpt lat="40.510650" lon="-5.140483">
        <ele>2436.0</ele>
        <time>2016-06-11T13:36:04Z</time>
      </trkpt>
      <trkpt lat="40.510667" lon="-5.140500">
        <ele>2438.0</ele>
        <time>2016-06-11T13:36:05Z</time>
      </trkpt>
      <trkpt lat="40.510717" lon="-5.140500">
        <ele>2440.0</ele>
        <time>2016-06-11T13:36:06Z</time>
      </trkpt>
      <trkpt lat="40.510783" lon="-5.140483">
        <ele>2440.0</ele>
        <time>2016-06-11T13:36:07Z</time>
      </trkpt>
      <trkpt lat="40.510867" lon="-5.140467">
        <ele>2440.0</ele>
        <time>2016-06-11T13:36:08Z</time>
      </trkpt>
      <trkpt lat="40.510950" lon="-5.140417">
        <ele>2441.0</ele>
        <time>2016-06-11T13:36:09Z</time>
      </trkpt>
      <trkpt lat="40.511017" lon="-5.140367">
        <ele>2442.0</ele>
        <time>2016-06-11T13:36:10Z</time>
      </trkpt>
      <trkpt lat="40.511100" lon="-5.140317">
        <ele>2443.0</ele>
        <time>2016-06-11T13:36:11Z</time>
      </trkpt>
      <trkpt lat="40.511167" lon="-5.140267">
        <ele>2443.0</ele>
        <time>2016-06-11T13:36:12Z</time>
      </trkpt>
      <trkpt lat="40.511250" lon="-5.140183">
        <ele>2442.0</ele>
        <time>2016-06-11T13:36:13Z</time>
      </trkpt>
      <trkpt lat="40.511333" lon="-5.140083">
        <ele>2441.0</ele>
        <time>2016-06-11T13:36:14Z</time>
      </trkpt>
      <trkpt lat="40.511417" lon="-5.139950">
        <ele>2439.0</ele>
        <time>2016-06-11T13:36:15Z</time>
      </trkpt>
      <trkpt lat="40.511467" lon="-5.139800">
        <ele>2438.0</ele>
        <time>2016-06-11T13:36:16Z</time>
      </trkpt>
      <trkpt lat="40.511517" lon="-5.139633">
        <ele>2437.0</ele>
        <time>2016-06-11T13:36:17Z</time>
      </trkpt>
      <trkpt lat="40.511533" lon="-5.139433">
        <ele>2435.0</ele>
        <time>2016-06-11T13:36:18Z</time>
      </trkpt>
      <trkpt lat="40.511517" lon="-5.139233">
        <ele>2433.0</ele>
        <time>2016-06-11T13:36:19Z</time>
      </trkpt>
      <trkpt lat="40.511500" lon="-5.139050">
        <ele>2434.0</ele>
        <time>2016-06-11T13:36:20Z</time>
      </trkpt>
      <trkpt lat="40.511483" lon="-5.138900">
        <ele>2437.0</ele>
        <time>2016-06-11T13:36:21Z</time>
      </trkpt>
      <trkpt lat="40.511483" lon="-5.138767">
        <ele>2440.0</ele>
        <time>2016-06-11T13:36:22Z</time>
      </trkpt>
      <trkpt lat="40.511467" lon="-5.138633">
        <ele>2442.0</ele>
        <time>2016-06-11T13:36:23Z</time>
      </trkpt>
      <trkpt lat="40.511467" lon="-5.138483">
        <ele>2441.0</ele>
        <time>2016-06-11T13:36:24Z</time>
      </trkpt>
      <trkpt lat="40.511433" lon="-5.138300">
        <ele>2440.0</ele>
        <time>2016-06-11T13:36:25Z</time>
      </trkpt>
      <trkpt lat="40.511400" lon="-5.138117">
        <ele>2439.0</ele>
        <time>2016-06-11T13:36:26Z</time>
      </trkpt>
      <trkpt lat="40.511383" lon="-5.137950">
        <ele>2442.0</ele>
        <time>2016-06-11T13:36:27Z</time>
      </trkpt>
      <trkpt lat="40.511350" lon="-5.137783">
        <ele>2446.0</ele>
        <time>2016-06-11T13:36:28Z</time>
      </trkpt>
      <trkpt lat="40.511350" lon="-5.137650">
        <ele>2450.0</ele>
        <time>2016-06-11T13:36:29Z</time>
      </trkpt>
      <trkpt lat="40.511350" lon="-5.137517">
        <ele>2453.0</ele>
        <time>2016-06-11T13:36:30Z</time>
      </trkpt>
      <trkpt lat="40.511333" lon="-5.137367">
        <ele>2455.0</ele>
        <time>2016-06-11T13:36:31Z</time>
      </trkpt>
      <trkpt lat="40.511300" lon="-5.137217">
        <ele>2455.0</ele>
        <time>2016-06-11T13:36:32Z</time>
      </trkpt>
      <trkpt lat="40.511267" lon="-5.137067">
        <ele>2455.0</ele>
        <time>2016-06-11T13:36:33Z</time>
      </trkpt>
      <trkpt lat="40.511200" lon="-5.136933">
        <ele>2456.0</ele>
        <time>2016-06-11T13:36:34Z</time>
      </trkpt>
      <trkpt lat="40.511150" lon="-5.136800">
        <ele>2458.0</ele>
        <time>2016-06-11T13:36:35Z</time>
      </trkpt>
      <trkpt lat="40.511100" lon="-5.136700">
        <ele>2461.0</ele>
        <time>2016-06-11T13:36:36Z</time>
      </trkpt>
      <trkpt lat="40.511067" lon="-5.136583">
        <ele>2463.0</ele>
        <time>2016-06-11T13:36:37Z</time>
      </trkpt>
      <trkpt lat="40.511017" lon="-5.136467">
        <ele>2464.0</ele>
        <time>2016-06-11T13:36:38Z</time>
      </trkpt>
      <trkpt lat="40.510950" lon="-5.136367">
        <ele>2464.0</ele>
        <time>2016-06-11T13:36:39Z</time>
      </trkpt>
      <trkpt lat="40.510883" lon="-5.136267">
        <ele>2463.0</ele>
        <time>2016-06-11T13:36:40Z</time>
      </trkpt>
      <trkpt lat="40.510800" lon="-5.136183">
        <ele>2463.0</ele>
        <time>2016-06-11T13:36:41Z</time>
      </trkpt>
      <trkpt lat="40.510717" lon="-5.136133">
        <ele>2463.0</ele>
        <time>2016-06-11T13:36:42Z</time>
      </trkpt>
      <trkpt lat="40.510633" lon="-5.136100">
        <ele>2464.0</ele>
        <time>2016-06-11T13:36:43Z</time>
      </trkpt>
      <trkpt lat="40.510567" lon="-5.136083">
        <ele>2463.0</ele>
        <time>2016-06-11T13:36:44Z</time>
      </trkpt>
      <trkpt lat="40.510500" lon="-5.136100">
        <ele>2463.0</ele>
        <time>2016-06-11T13:36:45Z</time>
      </trkpt>
      <trkpt lat="40.510450" lon="-5.136117">
        <ele>2462.0</ele>
        <time>2016-06-11T13:36:46Z</time>
      </trkpt>
      <trkpt lat="40.510400" lon="-5.136150">
        <ele>2461.0</ele>
        <time>2016-06-11T13:36:47Z</time>
      </trkpt>
      <trkpt lat="40.510367" lon="-5.136183">
        <ele>2461.0</ele>
        <time>2016-06-11T13:36:48Z</time>
      </trkpt>
      <trkpt lat="40.510350" lon="-5.136200">
        <ele>2462.0</ele>
        <time>2016-06-11T13:36:49Z</time>
      </trkpt>
      <trkpt lat="40.510350" lon="-5.136250">
        <ele>2462.0</ele>
        <time>2016-06-11T13:36:50Z</time>
      </trkpt>
      <trkpt lat="40.510333" lon="-5.136283">
        <ele>2462.0</ele>
        <time>2016-06-11T13:36:51Z</time>
      </trkpt>
      <trkpt lat="40.510350" lon="-5.136350">
        <ele>2463.0</ele>
        <time>2016-06-11T13:36:52Z</time>
      </trkpt>
      <trkpt lat="40.510367" lon="-5.136400">
        <ele>2465.0</ele>
        <time>2016-06-11T13:36:53Z</time>
      </trkpt>
      <trkpt lat="40.510417" lon="-5.136450">
        <ele>2468.0</ele>
        <time>2016-06-11T13:36:54Z</time>
      </trkpt>
      <trkpt lat="40.510467" lon="-5.136467">
        <ele>2471.0</ele>
        <time>2016-06-11T13:36:55Z</time>
      </trkpt>
      <trkpt lat="40.510517" lon="-5.136483">
        <ele>2475.0</ele>
        <time>2016-06-11T13:36:56Z</time>
      </trkpt>
      <trkpt lat="40.510567" lon="-5.136500">
        <ele>2477.0</ele>
        <time>2016-06-11T13:36:57Z</time>
      </trkpt>
      <trkpt lat="40.510617" lon="-5.136517">
        <ele>2479.0</ele>
        <time>2016-06-11T13:36:58Z</time>
      </trkpt>
      <trkpt lat="40.510667" lon="-5.136550">
        <ele>2480.0</ele>
        <time>2016-06-11T13:36:59Z</time>
      </trkpt>
      <trkpt lat="40.510733" lon="-5.136567">
        <ele>2481.0</ele>
        <time>2016-06-11T13:37:00Z</time>
      </trkpt>
      <trkpt lat="40.510783" lon="-5.136583">
        <ele>2482.0</ele>
        <time>2016-06-11T13:37:01Z</time>
      </trkpt>
      <trkpt lat="40.510850" lon="-5.136567">
        <ele>2485.0</ele>
        <time>2016-06-11T13:37:02Z</time>
      </trkpt>
      <trkpt lat="40.510917" lon="-5.136550">
        <ele>2487.0</ele>
        <time>2016-06-11T13:37:03Z</time>
      </trkpt>
      <trkpt lat="40.510983" lon="-5.136533">
        <ele>2488.0</ele>
        <time>2016-06-11T13:37:04Z</time>
      </trkpt>
      <trkpt lat="40.511067" lon="-5.136500">
        <ele>2488.0</ele>
        <time>2016-06-11T13:37:05Z</time>
      </trkpt>
      <trkpt lat="40.511167" lon="-5.136433">
        <ele>2489.0</ele>
        <time>2016-06-11T13:37:06Z</time>
      </trkpt>
      <trkpt lat="40.511250" lon="-5.136350">
        <ele>2490.0</ele>
        <time>2016-06-11T13:37:07Z</time>
      </trkpt>
      <trkpt lat="40.511317" lon="-5.136233">
        <ele>2490.0</ele>
        <time>2016-06-11T13:37:08Z</time>
      </trkpt>
      <trkpt lat="40.511383" lon="-5.136117">
        <ele>2489.0</ele>
        <time>2016-06-11T13:37:09Z</time>
      </trkpt>
      <trkpt lat="40.511450" lon="-5.135983">
        <ele>2488.0</ele>
        <time>2016-06-11T13:37:10Z</time>
      </trkpt>
      <trkpt lat="40.511500" lon="-5.135817">
        <ele>2487.0</ele>
        <time>2016-06-11T13:37:11Z</time>
      </trkpt>
      <trkpt lat="40.511550" lon="-5.135667">
        <ele>2487.0</ele>
        <time>2016-06-11T13:37:12Z</time>
      </trkpt>
      <trkpt lat="40.511567" lon="-5.135500">
        <ele>2487.0</ele>
        <time>2016-06-11T13:37:13Z</time>
      </trkpt>
      <trkpt lat="40.511617" lon="-5.135367">
        <ele>2487.0</ele>
        <time>2016-06-11T13:37:14Z</time>
      </trkpt>
      <trkpt lat="40.511650" lon="-5.135217">
        <ele>2487.0</ele>
        <time>2016-06-11T13:37:15Z</time>
      </trkpt>
      <trkpt lat="40.511700" lon="-5.135067">
        <ele>2487.0</ele>
        <time>2016-06-11T13:37:16Z</time>
      </trkpt>
      <trkpt lat="40.511733" lon="-5.134900">
        <ele>2487.0</ele>
        <time>2016-06-11T13:37:17Z</time>
      </trkpt>
      <trkpt lat="40.511783" lon="-5.134733">
        <ele>2486.0</ele>
        <time>2016-06-11T13:37:18Z</time>
      </trkpt>
      <trkpt lat="40.511817" lon="-5.134583">
        <ele>2486.0</ele>
        <time>2016-06-11T13:37:19Z</time>
      </trkpt>
      <trkpt lat="40.511850" lon="-5.134417">
        <ele>2486.0</ele>
        <time>2016-06-11T13:37:20Z</time>
      </trkpt>
      <trkpt lat="40.511867" lon="-5.134267">
        <ele>2486.0</ele>
        <time>2016-06-11T13:37:21Z</time>
      </trkpt>
      <trkpt lat="40.511850" lon="-5.134100">
        <ele>2486.0</ele>
        <time>2016-06-11T13:37:22Z</time>
      </trkpt>
      <trkpt lat="40.511817" lon="-5.133950">
        <ele>2485.0</ele>
        <time>2016-06-11T13:37:23Z</time>
      </trkpt>
      <trkpt lat="40.511800" lon="-5.133800">
        <ele>2485.0</ele>
        <time>2016-06-11T13:37:24Z</time>
      </trkpt>
      <trkpt lat="40.511783" lon="-5.133650">
        <ele>2484.0</ele>
        <time>2016-06-11T13:37:25Z</time>
      </trkpt>
      <trkpt lat="40.511767" lon="-5.133500">
        <ele>2483.0</ele>
        <time>2016-06-11T13:37:26Z</time>
      </trkpt>
      <trkpt lat="40.511733" lon="-5.133350">
        <ele>2483.0</ele>
        <time>2016-06-11T13:37:27Z</time>
      </trkpt>
      <trkpt lat="40.511700" lon="-5.133200">
        <ele>2482.0</ele>
        <time>2016-06-11T13:37:28Z</time>
      </trkpt>
      <trkpt lat="40.511633" lon="-5.133067">
        <ele>2480.0</ele>
        <time>2016-06-11T13:37:29Z</time>
      </trkpt>
      <trkpt lat="40.511583" lon="-5.132917">
        <ele>2479.0</ele>
        <time>2016-06-11T13:37:30Z</time>
      </trkpt>
      <trkpt lat="40.511533" lon="-5.132783">
        <ele>2479.0</ele>
        <time>2016-06-11T13:37:31Z</time>
      </trkpt>
      <trkpt lat="40.511483" lon="-5.132667">
        <ele>2478.0</ele>
        <time>2016-06-11T13:37:32Z</time>
      </trkpt>
      <trkpt lat="40.511417" lon="-5.132533">
        <ele>2477.0</ele>
        <time>2016-06-11T13:37:33Z</time>
      </trkpt>
      <trkpt lat="40.511367" lon="-5.132383">
        <ele>2475.0</ele>
        <time>2016-06-11T13:37:34Z</time>
      </trkpt>
      <trkpt lat="40.511317" lon="-5.132233">
        <ele>2473.0</ele>
        <time>2016-06-11T13:37:35Z</time>
      </trkpt>
      <trkpt lat="40.511283" lon="-5.132083">
        <ele>2472.0</ele>
        <time>2016-06-11T13:37:36Z</time>
      </trkpt>
      <trkpt lat="40.511233" lon="-5.131933">
        <ele>2470.0</ele>
        <time>2016-06-11T13:37:37Z</time>
      </trkpt>
      <trkpt lat="40.511183" lon="-5.131767">
        <ele>2469.0</ele>
        <time>2016-06-11T13:37:38Z</time>
      </trkpt>
      <trkpt lat="40.511150" lon="-5.131600">
        <ele>2467.0</ele>
        <time>2016-06-11T13:37:39Z</time>
      </trkpt>
      <trkpt lat="40.511100" lon="-5.131400">
        <ele>2465.0</ele>
        <time>2016-06-11T13:37:40Z</time>
      </trkpt>
      <trkpt lat="40.511067" lon="-5.131217">
        <ele>2464.0</ele>
        <time>2016-06-11T13:37:41Z</time>
      </trkpt>
      <trkpt lat="40.511033" lon="-5.131033">
        <ele>2464.0</ele>
        <time>2016-06-11T13:37:42Z</time>
      </trkpt>
      <trkpt lat="40.511017" lon="-5.130850">
        <ele>2464.0</ele>
        <time>2016-06-11T13:37:43Z</time>
      </trkpt>
      <trkpt lat="40.511000" lon="-5.130667">
        <ele>2463.0</ele>
        <time>2016-06-11T13:37:44Z</time>
      </trkpt>
      <trkpt lat="40.510983" lon="-5.130483">
        <ele>2462.0</ele>
        <time>2016-06-11T13:37:45Z</time>
      </trkpt>
      <trkpt lat="40.510967" lon="-5.130300">
        <ele>2460.0</ele>
        <time>2016-06-11T13:37:46Z</time>
      </trkpt>
      <trkpt lat="40.510950" lon="-5.130117">
        <ele>2458.0</ele>
        <time>2016-06-11T13:37:47Z</time>
      </trkpt>
      <trkpt lat="40.510933" lon="-5.129917">
        <ele>2456.0</ele>
        <time>2016-06-11T13:37:48Z</time>
      </trkpt>
      <trkpt lat="40.510917" lon="-5.129717">
        <ele>2453.0</ele>
        <time>2016-06-11T13:37:49Z</time>
      </trkpt>
      <trkpt lat="40.510917" lon="-5.129500">
        <ele>2450.0</ele>
        <time>2016-06-11T13:37:50Z</time>
      </trkpt>
      <trkpt lat="40.510933" lon="-5.129283">
        <ele>2447.0</ele>
        <time>2016-06-11T13:37:51Z</time>
      </trkpt>
      <trkpt lat="40.510950" lon="-5.129083">
        <ele>2445.0</ele>
        <time>2016-06-11T13:37:52Z</time>
      </trkpt>
      <trkpt lat="40.510950" lon="-5.128883">
        <ele>2444.0</ele>
        <time>2016-06-11T13:37:53Z</time>
      </trkpt>
      <trkpt lat="40.510950" lon="-5.128683">
        <ele>2442.0</ele>
        <time>2016-06-11T13:37:54Z</time>
      </trkpt>
      <trkpt lat="40.510950" lon="-5.128483">
        <ele>2441.0</ele>
        <time>2016-06-11T13:37:55Z</time>
      </trkpt>
      <trkpt lat="40.510967" lon="-5.128283">
        <ele>2438.0</ele>
        <time>2016-06-11T13:37:56Z</time>
      </trkpt>
      <trkpt lat="40.510983" lon="-5.128067">
        <ele>2435.0</ele>
        <time>2016-06-11T13:37:57Z</time>
      </trkpt>
      <trkpt lat="40.510983" lon="-5.127850">
        <ele>2432.0</ele>
        <time>2016-06-11T13:37:58Z</time>
      </trkpt>
      <trkpt lat="40.510983" lon="-5.127617">
        <ele>2428.0</ele>
        <time>2016-06-11T13:37:59Z</time>
      </trkpt>
      <trkpt lat="40.511000" lon="-5.127400">
        <ele>2426.0</ele>
        <time>2016-06-11T13:38:00Z</time>
      </trkpt>
      <trkpt lat="40.511000" lon="-5.127200">
        <ele>2426.0</ele>
        <time>2016-06-11T13:38:01Z</time>
      </trkpt>
      <trkpt lat="40.511017" lon="-5.127000">
        <ele>2426.0</ele>
        <time>2016-06-11T13:38:02Z</time>
      </trkpt>
      <trkpt lat="40.511033" lon="-5.126817">
        <ele>2426.0</ele>
        <time>2016-06-11T13:38:03Z</time>
      </trkpt>
      <trkpt lat="40.511067" lon="-5.126633">
        <ele>2425.0</ele>
        <time>2016-06-11T13:38:04Z</time>
      </trkpt>
      <trkpt lat="40.511083" lon="-5.126433">
        <ele>2422.0</ele>
        <time>2016-06-11T13:38:05Z</time>
      </trkpt>
      <trkpt lat="40.511117" lon="-5.126217">
        <ele>2419.0</ele>
        <time>2016-06-11T13:38:06Z</time>
      </trkpt>
      <trkpt lat="40.511150" lon="-5.126000">
        <ele>2415.0</ele>
        <time>2016-06-11T13:38:07Z</time>
      </trkpt>
      <trkpt lat="40.511200" lon="-5.125800">
        <ele>2413.0</ele>
        <time>2016-06-11T13:38:08Z</time>
      </trkpt>
      <trkpt lat="40.511267" lon="-5.125617">
        <ele>2411.0</ele>
        <time>2016-06-11T13:38:09Z</time>
      </trkpt>
      <trkpt lat="40.511300" lon="-5.125417">
        <ele>2410.0</ele>
        <time>2016-06-11T13:38:10Z</time>
      </trkpt>
      <trkpt lat="40.511350" lon="-5.125217">
        <ele>2408.0</ele>
        <time>2016-06-11T13:38:11Z</time>
      </trkpt>
      <trkpt lat="40.511383" lon="-5.125000">
        <ele>2405.0</ele>
        <time>2016-06-11T13:38:12Z</time>
      </trkpt>
      <trkpt lat="40.511400" lon="-5.124767">
        <ele>2403.0</ele>
        <time>2016-06-11T13:38:13Z</time>
      </trkpt>
      <trkpt lat="40.511433" lon="-5.124567">
        <ele>2403.0</ele>
        <time>2016-06-11T13:38:14Z</time>
      </trkpt>
      <trkpt lat="40.511467" lon="-5.124400">
        <ele>2408.0</ele>
        <time>2016-06-11T13:38:15Z</time>
      </trkpt>
      <trkpt lat="40.511483" lon="-5.124267">
        <ele>2411.0</ele>
        <time>2016-06-11T13:38:16Z</time>
      </trkpt>
      <trkpt lat="40.511517" lon="-5.124133">
        <ele>2415.0</ele>
        <time>2016-06-11T13:38:17Z</time>
      </trkpt>
      <trkpt lat="40.511550" lon="-5.123967">
        <ele>2416.0</ele>
        <time>2016-06-11T13:38:18Z</time>
      </trkpt>
      <trkpt lat="40.511600" lon="-5.123783">
        <ele>2415.0</ele>
        <time>2016-06-11T13:38:19Z</time>
      </trkpt>
      <trkpt lat="40.511650" lon="-5.123583">
        <ele>2412.0</ele>
        <time>2016-06-11T13:38:20Z</time>
      </trkpt>
      <trkpt lat="40.511700" lon="-5.123383">
        <ele>2409.0</ele>
        <time>2016-06-11T13:38:21Z</time>
      </trkpt>
      <trkpt lat="40.511750" lon="-5.123200">
        <ele>2408.0</ele>
        <time>2016-06-11T13:38:22Z</time>
      </trkpt>
      <trkpt lat="40.511767" lon="-5.123017">
        <ele>2408.0</ele>
        <time>2016-06-11T13:38:23Z</time>
      </trkpt>
      <trkpt lat="40.511783" lon="-5.122850">
        <ele>2409.0</ele>
        <time>2016-06-11T13:38:24Z</time>
      </trkpt>
      <trkpt lat="40.511800" lon="-5.122667">
        <ele>2409.0</ele>
        <time>2016-06-11T13:38:25Z</time>
      </trkpt>
      <trkpt lat="40.511833" lon="-5.122483">
        <ele>2408.0</ele>
        <time>2016-06-11T13:38:26Z</time>
      </trkpt>
      <trkpt lat="40.511850" lon="-5.122283">
        <ele>2407.0</ele>
        <time>2016-06-11T13:38:27Z</time>
      </trkpt>
      <trkpt lat="40.511867" lon="-5.122083">
        <ele>2407.0</ele>
        <time>2016-06-11T13:38:28Z</time>
      </trkpt>
      <trkpt lat="40.511867" lon="-5.121900">
        <ele>2408.0</ele>
        <time>2016-06-11T13:38:29Z</time>
      </trkpt>
      <trkpt lat="40.511867" lon="-5.121750">
        <ele>2411.0</ele>
        <time>2016-06-11T13:38:30Z</time>
      </trkpt>
      <trkpt lat="40.511883" lon="-5.121583">
        <ele>2412.0</ele>
        <time>2016-06-11T13:38:31Z</time>
      </trkpt>
      <trkpt lat="40.511900" lon="-5.121417">
        <ele>2412.0</ele>
        <time>2016-06-11T13:38:32Z</time>
      </trkpt>
      <trkpt lat="40.511933" lon="-5.121217">
        <ele>2410.0</ele>
        <time>2016-06-11T13:38:33Z</time>
      </trkpt>
      <trkpt lat="40.511950" lon="-5.121017">
        <ele>2408.0</ele>
        <time>2016-06-11T13:38:34Z</time>
      </trkpt>
      <trkpt lat="40.511967" lon="-5.120817">
        <ele>2407.0</ele>
        <time>2016-06-11T13:38:35Z</time>
      </trkpt>
      <trkpt lat="40.511967" lon="-5.120617">
        <ele>2408.0</ele>
        <time>2016-06-11T13:38:36Z</time>
      </trkpt>
      <trkpt lat="40.511967" lon="-5.120417">
        <ele>2410.0</ele>
        <time>2016-06-11T13:38:37Z</time>
      </trkpt>
      <trkpt lat="40.511967" lon="-5.120250">
        <ele>2415.0</ele>
        <time>2016-06-11T13:38:38Z</time>
      </trkpt>
      <trkpt lat="40.511967" lon="-5.120083">
        <ele>2419.0</ele>
        <time>2016-06-11T13:38:39Z</time>
      </trkpt>
      <trkpt lat="40.511933" lon="-5.119933">
        <ele>2422.0</ele>
        <time>2016-06-11T13:38:40Z</time>
      </trkpt>
      <trkpt lat="40.511900" lon="-5.119783">
        <ele>2424.0</ele>
        <time>2016-06-11T13:38:41Z</time>
      </trkpt>
      <trkpt lat="40.511833" lon="-5.119650">
        <ele>2425.0</ele>
        <time>2016-06-11T13:38:42Z</time>
      </trkpt>
      <trkpt lat="40.511767" lon="-5.119533">
        <ele>2427.0</ele>
        <time>2016-06-11T13:38:43Z</time>
      </trkpt>
      <trkpt lat="40.511683" lon="-5.119433">
        <ele>2430.0</ele>
        <time>2016-06-11T13:38:44Z</time>
      </trkpt>
      <trkpt lat="40.511617" lon="-5.119350">
        <ele>2433.0</ele>
        <time>2016-06-11T13:38:45Z</time>
      </trkpt>
      <trkpt lat="40.511550" lon="-5.119300">
        <ele>2436.0</ele>
        <time>2016-06-11T13:38:46Z</time>
      </trkpt>
      <trkpt lat="40.511483" lon="-5.119267">
        <ele>2439.0</ele>
        <time>2016-06-11T13:38:47Z</time>
      </trkpt>
      <trkpt lat="40.511433" lon="-5.119250">
        <ele>2440.0</ele>
        <time>2016-06-11T13:38:48Z</time>
      </trkpt>
      <trkpt lat="40.511383" lon="-5.119250">
        <ele>2442.0</ele>
        <time>2016-06-11T13:38:49Z</time>
      </trkpt>
      <trkpt lat="40.511333" lon="-5.119267">
        <ele>2441.0</ele>
        <time>2016-06-11T13:38:50Z</time>
      </trkpt>
      <trkpt lat="40.511300" lon="-5.119300">
        <ele>2441.0</ele>
        <time>2016-06-11T13:38:51Z</time>
      </trkpt>
      <trkpt lat="40.511283" lon="-5.119350">
        <ele>2442.0</ele>
        <time>2016-06-11T13:38:52Z</time>
      </trkpt>
      <trkpt lat="40.511300" lon="-5.119383">
        <ele>2442.0</ele>
        <time>2016-06-11T13:38:53Z</time>
      </trkpt>
      <trkpt lat="40.511317" lon="-5.119417">
        <ele>2444.0</ele>
        <time>2016-06-11T13:38:54Z</time>
      </trkpt>
      <trkpt lat="40.511350" lon="-5.119433">
        <ele>2446.0</ele>
        <time>2016-06-11T13:38:55Z</time>
      </trkpt>
      <trkpt lat="40.511383" lon="-5.119450">
        <ele>2448.0</ele>
        <time>2016-06-11T13:38:56Z</time>
      </trkpt>
      <trkpt lat="40.511433" lon="-5.119433">
        <ele>2449.0</ele>
        <time>2016-06-11T13:38:57Z</time>
      </trkpt>
      <trkpt lat="40.511483" lon="-5.119400">
        <ele>2450.0</ele>
        <time>2016-06-11T13:38:58Z</time>
      </trkpt>
      <trkpt lat="40.511550" lon="-5.119367">
        <ele>2450.0</ele>
        <time>2016-06-11T13:38:59Z</time>
      </trkpt>
      <trkpt lat="40.511633" lon="-5.119317">
        <ele>2449.0</ele>
        <time>2016-06-11T13:39:00Z</time>
      </trkpt>
      <trkpt lat="40.511717" lon="-5.119250">
        <ele>2449.0</ele>
        <time>2016-06-11T13:39:01Z</time>
      </trkpt>
      <trkpt lat="40.511800" lon="-5.119183">
        <ele>2448.0</ele>
        <time>2016-06-11T13:39:02Z</time>
      </trkpt>
      <trkpt lat="40.511883" lon="-5.119100">
        <ele>2448.0</ele>
        <time>2016-06-11T13:39:03Z</time>
      </trkpt>
      <trkpt lat="40.511950" lon="-5.119000">
        <ele>2448.0</ele>
        <time>2016-06-11T13:39:04Z</time>
      </trkpt>
      <trkpt lat="40.512017" lon="-5.118883">
        <ele>2447.0</ele>
        <time>2016-06-11T13:39:05Z</time>
      </trkpt>
      <trkpt lat="40.512083" lon="-5.118733">
        <ele>2446.0</ele>
        <time>2016-06-11T13:39:06Z</time>
      </trkpt>
      <trkpt lat="40.512150" lon="-5.118567">
        <ele>2445.0</ele>
        <time>2016-06-11T13:39:07Z</time>
      </trkpt>
      <trkpt lat="40.512200" lon="-5.118367">
        <ele>2445.0</ele>
        <time>2016-06-11T13:39:08Z</time>
      </trkpt>
      <trkpt lat="40.512233" lon="-5.118200">
        <ele>2446.0</ele>
        <time>2016-06-11T13:39:09Z</time>
      </trkpt>
      <trkpt lat="40.512267" lon="-5.118017">
        <ele>2449.0</ele>
        <time>2016-06-11T13:39:10Z</time>
      </trkpt>
      <trkpt lat="40.512300" lon="-5.117867">
        <ele>2451.0</ele>
        <time>2016-06-11T13:39:11Z</time>
      </trkpt>
      <trkpt lat="40.512333" lon="-5.117717">
        <ele>2454.0</ele>
        <time>2016-06-11T13:39:12Z</time>
      </trkpt>
      <trkpt lat="40.512367" lon="-5.117550">
        <ele>2456.0</ele>
        <time>2016-06-11T13:39:13Z</time>
      </trkpt>
      <trkpt lat="40.512400" lon="-5.117400">
        <ele>2456.0</ele>
        <time>2016-06-11T13:39:14Z</time>
      </trkpt>
      <trkpt lat="40.512417" lon="-5.117233">
        <ele>2456.0</ele>
        <time>2016-06-11T13:39:15Z</time>
      </trkpt>
      <trkpt lat="40.512400" lon="-5.117067">
        <ele>2457.0</ele>
        <time>2016-06-11T13:39:16Z</time>
      </trkpt>
      <trkpt lat="40.512367" lon="-5.116933">
        <ele>2456.0</ele>
        <time>2016-06-11T13:39:17Z</time>
      </trkpt>
      <trkpt lat="40.512300" lon="-5.116783">
        <ele>2454.0</ele>
        <time>2016-06-11T13:39:18Z</time>
      </trkpt>
      <trkpt lat="40.512250" lon="-5.116633">
        <ele>2452.0</ele>
        <time>2016-06-11T13:39:19Z</time>
      </trkpt>
      <trkpt lat="40.512217" lon="-5.116450">
        <ele>2451.0</ele>
        <time>2016-06-11T13:39:20Z</time>
      </trkpt>
      <trkpt lat="40.512200" lon="-5.116267">
        <ele>2451.0</ele>
        <time>2016-06-11T13:39:21Z</time>
      </trkpt>
      <trkpt lat="40.512200" lon="-5.116100">
        <ele>2450.0</ele>
        <time>2016-06-11T13:39:22Z</time>
      </trkpt>
      <trkpt lat="40.512167" lon="-5.115933">
        <ele>2450.0</ele>
        <time>2016-06-11T13:39:23Z</time>
      </trkpt>
      <trkpt lat="40.512150" lon="-5.115767">
        <ele>2449.0</ele>
        <time>2016-06-11T13:39:24Z</time>
      </trkpt>
      <trkpt lat="40.512117" lon="-5.115583">
        <ele>2448.0</ele>
        <time>2016-06-11T13:39:25Z</time>
      </trkpt>
      <trkpt lat="40.512083" lon="-5.115383">
        <ele>2448.0</ele>
        <time>2016-06-11T13:39:26Z</time>
      </trkpt>
      <trkpt lat="40.512067" lon="-5.115200">
        <ele>2449.0</ele>
        <time>2016-06-11T13:39:27Z</time>
      </trkpt>
      <trkpt lat="40.512033" lon="-5.115050">
        <ele>2450.0</ele>
        <time>2016-06-11T13:39:28Z</time>
      </trkpt>
      <trkpt lat="40.512000" lon="-5.114900">
        <ele>2452.0</ele>
        <time>2016-06-11T13:39:29Z</time>
      </trkpt>
      <trkpt lat="40.511967" lon="-5.114767">
        <ele>2454.0</ele>
        <time>2016-06-11T13:39:30Z</time>
      </trkpt>
      <trkpt lat="40.511933" lon="-5.114600">
        <ele>2454.0</ele>
        <time>2016-06-11T13:39:31Z</time>
      </trkpt>
      <trkpt lat="40.511900" lon="-5.114433">
        <ele>2454.0</ele>
        <time>2016-06-11T13:39:32Z</time>
      </trkpt>
      <trkpt lat="40.511867" lon="-5.114267">
        <ele>2452.0</ele>
        <time>2016-06-11T13:39:33Z</time>
      </trkpt>
      <trkpt lat="40.511833" lon="-5.114100">
        <ele>2453.0</ele>
        <time>2016-06-11T13:39:34Z</time>
      </trkpt>
      <trkpt lat="40.511800" lon="-5.113950">
        <ele>2454.0</ele>
        <time>2016-06-11T13:39:35Z</time>
      </trkpt>
      <trkpt lat="40.511783" lon="-5.113800">
        <ele>2456.0</ele>
        <time>2016-06-11T13:39:36Z</time>
      </trkpt>
      <trkpt lat="40.511750" lon="-5.113667">
        <ele>2457.0</ele>
        <time>2016-06-11T13:39:37Z</time>
      </trkpt>
      <trkpt lat="40.511717" lon="-5.113517">
        <ele>2458.0</ele>
        <time>2016-06-11T13:39:38Z</time>
      </trkpt>
      <trkpt lat="40.511650" lon="-5.113367">
        <ele>2459.0</ele>
        <time>2016-06-11T13:39:39Z</time>
      </trkpt>
      <trkpt lat="40.511583" lon="-5.113250">
        <ele>2461.0</ele>
        <time>2016-06-11T13:39:40Z</time>
      </trkpt>
      <trkpt lat="40.511517" lon="-5.113150">
        <ele>2463.0</ele>
        <time>2016-06-11T13:39:41Z</time>
      </trkpt>
      <trkpt lat="40.511450" lon="-5.113033">
        <ele>2465.0</ele>
        <time>2016-06-11T13:39:42Z</time>
      </trkpt>
      <trkpt lat="40.511383" lon="-5.112933">
        <ele>2465.0</ele>
        <time>2016-06-11T13:39:43Z</time>
      </trkpt>
      <trkpt lat="40.511317" lon="-5.112800">
        <ele>2466.0</ele>
        <time>2016-06-11T13:39:44Z</time>
      </trkpt>
      <trkpt lat="40.511233" lon="-5.112683">
        <ele>2466.0</ele>
        <time>2016-06-11T13:39:45Z</time>
      </trkpt>
      <trkpt lat="40.511133" lon="-5.112583">
        <ele>2467.0</ele>
        <time>2016-06-11T13:39:46Z</time>
      </trkpt>
      <trkpt lat="40.511050" lon="-5.112483">
        <ele>2468.0</ele>
        <time>2016-06-11T13:39:47Z</time>
      </trkpt>
      <trkpt lat="40.510967" lon="-5.112417">
        <ele>2470.0</ele>
        <time>2016-06-11T13:39:48Z</time>
      </trkpt>
      <trkpt lat="40.510900" lon="-5.112333">
        <ele>2472.0</ele>
        <time>2016-06-11T13:39:49Z</time>
      </trkpt>
      <trkpt lat="40.510833" lon="-5.112233">
        <ele>2473.0</ele>
        <time>2016-06-11T13:39:50Z</time>
      </trkpt>
      <trkpt lat="40.510750" lon="-5.112150">
        <ele>2474.0</ele>
        <time>2016-06-11T13:39:51Z</time>
      </trkpt>
      <trkpt lat="40.510667" lon="-5.112100">
        <ele>2474.0</ele>
        <time>2016-06-11T13:39:52Z</time>
      </trkpt>
      <trkpt lat="40.510583" lon="-5.112067">
        <ele>2475.0</ele>
        <time>2016-06-11T13:39:53Z</time>
      </trkpt>
      <trkpt lat="40.510533" lon="-5.112083">
        <ele>2475.0</ele>
        <time>2016-06-11T13:39:54Z</time>
      </trkpt>
      <trkpt lat="40.510483" lon="-5.112100">
        <ele>2476.0</ele>
        <time>2016-06-11T13:39:55Z</time>
      </trkpt>
      <trkpt lat="40.510450" lon="-5.112150">
        <ele>2477.0</ele>
        <time>2016-06-11T13:39:56Z</time>
      </trkpt>
      <trkpt lat="40.510433" lon="-5.112183">
        <ele>2478.0</ele>
        <time>2016-06-11T13:39:57Z</time>
      </trkpt>
      <trkpt lat="40.510417" lon="-5.112217">
        <ele>2480.0</ele>
        <time>2016-06-11T13:39:58Z</time>
      </trkpt>
      <trkpt lat="40.510417" lon="-5.112233">
        <ele>2483.0</ele>
        <time>2016-06-11T13:39:59Z</time>
      </trkpt>
      <trkpt lat="40.510417" lon="-5.112233">
        <ele>2485.0</ele>
        <time>2016-06-11T13:40:00Z</time>
      </trkpt>
      <trkpt lat="40.510450" lon="-5.112250">
        <ele>2485.0</ele>
        <time>2016-06-11T13:40:01Z</time>
      </trkpt>
      <trkpt lat="40.510500" lon="-5.112250">
        <ele>2484.0</ele>
        <time>2016-06-11T13:40:02Z</time>
      </trkpt>
      <trkpt lat="40.510583" lon="-5.112217">
        <ele>2483.0</ele>
        <time>2016-06-11T13:40:03Z</time>
      </trkpt>
      <trkpt lat="40.510667" lon="-5.112167">
        <ele>2484.0</ele>
        <time>2016-06-11T13:40:04Z</time>
      </trkpt>
      <trkpt lat="40.510733" lon="-5.112083">
        <ele>2485.0</ele>
        <time>2016-06-11T13:40:05Z</time>
      </trkpt>
      <trkpt lat="40.510800" lon="-5.112000">
        <ele>2488.0</ele>
        <time>2016-06-11T13:40:06Z</time>
      </trkpt>
      <trkpt lat="40.510850" lon="-5.111933">
        <ele>2489.0</ele>
        <time>2016-06-11T13:40:07Z</time>
      </trkpt>
      <trkpt lat="40.510900" lon="-5.111833">
        <ele>2490.0</ele>
        <time>2016-06-11T13:40:08Z</time>
      </trkpt>
      <trkpt lat="40.510967" lon="-5.111717">
        <ele>2489.0</ele>
        <time>2016-06-11T13:40:09Z</time>
      </trkpt>
      <trkpt lat="40.511017" lon="-5.111567">
        <ele>2487.0</ele>
        <time>2016-06-11T13:40:10Z</time>
      </trkpt>
      <trkpt lat="40.511067" lon="-5.111367">
        <ele>2486.0</ele>
        <time>2016-06-11T13:40:11Z</time>
      </trkpt>
      <trkpt lat="40.511067" lon="-5.111183">
        <ele>2486.0</ele>
        <time>2016-06-11T13:40:12Z</time>
      </trkpt>
      <trkpt lat="40.511050" lon="-5.111000">
        <ele>2487.0</ele>
        <time>2016-06-11T13:40:13Z</time>
      </trkpt>
      <trkpt lat="40.511017" lon="-5.110833">
        <ele>2488.0</ele>
        <time>2016-06-11T13:40:14Z</time>
      </trkpt>
      <trkpt lat="40.511000" lon="-5.110683">
        <ele>2491.0</ele>
        <time>2016-06-11T13:40:15Z</time>
      </trkpt>
      <trkpt lat="40.510967" lon="-5.110533">
        <ele>2493.0</ele>
        <time>2016-06-11T13:40:16Z</time>
      </trkpt>
      <trkpt lat="40.510917" lon="-5.110383">
        <ele>2495.0</ele>
        <time>2016-06-11T13:40:17Z</time>
      </trkpt>
      <trkpt lat="40.510883" lon="-5.110233">
        <ele>2498.0</ele>
        <time>2016-06-11T13:40:18Z</time>
      </trkpt>
      <trkpt lat="40.510833" lon="-5.110100">
        <ele>2500.0</ele>
        <time>2016-06-11T13:40:19Z</time>
      </trkpt>
      <trkpt lat="40.510783" lon="-5.109967">
        <ele>2504.0</ele>
        <time>2016-06-11T13:40:20Z</time>
      </trkpt>
      <trkpt lat="40.510733" lon="-5.109850">
        <ele>2507.0</ele>
        <time>2016-06-11T13:40:21Z</time>
      </trkpt>
      <trkpt lat="40.510667" lon="-5.109750">
        <ele>2510.0</ele>
        <time>2016-06-11T13:40:22Z</time>
      </trkpt>
      <trkpt lat="40.510583" lon="-5.109683">
        <ele>2511.0</ele>
        <time>2016-06-11T13:40:23Z</time>
      </trkpt>
      <trkpt lat="40.510500" lon="-5.109617">
        <ele>2513.0</ele>
        <time>2016-06-11T13:40:24Z</time>
      </trkpt>
      <trkpt lat="40.510417" lon="-5.109583">
        <ele>2515.0</ele>
        <time>2016-06-11T13:40:25Z</time>
      </trkpt>
      <trkpt lat="40.510350" lon="-5.109567">
        <ele>2518.0</ele>
        <time>2016-06-11T13:40:26Z</time>
      </trkpt>
      <trkpt lat="40.510283" lon="-5.109550">
        <ele>2521.0</ele>
        <time>2016-06-11T13:40:27Z</time>
      </trkpt>
      <trkpt lat="40.510217" lon="-5.109550">
        <ele>2524.0</ele>
        <time>2016-06-11T13:40:28Z</time>
      </trkpt>
      <trkpt lat="40.510150" lon="-5.109550">
        <ele>2528.0</ele>
        <time>2016-06-11T13:40:29Z</time>
      </trkpt>
      <trkpt lat="40.510100" lon="-5.109533">
        <ele>2531.0</ele>
        <time>2016-06-11T13:40:30Z</time>
      </trkpt>
      <trkpt lat="40.510050" lon="-5.109533">
        <ele>2534.0</ele>
        <time>2016-06-11T13:40:31Z</time>
      </trkpt>
      <trkpt lat="40.510033" lon="-5.109550">
        <ele>2536.0</ele>
        <time>2016-06-11T13:40:32Z</time>
      </trkpt>
      <trkpt lat="40.510050" lon="-5.109583">
        <ele>2536.0</ele>
        <time>2016-06-11T13:40:33Z</time>
      </trkpt>
      <trkpt lat="40.510083" lon="-5.109617">
        <ele>2535.0</ele>
        <time>2016-06-11T13:40:34Z</time>
      </trkpt>
      <trkpt lat="40.510133" lon="-5.109667">
        <ele>2534.0</ele>
        <time>2016-06-11T13:40:35Z</time>
      </trkpt>
      <trkpt lat="40.510183" lon="-5.109667">
        <ele>2534.0</ele>
        <time>2016-06-11T13:40:36Z</time>
      </trkpt>
      <trkpt lat="40.510233" lon="-5.109617">
        <ele>2536.0</ele>
        <time>2016-06-11T13:40:37Z</time>
      </trkpt>
      <trkpt lat="40.510283" lon="-5.109517">
        <ele>2536.0</ele>
        <time>2016-06-11T13:40:38Z</time>
      </trkpt>
      <trkpt lat="40.510350" lon="-5.109400">
        <ele>2535.0</ele>
        <time>2016-06-11T13:40:39Z</time>
      </trkpt>
      <trkpt lat="40.510400" lon="-5.109267">
        <ele>2533.0</ele>
        <time>2016-06-11T13:40:40Z</time>
      </trkpt>
      <trkpt lat="40.510467" lon="-5.109133">
        <ele>2533.0</ele>
        <time>2016-06-11T13:40:41Z</time>
      </trkpt>
      <trkpt lat="40.510533" lon="-5.108983">
        <ele>2533.0</ele>
        <time>2016-06-11T13:40:42Z</time>
      </trkpt>
      <trkpt lat="40.510583" lon="-5.108850">
        <ele>2535.0</ele>
        <time>2016-06-11T13:40:43Z</time>
      </trkpt>
      <trkpt lat="40.510633" lon="-5.108717">
        <ele>2538.0</ele>
        <time>2016-06-11T13:40:44Z</time>
      </trkpt>
      <trkpt lat="40.510667" lon="-5.108583">
        <ele>2541.0</ele>
        <time>2016-06-11T13:40:45Z</time>
      </trkpt>
      <trkpt lat="40.510700" lon="-5.108467">
        <ele>2544.0</ele>
        <time>2016-06-11T13:40:46Z</time>
      </trkpt>
      <trkpt lat="40.510733" lon="-5.108350">
        <ele>2546.0</ele>
        <time>2016-06-11T13:40:47Z</time>
      </trkpt>
      <trkpt lat="40.510767" lon="-5.108217">
        <ele>2547.0</ele>
        <time>2016-06-11T13:40:48Z</time>
      </trkpt>
      <trkpt lat="40.510783" lon="-5.108067">
        <ele>2548.0</ele>
        <time>2016-06-11T13:40:49Z</time>
      </trkpt>
      <trkpt lat="40.510800" lon="-5.107900">
        <ele>2548.0</ele>
        <time>2016-06-11T13:40:50Z</time>
      </trkpt>
      <trkpt lat="40.510800" lon="-5.107750">
        <ele>2548.0</ele>
        <time>2016-06-11T13:40:51Z</time>
      </trkpt>
      <trkpt lat="40.510783" lon="-5.107600">
        <ele>2549.0</ele>
        <time>2016-06-11T13:40:52Z</time>
      </trkpt>
      <trkpt lat="40.510750" lon="-5.107467">
        <ele>2550.0</ele>
        <time>2016-06-11T13:40:53Z</time>
      </trkpt>
      <trkpt lat="40.510700" lon="-5.107350">
        <ele>2550.0</ele>
        <time>2016-06-11T13:40:54Z</time>
      </trkpt>
      <trkpt lat="40.510633" lon="-5.107233">
        <ele>2549.0</ele>
        <time>2016-06-11T13:40:55Z</time>
      </trkpt>
      <trkpt lat="40.510567" lon="-5.107117">
        <ele>2549.0</ele>
        <time>2016-06-11T13:40:56Z</time>
      </trkpt>
      <trkpt lat="40.510483" lon="-5.107000">
        <ele>2549.0</ele>
        <time>2016-06-11T13:40:57Z</time>
      </trkpt>
      <trkpt lat="40.510400" lon="-5.106883">
        <ele>2549.0</ele>
        <time>2016-06-11T13:40:58Z</time>
      </trkpt>
      <trkpt lat="40.510317" lon="-5.106767">
        <ele>2550.0</ele>
        <time>2016-06-11T13:40:59Z</time>
      </trkpt>
      <trkpt lat="40.510233" lon="-5.106667">
        <ele>2551.0</ele>
        <time>2016-06-11T13:41:00Z</time>
      </trkpt>
      <trkpt lat="40.510150" lon="-5.106550">
        <ele>2551.0</ele>
        <time>2016-06-11T13:41:01Z</time>
      </trkpt>
      <trkpt lat="40.510083" lon="-5.106450">
        <ele>2552.0</ele>
        <time>2016-06-11T13:41:02Z</time>
      </trkpt>
      <trkpt lat="40.509983" lon="-5.106367">
        <ele>2552.0</ele>
        <time>2016-06-11T13:41:03Z</time>
      </trkpt>
      <trkpt lat="40.509883" lon="-5.106283">
        <ele>2552.0</ele>
        <time>2016-06-11T13:41:04Z</time>
      </trkpt>
      <trkpt lat="40.509783" lon="-5.106217">
        <ele>2553.0</ele>
        <time>2016-06-11T13:41:05Z</time>
      </trkpt>
      <trkpt lat="40.509683" lon="-5.106150">
        <ele>2556.0</ele>
        <time>2016-06-11T13:41:06Z</time>
      </trkpt>
      <trkpt lat="40.509600" lon="-5.106083">
        <ele>2559.0</ele>
        <time>2016-06-11T13:41:07Z</time>
      </trkpt>
      <trkpt lat="40.509533" lon="-5.106017">
        <ele>2561.0</ele>
        <time>2016-06-11T13:41:08Z</time>
      </trkpt>
      <trkpt lat="40.509467" lon="-5.105983">
        <ele>2563.0</ele>
        <time>2016-06-11T13:41:09Z</time>
      </trkpt>
      <trkpt lat="40.509400" lon="-5.105967">
        <ele>2563.0</ele>
        <time>2016-06-11T13:41:10Z</time>
      </trkpt>
      <trkpt lat="40.509333" lon="-5.105983">
        <ele>2562.0</ele>
        <time>2016-06-11T13:41:11Z</time>
      </trkpt>
      <trkpt lat="40.509300" lon="-5.106017">
        <ele>2561.0</ele>
        <time>2016-06-11T13:41:12Z</time>
      </trkpt>
      <trkpt lat="40.509283" lon="-5.106067">
        <ele>2559.0</ele>
        <time>2016-06-11T13:41:13Z</time>
      </trkpt>
      <trkpt lat="40.509267" lon="-5.106117">
        <ele>2558.0</ele>
        <time>2016-06-11T13:41:14Z</time>
      </trkpt>
      <trkpt lat="40.509267" lon="-5.106150">
        <ele>2558.0</ele>
        <time>2016-06-11T13:41:15Z</time>
      </trkpt>
      <trkpt lat="40.509283" lon="-5.106200">
        <ele>2558.0</ele>
        <time>2016-06-11T13:41:16Z</time>
      </trkpt>
      <trkpt lat="40.509317" lon="-5.106217">
        <ele>2558.0</ele>
        <time>2016-06-11T13:41:17Z</time>
      </trkpt>
      <trkpt lat="40.509383" lon="-5.106217">
        <ele>2557.0</ele>
        <time>2016-06-11T13:41:18Z</time>
      </trkpt>
      <trkpt lat="40.509450" lon="-5.106183">
        <ele>2556.0</ele>
        <time>2016-06-11T13:41:19Z</time>
      </trkpt>
      <trkpt lat="40.509517" lon="-5.106133">
        <ele>2556.0</ele>
        <time>2016-06-11T13:41:20Z</time>
      </trkpt>
      <trkpt lat="40.509600" lon="-5.106067">
        <ele>2556.0</ele>
        <time>2016-06-11T13:41:21Z</time>
      </trkpt>
      <trkpt lat="40.509650" lon="-5.106000">
        <ele>2557.0</ele>
        <time>2016-06-11T13:41:22Z</time>
      </trkpt>
      <trkpt lat="40.509717" lon="-5.105917">
        <ele>2557.0</ele>
        <time>2016-06-11T13:41:23Z</time>
      </trkpt>
      <trkpt lat="40.509800" lon="-5.105833">
        <ele>2555.0</ele>
        <time>2016-06-11T13:41:24Z</time>
      </trkpt>
      <trkpt lat="40.509883" lon="-5.105733">
        <ele>2554.0</ele>
        <time>2016-06-11T13:41:25Z</time>
      </trkpt>
      <trkpt lat="40.509967" lon="-5.105617">
        <ele>2553.0</ele>
        <time>2016-06-11T13:41:26Z</time>
      </trkpt>
      <trkpt lat="40.510033" lon="-5.105517">
        <ele>2553.0</ele>
        <time>2016-06-11T13:41:27Z</time>
      </trkpt>
      <trkpt lat="40.510100" lon="-5.105400">
        <ele>2552.0</ele>
        <time>2016-06-11T13:41:28Z</time>
      </trkpt>
      <trkpt lat="40.510183" lon="-5.105300">
        <ele>2551.0</ele>
        <time>2016-06-11T13:41:29Z</time>
      </trkpt>
      <trkpt lat="40.510250" lon="-5.105183">
        <ele>2550.0</ele>
        <time>2016-06-11T13:41:30Z</time>
      </trkpt>
      <trkpt lat="40.510317" lon="-5.105083">
        <ele>2549.0</ele>
        <time>2016-06-11T13:41:31Z</time>
      </trkpt>
      <trkpt lat="40.510383" lon="-5.104967">
        <ele>2548.0</ele>
        <time>2016-06-11T13:41:32Z</time>
      </trkpt>
      <trkpt lat="40.510433" lon="-5.104850">
        <ele>2548.0</ele>
        <time>2016-06-11T13:41:33Z</time>
      </trkpt>
      <trkpt lat="40.510483" lon="-5.104717">
        <ele>2548.0</ele>
        <time>2016-06-11T13:41:34Z</time>
      </trkpt>
      <trkpt lat="40.510533" lon="-5.104583">
        <ele>2549.0</ele>
        <time>2016-06-11T13:41:35Z</time>
      </trkpt>
      <trkpt lat="40.510567" lon="-5.104433">
        <ele>2550.0</ele>
        <time>2016-06-11T13:41:36Z</time>
      </trkpt>
      <trkpt lat="40.510617" lon="-5.104283">
        <ele>2552.0</ele>
        <time>2016-06-11T13:41:37Z</time>
      </trkpt>
      <trkpt lat="40.510650" lon="-5.104117">
        <ele>2553.0</ele>
        <time>2016-06-11T13:41:38Z</time>
      </trkpt>
      <trkpt lat="40.510667" lon="-5.103983">
        <ele>2556.0</ele>
        <time>2016-06-11T13:41:39Z</time>
      </trkpt>
      <trkpt lat="40.510683" lon="-5.103867">
        <ele>2560.0</ele>
        <time>2016-06-11T13:41:40Z</time>
      </trkpt>
      <trkpt lat="40.510683" lon="-5.103767">
        <ele>2563.0</ele>
        <time>2016-06-11T13:41:41Z</time>
      </trkpt>
      <trkpt lat="40.510683" lon="-5.103650">
        <ele>2565.0</ele>
        <time>2016-06-11T13:41:42Z</time>
      </trkpt>
      <trkpt lat="40.510700" lon="-5.103533">
        <ele>2564.0</ele>
        <time>2016-06-11T13:41:43Z</time>
      </trkpt>
      <trkpt lat="40.510700" lon="-5.103400">
        <ele>2563.0</ele>
        <time>2016-06-11T13:41:44Z</time>
      </trkpt>
      <trkpt lat="40.510683" lon="-5.103250">
        <ele>2561.0</ele>
        <time>2016-06-11T13:41:45Z</time>
      </trkpt>
      <trkpt lat="40.510650" lon="-5.103100">
        <ele>2561.0</ele>
        <time>2016-06-11T13:41:46Z</time>
      </trkpt>
      <trkpt lat="40.510617" lon="-5.102950">
        <ele>2560.0</ele>
        <time>2016-06-11T13:41:47Z</time>
      </trkpt>
      <trkpt lat="40.510583" lon="-5.102800">
        <ele>2560.0</ele>
        <time>2016-06-11T13:41:48Z</time>
      </trkpt>
      <trkpt lat="40.510550" lon="-5.102650">
        <ele>2559.0</ele>
        <time>2016-06-11T13:41:49Z</time>
      </trkpt>
      <trkpt lat="40.510500" lon="-5.102500">
        <ele>2557.0</ele>
        <time>2016-06-11T13:41:50Z</time>
      </trkpt>
      <trkpt lat="40.510467" lon="-5.102333">
        <ele>2554.0</ele>
        <time>2016-06-11T13:41:51Z</time>
      </trkpt>
      <trkpt lat="40.510450" lon="-5.102167">
        <ele>2551.0</ele>
        <time>2016-06-11T13:41:52Z</time>
      </trkpt>
      <trkpt lat="40.510450" lon="-5.101983">
        <ele>2549.0</ele>
        <time>2016-06-11T13:41:53Z</time>
      </trkpt>
      <trkpt lat="40.510433" lon="-5.101817">
        <ele>2547.0</ele>
        <time>2016-06-11T13:41:54Z</time>
      </trkpt>
      <trkpt lat="40.510433" lon="-5.101650">
        <ele>2545.0</ele>
        <time>2016-06-11T13:41:55Z</time>
      </trkpt>
      <trkpt lat="40.510450" lon="-5.101483">
        <ele>2543.0</ele>
        <time>2016-06-11T13:41:56Z</time>
      </trkpt>
      <trkpt lat="40.510450" lon="-5.101317">
        <ele>2540.0</ele>
        <time>2016-06-11T13:41:57Z</time>
      </trkpt>
      <trkpt lat="40.510467" lon="-5.101133">
        <ele>2537.0</ele>
        <time>2016-06-11T13:41:58Z</time>
      </trkpt>
      <trkpt lat="40.510500" lon="-5.100950">
        <ele>2534.0</ele>
        <time>2016-06-11T13:41:59Z</time>
      </trkpt>
      <trkpt lat="40.510533" lon="-5.100767">
        <ele>2532.0</ele>
        <time>2016-06-11T13:42:00Z</time>
      </trkpt>
      <trkpt lat="40.510583" lon="-5.100600">
        <ele>2531.0</ele>
        <time>2016-06-11T13:42:01Z</time>
      </trkpt>
      <trkpt lat="40.510617" lon="-5.100433">
        <ele>2530.0</ele>
        <time>2016-06-11T13:42:02Z</time>
      </trkpt>
      <trkpt lat="40.510650" lon="-5.100267">
        <ele>2528.0</ele>
        <time>2016-06-11T13:42:03Z</time>
      </trkpt>
      <trkpt lat="40.510667" lon="-5.100083">
        <ele>2526.0</ele>
        <time>2016-06-11T13:42:04Z</time>
      </trkpt>
      <trkpt lat="40.510683" lon="-5.099900">
        <ele>2524.0</ele>
        <time>2016-06-11T13:42:05Z</time>
      </trkpt>
      <trkpt lat="40.510717" lon="-5.099717">
        <ele>2522.0</ele>
        <time>2016-06-11T13:42:06Z</time>
      </trkpt>
      <trkpt lat="40.510750" lon="-5.099533">
        <ele>2520.0</ele>
        <time>2016-06-11T13:42:07Z</time>
      </trkpt>
      <trkpt lat="40.510783" lon="-5.099333">
        <ele>2517.0</ele>
        <time>2016-06-11T13:42:08Z</time>
      </trkpt>
      <trkpt lat="40.510800" lon="-5.099117">
        <ele>2515.0</ele>
        <time>2016-06-11T13:42:09Z</time>
      </trkpt>
      <trkpt lat="40.510833" lon="-5.098883">
        <ele>2513.0</ele>
        <time>2016-06-11T13:42:10Z</time>
      </trkpt>
      <trkpt lat="40.510883" lon="-5.098683">
        <ele>2512.0</ele>
        <time>2016-06-11T13:42:11Z</time>
      </trkpt>
      <trkpt lat="40.510933" lon="-5.098517">
        <ele>2513.0</ele>
        <time>2016-06-11T13:42:12Z</time>
      </trkpt>
      <trkpt lat="40.510967" lon="-5.098350">
        <ele>2514.0</ele>
        <time>2016-06-11T13:42:13Z</time>
      </trkpt>
      <trkpt lat="40.511000" lon="-5.098200">
        <ele>2514.0</ele>
        <time>2016-06-11T13:42:14Z</time>
      </trkpt>
      <trkpt lat="40.511033" lon="-5.098017">
        <ele>2512.0</ele>
        <time>2016-06-11T13:42:15Z</time>
      </trkpt>
      <trkpt lat="40.511083" lon="-5.097817">
        <ele>2508.0</ele>
        <time>2016-06-11T13:42:16Z</time>
      </trkpt>
      <trkpt lat="40.511150" lon="-5.097583">
        <ele>2504.0</ele>
        <time>2016-06-11T13:42:17Z</time>
      </trkpt>
      <trkpt lat="40.511217" lon="-5.097367">
        <ele>2504.0</ele>
        <time>2016-06-11T13:42:18Z</time>
      </trkpt>
      <trkpt lat="40.511267" lon="-5.097200">
        <ele>2509.0</ele>
        <time>2016-06-11T13:42:19Z</time>
      </trkpt>
      <trkpt lat="40.511300" lon="-5.097067">
        <ele>2514.0</ele>
        <time>2016-06-11T13:42:20Z</time>
      </trkpt>
      <trkpt lat="40.511333" lon="-5.096950">
        <ele>2516.0</ele>
        <time>2016-06-11T13:42:21Z</time>
      </trkpt>
      <trkpt lat="40.511367" lon="-5.096800">
        <ele>2515.0</ele>
        <time>2016-06-11T13:42:22Z</time>
      </trkpt>
      <trkpt lat="40.511433" lon="-5.096633">
        <ele>2513.0</ele>
        <time>2016-06-11T13:42:23Z</time>
      </trkpt>
      <trkpt lat="40.511500" lon="-5.096450">
        <ele>2507.0</ele>
        <time>2016-06-11T13:42:24Z</time>
      </trkpt>
      <trkpt lat="40.511600" lon="-5.096300">
        <ele>2503.0</ele>
        <time>2016-06-11T13:42:25Z</time>
      </trkpt>
      <trkpt lat="40.511683" lon="-5.096150">
        <ele>2502.0</ele>
        <time>2016-06-11T13:42:26Z</time>
      </trkpt>
      <trkpt lat="40.511733" lon="-5.096000">
        <ele>2502.0</ele>
        <time>2016-06-11T13:42:27Z</time>
      </trkpt>
      <trkpt lat="40.511767" lon="-5.095867">
        <ele>2501.0</ele>
        <time>2016-06-11T13:42:28Z</time>
      </trkpt>
      <trkpt lat="40.511817" lon="-5.095717">
        <ele>2499.0</ele>
        <time>2016-06-11T13:42:29Z</time>
      </trkpt>
      <trkpt lat="40.511867" lon="-5.095533">
        <ele>2494.0</ele>
        <time>2016-06-11T13:42:30Z</time>
      </trkpt>
      <trkpt lat="40.511917" lon="-5.095350">
        <ele>2490.0</ele>
        <time>2016-06-11T13:42:31Z</time>
      </trkpt>
      <trkpt lat="40.511967" lon="-5.095167">
        <ele>2487.0</ele>
        <time>2016-06-11T13:42:32Z</time>
      </trkpt>
      <trkpt lat="40.511983" lon="-5.094983">
        <ele>2485.0</ele>
        <time>2016-06-11T13:42:33Z</time>
      </trkpt>
      <trkpt lat="40.511983" lon="-5.094800">
        <ele>2484.0</ele>
        <time>2016-06-11T13:42:34Z</time>
      </trkpt>
      <trkpt lat="40.511967" lon="-5.094617">
        <ele>2481.0</ele>
        <time>2016-06-11T13:42:35Z</time>
      </trkpt>
      <trkpt lat="40.511967" lon="-5.094417">
        <ele>2477.0</ele>
        <time>2016-06-11T13:42:36Z</time>
      </trkpt>
      <trkpt lat="40.511950" lon="-5.094233">
        <ele>2474.0</ele>
        <time>2016-06-11T13:42:37Z</time>
      </trkpt>
      <trkpt lat="40.511950" lon="-5.094017">
        <ele>2471.0</ele>
        <time>2016-06-11T13:42:38Z</time>
      </trkpt>
      <trkpt lat="40.511933" lon="-5.093817">
        <ele>2470.0</ele>
        <time>2016-06-11T13:42:39Z</time>
      </trkpt>
      <trkpt lat="40.511900" lon="-5.093600">
        <ele>2469.0</ele>
        <time>2016-06-11T13:42:40Z</time>
      </trkpt>
      <trkpt lat="40.511850" lon="-5.093417">
        <ele>2469.0</ele>
        <time>2016-06-11T13:42:41Z</time>
      </trkpt>
      <trkpt lat="40.511817" lon="-5.093233">
        <ele>2469.0</ele>
        <time>2016-06-11T13:42:42Z</time>
      </trkpt>
      <trkpt lat="40.511767" lon="-5.093067">
        <ele>2470.0</ele>
        <time>2016-06-11T13:42:43Z</time>
      </trkpt>
      <trkpt lat="40.511717" lon="-5.092900">
        <ele>2471.0</ele>
        <time>2016-06-11T13:42:44Z</time>
      </trkpt>
      <trkpt lat="40.511667" lon="-5.092733">
        <ele>2470.0</ele>
        <time>2016-06-11T13:42:45Z</time>
      </trkpt>
      <trkpt lat="40.511600" lon="-5.092567">
        <ele>2469.0</ele>
        <time>2016-06-11T13:42:46Z</time>
      </trkpt>
      <trkpt lat="40.511533" lon="-5.092417">
        <ele>2467.0</ele>
        <time>2016-06-11T13:42:47Z</time>
      </trkpt>
      <trkpt lat="40.511450" lon="-5.092267">
        <ele>2466.0</ele>
        <time>2016-06-11T13:42:48Z</time>
      </trkpt>
      <trkpt lat="40.511383" lon="-5.092117">
        <ele>2465.0</ele>
        <time>2016-06-11T13:42:49Z</time>
      </trkpt>
      <trkpt lat="40.511300" lon="-5.091967">
        <ele>2465.0</ele>
        <time>2016-06-11T13:42:50Z</time>
      </trkpt>
      <trkpt lat="40.511217" lon="-5.091833">
        <ele>2463.0</ele>
        <time>2016-06-11T13:42:51Z</time>
      </trkpt>
      <trkpt lat="40.511133" lon="-5.091700">
        <ele>2462.0</ele>
        <time>2016-06-11T13:42:52Z</time>
      </trkpt>
      <trkpt lat="40.511050" lon="-5.091567">
        <ele>2461.0</ele>
        <time>2016-06-11T13:42:53Z</time>
      </trkpt>
      <trkpt lat="40.510967" lon="-5.091433">
        <ele>2460.0</ele>
        <time>2016-06-11T13:42:54Z</time>
      </trkpt>
      <trkpt lat="40.510883" lon="-5.091283">
        <ele>2460.0</ele>
        <time>2016-06-11T13:42:55Z</time>
      </trkpt>
      <trkpt lat="40.510817" lon="-5.091150">
        <ele>2461.0</ele>
        <time>2016-06-11T13:42:56Z</time>
      </trkpt>
      <trkpt lat="40.510733" lon="-5.091050">
        <ele>2463.0</ele>
        <time>2016-06-11T13:42:57Z</time>
      </trkpt>
      <trkpt lat="40.510667" lon="-5.090967">
        <ele>2464.0</ele>
        <time>2016-06-11T13:42:58Z</time>
      </trkpt>
      <trkpt lat="40.510583" lon="-5.090883">
        <ele>2464.0</ele>
        <time>2016-06-11T13:42:59Z</time>
      </trkpt>
      <trkpt lat="40.510483" lon="-5.090783">
        <ele>2463.0</ele>
        <time>2016-06-11T13:43:00Z</time>
      </trkpt>
      <trkpt lat="40.510400" lon="-5.090667">
        <ele>2464.0</ele>
        <time>2016-06-11T13:43:01Z</time>
      </trkpt>
      <trkpt lat="40.510333" lon="-5.090533">
        <ele>2466.0</ele>
        <time>2016-06-11T13:43:02Z</time>
      </trkpt>
      <trkpt lat="40.510267" lon="-5.090433">
        <ele>2468.0</ele>
        <time>2016-06-11T13:43:03Z</time>
      </trkpt>
      <trkpt lat="40.510217" lon="-5.090350">
        <ele>2469.0</ele>
        <time>2016-06-11T13:43:04Z</time>
      </trkpt>
      <trkpt lat="40.510150" lon="-5.090250">
        <ele>2469.0</ele>
        <time>2016-06-11T13:43:05Z</time>
      </trkpt>
      <trkpt lat="40.510050" lon="-5.090150">
        <ele>2468.0</ele>
        <time>2016-06-11T13:43:06Z</time>
      </trkpt>
      <trkpt lat="40.509967" lon="-5.090033">
        <ele>2466.0</ele>
        <time>2016-06-11T13:43:07Z</time>
      </trkpt>
      <trkpt lat="40.509867" lon="-5.089900">
        <ele>2465.0</ele>
        <time>2016-06-11T13:43:08Z</time>
      </trkpt>
      <trkpt lat="40.509783" lon="-5.089783">
        <ele>2465.0</ele>
        <time>2016-06-11T13:43:09Z</time>
      </trkpt>
      <trkpt lat="40.509717" lon="-5.089683">
        <ele>2466.0</ele>
        <time>2016-06-11T13:43:10Z</time>
      </trkpt>
      <trkpt lat="40.509650" lon="-5.089567">
        <ele>2466.0</ele>
        <time>2016-06-11T13:43:11Z</time>
      </trkpt>
      <trkpt lat="40.509583" lon="-5.089450">
        <ele>2464.0</ele>
        <time>2016-06-11T13:43:12Z</time>
      </trkpt>
      <trkpt lat="40.509500" lon="-5.089333">
        <ele>2461.0</ele>
        <time>2016-06-11T13:43:13Z</time>
      </trkpt>
      <trkpt lat="40.509417" lon="-5.089217">
        <ele>2457.0</ele>
        <time>2016-06-11T13:43:14Z</time>
      </trkpt>
      <trkpt lat="40.509317" lon="-5.089083">
        <ele>2454.0</ele>
        <time>2016-06-11T13:43:15Z</time>
      </trkpt>
      <trkpt lat="40.509217" lon="-5.088967">
        <ele>2452.0</ele>
        <time>2016-06-11T13:43:16Z</time>
      </trkpt>
      <trkpt lat="40.509133" lon="-5.088883">
        <ele>2451.0</ele>
        <time>2016-06-11T13:43:17Z</time>
      </trkpt>
      <trkpt lat="40.509033" lon="-5.088800">
        <ele>2450.0</ele>
        <time>2016-06-11T13:43:18Z</time>
      </trkpt>
      <trkpt lat="40.508933" lon="-5.088717">
        <ele>2448.0</ele>
        <time>2016-06-11T13:43:19Z</time>
      </trkpt>
      <trkpt lat="40.508833" lon="-5.088633">
        <ele>2447.0</ele>
        <time>2016-06-11T13:43:20Z</time>
      </trkpt>
      <trkpt lat="40.508750" lon="-5.088550">
        <ele>2445.0</ele>
        <time>2016-06-11T13:43:21Z</time>
      </trkpt>
      <trkpt lat="40.508650" lon="-5.088433">
        <ele>2443.0</ele>
        <time>2016-06-11T13:43:22Z</time>
      </trkpt>
      <trkpt lat="40.508567" lon="-5.088300">
        <ele>2440.0</ele>
        <time>2016-06-11T13:43:23Z</time>
      </trkpt>
      <trkpt lat="40.508483" lon="-5.088167">
        <ele>2438.0</ele>
        <time>2016-06-11T13:43:24Z</time>
      </trkpt>
      <trkpt lat="40.508400" lon="-5.088033">
        <ele>2435.0</ele>
        <time>2016-06-11T13:43:25Z</time>
      </trkpt>
      <trkpt lat="40.508317" lon="-5.087883">
        <ele>2433.0</ele>
        <time>2016-06-11T13:43:26Z</time>
      </trkpt>
      <trkpt lat="40.508250" lon="-5.087750">
        <ele>2431.0</ele>
        <time>2016-06-11T13:43:27Z</time>
      </trkpt>
      <trkpt lat="40.508183" lon="-5.087617">
        <ele>2428.0</ele>
        <time>2016-06-11T13:43:28Z</time>
      </trkpt>
      <trkpt lat="40.508117" lon="-5.087500">
        <ele>2426.0</ele>
        <time>2016-06-11T13:43:29Z</time>
      </trkpt>
      <trkpt lat="40.508033" lon="-5.087367">
        <ele>2424.0</ele>
        <time>2016-06-11T13:43:30Z</time>
      </trkpt>
      <trkpt lat="40.507967" lon="-5.087233">
        <ele>2420.0</ele>
        <time>2016-06-11T13:43:31Z</time>
      </trkpt>
      <trkpt lat="40.507883" lon="-5.087100">
        <ele>2416.0</ele>
        <time>2016-06-11T13:43:32Z</time>
      </trkpt>
      <trkpt lat="40.507783" lon="-5.086967">
        <ele>2414.0</ele>
        <time>2016-06-11T13:43:33Z</time>
      </trkpt>
      <trkpt lat="40.507717" lon="-5.086850">
        <ele>2412.0</ele>
        <time>2016-06-11T13:43:34Z</time>
      </trkpt>
      <trkpt lat="40.507633" lon="-5.086733">
        <ele>2410.0</ele>
        <time>2016-06-11T13:43:35Z</time>
      </trkpt>
      <trkpt lat="40.507550" lon="-5.086600">
        <ele>2407.0</ele>
        <time>2016-06-11T13:43:36Z</time>
      </trkpt>
      <trkpt lat="40.507467" lon="-5.086483">
        <ele>2404.0</ele>
        <time>2016-06-11T13:43:37Z</time>
      </trkpt>
      <trkpt lat="40.507400" lon="-5.086350">
        <ele>2400.0</ele>
        <time>2016-06-11T13:43:38Z</time>
      </trkpt>
      <trkpt lat="40.507317" lon="-5.086233">
        <ele>2397.0</ele>
        <time>2016-06-11T13:43:39Z</time>
      </trkpt>
      <trkpt lat="40.507233" lon="-5.086117">
        <ele>2394.0</ele>
        <time>2016-06-11T13:43:40Z</time>
      </trkpt>
      <trkpt lat="40.507150" lon="-5.086000">
        <ele>2392.0</ele>
        <time>2016-06-11T13:43:41Z</time>
      </trkpt>
      <trkpt lat="40.507067" lon="-5.085883">
        <ele>2390.0</ele>
        <time>2016-06-11T13:43:42Z</time>
      </trkpt>
      <trkpt lat="40.507000" lon="-5.085767">
        <ele>2389.0</ele>
        <time>2016-06-11T13:43:43Z</time>
      </trkpt>
      <trkpt lat="40.506933" lon="-5.085650">
        <ele>2386.0</ele>
        <time>2016-06-11T13:43:44Z</time>
      </trkpt>
      <trkpt lat="40.506867" lon="-5.085517">
        <ele>2383.0</ele>
        <time>2016-06-11T13:43:45Z</time>
      </trkpt>
      <trkpt lat="40.506767" lon="-5.085400">
        <ele>2380.0</ele>
        <time>2016-06-11T13:43:46Z</time>
      </trkpt>
      <trkpt lat="40.506667" lon="-5.085267">
        <ele>2377.0</ele>
        <time>2016-06-11T13:43:47Z</time>
      </trkpt>
      <trkpt lat="40.506567" lon="-5.085133">
        <ele>2375.0</ele>
        <time>2016-06-11T13:43:48Z</time>
      </trkpt>
      <trkpt lat="40.506467" lon="-5.085017">
        <ele>2374.0</ele>
        <time>2016-06-11T13:43:49Z</time>
      </trkpt>
      <trkpt lat="40.506350" lon="-5.084900">
        <ele>2374.0</ele>
        <time>2016-06-11T13:43:50Z</time>
      </trkpt>
      <trkpt lat="40.506250" lon="-5.084817">
        <ele>2374.0</ele>
        <time>2016-06-11T13:43:51Z</time>
      </trkpt>
      <trkpt lat="40.506133" lon="-5.084717">
        <ele>2374.0</ele>
        <time>2016-06-11T13:43:52Z</time>
      </trkpt>
      <trkpt lat="40.506033" lon="-5.084600">
        <ele>2373.0</ele>
        <time>2016-06-11T13:43:53Z</time>
      </trkpt>
      <trkpt lat="40.505917" lon="-5.084483">
        <ele>2372.0</ele>
        <time>2016-06-11T13:43:54Z</time>
      </trkpt>
      <trkpt lat="40.505817" lon="-5.084367">
        <ele>2371.0</ele>
        <time>2016-06-11T13:43:55Z</time>
      </trkpt>
      <trkpt lat="40.505700" lon="-5.084267">
        <ele>2370.0</ele>
        <time>2016-06-11T13:43:56Z</time>
      </trkpt>
      <trkpt lat="40.505583" lon="-5.084167">
        <ele>2369.0</ele>
        <time>2016-06-11T13:43:57Z</time>
      </trkpt>
      <trkpt lat="40.505467" lon="-5.084050">
        <ele>2368.0</ele>
        <time>2016-06-11T13:43:58Z</time>
      </trkpt>
      <trkpt lat="40.505350" lon="-5.083933">
        <ele>2367.0</ele>
        <time>2016-06-11T13:43:59Z</time>
      </trkpt>
      <trkpt lat="40.505250" lon="-5.083800">
        <ele>2366.0</ele>
        <time>2016-06-11T13:44:00Z</time>
      </trkpt>
      <trkpt lat="40.505133" lon="-5.083683">
        <ele>2365.0</ele>
        <time>2016-06-11T13:44:01Z</time>
      </trkpt>
      <trkpt lat="40.505033" lon="-5.083567">
        <ele>2365.0</ele>
        <time>2016-06-11T13:44:02Z</time>
      </trkpt>
      <trkpt lat="40.504917" lon="-5.083467">
        <ele>2364.0</ele>
        <time>2016-06-11T13:44:03Z</time>
      </trkpt>
      <trkpt lat="40.504800" lon="-5.083350">
        <ele>2363.0</ele>
        <time>2016-06-11T13:44:04Z</time>
      </trkpt>
      <trkpt lat="40.504683" lon="-5.083233">
        <ele>2362.0</ele>
        <time>2016-06-11T13:44:05Z</time>
      </trkpt>
      <trkpt lat="40.504567" lon="-5.083100">
        <ele>2361.0</ele>
        <time>2016-06-11T13:44:06Z</time>
      </trkpt>
      <trkpt lat="40.504467" lon="-5.082967">
        <ele>2360.0</ele>
        <time>2016-06-11T13:44:07Z</time>
      </trkpt>
      <trkpt lat="40.504350" lon="-5.082850">
        <ele>2359.0</ele>
        <time>2016-06-11T13:44:08Z</time>
      </trkpt>
      <trkpt lat="40.504250" lon="-5.082717">
        <ele>2358.0</ele>
        <time>2016-06-11T13:44:09Z</time>
      </trkpt>
      <trkpt lat="40.504133" lon="-5.082600">
        <ele>2357.0</ele>
        <time>2016-06-11T13:44:10Z</time>
      </trkpt>
      <trkpt lat="40.504033" lon="-5.082467">
        <ele>2356.0</ele>
        <time>2016-06-11T13:44:11Z</time>
      </trkpt>
      <trkpt lat="40.503933" lon="-5.082333">
        <ele>2354.0</ele>
        <time>2016-06-11T13:44:12Z</time>
      </trkpt>
      <trkpt lat="40.503833" lon="-5.082200">
        <ele>2353.0</ele>
        <time>2016-06-11T13:44:13Z</time>
      </trkpt>
      <trkpt lat="40.503750" lon="-5.082083">
        <ele>2352.0</ele>
        <time>2016-06-11T13:44:14Z</time>
      </trkpt>
      <trkpt lat="40.503650" lon="-5.081950">
        <ele>2350.0</ele>
        <time>2016-06-11T13:44:15Z</time>
      </trkpt>
      <trkpt lat="40.503550" lon="-5.081833">
        <ele>2347.0</ele>
        <time>2016-06-11T13:44:16Z</time>
      </trkpt>
      <trkpt lat="40.503450" lon="-5.081700">
        <ele>2345.0</ele>
        <time>2016-06-11T13:44:17Z</time>
      </trkpt>
      <trkpt lat="40.503333" lon="-5.081567">
        <ele>2342.0</ele>
        <time>2016-06-11T13:44:18Z</time>
      </trkpt>
      <trkpt lat="40.503233" lon="-5.081417">
        <ele>2339.0</ele>
        <time>2016-06-11T13:44:19Z</time>
      </trkpt>
      <trkpt lat="40.503133" lon="-5.081267">
        <ele>2336.0</ele>
        <time>2016-06-11T13:44:20Z</time>
      </trkpt>
      <trkpt lat="40.503050" lon="-5.081100">
        <ele>2335.0</ele>
        <time>2016-06-11T13:44:21Z</time>
      </trkpt>
      <trkpt lat="40.502983" lon="-5.080967">
        <ele>2337.0</ele>
        <time>2016-06-11T13:44:22Z</time>
      </trkpt>
      <trkpt lat="40.502900" lon="-5.080833">
        <ele>2338.0</ele>
        <time>2016-06-11T13:44:23Z</time>
      </trkpt>
      <trkpt lat="40.502833" lon="-5.080700">
        <ele>2338.0</ele>
        <time>2016-06-11T13:44:24Z</time>
      </trkpt>
      <trkpt lat="40.502750" lon="-5.080550">
        <ele>2337.0</ele>
        <time>2016-06-11T13:44:25Z</time>
      </trkpt>
      <trkpt lat="40.502650" lon="-5.080383">
        <ele>2336.0</ele>
        <time>2016-06-11T13:44:26Z</time>
      </trkpt>
      <trkpt lat="40.502583" lon="-5.080233">
        <ele>2336.0</ele>
        <time>2016-06-11T13:44:27Z</time>
      </trkpt>
      <trkpt lat="40.502517" lon="-5.080100">
        <ele>2338.0</ele>
        <time>2016-06-11T13:44:28Z</time>
      </trkpt>
      <trkpt lat="40.502467" lon="-5.079967">
        <ele>2339.0</ele>
        <time>2016-06-11T13:44:29Z</time>
      </trkpt>
      <trkpt lat="40.502400" lon="-5.079833">
        <ele>2339.0</ele>
        <time>2016-06-11T13:44:30Z</time>
      </trkpt>
      <trkpt lat="40.502350" lon="-5.079683">
        <ele>2338.0</ele>
        <time>2016-06-11T13:44:31Z</time>
      </trkpt>
      <trkpt lat="40.502300" lon="-5.079533">
        <ele>2336.0</ele>
        <time>2016-06-11T13:44:32Z</time>
      </trkpt>
      <trkpt lat="40.502250" lon="-5.079350">
        <ele>2333.0</ele>
        <time>2016-06-11T13:44:33Z</time>
      </trkpt>
      <trkpt lat="40.502200" lon="-5.079150">
        <ele>2332.0</ele>
        <time>2016-06-11T13:44:34Z</time>
      </trkpt>
      <trkpt lat="40.502150" lon="-5.078967">
        <ele>2331.0</ele>
        <time>2016-06-11T13:44:35Z</time>
      </trkpt>
      <trkpt lat="40.502100" lon="-5.078800">
        <ele>2332.0</ele>
        <time>2016-06-11T13:44:36Z</time>
      </trkpt>
      <trkpt lat="40.502033" lon="-5.078650">
        <ele>2332.0</ele>
        <time>2016-06-11T13:44:37Z</time>
      </trkpt>
      <trkpt lat="40.501967" lon="-5.078517">
        <ele>2332.0</ele>
        <time>2016-06-11T13:44:38Z</time>
      </trkpt>
      <trkpt lat="40.501883" lon="-5.078383">
        <ele>2331.0</ele>
        <time>2016-06-11T13:44:39Z</time>
      </trkpt>
      <trkpt lat="40.501783" lon="-5.078233">
        <ele>2330.0</ele>
        <time>2016-06-11T13:44:40Z</time>
      </trkpt>
      <trkpt lat="40.501683" lon="-5.078117">
        <ele>2329.0</ele>
        <time>2016-06-11T13:44:41Z</time>
      </trkpt>
      <trkpt lat="40.501583" lon="-5.077983">
        <ele>2328.0</ele>
        <time>2016-06-11T13:44:42Z</time>
      </trkpt>
      <trkpt lat="40.501483" lon="-5.077867">
        <ele>2328.0</ele>
        <time>2016-06-11T13:44:43Z</time>
      </trkpt>
      <trkpt lat="40.501383" lon="-5.077767">
        <ele>2328.0</ele>
        <time>2016-06-11T13:44:44Z</time>
      </trkpt>
      <trkpt lat="40.501283" lon="-5.077650">
        <ele>2327.0</ele>
        <time>2016-06-11T13:44:45Z</time>
      </trkpt>
      <trkpt lat="40.501183" lon="-5.077550">
        <ele>2326.0</ele>
        <time>2016-06-11T13:44:46Z</time>
      </trkpt>
      <trkpt lat="40.501083" lon="-5.077450">
        <ele>2325.0</ele>
        <time>2016-06-11T13:44:47Z</time>
      </trkpt>
      <trkpt lat="40.500983" lon="-5.077383">
        <ele>2324.0</ele>
        <time>2016-06-11T13:44:48Z</time>
      </trkpt>
      <trkpt lat="40.500900" lon="-5.077333">
        <ele>2323.0</ele>
        <time>2016-06-11T13:44:49Z</time>
      </trkpt>
      <trkpt lat="40.500833" lon="-5.077300">
        <ele>2322.0</ele>
        <time>2016-06-11T13:44:50Z</time>
      </trkpt>
      <trkpt lat="40.500783" lon="-5.077267">
        <ele>2321.0</ele>
        <time>2016-06-11T13:44:51Z</time>
      </trkpt>
      <trkpt lat="40.500733" lon="-5.077233">
        <ele>2320.0</ele>
        <time>2016-06-11T13:44:52Z</time>
      </trkpt>
      <trkpt lat="40.500717" lon="-5.077200">
        <ele>2320.0</ele>
        <time>2016-06-11T13:44:53Z</time>
      </trkpt>
      <trkpt lat="40.500683" lon="-5.077183">
        <ele>2318.0</ele>
        <time>2016-06-11T13:44:54Z</time>
      </trkpt>
      <trkpt lat="40.500667" lon="-5.077183">
        <ele>2315.0</ele>
        <time>2016-06-11T13:44:55Z</time>
      </trkpt>
      <trkpt lat="40.500633" lon="-5.077200">
        <ele>2312.0</ele>
        <time>2016-06-11T13:44:56Z</time>
      </trkpt>
      <trkpt lat="40.500617" lon="-5.077217">
        <ele>2308.0</ele>
        <time>2016-06-11T13:44:57Z</time>
      </trkpt>
      <trkpt lat="40.500633" lon="-5.077233">
        <ele>2306.0</ele>
        <time>2016-06-11T13:44:58Z</time>
      </trkpt>
      <trkpt lat="40.500683" lon="-5.077200">
        <ele>2305.0</ele>
        <time>2016-06-11T13:44:59Z</time>
      </trkpt>
      <trkpt lat="40.500750" lon="-5.077133">
        <ele>2303.0</ele>
        <time>2016-06-11T13:45:00Z</time>
      </trkpt>
      <trkpt lat="40.500800" lon="-5.077050">
        <ele>2302.0</ele>
        <time>2016-06-11T13:45:01Z</time>
      </trkpt>
      <trkpt lat="40.500850" lon="-5.076983">
        <ele>2302.0</ele>
        <time>2016-06-11T13:45:02Z</time>
      </trkpt>
      <trkpt lat="40.500900" lon="-5.076933">
        <ele>2301.0</ele>
        <time>2016-06-11T13:45:03Z</time>
      </trkpt>
      <trkpt lat="40.500983" lon="-5.076917">
        <ele>2300.0</ele>
        <time>2016-06-11T13:45:04Z</time>
      </trkpt>
      <trkpt lat="40.501017" lon="-5.076900">
        <ele>2300.0</ele>
        <time>2016-06-11T13:45:05Z</time>
      </trkpt>
      <trkpt lat="40.501050" lon="-5.076900">
        <ele>2300.0</ele>
        <time>2016-06-11T13:45:06Z</time>
      </trkpt>
      <trkpt lat="40.501067" lon="-5.076917">
        <ele>2300.0</ele>
        <time>2016-06-11T13:45:07Z</time>
      </trkpt>
      <trkpt lat="40.501100" lon="-5.076917">
        <ele>2301.0</ele>
        <time>2016-06-11T13:45:08Z</time>
      </trkpt>
      <trkpt lat="40.501117" lon="-5.076917">
        <ele>2300.0</ele>
        <time>2016-06-11T13:45:09Z</time>
      </trkpt>
      <trkpt lat="40.501150" lon="-5.076917">
        <ele>2299.0</ele>
        <time>2016-06-11T13:45:10Z</time>
      </trkpt>
      <trkpt lat="40.501183" lon="-5.076933">
        <ele>2297.0</ele>
        <time>2016-06-11T13:45:11Z</time>
      </trkpt>
      <trkpt lat="40.501233" lon="-5.076933">
        <ele>2293.0</ele>
        <time>2016-06-11T13:45:12Z</time>
      </trkpt>
      <trkpt lat="40.501283" lon="-5.076967">
        <ele>2289.0</ele>
        <time>2016-06-11T13:45:13Z</time>
      </trkpt>
      <trkpt lat="40.501333" lon="-5.077000">
        <ele>2287.0</ele>
        <time>2016-06-11T13:45:14Z</time>
      </trkpt>
      <trkpt lat="40.501383" lon="-5.077033">
        <ele>2286.0</ele>
        <time>2016-06-11T13:45:15Z</time>
      </trkpt>
      <trkpt lat="40.501417" lon="-5.077050">
        <ele>2287.0</ele>
        <time>2016-06-11T13:45:16Z</time>
      </trkpt>
      <trkpt lat="40.501450" lon="-5.077067">
        <ele>2287.0</ele>
        <time>2016-06-11T13:45:17Z</time>
      </trkpt>
      <trkpt lat="40.501483" lon="-5.077100">
        <ele>2286.0</ele>
        <time>2016-06-11T13:45:18Z</time>
      </trkpt>
      <trkpt lat="40.501517" lon="-5.077133">
        <ele>2284.0</ele>
        <time>2016-06-11T13:45:19Z</time>
      </trkpt>
      <trkpt lat="40.501567" lon="-5.077167">
        <ele>2281.0</ele>
        <time>2016-06-11T13:45:20Z</time>
      </trkpt>
      <trkpt lat="40.501617" lon="-5.077217">
        <ele>2279.0</ele>
        <time>2016-06-11T13:45:21Z</time>
      </trkpt>
      <trkpt lat="40.501667" lon="-5.077267">
        <ele>2278.0</ele>
        <time>2016-06-11T13:45:22Z</time>
      </trkpt>
      <trkpt lat="40.501700" lon="-5.077333">
        <ele>2278.0</ele>
        <time>2016-06-11T13:45:23Z</time>
      </trkpt>
      <trkpt lat="40.501733" lon="-5.077400">
        <ele>2279.0</ele>
        <time>2016-06-11T13:45:24Z</time>
      </trkpt>
      <trkpt lat="40.501783" lon="-5.077450">
        <ele>2280.0</ele>
        <time>2016-06-11T13:45:25Z</time>
      </trkpt>
      <trkpt lat="40.501833" lon="-5.077467">
        <ele>2280.0</ele>
        <time>2016-06-11T13:45:26Z</time>
      </trkpt>
      <trkpt lat="40.501900" lon="-5.077467">
        <ele>2280.0</ele>
        <time>2016-06-11T13:45:27Z</time>
      </trkpt>
      <trkpt lat="40.501983" lon="-5.077467">
        <ele>2278.0</ele>
        <time>2016-06-11T13:45:28Z</time>
      </trkpt>
      <trkpt lat="40.502050" lon="-5.077500">
        <ele>2276.0</ele>
        <time>2016-06-11T13:45:29Z</time>
      </trkpt>
      <trkpt lat="40.502133" lon="-5.077533">
        <ele>2274.0</ele>
        <time>2016-06-11T13:45:30Z</time>
      </trkpt>
      <trkpt lat="40.502200" lon="-5.077550">
        <ele>2273.0</ele>
        <time>2016-06-11T13:45:31Z</time>
      </trkpt>
      <trkpt lat="40.502283" lon="-5.077550">
        <ele>2274.0</ele>
        <time>2016-06-11T13:45:32Z</time>
      </trkpt>
      <trkpt lat="40.502333" lon="-5.077517">
        <ele>2277.0</ele>
        <time>2016-06-11T13:45:33Z</time>
      </trkpt>
      <trkpt lat="40.502367" lon="-5.077483">
        <ele>2281.0</ele>
        <time>2016-06-11T13:45:34Z</time>
      </trkpt>
      <trkpt lat="40.502383" lon="-5.077467">
        <ele>2283.0</ele>
        <time>2016-06-11T13:45:35Z</time>
      </trkpt>
      <trkpt lat="40.502417" lon="-5.077450">
        <ele>2284.0</ele>
        <time>2016-06-11T13:45:36Z</time>
      </trkpt>
      <trkpt lat="40.502450" lon="-5.077450">
        <ele>2285.0</ele>
        <time>2016-06-11T13:45:37Z</time>
      </trkpt>
      <trkpt lat="40.502483" lon="-5.077467">
        <ele>2285.0</ele>
        <time>2016-06-11T13:45:38Z</time>
      </trkpt>
      <trkpt lat="40.502550" lon="-5.077467">
        <ele>2286.0</ele>
        <time>2016-06-11T13:45:39Z</time>
      </trkpt>
      <trkpt lat="40.502583" lon="-5.077450">
        <ele>2288.0</ele>
        <time>2016-06-11T13:45:40Z</time>
      </trkpt>
      <trkpt lat="40.502617" lon="-5.077400">
        <ele>2292.0</ele>
        <time>2016-06-11T13:45:41Z</time>
      </trkpt>
      <trkpt lat="40.502650" lon="-5.077383">
        <ele>2294.0</ele>
        <time>2016-06-11T13:45:42Z</time>
      </trkpt>
      <trkpt lat="40.502683" lon="-5.077350">
        <ele>2294.0</ele>
        <time>2016-06-11T13:45:43Z</time>
      </trkpt>
      <trkpt lat="40.502733" lon="-5.077333">
        <ele>2293.0</ele>
        <time>2016-06-11T13:45:44Z</time>
      </trkpt>
      <trkpt lat="40.502800" lon="-5.077333">
        <ele>2291.0</ele>
        <time>2016-06-11T13:45:45Z</time>
      </trkpt>
      <trkpt lat="40.502867" lon="-5.077317">
        <ele>2289.0</ele>
        <time>2016-06-11T13:45:46Z</time>
      </trkpt>
      <trkpt lat="40.502933" lon="-5.077283">
        <ele>2290.0</ele>
        <time>2016-06-11T13:45:47Z</time>
      </trkpt>
      <trkpt lat="40.502983" lon="-5.077250">
        <ele>2291.0</ele>
        <time>2016-06-11T13:45:48Z</time>
      </trkpt>
      <trkpt lat="40.503033" lon="-5.077233">
        <ele>2291.0</ele>
        <time>2016-06-11T13:45:49Z</time>
      </trkpt>
      <trkpt lat="40.503083" lon="-5.077217">
        <ele>2289.0</ele>
        <time>2016-06-11T13:45:50Z</time>
      </trkpt>
      <trkpt lat="40.503150" lon="-5.077200">
        <ele>2288.0</ele>
        <time>2016-06-11T13:45:51Z</time>
      </trkpt>
      <trkpt lat="40.503217" lon="-5.077167">
        <ele>2286.0</ele>
        <time>2016-06-11T13:45:52Z</time>
      </trkpt>
      <trkpt lat="40.503267" lon="-5.077117">
        <ele>2287.0</ele>
        <time>2016-06-11T13:45:53Z</time>
      </trkpt>
      <trkpt lat="40.503317" lon="-5.077050">
        <ele>2289.0</ele>
        <time>2016-06-11T13:45:54Z</time>
      </trkpt>
      <trkpt lat="40.503367" lon="-5.077000">
        <ele>2289.0</ele>
        <time>2016-06-11T13:45:55Z</time>
      </trkpt>
      <trkpt lat="40.503433" lon="-5.076933">
        <ele>2289.0</ele>
        <time>2016-06-11T13:45:56Z</time>
      </trkpt>
      <trkpt lat="40.503500" lon="-5.076867">
        <ele>2288.0</ele>
        <time>2016-06-11T13:45:57Z</time>
      </trkpt>
      <trkpt lat="40.503567" lon="-5.076800">
        <ele>2287.0</ele>
        <time>2016-06-11T13:45:58Z</time>
      </trkpt>
      <trkpt lat="40.503633" lon="-5.076717">
        <ele>2285.0</ele>
        <time>2016-06-11T13:45:59Z</time>
      </trkpt>
      <trkpt lat="40.503700" lon="-5.076600">
        <ele>2283.0</ele>
        <time>2016-06-11T13:46:00Z</time>
      </trkpt>
      <trkpt lat="40.503767" lon="-5.076467">
        <ele>2280.0</ele>
        <time>2016-06-11T13:46:01Z</time>
      </trkpt>
      <trkpt lat="40.503850" lon="-5.076317">
        <ele>2276.0</ele>
        <time>2016-06-11T13:46:02Z</time>
      </trkpt>
      <trkpt lat="40.503900" lon="-5.076183">
        <ele>2275.0</ele>
        <time>2016-06-11T13:46:03Z</time>
      </trkpt>
      <trkpt lat="40.503950" lon="-5.076050">
        <ele>2273.0</ele>
        <time>2016-06-11T13:46:04Z</time>
      </trkpt>
      <trkpt lat="40.503983" lon="-5.075900">
        <ele>2271.0</ele>
        <time>2016-06-11T13:46:05Z</time>
      </trkpt>
      <trkpt lat="40.504017" lon="-5.075733">
        <ele>2267.0</ele>
        <time>2016-06-11T13:46:06Z</time>
      </trkpt>
      <trkpt lat="40.504083" lon="-5.075567">
        <ele>2263.0</ele>
        <time>2016-06-11T13:46:07Z</time>
      </trkpt>
      <trkpt lat="40.504133" lon="-5.075400">
        <ele>2259.0</ele>
        <time>2016-06-11T13:46:08Z</time>
      </trkpt>
      <trkpt lat="40.504183" lon="-5.075217">
        <ele>2256.0</ele>
        <time>2016-06-11T13:46:09Z</time>
      </trkpt>
      <trkpt lat="40.504233" lon="-5.075033">
        <ele>2252.0</ele>
        <time>2016-06-11T13:46:10Z</time>
      </trkpt>
      <trkpt lat="40.504267" lon="-5.074850">
        <ele>2248.0</ele>
        <time>2016-06-11T13:46:11Z</time>
      </trkpt>
      <trkpt lat="40.504317" lon="-5.074650">
        <ele>2245.0</ele>
        <time>2016-06-11T13:46:12Z</time>
      </trkpt>
      <trkpt lat="40.504350" lon="-5.074467">
        <ele>2242.0</ele>
        <time>2016-06-11T13:46:13Z</time>
      </trkpt>
      <trkpt lat="40.504400" lon="-5.074267">
        <ele>2239.0</ele>
        <time>2016-06-11T13:46:14Z</time>
      </trkpt>
      <trkpt lat="40.504433" lon="-5.074067">
        <ele>2238.0</ele>
        <time>2016-06-11T13:46:15Z</time>
      </trkpt>
      <trkpt lat="40.504467" lon="-5.073883">
        <ele>2237.0</ele>
        <time>2016-06-11T13:46:16Z</time>
      </trkpt>
      <trkpt lat="40.504500" lon="-5.073700">
        <ele>2236.0</ele>
        <time>2016-06-11T13:46:17Z</time>
      </trkpt>
      <trkpt lat="40.504533" lon="-5.073500">
        <ele>2235.0</ele>
        <time>2016-06-11T13:46:18Z</time>
      </trkpt>
      <trkpt lat="40.504567" lon="-5.073317">
        <ele>2234.0</ele>
        <time>2016-06-11T13:46:19Z</time>
      </trkpt>
      <trkpt lat="40.504600" lon="-5.073117">
        <ele>2232.0</ele>
        <time>2016-06-11T13:46:20Z</time>
      </trkpt>
      <trkpt lat="40.504633" lon="-5.072933">
        <ele>2230.0</ele>
        <time>2016-06-11T13:46:21Z</time>
      </trkpt>
      <trkpt lat="40.504683" lon="-5.072750">
        <ele>2229.0</ele>
        <time>2016-06-11T13:46:22Z</time>
      </trkpt>
      <trkpt lat="40.504717" lon="-5.072583">
        <ele>2228.0</ele>
        <time>2016-06-11T13:46:23Z</time>
      </trkpt>
      <trkpt lat="40.504767" lon="-5.072400">
        <ele>2228.0</ele>
        <time>2016-06-11T13:46:24Z</time>
      </trkpt>
      <trkpt lat="40.504800" lon="-5.072267">
        <ele>2228.0</ele>
        <time>2016-06-11T13:46:25Z</time>
      </trkpt>
      <trkpt lat="40.504850" lon="-5.072133">
        <ele>2227.0</ele>
        <time>2016-06-11T13:46:26Z</time>
      </trkpt>
      <trkpt lat="40.504900" lon="-5.072000">
        <ele>2226.0</ele>
        <time>2016-06-11T13:46:27Z</time>
      </trkpt>
      <trkpt lat="40.504950" lon="-5.071867">
        <ele>2224.0</ele>
        <time>2016-06-11T13:46:28Z</time>
      </trkpt>
      <trkpt lat="40.504983" lon="-5.071700">
        <ele>2220.0</ele>
        <time>2016-06-11T13:46:29Z</time>
      </trkpt>
      <trkpt lat="40.505000" lon="-5.071517">
        <ele>2216.0</ele>
        <time>2016-06-11T13:46:30Z</time>
      </trkpt>
      <trkpt lat="40.505017" lon="-5.071333">
        <ele>2212.0</ele>
        <time>2016-06-11T13:46:31Z</time>
      </trkpt>
      <trkpt lat="40.505050" lon="-5.071150">
        <ele>2208.0</ele>
        <time>2016-06-11T13:46:32Z</time>
      </trkpt>
      <trkpt lat="40.505100" lon="-5.070967">
        <ele>2205.0</ele>
        <time>2016-06-11T13:46:33Z</time>
      </trkpt>
      <trkpt lat="40.505150" lon="-5.070817">
        <ele>2202.0</ele>
        <time>2016-06-11T13:46:34Z</time>
      </trkpt>
      <trkpt lat="40.505200" lon="-5.070667">
        <ele>2199.0</ele>
        <time>2016-06-11T13:46:35Z</time>
      </trkpt>
      <trkpt lat="40.505250" lon="-5.070500">
        <ele>2197.0</ele>
        <time>2016-06-11T13:46:36Z</time>
      </trkpt>
      <trkpt lat="40.505283" lon="-5.070300">
        <ele>2194.0</ele>
        <time>2016-06-11T13:46:37Z</time>
      </trkpt>
      <trkpt lat="40.505300" lon="-5.070117">
        <ele>2191.0</ele>
        <time>2016-06-11T13:46:38Z</time>
      </trkpt>
      <trkpt lat="40.505333" lon="-5.069900">
        <ele>2188.0</ele>
        <time>2016-06-11T13:46:39Z</time>
      </trkpt>
      <trkpt lat="40.505383" lon="-5.069700">
        <ele>2186.0</ele>
        <time>2016-06-11T13:46:40Z</time>
      </trkpt>
      <trkpt lat="40.505417" lon="-5.069517">
        <ele>2185.0</ele>
        <time>2016-06-11T13:46:41Z</time>
      </trkpt>
      <trkpt lat="40.505450" lon="-5.069333">
        <ele>2185.0</ele>
        <time>2016-06-11T13:46:42Z</time>
      </trkpt>
      <trkpt lat="40.505467" lon="-5.069133">
        <ele>2184.0</ele>
        <time>2016-06-11T13:46:43Z</time>
      </trkpt>
      <trkpt lat="40.505483" lon="-5.068950">
        <ele>2183.0</ele>
        <time>2016-06-11T13:46:44Z</time>
      </trkpt>
      <trkpt lat="40.505500" lon="-5.068767">
        <ele>2182.0</ele>
        <time>2016-06-11T13:46:45Z</time>
      </trkpt>
      <trkpt lat="40.505533" lon="-5.068600">
        <ele>2180.0</ele>
        <time>2016-06-11T13:46:46Z</time>
      </trkpt>
      <trkpt lat="40.505567" lon="-5.068417">
        <ele>2178.0</ele>
        <time>2016-06-11T13:46:47Z</time>
      </trkpt>
      <trkpt lat="40.505583" lon="-5.068233">
        <ele>2176.0</ele>
        <time>2016-06-11T13:46:48Z</time>
      </trkpt>
      <trkpt lat="40.505583" lon="-5.068033">
        <ele>2174.0</ele>
        <time>2016-06-11T13:46:49Z</time>
      </trkpt>
      <trkpt lat="40.505600" lon="-5.067850">
        <ele>2173.0</ele>
        <time>2016-06-11T13:46:50Z</time>
      </trkpt>
      <trkpt lat="40.505617" lon="-5.067667">
        <ele>2171.0</ele>
        <time>2016-06-11T13:46:51Z</time>
      </trkpt>
      <trkpt lat="40.505633" lon="-5.067467">
        <ele>2170.0</ele>
        <time>2016-06-11T13:46:52Z</time>
      </trkpt>
      <trkpt lat="40.505683" lon="-5.067283">
        <ele>2168.0</ele>
        <time>2016-06-11T13:46:53Z</time>
      </trkpt>
      <trkpt lat="40.505717" lon="-5.067100">
        <ele>2167.0</ele>
        <time>2016-06-11T13:46:54Z</time>
      </trkpt>
      <trkpt lat="40.505733" lon="-5.066900">
        <ele>2167.0</ele>
        <time>2016-06-11T13:46:55Z</time>
      </trkpt>
      <trkpt lat="40.505767" lon="-5.066700">
        <ele>2168.0</ele>
        <time>2016-06-11T13:46:56Z</time>
      </trkpt>
      <trkpt lat="40.505800" lon="-5.066517">
        <ele>2168.0</ele>
        <time>2016-06-11T13:46:57Z</time>
      </trkpt>
      <trkpt lat="40.505833" lon="-5.066333">
        <ele>2168.0</ele>
        <time>2016-06-11T13:46:58Z</time>
      </trkpt>
      <trkpt lat="40.505867" lon="-5.066150">
        <ele>2168.0</ele>
        <time>2016-06-11T13:46:59Z</time>
      </trkpt>
      <trkpt lat="40.505883" lon="-5.065967">
        <ele>2169.0</ele>
        <time>2016-06-11T13:47:00Z</time>
      </trkpt>
      <trkpt lat="40.505900" lon="-5.065800">
        <ele>2171.0</ele>
        <time>2016-06-11T13:47:01Z</time>
      </trkpt>
      <trkpt lat="40.505917" lon="-5.065650">
        <ele>2173.0</ele>
        <time>2016-06-11T13:47:02Z</time>
      </trkpt>
      <trkpt lat="40.505950" lon="-5.065500">
        <ele>2173.0</ele>
        <time>2016-06-11T13:47:03Z</time>
      </trkpt>
      <trkpt lat="40.505983" lon="-5.065333">
        <ele>2173.0</ele>
        <time>2016-06-11T13:47:04Z</time>
      </trkpt>
      <trkpt lat="40.506050" lon="-5.065167">
        <ele>2171.0</ele>
        <time>2016-06-11T13:47:05Z</time>
      </trkpt>
      <trkpt lat="40.506083" lon="-5.065000">
        <ele>2170.0</ele>
        <time>2016-06-11T13:47:06Z</time>
      </trkpt>
      <trkpt lat="40.506133" lon="-5.064867">
        <ele>2171.0</ele>
        <time>2016-06-11T13:47:07Z</time>
      </trkpt>
      <trkpt lat="40.506150" lon="-5.064733">
        <ele>2171.0</ele>
        <time>2016-06-11T13:47:08Z</time>
      </trkpt>
      <trkpt lat="40.506183" lon="-5.064583">
        <ele>2171.0</ele>
        <time>2016-06-11T13:47:09Z</time>
      </trkpt>
      <trkpt lat="40.506233" lon="-5.064433">
        <ele>2168.0</ele>
        <time>2016-06-11T13:47:10Z</time>
      </trkpt>
      <trkpt lat="40.506283" lon="-5.064267">
        <ele>2165.0</ele>
        <time>2016-06-11T13:47:11Z</time>
      </trkpt>
      <trkpt lat="40.506333" lon="-5.064100">
        <ele>2164.0</ele>
        <time>2016-06-11T13:47:12Z</time>
      </trkpt>
      <trkpt lat="40.506367" lon="-5.063917">
        <ele>2163.0</ele>
        <time>2016-06-11T13:47:13Z</time>
      </trkpt>
      <trkpt lat="40.506400" lon="-5.063767">
        <ele>2164.0</ele>
        <time>2016-06-11T13:47:14Z</time>
      </trkpt>
      <trkpt lat="40.506417" lon="-5.063617">
        <ele>2166.0</ele>
        <time>2016-06-11T13:47:15Z</time>
      </trkpt>
      <trkpt lat="40.506433" lon="-5.063467">
        <ele>2166.0</ele>
        <time>2016-06-11T13:47:16Z</time>
      </trkpt>
      <trkpt lat="40.506450" lon="-5.063283">
        <ele>2166.0</ele>
        <time>2016-06-11T13:47:17Z</time>
      </trkpt>
      <trkpt lat="40.506450" lon="-5.063117">
        <ele>2166.0</ele>
        <time>2016-06-11T13:47:18Z</time>
      </trkpt>
      <trkpt lat="40.506450" lon="-5.062950">
        <ele>2167.0</ele>
        <time>2016-06-11T13:47:19Z</time>
      </trkpt>
      <trkpt lat="40.506433" lon="-5.062800">
        <ele>2170.0</ele>
        <time>2016-06-11T13:47:20Z</time>
      </trkpt>
      <trkpt lat="40.506433" lon="-5.062650">
        <ele>2171.0</ele>
        <time>2016-06-11T13:47:21Z</time>
      </trkpt>
      <trkpt lat="40.506433" lon="-5.062500">
        <ele>2172.0</ele>
        <time>2016-06-11T13:47:22Z</time>
      </trkpt>
      <trkpt lat="40.506450" lon="-5.062367">
        <ele>2172.0</ele>
        <time>2016-06-11T13:47:23Z</time>
      </trkpt>
      <trkpt lat="40.506500" lon="-5.062233">
        <ele>2172.0</ele>
        <time>2016-06-11T13:47:24Z</time>
      </trkpt>
      <trkpt lat="40.506533" lon="-5.062100">
        <ele>2172.0</ele>
        <time>2016-06-11T13:47:25Z</time>
      </trkpt>
      <trkpt lat="40.506567" lon="-5.061967">
        <ele>2173.0</ele>
        <time>2016-06-11T13:47:26Z</time>
      </trkpt>
      <trkpt lat="40.506600" lon="-5.061817">
        <ele>2173.0</ele>
        <time>2016-06-11T13:47:27Z</time>
      </trkpt>
      <trkpt lat="40.506650" lon="-5.061683">
        <ele>2174.0</ele>
        <time>2016-06-11T13:47:28Z</time>
      </trkpt>
      <trkpt lat="40.506700" lon="-5.061567">
        <ele>2174.0</ele>
        <time>2016-06-11T13:47:29Z</time>
      </trkpt>
      <trkpt lat="40.506767" lon="-5.061483">
        <ele>2173.0</ele>
        <time>2016-06-11T13:47:30Z</time>
      </trkpt>
      <trkpt lat="40.506850" lon="-5.061433">
        <ele>2172.0</ele>
        <time>2016-06-11T13:47:31Z</time>
      </trkpt>
      <trkpt lat="40.506950" lon="-5.061400">
        <ele>2171.0</ele>
        <time>2016-06-11T13:47:32Z</time>
      </trkpt>
      <trkpt lat="40.507017" lon="-5.061317">
        <ele>2172.0</ele>
        <time>2016-06-11T13:47:33Z</time>
      </trkpt>
      <trkpt lat="40.507067" lon="-5.061217">
        <ele>2176.0</ele>
        <time>2016-06-11T13:47:34Z</time>
      </trkpt>
      <trkpt lat="40.507100" lon="-5.061100">
        <ele>2180.0</ele>
        <time>2016-06-11T13:47:35Z</time>
      </trkpt>
      <trkpt lat="40.507133" lon="-5.060983">
        <ele>2183.0</ele>
        <time>2016-06-11T13:47:36Z</time>
      </trkpt>
      <trkpt lat="40.507167" lon="-5.060867">
        <ele>2183.0</ele>
        <time>2016-06-11T13:47:37Z</time>
      </trkpt>
      <trkpt lat="40.507233" lon="-5.060750">
        <ele>2183.0</ele>
        <time>2016-06-11T13:47:38Z</time>
      </trkpt>
      <trkpt lat="40.507300" lon="-5.060633">
        <ele>2185.0</ele>
        <time>2016-06-11T13:47:39Z</time>
      </trkpt>
      <trkpt lat="40.507367" lon="-5.060533">
        <ele>2187.0</ele>
        <time>2016-06-11T13:47:40Z</time>
      </trkpt>
      <trkpt lat="40.507417" lon="-5.060450">
        <ele>2190.0</ele>
        <time>2016-06-11T13:47:41Z</time>
      </trkpt>
      <trkpt lat="40.507483" lon="-5.060367">
        <ele>2192.0</ele>
        <time>2016-06-11T13:47:42Z</time>
      </trkpt>
      <trkpt lat="40.507533" lon="-5.060283">
        <ele>2194.0</ele>
        <time>2016-06-11T13:47:43Z</time>
      </trkpt>
      <trkpt lat="40.507567" lon="-5.060217">
        <ele>2196.0</ele>
        <time>2016-06-11T13:47:44Z</time>
      </trkpt>
      <trkpt lat="40.507617" lon="-5.060150">
        <ele>2196.0</ele>
        <time>2016-06-11T13:47:45Z</time>
      </trkpt>
      <trkpt lat="40.507667" lon="-5.060083">
        <ele>2196.0</ele>
        <time>2016-06-11T13:47:46Z</time>
      </trkpt>
      <trkpt lat="40.507717" lon="-5.060017">
        <ele>2196.0</ele>
        <time>2016-06-11T13:47:47Z</time>
      </trkpt>
      <trkpt lat="40.507783" lon="-5.059950">
        <ele>2194.0</ele>
        <time>2016-06-11T13:47:48Z</time>
      </trkpt>
      <trkpt lat="40.507850" lon="-5.059933">
        <ele>2193.0</ele>
        <time>2016-06-11T13:47:49Z</time>
      </trkpt>
      <trkpt lat="40.507900" lon="-5.059967">
        <ele>2192.0</ele>
        <time>2016-06-11T13:47:50Z</time>
      </trkpt>
      <trkpt lat="40.507950" lon="-5.060033">
        <ele>2191.0</ele>
        <time>2016-06-11T13:47:51Z</time>
      </trkpt>
      <trkpt lat="40.507967" lon="-5.060083">
        <ele>2193.0</ele>
        <time>2016-06-11T13:47:52Z</time>
      </trkpt>
      <trkpt lat="40.507967" lon="-5.060117">
        <ele>2197.0</ele>
        <time>2016-06-11T13:47:53Z</time>
      </trkpt>
      <trkpt lat="40.507983" lon="-5.060133">
        <ele>2200.0</ele>
        <time>2016-06-11T13:47:54Z</time>
      </trkpt>
      <trkpt lat="40.508017" lon="-5.060117">
        <ele>2201.0</ele>
        <time>2016-06-11T13:47:55Z</time>
      </trkpt>
      <trkpt lat="40.508050" lon="-5.060117">
        <ele>2202.0</ele>
        <time>2016-06-11T13:47:56Z</time>
      </trkpt>
      <trkpt lat="40.508100" lon="-5.060100">
        <ele>2203.0</ele>
        <time>2016-06-11T13:47:57Z</time>
      </trkpt>
      <trkpt lat="40.508133" lon="-5.060117">
        <ele>2203.0</ele>
        <time>2016-06-11T13:47:58Z</time>
      </trkpt>
      <trkpt lat="40.508150" lon="-5.060150">
        <ele>2204.0</ele>
        <time>2016-06-11T13:47:59Z</time>
      </trkpt>
      <trkpt lat="40.508150" lon="-5.060183">
        <ele>2204.0</ele>
        <time>2016-06-11T13:48:00Z</time>
      </trkpt>
      <trkpt lat="40.508133" lon="-5.060233">
        <ele>2204.0</ele>
        <time>2016-06-11T13:48:01Z</time>
      </trkpt>
      <trkpt lat="40.508117" lon="-5.060267">
        <ele>2203.0</ele>
        <time>2016-06-11T13:48:02Z</time>
      </trkpt>
      <trkpt lat="40.508083" lon="-5.060300">
        <ele>2203.0</ele>
        <time>2016-06-11T13:48:03Z</time>
      </trkpt>
      <trkpt lat="40.508033" lon="-5.060333">
        <ele>2202.0</ele>
        <time>2016-06-11T13:48:04Z</time>
      </trkpt>
      <trkpt lat="40.507950" lon="-5.060333">
        <ele>2201.0</ele>
        <time>2016-06-11T13:48:05Z</time>
      </trkpt>
      <trkpt lat="40.507867" lon="-5.060283">
        <ele>2201.0</ele>
        <time>2016-06-11T13:48:06Z</time>
      </trkpt>
      <trkpt lat="40.507783" lon="-5.060217">
        <ele>2201.0</ele>
        <time>2016-06-11T13:48:07Z</time>
      </trkpt>
      <trkpt lat="40.507717" lon="-5.060133">
        <ele>2201.0</ele>
        <time>2016-06-11T13:48:08Z</time>
      </trkpt>
      <trkpt lat="40.507633" lon="-5.060017">
        <ele>2201.0</ele>
        <time>2016-06-11T13:48:09Z</time>
      </trkpt>
      <trkpt lat="40.507567" lon="-5.059917">
        <ele>2201.0</ele>
        <time>2016-06-11T13:48:10Z</time>
      </trkpt>
      <trkpt lat="40.507500" lon="-5.059800">
        <ele>2200.0</ele>
        <time>2016-06-11T13:48:11Z</time>
      </trkpt>
      <trkpt lat="40.507417" lon="-5.059667">
        <ele>2200.0</ele>
        <time>2016-06-11T13:48:12Z</time>
      </trkpt>
      <trkpt lat="40.507333" lon="-5.059533">
        <ele>2199.0</ele>
        <time>2016-06-11T13:48:13Z</time>
      </trkpt>
      <trkpt lat="40.507233" lon="-5.059400">
        <ele>2200.0</ele>
        <time>2016-06-11T13:48:14Z</time>
      </trkpt>
      <trkpt lat="40.507150" lon="-5.059267">
        <ele>2202.0</ele>
        <time>2016-06-11T13:48:15Z</time>
      </trkpt>
      <trkpt lat="40.507083" lon="-5.059150">
        <ele>2203.0</ele>
        <time>2016-06-11T13:48:16Z</time>
      </trkpt>
      <trkpt lat="40.507017" lon="-5.059017">
        <ele>2204.0</ele>
        <time>2016-06-11T13:48:17Z</time>
      </trkpt>
      <trkpt lat="40.506933" lon="-5.058900">
        <ele>2204.0</ele>
        <time>2016-06-11T13:48:18Z</time>
      </trkpt>
      <trkpt lat="40.506833" lon="-5.058783">
        <ele>2205.0</ele>
        <time>2016-06-11T13:48:19Z</time>
      </trkpt>
      <trkpt lat="40.506767" lon="-5.058683">
        <ele>2206.0</ele>
        <time>2016-06-11T13:48:20Z</time>
      </trkpt>
      <trkpt lat="40.506700" lon="-5.058567">
        <ele>2207.0</ele>
        <time>2016-06-11T13:48:21Z</time>
      </trkpt>
      <trkpt lat="40.506633" lon="-5.058433">
        <ele>2207.0</ele>
        <time>2016-06-11T13:48:22Z</time>
      </trkpt>
      <trkpt lat="40.506567" lon="-5.058283">
        <ele>2206.0</ele>
        <time>2016-06-11T13:48:23Z</time>
      </trkpt>
      <trkpt lat="40.506483" lon="-5.058133">
        <ele>2206.0</ele>
        <time>2016-06-11T13:48:24Z</time>
      </trkpt>
      <trkpt lat="40.506400" lon="-5.057983">
        <ele>2206.0</ele>
        <time>2016-06-11T13:48:25Z</time>
      </trkpt>
      <trkpt lat="40.506350" lon="-5.057817">
        <ele>2207.0</ele>
        <time>2016-06-11T13:48:26Z</time>
      </trkpt>
      <trkpt lat="40.506300" lon="-5.057650">
        <ele>2210.0</ele>
        <time>2016-06-11T13:48:27Z</time>
      </trkpt>
      <trkpt lat="40.506267" lon="-5.057483">
        <ele>2212.0</ele>
        <time>2016-06-11T13:48:28Z</time>
      </trkpt>
      <trkpt lat="40.506233" lon="-5.057317">
        <ele>2214.0</ele>
        <time>2016-06-11T13:48:29Z</time>
      </trkpt>
      <trkpt lat="40.506217" lon="-5.057133">
        <ele>2215.0</ele>
        <time>2016-06-11T13:48:30Z</time>
      </trkpt>
      <trkpt lat="40.506200" lon="-5.056950">
        <ele>2216.0</ele>
        <time>2016-06-11T13:48:31Z</time>
      </trkpt>
      <trkpt lat="40.506183" lon="-5.056800">
        <ele>2218.0</ele>
        <time>2016-06-11T13:48:32Z</time>
      </trkpt>
      <trkpt lat="40.506167" lon="-5.056650">
        <ele>2219.0</ele>
        <time>2016-06-11T13:48:33Z</time>
      </trkpt>
      <trkpt lat="40.506150" lon="-5.056517">
        <ele>2221.0</ele>
        <time>2016-06-11T13:48:34Z</time>
      </trkpt>
      <trkpt lat="40.506150" lon="-5.056367">
        <ele>2221.0</ele>
        <time>2016-06-11T13:48:35Z</time>
      </trkpt>
      <trkpt lat="40.506150" lon="-5.056217">
        <ele>2220.0</ele>
        <time>2016-06-11T13:48:36Z</time>
      </trkpt>
      <trkpt lat="40.506167" lon="-5.056050">
        <ele>2217.0</ele>
        <time>2016-06-11T13:48:37Z</time>
      </trkpt>
      <trkpt lat="40.506217" lon="-5.055867">
        <ele>2215.0</ele>
        <time>2016-06-11T13:48:38Z</time>
      </trkpt>
      <trkpt lat="40.506250" lon="-5.055683">
        <ele>2214.0</ele>
        <time>2016-06-11T13:48:39Z</time>
      </trkpt>
      <trkpt lat="40.506300" lon="-5.055500">
        <ele>2215.0</ele>
        <time>2016-06-11T13:48:40Z</time>
      </trkpt>
      <trkpt lat="40.506333" lon="-5.055350">
        <ele>2217.0</ele>
        <time>2016-06-11T13:48:41Z</time>
      </trkpt>
      <trkpt lat="40.506367" lon="-5.055217">
        <ele>2220.0</ele>
        <time>2016-06-11T13:48:42Z</time>
      </trkpt>
      <trkpt lat="40.506400" lon="-5.055083">
        <ele>2222.0</ele>
        <time>2016-06-11T13:48:43Z</time>
      </trkpt>
      <trkpt lat="40.506417" lon="-5.054933">
        <ele>2224.0</ele>
        <time>2016-06-11T13:48:44Z</time>
      </trkpt>
      <trkpt lat="40.506450" lon="-5.054800">
        <ele>2225.0</ele>
        <time>2016-06-11T13:48:45Z</time>
      </trkpt>
      <trkpt lat="40.506483" lon="-5.054683">
        <ele>2226.0</ele>
        <time>2016-06-11T13:48:46Z</time>
      </trkpt>
      <trkpt lat="40.506517" lon="-5.054583">
        <ele>2227.0</ele>
        <time>2016-06-11T13:48:47Z</time>
      </trkpt>
      <trkpt lat="40.506533" lon="-5.054500">
        <ele>2229.0</ele>
        <time>2016-06-11T13:48:48Z</time>
      </trkpt>
      <trkpt lat="40.506567" lon="-5.054383">
        <ele>2230.0</ele>
        <time>2016-06-11T13:48:49Z</time>
      </trkpt>
      <trkpt lat="40.506583" lon="-5.054250">
        <ele>2230.0</ele>
        <time>2016-06-11T13:48:50Z</time>
      </trkpt>
      <trkpt lat="40.506617" lon="-5.054133">
        <ele>2230.0</ele>
        <time>2016-06-11T13:48:51Z</time>
      </trkpt>
      <trkpt lat="40.506667" lon="-5.054017">
        <ele>2231.0</ele>
        <time>2016-06-11T13:48:52Z</time>
      </trkpt>
      <trkpt lat="40.506717" lon="-5.053933">
        <ele>2232.0</ele>
        <time>2016-06-11T13:48:53Z</time>
      </trkpt>
      <trkpt lat="40.506767" lon="-5.053867">
        <ele>2232.0</ele>
        <time>2016-06-11T13:48:54Z</time>
      </trkpt>
      <trkpt lat="40.506800" lon="-5.053783">
        <ele>2233.0</ele>
        <time>2016-06-11T13:48:55Z</time>
      </trkpt>
      <trkpt lat="40.506850" lon="-5.053700">
        <ele>2233.0</ele>
        <time>2016-06-11T13:48:56Z</time>
      </trkpt>
      <trkpt lat="40.506883" lon="-5.053600">
        <ele>2232.0</ele>
        <time>2016-06-11T13:48:57Z</time>
      </trkpt>
      <trkpt lat="40.506950" lon="-5.053500">
        <ele>2231.0</ele>
        <time>2016-06-11T13:48:58Z</time>
      </trkpt>
      <trkpt lat="40.507017" lon="-5.053417">
        <ele>2229.0</ele>
        <time>2016-06-11T13:48:59Z</time>
      </trkpt>
      <trkpt lat="40.507083" lon="-5.053367">
        <ele>2228.0</ele>
        <time>2016-06-11T13:49:00Z</time>
      </trkpt>
      <trkpt lat="40.507133" lon="-5.053333">
        <ele>2226.0</ele>
        <time>2016-06-11T13:49:01Z</time>
      </trkpt>
      <trkpt lat="40.507200" lon="-5.053300">
        <ele>2225.0</ele>
        <time>2016-06-11T13:49:02Z</time>
      </trkpt>
      <trkpt lat="40.507250" lon="-5.053250">
        <ele>2224.0</ele>
        <time>2016-06-11T13:49:03Z</time>
      </trkpt>
      <trkpt lat="40.507283" lon="-5.053217">
        <ele>2224.0</ele>
        <time>2016-06-11T13:49:04Z</time>
      </trkpt>
      <trkpt lat="40.507333" lon="-5.053167">
        <ele>2223.0</ele>
        <time>2016-06-11T13:49:05Z</time>
      </trkpt>
      <trkpt lat="40.507367" lon="-5.053150">
        <ele>2220.0</ele>
        <time>2016-06-11T13:49:06Z</time>
      </trkpt>
      <trkpt lat="40.507417" lon="-5.053133">
        <ele>2218.0</ele>
        <time>2016-06-11T13:49:07Z</time>
      </trkpt>
      <trkpt lat="40.507467" lon="-5.053150">
        <ele>2215.0</ele>
        <time>2016-06-11T13:49:08Z</time>
      </trkpt>
      <trkpt lat="40.507517" lon="-5.053150">
        <ele>2214.0</ele>
        <time>2016-06-11T13:49:09Z</time>
      </trkpt>
      <trkpt lat="40.507550" lon="-5.053150">
        <ele>2212.0</ele>
        <time>2016-06-11T13:49:10Z</time>
      </trkpt>
      <trkpt lat="40.507600" lon="-5.053117">
        <ele>2210.0</ele>
        <time>2016-06-11T13:49:11Z</time>
      </trkpt>
      <trkpt lat="40.507650" lon="-5.053083">
        <ele>2207.0</ele>
        <time>2016-06-11T13:49:12Z</time>
      </trkpt>
      <trkpt lat="40.507717" lon="-5.053033">
        <ele>2205.0</ele>
        <time>2016-06-11T13:49:13Z</time>
      </trkpt>
      <trkpt lat="40.507783" lon="-5.052967">
        <ele>2204.0</ele>
        <time>2016-06-11T13:49:14Z</time>
      </trkpt>
      <trkpt lat="40.507833" lon="-5.052867">
        <ele>2204.0</ele>
        <time>2016-06-11T13:49:15Z</time>
      </trkpt>
      <trkpt lat="40.507883" lon="-5.052733">
        <ele>2204.0</ele>
        <time>2016-06-11T13:49:16Z</time>
      </trkpt>
      <trkpt lat="40.507917" lon="-5.052600">
        <ele>2203.0</ele>
        <time>2016-06-11T13:49:17Z</time>
      </trkpt>
      <trkpt lat="40.507950" lon="-5.052467">
        <ele>2202.0</ele>
        <time>2016-06-11T13:49:18Z</time>
      </trkpt>
      <trkpt lat="40.508000" lon="-5.052333">
        <ele>2201.0</ele>
        <time>2016-06-11T13:49:19Z</time>
      </trkpt>
      <trkpt lat="40.508050" lon="-5.052200">
        <ele>2198.0</ele>
        <time>2016-06-11T13:49:20Z</time>
      </trkpt>
      <trkpt lat="40.508100" lon="-5.052033">
        <ele>2196.0</ele>
        <time>2016-06-11T13:49:21Z</time>
      </trkpt>
      <trkpt lat="40.508133" lon="-5.051867">
        <ele>2194.0</ele>
        <time>2016-06-11T13:49:22Z</time>
      </trkpt>
      <trkpt lat="40.508167" lon="-5.051717">
        <ele>2193.0</ele>
        <time>2016-06-11T13:49:23Z</time>
      </trkpt>
      <trkpt lat="40.508183" lon="-5.051600">
        <ele>2192.0</ele>
        <time>2016-06-11T13:49:24Z</time>
      </trkpt>
      <trkpt lat="40.508200" lon="-5.051467">
        <ele>2191.0</ele>
        <time>2016-06-11T13:49:25Z</time>
      </trkpt>
      <trkpt lat="40.508217" lon="-5.051350">
        <ele>2188.0</ele>
        <time>2016-06-11T13:49:26Z</time>
      </trkpt>
      <trkpt lat="40.508250" lon="-5.051217">
        <ele>2186.0</ele>
        <time>2016-06-11T13:49:27Z</time>
      </trkpt>
      <trkpt lat="40.508283" lon="-5.051067">
        <ele>2182.0</ele>
        <time>2016-06-11T13:49:28Z</time>
      </trkpt>
      <trkpt lat="40.508333" lon="-5.050933">
        <ele>2178.0</ele>
        <time>2016-06-11T13:49:29Z</time>
      </trkpt>
      <trkpt lat="40.508383" lon="-5.050800">
        <ele>2175.0</ele>
        <time>2016-06-11T13:49:30Z</time>
      </trkpt>
      <trkpt lat="40.508433" lon="-5.050667">
        <ele>2173.0</ele>
        <time>2016-06-11T13:49:31Z</time>
      </trkpt>
      <trkpt lat="40.508483" lon="-5.050533">
        <ele>2171.0</ele>
        <time>2016-06-11T13:49:32Z</time>
      </trkpt>
      <trkpt lat="40.508517" lon="-5.050400">
        <ele>2169.0</ele>
        <time>2016-06-11T13:49:33Z</time>
      </trkpt>
      <trkpt lat="40.508550" lon="-5.050250">
        <ele>2168.0</ele>
        <time>2016-06-11T13:49:34Z</time>
      </trkpt>
      <trkpt lat="40.508600" lon="-5.050100">
        <ele>2166.0</ele>
        <time>2016-06-11T13:49:35Z</time>
      </trkpt>
      <trkpt lat="40.508650" lon="-5.049967">
        <ele>2164.0</ele>
        <time>2016-06-11T13:49:36Z</time>
      </trkpt>
      <trkpt lat="40.508717" lon="-5.049867">
        <ele>2163.0</ele>
        <time>2016-06-11T13:49:37Z</time>
      </trkpt>
      <trkpt lat="40.508783" lon="-5.049767">
        <ele>2163.0</ele>
        <time>2016-06-11T13:49:38Z</time>
      </trkpt>
      <trkpt lat="40.508850" lon="-5.049667">
        <ele>2163.0</ele>
        <time>2016-06-11T13:49:39Z</time>
      </trkpt>
      <trkpt lat="40.508900" lon="-5.049567">
        <ele>2164.0</ele>
        <time>2016-06-11T13:49:40Z</time>
      </trkpt>
      <trkpt lat="40.508950" lon="-5.049467">
        <ele>2166.0</ele>
        <time>2016-06-11T13:49:41Z</time>
      </trkpt>
      <trkpt lat="40.509000" lon="-5.049350">
        <ele>2166.0</ele>
        <time>2016-06-11T13:49:42Z</time>
      </trkpt>
      <trkpt lat="40.509050" lon="-5.049233">
        <ele>2165.0</ele>
        <time>2016-06-11T13:49:43Z</time>
      </trkpt>
      <trkpt lat="40.509100" lon="-5.049117">
        <ele>2165.0</ele>
        <time>2016-06-11T13:49:44Z</time>
      </trkpt>
      <trkpt lat="40.509150" lon="-5.049017">
        <ele>2164.0</ele>
        <time>2016-06-11T13:49:45Z</time>
      </trkpt>
      <trkpt lat="40.509200" lon="-5.048900">
        <ele>2164.0</ele>
        <time>2016-06-11T13:49:46Z</time>
      </trkpt>
      <trkpt lat="40.509250" lon="-5.048783">
        <ele>2164.0</ele>
        <time>2016-06-11T13:49:47Z</time>
      </trkpt>
      <trkpt lat="40.509283" lon="-5.048667">
        <ele>2163.0</ele>
        <time>2016-06-11T13:49:48Z</time>
      </trkpt>
      <trkpt lat="40.509333" lon="-5.048533">
        <ele>2162.0</ele>
        <time>2016-06-11T13:49:49Z</time>
      </trkpt>
      <trkpt lat="40.509367" lon="-5.048417">
        <ele>2161.0</ele>
        <time>2016-06-11T13:49:50Z</time>
      </trkpt>
      <trkpt lat="40.509433" lon="-5.048300">
        <ele>2159.0</ele>
        <time>2016-06-11T13:49:51Z</time>
      </trkpt>
      <trkpt lat="40.509500" lon="-5.048200">
        <ele>2156.0</ele>
        <time>2016-06-11T13:49:52Z</time>
      </trkpt>
      <trkpt lat="40.509567" lon="-5.048083">
        <ele>2154.0</ele>
        <time>2016-06-11T13:49:53Z</time>
      </trkpt>
      <trkpt lat="40.509650" lon="-5.047967">
        <ele>2152.0</ele>
        <time>2016-06-11T13:49:54Z</time>
      </trkpt>
      <trkpt lat="40.509717" lon="-5.047883">
        <ele>2152.0</ele>
        <time>2016-06-11T13:49:55Z</time>
      </trkpt>
      <trkpt lat="40.509767" lon="-5.047800">
        <ele>2153.0</ele>
        <time>2016-06-11T13:49:56Z</time>
      </trkpt>
      <trkpt lat="40.509800" lon="-5.047700">
        <ele>2153.0</ele>
        <time>2016-06-11T13:49:57Z</time>
      </trkpt>
      <trkpt lat="40.509850" lon="-5.047617">
        <ele>2152.0</ele>
        <time>2016-06-11T13:49:58Z</time>
      </trkpt>
      <trkpt lat="40.509900" lon="-5.047517">
        <ele>2151.0</ele>
        <time>2016-06-11T13:49:59Z</time>
      </trkpt>
      <trkpt lat="40.509950" lon="-5.047433">
        <ele>2150.0</ele>
        <time>2016-06-11T13:50:00Z</time>
      </trkpt>
      <trkpt lat="40.510000" lon="-5.047367">
        <ele>2148.0</ele>
        <time>2016-06-11T13:50:01Z</time>
      </trkpt>
      <trkpt lat="40.510033" lon="-5.047267">
        <ele>2147.0</ele>
        <time>2016-06-11T13:50:02Z</time>
      </trkpt>
      <trkpt lat="40.510100" lon="-5.047167">
        <ele>2146.0</ele>
        <time>2016-06-11T13:50:03Z</time>
      </trkpt>
      <trkpt lat="40.510167" lon="-5.047067">
        <ele>2145.0</ele>
        <time>2016-06-11T13:50:04Z</time>
      </trkpt>
      <trkpt lat="40.510233" lon="-5.046983">
        <ele>2145.0</ele>
        <time>2016-06-11T13:50:05Z</time>
      </trkpt>
      <trkpt lat="40.510300" lon="-5.046933">
        <ele>2146.0</ele>
        <time>2016-06-11T13:50:06Z</time>
      </trkpt>
      <trkpt lat="40.510367" lon="-5.046883">
        <ele>2146.0</ele>
        <time>2016-06-11T13:50:07Z</time>
      </trkpt>
      <trkpt lat="40.510417" lon="-5.046833">
        <ele>2147.0</ele>
        <time>2016-06-11T13:50:08Z</time>
      </trkpt>
      <trkpt lat="40.510483" lon="-5.046750">
        <ele>2148.0</ele>
        <time>2016-06-11T13:50:09Z</time>
      </trkpt>
      <trkpt lat="40.510550" lon="-5.046633">
        <ele>2148.0</ele>
        <time>2016-06-11T13:50:10Z</time>
      </trkpt>
      <trkpt lat="40.510617" lon="-5.046517">
        <ele>2148.0</ele>
        <time>2016-06-11T13:50:11Z</time>
      </trkpt>
      <trkpt lat="40.510683" lon="-5.046417">
        <ele>2148.0</ele>
        <time>2016-06-11T13:50:12Z</time>
      </trkpt>
      <trkpt lat="40.510750" lon="-5.046317">
        <ele>2148.0</ele>
        <time>2016-06-11T13:50:13Z</time>
      </trkpt>
      <trkpt lat="40.510817" lon="-5.046233">
        <ele>2148.0</ele>
        <time>2016-06-11T13:50:14Z</time>
      </trkpt>
      <trkpt lat="40.510883" lon="-5.046167">
        <ele>2147.0</ele>
        <time>2016-06-11T13:50:15Z</time>
      </trkpt>
      <trkpt lat="40.510933" lon="-5.046100">
        <ele>2147.0</ele>
        <time>2016-06-11T13:50:16Z</time>
      </trkpt>
      <trkpt lat="40.511000" lon="-5.046033">
        <ele>2147.0</ele>
        <time>2016-06-11T13:50:17Z</time>
      </trkpt>
      <trkpt lat="40.511050" lon="-5.045967">
        <ele>2147.0</ele>
        <time>2016-06-11T13:50:18Z</time>
      </trkpt>
      <trkpt lat="40.511117" lon="-5.045900">
        <ele>2145.0</ele>
        <time>2016-06-11T13:50:19Z</time>
      </trkpt>
      <trkpt lat="40.511183" lon="-5.045833">
        <ele>2144.0</ele>
        <time>2016-06-11T13:50:20Z</time>
      </trkpt>
      <trkpt lat="40.511250" lon="-5.045783">
        <ele>2143.0</ele>
        <time>2016-06-11T13:50:21Z</time>
      </trkpt>
      <trkpt lat="40.511317" lon="-5.045733">
        <ele>2143.0</ele>
        <time>2016-06-11T13:50:22Z</time>
      </trkpt>
      <trkpt lat="40.511367" lon="-5.045667">
        <ele>2143.0</ele>
        <time>2016-06-11T13:50:23Z</time>
      </trkpt>
      <trkpt lat="40.511417" lon="-5.045600">
        <ele>2143.0</ele>
        <time>2016-06-11T13:50:24Z</time>
      </trkpt>
      <trkpt lat="40.511450" lon="-5.045517">
        <ele>2143.0</ele>
        <time>2016-06-11T13:50:25Z</time>
      </trkpt>
      <trkpt lat="40.511500" lon="-5.045417">
        <ele>2141.0</ele>
        <time>2016-06-11T13:50:26Z</time>
      </trkpt>
      <trkpt lat="40.511550" lon="-5.045300">
        <ele>2140.0</ele>
        <time>2016-06-11T13:50:27Z</time>
      </trkpt>
      <trkpt lat="40.511617" lon="-5.045183">
        <ele>2137.0</ele>
        <time>2016-06-11T13:50:28Z</time>
      </trkpt>
      <trkpt lat="40.511683" lon="-5.045050">
        <ele>2135.0</ele>
        <time>2016-06-11T13:50:29Z</time>
      </trkpt>
      <trkpt lat="40.511733" lon="-5.044900">
        <ele>2134.0</ele>
        <time>2016-06-11T13:50:30Z</time>
      </trkpt>
      <trkpt lat="40.511767" lon="-5.044733">
        <ele>2133.0</ele>
        <time>2016-06-11T13:50:31Z</time>
      </trkpt>
      <trkpt lat="40.511817" lon="-5.044567">
        <ele>2132.0</ele>
        <time>2016-06-11T13:50:32Z</time>
      </trkpt>
      <trkpt lat="40.511850" lon="-5.044417">
        <ele>2132.0</ele>
        <time>2016-06-11T13:50:33Z</time>
      </trkpt>
      <trkpt lat="40.511900" lon="-5.044267">
        <ele>2133.0</ele>
        <time>2016-06-11T13:50:34Z</time>
      </trkpt>
      <trkpt lat="40.511933" lon="-5.044133">
        <ele>2134.0</ele>
        <time>2016-06-11T13:50:35Z</time>
      </trkpt>
      <trkpt lat="40.511983" lon="-5.043983">
        <ele>2134.0</ele>
        <time>2016-06-11T13:50:36Z</time>
      </trkpt>
      <trkpt lat="40.512017" lon="-5.043833">
        <ele>2135.0</ele>
        <time>2016-06-11T13:50:37Z</time>
      </trkpt>
      <trkpt lat="40.512067" lon="-5.043700">
        <ele>2135.0</ele>
        <time>2016-06-11T13:50:38Z</time>
      </trkpt>
      <trkpt lat="40.512100" lon="-5.043567">
        <ele>2136.0</ele>
        <time>2016-06-11T13:50:39Z</time>
      </trkpt>
      <trkpt lat="40.512150" lon="-5.043433">
        <ele>2138.0</ele>
        <time>2016-06-11T13:50:40Z</time>
      </trkpt>
      <trkpt lat="40.512183" lon="-5.043317">
        <ele>2140.0</ele>
        <time>2016-06-11T13:50:41Z</time>
      </trkpt>
      <trkpt lat="40.512200" lon="-5.043200">
        <ele>2142.0</ele>
        <time>2016-06-11T13:50:42Z</time>
      </trkpt>
      <trkpt lat="40.512233" lon="-5.043067">
        <ele>2143.0</ele>
        <time>2016-06-11T13:50:43Z</time>
      </trkpt>
      <trkpt lat="40.512267" lon="-5.042933">
        <ele>2143.0</ele>
        <time>2016-06-11T13:50:44Z</time>
      </trkpt>
      <trkpt lat="40.512317" lon="-5.042817">
        <ele>2144.0</ele>
        <time>2016-06-11T13:50:45Z</time>
      </trkpt>
      <trkpt lat="40.512367" lon="-5.042717">
        <ele>2145.0</ele>
        <time>2016-06-11T13:50:46Z</time>
      </trkpt>
      <trkpt lat="40.512400" lon="-5.042617">
        <ele>2146.0</ele>
        <time>2016-06-11T13:50:47Z</time>
      </trkpt>
      <trkpt lat="40.512450" lon="-5.042517">
        <ele>2146.0</ele>
        <time>2016-06-11T13:50:48Z</time>
      </trkpt>
      <trkpt lat="40.512517" lon="-5.042433">
        <ele>2146.0</ele>
        <time>2016-06-11T13:50:49Z</time>
      </trkpt>
      <trkpt lat="40.512583" lon="-5.042367">
        <ele>2146.0</ele>
        <time>2016-06-11T13:50:50Z</time>
      </trkpt>
      <trkpt lat="40.512650" lon="-5.042333">
        <ele>2147.0</ele>
        <time>2016-06-11T13:50:51Z</time>
      </trkpt>
      <trkpt lat="40.512700" lon="-5.042300">
        <ele>2147.0</ele>
        <time>2016-06-11T13:50:52Z</time>
      </trkpt>
      <trkpt lat="40.512750" lon="-5.042267">
        <ele>2148.0</ele>
        <time>2016-06-11T13:50:53Z</time>
      </trkpt>
      <trkpt lat="40.512800" lon="-5.042250">
        <ele>2149.0</ele>
        <time>2016-06-11T13:50:54Z</time>
      </trkpt>
      <trkpt lat="40.512850" lon="-5.042250">
        <ele>2149.0</ele>
        <time>2016-06-11T13:50:55Z</time>
      </trkpt>
      <trkpt lat="40.512900" lon="-5.042267">
        <ele>2149.0</ele>
        <time>2016-06-11T13:50:56Z</time>
      </trkpt>
      <trkpt lat="40.512933" lon="-5.042283">
        <ele>2148.0</ele>
        <time>2016-06-11T13:50:57Z</time>
      </trkpt>
      <trkpt lat="40.512933" lon="-5.042317">
        <ele>2148.0</ele>
        <time>2016-06-11T13:50:58Z</time>
      </trkpt>
      <trkpt lat="40.512917" lon="-5.042367">
        <ele>2148.0</ele>
        <time>2016-06-11T13:50:59Z</time>
      </trkpt>
      <trkpt lat="40.512900" lon="-5.042417">
        <ele>2148.0</ele>
        <time>2016-06-11T13:51:00Z</time>
      </trkpt>
      <trkpt lat="40.512850" lon="-5.042467">
        <ele>2148.0</ele>
        <time>2016-06-11T13:51:01Z</time>
      </trkpt>
      <trkpt lat="40.512817" lon="-5.042500">
        <ele>2149.0</ele>
        <time>2016-06-11T13:51:02Z</time>
      </trkpt>
      <trkpt lat="40.512750" lon="-5.042550">
        <ele>2151.0</ele>
        <time>2016-06-11T13:51:03Z</time>
      </trkpt>
      <trkpt lat="40.512667" lon="-5.042600">
        <ele>2152.0</ele>
        <time>2016-06-11T13:51:04Z</time>
      </trkpt>
      <trkpt lat="40.512583" lon="-5.042650">
        <ele>2153.0</ele>
        <time>2016-06-11T13:51:05Z</time>
      </trkpt>
      <trkpt lat="40.512517" lon="-5.042667">
        <ele>2155.0</ele>
        <time>2016-06-11T13:51:06Z</time>
      </trkpt>
      <trkpt lat="40.512450" lon="-5.042700">
        <ele>2157.0</ele>
        <time>2016-06-11T13:51:07Z</time>
      </trkpt>
      <trkpt lat="40.512383" lon="-5.042717">
        <ele>2159.0</ele>
        <time>2016-06-11T13:51:08Z</time>
      </trkpt>
      <trkpt lat="40.512300" lon="-5.042733">
        <ele>2160.0</ele>
        <time>2016-06-11T13:51:09Z</time>
      </trkpt>
      <trkpt lat="40.512217" lon="-5.042750">
        <ele>2161.0</ele>
        <time>2016-06-11T13:51:10Z</time>
      </trkpt>
      <trkpt lat="40.512133" lon="-5.042750">
        <ele>2161.0</ele>
        <time>2016-06-11T13:51:11Z</time>
      </trkpt>
      <trkpt lat="40.512050" lon="-5.042750">
        <ele>2162.0</ele>
        <time>2016-06-11T13:51:12Z</time>
      </trkpt>
      <trkpt lat="40.511950" lon="-5.042717">
        <ele>2163.0</ele>
        <time>2016-06-11T13:51:13Z</time>
      </trkpt>
      <trkpt lat="40.511850" lon="-5.042683">
        <ele>2164.0</ele>
        <time>2016-06-11T13:51:14Z</time>
      </trkpt>
      <trkpt lat="40.511750" lon="-5.042650">
        <ele>2165.0</ele>
        <time>2016-06-11T13:51:15Z</time>
      </trkpt>
      <trkpt lat="40.511633" lon="-5.042600">
        <ele>2165.0</ele>
        <time>2016-06-11T13:51:16Z</time>
      </trkpt>
      <trkpt lat="40.511533" lon="-5.042550">
        <ele>2166.0</ele>
        <time>2016-06-11T13:51:17Z</time>
      </trkpt>
      <trkpt lat="40.511433" lon="-5.042467">
        <ele>2167.0</ele>
        <time>2016-06-11T13:51:18Z</time>
      </trkpt>
      <trkpt lat="40.511317" lon="-5.042383">
        <ele>2167.0</ele>
        <time>2016-06-11T13:51:19Z</time>
      </trkpt>
      <trkpt lat="40.511217" lon="-5.042300">
        <ele>2168.0</ele>
        <time>2016-06-11T13:51:20Z</time>
      </trkpt>
      <trkpt lat="40.511100" lon="-5.042200">
        <ele>2168.0</ele>
        <time>2016-06-11T13:51:21Z</time>
      </trkpt>
      <trkpt lat="40.511000" lon="-5.042083">
        <ele>2168.0</ele>
        <time>2016-06-11T13:51:22Z</time>
      </trkpt>
      <trkpt lat="40.510900" lon="-5.041950">
        <ele>2169.0</ele>
        <time>2016-06-11T13:51:23Z</time>
      </trkpt>
      <trkpt lat="40.510833" lon="-5.041800">
        <ele>2169.0</ele>
        <time>2016-06-11T13:51:24Z</time>
      </trkpt>
      <trkpt lat="40.510767" lon="-5.041633">
        <ele>2168.0</ele>
        <time>2016-06-11T13:51:25Z</time>
      </trkpt>
      <trkpt lat="40.510717" lon="-5.041467">
        <ele>2168.0</ele>
        <time>2016-06-11T13:51:26Z</time>
      </trkpt>
      <trkpt lat="40.510667" lon="-5.041300">
        <ele>2169.0</ele>
        <time>2016-06-11T13:51:27Z</time>
      </trkpt>
      <trkpt lat="40.510650" lon="-5.041117">
        <ele>2168.0</ele>
        <time>2016-06-11T13:51:28Z</time>
      </trkpt>
      <trkpt lat="40.510633" lon="-5.040950">
        <ele>2168.0</ele>
        <time>2016-06-11T13:51:29Z</time>
      </trkpt>
      <trkpt lat="40.510650" lon="-5.040767">
        <ele>2168.0</ele>
        <time>2016-06-11T13:51:30Z</time>
      </trkpt>
      <trkpt lat="40.510683" lon="-5.040600">
        <ele>2167.0</ele>
        <time>2016-06-11T13:51:31Z</time>
      </trkpt>
      <trkpt lat="40.510717" lon="-5.040450">
        <ele>2167.0</ele>
        <time>2016-06-11T13:51:32Z</time>
      </trkpt>
      <trkpt lat="40.510783" lon="-5.040317">
        <ele>2167.0</ele>
        <time>2016-06-11T13:51:33Z</time>
      </trkpt>
      <trkpt lat="40.510833" lon="-5.040200">
        <ele>2167.0</ele>
        <time>2016-06-11T13:51:34Z</time>
      </trkpt>
      <trkpt lat="40.510883" lon="-5.040083">
        <ele>2167.0</ele>
        <time>2016-06-11T13:51:35Z</time>
      </trkpt>
      <trkpt lat="40.510950" lon="-5.039983">
        <ele>2167.0</ele>
        <time>2016-06-11T13:51:36Z</time>
      </trkpt>
      <trkpt lat="40.511017" lon="-5.039883">
        <ele>2168.0</ele>
        <time>2016-06-11T13:51:37Z</time>
      </trkpt>
      <trkpt lat="40.511067" lon="-5.039783">
        <ele>2169.0</ele>
        <time>2016-06-11T13:51:38Z</time>
      </trkpt>
      <trkpt lat="40.511117" lon="-5.039700">
        <ele>2170.0</ele>
        <time>2016-06-11T13:51:39Z</time>
      </trkpt>
      <trkpt lat="40.511150" lon="-5.039617">
        <ele>2172.0</ele>
        <time>2016-06-11T13:51:40Z</time>
      </trkpt>
      <trkpt lat="40.511183" lon="-5.039550">
        <ele>2172.0</ele>
        <time>2016-06-11T13:51:41Z</time>
      </trkpt>
      <trkpt lat="40.511233" lon="-5.039467">
        <ele>2170.0</ele>
        <time>2016-06-11T13:51:42Z</time>
      </trkpt>
      <trkpt lat="40.511300" lon="-5.039383">
        <ele>2168.0</ele>
        <time>2016-06-11T13:51:43Z</time>
      </trkpt>
      <trkpt lat="40.511367" lon="-5.039317">
        <ele>2168.0</ele>
        <time>2016-06-11T13:51:44Z</time>
      </trkpt>
      <trkpt lat="40.511400" lon="-5.039267">
        <ele>2171.0</ele>
        <time>2016-06-11T13:51:45Z</time>
      </trkpt>
      <trkpt lat="40.511417" lon="-5.039233">
        <ele>2172.0</ele>
        <time>2016-06-11T13:51:46Z</time>
      </trkpt>
      <trkpt lat="40.511450" lon="-5.039200">
        <ele>2173.0</ele>
        <time>2016-06-11T13:51:47Z</time>
      </trkpt>
      <trkpt lat="40.511500" lon="-5.039167">
        <ele>2173.0</ele>
        <time>2016-06-11T13:51:48Z</time>
      </trkpt>
      <trkpt lat="40.511550" lon="-5.039117">
        <ele>2175.0</ele>
        <time>2016-06-11T13:51:49Z</time>
      </trkpt>
      <trkpt lat="40.511583" lon="-5.039083">
        <ele>2176.0</ele>
        <time>2016-06-11T13:51:50Z</time>
      </trkpt>
      <trkpt lat="40.511633" lon="-5.039067">
        <ele>2178.0</ele>
        <time>2016-06-11T13:51:51Z</time>
      </trkpt>
      <trkpt lat="40.511683" lon="-5.039033">
        <ele>2180.0</ele>
        <time>2016-06-11T13:51:52Z</time>
      </trkpt>
      <trkpt lat="40.511717" lon="-5.039000">
        <ele>2183.0</ele>
        <time>2016-06-11T13:51:53Z</time>
      </trkpt>
      <trkpt lat="40.511767" lon="-5.038967">
        <ele>2185.0</ele>
        <time>2016-06-11T13:51:54Z</time>
      </trkpt>
      <trkpt lat="40.511800" lon="-5.038917">
        <ele>2187.0</ele>
        <time>2016-06-11T13:51:55Z</time>
      </trkpt>
      <trkpt lat="40.511833" lon="-5.038883">
        <ele>2188.0</ele>
        <time>2016-06-11T13:51:56Z</time>
      </trkpt>
      <trkpt lat="40.511883" lon="-5.038850">
        <ele>2189.0</ele>
        <time>2016-06-11T13:51:57Z</time>
      </trkpt>
      <trkpt lat="40.511917" lon="-5.038817">
        <ele>2189.0</ele>
        <time>2016-06-11T13:51:58Z</time>
      </trkpt>
      <trkpt lat="40.511967" lon="-5.038800">
        <ele>2191.0</ele>
        <time>2016-06-11T13:51:59Z</time>
      </trkpt>
      <trkpt lat="40.512000" lon="-5.038783">
        <ele>2191.0</ele>
        <time>2016-06-11T13:52:00Z</time>
      </trkpt>
      <trkpt lat="40.512033" lon="-5.038783">
        <ele>2191.0</ele>
        <time>2016-06-11T13:52:01Z</time>
      </trkpt>
      <trkpt lat="40.512067" lon="-5.038817">
        <ele>2192.0</ele>
        <time>2016-06-11T13:52:02Z</time>
      </trkpt>
      <trkpt lat="40.512083" lon="-5.038833">
        <ele>2192.0</ele>
        <time>2016-06-11T13:52:03Z</time>
      </trkpt>
      <trkpt lat="40.512100" lon="-5.038867">
        <ele>2193.0</ele>
        <time>2016-06-11T13:52:04Z</time>
      </trkpt>
      <trkpt lat="40.512117" lon="-5.038900">
        <ele>2194.0</ele>
        <time>2016-06-11T13:52:05Z</time>
      </trkpt>
      <trkpt lat="40.512133" lon="-5.038950">
        <ele>2194.0</ele>
        <time>2016-06-11T13:52:06Z</time>
      </trkpt>
      <trkpt lat="40.512150" lon="-5.039000">
        <ele>2195.0</ele>
        <time>2016-06-11T13:52:07Z</time>
      </trkpt>
      <trkpt lat="40.512150" lon="-5.039050">
        <ele>2196.0</ele>
        <time>2016-06-11T13:52:08Z</time>
      </trkpt>
      <trkpt lat="40.512133" lon="-5.039100">
        <ele>2198.0</ele>
        <time>2016-06-11T13:52:09Z</time>
      </trkpt>
      <trkpt lat="40.512117" lon="-5.039150">
        <ele>2199.0</ele>
        <time>2016-06-11T13:52:10Z</time>
      </trkpt>
      <trkpt lat="40.512100" lon="-5.039217">
        <ele>2200.0</ele>
        <time>2016-06-11T13:52:11Z</time>
      </trkpt>
      <trkpt lat="40.512067" lon="-5.039267">
        <ele>2202.0</ele>
        <time>2016-06-11T13:52:12Z</time>
      </trkpt>
      <trkpt lat="40.512033" lon="-5.039317">
        <ele>2204.0</ele>
        <time>2016-06-11T13:52:13Z</time>
      </trkpt>
      <trkpt lat="40.512000" lon="-5.039350">
        <ele>2206.0</ele>
        <time>2016-06-11T13:52:14Z</time>
      </trkpt>
      <trkpt lat="40.511967" lon="-5.039367">
        <ele>2208.0</ele>
        <time>2016-06-11T13:52:15Z</time>
      </trkpt>
      <trkpt lat="40.511917" lon="-5.039400">
        <ele>2209.0</ele>
        <time>2016-06-11T13:52:16Z</time>
      </trkpt>
      <trkpt lat="40.511867" lon="-5.039433">
        <ele>2209.0</ele>
        <time>2016-06-11T13:52:17Z</time>
      </trkpt>
      <trkpt lat="40.511817" lon="-5.039483">
        <ele>2210.0</ele>
        <time>2016-06-11T13:52:18Z</time>
      </trkpt>
      <trkpt lat="40.511767" lon="-5.039517">
        <ele>2211.0</ele>
        <time>2016-06-11T13:52:19Z</time>
      </trkpt>
      <trkpt lat="40.511700" lon="-5.039533">
        <ele>2212.0</ele>
        <time>2016-06-11T13:52:20Z</time>
      </trkpt>
      <trkpt lat="40.511633" lon="-5.039533">
        <ele>2212.0</ele>
        <time>2016-06-11T13:52:21Z</time>
      </trkpt>
      <trkpt lat="40.511567" lon="-5.039550">
        <ele>2211.0</ele>
        <time>2016-06-11T13:52:22Z</time>
      </trkpt>
      <trkpt lat="40.511483" lon="-5.039533">
        <ele>2210.0</ele>
        <time>2016-06-11T13:52:23Z</time>
      </trkpt>
      <trkpt lat="40.511383" lon="-5.039517">
        <ele>2210.0</ele>
        <time>2016-06-11T13:52:24Z</time>
      </trkpt>
      <trkpt lat="40.511267" lon="-5.039433">
        <ele>2209.0</ele>
        <time>2016-06-11T13:52:25Z</time>
      </trkpt>
      <trkpt lat="40.511167" lon="-5.039317">
        <ele>2209.0</ele>
        <time>2016-06-11T13:52:26Z</time>
      </trkpt>
      <trkpt lat="40.511067" lon="-5.039200">
        <ele>2209.0</ele>
        <time>2016-06-11T13:52:27Z</time>
      </trkpt>
      <trkpt lat="40.510983" lon="-5.039067">
        <ele>2210.0</ele>
        <time>2016-06-11T13:52:28Z</time>
      </trkpt>
      <trkpt lat="40.510900" lon="-5.038933">
        <ele>2210.0</ele>
        <time>2016-06-11T13:52:29Z</time>
      </trkpt>
      <trkpt lat="40.510833" lon="-5.038783">
        <ele>2209.0</ele>
        <time>2016-06-11T13:52:30Z</time>
      </trkpt>
      <trkpt lat="40.510767" lon="-5.038583">
        <ele>2208.0</ele>
        <time>2016-06-11T13:52:31Z</time>
      </trkpt>
      <trkpt lat="40.510700" lon="-5.038383">
        <ele>2206.0</ele>
        <time>2016-06-11T13:52:32Z</time>
      </trkpt>
      <trkpt lat="40.510667" lon="-5.038183">
        <ele>2206.0</ele>
        <time>2016-06-11T13:52:33Z</time>
      </trkpt>
      <trkpt lat="40.510650" lon="-5.038000">
        <ele>2207.0</ele>
        <time>2016-06-11T13:52:34Z</time>
      </trkpt>
      <trkpt lat="40.510650" lon="-5.037817">
        <ele>2208.0</ele>
        <time>2016-06-11T13:52:35Z</time>
      </trkpt>
      <trkpt lat="40.510667" lon="-5.037667">
        <ele>2209.0</ele>
        <time>2016-06-11T13:52:36Z</time>
      </trkpt>
      <trkpt lat="40.510683" lon="-5.037500">
        <ele>2211.0</ele>
        <time>2016-06-11T13:52:37Z</time>
      </trkpt>
      <trkpt lat="40.510700" lon="-5.037367">
        <ele>2212.0</ele>
        <time>2016-06-11T13:52:38Z</time>
      </trkpt>
      <trkpt lat="40.510717" lon="-5.037233">
        <ele>2214.0</ele>
        <time>2016-06-11T13:52:39Z</time>
      </trkpt>
      <trkpt lat="40.510733" lon="-5.037117">
        <ele>2216.0</ele>
        <time>2016-06-11T13:52:40Z</time>
      </trkpt>
      <trkpt lat="40.510750" lon="-5.037000">
        <ele>2217.0</ele>
        <time>2016-06-11T13:52:41Z</time>
      </trkpt>
      <trkpt lat="40.510767" lon="-5.036867">
        <ele>2217.0</ele>
        <time>2016-06-11T13:52:42Z</time>
      </trkpt>
      <trkpt lat="40.510783" lon="-5.036750">
        <ele>2217.0</ele>
        <time>2016-06-11T13:52:43Z</time>
      </trkpt>
      <trkpt lat="40.510817" lon="-5.036633">
        <ele>2217.0</ele>
        <time>2016-06-11T13:52:44Z</time>
      </trkpt>
      <trkpt lat="40.510867" lon="-5.036533">
        <ele>2218.0</ele>
        <time>2016-06-11T13:52:45Z</time>
      </trkpt>
      <trkpt lat="40.510883" lon="-5.036433">
        <ele>2219.0</ele>
        <time>2016-06-11T13:52:46Z</time>
      </trkpt>
      <trkpt lat="40.510917" lon="-5.036350">
        <ele>2220.0</ele>
        <time>2016-06-11T13:52:47Z</time>
      </trkpt>
      <trkpt lat="40.510933" lon="-5.036250">
        <ele>2221.0</ele>
        <time>2016-06-11T13:52:48Z</time>
      </trkpt>
      <trkpt lat="40.510967" lon="-5.036150">
        <ele>2220.0</ele>
        <time>2016-06-11T13:52:49Z</time>
      </trkpt>
      <trkpt lat="40.511000" lon="-5.036067">
        <ele>2219.0</ele>
        <time>2016-06-11T13:52:50Z</time>
      </trkpt>
      <trkpt lat="40.511050" lon="-5.036000">
        <ele>2219.0</ele>
        <time>2016-06-11T13:52:51Z</time>
      </trkpt>
      <trkpt lat="40.511067" lon="-5.035933">
        <ele>2219.0</ele>
        <time>2016-06-11T13:52:52Z</time>
      </trkpt>
      <trkpt lat="40.511100" lon="-5.035900">
        <ele>2220.0</ele>
        <time>2016-06-11T13:52:53Z</time>
      </trkpt>
      <trkpt lat="40.511133" lon="-5.035867">
        <ele>2219.0</ele>
        <time>2016-06-11T13:52:54Z</time>
      </trkpt>
      <trkpt lat="40.511183" lon="-5.035817">
        <ele>2218.0</ele>
        <time>2016-06-11T13:52:55Z</time>
      </trkpt>
      <trkpt lat="40.511233" lon="-5.035767">
        <ele>2216.0</ele>
        <time>2016-06-11T13:52:56Z</time>
      </trkpt>
      <trkpt lat="40.511283" lon="-5.035717">
        <ele>2215.0</ele>
        <time>2016-06-11T13:52:57Z</time>
      </trkpt>
      <trkpt lat="40.511333" lon="-5.035683">
        <ele>2214.0</ele>
        <time>2016-06-11T13:52:58Z</time>
      </trkpt>
      <trkpt lat="40.511383" lon="-5.035667">
        <ele>2213.0</ele>
        <time>2016-06-11T13:52:59Z</time>
      </trkpt>
      <trkpt lat="40.511433" lon="-5.035650">
        <ele>2213.0</ele>
        <time>2016-06-11T13:53:00Z</time>
      </trkpt>
      <trkpt lat="40.511467" lon="-5.035633">
        <ele>2213.0</ele>
        <time>2016-06-11T13:53:01Z</time>
      </trkpt>
      <trkpt lat="40.511517" lon="-5.035617">
        <ele>2214.0</ele>
        <time>2016-06-11T13:53:02Z</time>
      </trkpt>
      <trkpt lat="40.511567" lon="-5.035600">
        <ele>2216.0</ele>
        <time>2016-06-11T13:53:03Z</time>
      </trkpt>
      <trkpt lat="40.511600" lon="-5.035583">
        <ele>2216.0</ele>
        <time>2016-06-11T13:53:04Z</time>
      </trkpt>
      <trkpt lat="40.511650" lon="-5.035567">
        <ele>2216.0</ele>
        <time>2016-06-11T13:53:05Z</time>
      </trkpt>
      <trkpt lat="40.511717" lon="-5.035567">
        <ele>2216.0</ele>
        <time>2016-06-11T13:53:06Z</time>
      </trkpt>
      <trkpt lat="40.511767" lon="-5.035533">
        <ele>2215.0</ele>
        <time>2016-06-11T13:53:07Z</time>
      </trkpt>
      <trkpt lat="40.511817" lon="-5.035517">
        <ele>2216.0</ele>
        <time>2016-06-11T13:53:08Z</time>
      </trkpt>
      <trkpt lat="40.511850" lon="-5.035467">
        <ele>2217.0</ele>
        <time>2016-06-11T13:53:09Z</time>
      </trkpt>
      <trkpt lat="40.511883" lon="-5.035433">
        <ele>2217.0</ele>
        <time>2016-06-11T13:53:10Z</time>
      </trkpt>
      <trkpt lat="40.511917" lon="-5.035383">
        <ele>2217.0</ele>
        <time>2016-06-11T13:53:11Z</time>
      </trkpt>
      <trkpt lat="40.511967" lon="-5.035350">
        <ele>2216.0</ele>
        <time>2016-06-11T13:53:12Z</time>
      </trkpt>
      <trkpt lat="40.512017" lon="-5.035283">
        <ele>2215.0</ele>
        <time>2016-06-11T13:53:13Z</time>
      </trkpt>
      <trkpt lat="40.512067" lon="-5.035233">
        <ele>2214.0</ele>
        <time>2016-06-11T13:53:14Z</time>
      </trkpt>
      <trkpt lat="40.512100" lon="-5.035183">
        <ele>2214.0</ele>
        <time>2016-06-11T13:53:15Z</time>
      </trkpt>
      <trkpt lat="40.512133" lon="-5.035150">
        <ele>2215.0</ele>
        <time>2016-06-11T13:53:16Z</time>
      </trkpt>
      <trkpt lat="40.512183" lon="-5.035117">
        <ele>2214.0</ele>
        <time>2016-06-11T13:53:17Z</time>
      </trkpt>
      <trkpt lat="40.512233" lon="-5.035067">
        <ele>2214.0</ele>
        <time>2016-06-11T13:53:18Z</time>
      </trkpt>
      <trkpt lat="40.512267" lon="-5.035017">
        <ele>2214.0</ele>
        <time>2016-06-11T13:53:19Z</time>
      </trkpt>
      <trkpt lat="40.512317" lon="-5.034967">
        <ele>2214.0</ele>
        <time>2016-06-11T13:53:20Z</time>
      </trkpt>
      <trkpt lat="40.512367" lon="-5.034933">
        <ele>2214.0</ele>
        <time>2016-06-11T13:53:21Z</time>
      </trkpt>
      <trkpt lat="40.512400" lon="-5.034933">
        <ele>2214.0</ele>
        <time>2016-06-11T13:53:22Z</time>
      </trkpt>
      <trkpt lat="40.512433" lon="-5.034917">
        <ele>2214.0</ele>
        <time>2016-06-11T13:53:23Z</time>
      </trkpt>
      <trkpt lat="40.512467" lon="-5.034900">
        <ele>2214.0</ele>
        <time>2016-06-11T13:53:24Z</time>
      </trkpt>
      <trkpt lat="40.512500" lon="-5.034850">
        <ele>2213.0</ele>
        <time>2016-06-11T13:53:25Z</time>
      </trkpt>
      <trkpt lat="40.512550" lon="-5.034800">
        <ele>2212.0</ele>
        <time>2016-06-11T13:53:26Z</time>
      </trkpt>
      <trkpt lat="40.512600" lon="-5.034750">
        <ele>2210.0</ele>
        <time>2016-06-11T13:53:27Z</time>
      </trkpt>
      <trkpt lat="40.512650" lon="-5.034750">
        <ele>2207.0</ele>
        <time>2016-06-11T13:53:28Z</time>
      </trkpt>
      <trkpt lat="40.512700" lon="-5.034783">
        <ele>2205.0</ele>
        <time>2016-06-11T13:53:29Z</time>
      </trkpt>
      <trkpt lat="40.512717" lon="-5.034800">
        <ele>2204.0</ele>
        <time>2016-06-11T13:53:30Z</time>
      </trkpt>
      <trkpt lat="40.512750" lon="-5.034783">
        <ele>2205.0</ele>
        <time>2016-06-11T13:53:31Z</time>
      </trkpt>
      <trkpt lat="40.512767" lon="-5.034750">
        <ele>2206.0</ele>
        <time>2016-06-11T13:53:32Z</time>
      </trkpt>
      <trkpt lat="40.512767" lon="-5.034750">
        <ele>2207.0</ele>
        <time>2016-06-11T13:53:33Z</time>
      </trkpt>
      <trkpt lat="40.512783" lon="-5.034767">
        <ele>2206.0</ele>
        <time>2016-06-11T13:53:34Z</time>
      </trkpt>
      <trkpt lat="40.512817" lon="-5.034783">
        <ele>2204.0</ele>
        <time>2016-06-11T13:53:35Z</time>
      </trkpt>
      <trkpt lat="40.512867" lon="-5.034800">
        <ele>2202.0</ele>
        <time>2016-06-11T13:53:36Z</time>
      </trkpt>
      <trkpt lat="40.512917" lon="-5.034783">
        <ele>2202.0</ele>
        <time>2016-06-11T13:53:37Z</time>
      </trkpt>
      <trkpt lat="40.512950" lon="-5.034750">
        <ele>2202.0</ele>
        <time>2016-06-11T13:53:38Z</time>
      </trkpt>
      <trkpt lat="40.512983" lon="-5.034717">
        <ele>2202.0</ele>
        <time>2016-06-11T13:53:39Z</time>
      </trkpt>
      <trkpt lat="40.513017" lon="-5.034717">
        <ele>2203.0</ele>
        <time>2016-06-11T13:53:40Z</time>
      </trkpt>
      <trkpt lat="40.513033" lon="-5.034733">
        <ele>2203.0</ele>
        <time>2016-06-11T13:53:41Z</time>
      </trkpt>
      <trkpt lat="40.513050" lon="-5.034750">
        <ele>2203.0</ele>
        <time>2016-06-11T13:53:42Z</time>
      </trkpt>
      <trkpt lat="40.513050" lon="-5.034783">
        <ele>2204.0</ele>
        <time>2016-06-11T13:53:43Z</time>
      </trkpt>
      <trkpt lat="40.513033" lon="-5.034833">
        <ele>2204.0</ele>
        <time>2016-06-11T13:53:44Z</time>
      </trkpt>
      <trkpt lat="40.513017" lon="-5.034883">
        <ele>2203.0</ele>
        <time>2016-06-11T13:53:45Z</time>
      </trkpt>
      <trkpt lat="40.513000" lon="-5.034950">
        <ele>2203.0</ele>
        <time>2016-06-11T13:53:46Z</time>
      </trkpt>
      <trkpt lat="40.512983" lon="-5.035000">
        <ele>2203.0</ele>
        <time>2016-06-11T13:53:47Z</time>
      </trkpt>
      <trkpt lat="40.512983" lon="-5.035033">
        <ele>2204.0</ele>
        <time>2016-06-11T13:53:48Z</time>
      </trkpt>
      <trkpt lat="40.512967" lon="-5.035083">
        <ele>2205.0</ele>
        <time>2016-06-11T13:53:49Z</time>
      </trkpt>
      <trkpt lat="40.512933" lon="-5.035117">
        <ele>2204.0</ele>
        <time>2016-06-11T13:53:50Z</time>
      </trkpt>
      <trkpt lat="40.512917" lon="-5.035167">
        <ele>2204.0</ele>
        <time>2016-06-11T13:53:51Z</time>
      </trkpt>
      <trkpt lat="40.512883" lon="-5.035233">
        <ele>2202.0</ele>
        <time>2016-06-11T13:53:52Z</time>
      </trkpt>
      <trkpt lat="40.512850" lon="-5.035300">
        <ele>2202.0</ele>
        <time>2016-06-11T13:53:53Z</time>
      </trkpt>
      <trkpt lat="40.512817" lon="-5.035333">
        <ele>2202.0</ele>
        <time>2016-06-11T13:53:54Z</time>
      </trkpt>
      <trkpt lat="40.512767" lon="-5.035383">
        <ele>2203.0</ele>
        <time>2016-06-11T13:53:55Z</time>
      </trkpt>
      <trkpt lat="40.512733" lon="-5.035417">
        <ele>2203.0</ele>
        <time>2016-06-11T13:53:56Z</time>
      </trkpt>
      <trkpt lat="40.512700" lon="-5.035467">
        <ele>2203.0</ele>
        <time>2016-06-11T13:53:57Z</time>
      </trkpt>
      <trkpt lat="40.512683" lon="-5.035533">
        <ele>2202.0</ele>
        <time>2016-06-11T13:53:58Z</time>
      </trkpt>
      <trkpt lat="40.512650" lon="-5.035583">
        <ele>2202.0</ele>
        <time>2016-06-11T13:53:59Z</time>
      </trkpt>
      <trkpt lat="40.512617" lon="-5.035633">
        <ele>2202.0</ele>
        <time>2016-06-11T13:54:00Z</time>
      </trkpt>
      <trkpt lat="40.512583" lon="-5.035683">
        <ele>2203.0</ele>
        <time>2016-06-11T13:54:01Z</time>
      </trkpt>
      <trkpt lat="40.512567" lon="-5.035733">
        <ele>2203.0</ele>
        <time>2016-06-11T13:54:02Z</time>
      </trkpt>
      <trkpt lat="40.512533" lon="-5.035783">
        <ele>2202.0</ele>
        <time>2016-06-11T13:54:03Z</time>
      </trkpt>
      <trkpt lat="40.512500" lon="-5.035833">
        <ele>2202.0</ele>
        <time>2016-06-11T13:54:04Z</time>
      </trkpt>
      <trkpt lat="40.512467" lon="-5.035883">
        <ele>2202.0</ele>
        <time>2016-06-11T13:54:05Z</time>
      </trkpt>
      <trkpt lat="40.512433" lon="-5.035933">
        <ele>2202.0</ele>
        <time>2016-06-11T13:54:06Z</time>
      </trkpt>
      <trkpt lat="40.512383" lon="-5.035983">
        <ele>2202.0</ele>
        <time>2016-06-11T13:54:07Z</time>
      </trkpt>
      <trkpt lat="40.512350" lon="-5.036033">
        <ele>2202.0</ele>
        <time>2016-06-11T13:54:08Z</time>
      </trkpt>
      <trkpt lat="40.512300" lon="-5.036083">
        <ele>2202.0</ele>
        <time>2016-06-11T13:54:09Z</time>
      </trkpt>
      <trkpt lat="40.512233" lon="-5.036133">
        <ele>2201.0</ele>
        <time>2016-06-11T13:54:10Z</time>
      </trkpt>
      <trkpt lat="40.512183" lon="-5.036183">
        <ele>2201.0</ele>
        <time>2016-06-11T13:54:11Z</time>
      </trkpt>
      <trkpt lat="40.512133" lon="-5.036233">
        <ele>2202.0</ele>
        <time>2016-06-11T13:54:12Z</time>
      </trkpt>
      <trkpt lat="40.512083" lon="-5.036283">
        <ele>2202.0</ele>
        <time>2016-06-11T13:54:13Z</time>
      </trkpt>
      <trkpt lat="40.512033" lon="-5.036333">
        <ele>2202.0</ele>
        <time>2016-06-11T13:54:14Z</time>
      </trkpt>
      <trkpt lat="40.512000" lon="-5.036400">
        <ele>2201.0</ele>
        <time>2016-06-11T13:54:15Z</time>
      </trkpt>
      <trkpt lat="40.511967" lon="-5.036450">
        <ele>2200.0</ele>
        <time>2016-06-11T13:54:16Z</time>
      </trkpt>
      <trkpt lat="40.511933" lon="-5.036533">
        <ele>2199.0</ele>
        <time>2016-06-11T13:54:17Z</time>
      </trkpt>
      <trkpt lat="40.511900" lon="-5.036583">
        <ele>2199.0</ele>
        <time>2016-06-11T13:54:18Z</time>
      </trkpt>
      <trkpt lat="40.511883" lon="-5.036650">
        <ele>2199.0</ele>
        <time>2016-06-11T13:54:19Z</time>
      </trkpt>
      <trkpt lat="40.511850" lon="-5.036700">
        <ele>2199.0</ele>
        <time>2016-06-11T13:54:20Z</time>
      </trkpt>
      <trkpt lat="40.511850" lon="-5.036767">
        <ele>2198.0</ele>
        <time>2016-06-11T13:54:21Z</time>
      </trkpt>
      <trkpt lat="40.511817" lon="-5.036833">
        <ele>2197.0</ele>
        <time>2016-06-11T13:54:22Z</time>
      </trkpt>
      <trkpt lat="40.511783" lon="-5.036900">
        <ele>2198.0</ele>
        <time>2016-06-11T13:54:23Z</time>
      </trkpt>
      <trkpt lat="40.511717" lon="-5.036933">
        <ele>2198.0</ele>
        <time>2016-06-11T13:54:24Z</time>
      </trkpt>
      <trkpt lat="40.511617" lon="-5.036950">
        <ele>2197.0</ele>
        <time>2016-06-11T13:54:25Z</time>
      </trkpt>
      <trkpt lat="40.511533" lon="-5.036967">
        <ele>2197.0</ele>
        <time>2016-06-11T13:54:26Z</time>
      </trkpt>
      <trkpt lat="40.511417" lon="-5.036950">
        <ele>2196.0</ele>
        <time>2016-06-11T13:54:27Z</time>
      </trkpt>
      <trkpt lat="40.511317" lon="-5.036900">
        <ele>2196.0</ele>
        <time>2016-06-11T13:54:28Z</time>
      </trkpt>
      <trkpt lat="40.511200" lon="-5.036833">
        <ele>2195.0</ele>
        <time>2016-06-11T13:54:29Z</time>
      </trkpt>
      <trkpt lat="40.511100" lon="-5.036750">
        <ele>2194.0</ele>
        <time>2016-06-11T13:54:30Z</time>
      </trkpt>
      <trkpt lat="40.510983" lon="-5.036617">
        <ele>2193.0</ele>
        <time>2016-06-11T13:54:31Z</time>
      </trkpt>
      <trkpt lat="40.510900" lon="-5.036483">
        <ele>2192.0</ele>
        <time>2016-06-11T13:54:32Z</time>
      </trkpt>
      <trkpt lat="40.510833" lon="-5.036317">
        <ele>2192.0</ele>
        <time>2016-06-11T13:54:33Z</time>
      </trkpt>
      <trkpt lat="40.510800" lon="-5.036167">
        <ele>2191.0</ele>
        <time>2016-06-11T13:54:34Z</time>
      </trkpt>
      <trkpt lat="40.510767" lon="-5.036017">
        <ele>2191.0</ele>
        <time>2016-06-11T13:54:35Z</time>
      </trkpt>
      <trkpt lat="40.510733" lon="-5.035867">
        <ele>2190.0</ele>
        <time>2016-06-11T13:54:36Z</time>
      </trkpt>
      <trkpt lat="40.510717" lon="-5.035717">
        <ele>2189.0</ele>
        <time>2016-06-11T13:54:37Z</time>
      </trkpt>
      <trkpt lat="40.510700" lon="-5.035533">
        <ele>2187.0</ele>
        <time>2016-06-11T13:54:38Z</time>
      </trkpt>
      <trkpt lat="40.510700" lon="-5.035367">
        <ele>2185.0</ele>
        <time>2016-06-11T13:54:39Z</time>
      </trkpt>
      <trkpt lat="40.510700" lon="-5.035183">
        <ele>2184.0</ele>
        <time>2016-06-11T13:54:40Z</time>
      </trkpt>
      <trkpt lat="40.510717" lon="-5.035033">
        <ele>2184.0</ele>
        <time>2016-06-11T13:54:41Z</time>
      </trkpt>
      <trkpt lat="40.510717" lon="-5.034883">
        <ele>2184.0</ele>
        <time>2016-06-11T13:54:42Z</time>
      </trkpt>
      <trkpt lat="40.510717" lon="-5.034717">
        <ele>2183.0</ele>
        <time>2016-06-11T13:54:43Z</time>
      </trkpt>
      <trkpt lat="40.510717" lon="-5.034550">
        <ele>2182.0</ele>
        <time>2016-06-11T13:54:44Z</time>
      </trkpt>
      <trkpt lat="40.510717" lon="-5.034383">
        <ele>2180.0</ele>
        <time>2016-06-11T13:54:45Z</time>
      </trkpt>
      <trkpt lat="40.510700" lon="-5.034183">
        <ele>2177.0</ele>
        <time>2016-06-11T13:54:46Z</time>
      </trkpt>
      <trkpt lat="40.510667" lon="-5.033983">
        <ele>2173.0</ele>
        <time>2016-06-11T13:54:47Z</time>
      </trkpt>
      <trkpt lat="40.510600" lon="-5.033767">
        <ele>2170.0</ele>
        <time>2016-06-11T13:54:48Z</time>
      </trkpt>
      <trkpt lat="40.510533" lon="-5.033567">
        <ele>2169.0</ele>
        <time>2016-06-11T13:54:49Z</time>
      </trkpt>
      <trkpt lat="40.510467" lon="-5.033383">
        <ele>2170.0</ele>
        <time>2016-06-11T13:54:50Z</time>
      </trkpt>
      <trkpt lat="40.510400" lon="-5.033217">
        <ele>2171.0</ele>
        <time>2016-06-11T13:54:51Z</time>
      </trkpt>
      <trkpt lat="40.510317" lon="-5.033050">
        <ele>2171.0</ele>
        <time>2016-06-11T13:54:52Z</time>
      </trkpt>
      <trkpt lat="40.510233" lon="-5.032867">
        <ele>2170.0</ele>
        <time>2016-06-11T13:54:53Z</time>
      </trkpt>
      <trkpt lat="40.510150" lon="-5.032667">
        <ele>2168.0</ele>
        <time>2016-06-11T13:54:54Z</time>
      </trkpt>
      <trkpt lat="40.510050" lon="-5.032483">
        <ele>2167.0</ele>
        <time>2016-06-11T13:54:55Z</time>
      </trkpt>
      <trkpt lat="40.509967" lon="-5.032283">
        <ele>2168.0</ele>
        <time>2016-06-11T13:54:56Z</time>
      </trkpt>
      <trkpt lat="40.509883" lon="-5.032117">
        <ele>2168.0</ele>
        <time>2016-06-11T13:54:57Z</time>
      </trkpt>
      <trkpt lat="40.509800" lon="-5.031933">
        <ele>2169.0</ele>
        <time>2016-06-11T13:54:58Z</time>
      </trkpt>
      <trkpt lat="40.509700" lon="-5.031750">
        <ele>2170.0</ele>
        <time>2016-06-11T13:54:59Z</time>
      </trkpt>
      <trkpt lat="40.509617" lon="-5.031567">
        <ele>2170.0</ele>
        <time>2016-06-11T13:55:00Z</time>
      </trkpt>
      <trkpt lat="40.509517" lon="-5.031383">
        <ele>2169.0</ele>
        <time>2016-06-11T13:55:01Z</time>
      </trkpt>
      <trkpt lat="40.509433" lon="-5.031200">
        <ele>2168.0</ele>
        <time>2016-06-11T13:55:02Z</time>
      </trkpt>
      <trkpt lat="40.509333" lon="-5.031000">
        <ele>2168.0</ele>
        <time>2016-06-11T13:55:03Z</time>
      </trkpt>
      <trkpt lat="40.509233" lon="-5.030817">
        <ele>2167.0</ele>
        <time>2016-06-11T13:55:04Z</time>
      </trkpt>
      <trkpt lat="40.509133" lon="-5.030633">
        <ele>2168.0</ele>
        <time>2016-06-11T13:55:05Z</time>
      </trkpt>
      <trkpt lat="40.509050" lon="-5.030483">
        <ele>2169.0</ele>
        <time>2016-06-11T13:55:06Z</time>
      </trkpt>
      <trkpt lat="40.508983" lon="-5.030317">
        <ele>2171.0</ele>
        <time>2016-06-11T13:55:07Z</time>
      </trkpt>
      <trkpt lat="40.508933" lon="-5.030150">
        <ele>2170.0</ele>
        <time>2016-06-11T13:55:08Z</time>
      </trkpt>
      <trkpt lat="40.508850" lon="-5.029967">
        <ele>2166.0</ele>
        <time>2016-06-11T13:55:09Z</time>
      </trkpt>
      <trkpt lat="40.508783" lon="-5.029783">
        <ele>2162.0</ele>
        <time>2016-06-11T13:55:10Z</time>
      </trkpt>
      <trkpt lat="40.508700" lon="-5.029583">
        <ele>2160.0</ele>
        <time>2016-06-11T13:55:11Z</time>
      </trkpt>
      <trkpt lat="40.508650" lon="-5.029400">
        <ele>2159.0</ele>
        <time>2016-06-11T13:55:12Z</time>
      </trkpt>
      <trkpt lat="40.508583" lon="-5.029233">
        <ele>2160.0</ele>
        <time>2016-06-11T13:55:13Z</time>
      </trkpt>
      <trkpt lat="40.508533" lon="-5.029083">
        <ele>2159.0</ele>
        <time>2016-06-11T13:55:14Z</time>
      </trkpt>
      <trkpt lat="40.508483" lon="-5.028917">
        <ele>2158.0</ele>
        <time>2016-06-11T13:55:15Z</time>
      </trkpt>
      <trkpt lat="40.508417" lon="-5.028733">
        <ele>2155.0</ele>
        <time>2016-06-11T13:55:16Z</time>
      </trkpt>
      <trkpt lat="40.508350" lon="-5.028533">
        <ele>2152.0</ele>
        <time>2016-06-11T13:55:17Z</time>
      </trkpt>
      <trkpt lat="40.508300" lon="-5.028350">
        <ele>2151.0</ele>
        <time>2016-06-11T13:55:18Z</time>
      </trkpt>
      <trkpt lat="40.508250" lon="-5.028200">
        <ele>2151.0</ele>
        <time>2016-06-11T13:55:19Z</time>
      </trkpt>
      <trkpt lat="40.508217" lon="-5.028067">
        <ele>2152.0</ele>
        <time>2016-06-11T13:55:20Z</time>
      </trkpt>
      <trkpt lat="40.508167" lon="-5.027917">
        <ele>2152.0</ele>
        <time>2016-06-11T13:55:21Z</time>
      </trkpt>
      <trkpt lat="40.508117" lon="-5.027767">
        <ele>2149.0</ele>
        <time>2016-06-11T13:55:22Z</time>
      </trkpt>
      <trkpt lat="40.508083" lon="-5.027583">
        <ele>2146.0</ele>
        <time>2016-06-11T13:55:23Z</time>
      </trkpt>
      <trkpt lat="40.508050" lon="-5.027383">
        <ele>2144.0</ele>
        <time>2016-06-11T13:55:24Z</time>
      </trkpt>
      <trkpt lat="40.508017" lon="-5.027217">
        <ele>2143.0</ele>
        <time>2016-06-11T13:55:25Z</time>
      </trkpt>
      <trkpt lat="40.507967" lon="-5.027050">
        <ele>2143.0</ele>
        <time>2016-06-11T13:55:26Z</time>
      </trkpt>
      <trkpt lat="40.507917" lon="-5.026883">
        <ele>2144.0</ele>
        <time>2016-06-11T13:55:27Z</time>
      </trkpt>
      <trkpt lat="40.507883" lon="-5.026700">
        <ele>2143.0</ele>
        <time>2016-06-11T13:55:28Z</time>
      </trkpt>
      <trkpt lat="40.507850" lon="-5.026533">
        <ele>2142.0</ele>
        <time>2016-06-11T13:55:29Z</time>
      </trkpt>
      <trkpt lat="40.507817" lon="-5.026350">
        <ele>2140.0</ele>
        <time>2016-06-11T13:55:30Z</time>
      </trkpt>
      <trkpt lat="40.507800" lon="-5.026183">
        <ele>2139.0</ele>
        <time>2016-06-11T13:55:31Z</time>
      </trkpt>
      <trkpt lat="40.507767" lon="-5.026017">
        <ele>2138.0</ele>
        <time>2016-06-11T13:55:32Z</time>
      </trkpt>
      <trkpt lat="40.507733" lon="-5.025867">
        <ele>2137.0</ele>
        <time>2016-06-11T13:55:33Z</time>
      </trkpt>
      <trkpt lat="40.507700" lon="-5.025683">
        <ele>2135.0</ele>
        <time>2016-06-11T13:55:34Z</time>
      </trkpt>
      <trkpt lat="40.507667" lon="-5.025483">
        <ele>2133.0</ele>
        <time>2016-06-11T13:55:35Z</time>
      </trkpt>
      <trkpt lat="40.507617" lon="-5.025283">
        <ele>2130.0</ele>
        <time>2016-06-11T13:55:36Z</time>
      </trkpt>
      <trkpt lat="40.507567" lon="-5.025083">
        <ele>2128.0</ele>
        <time>2016-06-11T13:55:37Z</time>
      </trkpt>
      <trkpt lat="40.507500" lon="-5.024900">
        <ele>2127.0</ele>
        <time>2016-06-11T13:55:38Z</time>
      </trkpt>
      <trkpt lat="40.507450" lon="-5.024733">
        <ele>2127.0</ele>
        <time>2016-06-11T13:55:39Z</time>
      </trkpt>
      <trkpt lat="40.507400" lon="-5.024567">
        <ele>2127.0</ele>
        <time>2016-06-11T13:55:40Z</time>
      </trkpt>
      <trkpt lat="40.507350" lon="-5.024383">
        <ele>2125.0</ele>
        <time>2016-06-11T13:55:41Z</time>
      </trkpt>
      <trkpt lat="40.507317" lon="-5.024183">
        <ele>2122.0</ele>
        <time>2016-06-11T13:55:42Z</time>
      </trkpt>
      <trkpt lat="40.507267" lon="-5.024000">
        <ele>2120.0</ele>
        <time>2016-06-11T13:55:43Z</time>
      </trkpt>
      <trkpt lat="40.507217" lon="-5.023817">
        <ele>2119.0</ele>
        <time>2016-06-11T13:55:44Z</time>
      </trkpt>
      <trkpt lat="40.507167" lon="-5.023650">
        <ele>2119.0</ele>
        <time>2016-06-11T13:55:45Z</time>
      </trkpt>
      <trkpt lat="40.507117" lon="-5.023467">
        <ele>2118.0</ele>
        <time>2016-06-11T13:55:46Z</time>
      </trkpt>
      <trkpt lat="40.507083" lon="-5.023283">
        <ele>2116.0</ele>
        <time>2016-06-11T13:55:47Z</time>
      </trkpt>
      <trkpt lat="40.507017" lon="-5.023100">
        <ele>2113.0</ele>
        <time>2016-06-11T13:55:48Z</time>
      </trkpt>
      <trkpt lat="40.506967" lon="-5.022917">
        <ele>2111.0</ele>
        <time>2016-06-11T13:55:49Z</time>
      </trkpt>
      <trkpt lat="40.506900" lon="-5.022733">
        <ele>2109.0</ele>
        <time>2016-06-11T13:55:50Z</time>
      </trkpt>
      <trkpt lat="40.506833" lon="-5.022567">
        <ele>2106.0</ele>
        <time>2016-06-11T13:55:51Z</time>
      </trkpt>
      <trkpt lat="40.506783" lon="-5.022383">
        <ele>2104.0</ele>
        <time>2016-06-11T13:55:52Z</time>
      </trkpt>
      <trkpt lat="40.506717" lon="-5.022217">
        <ele>2102.0</ele>
        <time>2016-06-11T13:55:53Z</time>
      </trkpt>
      <trkpt lat="40.506650" lon="-5.022067">
        <ele>2100.0</ele>
        <time>2016-06-11T13:55:54Z</time>
      </trkpt>
      <trkpt lat="40.506583" lon="-5.021917">
        <ele>2098.0</ele>
        <time>2016-06-11T13:55:55Z</time>
      </trkpt>
      <trkpt lat="40.506517" lon="-5.021767">
        <ele>2094.0</ele>
        <time>2016-06-11T13:55:56Z</time>
      </trkpt>
      <trkpt lat="40.506467" lon="-5.021600">
        <ele>2090.0</ele>
        <time>2016-06-11T13:55:57Z</time>
      </trkpt>
      <trkpt lat="40.506400" lon="-5.021433">
        <ele>2086.0</ele>
        <time>2016-06-11T13:55:58Z</time>
      </trkpt>
      <trkpt lat="40.506333" lon="-5.021267">
        <ele>2082.0</ele>
        <time>2016-06-11T13:55:59Z</time>
      </trkpt>
      <trkpt lat="40.506267" lon="-5.021133">
        <ele>2079.0</ele>
        <time>2016-06-11T13:56:00Z</time>
      </trkpt>
      <trkpt lat="40.506200" lon="-5.020983">
        <ele>2076.0</ele>
        <time>2016-06-11T13:56:01Z</time>
      </trkpt>
      <trkpt lat="40.506133" lon="-5.020850">
        <ele>2073.0</ele>
        <time>2016-06-11T13:56:02Z</time>
      </trkpt>
      <trkpt lat="40.506067" lon="-5.020700">
        <ele>2069.0</ele>
        <time>2016-06-11T13:56:03Z</time>
      </trkpt>
      <trkpt lat="40.505983" lon="-5.020533">
        <ele>2064.0</ele>
        <time>2016-06-11T13:56:04Z</time>
      </trkpt>
      <trkpt lat="40.505917" lon="-5.020333">
        <ele>2058.0</ele>
        <time>2016-06-11T13:56:05Z</time>
      </trkpt>
      <trkpt lat="40.505850" lon="-5.020150">
        <ele>2054.0</ele>
        <time>2016-06-11T13:56:06Z</time>
      </trkpt>
      <trkpt lat="40.505783" lon="-5.019950">
        <ele>2051.0</ele>
        <time>2016-06-11T13:56:07Z</time>
      </trkpt>
      <trkpt lat="40.505717" lon="-5.019767">
        <ele>2048.0</ele>
        <time>2016-06-11T13:56:08Z</time>
      </trkpt>
      <trkpt lat="40.505667" lon="-5.019583">
        <ele>2045.0</ele>
        <time>2016-06-11T13:56:09Z</time>
      </trkpt>
      <trkpt lat="40.505583" lon="-5.019383">
        <ele>2042.0</ele>
        <time>2016-06-11T13:56:10Z</time>
      </trkpt>
      <trkpt lat="40.505533" lon="-5.019183">
        <ele>2038.0</ele>
        <time>2016-06-11T13:56:11Z</time>
      </trkpt>
      <trkpt lat="40.505467" lon="-5.019000">
        <ele>2036.0</ele>
        <time>2016-06-11T13:56:12Z</time>
      </trkpt>
      <trkpt lat="40.505383" lon="-5.018800">
        <ele>2033.0</ele>
        <time>2016-06-11T13:56:13Z</time>
      </trkpt>
      <trkpt lat="40.505300" lon="-5.018600">
        <ele>2031.0</ele>
        <time>2016-06-11T13:56:14Z</time>
      </trkpt>
      <trkpt lat="40.505217" lon="-5.018400">
        <ele>2029.0</ele>
        <time>2016-06-11T13:56:15Z</time>
      </trkpt>
      <trkpt lat="40.505117" lon="-5.018200">
        <ele>2026.0</ele>
        <time>2016-06-11T13:56:16Z</time>
      </trkpt>
      <trkpt lat="40.505017" lon="-5.018017">
        <ele>2025.0</ele>
        <time>2016-06-11T13:56:17Z</time>
      </trkpt>
      <trkpt lat="40.504950" lon="-5.017867">
        <ele>2026.0</ele>
        <time>2016-06-11T13:56:18Z</time>
      </trkpt>
      <trkpt lat="40.504883" lon="-5.017750">
        <ele>2027.0</ele>
        <time>2016-06-11T13:56:19Z</time>
      </trkpt>
      <trkpt lat="40.504817" lon="-5.017633">
        <ele>2027.0</ele>
        <time>2016-06-11T13:56:20Z</time>
      </trkpt>
      <trkpt lat="40.504733" lon="-5.017483">
        <ele>2027.0</ele>
        <time>2016-06-11T13:56:21Z</time>
      </trkpt>
      <trkpt lat="40.504650" lon="-5.017300">
        <ele>2026.0</ele>
        <time>2016-06-11T13:56:22Z</time>
      </trkpt>
      <trkpt lat="40.504567" lon="-5.017100">
        <ele>2025.0</ele>
        <time>2016-06-11T13:56:23Z</time>
      </trkpt>
      <trkpt lat="40.504500" lon="-5.016933">
        <ele>2026.0</ele>
        <time>2016-06-11T13:56:24Z</time>
      </trkpt>
      <trkpt lat="40.504433" lon="-5.016767">
        <ele>2027.0</ele>
        <time>2016-06-11T13:56:25Z</time>
      </trkpt>
      <trkpt lat="40.504350" lon="-5.016600">
        <ele>2028.0</ele>
        <time>2016-06-11T13:56:26Z</time>
      </trkpt>
      <trkpt lat="40.504283" lon="-5.016417">
        <ele>2028.0</ele>
        <time>2016-06-11T13:56:27Z</time>
      </trkpt>
      <trkpt lat="40.504200" lon="-5.016233">
        <ele>2027.0</ele>
        <time>2016-06-11T13:56:28Z</time>
      </trkpt>
      <trkpt lat="40.504133" lon="-5.016050">
        <ele>2028.0</ele>
        <time>2016-06-11T13:56:29Z</time>
      </trkpt>
      <trkpt lat="40.504067" lon="-5.015900">
        <ele>2028.0</ele>
        <time>2016-06-11T13:56:30Z</time>
      </trkpt>
      <trkpt lat="40.504017" lon="-5.015750">
        <ele>2029.0</ele>
        <time>2016-06-11T13:56:31Z</time>
      </trkpt>
      <trkpt lat="40.503950" lon="-5.015617">
        <ele>2028.0</ele>
        <time>2016-06-11T13:56:32Z</time>
      </trkpt>
      <trkpt lat="40.503883" lon="-5.015467">
        <ele>2027.0</ele>
        <time>2016-06-11T13:56:33Z</time>
      </trkpt>
      <trkpt lat="40.503817" lon="-5.015300">
        <ele>2023.0</ele>
        <time>2016-06-11T13:56:34Z</time>
      </trkpt>
      <trkpt lat="40.503733" lon="-5.015100">
        <ele>2018.0</ele>
        <time>2016-06-11T13:56:35Z</time>
      </trkpt>
      <trkpt lat="40.503650" lon="-5.014900">
        <ele>2014.0</ele>
        <time>2016-06-11T13:56:36Z</time>
      </trkpt>
      <trkpt lat="40.503567" lon="-5.014700">
        <ele>2012.0</ele>
        <time>2016-06-11T13:56:37Z</time>
      </trkpt>
      <trkpt lat="40.503500" lon="-5.014517">
        <ele>2011.0</ele>
        <time>2016-06-11T13:56:38Z</time>
      </trkpt>
      <trkpt lat="40.503433" lon="-5.014333">
        <ele>2011.0</ele>
        <time>2016-06-11T13:56:39Z</time>
      </trkpt>
      <trkpt lat="40.503367" lon="-5.014150">
        <ele>2010.0</ele>
        <time>2016-06-11T13:56:40Z</time>
      </trkpt>
      <trkpt lat="40.503300" lon="-5.013983">
        <ele>2010.0</ele>
        <time>2016-06-11T13:56:41Z</time>
      </trkpt>
      <trkpt lat="40.503233" lon="-5.013817">
        <ele>2008.0</ele>
        <time>2016-06-11T13:56:42Z</time>
      </trkpt>
      <trkpt lat="40.503150" lon="-5.013633">
        <ele>2005.0</ele>
        <time>2016-06-11T13:56:43Z</time>
      </trkpt>
      <trkpt lat="40.503067" lon="-5.013467">
        <ele>2003.0</ele>
        <time>2016-06-11T13:56:44Z</time>
      </trkpt>
      <trkpt lat="40.502950" lon="-5.013333">
        <ele>2002.0</ele>
        <time>2016-06-11T13:56:45Z</time>
      </trkpt>
      <trkpt lat="40.502833" lon="-5.013217">
        <ele>2002.0</ele>
        <time>2016-06-11T13:56:46Z</time>
      </trkpt>
      <trkpt lat="40.502733" lon="-5.013100">
        <ele>2001.0</ele>
        <time>2016-06-11T13:56:47Z</time>
      </trkpt>
      <trkpt lat="40.502650" lon="-5.012967">
        <ele>2000.0</ele>
        <time>2016-06-11T13:56:48Z</time>
      </trkpt>
      <trkpt lat="40.502583" lon="-5.012833">
        <ele>1998.0</ele>
        <time>2016-06-11T13:56:49Z</time>
      </trkpt>
      <trkpt lat="40.502517" lon="-5.012667">
        <ele>1994.0</ele>
        <time>2016-06-11T13:56:50Z</time>
      </trkpt>
      <trkpt lat="40.502450" lon="-5.012500">
        <ele>1990.0</ele>
        <time>2016-06-11T13:56:51Z</time>
      </trkpt>
      <trkpt lat="40.502383" lon="-5.012333">
        <ele>1987.0</ele>
        <time>2016-06-11T13:56:52Z</time>
      </trkpt>
      <trkpt lat="40.502333" lon="-5.012167">
        <ele>1984.0</ele>
        <time>2016-06-11T13:56:53Z</time>
      </trkpt>
      <trkpt lat="40.502283" lon="-5.012000">
        <ele>1982.0</ele>
        <time>2016-06-11T13:56:54Z</time>
      </trkpt>
      <trkpt lat="40.502267" lon="-5.011817">
        <ele>1979.0</ele>
        <time>2016-06-11T13:56:55Z</time>
      </trkpt>
      <trkpt lat="40.502233" lon="-5.011650">
        <ele>1977.0</ele>
        <time>2016-06-11T13:56:56Z</time>
      </trkpt>
      <trkpt lat="40.502200" lon="-5.011483">
        <ele>1975.0</ele>
        <time>2016-06-11T13:56:57Z</time>
      </trkpt>
      <trkpt lat="40.502183" lon="-5.011317">
        <ele>1974.0</ele>
        <time>2016-06-11T13:56:58Z</time>
      </trkpt>
      <trkpt lat="40.502167" lon="-5.011150">
        <ele>1972.0</ele>
        <time>2016-06-11T13:56:59Z</time>
      </trkpt>
      <trkpt lat="40.502133" lon="-5.011000">
        <ele>1971.0</ele>
        <time>2016-06-11T13:57:00Z</time>
      </trkpt>
      <trkpt lat="40.502100" lon="-5.010833">
        <ele>1969.0</ele>
        <time>2016-06-11T13:57:01Z</time>
      </trkpt>
      <trkpt lat="40.502050" lon="-5.010633">
        <ele>1965.0</ele>
        <time>2016-06-11T13:57:02Z</time>
      </trkpt>
      <trkpt lat="40.502000" lon="-5.010433">
        <ele>1960.0</ele>
        <time>2016-06-11T13:57:03Z</time>
      </trkpt>
      <trkpt lat="40.501950" lon="-5.010233">
        <ele>1957.0</ele>
        <time>2016-06-11T13:57:04Z</time>
      </trkpt>
      <trkpt lat="40.501900" lon="-5.010050">
        <ele>1954.0</ele>
        <time>2016-06-11T13:57:05Z</time>
      </trkpt>
      <trkpt lat="40.501867" lon="-5.009850">
        <ele>1951.0</ele>
        <time>2016-06-11T13:57:06Z</time>
      </trkpt>
      <trkpt lat="40.501817" lon="-5.009667">
        <ele>1947.0</ele>
        <time>2016-06-11T13:57:07Z</time>
      </trkpt>
      <trkpt lat="40.501783" lon="-5.009467">
        <ele>1942.0</ele>
        <time>2016-06-11T13:57:08Z</time>
      </trkpt>
      <trkpt lat="40.501717" lon="-5.009267">
        <ele>1938.0</ele>
        <time>2016-06-11T13:57:09Z</time>
      </trkpt>
      <trkpt lat="40.501667" lon="-5.009067">
        <ele>1934.0</ele>
        <time>2016-06-11T13:57:10Z</time>
      </trkpt>
      <trkpt lat="40.501633" lon="-5.008867">
        <ele>1931.0</ele>
        <time>2016-06-11T13:57:11Z</time>
      </trkpt>
      <trkpt lat="40.501600" lon="-5.008683">
        <ele>1928.0</ele>
        <time>2016-06-11T13:57:12Z</time>
      </trkpt>
      <trkpt lat="40.501583" lon="-5.008500">
        <ele>1925.0</ele>
        <time>2016-06-11T13:57:13Z</time>
      </trkpt>
      <trkpt lat="40.501550" lon="-5.008317">
        <ele>1921.0</ele>
        <time>2016-06-11T13:57:14Z</time>
      </trkpt>
      <trkpt lat="40.501500" lon="-5.008117">
        <ele>1917.0</ele>
        <time>2016-06-11T13:57:15Z</time>
      </trkpt>
      <trkpt lat="40.501433" lon="-5.007917">
        <ele>1912.0</ele>
        <time>2016-06-11T13:57:16Z</time>
      </trkpt>
      <trkpt lat="40.501367" lon="-5.007717">
        <ele>1909.0</ele>
        <time>2016-06-11T13:57:17Z</time>
      </trkpt>
      <trkpt lat="40.501317" lon="-5.007533">
        <ele>1907.0</ele>
        <time>2016-06-11T13:57:18Z</time>
      </trkpt>
      <trkpt lat="40.501283" lon="-5.007350">
        <ele>1905.0</ele>
        <time>2016-06-11T13:57:19Z</time>
      </trkpt>
      <trkpt lat="40.501233" lon="-5.007167">
        <ele>1903.0</ele>
        <time>2016-06-11T13:57:20Z</time>
      </trkpt>
      <trkpt lat="40.501183" lon="-5.006983">
        <ele>1900.0</ele>
        <time>2016-06-11T13:57:21Z</time>
      </trkpt>
      <trkpt lat="40.501133" lon="-5.006800">
        <ele>1896.0</ele>
        <time>2016-06-11T13:57:22Z</time>
      </trkpt>
      <trkpt lat="40.501067" lon="-5.006600">
        <ele>1893.0</ele>
        <time>2016-06-11T13:57:23Z</time>
      </trkpt>
      <trkpt lat="40.501017" lon="-5.006400">
        <ele>1890.0</ele>
        <time>2016-06-11T13:57:24Z</time>
      </trkpt>
      <trkpt lat="40.500967" lon="-5.006200">
        <ele>1888.0</ele>
        <time>2016-06-11T13:57:25Z</time>
      </trkpt>
      <trkpt lat="40.500917" lon="-5.006017">
        <ele>1886.0</ele>
        <time>2016-06-11T13:57:26Z</time>
      </trkpt>
      <trkpt lat="40.500850" lon="-5.005850">
        <ele>1885.0</ele>
        <time>2016-06-11T13:57:27Z</time>
      </trkpt>
      <trkpt lat="40.500800" lon="-5.005667">
        <ele>1883.0</ele>
        <time>2016-06-11T13:57:28Z</time>
      </trkpt>
      <trkpt lat="40.500750" lon="-5.005483">
        <ele>1881.0</ele>
        <time>2016-06-11T13:57:29Z</time>
      </trkpt>
      <trkpt lat="40.500683" lon="-5.005283">
        <ele>1878.0</ele>
        <time>2016-06-11T13:57:30Z</time>
      </trkpt>
      <trkpt lat="40.500633" lon="-5.005100">
        <ele>1876.0</ele>
        <time>2016-06-11T13:57:31Z</time>
      </trkpt>
      <trkpt lat="40.500567" lon="-5.004900">
        <ele>1873.0</ele>
        <time>2016-06-11T13:57:32Z</time>
      </trkpt>
      <trkpt lat="40.500500" lon="-5.004700">
        <ele>1872.0</ele>
        <time>2016-06-11T13:57:33Z</time>
      </trkpt>
      <trkpt lat="40.500450" lon="-5.004517">
        <ele>1871.0</ele>
        <time>2016-06-11T13:57:34Z</time>
      </trkpt>
      <trkpt lat="40.500400" lon="-5.004333">
        <ele>1870.0</ele>
        <time>2016-06-11T13:57:35Z</time>
      </trkpt>
      <trkpt lat="40.500350" lon="-5.004150">
        <ele>1869.0</ele>
        <time>2016-06-11T13:57:36Z</time>
      </trkpt>
      <trkpt lat="40.500283" lon="-5.003950">
        <ele>1867.0</ele>
        <time>2016-06-11T13:57:37Z</time>
      </trkpt>
      <trkpt lat="40.500217" lon="-5.003750">
        <ele>1865.0</ele>
        <time>2016-06-11T13:57:38Z</time>
      </trkpt>
      <trkpt lat="40.500133" lon="-5.003550">
        <ele>1864.0</ele>
        <time>2016-06-11T13:57:39Z</time>
      </trkpt>
      <trkpt lat="40.500067" lon="-5.003367">
        <ele>1865.0</ele>
        <time>2016-06-11T13:57:40Z</time>
      </trkpt>
      <trkpt lat="40.500000" lon="-5.003183">
        <ele>1865.0</ele>
        <time>2016-06-11T13:57:41Z</time>
      </trkpt>
      <trkpt lat="40.499933" lon="-5.003017">
        <ele>1866.0</ele>
        <time>2016-06-11T13:57:42Z</time>
      </trkpt>
      <trkpt lat="40.499867" lon="-5.002850">
        <ele>1865.0</ele>
        <time>2016-06-11T13:57:43Z</time>
      </trkpt>
      <trkpt lat="40.499800" lon="-5.002683">
        <ele>1864.0</ele>
        <time>2016-06-11T13:57:44Z</time>
      </trkpt>
      <trkpt lat="40.499733" lon="-5.002517">
        <ele>1863.0</ele>
        <time>2016-06-11T13:57:45Z</time>
      </trkpt>
      <trkpt lat="40.499667" lon="-5.002333">
        <ele>1861.0</ele>
        <time>2016-06-11T13:57:46Z</time>
      </trkpt>
      <trkpt lat="40.499600" lon="-5.002150">
        <ele>1860.0</ele>
        <time>2016-06-11T13:57:47Z</time>
      </trkpt>
      <trkpt lat="40.499533" lon="-5.002000">
        <ele>1860.0</ele>
        <time>2016-06-11T13:57:48Z</time>
      </trkpt>
      <trkpt lat="40.499467" lon="-5.001850">
        <ele>1860.0</ele>
        <time>2016-06-11T13:57:49Z</time>
      </trkpt>
      <trkpt lat="40.499400" lon="-5.001717">
        <ele>1860.0</ele>
        <time>2016-06-11T13:57:50Z</time>
      </trkpt>
      <trkpt lat="40.499333" lon="-5.001567">
        <ele>1858.0</ele>
        <time>2016-06-11T13:57:51Z</time>
      </trkpt>
      <trkpt lat="40.499283" lon="-5.001400">
        <ele>1856.0</ele>
        <time>2016-06-11T13:57:52Z</time>
      </trkpt>
      <trkpt lat="40.499233" lon="-5.001233">
        <ele>1854.0</ele>
        <time>2016-06-11T13:57:53Z</time>
      </trkpt>
      <trkpt lat="40.499183" lon="-5.001067">
        <ele>1853.0</ele>
        <time>2016-06-11T13:57:54Z</time>
      </trkpt>
      <trkpt lat="40.499133" lon="-5.000917">
        <ele>1852.0</ele>
        <time>2016-06-11T13:57:55Z</time>
      </trkpt>
      <trkpt lat="40.499067" lon="-5.000767">
        <ele>1851.0</ele>
        <time>2016-06-11T13:57:56Z</time>
      </trkpt>
      <trkpt lat="40.499000" lon="-5.000600">
        <ele>1849.0</ele>
        <time>2016-06-11T13:57:57Z</time>
      </trkpt>
      <trkpt lat="40.498933" lon="-5.000433">
        <ele>1847.0</ele>
        <time>2016-06-11T13:57:58Z</time>
      </trkpt>
      <trkpt lat="40.498867" lon="-5.000267">
        <ele>1846.0</ele>
        <time>2016-06-11T13:57:59Z</time>
      </trkpt>
      <trkpt lat="40.498817" lon="-5.000117">
        <ele>1844.0</ele>
        <time>2016-06-11T13:58:00Z</time>
      </trkpt>
      <trkpt lat="40.498783" lon="-4.999950">
        <ele>1842.0</ele>
        <time>2016-06-11T13:58:01Z</time>
      </trkpt>
      <trkpt lat="40.498733" lon="-4.999783">
        <ele>1839.0</ele>
        <time>2016-06-11T13:58:02Z</time>
      </trkpt>
      <trkpt lat="40.498683" lon="-4.999600">
        <ele>1836.0</ele>
        <time>2016-06-11T13:58:03Z</time>
      </trkpt>
      <trkpt lat="40.498617" lon="-4.999433">
        <ele>1834.0</ele>
        <time>2016-06-11T13:58:04Z</time>
      </trkpt>
      <trkpt lat="40.498550" lon="-4.999250">
        <ele>1833.0</ele>
        <time>2016-06-11T13:58:05Z</time>
      </trkpt>
      <trkpt lat="40.498500" lon="-4.999067">
        <ele>1832.0</ele>
        <time>2016-06-11T13:58:06Z</time>
      </trkpt>
      <trkpt lat="40.498450" lon="-4.998900">
        <ele>1832.0</ele>
        <time>2016-06-11T13:58:07Z</time>
      </trkpt>
      <trkpt lat="40.498400" lon="-4.998733">
        <ele>1831.0</ele>
        <time>2016-06-11T13:58:08Z</time>
      </trkpt>
      <trkpt lat="40.498350" lon="-4.998567">
        <ele>1830.0</ele>
        <time>2016-06-11T13:58:09Z</time>
      </trkpt>
      <trkpt lat="40.498283" lon="-4.998400">
        <ele>1830.0</ele>
        <time>2016-06-11T13:58:10Z</time>
      </trkpt>
      <trkpt lat="40.498217" lon="-4.998250">
        <ele>1830.0</ele>
        <time>2016-06-11T13:58:11Z</time>
      </trkpt>
      <trkpt lat="40.498133" lon="-4.998117">
        <ele>1831.0</ele>
        <time>2016-06-11T13:58:12Z</time>
      </trkpt>
      <trkpt lat="40.498067" lon="-4.998000">
        <ele>1833.0</ele>
        <time>2016-06-11T13:58:13Z</time>
      </trkpt>
      <trkpt lat="40.498017" lon="-4.997867">
        <ele>1833.0</ele>
        <time>2016-06-11T13:58:14Z</time>
      </trkpt>
      <trkpt lat="40.497967" lon="-4.997733">
        <ele>1832.0</ele>
        <time>2016-06-11T13:58:15Z</time>
      </trkpt>
      <trkpt lat="40.497917" lon="-4.997600">
        <ele>1831.0</ele>
        <time>2016-06-11T13:58:16Z</time>
      </trkpt>
      <trkpt lat="40.497867" lon="-4.997467">
        <ele>1830.0</ele>
        <time>2016-06-11T13:58:17Z</time>
      </trkpt>
      <trkpt lat="40.497833" lon="-4.997350">
        <ele>1830.0</ele>
        <time>2016-06-11T13:58:18Z</time>
      </trkpt>
      <trkpt lat="40.497800" lon="-4.997233">
        <ele>1830.0</ele>
        <time>2016-06-11T13:58:19Z</time>
      </trkpt>
      <trkpt lat="40.497767" lon="-4.997133">
        <ele>1828.0</ele>
        <time>2016-06-11T13:58:20Z</time>
      </trkpt>
      <trkpt lat="40.497733" lon="-4.997017">
        <ele>1827.0</ele>
        <time>2016-06-11T13:58:21Z</time>
      </trkpt>
      <trkpt lat="40.497700" lon="-4.996883">
        <ele>1825.0</ele>
        <time>2016-06-11T13:58:22Z</time>
      </trkpt>
      <trkpt lat="40.497667" lon="-4.996750">
        <ele>1824.0</ele>
        <time>2016-06-11T13:58:23Z</time>
      </trkpt>
      <trkpt lat="40.497650" lon="-4.996617">
        <ele>1822.0</ele>
        <time>2016-06-11T13:58:24Z</time>
      </trkpt>
      <trkpt lat="40.497617" lon="-4.996483">
        <ele>1822.0</ele>
        <time>2016-06-11T13:58:25Z</time>
      </trkpt>
      <trkpt lat="40.497600" lon="-4.996350">
        <ele>1823.0</ele>
        <time>2016-06-11T13:58:26Z</time>
      </trkpt>
      <trkpt lat="40.497567" lon="-4.996233">
        <ele>1822.0</ele>
        <time>2016-06-11T13:58:27Z</time>
      </trkpt>
      <trkpt lat="40.497517" lon="-4.996083">
        <ele>1822.0</ele>
        <time>2016-06-11T13:58:28Z</time>
      </trkpt>
      <trkpt lat="40.497483" lon="-4.995933">
        <ele>1822.0</ele>
        <time>2016-06-11T13:58:29Z</time>
      </trkpt>
      <trkpt lat="40.497450" lon="-4.995783">
        <ele>1822.0</ele>
        <time>2016-06-11T13:58:30Z</time>
      </trkpt>
      <trkpt lat="40.497417" lon="-4.995650">
        <ele>1822.0</ele>
        <time>2016-06-11T13:58:31Z</time>
      </trkpt>
      <trkpt lat="40.497400" lon="-4.995500">
        <ele>1822.0</ele>
        <time>2016-06-11T13:58:32Z</time>
      </trkpt>
      <trkpt lat="40.497383" lon="-4.995350">
        <ele>1823.0</ele>
        <time>2016-06-11T13:58:33Z</time>
      </trkpt>
      <trkpt lat="40.497367" lon="-4.995217">
        <ele>1825.0</ele>
        <time>2016-06-11T13:58:34Z</time>
      </trkpt>
      <trkpt lat="40.497350" lon="-4.995100">
        <ele>1827.0</ele>
        <time>2016-06-11T13:58:35Z</time>
      </trkpt>
      <trkpt lat="40.497350" lon="-4.994983">
        <ele>1829.0</ele>
        <time>2016-06-11T13:58:36Z</time>
      </trkpt>
      <trkpt lat="40.497317" lon="-4.994850">
        <ele>1830.0</ele>
        <time>2016-06-11T13:58:37Z</time>
      </trkpt>
      <trkpt lat="40.497300" lon="-4.994717">
        <ele>1831.0</ele>
        <time>2016-06-11T13:58:38Z</time>
      </trkpt>
      <trkpt lat="40.497267" lon="-4.994583">
        <ele>1831.0</ele>
        <time>2016-06-11T13:58:39Z</time>
      </trkpt>
      <trkpt lat="40.497250" lon="-4.994433">
        <ele>1831.0</ele>
        <time>2016-06-11T13:58:40Z</time>
      </trkpt>
      <trkpt lat="40.497217" lon="-4.994283">
        <ele>1832.0</ele>
        <time>2016-06-11T13:58:41Z</time>
      </trkpt>
      <trkpt lat="40.497183" lon="-4.994133">
        <ele>1833.0</ele>
        <time>2016-06-11T13:58:42Z</time>
      </trkpt>
      <trkpt lat="40.497150" lon="-4.993983">
        <ele>1833.0</ele>
        <time>2016-06-11T13:58:43Z</time>
      </trkpt>
      <trkpt lat="40.497117" lon="-4.993850">
        <ele>1835.0</ele>
        <time>2016-06-11T13:58:44Z</time>
      </trkpt>
      <trkpt lat="40.497117" lon="-4.993733">
        <ele>1837.0</ele>
        <time>2016-06-11T13:58:45Z</time>
      </trkpt>
      <trkpt lat="40.497117" lon="-4.993633">
        <ele>1840.0</ele>
        <time>2016-06-11T13:58:46Z</time>
      </trkpt>
      <trkpt lat="40.497117" lon="-4.993533">
        <ele>1843.0</ele>
        <time>2016-06-11T13:58:47Z</time>
      </trkpt>
      <trkpt lat="40.497100" lon="-4.993417">
        <ele>1844.0</ele>
        <time>2016-06-11T13:58:48Z</time>
      </trkpt>
      <trkpt lat="40.497083" lon="-4.993300">
        <ele>1845.0</ele>
        <time>2016-06-11T13:58:49Z</time>
      </trkpt>
      <trkpt lat="40.497100" lon="-4.993183">
        <ele>1846.0</ele>
        <time>2016-06-11T13:58:50Z</time>
      </trkpt>
      <trkpt lat="40.497133" lon="-4.993083">
        <ele>1847.0</ele>
        <time>2016-06-11T13:58:51Z</time>
      </trkpt>
      <trkpt lat="40.497183" lon="-4.993000">
        <ele>1847.0</ele>
        <time>2016-06-11T13:58:52Z</time>
      </trkpt>
      <trkpt lat="40.497250" lon="-4.992933">
        <ele>1848.0</ele>
        <time>2016-06-11T13:58:53Z</time>
      </trkpt>
      <trkpt lat="40.497300" lon="-4.992883">
        <ele>1850.0</ele>
        <time>2016-06-11T13:58:54Z</time>
      </trkpt>
      <trkpt lat="40.497333" lon="-4.992817">
        <ele>1852.0</ele>
        <time>2016-06-11T13:58:55Z</time>
      </trkpt>
      <trkpt lat="40.497367" lon="-4.992767">
        <ele>1853.0</ele>
        <time>2016-06-11T13:58:56Z</time>
      </trkpt>
      <trkpt lat="40.497400" lon="-4.992700">
        <ele>1854.0</ele>
        <time>2016-06-11T13:58:57Z</time>
      </trkpt>
      <trkpt lat="40.497433" lon="-4.992650">
        <ele>1855.0</ele>
        <time>2016-06-11T13:58:58Z</time>
      </trkpt>
      <trkpt lat="40.497483" lon="-4.992600">
        <ele>1855.0</ele>
        <time>2016-06-11T13:58:59Z</time>
      </trkpt>
      <trkpt lat="40.497533" lon="-4.992567">
        <ele>1857.0</ele>
        <time>2016-06-11T13:59:00Z</time>
      </trkpt>
      <trkpt lat="40.497567" lon="-4.992533">
        <ele>1860.0</ele>
        <time>2016-06-11T13:59:01Z</time>
      </trkpt>
      <trkpt lat="40.497600" lon="-4.992517">
        <ele>1863.0</ele>
        <time>2016-06-11T13:59:02Z</time>
      </trkpt>
      <trkpt lat="40.497617" lon="-4.992500">
        <ele>1865.0</ele>
        <time>2016-06-11T13:59:03Z</time>
      </trkpt>
      <trkpt lat="40.497650" lon="-4.992483">
        <ele>1866.0</ele>
        <time>2016-06-11T13:59:04Z</time>
      </trkpt>
      <trkpt lat="40.497683" lon="-4.992467">
        <ele>1867.0</ele>
        <time>2016-06-11T13:59:05Z</time>
      </trkpt>
      <trkpt lat="40.497717" lon="-4.992467">
        <ele>1868.0</ele>
        <time>2016-06-11T13:59:06Z</time>
      </trkpt>
      <trkpt lat="40.497750" lon="-4.992500">
        <ele>1868.0</ele>
        <time>2016-06-11T13:59:07Z</time>
      </trkpt>
      <trkpt lat="40.497783" lon="-4.992533">
        <ele>1869.0</ele>
        <time>2016-06-11T13:59:08Z</time>
      </trkpt>
      <trkpt lat="40.497817" lon="-4.992583">
        <ele>1870.0</ele>
        <time>2016-06-11T13:59:09Z</time>
      </trkpt>
      <trkpt lat="40.497850" lon="-4.992617">
        <ele>1871.0</ele>
        <time>2016-06-11T13:59:10Z</time>
      </trkpt>
      <trkpt lat="40.497883" lon="-4.992667">
        <ele>1873.0</ele>
        <time>2016-06-11T13:59:11Z</time>
      </trkpt>
      <trkpt lat="40.497917" lon="-4.992683">
        <ele>1874.0</ele>
        <time>2016-06-11T13:59:12Z</time>
      </trkpt>
      <trkpt lat="40.497933" lon="-4.992717">
        <ele>1875.0</ele>
        <time>2016-06-11T13:59:13Z</time>
      </trkpt>
      <trkpt lat="40.497933" lon="-4.992767">
        <ele>1875.0</ele>
        <time>2016-06-11T13:59:14Z</time>
      </trkpt>
      <trkpt lat="40.497933" lon="-4.992833">
        <ele>1874.0</ele>
        <time>2016-06-11T13:59:15Z</time>
      </trkpt>
      <trkpt lat="40.497917" lon="-4.992900">
        <ele>1873.0</ele>
        <time>2016-06-11T13:59:16Z</time>
      </trkpt>
      <trkpt lat="40.497867" lon="-4.992983">
        <ele>1871.0</ele>
        <time>2016-06-11T13:59:17Z</time>
      </trkpt>
      <trkpt lat="40.497800" lon="-4.993050">
        <ele>1870.0</ele>
        <time>2016-06-11T13:59:18Z</time>
      </trkpt>
      <trkpt lat="40.497700" lon="-4.993083">
        <ele>1867.0</ele>
        <time>2016-06-11T13:59:19Z</time>
      </trkpt>
      <trkpt lat="40.497583" lon="-4.993083">
        <ele>1864.0</ele>
        <time>2016-06-11T13:59:20Z</time>
      </trkpt>
      <trkpt lat="40.497450" lon="-4.993050">
        <ele>1862.0</ele>
        <time>2016-06-11T13:59:21Z</time>
      </trkpt>
      <trkpt lat="40.497317" lon="-4.992983">
        <ele>1860.0</ele>
        <time>2016-06-11T13:59:22Z</time>
      </trkpt>
      <trkpt lat="40.497200" lon="-4.992883">
        <ele>1859.0</ele>
        <time>2016-06-11T13:59:23Z</time>
      </trkpt>
      <trkpt lat="40.497100" lon="-4.992767">
        <ele>1858.0</ele>
        <time>2016-06-11T13:59:24Z</time>
      </trkpt>
      <trkpt lat="40.497017" lon="-4.992633">
        <ele>1857.0</ele>
        <time>2016-06-11T13:59:25Z</time>
      </trkpt>
      <trkpt lat="40.496933" lon="-4.992483">
        <ele>1854.0</ele>
        <time>2016-06-11T13:59:26Z</time>
      </trkpt>
      <trkpt lat="40.496850" lon="-4.992317">
        <ele>1852.0</ele>
        <time>2016-06-11T13:59:27Z</time>
      </trkpt>
      <trkpt lat="40.496817" lon="-4.992150">
        <ele>1851.0</ele>
        <time>2016-06-11T13:59:28Z</time>
      </trkpt>
      <trkpt lat="40.496783" lon="-4.991983">
        <ele>1851.0</ele>
        <time>2016-06-11T13:59:29Z</time>
      </trkpt>
      <trkpt lat="40.496767" lon="-4.991833">
        <ele>1851.0</ele>
        <time>2016-06-11T13:59:30Z</time>
      </trkpt>
      <trkpt lat="40.496767" lon="-4.991683">
        <ele>1852.0</ele>
        <time>2016-06-11T13:59:31Z</time>
      </trkpt>
      <trkpt lat="40.496767" lon="-4.991550">
        <ele>1853.0</ele>
        <time>2016-06-11T13:59:32Z</time>
      </trkpt>
      <trkpt lat="40.496767" lon="-4.991417">
        <ele>1853.0</ele>
        <time>2016-06-11T13:59:33Z</time>
      </trkpt>
      <trkpt lat="40.496767" lon="-4.991283">
        <ele>1854.0</ele>
        <time>2016-06-11T13:59:34Z</time>
      </trkpt>
      <trkpt lat="40.496783" lon="-4.991167">
        <ele>1856.0</ele>
        <time>2016-06-11T13:59:35Z</time>
      </trkpt>
      <trkpt lat="40.496783" lon="-4.991050">
        <ele>1858.0</ele>
        <time>2016-06-11T13:59:36Z</time>
      </trkpt>
      <trkpt lat="40.496800" lon="-4.990950">
        <ele>1859.0</ele>
        <time>2016-06-11T13:59:37Z</time>
      </trkpt>
      <trkpt lat="40.496817" lon="-4.990850">
        <ele>1860.0</ele>
        <time>2016-06-11T13:59:38Z</time>
      </trkpt>
      <trkpt lat="40.496833" lon="-4.990750">
        <ele>1861.0</ele>
        <time>2016-06-11T13:59:39Z</time>
      </trkpt>
      <trkpt lat="40.496867" lon="-4.990650">
        <ele>1862.0</ele>
        <time>2016-06-11T13:59:40Z</time>
      </trkpt>
      <trkpt lat="40.496900" lon="-4.990550">
        <ele>1863.0</ele>
        <time>2016-06-11T13:59:41Z</time>
      </trkpt>
      <trkpt lat="40.496933" lon="-4.990467">
        <ele>1865.0</ele>
        <time>2016-06-11T13:59:42Z</time>
      </trkpt>
      <trkpt lat="40.496967" lon="-4.990367">
        <ele>1867.0</ele>
        <time>2016-06-11T13:59:43Z</time>
      </trkpt>
      <trkpt lat="40.497000" lon="-4.990283">
        <ele>1870.0</ele>
        <time>2016-06-11T13:59:44Z</time>
      </trkpt>
      <trkpt lat="40.497033" lon="-4.990183">
        <ele>1872.0</ele>
        <time>2016-06-11T13:59:45Z</time>
      </trkpt>
      <trkpt lat="40.497067" lon="-4.990100">
        <ele>1875.0</ele>
        <time>2016-06-11T13:59:46Z</time>
      </trkpt>
      <trkpt lat="40.497100" lon="-4.990017">
        <ele>1877.0</ele>
        <time>2016-06-11T13:59:47Z</time>
      </trkpt>
      <trkpt lat="40.497133" lon="-4.989933">
        <ele>1880.0</ele>
        <time>2016-06-11T13:59:48Z</time>
      </trkpt>
      <trkpt lat="40.497150" lon="-4.989850">
        <ele>1882.0</ele>
        <time>2016-06-11T13:59:49Z</time>
      </trkpt>
      <trkpt lat="40.497183" lon="-4.989800">
        <ele>1884.0</ele>
        <time>2016-06-11T13:59:50Z</time>
      </trkpt>
      <trkpt lat="40.497233" lon="-4.989750">
        <ele>1886.0</ele>
        <time>2016-06-11T13:59:51Z</time>
      </trkpt>
      <trkpt lat="40.497283" lon="-4.989717">
        <ele>1886.0</ele>
        <time>2016-06-11T13:59:52Z</time>
      </trkpt>
      <trkpt lat="40.497333" lon="-4.989717">
        <ele>1888.0</ele>
        <time>2016-06-11T13:59:53Z</time>
      </trkpt>
      <trkpt lat="40.497350" lon="-4.989733">
        <ele>1891.0</ele>
        <time>2016-06-11T13:59:54Z</time>
      </trkpt>
      <trkpt lat="40.497367" lon="-4.989767">
        <ele>1893.0</ele>
        <time>2016-06-11T13:59:55Z</time>
      </trkpt>
      <trkpt lat="40.497350" lon="-4.989817">
        <ele>1896.0</ele>
        <time>2016-06-11T13:59:56Z</time>
      </trkpt>
      <trkpt lat="40.497350" lon="-4.989867">
        <ele>1898.0</ele>
        <time>2016-06-11T13:59:57Z</time>
      </trkpt>
      <trkpt lat="40.497350" lon="-4.989917">
        <ele>1901.0</ele>
        <time>2016-06-11T13:59:58Z</time>
      </trkpt>
      <trkpt lat="40.497350" lon="-4.989967">
        <ele>1903.0</ele>
        <time>2016-06-11T13:59:59Z</time>
      </trkpt>
      <trkpt lat="40.497333" lon="-4.990017">
        <ele>1905.0</ele>
        <time>2016-06-11T14:00:00Z</time>
      </trkpt>
      <trkpt lat="40.497300" lon="-4.990083">
        <ele>1907.0</ele>
        <time>2016-06-11T14:00:01Z</time>
      </trkpt>
      <trkpt lat="40.497250" lon="-4.990133">
        <ele>1910.0</ele>
        <time>2016-06-11T14:00:02Z</time>
      </trkpt>
      <trkpt lat="40.497200" lon="-4.990183">
        <ele>1913.0</ele>
        <time>2016-06-11T14:00:03Z</time>
      </trkpt>
      <trkpt lat="40.497167" lon="-4.990217">
        <ele>1915.0</ele>
        <time>2016-06-11T14:00:04Z</time>
      </trkpt>
      <trkpt lat="40.497117" lon="-4.990233">
        <ele>1917.0</ele>
        <time>2016-06-11T14:00:05Z</time>
      </trkpt>
      <trkpt lat="40.497067" lon="-4.990283">
        <ele>1918.0</ele>
        <time>2016-06-11T14:00:06Z</time>
      </trkpt>
      <trkpt lat="40.497017" lon="-4.990333">
        <ele>1917.0</ele>
        <time>2016-06-11T14:00:07Z</time>
      </trkpt>
      <trkpt lat="40.496917" lon="-4.990383">
        <ele>1917.0</ele>
        <time>2016-06-11T14:00:08Z</time>
      </trkpt>
      <trkpt lat="40.496800" lon="-4.990383">
        <ele>1918.0</ele>
        <time>2016-06-11T14:00:09Z</time>
      </trkpt>
      <trkpt lat="40.496700" lon="-4.990333">
        <ele>1920.0</ele>
        <time>2016-06-11T14:00:10Z</time>
      </trkpt>
      <trkpt lat="40.496600" lon="-4.990267">
        <ele>1922.0</ele>
        <time>2016-06-11T14:00:11Z</time>
      </trkpt>
      <trkpt lat="40.496500" lon="-4.990183">
        <ele>1923.0</ele>
        <time>2016-06-11T14:00:12Z</time>
      </trkpt>
      <trkpt lat="40.496400" lon="-4.990100">
        <ele>1923.0</ele>
        <time>2016-06-11T14:00:13Z</time>
      </trkpt>
      <trkpt lat="40.496283" lon="-4.990000">
        <ele>1923.0</ele>
        <time>2016-06-11T14:00:14Z</time>
      </trkpt>
      <trkpt lat="40.496183" lon="-4.989867">
        <ele>1924.0</ele>
        <time>2016-06-11T14:00:15Z</time>
      </trkpt>
      <trkpt lat="40.496117" lon="-4.989733">
        <ele>1924.0</ele>
        <time>2016-06-11T14:00:16Z</time>
      </trkpt>
      <trkpt lat="40.496067" lon="-4.989567">
        <ele>1925.0</ele>
        <time>2016-06-11T14:00:17Z</time>
      </trkpt>
      <trkpt lat="40.496017" lon="-4.989417">
        <ele>1927.0</ele>
        <time>2016-06-11T14:00:18Z</time>
      </trkpt>
      <trkpt lat="40.496000" lon="-4.989283">
        <ele>1930.0</ele>
        <time>2016-06-11T14:00:19Z</time>
      </trkpt>
      <trkpt lat="40.495967" lon="-4.989167">
        <ele>1933.0</ele>
        <time>2016-06-11T14:00:20Z</time>
      </trkpt>
      <trkpt lat="40.495967" lon="-4.989033">
        <ele>1935.0</ele>
        <time>2016-06-11T14:00:21Z</time>
      </trkpt>
      <trkpt lat="40.495967" lon="-4.988933">
        <ele>1936.0</ele>
        <time>2016-06-11T14:00:22Z</time>
      </trkpt>
      <trkpt lat="40.495983" lon="-4.988817">
        <ele>1937.0</ele>
        <time>2016-06-11T14:00:23Z</time>
      </trkpt>
      <trkpt lat="40.496017" lon="-4.988717">
        <ele>1937.0</ele>
        <time>2016-06-11T14:00:24Z</time>
      </trkpt>
      <trkpt lat="40.496050" lon="-4.988633">
        <ele>1937.0</ele>
        <time>2016-06-11T14:00:25Z</time>
      </trkpt>
      <trkpt lat="40.496083" lon="-4.988567">
        <ele>1940.0</ele>
        <time>2016-06-11T14:00:26Z</time>
      </trkpt>
      <trkpt lat="40.496083" lon="-4.988483">
        <ele>1943.0</ele>
        <time>2016-06-11T14:00:27Z</time>
      </trkpt>
      <trkpt lat="40.496100" lon="-4.988400">
        <ele>1945.0</ele>
        <time>2016-06-11T14:00:28Z</time>
      </trkpt>
      <trkpt lat="40.496117" lon="-4.988317">
        <ele>1945.0</ele>
        <time>2016-06-11T14:00:29Z</time>
      </trkpt>
      <trkpt lat="40.496133" lon="-4.988233">
        <ele>1945.0</ele>
        <time>2016-06-11T14:00:30Z</time>
      </trkpt>
      <trkpt lat="40.496167" lon="-4.988150">
        <ele>1945.0</ele>
        <time>2016-06-11T14:00:31Z</time>
      </trkpt>
      <trkpt lat="40.496200" lon="-4.988067">
        <ele>1946.0</ele>
        <time>2016-06-11T14:00:32Z</time>
      </trkpt>
      <trkpt lat="40.496217" lon="-4.988000">
        <ele>1947.0</ele>
        <time>2016-06-11T14:00:33Z</time>
      </trkpt>
      <trkpt lat="40.496233" lon="-4.987950">
        <ele>1949.0</ele>
        <time>2016-06-11T14:00:34Z</time>
      </trkpt>
      <trkpt lat="40.496250" lon="-4.987933">
        <ele>1949.0</ele>
        <time>2016-06-11T14:00:35Z</time>
      </trkpt>
      <trkpt lat="40.496283" lon="-4.987933">
        <ele>1948.0</ele>
        <time>2016-06-11T14:00:36Z</time>
      </trkpt>
      <trkpt lat="40.496317" lon="-4.987933">
        <ele>1946.0</ele>
        <time>2016-06-11T14:00:37Z</time>
      </trkpt>
      <trkpt lat="40.496350" lon="-4.987917">
        <ele>1945.0</ele>
        <time>2016-06-11T14:00:38Z</time>
      </trkpt>
      <trkpt lat="40.496383" lon="-4.987900">
        <ele>1947.0</ele>
        <time>2016-06-11T14:00:39Z</time>
      </trkpt>
      <trkpt lat="40.496417" lon="-4.987883">
        <ele>1950.0</ele>
        <time>2016-06-11T14:00:40Z</time>
      </trkpt>
      <trkpt lat="40.496417" lon="-4.987883">
        <ele>1953.0</ele>
        <time>2016-06-11T14:00:41Z</time>
      </trkpt>
      <trkpt lat="40.496433" lon="-4.987883">
        <ele>1956.0</ele>
        <time>2016-06-11T14:00:42Z</time>
      </trkpt>
      <trkpt lat="40.496450" lon="-4.987900">
        <ele>1959.0</ele>
        <time>2016-06-11T14:00:43Z</time>
      </trkpt>
      <trkpt lat="40.496467" lon="-4.987900">
        <ele>1961.0</ele>
        <time>2016-06-11T14:00:44Z</time>
      </trkpt>
      <trkpt lat="40.496483" lon="-4.987917">
        <ele>1963.0</ele>
        <time>2016-06-11T14:00:45Z</time>
      </trkpt>
      <trkpt lat="40.496500" lon="-4.987917">
        <ele>1965.0</ele>
        <time>2016-06-11T14:00:46Z</time>
      </trkpt>
      <trkpt lat="40.496500" lon="-4.987917">
        <ele>1969.0</ele>
        <time>2016-06-11T14:00:47Z</time>
      </trkpt>
      <trkpt lat="40.496467" lon="-4.987950">
        <ele>1972.0</ele>
        <time>2016-06-11T14:00:48Z</time>
      </trkpt>
      <trkpt lat="40.496450" lon="-4.987967">
        <ele>1974.0</ele>
        <time>2016-06-11T14:00:49Z</time>
      </trkpt>
      <trkpt lat="40.496450" lon="-4.987967">
        <ele>1973.0</ele>
        <time>2016-06-11T14:00:50Z</time>
      </trkpt>
      <trkpt lat="40.496450" lon="-4.987967">
        <ele>1972.0</ele>
        <time>2016-06-11T14:00:51Z</time>
      </trkpt>
      <trkpt lat="40.496483" lon="-4.987983">
        <ele>1971.0</ele>
        <time>2016-06-11T14:00:52Z</time>
      </trkpt>
      <trkpt lat="40.496500" lon="-4.988017">
        <ele>1971.0</ele>
        <time>2016-06-11T14:00:53Z</time>
      </trkpt>
      <trkpt lat="40.496500" lon="-4.988050">
        <ele>1973.0</ele>
        <time>2016-06-11T14:00:54Z</time>
      </trkpt>
      <trkpt lat="40.496500" lon="-4.988067">
        <ele>1975.0</ele>
        <time>2016-06-11T14:00:55Z</time>
      </trkpt>
      <trkpt lat="40.496500" lon="-4.988083">
        <ele>1977.0</ele>
        <time>2016-06-11T14:00:56Z</time>
      </trkpt>
      <trkpt lat="40.496533" lon="-4.988100">
        <ele>1977.0</ele>
        <time>2016-06-11T14:00:57Z</time>
      </trkpt>
      <trkpt lat="40.496567" lon="-4.988117">
        <ele>1977.0</ele>
        <time>2016-06-11T14:00:58Z</time>
      </trkpt>
      <trkpt lat="40.496617" lon="-4.988150">
        <ele>1977.0</ele>
        <time>2016-06-11T14:00:59Z</time>
      </trkpt>
      <trkpt lat="40.496650" lon="-4.988183">
        <ele>1980.0</ele>
        <time>2016-06-11T14:01:00Z</time>
      </trkpt>
      <trkpt lat="40.496667" lon="-4.988200">
        <ele>1983.0</ele>
        <time>2016-06-11T14:01:01Z</time>
      </trkpt>
      <trkpt lat="40.496700" lon="-4.988217">
        <ele>1985.0</ele>
        <time>2016-06-11T14:01:02Z</time>
      </trkpt>
      <trkpt lat="40.496733" lon="-4.988250">
        <ele>1987.0</ele>
        <time>2016-06-11T14:01:03Z</time>
      </trkpt>
      <trkpt lat="40.496767" lon="-4.988283">
        <ele>1989.0</ele>
        <time>2016-06-11T14:01:04Z</time>
      </trkpt>
      <trkpt lat="40.496800" lon="-4.988317">
        <ele>1993.0</ele>
        <time>2016-06-11T14:01:05Z</time>
      </trkpt>
      <trkpt lat="40.496833" lon="-4.988350">
        <ele>1997.0</ele>
        <time>2016-06-11T14:01:06Z</time>
      </trkpt>
      <trkpt lat="40.496867" lon="-4.988367">
        <ele>2001.0</ele>
        <time>2016-06-11T14:01:07Z</time>
      </trkpt>
      <trkpt lat="40.496900" lon="-4.988400">
        <ele>2005.0</ele>
        <time>2016-06-11T14:01:08Z</time>
      </trkpt>
      <trkpt lat="40.496933" lon="-4.988417">
        <ele>2008.0</ele>
        <time>2016-06-11T14:01:09Z</time>
      </trkpt>
      <trkpt lat="40.496950" lon="-4.988467">
        <ele>2011.0</ele>
        <time>2016-06-11T14:01:10Z</time>
      </trkpt>
      <trkpt lat="40.496967" lon="-4.988500">
        <ele>2014.0</ele>
        <time>2016-06-11T14:01:11Z</time>
      </trkpt>
      <trkpt lat="40.497000" lon="-4.988517">
        <ele>2018.0</ele>
        <time>2016-06-11T14:01:12Z</time>
      </trkpt>
      <trkpt lat="40.497017" lon="-4.988517">
        <ele>2022.0</ele>
        <time>2016-06-11T14:01:13Z</time>
      </trkpt>
      <trkpt lat="40.497050" lon="-4.988517">
        <ele>2026.0</ele>
        <time>2016-06-11T14:01:14Z</time>
      </trkpt>
      <trkpt lat="40.497083" lon="-4.988517">
        <ele>2031.0</ele>
        <time>2016-06-11T14:01:15Z</time>
      </trkpt>
      <trkpt lat="40.497117" lon="-4.988533">
        <ele>2035.0</ele>
        <time>2016-06-11T14:01:16Z</time>
      </trkpt>
      <trkpt lat="40.497150" lon="-4.988567">
        <ele>2038.0</ele>
        <time>2016-06-11T14:01:17Z</time>
      </trkpt>
      <trkpt lat="40.497167" lon="-4.988583">
        <ele>2041.0</ele>
        <time>2016-06-11T14:01:18Z</time>
      </trkpt>
      <trkpt lat="40.497217" lon="-4.988583">
        <ele>2044.0</ele>
        <time>2016-06-11T14:01:19Z</time>
      </trkpt>
      <trkpt lat="40.497267" lon="-4.988567">
        <ele>2047.0</ele>
        <time>2016-06-11T14:01:20Z</time>
      </trkpt>
      <trkpt lat="40.497300" lon="-4.988500">
        <ele>2049.0</ele>
        <time>2016-06-11T14:01:21Z</time>
      </trkpt>
      <trkpt lat="40.497350" lon="-4.988450">
        <ele>2051.0</ele>
        <time>2016-06-11T14:01:22Z</time>
      </trkpt>
      <trkpt lat="40.497383" lon="-4.988367">
        <ele>2053.0</ele>
        <time>2016-06-11T14:01:23Z</time>
      </trkpt>
      <trkpt lat="40.497400" lon="-4.988250">
        <ele>2055.0</ele>
        <time>2016-06-11T14:01:24Z</time>
      </trkpt>
      <trkpt lat="40.497383" lon="-4.988117">
        <ele>2057.0</ele>
        <time>2016-06-11T14:01:25Z</time>
      </trkpt>
      <trkpt lat="40.497350" lon="-4.987967">
        <ele>2058.0</ele>
        <time>2016-06-11T14:01:26Z</time>
      </trkpt>
      <trkpt lat="40.497283" lon="-4.987800">
        <ele>2060.0</ele>
        <time>2016-06-11T14:01:27Z</time>
      </trkpt>
      <trkpt lat="40.497217" lon="-4.987650">
        <ele>2061.0</ele>
        <time>2016-06-11T14:01:28Z</time>
      </trkpt>
      <trkpt lat="40.497133" lon="-4.987517">
        <ele>2063.0</ele>
        <time>2016-06-11T14:01:29Z</time>
      </trkpt>
      <trkpt lat="40.497050" lon="-4.987400">
        <ele>2066.0</ele>
        <time>2016-06-11T14:01:30Z</time>
      </trkpt>
      <trkpt lat="40.496950" lon="-4.987283">
        <ele>2069.0</ele>
        <time>2016-06-11T14:01:31Z</time>
      </trkpt>
      <trkpt lat="40.496817" lon="-4.987217">
        <ele>2070.0</ele>
        <time>2016-06-11T14:01:32Z</time>
      </trkpt>
      <trkpt lat="40.496683" lon="-4.987167">
        <ele>2070.0</ele>
        <time>2016-06-11T14:01:33Z</time>
      </trkpt>
      <trkpt lat="40.496567" lon="-4.987150">
        <ele>2071.0</ele>
        <time>2016-06-11T14:01:34Z</time>
      </trkpt>
      <trkpt lat="40.496450" lon="-4.987167">
        <ele>2074.0</ele>
        <time>2016-06-11T14:01:35Z</time>
      </trkpt>
      <trkpt lat="40.496350" lon="-4.987200">
        <ele>2077.0</ele>
        <time>2016-06-11T14:01:36Z</time>
      </trkpt>
      <trkpt lat="40.496267" lon="-4.987250">
        <ele>2079.0</ele>
        <time>2016-06-11T14:01:37Z</time>
      </trkpt>
      <trkpt lat="40.496183" lon="-4.987300">
        <ele>2082.0</ele>
        <time>2016-06-11T14:01:38Z</time>
      </trkpt>
      <trkpt lat="40.496100" lon="-4.987350">
        <ele>2085.0</ele>
        <time>2016-06-11T14:01:39Z</time>
      </trkpt>
      <trkpt lat="40.496017" lon="-4.987400">
        <ele>2088.0</ele>
        <time>2016-06-11T14:01:40Z</time>
      </trkpt>
      <trkpt lat="40.495933" lon="-4.987450">
        <ele>2091.0</ele>
        <time>2016-06-11T14:01:41Z</time>
      </trkpt>
      <trkpt lat="40.495867" lon="-4.987517">
        <ele>2092.0</ele>
        <time>2016-06-11T14:01:42Z</time>
      </trkpt>
      <trkpt lat="40.495817" lon="-4.987600">
        <ele>2096.0</ele>
        <time>2016-06-11T14:01:43Z</time>
      </trkpt>
      <trkpt lat="40.495767" lon="-4.987667">
        <ele>2101.0</ele>
        <time>2016-06-11T14:01:44Z</time>
      </trkpt>
      <trkpt lat="40.495717" lon="-4.987717">
        <ele>2107.0</ele>
        <time>2016-06-11T14:01:45Z</time>
      </trkpt>
      <trkpt lat="40.495683" lon="-4.987750">
        <ele>2113.0</ele>
        <time>2016-06-11T14:01:46Z</time>
      </trkpt>
      <trkpt lat="40.495650" lon="-4.987783">
        <ele>2117.0</ele>
        <time>2016-06-11T14:01:47Z</time>
      </trkpt>
      <trkpt lat="40.495633" lon="-4.987833">
        <ele>2121.0</ele>
        <time>2016-06-11T14:01:48Z</time>
      </trkpt>
      <trkpt lat="40.495617" lon="-4.987867">
        <ele>2122.0</ele>
        <time>2016-06-11T14:01:49Z</time>
      </trkpt>
      <trkpt lat="40.495633" lon="-4.987917">
        <ele>2123.0</ele>
        <time>2016-06-11T14:01:50Z</time>
      </trkpt>
      <trkpt lat="40.495633" lon="-4.987967">
        <ele>2123.0</ele>
        <time>2016-06-11T14:01:51Z</time>
      </trkpt>
      <trkpt lat="40.495650" lon="-4.988000">
        <ele>2124.0</ele>
        <time>2016-06-11T14:01:52Z</time>
      </trkpt>
      <trkpt lat="40.495650" lon="-4.988017">
        <ele>2127.0</ele>
        <time>2016-06-11T14:01:53Z</time>
      </trkpt>
      <trkpt lat="40.495650" lon="-4.988000">
        <ele>2129.0</ele>
        <time>2016-06-11T14:01:54Z</time>
      </trkpt>
      <trkpt lat="40.495667" lon="-4.987983">
        <ele>2129.0</ele>
        <time>2016-06-11T14:01:55Z</time>
      </trkpt>
      <trkpt lat="40.495683" lon="-4.987967">
        <ele>2129.0</ele>
        <time>2016-06-11T14:01:56Z</time>
      </trkpt>
      <trkpt lat="40.495700" lon="-4.987933">
        <ele>2129.0</ele>
        <time>2016-06-11T14:01:57Z</time>
      </trkpt>
      <trkpt lat="40.495717" lon="-4.987883">
        <ele>2129.0</ele>
        <time>2016-06-11T14:01:58Z</time>
      </trkpt>
      <trkpt lat="40.495750" lon="-4.987817">
        <ele>2129.0</ele>
        <time>2016-06-11T14:01:59Z</time>
      </trkpt>
      <trkpt lat="40.495783" lon="-4.987717">
        <ele>2129.0</ele>
        <time>2016-06-11T14:02:00Z</time>
      </trkpt>
      <trkpt lat="40.495817" lon="-4.987617">
        <ele>2130.0</ele>
        <time>2016-06-11T14:02:01Z</time>
      </trkpt>
      <trkpt lat="40.495817" lon="-4.987500">
        <ele>2131.0</ele>
        <time>2016-06-11T14:02:02Z</time>
      </trkpt>
      <trkpt lat="40.495817" lon="-4.987383">
        <ele>2133.0</ele>
        <time>2016-06-11T14:02:03Z</time>
      </trkpt>
      <trkpt lat="40.495817" lon="-4.987250">
        <ele>2134.0</ele>
        <time>2016-06-11T14:02:04Z</time>
      </trkpt>
      <trkpt lat="40.495800" lon="-4.987117">
        <ele>2136.0</ele>
        <time>2016-06-11T14:02:05Z</time>
      </trkpt>
      <trkpt lat="40.495783" lon="-4.986983">
        <ele>2137.0</ele>
        <time>2016-06-11T14:02:06Z</time>
      </trkpt>
      <trkpt lat="40.495750" lon="-4.986833">
        <ele>2139.0</ele>
        <time>2016-06-11T14:02:07Z</time>
      </trkpt>
      <trkpt lat="40.495717" lon="-4.986700">
        <ele>2141.0</ele>
        <time>2016-06-11T14:02:08Z</time>
      </trkpt>
      <trkpt lat="40.495667" lon="-4.986567">
        <ele>2143.0</ele>
        <time>2016-06-11T14:02:09Z</time>
      </trkpt>
      <trkpt lat="40.495600" lon="-4.986417">
        <ele>2144.0</ele>
        <time>2016-06-11T14:02:10Z</time>
      </trkpt>
      <trkpt lat="40.495517" lon="-4.986267">
        <ele>2146.0</ele>
        <time>2016-06-11T14:02:11Z</time>
      </trkpt>
      <trkpt lat="40.495433" lon="-4.986133">
        <ele>2150.0</ele>
        <time>2016-06-11T14:02:12Z</time>
      </trkpt>
      <trkpt lat="40.495333" lon="-4.986017">
        <ele>2155.0</ele>
        <time>2016-06-11T14:02:13Z</time>
      </trkpt>
      <trkpt lat="40.495267" lon="-4.985900">
        <ele>2160.0</ele>
        <time>2016-06-11T14:02:14Z</time>
      </trkpt>
      <trkpt lat="40.495183" lon="-4.985800">
        <ele>2164.0</ele>
        <time>2016-06-11T14:02:15Z</time>
      </trkpt>
      <trkpt lat="40.495100" lon="-4.985700">
        <ele>2165.0</ele>
        <time>2016-06-11T14:02:16Z</time>
      </trkpt>
      <trkpt lat="40.494983" lon="-4.985633">
        <ele>2166.0</ele>
        <time>2016-06-11T14:02:17Z</time>
      </trkpt>
      <trkpt lat="40.494833" lon="-4.985567">
        <ele>2166.0</ele>
        <time>2016-06-11T14:02:18Z</time>
      </trkpt>
      <trkpt lat="40.494700" lon="-4.985500">
        <ele>2167.0</ele>
        <time>2016-06-11T14:02:19Z</time>
      </trkpt>
      <trkpt lat="40.494567" lon="-4.985450">
        <ele>2171.0</ele>
        <time>2016-06-11T14:02:20Z</time>
      </trkpt>
      <trkpt lat="40.494450" lon="-4.985433">
        <ele>2175.0</ele>
        <time>2016-06-11T14:02:21Z</time>
      </trkpt>
      <trkpt lat="40.494333" lon="-4.985433">
        <ele>2179.0</ele>
        <time>2016-06-11T14:02:22Z</time>
      </trkpt>
      <trkpt lat="40.494233" lon="-4.985450">
        <ele>2183.0</ele>
        <time>2016-06-11T14:02:23Z</time>
      </trkpt>
      <trkpt lat="40.494117" lon="-4.985483">
        <ele>2185.0</ele>
        <time>2016-06-11T14:02:24Z</time>
      </trkpt>
      <trkpt lat="40.494017" lon="-4.985533">
        <ele>2188.0</ele>
        <time>2016-06-11T14:02:25Z</time>
      </trkpt>
      <trkpt lat="40.493917" lon="-4.985583">
        <ele>2191.0</ele>
        <time>2016-06-11T14:02:26Z</time>
      </trkpt>
      <trkpt lat="40.493833" lon="-4.985650">
        <ele>2194.0</ele>
        <time>2016-06-11T14:02:27Z</time>
      </trkpt>
      <trkpt lat="40.493767" lon="-4.985717">
        <ele>2199.0</ele>
        <time>2016-06-11T14:02:28Z</time>
      </trkpt>
      <trkpt lat="40.493700" lon="-4.985783">
        <ele>2204.0</ele>
        <time>2016-06-11T14:02:29Z</time>
      </trkpt>
      <trkpt lat="40.493650" lon="-4.985850">
        <ele>2210.0</ele>
        <time>2016-06-11T14:02:30Z</time>
      </trkpt>
      <trkpt lat="40.493600" lon="-4.985867">
        <ele>2217.0</ele>
        <time>2016-06-11T14:02:31Z</time>
      </trkpt>
      <trkpt lat="40.493550" lon="-4.985883">
        <ele>2224.0</ele>
        <time>2016-06-11T14:02:32Z</time>
      </trkpt>
      <trkpt lat="40.493517" lon="-4.985867">
        <ele>2228.0</ele>
        <time>2016-06-11T14:02:33Z</time>
      </trkpt>
      <trkpt lat="40.493483" lon="-4.985867">
        <ele>2230.0</ele>
        <time>2016-06-11T14:02:34Z</time>
      </trkpt>
      <trkpt lat="40.493433" lon="-4.985900">
        <ele>2232.0</ele>
        <time>2016-06-11T14:02:35Z</time>
      </trkpt>
      <trkpt lat="40.493417" lon="-4.985950">
        <ele>2232.0</ele>
        <time>2016-06-11T14:02:36Z</time>
      </trkpt>
      <trkpt lat="40.493433" lon="-4.985967">
        <ele>2233.0</ele>
        <time>2016-06-11T14:02:37Z</time>
      </trkpt>
      <trkpt lat="40.493450" lon="-4.985967">
        <ele>2234.0</ele>
        <time>2016-06-11T14:02:38Z</time>
      </trkpt>
      <trkpt lat="40.493467" lon="-4.985933">
        <ele>2236.0</ele>
        <time>2016-06-11T14:02:39Z</time>
      </trkpt>
      <trkpt lat="40.493483" lon="-4.985900">
        <ele>2237.0</ele>
        <time>2016-06-11T14:02:40Z</time>
      </trkpt>
      <trkpt lat="40.493500" lon="-4.985850">
        <ele>2239.0</ele>
        <time>2016-06-11T14:02:41Z</time>
      </trkpt>
      <trkpt lat="40.493517" lon="-4.985800">
        <ele>2240.0</ele>
        <time>2016-06-11T14:02:42Z</time>
      </trkpt>
      <trkpt lat="40.493550" lon="-4.985750">
        <ele>2241.0</ele>
        <time>2016-06-11T14:02:43Z</time>
      </trkpt>
      <trkpt lat="40.493567" lon="-4.985683">
        <ele>2242.0</ele>
        <time>2016-06-11T14:02:44Z</time>
      </trkpt>
      <trkpt lat="40.493583" lon="-4.985583">
        <ele>2243.0</ele>
        <time>2016-06-11T14:02:45Z</time>
      </trkpt>
      <trkpt lat="40.493600" lon="-4.985483">
        <ele>2245.0</ele>
        <time>2016-06-11T14:02:46Z</time>
      </trkpt>
      <trkpt lat="40.493600" lon="-4.985350">
        <ele>2247.0</ele>
        <time>2016-06-11T14:02:47Z</time>
      </trkpt>
      <trkpt lat="40.493583" lon="-4.985217">
        <ele>2248.0</ele>
        <time>2016-06-11T14:02:48Z</time>
      </trkpt>
      <trkpt lat="40.493567" lon="-4.985083">
        <ele>2249.0</ele>
        <time>2016-06-11T14:02:49Z</time>
      </trkpt>
      <trkpt lat="40.493550" lon="-4.984933">
        <ele>2251.0</ele>
        <time>2016-06-11T14:02:50Z</time>
      </trkpt>
      <trkpt lat="40.493517" lon="-4.984783">
        <ele>2253.0</ele>
        <time>2016-06-11T14:02:51Z</time>
      </trkpt>
      <trkpt lat="40.493450" lon="-4.984633">
        <ele>2256.0</ele>
        <time>2016-06-11T14:02:52Z</time>
      </trkpt>
      <trkpt lat="40.493367" lon="-4.984483">
        <ele>2258.0</ele>
        <time>2016-06-11T14:02:53Z</time>
      </trkpt>
      <trkpt lat="40.493283" lon="-4.984367">
        <ele>2261.0</ele>
        <time>2016-06-11T14:02:54Z</time>
      </trkpt>
      <trkpt lat="40.493183" lon="-4.984250">
        <ele>2263.0</ele>
        <time>2016-06-11T14:02:55Z</time>
      </trkpt>
      <trkpt lat="40.493067" lon="-4.984150">
        <ele>2266.0</ele>
        <time>2016-06-11T14:02:56Z</time>
      </trkpt>
      <trkpt lat="40.492933" lon="-4.984050">
        <ele>2269.0</ele>
        <time>2016-06-11T14:02:57Z</time>
      </trkpt>
      <trkpt lat="40.492817" lon="-4.983983">
        <ele>2273.0</ele>
        <time>2016-06-11T14:02:58Z</time>
      </trkpt>
      <trkpt lat="40.492683" lon="-4.983933">
        <ele>2278.0</ele>
        <time>2016-06-11T14:02:59Z</time>
      </trkpt>
      <trkpt lat="40.492567" lon="-4.983933">
        <ele>2283.0</ele>
        <time>2016-06-11T14:03:00Z</time>
      </trkpt>
      <trkpt lat="40.492467" lon="-4.983950">
        <ele>2286.0</ele>
        <time>2016-06-11T14:03:01Z</time>
      </trkpt>
      <trkpt lat="40.492350" lon="-4.983967">
        <ele>2291.0</ele>
        <time>2016-06-11T14:03:02Z</time>
      </trkpt>
      <trkpt lat="40.492267" lon="-4.983983">
        <ele>2296.0</ele>
        <time>2016-06-11T14:03:03Z</time>
      </trkpt>
      <trkpt lat="40.492183" lon="-4.984000">
        <ele>2301.0</ele>
        <time>2016-06-11T14:03:04Z</time>
      </trkpt>
      <trkpt lat="40.492117" lon="-4.984050">
        <ele>2304.0</ele>
        <time>2016-06-11T14:03:05Z</time>
      </trkpt>
      <trkpt lat="40.492083" lon="-4.984100">
        <ele>2308.0</ele>
        <time>2016-06-11T14:03:06Z</time>
      </trkpt>
      <trkpt lat="40.492050" lon="-4.984133">
        <ele>2310.0</ele>
        <time>2016-06-11T14:03:07Z</time>
      </trkpt>
      <trkpt lat="40.492033" lon="-4.984167">
        <ele>2313.0</ele>
        <time>2016-06-11T14:03:08Z</time>
      </trkpt>
      <trkpt lat="40.492033" lon="-4.984183">
        <ele>2315.0</ele>
        <time>2016-06-11T14:03:09Z</time>
      </trkpt>
      <trkpt lat="40.492050" lon="-4.984200">
        <ele>2317.0</ele>
        <time>2016-06-11T14:03:10Z</time>
      </trkpt>
      <trkpt lat="40.492067" lon="-4.984183">
        <ele>2319.0</ele>
        <time>2016-06-11T14:03:11Z</time>
      </trkpt>
      <trkpt lat="40.492117" lon="-4.984183">
        <ele>2320.0</ele>
        <time>2016-06-11T14:03:12Z</time>
      </trkpt>
      <trkpt lat="40.492150" lon="-4.984150">
        <ele>2322.0</ele>
        <time>2016-06-11T14:03:13Z</time>
      </trkpt>
      <trkpt lat="40.492200" lon="-4.984117">
        <ele>2324.0</ele>
        <time>2016-06-11T14:03:14Z</time>
      </trkpt>
      <trkpt lat="40.492233" lon="-4.984067">
        <ele>2327.0</ele>
        <time>2016-06-11T14:03:15Z</time>
      </trkpt>
      <trkpt lat="40.492283" lon="-4.984000">
        <ele>2330.0</ele>
        <time>2016-06-11T14:03:16Z</time>
      </trkpt>
      <trkpt lat="40.492317" lon="-4.983900">
        <ele>2333.0</ele>
        <time>2016-06-11T14:03:17Z</time>
      </trkpt>
      <trkpt lat="40.492333" lon="-4.983783">
        <ele>2336.0</ele>
        <time>2016-06-11T14:03:18Z</time>
      </trkpt>
      <trkpt lat="40.492350" lon="-4.983683">
        <ele>2340.0</ele>
        <time>2016-06-11T14:03:19Z</time>
      </trkpt>
      <trkpt lat="40.492367" lon="-4.983567">
        <ele>2345.0</ele>
        <time>2016-06-11T14:03:20Z</time>
      </trkpt>
      <trkpt lat="40.492367" lon="-4.983433">
        <ele>2348.0</ele>
        <time>2016-06-11T14:03:21Z</time>
      </trkpt>
      <trkpt lat="40.492367" lon="-4.983283">
        <ele>2352.0</ele>
        <time>2016-06-11T14:03:22Z</time>
      </trkpt>
      <trkpt lat="40.492350" lon="-4.983133">
        <ele>2355.0</ele>
        <time>2016-06-11T14:03:23Z</time>
      </trkpt>
      <trkpt lat="40.492317" lon="-4.982967">
        <ele>2359.0</ele>
        <time>2016-06-11T14:03:24Z</time>
      </trkpt>
      <trkpt lat="40.492267" lon="-4.982817">
        <ele>2362.0</ele>
        <time>2016-06-11T14:03:25Z</time>
      </trkpt>
      <trkpt lat="40.492183" lon="-4.982667">
        <ele>2365.0</ele>
        <time>2016-06-11T14:03:26Z</time>
      </trkpt>
      <trkpt lat="40.492050" lon="-4.982533">
        <ele>2367.0</ele>
        <time>2016-06-11T14:03:27Z</time>
      </trkpt>
      <trkpt lat="40.491933" lon="-4.982450">
        <ele>2371.0</ele>
        <time>2016-06-11T14:03:28Z</time>
      </trkpt>
      <trkpt lat="40.491817" lon="-4.982400">
        <ele>2374.0</ele>
        <time>2016-06-11T14:03:29Z</time>
      </trkpt>
      <trkpt lat="40.491700" lon="-4.982367">
        <ele>2377.0</ele>
        <time>2016-06-11T14:03:30Z</time>
      </trkpt>
      <trkpt lat="40.491583" lon="-4.982350">
        <ele>2378.0</ele>
        <time>2016-06-11T14:03:31Z</time>
      </trkpt>
      <trkpt lat="40.491467" lon="-4.982367">
        <ele>2379.0</ele>
        <time>2016-06-11T14:03:32Z</time>
      </trkpt>
      <trkpt lat="40.491350" lon="-4.982400">
        <ele>2379.0</ele>
        <time>2016-06-11T14:03:33Z</time>
      </trkpt>
      <trkpt lat="40.491233" lon="-4.982450">
        <ele>2379.0</ele>
        <time>2016-06-11T14:03:34Z</time>
      </trkpt>
      <trkpt lat="40.491150" lon="-4.982500">
        <ele>2381.0</ele>
        <time>2016-06-11T14:03:35Z</time>
      </trkpt>
      <trkpt lat="40.491083" lon="-4.982533">
        <ele>2384.0</ele>
        <time>2016-06-11T14:03:36Z</time>
      </trkpt>
      <trkpt lat="40.491033" lon="-4.982600">
        <ele>2386.0</ele>
        <time>2016-06-11T14:03:37Z</time>
      </trkpt>
      <trkpt lat="40.491017" lon="-4.982667">
        <ele>2387.0</ele>
        <time>2016-06-11T14:03:38Z</time>
      </trkpt>
      <trkpt lat="40.491000" lon="-4.982750">
        <ele>2389.0</ele>
        <time>2016-06-11T14:03:39Z</time>
      </trkpt>
      <trkpt lat="40.491000" lon="-4.982800">
        <ele>2394.0</ele>
        <time>2016-06-11T14:03:40Z</time>
      </trkpt>
      <trkpt lat="40.491000" lon="-4.982817">
        <ele>2398.0</ele>
        <time>2016-06-11T14:03:41Z</time>
      </trkpt>
      <trkpt lat="40.490983" lon="-4.982833">
        <ele>2402.0</ele>
        <time>2016-06-11T14:03:42Z</time>
      </trkpt>
      <trkpt lat="40.490983" lon="-4.982867">
        <ele>2405.0</ele>
        <time>2016-06-11T14:03:43Z</time>
      </trkpt>
      <trkpt lat="40.490983" lon="-4.982883">
        <ele>2407.0</ele>
        <time>2016-06-11T14:03:44Z</time>
      </trkpt>
      <trkpt lat="40.491017" lon="-4.982917">
        <ele>2408.0</ele>
        <time>2016-06-11T14:03:45Z</time>
      </trkpt>
      <trkpt lat="40.491050" lon="-4.982917">
        <ele>2410.0</ele>
        <time>2016-06-11T14:03:46Z</time>
      </trkpt>
      <trkpt lat="40.491083" lon="-4.982917">
        <ele>2413.0</ele>
        <time>2016-06-11T14:03:47Z</time>
      </trkpt>
      <trkpt lat="40.491117" lon="-4.982883">
        <ele>2416.0</ele>
        <time>2016-06-11T14:03:48Z</time>
      </trkpt>
      <trkpt lat="40.491150" lon="-4.982867">
        <ele>2421.0</ele>
        <time>2016-06-11T14:03:49Z</time>
      </trkpt>
      <trkpt lat="40.491183" lon="-4.982833">
        <ele>2426.0</ele>
        <time>2016-06-11T14:03:50Z</time>
      </trkpt>
      <trkpt lat="40.491200" lon="-4.982800">
        <ele>2431.0</ele>
        <time>2016-06-11T14:03:51Z</time>
      </trkpt>
      <trkpt lat="40.491217" lon="-4.982783">
        <ele>2435.0</ele>
        <time>2016-06-11T14:03:52Z</time>
      </trkpt>
      <trkpt lat="40.491250" lon="-4.982750">
        <ele>2440.0</ele>
        <time>2016-06-11T14:03:53Z</time>
      </trkpt>
      <trkpt lat="40.491283" lon="-4.982700">
        <ele>2443.0</ele>
        <time>2016-06-11T14:03:54Z</time>
      </trkpt>
      <trkpt lat="40.491333" lon="-4.982600">
        <ele>2446.0</ele>
        <time>2016-06-11T14:03:55Z</time>
      </trkpt>
      <trkpt lat="40.491367" lon="-4.982483">
        <ele>2450.0</ele>
        <time>2016-06-11T14:03:56Z</time>
      </trkpt>
      <trkpt lat="40.491383" lon="-4.982367">
        <ele>2454.0</ele>
        <time>2016-06-11T14:03:57Z</time>
      </trkpt>
      <trkpt lat="40.491400" lon="-4.982233">
        <ele>2459.0</ele>
        <time>2016-06-11T14:03:58Z</time>
      </trkpt>
      <trkpt lat="40.491417" lon="-4.982100">
        <ele>2462.0</ele>
        <time>2016-06-11T14:03:59Z</time>
      </trkpt>
      <trkpt lat="40.491417" lon="-4.981967">
        <ele>2466.0</ele>
        <time>2016-06-11T14:04:00Z</time>
      </trkpt>
      <trkpt lat="40.491383" lon="-4.981817">
        <ele>2470.0</ele>
        <time>2016-06-11T14:04:01Z</time>
      </trkpt>
      <trkpt lat="40.491333" lon="-4.981667">
        <ele>2473.0</ele>
        <time>2016-06-11T14:04:02Z</time>
      </trkpt>
      <trkpt lat="40.491283" lon="-4.981500">
        <ele>2476.0</ele>
        <time>2016-06-11T14:04:03Z</time>
      </trkpt>
      <trkpt lat="40.491200" lon="-4.981367">
        <ele>2480.0</ele>
        <time>2016-06-11T14:04:04Z</time>
      </trkpt>
      <trkpt lat="40.491117" lon="-4.981250">
        <ele>2483.0</ele>
        <time>2016-06-11T14:04:05Z</time>
      </trkpt>
      <trkpt lat="40.491000" lon="-4.981167">
        <ele>2486.0</ele>
        <time>2016-06-11T14:04:06Z</time>
      </trkpt>
      <trkpt lat="40.490900" lon="-4.981117">
        <ele>2489.0</ele>
        <time>2016-06-11T14:04:07Z</time>
      </trkpt>
      <trkpt lat="40.490783" lon="-4.981083">
        <ele>2491.0</ele>
        <time>2016-06-11T14:04:08Z</time>
      </trkpt>
      <trkpt lat="40.490700" lon="-4.981083">
        <ele>2494.0</ele>
        <time>2016-06-11T14:04:09Z</time>
      </trkpt>
      <trkpt lat="40.490617" lon="-4.981083">
        <ele>2496.0</ele>
        <time>2016-06-11T14:04:10Z</time>
      </trkpt>
      <trkpt lat="40.490550" lon="-4.981117">
        <ele>2499.0</ele>
        <time>2016-06-11T14:04:11Z</time>
      </trkpt>
      <trkpt lat="40.490483" lon="-4.981150">
        <ele>2501.0</ele>
        <time>2016-06-11T14:04:12Z</time>
      </trkpt>
      <trkpt lat="40.490450" lon="-4.981217">
        <ele>2503.0</ele>
        <time>2016-06-11T14:04:13Z</time>
      </trkpt>
      <trkpt lat="40.490433" lon="-4.981283">
        <ele>2504.0</ele>
        <time>2016-06-11T14:04:14Z</time>
      </trkpt>
      <trkpt lat="40.490433" lon="-4.981350">
        <ele>2506.0</ele>
        <time>2016-06-11T14:04:15Z</time>
      </trkpt>
      <trkpt lat="40.490450" lon="-4.981400">
        <ele>2509.0</ele>
        <time>2016-06-11T14:04:16Z</time>
      </trkpt>
      <trkpt lat="40.490467" lon="-4.981433">
        <ele>2514.0</ele>
        <time>2016-06-11T14:04:17Z</time>
      </trkpt>
      <trkpt lat="40.490483" lon="-4.981450">
        <ele>2518.0</ele>
        <time>2016-06-11T14:04:18Z</time>
      </trkpt>
      <trkpt lat="40.490500" lon="-4.981483">
        <ele>2521.0</ele>
        <time>2016-06-11T14:04:19Z</time>
      </trkpt>
      <trkpt lat="40.490533" lon="-4.981500">
        <ele>2524.0</ele>
        <time>2016-06-11T14:04:20Z</time>
      </trkpt>
      <trkpt lat="40.490583" lon="-4.981483">
        <ele>2526.0</ele>
        <time>2016-06-11T14:04:21Z</time>
      </trkpt>
      <trkpt lat="40.490633" lon="-4.981467">
        <ele>2528.0</ele>
        <time>2016-06-11T14:04:22Z</time>
      </trkpt>
      <trkpt lat="40.490700" lon="-4.981417">
        <ele>2531.0</ele>
        <time>2016-06-11T14:04:23Z</time>
      </trkpt>
      <trkpt lat="40.490750" lon="-4.981367">
        <ele>2534.0</ele>
        <time>2016-06-11T14:04:24Z</time>
      </trkpt>
      <trkpt lat="40.490783" lon="-4.981300">
        <ele>2539.0</ele>
        <time>2016-06-11T14:04:25Z</time>
      </trkpt>
      <trkpt lat="40.490800" lon="-4.981233">
        <ele>2543.0</ele>
        <time>2016-06-11T14:04:26Z</time>
      </trkpt>
      <trkpt lat="40.490817" lon="-4.981183">
        <ele>2547.0</ele>
        <time>2016-06-11T14:04:27Z</time>
      </trkpt>
      <trkpt lat="40.490850" lon="-4.981100">
        <ele>2549.0</ele>
        <time>2016-06-11T14:04:28Z</time>
      </trkpt>
      <trkpt lat="40.490867" lon="-4.981017">
        <ele>2550.0</ele>
        <time>2016-06-11T14:04:29Z</time>
      </trkpt>
      <trkpt lat="40.490900" lon="-4.980900">
        <ele>2552.0</ele>
        <time>2016-06-11T14:04:30Z</time>
      </trkpt>
      <trkpt lat="40.490917" lon="-4.980750">
        <ele>2553.0</ele>
        <time>2016-06-11T14:04:31Z</time>
      </trkpt>
      <trkpt lat="40.490900" lon="-4.980617">
        <ele>2555.0</ele>
        <time>2016-06-11T14:04:32Z</time>
      </trkpt>
      <trkpt lat="40.490883" lon="-4.980467">
        <ele>2557.0</ele>
        <time>2016-06-11T14:04:33Z</time>
      </trkpt>
      <trkpt lat="40.490850" lon="-4.980333">
        <ele>2559.0</ele>
        <time>2016-06-11T14:04:34Z</time>
      </trkpt>
      <trkpt lat="40.490800" lon="-4.980183">
        <ele>2560.0</ele>
        <time>2016-06-11T14:04:35Z</time>
      </trkpt>
      <trkpt lat="40.490750" lon="-4.980033">
        <ele>2561.0</ele>
        <time>2016-06-11T14:04:36Z</time>
      </trkpt>
      <trkpt lat="40.490667" lon="-4.979900">
        <ele>2562.0</ele>
        <time>2016-06-11T14:04:37Z</time>
      </trkpt>
      <trkpt lat="40.490600" lon="-4.979767">
        <ele>2564.0</ele>
        <time>2016-06-11T14:04:38Z</time>
      </trkpt>
      <trkpt lat="40.490517" lon="-4.979633">
        <ele>2566.0</ele>
        <time>2016-06-11T14:04:39Z</time>
      </trkpt>
      <trkpt lat="40.490433" lon="-4.979500">
        <ele>2568.0</ele>
        <time>2016-06-11T14:04:40Z</time>
      </trkpt>
      <trkpt lat="40.490350" lon="-4.979383">
        <ele>2570.0</ele>
        <time>2016-06-11T14:04:41Z</time>
      </trkpt>
      <trkpt lat="40.490250" lon="-4.979300">
        <ele>2571.0</ele>
        <time>2016-06-11T14:04:42Z</time>
      </trkpt>
      <trkpt lat="40.490133" lon="-4.979233">
        <ele>2572.0</ele>
        <time>2016-06-11T14:04:43Z</time>
      </trkpt>
      <trkpt lat="40.490017" lon="-4.979200">
        <ele>2574.0</ele>
        <time>2016-06-11T14:04:44Z</time>
      </trkpt>
      <trkpt lat="40.489900" lon="-4.979167">
        <ele>2575.0</ele>
        <time>2016-06-11T14:04:45Z</time>
      </trkpt>
      <trkpt lat="40.489783" lon="-4.979183">
        <ele>2577.0</ele>
        <time>2016-06-11T14:04:46Z</time>
      </trkpt>
      <trkpt lat="40.489683" lon="-4.979200">
        <ele>2578.0</ele>
        <time>2016-06-11T14:04:47Z</time>
      </trkpt>
      <trkpt lat="40.489583" lon="-4.979250">
        <ele>2578.0</ele>
        <time>2016-06-11T14:04:48Z</time>
      </trkpt>
      <trkpt lat="40.489517" lon="-4.979317">
        <ele>2579.0</ele>
        <time>2016-06-11T14:04:49Z</time>
      </trkpt>
      <trkpt lat="40.489450" lon="-4.979383">
        <ele>2581.0</ele>
        <time>2016-06-11T14:04:50Z</time>
      </trkpt>
      <trkpt lat="40.489383" lon="-4.979467">
        <ele>2582.0</ele>
        <time>2016-06-11T14:04:51Z</time>
      </trkpt>
      <trkpt lat="40.489333" lon="-4.979533">
        <ele>2584.0</ele>
        <time>2016-06-11T14:04:52Z</time>
      </trkpt>
      <trkpt lat="40.489283" lon="-4.979617">
        <ele>2587.0</ele>
        <time>2016-06-11T14:04:53Z</time>
      </trkpt>
      <trkpt lat="40.489250" lon="-4.979683">
        <ele>2589.0</ele>
        <time>2016-06-11T14:04:54Z</time>
      </trkpt>
      <trkpt lat="40.489233" lon="-4.979767">
        <ele>2592.0</ele>
        <time>2016-06-11T14:04:55Z</time>
      </trkpt>
      <trkpt lat="40.489233" lon="-4.979817">
        <ele>2595.0</ele>
        <time>2016-06-11T14:04:56Z</time>
      </trkpt>
      <trkpt lat="40.489200" lon="-4.979883">
        <ele>2598.0</ele>
        <time>2016-06-11T14:04:57Z</time>
      </trkpt>
      <trkpt lat="40.489167" lon="-4.979950">
        <ele>2600.0</ele>
        <time>2016-06-11T14:04:58Z</time>
      </trkpt>
      <trkpt lat="40.489133" lon="-4.980000">
        <ele>2602.0</ele>
        <time>2016-06-11T14:04:59Z</time>
      </trkpt>
      <trkpt lat="40.489100" lon="-4.980067">
        <ele>2603.0</ele>
        <time>2016-06-11T14:05:00Z</time>
      </trkpt>
      <trkpt lat="40.489100" lon="-4.980133">
        <ele>2604.0</ele>
        <time>2016-06-11T14:05:01Z</time>
      </trkpt>
      <trkpt lat="40.489117" lon="-4.980183">
        <ele>2605.0</ele>
        <time>2016-06-11T14:05:02Z</time>
      </trkpt>
      <trkpt lat="40.489133" lon="-4.980233">
        <ele>2606.0</ele>
        <time>2016-06-11T14:05:03Z</time>
      </trkpt>
      <trkpt lat="40.489150" lon="-4.980283">
        <ele>2608.0</ele>
        <time>2016-06-11T14:05:04Z</time>
      </trkpt>
      <trkpt lat="40.489183" lon="-4.980300">
        <ele>2610.0</ele>
        <time>2016-06-11T14:05:05Z</time>
      </trkpt>
      <trkpt lat="40.489200" lon="-4.980317">
        <ele>2612.0</ele>
        <time>2016-06-11T14:05:06Z</time>
      </trkpt>
      <trkpt lat="40.489233" lon="-4.980317">
        <ele>2614.0</ele>
        <time>2016-06-11T14:05:07Z</time>
      </trkpt>
      <trkpt lat="40.489267" lon="-4.980300">
        <ele>2615.0</ele>
        <time>2016-06-11T14:05:08Z</time>
      </trkpt>
      <trkpt lat="40.489317" lon="-4.980283">
        <ele>2616.0</ele>
        <time>2016-06-11T14:05:09Z</time>
      </trkpt>
      <trkpt lat="40.489367" lon="-4.980250">
        <ele>2617.0</ele>
        <time>2016-06-11T14:05:10Z</time>
      </trkpt>
      <trkpt lat="40.489417" lon="-4.980183">
        <ele>2618.0</ele>
        <time>2016-06-11T14:05:11Z</time>
      </trkpt>
      <trkpt lat="40.489467" lon="-4.980133">
        <ele>2619.0</ele>
        <time>2016-06-11T14:05:12Z</time>
      </trkpt>
      <trkpt lat="40.489500" lon="-4.980067">
        <ele>2620.0</ele>
        <time>2016-06-11T14:05:13Z</time>
      </trkpt>
      <trkpt lat="40.489550" lon="-4.980000">
        <ele>2621.0</ele>
        <time>2016-06-11T14:05:14Z</time>
      </trkpt>
      <trkpt lat="40.489600" lon="-4.979917">
        <ele>2622.0</ele>
        <time>2016-06-11T14:05:15Z</time>
      </trkpt>
      <trkpt lat="40.489650" lon="-4.979833">
        <ele>2623.0</ele>
        <time>2016-06-11T14:05:16Z</time>
      </trkpt>
      <trkpt lat="40.489683" lon="-4.979733">
        <ele>2624.0</ele>
        <time>2016-06-11T14:05:17Z</time>
      </trkpt>
      <trkpt lat="40.489717" lon="-4.979617">
        <ele>2624.0</ele>
        <time>2016-06-11T14:05:18Z</time>
      </trkpt>
      <trkpt lat="40.489717" lon="-4.979483">
        <ele>2623.0</ele>
        <time>2016-06-11T14:05:19Z</time>
      </trkpt>
      <trkpt lat="40.489733" lon="-4.979350">
        <ele>2622.0</ele>
        <time>2016-06-11T14:05:20Z</time>
      </trkpt>
      <trkpt lat="40.489733" lon="-4.979200">
        <ele>2623.0</ele>
        <time>2016-06-11T14:05:21Z</time>
      </trkpt>
      <trkpt lat="40.489750" lon="-4.979083">
        <ele>2623.0</ele>
        <time>2016-06-11T14:05:22Z</time>
      </trkpt>
      <trkpt lat="40.489750" lon="-4.978950">
        <ele>2624.0</ele>
        <time>2016-06-11T14:05:23Z</time>
      </trkpt>
      <trkpt lat="40.489733" lon="-4.978817">
        <ele>2625.0</ele>
        <time>2016-06-11T14:05:24Z</time>
      </trkpt>
      <trkpt lat="40.489717" lon="-4.978683">
        <ele>2625.0</ele>
        <time>2016-06-11T14:05:25Z</time>
      </trkpt>
      <trkpt lat="40.489700" lon="-4.978550">
        <ele>2625.0</ele>
        <time>2016-06-11T14:05:26Z</time>
      </trkpt>
      <trkpt lat="40.489683" lon="-4.978400">
        <ele>2625.0</ele>
        <time>2016-06-11T14:05:27Z</time>
      </trkpt>
      <trkpt lat="40.489633" lon="-4.978250">
        <ele>2625.0</ele>
        <time>2016-06-11T14:05:28Z</time>
      </trkpt>
      <trkpt lat="40.489583" lon="-4.978100">
        <ele>2624.0</ele>
        <time>2016-06-11T14:05:29Z</time>
      </trkpt>
      <trkpt lat="40.489500" lon="-4.977950">
        <ele>2624.0</ele>
        <time>2016-06-11T14:05:30Z</time>
      </trkpt>
      <trkpt lat="40.489417" lon="-4.977800">
        <ele>2625.0</ele>
        <time>2016-06-11T14:05:31Z</time>
      </trkpt>
      <trkpt lat="40.489350" lon="-4.977667">
        <ele>2626.0</ele>
        <time>2016-06-11T14:05:32Z</time>
      </trkpt>
      <trkpt lat="40.489300" lon="-4.977533">
        <ele>2628.0</ele>
        <time>2016-06-11T14:05:33Z</time>
      </trkpt>
      <trkpt lat="40.489250" lon="-4.977400">
        <ele>2629.0</ele>
        <time>2016-06-11T14:05:34Z</time>
      </trkpt>
      <trkpt lat="40.489183" lon="-4.977267">
        <ele>2629.0</ele>
        <time>2016-06-11T14:05:35Z</time>
      </trkpt>
      <trkpt lat="40.489117" lon="-4.977117">
        <ele>2629.0</ele>
        <time>2016-06-11T14:05:36Z</time>
      </trkpt>
      <trkpt lat="40.489050" lon="-4.976983">
        <ele>2628.0</ele>
        <time>2016-06-11T14:05:37Z</time>
      </trkpt>
      <trkpt lat="40.488950" lon="-4.976867">
        <ele>2628.0</ele>
        <time>2016-06-11T14:05:38Z</time>
      </trkpt>
      <trkpt lat="40.488850" lon="-4.976767">
        <ele>2627.0</ele>
        <time>2016-06-11T14:05:39Z</time>
      </trkpt>
      <trkpt lat="40.488733" lon="-4.976700">
        <ele>2627.0</ele>
        <time>2016-06-11T14:05:40Z</time>
      </trkpt>
      <trkpt lat="40.488617" lon="-4.976667">
        <ele>2627.0</ele>
        <time>2016-06-11T14:05:41Z</time>
      </trkpt>
      <trkpt lat="40.488517" lon="-4.976633">
        <ele>2627.0</ele>
        <time>2016-06-11T14:05:42Z</time>
      </trkpt>
      <trkpt lat="40.488400" lon="-4.976617">
        <ele>2629.0</ele>
        <time>2016-06-11T14:05:43Z</time>
      </trkpt>
      <trkpt lat="40.488300" lon="-4.976583">
        <ele>2630.0</ele>
        <time>2016-06-11T14:05:44Z</time>
      </trkpt>
      <trkpt lat="40.488183" lon="-4.976550">
        <ele>2630.0</ele>
        <time>2016-06-11T14:05:45Z</time>
      </trkpt>
      <trkpt lat="40.488067" lon="-4.976533">
        <ele>2632.0</ele>
        <time>2016-06-11T14:05:46Z</time>
      </trkpt>
      <trkpt lat="40.487967" lon="-4.976567">
        <ele>2632.0</ele>
        <time>2016-06-11T14:05:47Z</time>
      </trkpt>
      <trkpt lat="40.487883" lon="-4.976600">
        <ele>2634.0</ele>
        <time>2016-06-11T14:05:48Z</time>
      </trkpt>
      <trkpt lat="40.487817" lon="-4.976633">
        <ele>2635.0</ele>
        <time>2016-06-11T14:05:49Z</time>
      </trkpt>
      <trkpt lat="40.487767" lon="-4.976650">
        <ele>2637.0</ele>
        <time>2016-06-11T14:05:50Z</time>
      </trkpt>
      <trkpt lat="40.487700" lon="-4.976667">
        <ele>2638.0</ele>
        <time>2016-06-11T14:05:51Z</time>
      </trkpt>
      <trkpt lat="40.487633" lon="-4.976700">
        <ele>2638.0</ele>
        <time>2016-06-11T14:05:52Z</time>
      </trkpt>
      <trkpt lat="40.487567" lon="-4.976750">
        <ele>2638.0</ele>
        <time>2016-06-11T14:05:53Z</time>
      </trkpt>
      <trkpt lat="40.487533" lon="-4.976817">
        <ele>2638.0</ele>
        <time>2016-06-11T14:05:54Z</time>
      </trkpt>
      <trkpt lat="40.487500" lon="-4.976867">
        <ele>2639.0</ele>
        <time>2016-06-11T14:05:55Z</time>
      </trkpt>
      <trkpt lat="40.487500" lon="-4.976900">
        <ele>2639.0</ele>
        <time>2016-06-11T14:05:56Z</time>
      </trkpt>
      <trkpt lat="40.487483" lon="-4.976950">
        <ele>2640.0</ele>
        <time>2016-06-11T14:05:57Z</time>
      </trkpt>
      <trkpt lat="40.487467" lon="-4.977000">
        <ele>2640.0</ele>
        <time>2016-06-11T14:05:58Z</time>
      </trkpt>
      <trkpt lat="40.487450" lon="-4.977067">
        <ele>2639.0</ele>
        <time>2016-06-11T14:05:59Z</time>
      </trkpt>
      <trkpt lat="40.487433" lon="-4.977117">
        <ele>2639.0</ele>
        <time>2016-06-11T14:06:00Z</time>
      </trkpt>
      <trkpt lat="40.487417" lon="-4.977167">
        <ele>2639.0</ele>
        <time>2016-06-11T14:06:01Z</time>
      </trkpt>
      <trkpt lat="40.487433" lon="-4.977217">
        <ele>2639.0</ele>
        <time>2016-06-11T14:06:02Z</time>
      </trkpt>
      <trkpt lat="40.487467" lon="-4.977250">
        <ele>2638.0</ele>
        <time>2016-06-11T14:06:03Z</time>
      </trkpt>
      <trkpt lat="40.487500" lon="-4.977267">
        <ele>2637.0</ele>
        <time>2016-06-11T14:06:04Z</time>
      </trkpt>
      <trkpt lat="40.487550" lon="-4.977267">
        <ele>2636.0</ele>
        <time>2016-06-11T14:06:05Z</time>
      </trkpt>
      <trkpt lat="40.487617" lon="-4.977250">
        <ele>2634.0</ele>
        <time>2016-06-11T14:06:06Z</time>
      </trkpt>
      <trkpt lat="40.487683" lon="-4.977217">
        <ele>2632.0</ele>
        <time>2016-06-11T14:06:07Z</time>
      </trkpt>
      <trkpt lat="40.487733" lon="-4.977183">
        <ele>2632.0</ele>
        <time>2016-06-11T14:06:08Z</time>
      </trkpt>
      <trkpt lat="40.487800" lon="-4.977117">
        <ele>2631.0</ele>
        <time>2016-06-11T14:06:09Z</time>
      </trkpt>
      <trkpt lat="40.487850" lon="-4.977033">
        <ele>2630.0</ele>
        <time>2016-06-11T14:06:10Z</time>
      </trkpt>
      <trkpt lat="40.487883" lon="-4.976917">
        <ele>2628.0</ele>
        <time>2016-06-11T14:06:11Z</time>
      </trkpt>
      <trkpt lat="40.487933" lon="-4.976800">
        <ele>2627.0</ele>
        <time>2016-06-11T14:06:12Z</time>
      </trkpt>
      <trkpt lat="40.487950" lon="-4.976683">
        <ele>2627.0</ele>
        <time>2016-06-11T14:06:13Z</time>
      </trkpt>
      <trkpt lat="40.487983" lon="-4.976567">
        <ele>2627.0</ele>
        <time>2016-06-11T14:06:14Z</time>
      </trkpt>
      <trkpt lat="40.487983" lon="-4.976450">
        <ele>2627.0</ele>
        <time>2016-06-11T14:06:15Z</time>
      </trkpt>
      <trkpt lat="40.488000" lon="-4.976317">
        <ele>2625.0</ele>
        <time>2016-06-11T14:06:16Z</time>
      </trkpt>
      <trkpt lat="40.488033" lon="-4.976183">
        <ele>2623.0</ele>
        <time>2016-06-11T14:06:17Z</time>
      </trkpt>
      <trkpt lat="40.488033" lon="-4.976033">
        <ele>2621.0</ele>
        <time>2016-06-11T14:06:18Z</time>
      </trkpt>
      <trkpt lat="40.488000" lon="-4.975900">
        <ele>2621.0</ele>
        <time>2016-06-11T14:06:19Z</time>
      </trkpt>
      <trkpt lat="40.487967" lon="-4.975783">
        <ele>2621.0</ele>
        <time>2016-06-11T14:06:20Z</time>
      </trkpt>
      <trkpt lat="40.487933" lon="-4.975650">
        <ele>2621.0</ele>
        <time>2016-06-11T14:06:21Z</time>
      </trkpt>
      <trkpt lat="40.487900" lon="-4.975517">
        <ele>2620.0</ele>
        <time>2016-06-11T14:06:22Z</time>
      </trkpt>
      <trkpt lat="40.487867" lon="-4.975350">
        <ele>2617.0</ele>
        <time>2016-06-11T14:06:23Z</time>
      </trkpt>
      <trkpt lat="40.487833" lon="-4.975183">
        <ele>2615.0</ele>
        <time>2016-06-11T14:06:24Z</time>
      </trkpt>
      <trkpt lat="40.487783" lon="-4.975033">
        <ele>2615.0</ele>
        <time>2016-06-11T14:06:25Z</time>
      </trkpt>
      <trkpt lat="40.487750" lon="-4.974900">
        <ele>2617.0</ele>
        <time>2016-06-11T14:06:26Z</time>
      </trkpt>
      <trkpt lat="40.487733" lon="-4.974767">
        <ele>2618.0</ele>
        <time>2016-06-11T14:06:27Z</time>
      </trkpt>
      <trkpt lat="40.487717" lon="-4.974617">
        <ele>2618.0</ele>
        <time>2016-06-11T14:06:28Z</time>
      </trkpt>
      <trkpt lat="40.487717" lon="-4.974467">
        <ele>2617.0</ele>
        <time>2016-06-11T14:06:29Z</time>
      </trkpt>
      <trkpt lat="40.487717" lon="-4.974317">
        <ele>2614.0</ele>
        <time>2016-06-11T14:06:30Z</time>
      </trkpt>
      <trkpt lat="40.487717" lon="-4.974183">
        <ele>2613.0</ele>
        <time>2016-06-11T14:06:31Z</time>
      </trkpt>
      <trkpt lat="40.487717" lon="-4.974067">
        <ele>2612.0</ele>
        <time>2016-06-11T14:06:32Z</time>
      </trkpt>
      <trkpt lat="40.487733" lon="-4.973950">
        <ele>2610.0</ele>
        <time>2016-06-11T14:06:33Z</time>
      </trkpt>
      <trkpt lat="40.487750" lon="-4.973817">
        <ele>2607.0</ele>
        <time>2016-06-11T14:06:34Z</time>
      </trkpt>
      <trkpt lat="40.487767" lon="-4.973683">
        <ele>2604.0</ele>
        <time>2016-06-11T14:06:35Z</time>
      </trkpt>
      <trkpt lat="40.487817" lon="-4.973533">
        <ele>2600.0</ele>
        <time>2016-06-11T14:06:36Z</time>
      </trkpt>
      <trkpt lat="40.487850" lon="-4.973417">
        <ele>2598.0</ele>
        <time>2016-06-11T14:06:37Z</time>
      </trkpt>
      <trkpt lat="40.487900" lon="-4.973283">
        <ele>2595.0</ele>
        <time>2016-06-11T14:06:38Z</time>
      </trkpt>
      <trkpt lat="40.487933" lon="-4.973133">
        <ele>2593.0</ele>
        <time>2016-06-11T14:06:39Z</time>
      </trkpt>
      <trkpt lat="40.487967" lon="-4.972983">
        <ele>2591.0</ele>
        <time>2016-06-11T14:06:40Z</time>
      </trkpt>
      <trkpt lat="40.487983" lon="-4.972817">
        <ele>2589.0</ele>
        <time>2016-06-11T14:06:41Z</time>
      </trkpt>
      <trkpt lat="40.488000" lon="-4.972650">
        <ele>2587.0</ele>
        <time>2016-06-11T14:06:42Z</time>
      </trkpt>
      <trkpt lat="40.488017" lon="-4.972500">
        <ele>2586.0</ele>
        <time>2016-06-11T14:06:43Z</time>
      </trkpt>
      <trkpt lat="40.488017" lon="-4.972333">
        <ele>2586.0</ele>
        <time>2016-06-11T14:06:44Z</time>
      </trkpt>
      <trkpt lat="40.488000" lon="-4.972150">
        <ele>2584.0</ele>
        <time>2016-06-11T14:06:45Z</time>
      </trkpt>
      <trkpt lat="40.487983" lon="-4.971983">
        <ele>2582.0</ele>
        <time>2016-06-11T14:06:46Z</time>
      </trkpt>
      <trkpt lat="40.487967" lon="-4.971800">
        <ele>2580.0</ele>
        <time>2016-06-11T14:06:47Z</time>
      </trkpt>
      <trkpt lat="40.487933" lon="-4.971633">
        <ele>2579.0</ele>
        <time>2016-06-11T14:06:48Z</time>
      </trkpt>
      <trkpt lat="40.487917" lon="-4.971467">
        <ele>2577.0</ele>
        <time>2016-06-11T14:06:49Z</time>
      </trkpt>
      <trkpt lat="40.487900" lon="-4.971300">
        <ele>2577.0</ele>
        <time>2016-06-11T14:06:50Z</time>
      </trkpt>
      <trkpt lat="40.487883" lon="-4.971150">
        <ele>2576.0</ele>
        <time>2016-06-11T14:06:51Z</time>
      </trkpt>
      <trkpt lat="40.487867" lon="-4.970983">
        <ele>2575.0</ele>
        <time>2016-06-11T14:06:52Z</time>
      </trkpt>
      <trkpt lat="40.487850" lon="-4.970800">
        <ele>2574.0</ele>
        <time>2016-06-11T14:06:53Z</time>
      </trkpt>
      <trkpt lat="40.487850" lon="-4.970633">
        <ele>2573.0</ele>
        <time>2016-06-11T14:06:54Z</time>
      </trkpt>
      <trkpt lat="40.487850" lon="-4.970467">
        <ele>2572.0</ele>
        <time>2016-06-11T14:06:55Z</time>
      </trkpt>
      <trkpt lat="40.487833" lon="-4.970300">
        <ele>2570.0</ele>
        <time>2016-06-11T14:06:56Z</time>
      </trkpt>
      <trkpt lat="40.487833" lon="-4.970133">
        <ele>2568.0</ele>
        <time>2016-06-11T14:06:57Z</time>
      </trkpt>
      <trkpt lat="40.487817" lon="-4.969967">
        <ele>2565.0</ele>
        <time>2016-06-11T14:06:58Z</time>
      </trkpt>
      <trkpt lat="40.487800" lon="-4.969800">
        <ele>2562.0</ele>
        <time>2016-06-11T14:06:59Z</time>
      </trkpt>
      <trkpt lat="40.487800" lon="-4.969617">
        <ele>2559.0</ele>
        <time>2016-06-11T14:07:00Z</time>
      </trkpt>
      <trkpt lat="40.487783" lon="-4.969450">
        <ele>2556.0</ele>
        <time>2016-06-11T14:07:01Z</time>
      </trkpt>
      <trkpt lat="40.487783" lon="-4.969283">
        <ele>2554.0</ele>
        <time>2016-06-11T14:07:02Z</time>
      </trkpt>
      <trkpt lat="40.487783" lon="-4.969117">
        <ele>2551.0</ele>
        <time>2016-06-11T14:07:03Z</time>
      </trkpt>
      <trkpt lat="40.487783" lon="-4.968933">
        <ele>2548.0</ele>
        <time>2016-06-11T14:07:04Z</time>
      </trkpt>
      <trkpt lat="40.487800" lon="-4.968767">
        <ele>2546.0</ele>
        <time>2016-06-11T14:07:05Z</time>
      </trkpt>
      <trkpt lat="40.487800" lon="-4.968600">
        <ele>2544.0</ele>
        <time>2016-06-11T14:07:06Z</time>
      </trkpt>
      <trkpt lat="40.487800" lon="-4.968433">
        <ele>2542.0</ele>
        <time>2016-06-11T14:07:07Z</time>
      </trkpt>
      <trkpt lat="40.487817" lon="-4.968267">
        <ele>2539.0</ele>
        <time>2016-06-11T14:07:08Z</time>
      </trkpt>
      <trkpt lat="40.487817" lon="-4.968100">
        <ele>2536.0</ele>
        <time>2016-06-11T14:07:09Z</time>
      </trkpt>
      <trkpt lat="40.487833" lon="-4.967900">
        <ele>2532.0</ele>
        <time>2016-06-11T14:07:10Z</time>
      </trkpt>
      <trkpt lat="40.487833" lon="-4.967717">
        <ele>2529.0</ele>
        <time>2016-06-11T14:07:11Z</time>
      </trkpt>
      <trkpt lat="40.487850" lon="-4.967533">
        <ele>2526.0</ele>
        <time>2016-06-11T14:07:12Z</time>
      </trkpt>
      <trkpt lat="40.487850" lon="-4.967350">
        <ele>2524.0</ele>
        <time>2016-06-11T14:07:13Z</time>
      </trkpt>
      <trkpt lat="40.487850" lon="-4.967183">
        <ele>2522.0</ele>
        <time>2016-06-11T14:07:14Z</time>
      </trkpt>
      <trkpt lat="40.487850" lon="-4.967000">
        <ele>2520.0</ele>
        <time>2016-06-11T14:07:15Z</time>
      </trkpt>
      <trkpt lat="40.487850" lon="-4.966833">
        <ele>2518.0</ele>
        <time>2016-06-11T14:07:16Z</time>
      </trkpt>
      <trkpt lat="40.487833" lon="-4.966650">
        <ele>2515.0</ele>
        <time>2016-06-11T14:07:17Z</time>
      </trkpt>
      <trkpt lat="40.487833" lon="-4.966467">
        <ele>2511.0</ele>
        <time>2016-06-11T14:07:18Z</time>
      </trkpt>
      <trkpt lat="40.487817" lon="-4.966250">
        <ele>2507.0</ele>
        <time>2016-06-11T14:07:19Z</time>
      </trkpt>
      <trkpt lat="40.487800" lon="-4.966033">
        <ele>2504.0</ele>
        <time>2016-06-11T14:07:20Z</time>
      </trkpt>
      <trkpt lat="40.487783" lon="-4.965833">
        <ele>2501.0</ele>
        <time>2016-06-11T14:07:21Z</time>
      </trkpt>
      <trkpt lat="40.487767" lon="-4.965650">
        <ele>2499.0</ele>
        <time>2016-06-11T14:07:22Z</time>
      </trkpt>
      <trkpt lat="40.487733" lon="-4.965467">
        <ele>2498.0</ele>
        <time>2016-06-11T14:07:23Z</time>
      </trkpt>
      <trkpt lat="40.487717" lon="-4.965283">
        <ele>2496.0</ele>
        <time>2016-06-11T14:07:24Z</time>
      </trkpt>
      <trkpt lat="40.487683" lon="-4.965100">
        <ele>2493.0</ele>
        <time>2016-06-11T14:07:25Z</time>
      </trkpt>
      <trkpt lat="40.487667" lon="-4.964917">
        <ele>2491.0</ele>
        <time>2016-06-11T14:07:26Z</time>
      </trkpt>
      <trkpt lat="40.487667" lon="-4.964733">
        <ele>2488.0</ele>
        <time>2016-06-11T14:07:27Z</time>
      </trkpt>
      <trkpt lat="40.487650" lon="-4.964550">
        <ele>2485.0</ele>
        <time>2016-06-11T14:07:28Z</time>
      </trkpt>
      <trkpt lat="40.487650" lon="-4.964367">
        <ele>2483.0</ele>
        <time>2016-06-11T14:07:29Z</time>
      </trkpt>
      <trkpt lat="40.487633" lon="-4.964200">
        <ele>2482.0</ele>
        <time>2016-06-11T14:07:30Z</time>
      </trkpt>
      <trkpt lat="40.487633" lon="-4.964033">
        <ele>2480.0</ele>
        <time>2016-06-11T14:07:31Z</time>
      </trkpt>
      <trkpt lat="40.487650" lon="-4.963867">
        <ele>2477.0</ele>
        <time>2016-06-11T14:07:32Z</time>
      </trkpt>
      <trkpt lat="40.487667" lon="-4.963683">
        <ele>2474.0</ele>
        <time>2016-06-11T14:07:33Z</time>
      </trkpt>
      <trkpt lat="40.487700" lon="-4.963500">
        <ele>2471.0</ele>
        <time>2016-06-11T14:07:34Z</time>
      </trkpt>
      <trkpt lat="40.487717" lon="-4.963333">
        <ele>2468.0</ele>
        <time>2016-06-11T14:07:35Z</time>
      </trkpt>
      <trkpt lat="40.487750" lon="-4.963167">
        <ele>2466.0</ele>
        <time>2016-06-11T14:07:36Z</time>
      </trkpt>
      <trkpt lat="40.487783" lon="-4.963000">
        <ele>2465.0</ele>
        <time>2016-06-11T14:07:37Z</time>
      </trkpt>
      <trkpt lat="40.487833" lon="-4.962867">
        <ele>2463.0</ele>
        <time>2016-06-11T14:07:38Z</time>
      </trkpt>
      <trkpt lat="40.487867" lon="-4.962700">
        <ele>2460.0</ele>
        <time>2016-06-11T14:07:39Z</time>
      </trkpt>
      <trkpt lat="40.487883" lon="-4.962533">
        <ele>2458.0</ele>
        <time>2016-06-11T14:07:40Z</time>
      </trkpt>
      <trkpt lat="40.487900" lon="-4.962333">
        <ele>2456.0</ele>
        <time>2016-06-11T14:07:41Z</time>
      </trkpt>
      <trkpt lat="40.487900" lon="-4.962117">
        <ele>2453.0</ele>
        <time>2016-06-11T14:07:42Z</time>
      </trkpt>
      <trkpt lat="40.487917" lon="-4.961933">
        <ele>2451.0</ele>
        <time>2016-06-11T14:07:43Z</time>
      </trkpt>
      <trkpt lat="40.487933" lon="-4.961767">
        <ele>2451.0</ele>
        <time>2016-06-11T14:07:44Z</time>
      </trkpt>
      <trkpt lat="40.487950" lon="-4.961600">
        <ele>2449.0</ele>
        <time>2016-06-11T14:07:45Z</time>
      </trkpt>
      <trkpt lat="40.487983" lon="-4.961433">
        <ele>2446.0</ele>
        <time>2016-06-11T14:07:46Z</time>
      </trkpt>
      <trkpt lat="40.488033" lon="-4.961267">
        <ele>2443.0</ele>
        <time>2016-06-11T14:07:47Z</time>
      </trkpt>
      <trkpt lat="40.488083" lon="-4.961083">
        <ele>2439.0</ele>
        <time>2016-06-11T14:07:48Z</time>
      </trkpt>
      <trkpt lat="40.488133" lon="-4.960917">
        <ele>2436.0</ele>
        <time>2016-06-11T14:07:49Z</time>
      </trkpt>
      <trkpt lat="40.488183" lon="-4.960750">
        <ele>2434.0</ele>
        <time>2016-06-11T14:07:50Z</time>
      </trkpt>
      <trkpt lat="40.488250" lon="-4.960600">
        <ele>2431.0</ele>
        <time>2016-06-11T14:07:51Z</time>
      </trkpt>
      <trkpt lat="40.488300" lon="-4.960450">
        <ele>2429.0</ele>
        <time>2016-06-11T14:07:52Z</time>
      </trkpt>
      <trkpt lat="40.488367" lon="-4.960300">
        <ele>2427.0</ele>
        <time>2016-06-11T14:07:53Z</time>
      </trkpt>
      <trkpt lat="40.488433" lon="-4.960150">
        <ele>2425.0</ele>
        <time>2016-06-11T14:07:54Z</time>
      </trkpt>
      <trkpt lat="40.488517" lon="-4.960017">
        <ele>2422.0</ele>
        <time>2016-06-11T14:07:55Z</time>
      </trkpt>
      <trkpt lat="40.488600" lon="-4.959883">
        <ele>2419.0</ele>
        <time>2016-06-11T14:07:56Z</time>
      </trkpt>
      <trkpt lat="40.488683" lon="-4.959767">
        <ele>2417.0</ele>
        <time>2016-06-11T14:07:57Z</time>
      </trkpt>
      <trkpt lat="40.488767" lon="-4.959633">
        <ele>2414.0</ele>
        <time>2016-06-11T14:07:58Z</time>
      </trkpt>
      <trkpt lat="40.488850" lon="-4.959500">
        <ele>2412.0</ele>
        <time>2016-06-11T14:07:59Z</time>
      </trkpt>
      <trkpt lat="40.488917" lon="-4.959350">
        <ele>2410.0</ele>
        <time>2016-06-11T14:08:00Z</time>
      </trkpt>
      <trkpt lat="40.488967" lon="-4.959217">
        <ele>2408.0</ele>
        <time>2016-06-11T14:08:01Z</time>
      </trkpt>
      <trkpt lat="40.489033" lon="-4.959083">
        <ele>2406.0</ele>
        <time>2016-06-11T14:08:02Z</time>
      </trkpt>
      <trkpt lat="40.489117" lon="-4.958933">
        <ele>2403.0</ele>
        <time>2016-06-11T14:08:03Z</time>
      </trkpt>
      <trkpt lat="40.489183" lon="-4.958783">
        <ele>2400.0</ele>
        <time>2016-06-11T14:08:04Z</time>
      </trkpt>
      <trkpt lat="40.489250" lon="-4.958633">
        <ele>2397.0</ele>
        <time>2016-06-11T14:08:05Z</time>
      </trkpt>
      <trkpt lat="40.489300" lon="-4.958500">
        <ele>2395.0</ele>
        <time>2016-06-11T14:08:06Z</time>
      </trkpt>
      <trkpt lat="40.489350" lon="-4.958367">
        <ele>2393.0</ele>
        <time>2016-06-11T14:08:07Z</time>
      </trkpt>
      <trkpt lat="40.489400" lon="-4.958233">
        <ele>2390.0</ele>
        <time>2016-06-11T14:08:08Z</time>
      </trkpt>
      <trkpt lat="40.489467" lon="-4.958100">
        <ele>2387.0</ele>
        <time>2016-06-11T14:08:09Z</time>
      </trkpt>
      <trkpt lat="40.489533" lon="-4.957967">
        <ele>2383.0</ele>
        <time>2016-06-11T14:08:10Z</time>
      </trkpt>
      <trkpt lat="40.489600" lon="-4.957817">
        <ele>2379.0</ele>
        <time>2016-06-11T14:08:11Z</time>
      </trkpt>
      <trkpt lat="40.489650" lon="-4.957683">
        <ele>2377.0</ele>
        <time>2016-06-11T14:08:12Z</time>
      </trkpt>
      <trkpt lat="40.489700" lon="-4.957550">
        <ele>2374.0</ele>
        <time>2016-06-11T14:08:13Z</time>
      </trkpt>
      <trkpt lat="40.489767" lon="-4.957417">
        <ele>2372.0</ele>
        <time>2016-06-11T14:08:14Z</time>
      </trkpt>
      <trkpt lat="40.489833" lon="-4.957283">
        <ele>2369.0</ele>
        <time>2016-06-11T14:08:15Z</time>
      </trkpt>
      <trkpt lat="40.489900" lon="-4.957150">
        <ele>2366.0</ele>
        <time>2016-06-11T14:08:16Z</time>
      </trkpt>
      <trkpt lat="40.489967" lon="-4.957033">
        <ele>2364.0</ele>
        <time>2016-06-11T14:08:17Z</time>
      </trkpt>
      <trkpt lat="40.490033" lon="-4.956900">
        <ele>2363.0</ele>
        <time>2016-06-11T14:08:18Z</time>
      </trkpt>
      <trkpt lat="40.490100" lon="-4.956783">
        <ele>2361.0</ele>
        <time>2016-06-11T14:08:19Z</time>
      </trkpt>
      <trkpt lat="40.490150" lon="-4.956650">
        <ele>2359.0</ele>
        <time>2016-06-11T14:08:20Z</time>
      </trkpt>
      <trkpt lat="40.490200" lon="-4.956500">
        <ele>2357.0</ele>
        <time>2016-06-11T14:08:21Z</time>
      </trkpt>
      <trkpt lat="40.490233" lon="-4.956333">
        <ele>2354.0</ele>
        <time>2016-06-11T14:08:22Z</time>
      </trkpt>
      <trkpt lat="40.490267" lon="-4.956167">
        <ele>2352.0</ele>
        <time>2016-06-11T14:08:23Z</time>
      </trkpt>
      <trkpt lat="40.490283" lon="-4.955983">
        <ele>2349.0</ele>
        <time>2016-06-11T14:08:24Z</time>
      </trkpt>
      <trkpt lat="40.490283" lon="-4.955817">
        <ele>2347.0</ele>
        <time>2016-06-11T14:08:25Z</time>
      </trkpt>
      <trkpt lat="40.490300" lon="-4.955633">
        <ele>2344.0</ele>
        <time>2016-06-11T14:08:26Z</time>
      </trkpt>
      <trkpt lat="40.490317" lon="-4.955467">
        <ele>2341.0</ele>
        <time>2016-06-11T14:08:27Z</time>
      </trkpt>
      <trkpt lat="40.490333" lon="-4.955300">
        <ele>2339.0</ele>
        <time>2016-06-11T14:08:28Z</time>
      </trkpt>
      <trkpt lat="40.490333" lon="-4.955150">
        <ele>2337.0</ele>
        <time>2016-06-11T14:08:29Z</time>
      </trkpt>
      <trkpt lat="40.490350" lon="-4.954983">
        <ele>2335.0</ele>
        <time>2016-06-11T14:08:30Z</time>
      </trkpt>
      <trkpt lat="40.490350" lon="-4.954817">
        <ele>2334.0</ele>
        <time>2016-06-11T14:08:31Z</time>
      </trkpt>
      <trkpt lat="40.490383" lon="-4.954667">
        <ele>2331.0</ele>
        <time>2016-06-11T14:08:32Z</time>
      </trkpt>
      <trkpt lat="40.490400" lon="-4.954517">
        <ele>2329.0</ele>
        <time>2016-06-11T14:08:33Z</time>
      </trkpt>
      <trkpt lat="40.490433" lon="-4.954367">
        <ele>2327.0</ele>
        <time>2016-06-11T14:08:34Z</time>
      </trkpt>
      <trkpt lat="40.490450" lon="-4.954233">
        <ele>2325.0</ele>
        <time>2016-06-11T14:08:35Z</time>
      </trkpt>
      <trkpt lat="40.490483" lon="-4.954100">
        <ele>2323.0</ele>
        <time>2016-06-11T14:08:36Z</time>
      </trkpt>
      <trkpt lat="40.490517" lon="-4.953967">
        <ele>2320.0</ele>
        <time>2016-06-11T14:08:37Z</time>
      </trkpt>
      <trkpt lat="40.490550" lon="-4.953817">
        <ele>2316.0</ele>
        <time>2016-06-11T14:08:38Z</time>
      </trkpt>
      <trkpt lat="40.490567" lon="-4.953650">
        <ele>2312.0</ele>
        <time>2016-06-11T14:08:39Z</time>
      </trkpt>
      <trkpt lat="40.490567" lon="-4.953483">
        <ele>2310.0</ele>
        <time>2016-06-11T14:08:40Z</time>
      </trkpt>
      <trkpt lat="40.490550" lon="-4.953300">
        <ele>2308.0</ele>
        <time>2016-06-11T14:08:41Z</time>
      </trkpt>
      <trkpt lat="40.490533" lon="-4.953117">
        <ele>2306.0</ele>
        <time>2016-06-11T14:08:42Z</time>
      </trkpt>
      <trkpt lat="40.490500" lon="-4.952950">
        <ele>2305.0</ele>
        <time>2016-06-11T14:08:43Z</time>
      </trkpt>
      <trkpt lat="40.490483" lon="-4.952767">
        <ele>2302.0</ele>
        <time>2016-06-11T14:08:44Z</time>
      </trkpt>
      <trkpt lat="40.490450" lon="-4.952600">
        <ele>2299.0</ele>
        <time>2016-06-11T14:08:45Z</time>
      </trkpt>
      <trkpt lat="40.490417" lon="-4.952417">
        <ele>2296.0</ele>
        <time>2016-06-11T14:08:46Z</time>
      </trkpt>
      <trkpt lat="40.490383" lon="-4.952250">
        <ele>2294.0</ele>
        <time>2016-06-11T14:08:47Z</time>
      </trkpt>
      <trkpt lat="40.490350" lon="-4.952100">
        <ele>2293.0</ele>
        <time>2016-06-11T14:08:48Z</time>
      </trkpt>
      <trkpt lat="40.490317" lon="-4.951950">
        <ele>2292.0</ele>
        <time>2016-06-11T14:08:49Z</time>
      </trkpt>
      <trkpt lat="40.490250" lon="-4.951800">
        <ele>2291.0</ele>
        <time>2016-06-11T14:08:50Z</time>
      </trkpt>
      <trkpt lat="40.490200" lon="-4.951667">
        <ele>2289.0</ele>
        <time>2016-06-11T14:08:51Z</time>
      </trkpt>
      <trkpt lat="40.490150" lon="-4.951517">
        <ele>2287.0</ele>
        <time>2016-06-11T14:08:52Z</time>
      </trkpt>
      <trkpt lat="40.490083" lon="-4.951367">
        <ele>2285.0</ele>
        <time>2016-06-11T14:08:53Z</time>
      </trkpt>
      <trkpt lat="40.490033" lon="-4.951217">
        <ele>2282.0</ele>
        <time>2016-06-11T14:08:54Z</time>
      </trkpt>
      <trkpt lat="40.489983" lon="-4.951050">
        <ele>2279.0</ele>
        <time>2016-06-11T14:08:55Z</time>
      </trkpt>
      <trkpt lat="40.489917" lon="-4.950917">
        <ele>2276.0</ele>
        <time>2016-06-11T14:08:56Z</time>
      </trkpt>
      <trkpt lat="40.489850" lon="-4.950783">
        <ele>2273.0</ele>
        <time>2016-06-11T14:08:57Z</time>
      </trkpt>
      <trkpt lat="40.489783" lon="-4.950650">
        <ele>2269.0</ele>
        <time>2016-06-11T14:08:58Z</time>
      </trkpt>
      <trkpt lat="40.489717" lon="-4.950500">
        <ele>2264.0</ele>
        <time>2016-06-11T14:08:59Z</time>
      </trkpt>
      <trkpt lat="40.489650" lon="-4.950333">
        <ele>2260.0</ele>
        <time>2016-06-11T14:09:00Z</time>
      </trkpt>
      <trkpt lat="40.489600" lon="-4.950167">
        <ele>2259.0</ele>
        <time>2016-06-11T14:09:01Z</time>
      </trkpt>
      <trkpt lat="40.489550" lon="-4.950033">
        <ele>2257.0</ele>
        <time>2016-06-11T14:09:02Z</time>
      </trkpt>
      <trkpt lat="40.489500" lon="-4.949900">
        <ele>2256.0</ele>
        <time>2016-06-11T14:09:03Z</time>
      </trkpt>
      <trkpt lat="40.489417" lon="-4.949783">
        <ele>2253.0</ele>
        <time>2016-06-11T14:09:04Z</time>
      </trkpt>
      <trkpt lat="40.489350" lon="-4.949650">
        <ele>2249.0</ele>
        <time>2016-06-11T14:09:05Z</time>
      </trkpt>
      <trkpt lat="40.489267" lon="-4.949517">
        <ele>2244.0</ele>
        <time>2016-06-11T14:09:06Z</time>
      </trkpt>
      <trkpt lat="40.489217" lon="-4.949367">
        <ele>2240.0</ele>
        <time>2016-06-11T14:09:07Z</time>
      </trkpt>
      <trkpt lat="40.489183" lon="-4.949217">
        <ele>2236.0</ele>
        <time>2016-06-11T14:09:08Z</time>
      </trkpt>
      <trkpt lat="40.489133" lon="-4.949083">
        <ele>2232.0</ele>
        <time>2016-06-11T14:09:09Z</time>
      </trkpt>
      <trkpt lat="40.489083" lon="-4.948933">
        <ele>2228.0</ele>
        <time>2016-06-11T14:09:10Z</time>
      </trkpt>
      <trkpt lat="40.489017" lon="-4.948800">
        <ele>2224.0</ele>
        <time>2016-06-11T14:09:11Z</time>
      </trkpt>
      <trkpt lat="40.488950" lon="-4.948650">
        <ele>2220.0</ele>
        <time>2016-06-11T14:09:12Z</time>
      </trkpt>
      <trkpt lat="40.488900" lon="-4.948500">
        <ele>2215.0</ele>
        <time>2016-06-11T14:09:13Z</time>
      </trkpt>
      <trkpt lat="40.488867" lon="-4.948333">
        <ele>2211.0</ele>
        <time>2016-06-11T14:09:14Z</time>
      </trkpt>
      <trkpt lat="40.488833" lon="-4.948183">
        <ele>2207.0</ele>
        <time>2016-06-11T14:09:15Z</time>
      </trkpt>
      <trkpt lat="40.488783" lon="-4.948017">
        <ele>2203.0</ele>
        <time>2016-06-11T14:09:16Z</time>
      </trkpt>
      <trkpt lat="40.488733" lon="-4.947850">
        <ele>2199.0</ele>
        <time>2016-06-11T14:09:17Z</time>
      </trkpt>
      <trkpt lat="40.488683" lon="-4.947667">
        <ele>2195.0</ele>
        <time>2016-06-11T14:09:18Z</time>
      </trkpt>
      <trkpt lat="40.488633" lon="-4.947500">
        <ele>2191.0</ele>
        <time>2016-06-11T14:09:19Z</time>
      </trkpt>
      <trkpt lat="40.488583" lon="-4.947317">
        <ele>2188.0</ele>
        <time>2016-06-11T14:09:20Z</time>
      </trkpt>
      <trkpt lat="40.488533" lon="-4.947167">
        <ele>2185.0</ele>
        <time>2016-06-11T14:09:21Z</time>
      </trkpt>
      <trkpt lat="40.488467" lon="-4.947017">
        <ele>2183.0</ele>
        <time>2016-06-11T14:09:22Z</time>
      </trkpt>
      <trkpt lat="40.488383" lon="-4.946850">
        <ele>2179.0</ele>
        <time>2016-06-11T14:09:23Z</time>
      </trkpt>
      <trkpt lat="40.488317" lon="-4.946683">
        <ele>2176.0</ele>
        <time>2016-06-11T14:09:24Z</time>
      </trkpt>
      <trkpt lat="40.488250" lon="-4.946517">
        <ele>2172.0</ele>
        <time>2016-06-11T14:09:25Z</time>
      </trkpt>
      <trkpt lat="40.488183" lon="-4.946333">
        <ele>2168.0</ele>
        <time>2016-06-11T14:09:26Z</time>
      </trkpt>
      <trkpt lat="40.488100" lon="-4.946150">
        <ele>2165.0</ele>
        <time>2016-06-11T14:09:27Z</time>
      </trkpt>
      <trkpt lat="40.488017" lon="-4.945983">
        <ele>2161.0</ele>
        <time>2016-06-11T14:09:28Z</time>
      </trkpt>
      <trkpt lat="40.487933" lon="-4.945817">
        <ele>2157.0</ele>
        <time>2016-06-11T14:09:29Z</time>
      </trkpt>
      <trkpt lat="40.487850" lon="-4.945633">
        <ele>2154.0</ele>
        <time>2016-06-11T14:09:30Z</time>
      </trkpt>
      <trkpt lat="40.487767" lon="-4.945467">
        <ele>2151.0</ele>
        <time>2016-06-11T14:09:31Z</time>
      </trkpt>
      <trkpt lat="40.487700" lon="-4.945283">
        <ele>2149.0</ele>
        <time>2016-06-11T14:09:32Z</time>
      </trkpt>
      <trkpt lat="40.487600" lon="-4.945133">
        <ele>2148.0</ele>
        <time>2016-06-11T14:09:33Z</time>
      </trkpt>
      <trkpt lat="40.487500" lon="-4.944983">
        <ele>2147.0</ele>
        <time>2016-06-11T14:09:34Z</time>
      </trkpt>
      <trkpt lat="40.487400" lon="-4.944833">
        <ele>2146.0</ele>
        <time>2016-06-11T14:09:35Z</time>
      </trkpt>
      <trkpt lat="40.487317" lon="-4.944683">
        <ele>2145.0</ele>
        <time>2016-06-11T14:09:36Z</time>
      </trkpt>
      <trkpt lat="40.487250" lon="-4.944533">
        <ele>2144.0</ele>
        <time>2016-06-11T14:09:37Z</time>
      </trkpt>
      <trkpt lat="40.487183" lon="-4.944367">
        <ele>2144.0</ele>
        <time>2016-06-11T14:09:38Z</time>
      </trkpt>
      <trkpt lat="40.487100" lon="-4.944233">
        <ele>2143.0</ele>
        <time>2016-06-11T14:09:39Z</time>
      </trkpt>
      <trkpt lat="40.487017" lon="-4.944083">
        <ele>2142.0</ele>
        <time>2016-06-11T14:09:40Z</time>
      </trkpt>
      <trkpt lat="40.486917" lon="-4.943933">
        <ele>2141.0</ele>
        <time>2016-06-11T14:09:41Z</time>
      </trkpt>
      <trkpt lat="40.486817" lon="-4.943783">
        <ele>2139.0</ele>
        <time>2016-06-11T14:09:42Z</time>
      </trkpt>
      <trkpt lat="40.486717" lon="-4.943617">
        <ele>2138.0</ele>
        <time>2016-06-11T14:09:43Z</time>
      </trkpt>
      <trkpt lat="40.486617" lon="-4.943467">
        <ele>2137.0</ele>
        <time>2016-06-11T14:09:44Z</time>
      </trkpt>
      <trkpt lat="40.486500" lon="-4.943300">
        <ele>2136.0</ele>
        <time>2016-06-11T14:09:45Z</time>
      </trkpt>
      <trkpt lat="40.486400" lon="-4.943133">
        <ele>2136.0</ele>
        <time>2016-06-11T14:09:46Z</time>
      </trkpt>
      <trkpt lat="40.486300" lon="-4.942983">
        <ele>2135.0</ele>
        <time>2016-06-11T14:09:47Z</time>
      </trkpt>
      <trkpt lat="40.486200" lon="-4.942817">
        <ele>2134.0</ele>
        <time>2016-06-11T14:09:48Z</time>
      </trkpt>
      <trkpt lat="40.486100" lon="-4.942650">
        <ele>2133.0</ele>
        <time>2016-06-11T14:09:49Z</time>
      </trkpt>
      <trkpt lat="40.486000" lon="-4.942467">
        <ele>2133.0</ele>
        <time>2016-06-11T14:09:50Z</time>
      </trkpt>
      <trkpt lat="40.485900" lon="-4.942300">
        <ele>2133.0</ele>
        <time>2016-06-11T14:09:51Z</time>
      </trkpt>
      <trkpt lat="40.485817" lon="-4.942133">
        <ele>2134.0</ele>
        <time>2016-06-11T14:09:52Z</time>
      </trkpt>
      <trkpt lat="40.485733" lon="-4.941967">
        <ele>2134.0</ele>
        <time>2016-06-11T14:09:53Z</time>
      </trkpt>
      <trkpt lat="40.485650" lon="-4.941783">
        <ele>2134.0</ele>
        <time>2016-06-11T14:09:54Z</time>
      </trkpt>
      <trkpt lat="40.485583" lon="-4.941617">
        <ele>2133.0</ele>
        <time>2016-06-11T14:09:55Z</time>
      </trkpt>
      <trkpt lat="40.485500" lon="-4.941467">
        <ele>2133.0</ele>
        <time>2016-06-11T14:09:56Z</time>
      </trkpt>
      <trkpt lat="40.485433" lon="-4.941300">
        <ele>2132.0</ele>
        <time>2016-06-11T14:09:57Z</time>
      </trkpt>
      <trkpt lat="40.485333" lon="-4.941150">
        <ele>2131.0</ele>
        <time>2016-06-11T14:09:58Z</time>
      </trkpt>
      <trkpt lat="40.485250" lon="-4.940983">
        <ele>2130.0</ele>
        <time>2016-06-11T14:09:59Z</time>
      </trkpt>
      <trkpt lat="40.485183" lon="-4.940833">
        <ele>2128.0</ele>
        <time>2016-06-11T14:10:00Z</time>
      </trkpt>
      <trkpt lat="40.485117" lon="-4.940650">
        <ele>2127.0</ele>
        <time>2016-06-11T14:10:01Z</time>
      </trkpt>
      <trkpt lat="40.485050" lon="-4.940483">
        <ele>2125.0</ele>
        <time>2016-06-11T14:10:02Z</time>
      </trkpt>
      <trkpt lat="40.485000" lon="-4.940317">
        <ele>2125.0</ele>
        <time>2016-06-11T14:10:03Z</time>
      </trkpt>
      <trkpt lat="40.484933" lon="-4.940167">
        <ele>2125.0</ele>
        <time>2016-06-11T14:10:04Z</time>
      </trkpt>
      <trkpt lat="40.484867" lon="-4.940017">
        <ele>2123.0</ele>
        <time>2016-06-11T14:10:05Z</time>
      </trkpt>
      <trkpt lat="40.484783" lon="-4.939867">
        <ele>2122.0</ele>
        <time>2016-06-11T14:10:06Z</time>
      </trkpt>
      <trkpt lat="40.484717" lon="-4.939700">
        <ele>2120.0</ele>
        <time>2016-06-11T14:10:07Z</time>
      </trkpt>
      <trkpt lat="40.484650" lon="-4.939533">
        <ele>2118.0</ele>
        <time>2016-06-11T14:10:08Z</time>
      </trkpt>
      <trkpt lat="40.484600" lon="-4.939367">
        <ele>2117.0</ele>
        <time>2016-06-11T14:10:09Z</time>
      </trkpt>
      <trkpt lat="40.484533" lon="-4.939217">
        <ele>2116.0</ele>
        <time>2016-06-11T14:10:10Z</time>
      </trkpt>
      <trkpt lat="40.484467" lon="-4.939050">
        <ele>2115.0</ele>
        <time>2016-06-11T14:10:11Z</time>
      </trkpt>
      <trkpt lat="40.484417" lon="-4.938900">
        <ele>2115.0</ele>
        <time>2016-06-11T14:10:12Z</time>
      </trkpt>
      <trkpt lat="40.484383" lon="-4.938733">
        <ele>2114.0</ele>
        <time>2016-06-11T14:10:13Z</time>
      </trkpt>
      <trkpt lat="40.484317" lon="-4.938583">
        <ele>2114.0</ele>
        <time>2016-06-11T14:10:14Z</time>
      </trkpt>
      <trkpt lat="40.484267" lon="-4.938417">
        <ele>2113.0</ele>
        <time>2016-06-11T14:10:15Z</time>
      </trkpt>
      <trkpt lat="40.484200" lon="-4.938250">
        <ele>2113.0</ele>
        <time>2016-06-11T14:10:16Z</time>
      </trkpt>
      <trkpt lat="40.484117" lon="-4.938083">
        <ele>2112.0</ele>
        <time>2016-06-11T14:10:17Z</time>
      </trkpt>
      <trkpt lat="40.484050" lon="-4.937933">
        <ele>2112.0</ele>
        <time>2016-06-11T14:10:18Z</time>
      </trkpt>
      <trkpt lat="40.483983" lon="-4.937767">
        <ele>2112.0</ele>
        <time>2016-06-11T14:10:19Z</time>
      </trkpt>
      <trkpt lat="40.483917" lon="-4.937583">
        <ele>2111.0</ele>
        <time>2016-06-11T14:10:20Z</time>
      </trkpt>
      <trkpt lat="40.483850" lon="-4.937433">
        <ele>2112.0</ele>
        <time>2016-06-11T14:10:21Z</time>
      </trkpt>
      <trkpt lat="40.483783" lon="-4.937283">
        <ele>2113.0</ele>
        <time>2016-06-11T14:10:22Z</time>
      </trkpt>
      <trkpt lat="40.483733" lon="-4.937133">
        <ele>2115.0</ele>
        <time>2016-06-11T14:10:23Z</time>
      </trkpt>
      <trkpt lat="40.483683" lon="-4.936983">
        <ele>2116.0</ele>
        <time>2016-06-11T14:10:24Z</time>
      </trkpt>
      <trkpt lat="40.483633" lon="-4.936817">
        <ele>2117.0</ele>
        <time>2016-06-11T14:10:25Z</time>
      </trkpt>
      <trkpt lat="40.483600" lon="-4.936650">
        <ele>2118.0</ele>
        <time>2016-06-11T14:10:26Z</time>
      </trkpt>
      <trkpt lat="40.483567" lon="-4.936517">
        <ele>2121.0</ele>
        <time>2016-06-11T14:10:27Z</time>
      </trkpt>
      <trkpt lat="40.483550" lon="-4.936367">
        <ele>2123.0</ele>
        <time>2016-06-11T14:10:28Z</time>
      </trkpt>
      <trkpt lat="40.483533" lon="-4.936217">
        <ele>2124.0</ele>
        <time>2016-06-11T14:10:29Z</time>
      </trkpt>
      <trkpt lat="40.483500" lon="-4.936050">
        <ele>2125.0</ele>
        <time>2016-06-11T14:10:30Z</time>
      </trkpt>
      <trkpt lat="40.483467" lon="-4.935867">
        <ele>2125.0</ele>
        <time>2016-06-11T14:10:31Z</time>
      </trkpt>
      <trkpt lat="40.483433" lon="-4.935683">
        <ele>2125.0</ele>
        <time>2016-06-11T14:10:32Z</time>
      </trkpt>
      <trkpt lat="40.483417" lon="-4.935500">
        <ele>2125.0</ele>
        <time>2016-06-11T14:10:33Z</time>
      </trkpt>
      <trkpt lat="40.483400" lon="-4.935350">
        <ele>2126.0</ele>
        <time>2016-06-11T14:10:34Z</time>
      </trkpt>
      <trkpt lat="40.483400" lon="-4.935200">
        <ele>2127.0</ele>
        <time>2016-06-11T14:10:35Z</time>
      </trkpt>
      <trkpt lat="40.483383" lon="-4.935050">
        <ele>2128.0</ele>
        <time>2016-06-11T14:10:36Z</time>
      </trkpt>
      <trkpt lat="40.483350" lon="-4.934883">
        <ele>2129.0</ele>
        <time>2016-06-11T14:10:37Z</time>
      </trkpt>
      <trkpt lat="40.483300" lon="-4.934733">
        <ele>2129.0</ele>
        <time>2016-06-11T14:10:38Z</time>
      </trkpt>
      <trkpt lat="40.483267" lon="-4.934567">
        <ele>2129.0</ele>
        <time>2016-06-11T14:10:39Z</time>
      </trkpt>
      <trkpt lat="40.483233" lon="-4.934383">
        <ele>2128.0</ele>
        <time>2016-06-11T14:10:40Z</time>
      </trkpt>
      <trkpt lat="40.483200" lon="-4.934200">
        <ele>2128.0</ele>
        <time>2016-06-11T14:10:41Z</time>
      </trkpt>
      <trkpt lat="40.483183" lon="-4.934033">
        <ele>2128.0</ele>
        <time>2016-06-11T14:10:42Z</time>
      </trkpt>
      <trkpt lat="40.483150" lon="-4.933867">
        <ele>2129.0</ele>
        <time>2016-06-11T14:10:43Z</time>
      </trkpt>
      <trkpt lat="40.483117" lon="-4.933717">
        <ele>2130.0</ele>
        <time>2016-06-11T14:10:44Z</time>
      </trkpt>
      <trkpt lat="40.483083" lon="-4.933550">
        <ele>2130.0</ele>
        <time>2016-06-11T14:10:45Z</time>
      </trkpt>
      <trkpt lat="40.483050" lon="-4.933400">
        <ele>2130.0</ele>
        <time>2016-06-11T14:10:46Z</time>
      </trkpt>
      <trkpt lat="40.483033" lon="-4.933233">
        <ele>2130.0</ele>
        <time>2016-06-11T14:10:47Z</time>
      </trkpt>
      <trkpt lat="40.483050" lon="-4.933083">
        <ele>2130.0</ele>
        <time>2016-06-11T14:10:48Z</time>
      </trkpt>
      <trkpt lat="40.483050" lon="-4.932933">
        <ele>2130.0</ele>
        <time>2016-06-11T14:10:49Z</time>
      </trkpt>
      <trkpt lat="40.483067" lon="-4.932800">
        <ele>2131.0</ele>
        <time>2016-06-11T14:10:50Z</time>
      </trkpt>
      <trkpt lat="40.483083" lon="-4.932700">
        <ele>2132.0</ele>
        <time>2016-06-11T14:10:51Z</time>
      </trkpt>
      <trkpt lat="40.483100" lon="-4.932600">
        <ele>2133.0</ele>
        <time>2016-06-11T14:10:52Z</time>
      </trkpt>
      <trkpt lat="40.483117" lon="-4.932517">
        <ele>2134.0</ele>
        <time>2016-06-11T14:10:53Z</time>
      </trkpt>
      <trkpt lat="40.483150" lon="-4.932433">
        <ele>2133.0</ele>
        <time>2016-06-11T14:10:54Z</time>
      </trkpt>
      <trkpt lat="40.483183" lon="-4.932367">
        <ele>2133.0</ele>
        <time>2016-06-11T14:10:55Z</time>
      </trkpt>
      <trkpt lat="40.483217" lon="-4.932317">
        <ele>2134.0</ele>
        <time>2016-06-11T14:10:56Z</time>
      </trkpt>
      <trkpt lat="40.483250" lon="-4.932267">
        <ele>2135.0</ele>
        <time>2016-06-11T14:10:57Z</time>
      </trkpt>
      <trkpt lat="40.483283" lon="-4.932233">
        <ele>2135.0</ele>
        <time>2016-06-11T14:10:58Z</time>
      </trkpt>
      <trkpt lat="40.483333" lon="-4.932200">
        <ele>2136.0</ele>
        <time>2016-06-11T14:10:59Z</time>
      </trkpt>
      <trkpt lat="40.483367" lon="-4.932167">
        <ele>2137.0</ele>
        <time>2016-06-11T14:11:00Z</time>
      </trkpt>
      <trkpt lat="40.483400" lon="-4.932117">
        <ele>2139.0</ele>
        <time>2016-06-11T14:11:01Z</time>
      </trkpt>
      <trkpt lat="40.483417" lon="-4.932083">
        <ele>2141.0</ele>
        <time>2016-06-11T14:11:02Z</time>
      </trkpt>
      <trkpt lat="40.483450" lon="-4.932050">
        <ele>2141.0</ele>
        <time>2016-06-11T14:11:03Z</time>
      </trkpt>
      <trkpt lat="40.483483" lon="-4.932033">
        <ele>2139.0</ele>
        <time>2016-06-11T14:11:04Z</time>
      </trkpt>
      <trkpt lat="40.483533" lon="-4.932033">
        <ele>2138.0</ele>
        <time>2016-06-11T14:11:05Z</time>
      </trkpt>
      <trkpt lat="40.483567" lon="-4.932033">
        <ele>2138.0</ele>
        <time>2016-06-11T14:11:06Z</time>
      </trkpt>
      <trkpt lat="40.483583" lon="-4.932033">
        <ele>2137.0</ele>
        <time>2016-06-11T14:11:07Z</time>
      </trkpt>
      <trkpt lat="40.483617" lon="-4.932067">
        <ele>2137.0</ele>
        <time>2016-06-11T14:11:08Z</time>
      </trkpt>
      <trkpt lat="40.483650" lon="-4.932083">
        <ele>2136.0</ele>
        <time>2016-06-11T14:11:09Z</time>
      </trkpt>
      <trkpt lat="40.483683" lon="-4.932067">
        <ele>2135.0</ele>
        <time>2016-06-11T14:11:10Z</time>
      </trkpt>
      <trkpt lat="40.483733" lon="-4.932033">
        <ele>2135.0</ele>
        <time>2016-06-11T14:11:11Z</time>
      </trkpt>
      <trkpt lat="40.483750" lon="-4.931983">
        <ele>2135.0</ele>
        <time>2016-06-11T14:11:12Z</time>
      </trkpt>
      <trkpt lat="40.483783" lon="-4.931967">
        <ele>2135.0</ele>
        <time>2016-06-11T14:11:13Z</time>
      </trkpt>
      <trkpt lat="40.483800" lon="-4.931983">
        <ele>2134.0</ele>
        <time>2016-06-11T14:11:14Z</time>
      </trkpt>
      <trkpt lat="40.483817" lon="-4.932017">
        <ele>2133.0</ele>
        <time>2016-06-11T14:11:15Z</time>
      </trkpt>
      <trkpt lat="40.483817" lon="-4.932050">
        <ele>2132.0</ele>
        <time>2016-06-11T14:11:16Z</time>
      </trkpt>
      <trkpt lat="40.483817" lon="-4.932083">
        <ele>2133.0</ele>
        <time>2016-06-11T14:11:17Z</time>
      </trkpt>
      <trkpt lat="40.483817" lon="-4.932100">
        <ele>2134.0</ele>
        <time>2016-06-11T14:11:18Z</time>
      </trkpt>
      <trkpt lat="40.483833" lon="-4.932117">
        <ele>2135.0</ele>
        <time>2016-06-11T14:11:19Z</time>
      </trkpt>
      <trkpt lat="40.483850" lon="-4.932133">
        <ele>2136.0</ele>
        <time>2016-06-11T14:11:20Z</time>
      </trkpt>
      <trkpt lat="40.483850" lon="-4.932167">
        <ele>2137.0</ele>
        <time>2016-06-11T14:11:21Z</time>
      </trkpt>
      <trkpt lat="40.483850" lon="-4.932200">
        <ele>2138.0</ele>
        <time>2016-06-11T14:11:22Z</time>
      </trkpt>
      <trkpt lat="40.483867" lon="-4.932217">
        <ele>2139.0</ele>
        <time>2016-06-11T14:11:23Z</time>
      </trkpt>
      <trkpt lat="40.483867" lon="-4.932250">
        <ele>2138.0</ele>
        <time>2016-06-11T14:11:24Z</time>
      </trkpt>
      <trkpt lat="40.483883" lon="-4.932267">
        <ele>2138.0</ele>
        <time>2016-06-11T14:11:25Z</time>
      </trkpt>
      <trkpt lat="40.483883" lon="-4.932300">
        <ele>2137.0</ele>
        <time>2016-06-11T14:11:26Z</time>
      </trkpt>
      <trkpt lat="40.483883" lon="-4.932333">
        <ele>2136.0</ele>
        <time>2016-06-11T14:11:27Z</time>
      </trkpt>
      <trkpt lat="40.483867" lon="-4.932400">
        <ele>2135.0</ele>
        <time>2016-06-11T14:11:28Z</time>
      </trkpt>
      <trkpt lat="40.483833" lon="-4.932467">
        <ele>2134.0</ele>
        <time>2016-06-11T14:11:29Z</time>
      </trkpt>
      <trkpt lat="40.483800" lon="-4.932533">
        <ele>2133.0</ele>
        <time>2016-06-11T14:11:30Z</time>
      </trkpt>
      <trkpt lat="40.483767" lon="-4.932600">
        <ele>2132.0</ele>
        <time>2016-06-11T14:11:31Z</time>
      </trkpt>
      <trkpt lat="40.483717" lon="-4.932667">
        <ele>2130.0</ele>
        <time>2016-06-11T14:11:32Z</time>
      </trkpt>
      <trkpt lat="40.483667" lon="-4.932733">
        <ele>2129.0</ele>
        <time>2016-06-11T14:11:33Z</time>
      </trkpt>
      <trkpt lat="40.483583" lon="-4.932817">
        <ele>2127.0</ele>
        <time>2016-06-11T14:11:34Z</time>
      </trkpt>
      <trkpt lat="40.483483" lon="-4.932867">
        <ele>2125.0</ele>
        <time>2016-06-11T14:11:35Z</time>
      </trkpt>
      <trkpt lat="40.483367" lon="-4.932917">
        <ele>2123.0</ele>
        <time>2016-06-11T14:11:36Z</time>
      </trkpt>
      <trkpt lat="40.483233" lon="-4.932917">
        <ele>2122.0</ele>
        <time>2016-06-11T14:11:37Z</time>
      </trkpt>
      <trkpt lat="40.483100" lon="-4.932883">
        <ele>2122.0</ele>
        <time>2016-06-11T14:11:38Z</time>
      </trkpt>
      <trkpt lat="40.482983" lon="-4.932817">
        <ele>2122.0</ele>
        <time>2016-06-11T14:11:39Z</time>
      </trkpt>
      <trkpt lat="40.482867" lon="-4.932733">
        <ele>2121.0</ele>
        <time>2016-06-11T14:11:40Z</time>
      </trkpt>
      <trkpt lat="40.482733" lon="-4.932633">
        <ele>2121.0</ele>
        <time>2016-06-11T14:11:41Z</time>
      </trkpt>
      <trkpt lat="40.482617" lon="-4.932517">
        <ele>2120.0</ele>
        <time>2016-06-11T14:11:42Z</time>
      </trkpt>
      <trkpt lat="40.482517" lon="-4.932400">
        <ele>2119.0</ele>
        <time>2016-06-11T14:11:43Z</time>
      </trkpt>
      <trkpt lat="40.482433" lon="-4.932250">
        <ele>2118.0</ele>
        <time>2016-06-11T14:11:44Z</time>
      </trkpt>
      <trkpt lat="40.482350" lon="-4.932117">
        <ele>2116.0</ele>
        <time>2016-06-11T14:11:45Z</time>
      </trkpt>
      <trkpt lat="40.482267" lon="-4.931967">
        <ele>2114.0</ele>
        <time>2016-06-11T14:11:46Z</time>
      </trkpt>
      <trkpt lat="40.482217" lon="-4.931800">
        <ele>2112.0</ele>
        <time>2016-06-11T14:11:47Z</time>
      </trkpt>
      <trkpt lat="40.482183" lon="-4.931650">
        <ele>2110.0</ele>
        <time>2016-06-11T14:11:48Z</time>
      </trkpt>
      <trkpt lat="40.482150" lon="-4.931500">
        <ele>2107.0</ele>
        <time>2016-06-11T14:11:49Z</time>
      </trkpt>
      <trkpt lat="40.482150" lon="-4.931350">
        <ele>2106.0</ele>
        <time>2016-06-11T14:11:50Z</time>
      </trkpt>
      <trkpt lat="40.482133" lon="-4.931200">
        <ele>2106.0</ele>
        <time>2016-06-11T14:11:51Z</time>
      </trkpt>
      <trkpt lat="40.482100" lon="-4.931067">
        <ele>2107.0</ele>
        <time>2016-06-11T14:11:52Z</time>
      </trkpt>
      <trkpt lat="40.482050" lon="-4.930917">
        <ele>2108.0</ele>
        <time>2016-06-11T14:11:53Z</time>
      </trkpt>
      <trkpt lat="40.482033" lon="-4.930783">
        <ele>2108.0</ele>
        <time>2016-06-11T14:11:54Z</time>
      </trkpt>
      <trkpt lat="40.482017" lon="-4.930633">
        <ele>2107.0</ele>
        <time>2016-06-11T14:11:55Z</time>
      </trkpt>
      <trkpt lat="40.482000" lon="-4.930483">
        <ele>2106.0</ele>
        <time>2016-06-11T14:11:56Z</time>
      </trkpt>
      <trkpt lat="40.481983" lon="-4.930350">
        <ele>2105.0</ele>
        <time>2016-06-11T14:11:57Z</time>
      </trkpt>
      <trkpt lat="40.481983" lon="-4.930217">
        <ele>2106.0</ele>
        <time>2016-06-11T14:11:58Z</time>
      </trkpt>
      <trkpt lat="40.481967" lon="-4.930100">
        <ele>2107.0</ele>
        <time>2016-06-11T14:11:59Z</time>
      </trkpt>
      <trkpt lat="40.481933" lon="-4.929983">
        <ele>2110.0</ele>
        <time>2016-06-11T14:12:00Z</time>
      </trkpt>
      <trkpt lat="40.481917" lon="-4.929883">
        <ele>2111.0</ele>
        <time>2016-06-11T14:12:01Z</time>
      </trkpt>
      <trkpt lat="40.481883" lon="-4.929767">
        <ele>2110.0</ele>
        <time>2016-06-11T14:12:02Z</time>
      </trkpt>
      <trkpt lat="40.481867" lon="-4.929650">
        <ele>2109.0</ele>
        <time>2016-06-11T14:12:03Z</time>
      </trkpt>
      <trkpt lat="40.481850" lon="-4.929517">
        <ele>2108.0</ele>
        <time>2016-06-11T14:12:04Z</time>
      </trkpt>
      <trkpt lat="40.481833" lon="-4.929383">
        <ele>2106.0</ele>
        <time>2016-06-11T14:12:05Z</time>
      </trkpt>
      <trkpt lat="40.481833" lon="-4.929250">
        <ele>2105.0</ele>
        <time>2016-06-11T14:12:06Z</time>
      </trkpt>
      <trkpt lat="40.481817" lon="-4.929133">
        <ele>2105.0</ele>
        <time>2016-06-11T14:12:07Z</time>
      </trkpt>
      <trkpt lat="40.481817" lon="-4.929050">
        <ele>2106.0</ele>
        <time>2016-06-11T14:12:08Z</time>
      </trkpt>
      <trkpt lat="40.481800" lon="-4.928950">
        <ele>2105.0</ele>
        <time>2016-06-11T14:12:09Z</time>
      </trkpt>
      <trkpt lat="40.481800" lon="-4.928850">
        <ele>2103.0</ele>
        <time>2016-06-11T14:12:10Z</time>
      </trkpt>
      <trkpt lat="40.481783" lon="-4.928717">
        <ele>2098.0</ele>
        <time>2016-06-11T14:12:11Z</time>
      </trkpt>
      <trkpt lat="40.481767" lon="-4.928550">
        <ele>2095.0</ele>
        <time>2016-06-11T14:12:12Z</time>
      </trkpt>
      <trkpt lat="40.481767" lon="-4.928417">
        <ele>2093.0</ele>
        <time>2016-06-11T14:12:13Z</time>
      </trkpt>
      <trkpt lat="40.481750" lon="-4.928300">
        <ele>2094.0</ele>
        <time>2016-06-11T14:12:14Z</time>
      </trkpt>
      <trkpt lat="40.481750" lon="-4.928200">
        <ele>2094.0</ele>
        <time>2016-06-11T14:12:15Z</time>
      </trkpt>
      <trkpt lat="40.481750" lon="-4.928100">
        <ele>2093.0</ele>
        <time>2016-06-11T14:12:16Z</time>
      </trkpt>
      <trkpt lat="40.481783" lon="-4.927983">
        <ele>2090.0</ele>
        <time>2016-06-11T14:12:17Z</time>
      </trkpt>
      <trkpt lat="40.481800" lon="-4.927867">
        <ele>2085.0</ele>
        <time>2016-06-11T14:12:18Z</time>
      </trkpt>
      <trkpt lat="40.481833" lon="-4.927733">
        <ele>2081.0</ele>
        <time>2016-06-11T14:12:19Z</time>
      </trkpt>
      <trkpt lat="40.481833" lon="-4.927617">
        <ele>2079.0</ele>
        <time>2016-06-11T14:12:20Z</time>
      </trkpt>
      <trkpt lat="40.481833" lon="-4.927517">
        <ele>2078.0</ele>
        <time>2016-06-11T14:12:21Z</time>
      </trkpt>
      <trkpt lat="40.481833" lon="-4.927383">
        <ele>2076.0</ele>
        <time>2016-06-11T14:12:22Z</time>
      </trkpt>
      <trkpt lat="40.481833" lon="-4.927267">
        <ele>2073.0</ele>
        <time>2016-06-11T14:12:23Z</time>
      </trkpt>
      <trkpt lat="40.481817" lon="-4.927117">
        <ele>2070.0</ele>
        <time>2016-06-11T14:12:24Z</time>
      </trkpt>
      <trkpt lat="40.481800" lon="-4.926950">
        <ele>2067.0</ele>
        <time>2016-06-11T14:12:25Z</time>
      </trkpt>
      <trkpt lat="40.481767" lon="-4.926783">
        <ele>2065.0</ele>
        <time>2016-06-11T14:12:26Z</time>
      </trkpt>
      <trkpt lat="40.481733" lon="-4.926633">
        <ele>2063.0</ele>
        <time>2016-06-11T14:12:27Z</time>
      </trkpt>
      <trkpt lat="40.481700" lon="-4.926500">
        <ele>2062.0</ele>
        <time>2016-06-11T14:12:28Z</time>
      </trkpt>
      <trkpt lat="40.481667" lon="-4.926333">
        <ele>2060.0</ele>
        <time>2016-06-11T14:12:29Z</time>
      </trkpt>
      <trkpt lat="40.481650" lon="-4.926183">
        <ele>2057.0</ele>
        <time>2016-06-11T14:12:30Z</time>
      </trkpt>
      <trkpt lat="40.481633" lon="-4.926017">
        <ele>2054.0</ele>
        <time>2016-06-11T14:12:31Z</time>
      </trkpt>
      <trkpt lat="40.481617" lon="-4.925867">
        <ele>2053.0</ele>
        <time>2016-06-11T14:12:32Z</time>
      </trkpt>
      <trkpt lat="40.481600" lon="-4.925733">
        <ele>2052.0</ele>
        <time>2016-06-11T14:12:33Z</time>
      </trkpt>
      <trkpt lat="40.481583" lon="-4.925617">
        <ele>2050.0</ele>
        <time>2016-06-11T14:12:34Z</time>
      </trkpt>
      <trkpt lat="40.481583" lon="-4.925483">
        <ele>2048.0</ele>
        <time>2016-06-11T14:12:35Z</time>
      </trkpt>
      <trkpt lat="40.481567" lon="-4.925317">
        <ele>2045.0</ele>
        <time>2016-06-11T14:12:36Z</time>
      </trkpt>
      <trkpt lat="40.481533" lon="-4.925150">
        <ele>2041.0</ele>
        <time>2016-06-11T14:12:37Z</time>
      </trkpt>
      <trkpt lat="40.481517" lon="-4.924967">
        <ele>2038.0</ele>
        <time>2016-06-11T14:12:38Z</time>
      </trkpt>
      <trkpt lat="40.481500" lon="-4.924817">
        <ele>2036.0</ele>
        <time>2016-06-11T14:12:39Z</time>
      </trkpt>
      <trkpt lat="40.481467" lon="-4.924650">
        <ele>2035.0</ele>
        <time>2016-06-11T14:12:40Z</time>
      </trkpt>
      <trkpt lat="40.481433" lon="-4.924483">
        <ele>2033.0</ele>
        <time>2016-06-11T14:12:41Z</time>
      </trkpt>
      <trkpt lat="40.481417" lon="-4.924300">
        <ele>2031.0</ele>
        <time>2016-06-11T14:12:42Z</time>
      </trkpt>
      <trkpt lat="40.481383" lon="-4.924133">
        <ele>2028.0</ele>
        <time>2016-06-11T14:12:43Z</time>
      </trkpt>
      <trkpt lat="40.481350" lon="-4.923950">
        <ele>2025.0</ele>
        <time>2016-06-11T14:12:44Z</time>
      </trkpt>
      <trkpt lat="40.481333" lon="-4.923783">
        <ele>2023.0</ele>
        <time>2016-06-11T14:12:45Z</time>
      </trkpt>
      <trkpt lat="40.481300" lon="-4.923617">
        <ele>2020.0</ele>
        <time>2016-06-11T14:12:46Z</time>
      </trkpt>
      <trkpt lat="40.481267" lon="-4.923450">
        <ele>2017.0</ele>
        <time>2016-06-11T14:12:47Z</time>
      </trkpt>
      <trkpt lat="40.481200" lon="-4.923283">
        <ele>2014.0</ele>
        <time>2016-06-11T14:12:48Z</time>
      </trkpt>
      <trkpt lat="40.481150" lon="-4.923083">
        <ele>2010.0</ele>
        <time>2016-06-11T14:12:49Z</time>
      </trkpt>
      <trkpt lat="40.481100" lon="-4.922883">
        <ele>2007.0</ele>
        <time>2016-06-11T14:12:50Z</time>
      </trkpt>
      <trkpt lat="40.481050" lon="-4.922683">
        <ele>2005.0</ele>
        <time>2016-06-11T14:12:51Z</time>
      </trkpt>
      <trkpt lat="40.481017" lon="-4.922517">
        <ele>2003.0</ele>
        <time>2016-06-11T14:12:52Z</time>
      </trkpt>
      <trkpt lat="40.481000" lon="-4.922350">
        <ele>2002.0</ele>
        <time>2016-06-11T14:12:53Z</time>
      </trkpt>
      <trkpt lat="40.480983" lon="-4.922183">
        <ele>2000.0</ele>
        <time>2016-06-11T14:12:54Z</time>
      </trkpt>
      <trkpt lat="40.480983" lon="-4.922017">
        <ele>1999.0</ele>
        <time>2016-06-11T14:12:55Z</time>
      </trkpt>
      <trkpt lat="40.480967" lon="-4.921867">
        <ele>1998.0</ele>
        <time>2016-06-11T14:12:56Z</time>
      </trkpt>
      <trkpt lat="40.480950" lon="-4.921717">
        <ele>1997.0</ele>
        <time>2016-06-11T14:12:57Z</time>
      </trkpt>
      <trkpt lat="40.480950" lon="-4.921583">
        <ele>1996.0</ele>
        <time>2016-06-11T14:12:58Z</time>
      </trkpt>
      <trkpt lat="40.480967" lon="-4.921433">
        <ele>1994.0</ele>
        <time>2016-06-11T14:12:59Z</time>
      </trkpt>
      <trkpt lat="40.480983" lon="-4.921283">
        <ele>1991.0</ele>
        <time>2016-06-11T14:13:00Z</time>
      </trkpt>
      <trkpt lat="40.481000" lon="-4.921133">
        <ele>1989.0</ele>
        <time>2016-06-11T14:13:01Z</time>
      </trkpt>
      <trkpt lat="40.481017" lon="-4.920983">
        <ele>1988.0</ele>
        <time>2016-06-11T14:13:02Z</time>
      </trkpt>
      <trkpt lat="40.481033" lon="-4.920833">
        <ele>1987.0</ele>
        <time>2016-06-11T14:13:03Z</time>
      </trkpt>
      <trkpt lat="40.481050" lon="-4.920683">
        <ele>1987.0</ele>
        <time>2016-06-11T14:13:04Z</time>
      </trkpt>
      <trkpt lat="40.481067" lon="-4.920533">
        <ele>1987.0</ele>
        <time>2016-06-11T14:13:05Z</time>
      </trkpt>
      <trkpt lat="40.481067" lon="-4.920383">
        <ele>1987.0</ele>
        <time>2016-06-11T14:13:06Z</time>
      </trkpt>
      <trkpt lat="40.481083" lon="-4.920233">
        <ele>1986.0</ele>
        <time>2016-06-11T14:13:07Z</time>
      </trkpt>
      <trkpt lat="40.481117" lon="-4.920100">
        <ele>1986.0</ele>
        <time>2016-06-11T14:13:08Z</time>
      </trkpt>
      <trkpt lat="40.481133" lon="-4.919967">
        <ele>1985.0</ele>
        <time>2016-06-11T14:13:09Z</time>
      </trkpt>
      <trkpt lat="40.481167" lon="-4.919833">
        <ele>1986.0</ele>
        <time>2016-06-11T14:13:10Z</time>
      </trkpt>
      <trkpt lat="40.481183" lon="-4.919700">
        <ele>1987.0</ele>
        <time>2016-06-11T14:13:11Z</time>
      </trkpt>
      <trkpt lat="40.481200" lon="-4.919583">
        <ele>1988.0</ele>
        <time>2016-06-11T14:13:12Z</time>
      </trkpt>
      <trkpt lat="40.481200" lon="-4.919450">
        <ele>1988.0</ele>
        <time>2016-06-11T14:13:13Z</time>
      </trkpt>
      <trkpt lat="40.481233" lon="-4.919333">
        <ele>1987.0</ele>
        <time>2016-06-11T14:13:14Z</time>
      </trkpt>
      <trkpt lat="40.481250" lon="-4.919233">
        <ele>1987.0</ele>
        <time>2016-06-11T14:13:15Z</time>
      </trkpt>
      <trkpt lat="40.481300" lon="-4.919133">
        <ele>1987.0</ele>
        <time>2016-06-11T14:13:16Z</time>
      </trkpt>
      <trkpt lat="40.481333" lon="-4.919033">
        <ele>1987.0</ele>
        <time>2016-06-11T14:13:17Z</time>
      </trkpt>
      <trkpt lat="40.481367" lon="-4.918917">
        <ele>1987.0</ele>
        <time>2016-06-11T14:13:18Z</time>
      </trkpt>
      <trkpt lat="40.481400" lon="-4.918817">
        <ele>1988.0</ele>
        <time>2016-06-11T14:13:19Z</time>
      </trkpt>
      <trkpt lat="40.481450" lon="-4.918700">
        <ele>1989.0</ele>
        <time>2016-06-11T14:13:20Z</time>
      </trkpt>
      <trkpt lat="40.481500" lon="-4.918617">
        <ele>1991.0</ele>
        <time>2016-06-11T14:13:21Z</time>
      </trkpt>
      <trkpt lat="40.481550" lon="-4.918550">
        <ele>1993.0</ele>
        <time>2016-06-11T14:13:22Z</time>
      </trkpt>
      <trkpt lat="40.481600" lon="-4.918483">
        <ele>1995.0</ele>
        <time>2016-06-11T14:13:23Z</time>
      </trkpt>
      <trkpt lat="40.481650" lon="-4.918417">
        <ele>1998.0</ele>
        <time>2016-06-11T14:13:24Z</time>
      </trkpt>
      <trkpt lat="40.481683" lon="-4.918367">
        <ele>2000.0</ele>
        <time>2016-06-11T14:13:25Z</time>
      </trkpt>
      <trkpt lat="40.481717" lon="-4.918317">
        <ele>2003.0</ele>
        <time>2016-06-11T14:13:26Z</time>
      </trkpt>
      <trkpt lat="40.481733" lon="-4.918283">
        <ele>2006.0</ele>
        <time>2016-06-11T14:13:27Z</time>
      </trkpt>
      <trkpt lat="40.481750" lon="-4.918250">
        <ele>2009.0</ele>
        <time>2016-06-11T14:13:28Z</time>
      </trkpt>
      <trkpt lat="40.481783" lon="-4.918200">
        <ele>2012.0</ele>
        <time>2016-06-11T14:13:29Z</time>
      </trkpt>
      <trkpt lat="40.481800" lon="-4.918167">
        <ele>2013.0</ele>
        <time>2016-06-11T14:13:30Z</time>
      </trkpt>
      <trkpt lat="40.481833" lon="-4.918117">
        <ele>2015.0</ele>
        <time>2016-06-11T14:13:31Z</time>
      </trkpt>
      <trkpt lat="40.481867" lon="-4.918083">
        <ele>2016.0</ele>
        <time>2016-06-11T14:13:32Z</time>
      </trkpt>
      <trkpt lat="40.481883" lon="-4.918067">
        <ele>2017.0</ele>
        <time>2016-06-11T14:13:33Z</time>
      </trkpt>
      <trkpt lat="40.481900" lon="-4.918050">
        <ele>2019.0</ele>
        <time>2016-06-11T14:13:34Z</time>
      </trkpt>
      <trkpt lat="40.481917" lon="-4.918033">
        <ele>2020.0</ele>
        <time>2016-06-11T14:13:35Z</time>
      </trkpt>
      <trkpt lat="40.481933" lon="-4.918033">
        <ele>2021.0</ele>
        <time>2016-06-11T14:13:36Z</time>
      </trkpt>
      <trkpt lat="40.481950" lon="-4.918033">
        <ele>2022.0</ele>
        <time>2016-06-11T14:13:37Z</time>
      </trkpt>
      <trkpt lat="40.481967" lon="-4.918033">
        <ele>2022.0</ele>
        <time>2016-06-11T14:13:38Z</time>
      </trkpt>
      <trkpt lat="40.481983" lon="-4.918050">
        <ele>2022.0</ele>
        <time>2016-06-11T14:13:39Z</time>
      </trkpt>
      <trkpt lat="40.482017" lon="-4.918050">
        <ele>2023.0</ele>
        <time>2016-06-11T14:13:40Z</time>
      </trkpt>
      <trkpt lat="40.482033" lon="-4.918067">
        <ele>2025.0</ele>
        <time>2016-06-11T14:13:41Z</time>
      </trkpt>
      <trkpt lat="40.482033" lon="-4.918100">
        <ele>2026.0</ele>
        <time>2016-06-11T14:13:42Z</time>
      </trkpt>
      <trkpt lat="40.482050" lon="-4.918117">
        <ele>2027.0</ele>
        <time>2016-06-11T14:13:43Z</time>
      </trkpt>
      <trkpt lat="40.482067" lon="-4.918150">
        <ele>2028.0</ele>
        <time>2016-06-11T14:13:44Z</time>
      </trkpt>
      <trkpt lat="40.482100" lon="-4.918167">
        <ele>2028.0</ele>
        <time>2016-06-11T14:13:45Z</time>
      </trkpt>
      <trkpt lat="40.482133" lon="-4.918183">
        <ele>2029.0</ele>
        <time>2016-06-11T14:13:46Z</time>
      </trkpt>
      <trkpt lat="40.482167" lon="-4.918200">
        <ele>2031.0</ele>
        <time>2016-06-11T14:13:47Z</time>
      </trkpt>
      <trkpt lat="40.482200" lon="-4.918200">
        <ele>2033.0</ele>
        <time>2016-06-11T14:13:48Z</time>
      </trkpt>
      <trkpt lat="40.482233" lon="-4.918167">
        <ele>2036.0</ele>
        <time>2016-06-11T14:13:49Z</time>
      </trkpt>
      <trkpt lat="40.482267" lon="-4.918150">
        <ele>2038.0</ele>
        <time>2016-06-11T14:13:50Z</time>
      </trkpt>
      <trkpt lat="40.482300" lon="-4.918133">
        <ele>2040.0</ele>
        <time>2016-06-11T14:13:51Z</time>
      </trkpt>
      <trkpt lat="40.482333" lon="-4.918133">
        <ele>2042.0</ele>
        <time>2016-06-11T14:13:52Z</time>
      </trkpt>
      <trkpt lat="40.482367" lon="-4.918117">
        <ele>2044.0</ele>
        <time>2016-06-11T14:13:53Z</time>
      </trkpt>
      <trkpt lat="40.482400" lon="-4.918100">
        <ele>2045.0</ele>
        <time>2016-06-11T14:13:54Z</time>
      </trkpt>
      <trkpt lat="40.482433" lon="-4.918100">
        <ele>2047.0</ele>
        <time>2016-06-11T14:13:55Z</time>
      </trkpt>
      <trkpt lat="40.482467" lon="-4.918100">
        <ele>2048.0</ele>
        <time>2016-06-11T14:13:56Z</time>
      </trkpt>
      <trkpt lat="40.482483" lon="-4.918100">
        <ele>2050.0</ele>
        <time>2016-06-11T14:13:57Z</time>
      </trkpt>
      <trkpt lat="40.482500" lon="-4.918100">
        <ele>2051.0</ele>
        <time>2016-06-11T14:13:58Z</time>
      </trkpt>
      <trkpt lat="40.482517" lon="-4.918083">
        <ele>2051.0</ele>
        <time>2016-06-11T14:13:59Z</time>
      </trkpt>
      <trkpt lat="40.482533" lon="-4.918083">
        <ele>2051.0</ele>
        <time>2016-06-11T14:14:00Z</time>
      </trkpt>
      <trkpt lat="40.482550" lon="-4.918083">
        <ele>2050.0</ele>
        <time>2016-06-11T14:14:01Z</time>
      </trkpt>
      <trkpt lat="40.482567" lon="-4.918083">
        <ele>2050.0</ele>
        <time>2016-06-11T14:14:02Z</time>
      </trkpt>
      <trkpt lat="40.482567" lon="-4.918100">
        <ele>2049.0</ele>
        <time>2016-06-11T14:14:03Z</time>
      </trkpt>
      <trkpt lat="40.482567" lon="-4.918133">
        <ele>2050.0</ele>
        <time>2016-06-11T14:14:04Z</time>
      </trkpt>
      <trkpt lat="40.482517" lon="-4.918167">
        <ele>2051.0</ele>
        <time>2016-06-11T14:14:05Z</time>
      </trkpt>
      <trkpt lat="40.482483" lon="-4.918200">
        <ele>2051.0</ele>
        <time>2016-06-11T14:14:06Z</time>
      </trkpt>
      <trkpt lat="40.482450" lon="-4.918233">
        <ele>2052.0</ele>
        <time>2016-06-11T14:14:07Z</time>
      </trkpt>
      <trkpt lat="40.482417" lon="-4.918300">
        <ele>2051.0</ele>
        <time>2016-06-11T14:14:08Z</time>
      </trkpt>
      <trkpt lat="40.482400" lon="-4.918350">
        <ele>2052.0</ele>
        <time>2016-06-11T14:14:09Z</time>
      </trkpt>
      <trkpt lat="40.482383" lon="-4.918383">
        <ele>2054.0</ele>
        <time>2016-06-11T14:14:10Z</time>
      </trkpt>
      <trkpt lat="40.482350" lon="-4.918400">
        <ele>2058.0</ele>
        <time>2016-06-11T14:14:11Z</time>
      </trkpt>
      <trkpt lat="40.482333" lon="-4.918417">
        <ele>2061.0</ele>
        <time>2016-06-11T14:14:12Z</time>
      </trkpt>
      <trkpt lat="40.482333" lon="-4.918450">
        <ele>2063.0</ele>
        <time>2016-06-11T14:14:13Z</time>
      </trkpt>
      <trkpt lat="40.482333" lon="-4.918467">
        <ele>2064.0</ele>
        <time>2016-06-11T14:14:14Z</time>
      </trkpt>
      <trkpt lat="40.482317" lon="-4.918483">
        <ele>2067.0</ele>
        <time>2016-06-11T14:14:15Z</time>
      </trkpt>
      <trkpt lat="40.482317" lon="-4.918500">
        <ele>2069.0</ele>
        <time>2016-06-11T14:14:16Z</time>
      </trkpt>
      <trkpt lat="40.482317" lon="-4.918500">
        <ele>2071.0</ele>
        <time>2016-06-11T14:14:17Z</time>
      </trkpt>
      <trkpt lat="40.482317" lon="-4.918517">
        <ele>2073.0</ele>
        <time>2016-06-11T14:14:18Z</time>
      </trkpt>
      <trkpt lat="40.482317" lon="-4.918533">
        <ele>2074.0</ele>
        <time>2016-06-11T14:14:19Z</time>
      </trkpt>
      <trkpt lat="40.482317" lon="-4.918533">
        <ele>2075.0</ele>
        <time>2016-06-11T14:14:20Z</time>
      </trkpt>
      <trkpt lat="40.482333" lon="-4.918533">
        <ele>2076.0</ele>
        <time>2016-06-11T14:14:21Z</time>
      </trkpt>
      <trkpt lat="40.482367" lon="-4.918500">
        <ele>2076.0</ele>
        <time>2016-06-11T14:14:22Z</time>
      </trkpt>
      <trkpt lat="40.482400" lon="-4.918450">
        <ele>2077.0</ele>
        <time>2016-06-11T14:14:23Z</time>
      </trkpt>
      <trkpt lat="40.482433" lon="-4.918417">
        <ele>2078.0</ele>
        <time>2016-06-11T14:14:24Z</time>
      </trkpt>
      <trkpt lat="40.482467" lon="-4.918383">
        <ele>2079.0</ele>
        <time>2016-06-11T14:14:25Z</time>
      </trkpt>
      <trkpt lat="40.482483" lon="-4.918350">
        <ele>2080.0</ele>
        <time>2016-06-11T14:14:26Z</time>
      </trkpt>
      <trkpt lat="40.482517" lon="-4.918317">
        <ele>2080.0</ele>
        <time>2016-06-11T14:14:27Z</time>
      </trkpt>
      <trkpt lat="40.482550" lon="-4.918283">
        <ele>2081.0</ele>
        <time>2016-06-11T14:14:28Z</time>
      </trkpt>
      <trkpt lat="40.482583" lon="-4.918217">
        <ele>2083.0</ele>
        <time>2016-06-11T14:14:29Z</time>
      </trkpt>
      <trkpt lat="40.482600" lon="-4.918150">
        <ele>2084.0</ele>
        <time>2016-06-11T14:14:30Z</time>
      </trkpt>
      <trkpt lat="40.482633" lon="-4.918100">
        <ele>2086.0</ele>
        <time>2016-06-11T14:14:31Z</time>
      </trkpt>
      <trkpt lat="40.482667" lon="-4.918050">
        <ele>2087.0</ele>
        <time>2016-06-11T14:14:32Z</time>
      </trkpt>
      <trkpt lat="40.482700" lon="-4.917983">
        <ele>2087.0</ele>
        <time>2016-06-11T14:14:33Z</time>
      </trkpt>
      <trkpt lat="40.482750" lon="-4.917900">
        <ele>2089.0</ele>
        <time>2016-06-11T14:14:34Z</time>
      </trkpt>
      <trkpt lat="40.482767" lon="-4.917800">
        <ele>2090.0</ele>
        <time>2016-06-11T14:14:35Z</time>
      </trkpt>
      <trkpt lat="40.482767" lon="-4.917667">
        <ele>2092.0</ele>
        <time>2016-06-11T14:14:36Z</time>
      </trkpt>
      <trkpt lat="40.482750" lon="-4.917517">
        <ele>2093.0</ele>
        <time>2016-06-11T14:14:37Z</time>
      </trkpt>
      <trkpt lat="40.482700" lon="-4.917350">
        <ele>2094.0</ele>
        <time>2016-06-11T14:14:38Z</time>
      </trkpt>
      <trkpt lat="40.482617" lon="-4.917217">
        <ele>2094.0</ele>
        <time>2016-06-11T14:14:39Z</time>
      </trkpt>
      <trkpt lat="40.482500" lon="-4.917100">
        <ele>2094.0</ele>
        <time>2016-06-11T14:14:40Z</time>
      </trkpt>
      <trkpt lat="40.482367" lon="-4.917050">
        <ele>2093.0</ele>
        <time>2016-06-11T14:14:41Z</time>
      </trkpt>
      <trkpt lat="40.482233" lon="-4.917067">
        <ele>2090.0</ele>
        <time>2016-06-11T14:14:42Z</time>
      </trkpt>
      <trkpt lat="40.482133" lon="-4.917117">
        <ele>2088.0</ele>
        <time>2016-06-11T14:14:43Z</time>
      </trkpt>
      <trkpt lat="40.482050" lon="-4.917167">
        <ele>2089.0</ele>
        <time>2016-06-11T14:14:44Z</time>
      </trkpt>
      <trkpt lat="40.482000" lon="-4.917183">
        <ele>2094.0</ele>
        <time>2016-06-11T14:14:45Z</time>
      </trkpt>
      <trkpt lat="40.481950" lon="-4.917167">
        <ele>2097.0</ele>
        <time>2016-06-11T14:14:46Z</time>
      </trkpt>
      <trkpt lat="40.481883" lon="-4.917167">
        <ele>2100.0</ele>
        <time>2016-06-11T14:14:47Z</time>
      </trkpt>
      <trkpt lat="40.481833" lon="-4.917183">
        <ele>2100.0</ele>
        <time>2016-06-11T14:14:48Z</time>
      </trkpt>
      <trkpt lat="40.481783" lon="-4.917233">
        <ele>2098.0</ele>
        <time>2016-06-11T14:14:49Z</time>
      </trkpt>
      <trkpt lat="40.481750" lon="-4.917283">
        <ele>2097.0</ele>
        <time>2016-06-11T14:14:50Z</time>
      </trkpt>
      <trkpt lat="40.481717" lon="-4.917317">
        <ele>2097.0</ele>
        <time>2016-06-11T14:14:51Z</time>
      </trkpt>
      <trkpt lat="40.481717" lon="-4.917333">
        <ele>2099.0</ele>
        <time>2016-06-11T14:14:52Z</time>
      </trkpt>
      <trkpt lat="40.481717" lon="-4.917333">
        <ele>2102.0</ele>
        <time>2016-06-11T14:14:53Z</time>
      </trkpt>
      <trkpt lat="40.481717" lon="-4.917333">
        <ele>2102.0</ele>
        <time>2016-06-11T14:14:54Z</time>
      </trkpt>
      <trkpt lat="40.481733" lon="-4.917333">
        <ele>2102.0</ele>
        <time>2016-06-11T14:14:55Z</time>
      </trkpt>
      <trkpt lat="40.481733" lon="-4.917350">
        <ele>2102.0</ele>
        <time>2016-06-11T14:14:56Z</time>
      </trkpt>
      <trkpt lat="40.481767" lon="-4.917367">
        <ele>2102.0</ele>
        <time>2016-06-11T14:14:57Z</time>
      </trkpt>
      <trkpt lat="40.481783" lon="-4.917367">
        <ele>2103.0</ele>
        <time>2016-06-11T14:14:58Z</time>
      </trkpt>
      <trkpt lat="40.481817" lon="-4.917350">
        <ele>2106.0</ele>
        <time>2016-06-11T14:14:59Z</time>
      </trkpt>
      <trkpt lat="40.481833" lon="-4.917317">
        <ele>2108.0</ele>
        <time>2016-06-11T14:15:00Z</time>
      </trkpt>
      <trkpt lat="40.481850" lon="-4.917283">
        <ele>2108.0</ele>
        <time>2016-06-11T14:15:01Z</time>
      </trkpt>
      <trkpt lat="40.481883" lon="-4.917250">
        <ele>2109.0</ele>
        <time>2016-06-11T14:15:02Z</time>
      </trkpt>
      <trkpt lat="40.481900" lon="-4.917217">
        <ele>2110.0</ele>
        <time>2016-06-11T14:15:03Z</time>
      </trkpt>
      <trkpt lat="40.481933" lon="-4.917183">
        <ele>2111.0</ele>
        <time>2016-06-11T14:15:04Z</time>
      </trkpt>
      <trkpt lat="40.481950" lon="-4.917117">
        <ele>2112.0</ele>
        <time>2016-06-11T14:15:05Z</time>
      </trkpt>
      <trkpt lat="40.481983" lon="-4.917050">
        <ele>2112.0</ele>
        <time>2016-06-11T14:15:06Z</time>
      </trkpt>
      <trkpt lat="40.482017" lon="-4.916983">
        <ele>2114.0</ele>
        <time>2016-06-11T14:15:07Z</time>
      </trkpt>
      <trkpt lat="40.482050" lon="-4.916933">
        <ele>2115.0</ele>
        <time>2016-06-11T14:15:08Z</time>
      </trkpt>
      <trkpt lat="40.482067" lon="-4.916883">
        <ele>2117.0</ele>
        <time>2016-06-11T14:15:09Z</time>
      </trkpt>
      <trkpt lat="40.482067" lon="-4.916833">
        <ele>2118.0</ele>
        <time>2016-06-11T14:15:10Z</time>
      </trkpt>
      <trkpt lat="40.482100" lon="-4.916767">
        <ele>2118.0</ele>
        <time>2016-06-11T14:15:11Z</time>
      </trkpt>
      <trkpt lat="40.482117" lon="-4.916700">
        <ele>2118.0</ele>
        <time>2016-06-11T14:15:12Z</time>
      </trkpt>
      <trkpt lat="40.482150" lon="-4.916617">
        <ele>2119.0</ele>
        <time>2016-06-11T14:15:13Z</time>
      </trkpt>
      <trkpt lat="40.482183" lon="-4.916550">
        <ele>2121.0</ele>
        <time>2016-06-11T14:15:14Z</time>
      </trkpt>
      <trkpt lat="40.482200" lon="-4.916500">
        <ele>2123.0</ele>
        <time>2016-06-11T14:15:15Z</time>
      </trkpt>
      <trkpt lat="40.482200" lon="-4.916433">
        <ele>2125.0</ele>
        <time>2016-06-11T14:15:16Z</time>
      </trkpt>
      <trkpt lat="40.482217" lon="-4.916367">
        <ele>2126.0</ele>
        <time>2016-06-11T14:15:17Z</time>
      </trkpt>
      <trkpt lat="40.482217" lon="-4.916283">
        <ele>2126.0</ele>
        <time>2016-06-11T14:15:18Z</time>
      </trkpt>
      <trkpt lat="40.482233" lon="-4.916167">
        <ele>2126.0</ele>
        <time>2016-06-11T14:15:19Z</time>
      </trkpt>
      <trkpt lat="40.482250" lon="-4.916067">
        <ele>2124.0</ele>
        <time>2016-06-11T14:15:20Z</time>
      </trkpt>
      <trkpt lat="40.482283" lon="-4.915967">
        <ele>2124.0</ele>
        <time>2016-06-11T14:15:21Z</time>
      </trkpt>
      <trkpt lat="40.482300" lon="-4.915883">
        <ele>2125.0</ele>
        <time>2016-06-11T14:15:22Z</time>
      </trkpt>
      <trkpt lat="40.482333" lon="-4.915800">
        <ele>2126.0</ele>
        <time>2016-06-11T14:15:23Z</time>
      </trkpt>
      <trkpt lat="40.482350" lon="-4.915717">
        <ele>2127.0</ele>
        <time>2016-06-11T14:15:24Z</time>
      </trkpt>
      <trkpt lat="40.482367" lon="-4.915617">
        <ele>2128.0</ele>
        <time>2016-06-11T14:15:25Z</time>
      </trkpt>
      <trkpt lat="40.482400" lon="-4.915500">
        <ele>2128.0</ele>
        <time>2016-06-11T14:15:26Z</time>
      </trkpt>
      <trkpt lat="40.482433" lon="-4.915400">
        <ele>2129.0</ele>
        <time>2016-06-11T14:15:27Z</time>
      </trkpt>
      <trkpt lat="40.482450" lon="-4.915300">
        <ele>2131.0</ele>
        <time>2016-06-11T14:15:28Z</time>
      </trkpt>
      <trkpt lat="40.482467" lon="-4.915200">
        <ele>2133.0</ele>
        <time>2016-06-11T14:15:29Z</time>
      </trkpt>
      <trkpt lat="40.482467" lon="-4.915083">
        <ele>2134.0</ele>
        <time>2016-06-11T14:15:30Z</time>
      </trkpt>
      <trkpt lat="40.482467" lon="-4.914983">
        <ele>2135.0</ele>
        <time>2016-06-11T14:15:31Z</time>
      </trkpt>
      <trkpt lat="40.482483" lon="-4.914883">
        <ele>2134.0</ele>
        <time>2016-06-11T14:15:32Z</time>
      </trkpt>
      <trkpt lat="40.482517" lon="-4.914783">
        <ele>2133.0</ele>
        <time>2016-06-11T14:15:33Z</time>
      </trkpt>
      <trkpt lat="40.482550" lon="-4.914700">
        <ele>2132.0</ele>
        <time>2016-06-11T14:15:34Z</time>
      </trkpt>
      <trkpt lat="40.482583" lon="-4.914617">
        <ele>2131.0</ele>
        <time>2016-06-11T14:15:35Z</time>
      </trkpt>
      <trkpt lat="40.482617" lon="-4.914517">
        <ele>2129.0</ele>
        <time>2016-06-11T14:15:36Z</time>
      </trkpt>
      <trkpt lat="40.482650" lon="-4.914400">
        <ele>2128.0</ele>
        <time>2016-06-11T14:15:37Z</time>
      </trkpt>
      <trkpt lat="40.482667" lon="-4.914267">
        <ele>2127.0</ele>
        <time>2016-06-11T14:15:38Z</time>
      </trkpt>
      <trkpt lat="40.482667" lon="-4.914133">
        <ele>2127.0</ele>
        <time>2016-06-11T14:15:39Z</time>
      </trkpt>
      <trkpt lat="40.482667" lon="-4.914017">
        <ele>2127.0</ele>
        <time>2016-06-11T14:15:40Z</time>
      </trkpt>
      <trkpt lat="40.482667" lon="-4.913900">
        <ele>2127.0</ele>
        <time>2016-06-11T14:15:41Z</time>
      </trkpt>
      <trkpt lat="40.482683" lon="-4.913800">
        <ele>2125.0</ele>
        <time>2016-06-11T14:15:42Z</time>
      </trkpt>
      <trkpt lat="40.482700" lon="-4.913667">
        <ele>2123.0</ele>
        <time>2016-06-11T14:15:43Z</time>
      </trkpt>
      <trkpt lat="40.482717" lon="-4.913533">
        <ele>2121.0</ele>
        <time>2016-06-11T14:15:44Z</time>
      </trkpt>
      <trkpt lat="40.482733" lon="-4.913417">
        <ele>2120.0</ele>
        <time>2016-06-11T14:15:45Z</time>
      </trkpt>
      <trkpt lat="40.482750" lon="-4.913300">
        <ele>2119.0</ele>
        <time>2016-06-11T14:15:46Z</time>
      </trkpt>
      <trkpt lat="40.482750" lon="-4.913200">
        <ele>2119.0</ele>
        <time>2016-06-11T14:15:47Z</time>
      </trkpt>
      <trkpt lat="40.482767" lon="-4.913100">
        <ele>2117.0</ele>
        <time>2016-06-11T14:15:48Z</time>
      </trkpt>
      <trkpt lat="40.482800" lon="-4.912967">
        <ele>2114.0</ele>
        <time>2016-06-11T14:15:49Z</time>
      </trkpt>
      <trkpt lat="40.482817" lon="-4.912817">
        <ele>2112.0</ele>
        <time>2016-06-11T14:15:50Z</time>
      </trkpt>
      <trkpt lat="40.482850" lon="-4.912700">
        <ele>2111.0</ele>
        <time>2016-06-11T14:15:51Z</time>
      </trkpt>
      <trkpt lat="40.482867" lon="-4.912583">
        <ele>2111.0</ele>
        <time>2016-06-11T14:15:52Z</time>
      </trkpt>
      <trkpt lat="40.482883" lon="-4.912483">
        <ele>2109.0</ele>
        <time>2016-06-11T14:15:53Z</time>
      </trkpt>
      <trkpt lat="40.482917" lon="-4.912383">
        <ele>2107.0</ele>
        <time>2016-06-11T14:15:54Z</time>
      </trkpt>
      <trkpt lat="40.482933" lon="-4.912283">
        <ele>2104.0</ele>
        <time>2016-06-11T14:15:55Z</time>
      </trkpt>
      <trkpt lat="40.482967" lon="-4.912167">
        <ele>2103.0</ele>
        <time>2016-06-11T14:15:56Z</time>
      </trkpt>
      <trkpt lat="40.482983" lon="-4.912050">
        <ele>2102.0</ele>
        <time>2016-06-11T14:15:57Z</time>
      </trkpt>
      <trkpt lat="40.483000" lon="-4.911950">
        <ele>2102.0</ele>
        <time>2016-06-11T14:15:58Z</time>
      </trkpt>
      <trkpt lat="40.483017" lon="-4.911833">
        <ele>2102.0</ele>
        <time>2016-06-11T14:15:59Z</time>
      </trkpt>
      <trkpt lat="40.483017" lon="-4.911733">
        <ele>2101.0</ele>
        <time>2016-06-11T14:16:00Z</time>
      </trkpt>
      <trkpt lat="40.483033" lon="-4.911617">
        <ele>2100.0</ele>
        <time>2016-06-11T14:16:01Z</time>
      </trkpt>
      <trkpt lat="40.483067" lon="-4.911483">
        <ele>2098.0</ele>
        <time>2016-06-11T14:16:02Z</time>
      </trkpt>
      <trkpt lat="40.483083" lon="-4.911333">
        <ele>2095.0</ele>
        <time>2016-06-11T14:16:03Z</time>
      </trkpt>
      <trkpt lat="40.483083" lon="-4.911200">
        <ele>2096.0</ele>
        <time>2016-06-11T14:16:04Z</time>
      </trkpt>
      <trkpt lat="40.483100" lon="-4.911083">
        <ele>2096.0</ele>
        <time>2016-06-11T14:16:05Z</time>
      </trkpt>
      <trkpt lat="40.483117" lon="-4.910983">
        <ele>2096.0</ele>
        <time>2016-06-11T14:16:06Z</time>
      </trkpt>
      <trkpt lat="40.483133" lon="-4.910867">
        <ele>2095.0</ele>
        <time>2016-06-11T14:16:07Z</time>
      </trkpt>
      <trkpt lat="40.483150" lon="-4.910733">
        <ele>2093.0</ele>
        <time>2016-06-11T14:16:08Z</time>
      </trkpt>
      <trkpt lat="40.483167" lon="-4.910600">
        <ele>2091.0</ele>
        <time>2016-06-11T14:16:09Z</time>
      </trkpt>
      <trkpt lat="40.483200" lon="-4.910467">
        <ele>2089.0</ele>
        <time>2016-06-11T14:16:10Z</time>
      </trkpt>
      <trkpt lat="40.483233" lon="-4.910333">
        <ele>2088.0</ele>
        <time>2016-06-11T14:16:11Z</time>
      </trkpt>
      <trkpt lat="40.483267" lon="-4.910217">
        <ele>2088.0</ele>
        <time>2016-06-11T14:16:12Z</time>
      </trkpt>
      <trkpt lat="40.483283" lon="-4.910100">
        <ele>2088.0</ele>
        <time>2016-06-11T14:16:13Z</time>
      </trkpt>
      <trkpt lat="40.483300" lon="-4.909983">
        <ele>2088.0</ele>
        <time>2016-06-11T14:16:14Z</time>
      </trkpt>
      <trkpt lat="40.483300" lon="-4.909867">
        <ele>2087.0</ele>
        <time>2016-06-11T14:16:15Z</time>
      </trkpt>
      <trkpt lat="40.483300" lon="-4.909733">
        <ele>2085.0</ele>
        <time>2016-06-11T14:16:16Z</time>
      </trkpt>
      <trkpt lat="40.483317" lon="-4.909617">
        <ele>2083.0</ele>
        <time>2016-06-11T14:16:17Z</time>
      </trkpt>
      <trkpt lat="40.483333" lon="-4.909500">
        <ele>2082.0</ele>
        <time>2016-06-11T14:16:18Z</time>
      </trkpt>
      <trkpt lat="40.483350" lon="-4.909383">
        <ele>2080.0</ele>
        <time>2016-06-11T14:16:19Z</time>
      </trkpt>
      <trkpt lat="40.483367" lon="-4.909267">
        <ele>2079.0</ele>
        <time>2016-06-11T14:16:20Z</time>
      </trkpt>
      <trkpt lat="40.483383" lon="-4.909150">
        <ele>2077.0</ele>
        <time>2016-06-11T14:16:21Z</time>
      </trkpt>
      <trkpt lat="40.483400" lon="-4.909033">
        <ele>2077.0</ele>
        <time>2016-06-11T14:16:22Z</time>
      </trkpt>
      <trkpt lat="40.483417" lon="-4.908917">
        <ele>2077.0</ele>
        <time>2016-06-11T14:16:23Z</time>
      </trkpt>
      <trkpt lat="40.483417" lon="-4.908800">
        <ele>2078.0</ele>
        <time>2016-06-11T14:16:24Z</time>
      </trkpt>
      <trkpt lat="40.483433" lon="-4.908700">
        <ele>2077.0</ele>
        <time>2016-06-11T14:16:25Z</time>
      </trkpt>
      <trkpt lat="40.483450" lon="-4.908583">
        <ele>2076.0</ele>
        <time>2016-06-11T14:16:26Z</time>
      </trkpt>
      <trkpt lat="40.483467" lon="-4.908467">
        <ele>2075.0</ele>
        <time>2016-06-11T14:16:27Z</time>
      </trkpt>
      <trkpt lat="40.483483" lon="-4.908333">
        <ele>2075.0</ele>
        <time>2016-06-11T14:16:28Z</time>
      </trkpt>
      <trkpt lat="40.483483" lon="-4.908217">
        <ele>2074.0</ele>
        <time>2016-06-11T14:16:29Z</time>
      </trkpt>
      <trkpt lat="40.483483" lon="-4.908100">
        <ele>2074.0</ele>
        <time>2016-06-11T14:16:30Z</time>
      </trkpt>
      <trkpt lat="40.483467" lon="-4.907983">
        <ele>2073.0</ele>
        <time>2016-06-11T14:16:31Z</time>
      </trkpt>
      <trkpt lat="40.483483" lon="-4.907883">
        <ele>2071.0</ele>
        <time>2016-06-11T14:16:32Z</time>
      </trkpt>
      <trkpt lat="40.483500" lon="-4.907767">
        <ele>2069.0</ele>
        <time>2016-06-11T14:16:33Z</time>
      </trkpt>
      <trkpt lat="40.483517" lon="-4.907667">
        <ele>2069.0</ele>
        <time>2016-06-11T14:16:34Z</time>
      </trkpt>
      <trkpt lat="40.483533" lon="-4.907550">
        <ele>2070.0</ele>
        <time>2016-06-11T14:16:35Z</time>
      </trkpt>
      <trkpt lat="40.483533" lon="-4.907467">
        <ele>2069.0</ele>
        <time>2016-06-11T14:16:36Z</time>
      </trkpt>
      <trkpt lat="40.483550" lon="-4.907367">
        <ele>2068.0</ele>
        <time>2016-06-11T14:16:37Z</time>
      </trkpt>
      <trkpt lat="40.483567" lon="-4.907283">
        <ele>2067.0</ele>
        <time>2016-06-11T14:16:38Z</time>
      </trkpt>
      <trkpt lat="40.483600" lon="-4.907200">
        <ele>2066.0</ele>
        <time>2016-06-11T14:16:39Z</time>
      </trkpt>
      <trkpt lat="40.483633" lon="-4.907117">
        <ele>2067.0</ele>
        <time>2016-06-11T14:16:40Z</time>
      </trkpt>
      <trkpt lat="40.483667" lon="-4.907050">
        <ele>2069.0</ele>
        <time>2016-06-11T14:16:41Z</time>
      </trkpt>
      <trkpt lat="40.483683" lon="-4.906983">
        <ele>2070.0</ele>
        <time>2016-06-11T14:16:42Z</time>
      </trkpt>
      <trkpt lat="40.483683" lon="-4.906917">
        <ele>2069.0</ele>
        <time>2016-06-11T14:16:43Z</time>
      </trkpt>
      <trkpt lat="40.483700" lon="-4.906850">
        <ele>2069.0</ele>
        <time>2016-06-11T14:16:44Z</time>
      </trkpt>
      <trkpt lat="40.483733" lon="-4.906767">
        <ele>2068.0</ele>
        <time>2016-06-11T14:16:45Z</time>
      </trkpt>
      <trkpt lat="40.483767" lon="-4.906683">
        <ele>2067.0</ele>
        <time>2016-06-11T14:16:46Z</time>
      </trkpt>
      <trkpt lat="40.483783" lon="-4.906617">
        <ele>2068.0</ele>
        <time>2016-06-11T14:16:47Z</time>
      </trkpt>
      <trkpt lat="40.483800" lon="-4.906533">
        <ele>2069.0</ele>
        <time>2016-06-11T14:16:48Z</time>
      </trkpt>
      <trkpt lat="40.483817" lon="-4.906450">
        <ele>2069.0</ele>
        <time>2016-06-11T14:16:49Z</time>
      </trkpt>
      <trkpt lat="40.483833" lon="-4.906367">
        <ele>2068.0</ele>
        <time>2016-06-11T14:16:50Z</time>
      </trkpt>
      <trkpt lat="40.483850" lon="-4.906300">
        <ele>2066.0</ele>
        <time>2016-06-11T14:16:51Z</time>
      </trkpt>
      <trkpt lat="40.483867" lon="-4.906217">
        <ele>2065.0</ele>
        <time>2016-06-11T14:16:52Z</time>
      </trkpt>
      <trkpt lat="40.483900" lon="-4.906133">
        <ele>2064.0</ele>
        <time>2016-06-11T14:16:53Z</time>
      </trkpt>
      <trkpt lat="40.483933" lon="-4.906067">
        <ele>2063.0</ele>
        <time>2016-06-11T14:16:54Z</time>
      </trkpt>
      <trkpt lat="40.483950" lon="-4.905983">
        <ele>2063.0</ele>
        <time>2016-06-11T14:16:55Z</time>
      </trkpt>
      <trkpt lat="40.483983" lon="-4.905900">
        <ele>2062.0</ele>
        <time>2016-06-11T14:16:56Z</time>
      </trkpt>
      <trkpt lat="40.484000" lon="-4.905800">
        <ele>2062.0</ele>
        <time>2016-06-11T14:16:57Z</time>
      </trkpt>
      <trkpt lat="40.484033" lon="-4.905717">
        <ele>2061.0</ele>
        <time>2016-06-11T14:16:58Z</time>
      </trkpt>
      <trkpt lat="40.484067" lon="-4.905617">
        <ele>2060.0</ele>
        <time>2016-06-11T14:16:59Z</time>
      </trkpt>
      <trkpt lat="40.484100" lon="-4.905517">
        <ele>2060.0</ele>
        <time>2016-06-11T14:17:00Z</time>
      </trkpt>
      <trkpt lat="40.484117" lon="-4.905400">
        <ele>2060.0</ele>
        <time>2016-06-11T14:17:01Z</time>
      </trkpt>
      <trkpt lat="40.484133" lon="-4.905300">
        <ele>2059.0</ele>
        <time>2016-06-11T14:17:02Z</time>
      </trkpt>
      <trkpt lat="40.484150" lon="-4.905200">
        <ele>2058.0</ele>
        <time>2016-06-11T14:17:03Z</time>
      </trkpt>
      <trkpt lat="40.484167" lon="-4.905083">
        <ele>2057.0</ele>
        <time>2016-06-11T14:17:04Z</time>
      </trkpt>
      <trkpt lat="40.484183" lon="-4.904967">
        <ele>2056.0</ele>
        <time>2016-06-11T14:17:05Z</time>
      </trkpt>
      <trkpt lat="40.484217" lon="-4.904850">
        <ele>2056.0</ele>
        <time>2016-06-11T14:17:06Z</time>
      </trkpt>
      <trkpt lat="40.484233" lon="-4.904750">
        <ele>2055.0</ele>
        <time>2016-06-11T14:17:07Z</time>
      </trkpt>
      <trkpt lat="40.484267" lon="-4.904650">
        <ele>2054.0</ele>
        <time>2016-06-11T14:17:08Z</time>
      </trkpt>
      <trkpt lat="40.484300" lon="-4.904567">
        <ele>2053.0</ele>
        <time>2016-06-11T14:17:09Z</time>
      </trkpt>
      <trkpt lat="40.484317" lon="-4.904483">
        <ele>2053.0</ele>
        <time>2016-06-11T14:17:10Z</time>
      </trkpt>
      <trkpt lat="40.484350" lon="-4.904417">
        <ele>2051.0</ele>
        <time>2016-06-11T14:17:11Z</time>
      </trkpt>
      <trkpt lat="40.484383" lon="-4.904350">
        <ele>2050.0</ele>
        <time>2016-06-11T14:17:12Z</time>
      </trkpt>
      <trkpt lat="40.484417" lon="-4.904300">
        <ele>2048.0</ele>
        <time>2016-06-11T14:17:13Z</time>
      </trkpt>
      <trkpt lat="40.484467" lon="-4.904250">
        <ele>2046.0</ele>
        <time>2016-06-11T14:17:14Z</time>
      </trkpt>
      <trkpt lat="40.484500" lon="-4.904200">
        <ele>2045.0</ele>
        <time>2016-06-11T14:17:15Z</time>
      </trkpt>
      <trkpt lat="40.484550" lon="-4.904150">
        <ele>2044.0</ele>
        <time>2016-06-11T14:17:16Z</time>
      </trkpt>
      <trkpt lat="40.484600" lon="-4.904100">
        <ele>2042.0</ele>
        <time>2016-06-11T14:17:17Z</time>
      </trkpt>
      <trkpt lat="40.484650" lon="-4.904067">
        <ele>2041.0</ele>
        <time>2016-06-11T14:17:18Z</time>
      </trkpt>
      <trkpt lat="40.484700" lon="-4.904017">
        <ele>2041.0</ele>
        <time>2016-06-11T14:17:19Z</time>
      </trkpt>
      <trkpt lat="40.484750" lon="-4.903983">
        <ele>2041.0</ele>
        <time>2016-06-11T14:17:20Z</time>
      </trkpt>
      <trkpt lat="40.484783" lon="-4.903950">
        <ele>2040.0</ele>
        <time>2016-06-11T14:17:21Z</time>
      </trkpt>
      <trkpt lat="40.484833" lon="-4.903950">
        <ele>2039.0</ele>
        <time>2016-06-11T14:17:22Z</time>
      </trkpt>
      <trkpt lat="40.484900" lon="-4.903967">
        <ele>2040.0</ele>
        <time>2016-06-11T14:17:23Z</time>
      </trkpt>
      <trkpt lat="40.484950" lon="-4.903950">
        <ele>2042.0</ele>
        <time>2016-06-11T14:17:24Z</time>
      </trkpt>
      <trkpt lat="40.485000" lon="-4.903933">
        <ele>2044.0</ele>
        <time>2016-06-11T14:17:25Z</time>
      </trkpt>
      <trkpt lat="40.485033" lon="-4.903900">
        <ele>2047.0</ele>
        <time>2016-06-11T14:17:26Z</time>
      </trkpt>
      <trkpt lat="40.485067" lon="-4.903867">
        <ele>2049.0</ele>
        <time>2016-06-11T14:17:27Z</time>
      </trkpt>
      <trkpt lat="40.485100" lon="-4.903850">
        <ele>2051.0</ele>
        <time>2016-06-11T14:17:28Z</time>
      </trkpt>
      <trkpt lat="40.485133" lon="-4.903833">
        <ele>2050.0</ele>
        <time>2016-06-11T14:17:29Z</time>
      </trkpt>
      <trkpt lat="40.485167" lon="-4.903817">
        <ele>2047.0</ele>
        <time>2016-06-11T14:17:30Z</time>
      </trkpt>
      <trkpt lat="40.485217" lon="-4.903800">
        <ele>2044.0</ele>
        <time>2016-06-11T14:17:31Z</time>
      </trkpt>
      <trkpt lat="40.485267" lon="-4.903783">
        <ele>2042.0</ele>
        <time>2016-06-11T14:17:32Z</time>
      </trkpt>
      <trkpt lat="40.485317" lon="-4.903767">
        <ele>2043.0</ele>
        <time>2016-06-11T14:17:33Z</time>
      </trkpt>
      <trkpt lat="40.485367" lon="-4.903733">
        <ele>2043.0</ele>
        <time>2016-06-11T14:17:34Z</time>
      </trkpt>
      <trkpt lat="40.485417" lon="-4.903683">
        <ele>2044.0</ele>
        <time>2016-06-11T14:17:35Z</time>
      </trkpt>
      <trkpt lat="40.485450" lon="-4.903633">
        <ele>2044.0</ele>
        <time>2016-06-11T14:17:36Z</time>
      </trkpt>
      <trkpt lat="40.485500" lon="-4.903567">
        <ele>2043.0</ele>
        <time>2016-06-11T14:17:37Z</time>
      </trkpt>
      <trkpt lat="40.485533" lon="-4.903500">
        <ele>2043.0</ele>
        <time>2016-06-11T14:17:38Z</time>
      </trkpt>
      <trkpt lat="40.485583" lon="-4.903433">
        <ele>2042.0</ele>
        <time>2016-06-11T14:17:39Z</time>
      </trkpt>
      <trkpt lat="40.485617" lon="-4.903350">
        <ele>2041.0</ele>
        <time>2016-06-11T14:17:40Z</time>
      </trkpt>
      <trkpt lat="40.485650" lon="-4.903250">
        <ele>2040.0</ele>
        <time>2016-06-11T14:17:41Z</time>
      </trkpt>
      <trkpt lat="40.485667" lon="-4.903150">
        <ele>2039.0</ele>
        <time>2016-06-11T14:17:42Z</time>
      </trkpt>
      <trkpt lat="40.485683" lon="-4.903033">
        <ele>2038.0</ele>
        <time>2016-06-11T14:17:43Z</time>
      </trkpt>
      <trkpt lat="40.485717" lon="-4.902933">
        <ele>2036.0</ele>
        <time>2016-06-11T14:17:44Z</time>
      </trkpt>
      <trkpt lat="40.485750" lon="-4.902817">
        <ele>2033.0</ele>
        <time>2016-06-11T14:17:45Z</time>
      </trkpt>
      <trkpt lat="40.485783" lon="-4.902700">
        <ele>2032.0</ele>
        <time>2016-06-11T14:17:46Z</time>
      </trkpt>
      <trkpt lat="40.485800" lon="-4.902567">
        <ele>2032.0</ele>
        <time>2016-06-11T14:17:47Z</time>
      </trkpt>
      <trkpt lat="40.485817" lon="-4.902467">
        <ele>2033.0</ele>
        <time>2016-06-11T14:17:48Z</time>
      </trkpt>
      <trkpt lat="40.485850" lon="-4.902383">
        <ele>2033.0</ele>
        <time>2016-06-11T14:17:49Z</time>
      </trkpt>
      <trkpt lat="40.485883" lon="-4.902300">
        <ele>2032.0</ele>
        <time>2016-06-11T14:17:50Z</time>
      </trkpt>
      <trkpt lat="40.485917" lon="-4.902200">
        <ele>2030.0</ele>
        <time>2016-06-11T14:17:51Z</time>
      </trkpt>
      <trkpt lat="40.485950" lon="-4.902083">
        <ele>2027.0</ele>
        <time>2016-06-11T14:17:52Z</time>
      </trkpt>
      <trkpt lat="40.485983" lon="-4.901950">
        <ele>2026.0</ele>
        <time>2016-06-11T14:17:53Z</time>
      </trkpt>
      <trkpt lat="40.486000" lon="-4.901817">
        <ele>2024.0</ele>
        <time>2016-06-11T14:17:54Z</time>
      </trkpt>
      <trkpt lat="40.486033" lon="-4.901667">
        <ele>2022.0</ele>
        <time>2016-06-11T14:17:55Z</time>
      </trkpt>
      <trkpt lat="40.486067" lon="-4.901533">
        <ele>2021.0</ele>
        <time>2016-06-11T14:17:56Z</time>
      </trkpt>
      <trkpt lat="40.486100" lon="-4.901400">
        <ele>2022.0</ele>
        <time>2016-06-11T14:17:57Z</time>
      </trkpt>
      <trkpt lat="40.486133" lon="-4.901267">
        <ele>2023.0</ele>
        <time>2016-06-11T14:17:58Z</time>
      </trkpt>
      <trkpt lat="40.486150" lon="-4.901150">
        <ele>2023.0</ele>
        <time>2016-06-11T14:17:59Z</time>
      </trkpt>
      <trkpt lat="40.486167" lon="-4.901017">
        <ele>2022.0</ele>
        <time>2016-06-11T14:18:00Z</time>
      </trkpt>
      <trkpt lat="40.486183" lon="-4.900883">
        <ele>2020.0</ele>
        <time>2016-06-11T14:18:01Z</time>
      </trkpt>
      <trkpt lat="40.486200" lon="-4.900717">
        <ele>2018.0</ele>
        <time>2016-06-11T14:18:02Z</time>
      </trkpt>
      <trkpt lat="40.486233" lon="-4.900550">
        <ele>2017.0</ele>
        <time>2016-06-11T14:18:03Z</time>
      </trkpt>
      <trkpt lat="40.486267" lon="-4.900383">
        <ele>2018.0</ele>
        <time>2016-06-11T14:18:04Z</time>
      </trkpt>
      <trkpt lat="40.486300" lon="-4.900233">
        <ele>2019.0</ele>
        <time>2016-06-11T14:18:05Z</time>
      </trkpt>
      <trkpt lat="40.486317" lon="-4.900083">
        <ele>2022.0</ele>
        <time>2016-06-11T14:18:06Z</time>
      </trkpt>
      <trkpt lat="40.486317" lon="-4.899933">
        <ele>2026.0</ele>
        <time>2016-06-11T14:18:07Z</time>
      </trkpt>
      <trkpt lat="40.486317" lon="-4.899817">
        <ele>2029.0</ele>
        <time>2016-06-11T14:18:08Z</time>
      </trkpt>
      <trkpt lat="40.486300" lon="-4.899700">
        <ele>2030.0</ele>
        <time>2016-06-11T14:18:09Z</time>
      </trkpt>
      <trkpt lat="40.486283" lon="-4.899583">
        <ele>2030.0</ele>
        <time>2016-06-11T14:18:10Z</time>
      </trkpt>
      <trkpt lat="40.486283" lon="-4.899450">
        <ele>2027.0</ele>
        <time>2016-06-11T14:18:11Z</time>
      </trkpt>
      <trkpt lat="40.486283" lon="-4.899317">
        <ele>2025.0</ele>
        <time>2016-06-11T14:18:12Z</time>
      </trkpt>
      <trkpt lat="40.486300" lon="-4.899167">
        <ele>2024.0</ele>
        <time>2016-06-11T14:18:13Z</time>
      </trkpt>
      <trkpt lat="40.486317" lon="-4.899033">
        <ele>2026.0</ele>
        <time>2016-06-11T14:18:14Z</time>
      </trkpt>
      <trkpt lat="40.486350" lon="-4.898950">
        <ele>2030.0</ele>
        <time>2016-06-11T14:18:15Z</time>
      </trkpt>
      <trkpt lat="40.486383" lon="-4.898900">
        <ele>2032.0</ele>
        <time>2016-06-11T14:18:16Z</time>
      </trkpt>
      <trkpt lat="40.486417" lon="-4.898867">
        <ele>2034.0</ele>
        <time>2016-06-11T14:18:17Z</time>
      </trkpt>
      <trkpt lat="40.486450" lon="-4.898800">
        <ele>2035.0</ele>
        <time>2016-06-11T14:18:18Z</time>
      </trkpt>
      <trkpt lat="40.486483" lon="-4.898733">
        <ele>2037.0</ele>
        <time>2016-06-11T14:18:19Z</time>
      </trkpt>
      <trkpt lat="40.486533" lon="-4.898683">
        <ele>2039.0</ele>
        <time>2016-06-11T14:18:20Z</time>
      </trkpt>
      <trkpt lat="40.486567" lon="-4.898633">
        <ele>2042.0</ele>
        <time>2016-06-11T14:18:21Z</time>
      </trkpt>
      <trkpt lat="40.486600" lon="-4.898617">
        <ele>2044.0</ele>
        <time>2016-06-11T14:18:22Z</time>
      </trkpt>
      <trkpt lat="40.486633" lon="-4.898583">
        <ele>2045.0</ele>
        <time>2016-06-11T14:18:23Z</time>
      </trkpt>
      <trkpt lat="40.486667" lon="-4.898567">
        <ele>2046.0</ele>
        <time>2016-06-11T14:18:24Z</time>
      </trkpt>
      <trkpt lat="40.486700" lon="-4.898567">
        <ele>2047.0</ele>
        <time>2016-06-11T14:18:25Z</time>
      </trkpt>
      <trkpt lat="40.486733" lon="-4.898567">
        <ele>2047.0</ele>
        <time>2016-06-11T14:18:26Z</time>
      </trkpt>
      <trkpt lat="40.486750" lon="-4.898583">
        <ele>2048.0</ele>
        <time>2016-06-11T14:18:27Z</time>
      </trkpt>
      <trkpt lat="40.486767" lon="-4.898600">
        <ele>2048.0</ele>
        <time>2016-06-11T14:18:28Z</time>
      </trkpt>
      <trkpt lat="40.486767" lon="-4.898617">
        <ele>2049.0</ele>
        <time>2016-06-11T14:18:29Z</time>
      </trkpt>
      <trkpt lat="40.486750" lon="-4.898633">
        <ele>2048.0</ele>
        <time>2016-06-11T14:18:30Z</time>
      </trkpt>
      <trkpt lat="40.486700" lon="-4.898667">
        <ele>2047.0</ele>
        <time>2016-06-11T14:18:31Z</time>
      </trkpt>
      <trkpt lat="40.486633" lon="-4.898700">
        <ele>2046.0</ele>
        <time>2016-06-11T14:18:32Z</time>
      </trkpt>
      <trkpt lat="40.486567" lon="-4.898750">
        <ele>2046.0</ele>
        <time>2016-06-11T14:18:33Z</time>
      </trkpt>
      <trkpt lat="40.486483" lon="-4.898767">
        <ele>2046.0</ele>
        <time>2016-06-11T14:18:34Z</time>
      </trkpt>
      <trkpt lat="40.486417" lon="-4.898800">
        <ele>2046.0</ele>
        <time>2016-06-11T14:18:35Z</time>
      </trkpt>
      <trkpt lat="40.486350" lon="-4.898833">
        <ele>2045.0</ele>
        <time>2016-06-11T14:18:36Z</time>
      </trkpt>
      <trkpt lat="40.486283" lon="-4.898883">
        <ele>2045.0</ele>
        <time>2016-06-11T14:18:37Z</time>
      </trkpt>
      <trkpt lat="40.486233" lon="-4.898917">
        <ele>2045.0</ele>
        <time>2016-06-11T14:18:38Z</time>
      </trkpt>
      <trkpt lat="40.486200" lon="-4.898967">
        <ele>2046.0</ele>
        <time>2016-06-11T14:18:39Z</time>
      </trkpt>
      <trkpt lat="40.486200" lon="-4.899000">
        <ele>2046.0</ele>
        <time>2016-06-11T14:18:40Z</time>
      </trkpt>
      <trkpt lat="40.486250" lon="-4.899000">
        <ele>2045.0</ele>
        <time>2016-06-11T14:18:41Z</time>
      </trkpt>
      <trkpt lat="40.486300" lon="-4.898933">
        <ele>2044.0</ele>
        <time>2016-06-11T14:18:42Z</time>
      </trkpt>
      <trkpt lat="40.486333" lon="-4.898800">
        <ele>2045.0</ele>
        <time>2016-06-11T14:18:43Z</time>
      </trkpt>
      <trkpt lat="40.486333" lon="-4.898633">
        <ele>2045.0</ele>
        <time>2016-06-11T14:18:44Z</time>
      </trkpt>
      <trkpt lat="40.486300" lon="-4.898467">
        <ele>2045.0</ele>
        <time>2016-06-11T14:18:45Z</time>
      </trkpt>
      <trkpt lat="40.486283" lon="-4.898317">
        <ele>2046.0</ele>
        <time>2016-06-11T14:18:46Z</time>
      </trkpt>
      <trkpt lat="40.486267" lon="-4.898167">
        <ele>2045.0</ele>
        <time>2016-06-11T14:18:47Z</time>
      </trkpt>
      <trkpt lat="40.486250" lon="-4.898017">
        <ele>2044.0</ele>
        <time>2016-06-11T14:18:48Z</time>
      </trkpt>
      <trkpt lat="40.486250" lon="-4.897850">
        <ele>2042.0</ele>
        <time>2016-06-11T14:18:49Z</time>
      </trkpt>
      <trkpt lat="40.486267" lon="-4.897683">
        <ele>2042.0</ele>
        <time>2016-06-11T14:18:50Z</time>
      </trkpt>
      <trkpt lat="40.486283" lon="-4.897533">
        <ele>2043.0</ele>
        <time>2016-06-11T14:18:51Z</time>
      </trkpt>
      <trkpt lat="40.486300" lon="-4.897400">
        <ele>2043.0</ele>
        <time>2016-06-11T14:18:52Z</time>
      </trkpt>
      <trkpt lat="40.486333" lon="-4.897283">
        <ele>2044.0</ele>
        <time>2016-06-11T14:18:53Z</time>
      </trkpt>
      <trkpt lat="40.486350" lon="-4.897167">
        <ele>2043.0</ele>
        <time>2016-06-11T14:18:54Z</time>
      </trkpt>
      <trkpt lat="40.486400" lon="-4.897067">
        <ele>2042.0</ele>
        <time>2016-06-11T14:18:55Z</time>
      </trkpt>
      <trkpt lat="40.486450" lon="-4.896950">
        <ele>2041.0</ele>
        <time>2016-06-11T14:18:56Z</time>
      </trkpt>
      <trkpt lat="40.486500" lon="-4.896850">
        <ele>2042.0</ele>
        <time>2016-06-11T14:18:57Z</time>
      </trkpt>
      <trkpt lat="40.486550" lon="-4.896767">
        <ele>2043.0</ele>
        <time>2016-06-11T14:18:58Z</time>
      </trkpt>
      <trkpt lat="40.486600" lon="-4.896683">
        <ele>2044.0</ele>
        <time>2016-06-11T14:18:59Z</time>
      </trkpt>
      <trkpt lat="40.486650" lon="-4.896600">
        <ele>2043.0</ele>
        <time>2016-06-11T14:19:00Z</time>
      </trkpt>
      <trkpt lat="40.486700" lon="-4.896517">
        <ele>2042.0</ele>
        <time>2016-06-11T14:19:01Z</time>
      </trkpt>
      <trkpt lat="40.486750" lon="-4.896433">
        <ele>2041.0</ele>
        <time>2016-06-11T14:19:02Z</time>
      </trkpt>
      <trkpt lat="40.486800" lon="-4.896333">
        <ele>2041.0</ele>
        <time>2016-06-11T14:19:03Z</time>
      </trkpt>
      <trkpt lat="40.486850" lon="-4.896217">
        <ele>2041.0</ele>
        <time>2016-06-11T14:19:04Z</time>
      </trkpt>
      <trkpt lat="40.486900" lon="-4.896117">
        <ele>2041.0</ele>
        <time>2016-06-11T14:19:05Z</time>
      </trkpt>
      <trkpt lat="40.486933" lon="-4.896017">
        <ele>2041.0</ele>
        <time>2016-06-11T14:19:06Z</time>
      </trkpt>
      <trkpt lat="40.486967" lon="-4.895917">
        <ele>2041.0</ele>
        <time>2016-06-11T14:19:07Z</time>
      </trkpt>
      <trkpt lat="40.487017" lon="-4.895800">
        <ele>2040.0</ele>
        <time>2016-06-11T14:19:08Z</time>
      </trkpt>
      <trkpt lat="40.487067" lon="-4.895683">
        <ele>2039.0</ele>
        <time>2016-06-11T14:19:09Z</time>
      </trkpt>
      <trkpt lat="40.487100" lon="-4.895583">
        <ele>2039.0</ele>
        <time>2016-06-11T14:19:10Z</time>
      </trkpt>
      <trkpt lat="40.487150" lon="-4.895467">
        <ele>2038.0</ele>
        <time>2016-06-11T14:19:11Z</time>
      </trkpt>
      <trkpt lat="40.487183" lon="-4.895350">
        <ele>2038.0</ele>
        <time>2016-06-11T14:19:12Z</time>
      </trkpt>
      <trkpt lat="40.487217" lon="-4.895233">
        <ele>2037.0</ele>
        <time>2016-06-11T14:19:13Z</time>
      </trkpt>
      <trkpt lat="40.487250" lon="-4.895117">
        <ele>2037.0</ele>
        <time>2016-06-11T14:19:14Z</time>
      </trkpt>
      <trkpt lat="40.487283" lon="-4.895000">
        <ele>2035.0</ele>
        <time>2016-06-11T14:19:15Z</time>
      </trkpt>
      <trkpt lat="40.487317" lon="-4.894883">
        <ele>2034.0</ele>
        <time>2016-06-11T14:19:16Z</time>
      </trkpt>
      <trkpt lat="40.487367" lon="-4.894767">
        <ele>2032.0</ele>
        <time>2016-06-11T14:19:17Z</time>
      </trkpt>
      <trkpt lat="40.487417" lon="-4.894633">
        <ele>2031.0</ele>
        <time>2016-06-11T14:19:18Z</time>
      </trkpt>
      <trkpt lat="40.487467" lon="-4.894500">
        <ele>2031.0</ele>
        <time>2016-06-11T14:19:19Z</time>
      </trkpt>
      <trkpt lat="40.487500" lon="-4.894383">
        <ele>2031.0</ele>
        <time>2016-06-11T14:19:20Z</time>
      </trkpt>
      <trkpt lat="40.487550" lon="-4.894267">
        <ele>2031.0</ele>
        <time>2016-06-11T14:19:21Z</time>
      </trkpt>
      <trkpt lat="40.487583" lon="-4.894150">
        <ele>2032.0</ele>
        <time>2016-06-11T14:19:22Z</time>
      </trkpt>
      <trkpt lat="40.487633" lon="-4.894033">
        <ele>2032.0</ele>
        <time>2016-06-11T14:19:23Z</time>
      </trkpt>
      <trkpt lat="40.487683" lon="-4.893950">
        <ele>2033.0</ele>
        <time>2016-06-11T14:19:24Z</time>
      </trkpt>
      <trkpt lat="40.487717" lon="-4.893850">
        <ele>2034.0</ele>
        <time>2016-06-11T14:19:25Z</time>
      </trkpt>
      <trkpt lat="40.487767" lon="-4.893767">
        <ele>2034.0</ele>
        <time>2016-06-11T14:19:26Z</time>
      </trkpt>
      <trkpt lat="40.487800" lon="-4.893667">
        <ele>2034.0</ele>
        <time>2016-06-11T14:19:27Z</time>
      </trkpt>
      <trkpt lat="40.487850" lon="-4.893583">
        <ele>2034.0</ele>
        <time>2016-06-11T14:19:28Z</time>
      </trkpt>
      <trkpt lat="40.487883" lon="-4.893500">
        <ele>2034.0</ele>
        <time>2016-06-11T14:19:29Z</time>
      </trkpt>
      <trkpt lat="40.487917" lon="-4.893417">
        <ele>2035.0</ele>
        <time>2016-06-11T14:19:30Z</time>
      </trkpt>
      <trkpt lat="40.487950" lon="-4.893333">
        <ele>2035.0</ele>
        <time>2016-06-11T14:19:31Z</time>
      </trkpt>
      <trkpt lat="40.487967" lon="-4.893233">
        <ele>2036.0</ele>
        <time>2016-06-11T14:19:32Z</time>
      </trkpt>
      <trkpt lat="40.488000" lon="-4.893150">
        <ele>2035.0</ele>
        <time>2016-06-11T14:19:33Z</time>
      </trkpt>
      <trkpt lat="40.488033" lon="-4.893050">
        <ele>2035.0</ele>
        <time>2016-06-11T14:19:34Z</time>
      </trkpt>
      <trkpt lat="40.488067" lon="-4.892967">
        <ele>2034.0</ele>
        <time>2016-06-11T14:19:35Z</time>
      </trkpt>
      <trkpt lat="40.488100" lon="-4.892883">
        <ele>2034.0</ele>
        <time>2016-06-11T14:19:36Z</time>
      </trkpt>
      <trkpt lat="40.488133" lon="-4.892800">
        <ele>2033.0</ele>
        <time>2016-06-11T14:19:37Z</time>
      </trkpt>
      <trkpt lat="40.488167" lon="-4.892717">
        <ele>2033.0</ele>
        <time>2016-06-11T14:19:38Z</time>
      </trkpt>
      <trkpt lat="40.488200" lon="-4.892633">
        <ele>2033.0</ele>
        <time>2016-06-11T14:19:39Z</time>
      </trkpt>
      <trkpt lat="40.488233" lon="-4.892550">
        <ele>2032.0</ele>
        <time>2016-06-11T14:19:40Z</time>
      </trkpt>
      <trkpt lat="40.488267" lon="-4.892467">
        <ele>2031.0</ele>
        <time>2016-06-11T14:19:41Z</time>
      </trkpt>
      <trkpt lat="40.488317" lon="-4.892383">
        <ele>2029.0</ele>
        <time>2016-06-11T14:19:42Z</time>
      </trkpt>
      <trkpt lat="40.488367" lon="-4.892300">
        <ele>2028.0</ele>
        <time>2016-06-11T14:19:43Z</time>
      </trkpt>
      <trkpt lat="40.488433" lon="-4.892217">
        <ele>2026.0</ele>
        <time>2016-06-11T14:19:44Z</time>
      </trkpt>
      <trkpt lat="40.488483" lon="-4.892150">
        <ele>2026.0</ele>
        <time>2016-06-11T14:19:45Z</time>
      </trkpt>
      <trkpt lat="40.488517" lon="-4.892083">
        <ele>2026.0</ele>
        <time>2016-06-11T14:19:46Z</time>
      </trkpt>
      <trkpt lat="40.488550" lon="-4.892033">
        <ele>2026.0</ele>
        <time>2016-06-11T14:19:47Z</time>
      </trkpt>
      <trkpt lat="40.488583" lon="-4.891983">
        <ele>2024.0</ele>
        <time>2016-06-11T14:19:48Z</time>
      </trkpt>
      <trkpt lat="40.488617" lon="-4.891950">
        <ele>2023.0</ele>
        <time>2016-06-11T14:19:49Z</time>
      </trkpt>
      <trkpt lat="40.488667" lon="-4.891917">
        <ele>2021.0</ele>
        <time>2016-06-11T14:19:50Z</time>
      </trkpt>
      <trkpt lat="40.488700" lon="-4.891850">
        <ele>2020.0</ele>
        <time>2016-06-11T14:19:51Z</time>
      </trkpt>
      <trkpt lat="40.488750" lon="-4.891750">
        <ele>2018.0</ele>
        <time>2016-06-11T14:19:52Z</time>
      </trkpt>
      <trkpt lat="40.488767" lon="-4.891617">
        <ele>2017.0</ele>
        <time>2016-06-11T14:19:53Z</time>
      </trkpt>
      <trkpt lat="40.488783" lon="-4.891467">
        <ele>2016.0</ele>
        <time>2016-06-11T14:19:54Z</time>
      </trkpt>
      <trkpt lat="40.488783" lon="-4.891317">
        <ele>2016.0</ele>
        <time>2016-06-11T14:19:55Z</time>
      </trkpt>
      <trkpt lat="40.488783" lon="-4.891167">
        <ele>2016.0</ele>
        <time>2016-06-11T14:19:56Z</time>
      </trkpt>
      <trkpt lat="40.488783" lon="-4.891033">
        <ele>2015.0</ele>
        <time>2016-06-11T14:19:57Z</time>
      </trkpt>
      <trkpt lat="40.488783" lon="-4.890883">
        <ele>2013.0</ele>
        <time>2016-06-11T14:19:58Z</time>
      </trkpt>
      <trkpt lat="40.488783" lon="-4.890717">
        <ele>2010.0</ele>
        <time>2016-06-11T14:19:59Z</time>
      </trkpt>
      <trkpt lat="40.488783" lon="-4.890550">
        <ele>2009.0</ele>
        <time>2016-06-11T14:20:00Z</time>
      </trkpt>
      <trkpt lat="40.488783" lon="-4.890383">
        <ele>2008.0</ele>
        <time>2016-06-11T14:20:01Z</time>
      </trkpt>
      <trkpt lat="40.488767" lon="-4.890233">
        <ele>2007.0</ele>
        <time>2016-06-11T14:20:02Z</time>
      </trkpt>
      <trkpt lat="40.488767" lon="-4.890083">
        <ele>2007.0</ele>
        <time>2016-06-11T14:20:03Z</time>
      </trkpt>
      <trkpt lat="40.488750" lon="-4.889933">
        <ele>2005.0</ele>
        <time>2016-06-11T14:20:04Z</time>
      </trkpt>
      <trkpt lat="40.488733" lon="-4.889783">
        <ele>2003.0</ele>
        <time>2016-06-11T14:20:05Z</time>
      </trkpt>
      <trkpt lat="40.488733" lon="-4.889633">
        <ele>2000.0</ele>
        <time>2016-06-11T14:20:06Z</time>
      </trkpt>
      <trkpt lat="40.488750" lon="-4.889483">
        <ele>1998.0</ele>
        <time>2016-06-11T14:20:07Z</time>
      </trkpt>
      <trkpt lat="40.488750" lon="-4.889333">
        <ele>1996.0</ele>
        <time>2016-06-11T14:20:08Z</time>
      </trkpt>
      <trkpt lat="40.488783" lon="-4.889200">
        <ele>1995.0</ele>
        <time>2016-06-11T14:20:09Z</time>
      </trkpt>
      <trkpt lat="40.488800" lon="-4.889083">
        <ele>1994.0</ele>
        <time>2016-06-11T14:20:10Z</time>
      </trkpt>
      <trkpt lat="40.488817" lon="-4.888950">
        <ele>1993.0</ele>
        <time>2016-06-11T14:20:11Z</time>
      </trkpt>
      <trkpt lat="40.488833" lon="-4.888833">
        <ele>1992.0</ele>
        <time>2016-06-11T14:20:12Z</time>
      </trkpt>
      <trkpt lat="40.488850" lon="-4.888733">
        <ele>1991.0</ele>
        <time>2016-06-11T14:20:13Z</time>
      </trkpt>
      <trkpt lat="40.488867" lon="-4.888617">
        <ele>1990.0</ele>
        <time>2016-06-11T14:20:14Z</time>
      </trkpt>
      <trkpt lat="40.488900" lon="-4.888500">
        <ele>1989.0</ele>
        <time>2016-06-11T14:20:15Z</time>
      </trkpt>
      <trkpt lat="40.488917" lon="-4.888383">
        <ele>1988.0</ele>
        <time>2016-06-11T14:20:16Z</time>
      </trkpt>
      <trkpt lat="40.488933" lon="-4.888250">
        <ele>1987.0</ele>
        <time>2016-06-11T14:20:17Z</time>
      </trkpt>
      <trkpt lat="40.488933" lon="-4.888117">
        <ele>1987.0</ele>
        <time>2016-06-11T14:20:18Z</time>
      </trkpt>
      <trkpt lat="40.488950" lon="-4.887983">
        <ele>1987.0</ele>
        <time>2016-06-11T14:20:19Z</time>
      </trkpt>
      <trkpt lat="40.488967" lon="-4.887883">
        <ele>1987.0</ele>
        <time>2016-06-11T14:20:20Z</time>
      </trkpt>
      <trkpt lat="40.488983" lon="-4.887800">
        <ele>1986.0</ele>
        <time>2016-06-11T14:20:21Z</time>
      </trkpt>
      <trkpt lat="40.489017" lon="-4.887717">
        <ele>1985.0</ele>
        <time>2016-06-11T14:20:22Z</time>
      </trkpt>
      <trkpt lat="40.489050" lon="-4.887650">
        <ele>1983.0</ele>
        <time>2016-06-11T14:20:23Z</time>
      </trkpt>
      <trkpt lat="40.489100" lon="-4.887567">
        <ele>1982.0</ele>
        <time>2016-06-11T14:20:24Z</time>
      </trkpt>
      <trkpt lat="40.489150" lon="-4.887500">
        <ele>1982.0</ele>
        <time>2016-06-11T14:20:25Z</time>
      </trkpt>
      <trkpt lat="40.489183" lon="-4.887417">
        <ele>1984.0</ele>
        <time>2016-06-11T14:20:26Z</time>
      </trkpt>
      <trkpt lat="40.489217" lon="-4.887333">
        <ele>1985.0</ele>
        <time>2016-06-11T14:20:27Z</time>
      </trkpt>
      <trkpt lat="40.489250" lon="-4.887250">
        <ele>1985.0</ele>
        <time>2016-06-11T14:20:28Z</time>
      </trkpt>
      <trkpt lat="40.489267" lon="-4.887167">
        <ele>1985.0</ele>
        <time>2016-06-11T14:20:29Z</time>
      </trkpt>
      <trkpt lat="40.489300" lon="-4.887083">
        <ele>1985.0</ele>
        <time>2016-06-11T14:20:30Z</time>
      </trkpt>
      <trkpt lat="40.489333" lon="-4.887000">
        <ele>1985.0</ele>
        <time>2016-06-11T14:20:31Z</time>
      </trkpt>
      <trkpt lat="40.489383" lon="-4.886917">
        <ele>1986.0</ele>
        <time>2016-06-11T14:20:32Z</time>
      </trkpt>
      <trkpt lat="40.489417" lon="-4.886850">
        <ele>1988.0</ele>
        <time>2016-06-11T14:20:33Z</time>
      </trkpt>
      <trkpt lat="40.489450" lon="-4.886783">
        <ele>1988.0</ele>
        <time>2016-06-11T14:20:34Z</time>
      </trkpt>
      <trkpt lat="40.489483" lon="-4.886700">
        <ele>1988.0</ele>
        <time>2016-06-11T14:20:35Z</time>
      </trkpt>
      <trkpt lat="40.489533" lon="-4.886600">
        <ele>1989.0</ele>
        <time>2016-06-11T14:20:36Z</time>
      </trkpt>
      <trkpt lat="40.489567" lon="-4.886500">
        <ele>1990.0</ele>
        <time>2016-06-11T14:20:37Z</time>
      </trkpt>
      <trkpt lat="40.489617" lon="-4.886400">
        <ele>1991.0</ele>
        <time>2016-06-11T14:20:38Z</time>
      </trkpt>
      <trkpt lat="40.489667" lon="-4.886333">
        <ele>1992.0</ele>
        <time>2016-06-11T14:20:39Z</time>
      </trkpt>
      <trkpt lat="40.489700" lon="-4.886250">
        <ele>1992.0</ele>
        <time>2016-06-11T14:20:40Z</time>
      </trkpt>
      <trkpt lat="40.489750" lon="-4.886150">
        <ele>1993.0</ele>
        <time>2016-06-11T14:20:41Z</time>
      </trkpt>
      <trkpt lat="40.489800" lon="-4.886050">
        <ele>1993.0</ele>
        <time>2016-06-11T14:20:42Z</time>
      </trkpt>
      <trkpt lat="40.489833" lon="-4.885950">
        <ele>1995.0</ele>
        <time>2016-06-11T14:20:43Z</time>
      </trkpt>
      <trkpt lat="40.489867" lon="-4.885900">
        <ele>1995.0</ele>
        <time>2016-06-11T14:20:44Z</time>
      </trkpt>
      <trkpt lat="40.489917" lon="-4.885883">
        <ele>1995.0</ele>
        <time>2016-06-11T14:20:45Z</time>
      </trkpt>
      <trkpt lat="40.489967" lon="-4.885867">
        <ele>1995.0</ele>
        <time>2016-06-11T14:20:46Z</time>
      </trkpt>
      <trkpt lat="40.490017" lon="-4.885850">
        <ele>1995.0</ele>
        <time>2016-06-11T14:20:47Z</time>
      </trkpt>
      <trkpt lat="40.490067" lon="-4.885800">
        <ele>1995.0</ele>
        <time>2016-06-11T14:20:48Z</time>
      </trkpt>
      <trkpt lat="40.490117" lon="-4.885733">
        <ele>1996.0</ele>
        <time>2016-06-11T14:20:49Z</time>
      </trkpt>
      <trkpt lat="40.490183" lon="-4.885683">
        <ele>1996.0</ele>
        <time>2016-06-11T14:20:50Z</time>
      </trkpt>
      <trkpt lat="40.490233" lon="-4.885633">
        <ele>1998.0</ele>
        <time>2016-06-11T14:20:51Z</time>
      </trkpt>
      <trkpt lat="40.490267" lon="-4.885583">
        <ele>1999.0</ele>
        <time>2016-06-11T14:20:52Z</time>
      </trkpt>
      <trkpt lat="40.490317" lon="-4.885533">
        <ele>2000.0</ele>
        <time>2016-06-11T14:20:53Z</time>
      </trkpt>
      <trkpt lat="40.490367" lon="-4.885467">
        <ele>2001.0</ele>
        <time>2016-06-11T14:20:54Z</time>
      </trkpt>
      <trkpt lat="40.490417" lon="-4.885400">
        <ele>2001.0</ele>
        <time>2016-06-11T14:20:55Z</time>
      </trkpt>
      <trkpt lat="40.490450" lon="-4.885333">
        <ele>2002.0</ele>
        <time>2016-06-11T14:20:56Z</time>
      </trkpt>
      <trkpt lat="40.490483" lon="-4.885250">
        <ele>2003.0</ele>
        <time>2016-06-11T14:20:57Z</time>
      </trkpt>
      <trkpt lat="40.490517" lon="-4.885150">
        <ele>2005.0</ele>
        <time>2016-06-11T14:20:58Z</time>
      </trkpt>
      <trkpt lat="40.490533" lon="-4.885067">
        <ele>2007.0</ele>
        <time>2016-06-11T14:20:59Z</time>
      </trkpt>
      <trkpt lat="40.490533" lon="-4.884967">
        <ele>2007.0</ele>
        <time>2016-06-11T14:21:00Z</time>
      </trkpt>
      <trkpt lat="40.490567" lon="-4.884867">
        <ele>2007.0</ele>
        <time>2016-06-11T14:21:01Z</time>
      </trkpt>
      <trkpt lat="40.490583" lon="-4.884767">
        <ele>2007.0</ele>
        <time>2016-06-11T14:21:02Z</time>
      </trkpt>
      <trkpt lat="40.490617" lon="-4.884683">
        <ele>2007.0</ele>
        <time>2016-06-11T14:21:03Z</time>
      </trkpt>
      <trkpt lat="40.490650" lon="-4.884600">
        <ele>2008.0</ele>
        <time>2016-06-11T14:21:04Z</time>
      </trkpt>
      <trkpt lat="40.490700" lon="-4.884517">
        <ele>2009.0</ele>
        <time>2016-06-11T14:21:05Z</time>
      </trkpt>
      <trkpt lat="40.490733" lon="-4.884450">
        <ele>2011.0</ele>
        <time>2016-06-11T14:21:06Z</time>
      </trkpt>
      <trkpt lat="40.490767" lon="-4.884383">
        <ele>2011.0</ele>
        <time>2016-06-11T14:21:07Z</time>
      </trkpt>
      <trkpt lat="40.490800" lon="-4.884317">
        <ele>2011.0</ele>
        <time>2016-06-11T14:21:08Z</time>
      </trkpt>
      <trkpt lat="40.490850" lon="-4.884267">
        <ele>2011.0</ele>
        <time>2016-06-11T14:21:09Z</time>
      </trkpt>
      <trkpt lat="40.490900" lon="-4.884217">
        <ele>2011.0</ele>
        <time>2016-06-11T14:21:10Z</time>
      </trkpt>
      <trkpt lat="40.490933" lon="-4.884183">
        <ele>2012.0</ele>
        <time>2016-06-11T14:21:11Z</time>
      </trkpt>
      <trkpt lat="40.490983" lon="-4.884133">
        <ele>2014.0</ele>
        <time>2016-06-11T14:21:12Z</time>
      </trkpt>
      <trkpt lat="40.491017" lon="-4.884067">
        <ele>2016.0</ele>
        <time>2016-06-11T14:21:13Z</time>
      </trkpt>
      <trkpt lat="40.491050" lon="-4.884000">
        <ele>2017.0</ele>
        <time>2016-06-11T14:21:14Z</time>
      </trkpt>
      <trkpt lat="40.491067" lon="-4.883933">
        <ele>2018.0</ele>
        <time>2016-06-11T14:21:15Z</time>
      </trkpt>
      <trkpt lat="40.491100" lon="-4.883867">
        <ele>2018.0</ele>
        <time>2016-06-11T14:21:16Z</time>
      </trkpt>
      <trkpt lat="40.491133" lon="-4.883817">
        <ele>2018.0</ele>
        <time>2016-06-11T14:21:17Z</time>
      </trkpt>
      <trkpt lat="40.491167" lon="-4.883733">
        <ele>2018.0</ele>
        <time>2016-06-11T14:21:18Z</time>
      </trkpt>
      <trkpt lat="40.491200" lon="-4.883650">
        <ele>2020.0</ele>
        <time>2016-06-11T14:21:19Z</time>
      </trkpt>
      <trkpt lat="40.491217" lon="-4.883567">
        <ele>2023.0</ele>
        <time>2016-06-11T14:21:20Z</time>
      </trkpt>
      <trkpt lat="40.491217" lon="-4.883483">
        <ele>2025.0</ele>
        <time>2016-06-11T14:21:21Z</time>
      </trkpt>
      <trkpt lat="40.491233" lon="-4.883417">
        <ele>2026.0</ele>
        <time>2016-06-11T14:21:22Z</time>
      </trkpt>
      <trkpt lat="40.491250" lon="-4.883333">
        <ele>2027.0</ele>
        <time>2016-06-11T14:21:23Z</time>
      </trkpt>
      <trkpt lat="40.491283" lon="-4.883250">
        <ele>2026.0</ele>
        <time>2016-06-11T14:21:24Z</time>
      </trkpt>
      <trkpt lat="40.491300" lon="-4.883167">
        <ele>2026.0</ele>
        <time>2016-06-11T14:21:25Z</time>
      </trkpt>
      <trkpt lat="40.491333" lon="-4.883100">
        <ele>2026.0</ele>
        <time>2016-06-11T14:21:26Z</time>
      </trkpt>
      <trkpt lat="40.491350" lon="-4.883050">
        <ele>2025.0</ele>
        <time>2016-06-11T14:21:27Z</time>
      </trkpt>
      <trkpt lat="40.491400" lon="-4.883000">
        <ele>2024.0</ele>
        <time>2016-06-11T14:21:28Z</time>
      </trkpt>
      <trkpt lat="40.491433" lon="-4.882967">
        <ele>2022.0</ele>
        <time>2016-06-11T14:21:29Z</time>
      </trkpt>
      <trkpt lat="40.491483" lon="-4.882917">
        <ele>2021.0</ele>
        <time>2016-06-11T14:21:30Z</time>
      </trkpt>
      <trkpt lat="40.491533" lon="-4.882833">
        <ele>2020.0</ele>
        <time>2016-06-11T14:21:31Z</time>
      </trkpt>
      <trkpt lat="40.491567" lon="-4.882733">
        <ele>2020.0</ele>
        <time>2016-06-11T14:21:32Z</time>
      </trkpt>
      <trkpt lat="40.491600" lon="-4.882633">
        <ele>2019.0</ele>
        <time>2016-06-11T14:21:33Z</time>
      </trkpt>
      <trkpt lat="40.491617" lon="-4.882517">
        <ele>2018.0</ele>
        <time>2016-06-11T14:21:34Z</time>
      </trkpt>
      <trkpt lat="40.491650" lon="-4.882400">
        <ele>2018.0</ele>
        <time>2016-06-11T14:21:35Z</time>
      </trkpt>
      <trkpt lat="40.491683" lon="-4.882267">
        <ele>2017.0</ele>
        <time>2016-06-11T14:21:36Z</time>
      </trkpt>
      <trkpt lat="40.491717" lon="-4.882133">
        <ele>2016.0</ele>
        <time>2016-06-11T14:21:37Z</time>
      </trkpt>
      <trkpt lat="40.491750" lon="-4.881983">
        <ele>2016.0</ele>
        <time>2016-06-11T14:21:38Z</time>
      </trkpt>
      <trkpt lat="40.491767" lon="-4.881817">
        <ele>2016.0</ele>
        <time>2016-06-11T14:21:39Z</time>
      </trkpt>
      <trkpt lat="40.491783" lon="-4.881667">
        <ele>2016.0</ele>
        <time>2016-06-11T14:21:40Z</time>
      </trkpt>
      <trkpt lat="40.491783" lon="-4.881500">
        <ele>2016.0</ele>
        <time>2016-06-11T14:21:41Z</time>
      </trkpt>
      <trkpt lat="40.491800" lon="-4.881350">
        <ele>2015.0</ele>
        <time>2016-06-11T14:21:42Z</time>
      </trkpt>
      <trkpt lat="40.491817" lon="-4.881183">
        <ele>2013.0</ele>
        <time>2016-06-11T14:21:43Z</time>
      </trkpt>
      <trkpt lat="40.491833" lon="-4.881017">
        <ele>2012.0</ele>
        <time>2016-06-11T14:21:44Z</time>
      </trkpt>
      <trkpt lat="40.491850" lon="-4.880833">
        <ele>2011.0</ele>
        <time>2016-06-11T14:21:45Z</time>
      </trkpt>
      <trkpt lat="40.491850" lon="-4.880667">
        <ele>2011.0</ele>
        <time>2016-06-11T14:21:46Z</time>
      </trkpt>
      <trkpt lat="40.491850" lon="-4.880500">
        <ele>2010.0</ele>
        <time>2016-06-11T14:21:47Z</time>
      </trkpt>
      <trkpt lat="40.491850" lon="-4.880350">
        <ele>2010.0</ele>
        <time>2016-06-11T14:21:48Z</time>
      </trkpt>
      <trkpt lat="40.491850" lon="-4.880183">
        <ele>2009.0</ele>
        <time>2016-06-11T14:21:49Z</time>
      </trkpt>
      <trkpt lat="40.491867" lon="-4.880033">
        <ele>2008.0</ele>
        <time>2016-06-11T14:21:50Z</time>
      </trkpt>
      <trkpt lat="40.491900" lon="-4.879883">
        <ele>2008.0</ele>
        <time>2016-06-11T14:21:51Z</time>
      </trkpt>
      <trkpt lat="40.491933" lon="-4.879733">
        <ele>2009.0</ele>
        <time>2016-06-11T14:21:52Z</time>
      </trkpt>
      <trkpt lat="40.491967" lon="-4.879617">
        <ele>2011.0</ele>
        <time>2016-06-11T14:21:53Z</time>
      </trkpt>
      <trkpt lat="40.492000" lon="-4.879500">
        <ele>2011.0</ele>
        <time>2016-06-11T14:21:54Z</time>
      </trkpt>
      <trkpt lat="40.492033" lon="-4.879400">
        <ele>2012.0</ele>
        <time>2016-06-11T14:21:55Z</time>
      </trkpt>
      <trkpt lat="40.492083" lon="-4.879300">
        <ele>2012.0</ele>
        <time>2016-06-11T14:21:56Z</time>
      </trkpt>
      <trkpt lat="40.492117" lon="-4.879183">
        <ele>2012.0</ele>
        <time>2016-06-11T14:21:57Z</time>
      </trkpt>
      <trkpt lat="40.492150" lon="-4.879050">
        <ele>2014.0</ele>
        <time>2016-06-11T14:21:58Z</time>
      </trkpt>
      <trkpt lat="40.492183" lon="-4.878933">
        <ele>2016.0</ele>
        <time>2016-06-11T14:21:59Z</time>
      </trkpt>
      <trkpt lat="40.492200" lon="-4.878833">
        <ele>2018.0</ele>
        <time>2016-06-11T14:22:00Z</time>
      </trkpt>
      <trkpt lat="40.492217" lon="-4.878717">
        <ele>2018.0</ele>
        <time>2016-06-11T14:22:01Z</time>
      </trkpt>
      <trkpt lat="40.492250" lon="-4.878633">
        <ele>2018.0</ele>
        <time>2016-06-11T14:22:02Z</time>
      </trkpt>
      <trkpt lat="40.492300" lon="-4.878567">
        <ele>2020.0</ele>
        <time>2016-06-11T14:22:03Z</time>
      </trkpt>
      <trkpt lat="40.492333" lon="-4.878517">
        <ele>2021.0</ele>
        <time>2016-06-11T14:22:04Z</time>
      </trkpt>
      <trkpt lat="40.492367" lon="-4.878500">
        <ele>2024.0</ele>
        <time>2016-06-11T14:22:05Z</time>
      </trkpt>
      <trkpt lat="40.492400" lon="-4.878450">
        <ele>2025.0</ele>
        <time>2016-06-11T14:22:06Z</time>
      </trkpt>
      <trkpt lat="40.492450" lon="-4.878383">
        <ele>2027.0</ele>
        <time>2016-06-11T14:22:07Z</time>
      </trkpt>
      <trkpt lat="40.492483" lon="-4.878300">
        <ele>2028.0</ele>
        <time>2016-06-11T14:22:08Z</time>
      </trkpt>
      <trkpt lat="40.492517" lon="-4.878217">
        <ele>2029.0</ele>
        <time>2016-06-11T14:22:09Z</time>
      </trkpt>
      <trkpt lat="40.492533" lon="-4.878167">
        <ele>2030.0</ele>
        <time>2016-06-11T14:22:10Z</time>
      </trkpt>
      <trkpt lat="40.492567" lon="-4.878117">
        <ele>2030.0</ele>
        <time>2016-06-11T14:22:11Z</time>
      </trkpt>
      <trkpt lat="40.492600" lon="-4.878100">
        <ele>2030.0</ele>
        <time>2016-06-11T14:22:12Z</time>
      </trkpt>
      <trkpt lat="40.492617" lon="-4.878100">
        <ele>2030.0</ele>
        <time>2016-06-11T14:22:13Z</time>
      </trkpt>
      <trkpt lat="40.492633" lon="-4.878100">
        <ele>2031.0</ele>
        <time>2016-06-11T14:22:14Z</time>
      </trkpt>
      <trkpt lat="40.492650" lon="-4.878117">
        <ele>2031.0</ele>
        <time>2016-06-11T14:22:15Z</time>
      </trkpt>
      <trkpt lat="40.492650" lon="-4.878150">
        <ele>2031.0</ele>
        <time>2016-06-11T14:22:16Z</time>
      </trkpt>
      <trkpt lat="40.492650" lon="-4.878183">
        <ele>2032.0</ele>
        <time>2016-06-11T14:22:17Z</time>
      </trkpt>
      <trkpt lat="40.492650" lon="-4.878217">
        <ele>2033.0</ele>
        <time>2016-06-11T14:22:18Z</time>
      </trkpt>
      <trkpt lat="40.492683" lon="-4.878233">
        <ele>2033.0</ele>
        <time>2016-06-11T14:22:19Z</time>
      </trkpt>
      <trkpt lat="40.492717" lon="-4.878233">
        <ele>2033.0</ele>
        <time>2016-06-11T14:22:20Z</time>
      </trkpt>
      <trkpt lat="40.492750" lon="-4.878217">
        <ele>2035.0</ele>
        <time>2016-06-11T14:22:21Z</time>
      </trkpt>
      <trkpt lat="40.492750" lon="-4.878233">
        <ele>2038.0</ele>
        <time>2016-06-11T14:22:22Z</time>
      </trkpt>
      <trkpt lat="40.492733" lon="-4.878233">
        <ele>2039.0</ele>
        <time>2016-06-11T14:22:23Z</time>
      </trkpt>
      <trkpt lat="40.492700" lon="-4.878250">
        <ele>2039.0</ele>
        <time>2016-06-11T14:22:24Z</time>
      </trkpt>
      <trkpt lat="40.492667" lon="-4.878267">
        <ele>2039.0</ele>
        <time>2016-06-11T14:22:25Z</time>
      </trkpt>
      <trkpt lat="40.492667" lon="-4.878283">
        <ele>2039.0</ele>
        <time>2016-06-11T14:22:26Z</time>
      </trkpt>
      <trkpt lat="40.492667" lon="-4.878300">
        <ele>2039.0</ele>
        <time>2016-06-11T14:22:27Z</time>
      </trkpt>
      <trkpt lat="40.492667" lon="-4.878333">
        <ele>2038.0</ele>
        <time>2016-06-11T14:22:28Z</time>
      </trkpt>
      <trkpt lat="40.492633" lon="-4.878367">
        <ele>2039.0</ele>
        <time>2016-06-11T14:22:29Z</time>
      </trkpt>
      <trkpt lat="40.492567" lon="-4.878400">
        <ele>2039.0</ele>
        <time>2016-06-11T14:22:30Z</time>
      </trkpt>
      <trkpt lat="40.492500" lon="-4.878417">
        <ele>2039.0</ele>
        <time>2016-06-11T14:22:31Z</time>
      </trkpt>
      <trkpt lat="40.492433" lon="-4.878450">
        <ele>2039.0</ele>
        <time>2016-06-11T14:22:32Z</time>
      </trkpt>
      <trkpt lat="40.492367" lon="-4.878467">
        <ele>2038.0</ele>
        <time>2016-06-11T14:22:33Z</time>
      </trkpt>
      <trkpt lat="40.492300" lon="-4.878500">
        <ele>2036.0</ele>
        <time>2016-06-11T14:22:34Z</time>
      </trkpt>
      <trkpt lat="40.492200" lon="-4.878550">
        <ele>2035.0</ele>
        <time>2016-06-11T14:22:35Z</time>
      </trkpt>
      <trkpt lat="40.492100" lon="-4.878583">
        <ele>2034.0</ele>
        <time>2016-06-11T14:22:36Z</time>
      </trkpt>
      <trkpt lat="40.492017" lon="-4.878600">
        <ele>2035.0</ele>
        <time>2016-06-11T14:22:37Z</time>
      </trkpt>
      <trkpt lat="40.491933" lon="-4.878633">
        <ele>2036.0</ele>
        <time>2016-06-11T14:22:38Z</time>
      </trkpt>
      <trkpt lat="40.491883" lon="-4.878650">
        <ele>2036.0</ele>
        <time>2016-06-11T14:22:39Z</time>
      </trkpt>
      <trkpt lat="40.491850" lon="-4.878683">
        <ele>2034.0</ele>
        <time>2016-06-11T14:22:40Z</time>
      </trkpt>
      <trkpt lat="40.491833" lon="-4.878700">
        <ele>2033.0</ele>
        <time>2016-06-11T14:22:41Z</time>
      </trkpt>
      <trkpt lat="40.491850" lon="-4.878717">
        <ele>2032.0</ele>
        <time>2016-06-11T14:22:42Z</time>
      </trkpt>
      <trkpt lat="40.491883" lon="-4.878683">
        <ele>2031.0</ele>
        <time>2016-06-11T14:22:43Z</time>
      </trkpt>
      <trkpt lat="40.491917" lon="-4.878600">
        <ele>2030.0</ele>
        <time>2016-06-11T14:22:44Z</time>
      </trkpt>
      <trkpt lat="40.491933" lon="-4.878467">
        <ele>2030.0</ele>
        <time>2016-06-11T14:22:45Z</time>
      </trkpt>
      <trkpt lat="40.491933" lon="-4.878350">
        <ele>2029.0</ele>
        <time>2016-06-11T14:22:46Z</time>
      </trkpt>
      <trkpt lat="40.491950" lon="-4.878250">
        <ele>2029.0</ele>
        <time>2016-06-11T14:22:47Z</time>
      </trkpt>
      <trkpt lat="40.491983" lon="-4.878167">
        <ele>2029.0</ele>
        <time>2016-06-11T14:22:48Z</time>
      </trkpt>
      <trkpt lat="40.492033" lon="-4.878083">
        <ele>2027.0</ele>
        <time>2016-06-11T14:22:49Z</time>
      </trkpt>
      <trkpt lat="40.492100" lon="-4.877967">
        <ele>2026.0</ele>
        <time>2016-06-11T14:22:50Z</time>
      </trkpt>
      <trkpt lat="40.492133" lon="-4.877867">
        <ele>2028.0</ele>
        <time>2016-06-11T14:22:51Z</time>
      </trkpt>
      <trkpt lat="40.492133" lon="-4.877800">
        <ele>2034.0</ele>
        <time>2016-06-11T14:22:52Z</time>
      </trkpt>
      <trkpt lat="40.492100" lon="-4.877750">
        <ele>2037.0</ele>
        <time>2016-06-11T14:22:53Z</time>
      </trkpt>
      <trkpt lat="40.492083" lon="-4.877700">
        <ele>2037.0</ele>
        <time>2016-06-11T14:22:54Z</time>
      </trkpt>
      <trkpt lat="40.492117" lon="-4.877633">
        <ele>2035.0</ele>
        <time>2016-06-11T14:22:55Z</time>
      </trkpt>
      <trkpt lat="40.492150" lon="-4.877517">
        <ele>2033.0</ele>
        <time>2016-06-11T14:22:56Z</time>
      </trkpt>
      <trkpt lat="40.492200" lon="-4.877417">
        <ele>2032.0</ele>
        <time>2016-06-11T14:22:57Z</time>
      </trkpt>
      <trkpt lat="40.492217" lon="-4.877317">
        <ele>2034.0</ele>
        <time>2016-06-11T14:22:58Z</time>
      </trkpt>
      <trkpt lat="40.492250" lon="-4.877233">
        <ele>2037.0</ele>
        <time>2016-06-11T14:22:59Z</time>
      </trkpt>
      <trkpt lat="40.492267" lon="-4.877150">
        <ele>2039.0</ele>
        <time>2016-06-11T14:23:00Z</time>
      </trkpt>
      <trkpt lat="40.492300" lon="-4.877067">
        <ele>2041.0</ele>
        <time>2016-06-11T14:23:01Z</time>
      </trkpt>
      <trkpt lat="40.492350" lon="-4.877000">
        <ele>2042.0</ele>
        <time>2016-06-11T14:23:02Z</time>
      </trkpt>
      <trkpt lat="40.492383" lon="-4.876917">
        <ele>2045.0</ele>
        <time>2016-06-11T14:23:03Z</time>
      </trkpt>
      <trkpt lat="40.492417" lon="-4.876850">
        <ele>2047.0</ele>
        <time>2016-06-11T14:23:04Z</time>
      </trkpt>
      <trkpt lat="40.492467" lon="-4.876800">
        <ele>2050.0</ele>
        <time>2016-06-11T14:23:05Z</time>
      </trkpt>
      <trkpt lat="40.492500" lon="-4.876750">
        <ele>2052.0</ele>
        <time>2016-06-11T14:23:06Z</time>
      </trkpt>
      <trkpt lat="40.492533" lon="-4.876700">
        <ele>2056.0</ele>
        <time>2016-06-11T14:23:07Z</time>
      </trkpt>
      <trkpt lat="40.492550" lon="-4.876633">
        <ele>2060.0</ele>
        <time>2016-06-11T14:23:08Z</time>
      </trkpt>
      <trkpt lat="40.492567" lon="-4.876567">
        <ele>2064.0</ele>
        <time>2016-06-11T14:23:09Z</time>
      </trkpt>
      <trkpt lat="40.492567" lon="-4.876517">
        <ele>2066.0</ele>
        <time>2016-06-11T14:23:10Z</time>
      </trkpt>
      <trkpt lat="40.492583" lon="-4.876467">
        <ele>2067.0</ele>
        <time>2016-06-11T14:23:11Z</time>
      </trkpt>
      <trkpt lat="40.492617" lon="-4.876417">
        <ele>2067.0</ele>
        <time>2016-06-11T14:23:12Z</time>
      </trkpt>
      <trkpt lat="40.492667" lon="-4.876383">
        <ele>2067.0</ele>
        <time>2016-06-11T14:23:13Z</time>
      </trkpt>
      <trkpt lat="40.492717" lon="-4.876333">
        <ele>2069.0</ele>
        <time>2016-06-11T14:23:14Z</time>
      </trkpt>
      <trkpt lat="40.492750" lon="-4.876317">
        <ele>2072.0</ele>
        <time>2016-06-11T14:23:15Z</time>
      </trkpt>
      <trkpt lat="40.492767" lon="-4.876300">
        <ele>2075.0</ele>
        <time>2016-06-11T14:23:16Z</time>
      </trkpt>
      <trkpt lat="40.492783" lon="-4.876283">
        <ele>2078.0</ele>
        <time>2016-06-11T14:23:17Z</time>
      </trkpt>
      <trkpt lat="40.492800" lon="-4.876250">
        <ele>2080.0</ele>
        <time>2016-06-11T14:23:18Z</time>
      </trkpt>
      <trkpt lat="40.492833" lon="-4.876217">
        <ele>2082.0</ele>
        <time>2016-06-11T14:23:19Z</time>
      </trkpt>
      <trkpt lat="40.492867" lon="-4.876167">
        <ele>2084.0</ele>
        <time>2016-06-11T14:23:20Z</time>
      </trkpt>
      <trkpt lat="40.492900" lon="-4.876150">
        <ele>2086.0</ele>
        <time>2016-06-11T14:23:21Z</time>
      </trkpt>
      <trkpt lat="40.492950" lon="-4.876133">
        <ele>2088.0</ele>
        <time>2016-06-11T14:23:22Z</time>
      </trkpt>
      <trkpt lat="40.492983" lon="-4.876100">
        <ele>2089.0</ele>
        <time>2016-06-11T14:23:23Z</time>
      </trkpt>
      <trkpt lat="40.493017" lon="-4.876067">
        <ele>2092.0</ele>
        <time>2016-06-11T14:23:24Z</time>
      </trkpt>
      <trkpt lat="40.493050" lon="-4.876017">
        <ele>2094.0</ele>
        <time>2016-06-11T14:23:25Z</time>
      </trkpt>
      <trkpt lat="40.493067" lon="-4.875967">
        <ele>2096.0</ele>
        <time>2016-06-11T14:23:26Z</time>
      </trkpt>
      <trkpt lat="40.493100" lon="-4.875917">
        <ele>2097.0</ele>
        <time>2016-06-11T14:23:27Z</time>
      </trkpt>
      <trkpt lat="40.493117" lon="-4.875883">
        <ele>2099.0</ele>
        <time>2016-06-11T14:23:28Z</time>
      </trkpt>
      <trkpt lat="40.493133" lon="-4.875850">
        <ele>2099.0</ele>
        <time>2016-06-11T14:23:29Z</time>
      </trkpt>
      <trkpt lat="40.493167" lon="-4.875800">
        <ele>2101.0</ele>
        <time>2016-06-11T14:23:30Z</time>
      </trkpt>
      <trkpt lat="40.493183" lon="-4.875767">
        <ele>2102.0</ele>
        <time>2016-06-11T14:23:31Z</time>
      </trkpt>
      <trkpt lat="40.493200" lon="-4.875750">
        <ele>2104.0</ele>
        <time>2016-06-11T14:23:32Z</time>
      </trkpt>
      <trkpt lat="40.493217" lon="-4.875733">
        <ele>2105.0</ele>
        <time>2016-06-11T14:23:33Z</time>
      </trkpt>
      <trkpt lat="40.493233" lon="-4.875750">
        <ele>2106.0</ele>
        <time>2016-06-11T14:23:34Z</time>
      </trkpt>
      <trkpt lat="40.493250" lon="-4.875750">
        <ele>2106.0</ele>
        <time>2016-06-11T14:23:35Z</time>
      </trkpt>
      <trkpt lat="40.493283" lon="-4.875717">
        <ele>2106.0</ele>
        <time>2016-06-11T14:23:36Z</time>
      </trkpt>
      <trkpt lat="40.493300" lon="-4.875667">
        <ele>2106.0</ele>
        <time>2016-06-11T14:23:37Z</time>
      </trkpt>
      <trkpt lat="40.493317" lon="-4.875583">
        <ele>2107.0</ele>
        <time>2016-06-11T14:23:38Z</time>
      </trkpt>
      <trkpt lat="40.493333" lon="-4.875517">
        <ele>2108.0</ele>
        <time>2016-06-11T14:23:39Z</time>
      </trkpt>
      <trkpt lat="40.493367" lon="-4.875450">
        <ele>2109.0</ele>
        <time>2016-06-11T14:23:40Z</time>
      </trkpt>
      <trkpt lat="40.493383" lon="-4.875400">
        <ele>2108.0</ele>
        <time>2016-06-11T14:23:41Z</time>
      </trkpt>
      <trkpt lat="40.493417" lon="-4.875350">
        <ele>2108.0</ele>
        <time>2016-06-11T14:23:42Z</time>
      </trkpt>
      <trkpt lat="40.493433" lon="-4.875300">
        <ele>2108.0</ele>
        <time>2016-06-11T14:23:43Z</time>
      </trkpt>
      <trkpt lat="40.493467" lon="-4.875233">
        <ele>2107.0</ele>
        <time>2016-06-11T14:23:44Z</time>
      </trkpt>
      <trkpt lat="40.493483" lon="-4.875183">
        <ele>2107.0</ele>
        <time>2016-06-11T14:23:45Z</time>
      </trkpt>
      <trkpt lat="40.493517" lon="-4.875167">
        <ele>2107.0</ele>
        <time>2016-06-11T14:23:46Z</time>
      </trkpt>
      <trkpt lat="40.493550" lon="-4.875183">
        <ele>2107.0</ele>
        <time>2016-06-11T14:23:47Z</time>
      </trkpt>
      <trkpt lat="40.493567" lon="-4.875200">
        <ele>2107.0</ele>
        <time>2016-06-11T14:23:48Z</time>
      </trkpt>
      <trkpt lat="40.493600" lon="-4.875183">
        <ele>2108.0</ele>
        <time>2016-06-11T14:23:49Z</time>
      </trkpt>
      <trkpt lat="40.493617" lon="-4.875167">
        <ele>2110.0</ele>
        <time>2016-06-11T14:23:50Z</time>
      </trkpt>
      <trkpt lat="40.493633" lon="-4.875150">
        <ele>2112.0</ele>
        <time>2016-06-11T14:23:51Z</time>
      </trkpt>
      <trkpt lat="40.493650" lon="-4.875133">
        <ele>2112.0</ele>
        <time>2016-06-11T14:23:52Z</time>
      </trkpt>
      <trkpt lat="40.493683" lon="-4.875117">
        <ele>2112.0</ele>
        <time>2016-06-11T14:23:53Z</time>
      </trkpt>
      <trkpt lat="40.493717" lon="-4.875117">
        <ele>2111.0</ele>
        <time>2016-06-11T14:23:54Z</time>
      </trkpt>
      <trkpt lat="40.493733" lon="-4.875133">
        <ele>2111.0</ele>
        <time>2016-06-11T14:23:55Z</time>
      </trkpt>
      <trkpt lat="40.493767" lon="-4.875133">
        <ele>2111.0</ele>
        <time>2016-06-11T14:23:56Z</time>
      </trkpt>
      <trkpt lat="40.493767" lon="-4.875150">
        <ele>2111.0</ele>
        <time>2016-06-11T14:23:57Z</time>
      </trkpt>
      <trkpt lat="40.493767" lon="-4.875183">
        <ele>2110.0</ele>
        <time>2016-06-11T14:23:58Z</time>
      </trkpt>
      <trkpt lat="40.493767" lon="-4.875233">
        <ele>2109.0</ele>
        <time>2016-06-11T14:23:59Z</time>
      </trkpt>
      <trkpt lat="40.493750" lon="-4.875283">
        <ele>2108.0</ele>
        <time>2016-06-11T14:24:00Z</time>
      </trkpt>
      <trkpt lat="40.493700" lon="-4.875333">
        <ele>2107.0</ele>
        <time>2016-06-11T14:24:01Z</time>
      </trkpt>
      <trkpt lat="40.493633" lon="-4.875383">
        <ele>2106.0</ele>
        <time>2016-06-11T14:24:02Z</time>
      </trkpt>
      <trkpt lat="40.493567" lon="-4.875433">
        <ele>2104.0</ele>
        <time>2016-06-11T14:24:03Z</time>
      </trkpt>
      <trkpt lat="40.493500" lon="-4.875483">
        <ele>2103.0</ele>
        <time>2016-06-11T14:24:04Z</time>
      </trkpt>
      <trkpt lat="40.493417" lon="-4.875517">
        <ele>2103.0</ele>
        <time>2016-06-11T14:24:05Z</time>
      </trkpt>
      <trkpt lat="40.493333" lon="-4.875533">
        <ele>2104.0</ele>
        <time>2016-06-11T14:24:06Z</time>
      </trkpt>
      <trkpt lat="40.493267" lon="-4.875550">
        <ele>2103.0</ele>
        <time>2016-06-11T14:24:07Z</time>
      </trkpt>
      <trkpt lat="40.493183" lon="-4.875567">
        <ele>2102.0</ele>
        <time>2016-06-11T14:24:08Z</time>
      </trkpt>
      <trkpt lat="40.493100" lon="-4.875600">
        <ele>2100.0</ele>
        <time>2016-06-11T14:24:09Z</time>
      </trkpt>
      <trkpt lat="40.493000" lon="-4.875633">
        <ele>2097.0</ele>
        <time>2016-06-11T14:24:10Z</time>
      </trkpt>
      <trkpt lat="40.492900" lon="-4.875683">
        <ele>2095.0</ele>
        <time>2016-06-11T14:24:11Z</time>
      </trkpt>
      <trkpt lat="40.492800" lon="-4.875717">
        <ele>2095.0</ele>
        <time>2016-06-11T14:24:12Z</time>
      </trkpt>
      <trkpt lat="40.492700" lon="-4.875733">
        <ele>2095.0</ele>
        <time>2016-06-11T14:24:13Z</time>
      </trkpt>
      <trkpt lat="40.492600" lon="-4.875767">
        <ele>2094.0</ele>
        <time>2016-06-11T14:24:14Z</time>
      </trkpt>
      <trkpt lat="40.492517" lon="-4.875817">
        <ele>2094.0</ele>
        <time>2016-06-11T14:24:15Z</time>
      </trkpt>
      <trkpt lat="40.492467" lon="-4.875867">
        <ele>2093.0</ele>
        <time>2016-06-11T14:24:16Z</time>
      </trkpt>
      <trkpt lat="40.492417" lon="-4.875917">
        <ele>2092.0</ele>
        <time>2016-06-11T14:24:17Z</time>
      </trkpt>
      <trkpt lat="40.492417" lon="-4.875933">
        <ele>2091.0</ele>
        <time>2016-06-11T14:24:18Z</time>
      </trkpt>
      <trkpt lat="40.492433" lon="-4.875933">
        <ele>2090.0</ele>
        <time>2016-06-11T14:24:19Z</time>
      </trkpt>
      <trkpt lat="40.492450" lon="-4.875883">
        <ele>2089.0</ele>
        <time>2016-06-11T14:24:20Z</time>
      </trkpt>
      <trkpt lat="40.492467" lon="-4.875783">
        <ele>2088.0</ele>
        <time>2016-06-11T14:24:21Z</time>
      </trkpt>
      <trkpt lat="40.492467" lon="-4.875667">
        <ele>2088.0</ele>
        <time>2016-06-11T14:24:22Z</time>
      </trkpt>
      <trkpt lat="40.492467" lon="-4.875550">
        <ele>2088.0</ele>
        <time>2016-06-11T14:24:23Z</time>
      </trkpt>
      <trkpt lat="40.492450" lon="-4.875433">
        <ele>2089.0</ele>
        <time>2016-06-11T14:24:24Z</time>
      </trkpt>
      <trkpt lat="40.492450" lon="-4.875333">
        <ele>2090.0</ele>
        <time>2016-06-11T14:24:25Z</time>
      </trkpt>
      <trkpt lat="40.492450" lon="-4.875200">
        <ele>2090.0</ele>
        <time>2016-06-11T14:24:26Z</time>
      </trkpt>
      <trkpt lat="40.492433" lon="-4.875067">
        <ele>2090.0</ele>
        <time>2016-06-11T14:24:27Z</time>
      </trkpt>
      <trkpt lat="40.492417" lon="-4.874917">
        <ele>2091.0</ele>
        <time>2016-06-11T14:24:28Z</time>
      </trkpt>
      <trkpt lat="40.492400" lon="-4.874783">
        <ele>2092.0</ele>
        <time>2016-06-11T14:24:29Z</time>
      </trkpt>
      <trkpt lat="40.492400" lon="-4.874650">
        <ele>2092.0</ele>
        <time>2016-06-11T14:24:30Z</time>
      </trkpt>
      <trkpt lat="40.492417" lon="-4.874533">
        <ele>2092.0</ele>
        <time>2016-06-11T14:24:31Z</time>
      </trkpt>
      <trkpt lat="40.492433" lon="-4.874417">
        <ele>2091.0</ele>
        <time>2016-06-11T14:24:32Z</time>
      </trkpt>
      <trkpt lat="40.492467" lon="-4.874300">
        <ele>2091.0</ele>
        <time>2016-06-11T14:24:33Z</time>
      </trkpt>
      <trkpt lat="40.492483" lon="-4.874217">
        <ele>2092.0</ele>
        <time>2016-06-11T14:24:34Z</time>
      </trkpt>
      <trkpt lat="40.492517" lon="-4.874133">
        <ele>2093.0</ele>
        <time>2016-06-11T14:24:35Z</time>
      </trkpt>
      <trkpt lat="40.492533" lon="-4.874067">
        <ele>2093.0</ele>
        <time>2016-06-11T14:24:36Z</time>
      </trkpt>
      <trkpt lat="40.492567" lon="-4.874000">
        <ele>2093.0</ele>
        <time>2016-06-11T14:24:37Z</time>
      </trkpt>
      <trkpt lat="40.492600" lon="-4.873950">
        <ele>2092.0</ele>
        <time>2016-06-11T14:24:38Z</time>
      </trkpt>
      <trkpt lat="40.492650" lon="-4.873900">
        <ele>2091.0</ele>
        <time>2016-06-11T14:24:39Z</time>
      </trkpt>
      <trkpt lat="40.492683" lon="-4.873867">
        <ele>2091.0</ele>
        <time>2016-06-11T14:24:40Z</time>
      </trkpt>
      <trkpt lat="40.492717" lon="-4.873850">
        <ele>2092.0</ele>
        <time>2016-06-11T14:24:41Z</time>
      </trkpt>
      <trkpt lat="40.492750" lon="-4.873833">
        <ele>2092.0</ele>
        <time>2016-06-11T14:24:42Z</time>
      </trkpt>
      <trkpt lat="40.492783" lon="-4.873833">
        <ele>2093.0</ele>
        <time>2016-06-11T14:24:43Z</time>
      </trkpt>
      <trkpt lat="40.492817" lon="-4.873817">
        <ele>2093.0</ele>
        <time>2016-06-11T14:24:44Z</time>
      </trkpt>
      <trkpt lat="40.492850" lon="-4.873783">
        <ele>2093.0</ele>
        <time>2016-06-11T14:24:45Z</time>
      </trkpt>
      <trkpt lat="40.492867" lon="-4.873767">
        <ele>2094.0</ele>
        <time>2016-06-11T14:24:46Z</time>
      </trkpt>
      <trkpt lat="40.492900" lon="-4.873733">
        <ele>2095.0</ele>
        <time>2016-06-11T14:24:47Z</time>
      </trkpt>
      <trkpt lat="40.492917" lon="-4.873717">
        <ele>2096.0</ele>
        <time>2016-06-11T14:24:48Z</time>
      </trkpt>
      <trkpt lat="40.492950" lon="-4.873683">
        <ele>2096.0</ele>
        <time>2016-06-11T14:24:49Z</time>
      </trkpt>
      <trkpt lat="40.492983" lon="-4.873633">
        <ele>2096.0</ele>
        <time>2016-06-11T14:24:50Z</time>
      </trkpt>
      <trkpt lat="40.493017" lon="-4.873583">
        <ele>2095.0</ele>
        <time>2016-06-11T14:24:51Z</time>
      </trkpt>
      <trkpt lat="40.493050" lon="-4.873517">
        <ele>2094.0</ele>
        <time>2016-06-11T14:24:52Z</time>
      </trkpt>
      <trkpt lat="40.493083" lon="-4.873450">
        <ele>2093.0</ele>
        <time>2016-06-11T14:24:53Z</time>
      </trkpt>
      <trkpt lat="40.493117" lon="-4.873367">
        <ele>2093.0</ele>
        <time>2016-06-11T14:24:54Z</time>
      </trkpt>
      <trkpt lat="40.493150" lon="-4.873283">
        <ele>2094.0</ele>
        <time>2016-06-11T14:24:55Z</time>
      </trkpt>
      <trkpt lat="40.493167" lon="-4.873200">
        <ele>2094.0</ele>
        <time>2016-06-11T14:24:56Z</time>
      </trkpt>
      <trkpt lat="40.493200" lon="-4.873117">
        <ele>2094.0</ele>
        <time>2016-06-11T14:24:57Z</time>
      </trkpt>
      <trkpt lat="40.493233" lon="-4.873017">
        <ele>2093.0</ele>
        <time>2016-06-11T14:24:58Z</time>
      </trkpt>
      <trkpt lat="40.493267" lon="-4.872917">
        <ele>2092.0</ele>
        <time>2016-06-11T14:24:59Z</time>
      </trkpt>
      <trkpt lat="40.493317" lon="-4.872817">
        <ele>2091.0</ele>
        <time>2016-06-11T14:25:00Z</time>
      </trkpt>
      <trkpt lat="40.493350" lon="-4.872733">
        <ele>2091.0</ele>
        <time>2016-06-11T14:25:01Z</time>
      </trkpt>
      <trkpt lat="40.493383" lon="-4.872667">
        <ele>2092.0</ele>
        <time>2016-06-11T14:25:02Z</time>
      </trkpt>
      <trkpt lat="40.493400" lon="-4.872583">
        <ele>2092.0</ele>
        <time>2016-06-11T14:25:03Z</time>
      </trkpt>
      <trkpt lat="40.493433" lon="-4.872483">
        <ele>2092.0</ele>
        <time>2016-06-11T14:25:04Z</time>
      </trkpt>
      <trkpt lat="40.493483" lon="-4.872400">
        <ele>2091.0</ele>
        <time>2016-06-11T14:25:05Z</time>
      </trkpt>
      <trkpt lat="40.493517" lon="-4.872317">
        <ele>2091.0</ele>
        <time>2016-06-11T14:25:06Z</time>
      </trkpt>
      <trkpt lat="40.493550" lon="-4.872217">
        <ele>2091.0</ele>
        <time>2016-06-11T14:25:07Z</time>
      </trkpt>
      <trkpt lat="40.493583" lon="-4.872133">
        <ele>2092.0</ele>
        <time>2016-06-11T14:25:08Z</time>
      </trkpt>
      <trkpt lat="40.493617" lon="-4.872050">
        <ele>2092.0</ele>
        <time>2016-06-11T14:25:09Z</time>
      </trkpt>
      <trkpt lat="40.493650" lon="-4.871967">
        <ele>2092.0</ele>
        <time>2016-06-11T14:25:10Z</time>
      </trkpt>
      <trkpt lat="40.493700" lon="-4.871867">
        <ele>2091.0</ele>
        <time>2016-06-11T14:25:11Z</time>
      </trkpt>
      <trkpt lat="40.493750" lon="-4.871783">
        <ele>2092.0</ele>
        <time>2016-06-11T14:25:12Z</time>
      </trkpt>
      <trkpt lat="40.493783" lon="-4.871717">
        <ele>2093.0</ele>
        <time>2016-06-11T14:25:13Z</time>
      </trkpt>
      <trkpt lat="40.493817" lon="-4.871633">
        <ele>2094.0</ele>
        <time>2016-06-11T14:25:14Z</time>
      </trkpt>
      <trkpt lat="40.493850" lon="-4.871550">
        <ele>2095.0</ele>
        <time>2016-06-11T14:25:15Z</time>
      </trkpt>
      <trkpt lat="40.493883" lon="-4.871450">
        <ele>2095.0</ele>
        <time>2016-06-11T14:25:16Z</time>
      </trkpt>
      <trkpt lat="40.493933" lon="-4.871333">
        <ele>2095.0</ele>
        <time>2016-06-11T14:25:17Z</time>
      </trkpt>
      <trkpt lat="40.493950" lon="-4.871217">
        <ele>2094.0</ele>
        <time>2016-06-11T14:25:18Z</time>
      </trkpt>
      <trkpt lat="40.493967" lon="-4.871067">
        <ele>2095.0</ele>
        <time>2016-06-11T14:25:19Z</time>
      </trkpt>
      <trkpt lat="40.493967" lon="-4.870933">
        <ele>2096.0</ele>
        <time>2016-06-11T14:25:20Z</time>
      </trkpt>
      <trkpt lat="40.493967" lon="-4.870783">
        <ele>2097.0</ele>
        <time>2016-06-11T14:25:21Z</time>
      </trkpt>
      <trkpt lat="40.493967" lon="-4.870633">
        <ele>2098.0</ele>
        <time>2016-06-11T14:25:22Z</time>
      </trkpt>
      <trkpt lat="40.493983" lon="-4.870483">
        <ele>2098.0</ele>
        <time>2016-06-11T14:25:23Z</time>
      </trkpt>
      <trkpt lat="40.493983" lon="-4.870333">
        <ele>2099.0</ele>
        <time>2016-06-11T14:25:24Z</time>
      </trkpt>
      <trkpt lat="40.494000" lon="-4.870167">
        <ele>2100.0</ele>
        <time>2016-06-11T14:25:25Z</time>
      </trkpt>
      <trkpt lat="40.494000" lon="-4.870017">
        <ele>2102.0</ele>
        <time>2016-06-11T14:25:26Z</time>
      </trkpt>
      <trkpt lat="40.494017" lon="-4.869883">
        <ele>2105.0</ele>
        <time>2016-06-11T14:25:27Z</time>
      </trkpt>
      <trkpt lat="40.494033" lon="-4.869750">
        <ele>2107.0</ele>
        <time>2016-06-11T14:25:28Z</time>
      </trkpt>
      <trkpt lat="40.494050" lon="-4.869617">
        <ele>2110.0</ele>
        <time>2016-06-11T14:25:29Z</time>
      </trkpt>
      <trkpt lat="40.494067" lon="-4.869500">
        <ele>2113.0</ele>
        <time>2016-06-11T14:25:30Z</time>
      </trkpt>
      <trkpt lat="40.494100" lon="-4.869383">
        <ele>2117.0</ele>
        <time>2016-06-11T14:25:31Z</time>
      </trkpt>
      <trkpt lat="40.494117" lon="-4.869300">
        <ele>2120.0</ele>
        <time>2016-06-11T14:25:32Z</time>
      </trkpt>
      <trkpt lat="40.494150" lon="-4.869217">
        <ele>2122.0</ele>
        <time>2016-06-11T14:25:33Z</time>
      </trkpt>
      <trkpt lat="40.494200" lon="-4.869133">
        <ele>2124.0</ele>
        <time>2016-06-11T14:25:34Z</time>
      </trkpt>
      <trkpt lat="40.494233" lon="-4.869067">
        <ele>2125.0</ele>
        <time>2016-06-11T14:25:35Z</time>
      </trkpt>
      <trkpt lat="40.494283" lon="-4.869033">
        <ele>2127.0</ele>
        <time>2016-06-11T14:25:36Z</time>
      </trkpt>
      <trkpt lat="40.494317" lon="-4.869050">
        <ele>2127.0</ele>
        <time>2016-06-11T14:25:37Z</time>
      </trkpt>
      <trkpt lat="40.494333" lon="-4.869100">
        <ele>2127.0</ele>
        <time>2016-06-11T14:25:38Z</time>
      </trkpt>
      <trkpt lat="40.494317" lon="-4.869167">
        <ele>2128.0</ele>
        <time>2016-06-11T14:25:39Z</time>
      </trkpt>
      <trkpt lat="40.494300" lon="-4.869217">
        <ele>2130.0</ele>
        <time>2016-06-11T14:25:40Z</time>
      </trkpt>
      <trkpt lat="40.494250" lon="-4.869267">
        <ele>2134.0</ele>
        <time>2016-06-11T14:25:41Z</time>
      </trkpt>
      <trkpt lat="40.494217" lon="-4.869317">
        <ele>2138.0</ele>
        <time>2016-06-11T14:25:42Z</time>
      </trkpt>
      <trkpt lat="40.494183" lon="-4.869350">
        <ele>2143.0</ele>
        <time>2016-06-11T14:25:43Z</time>
      </trkpt>
      <trkpt lat="40.494150" lon="-4.869383">
        <ele>2146.0</ele>
        <time>2016-06-11T14:25:44Z</time>
      </trkpt>
      <trkpt lat="40.494117" lon="-4.869433">
        <ele>2149.0</ele>
        <time>2016-06-11T14:25:45Z</time>
      </trkpt>
      <trkpt lat="40.494083" lon="-4.869500">
        <ele>2151.0</ele>
        <time>2016-06-11T14:25:46Z</time>
      </trkpt>
      <trkpt lat="40.494050" lon="-4.869550">
        <ele>2153.0</ele>
        <time>2016-06-11T14:25:47Z</time>
      </trkpt>
      <trkpt lat="40.494033" lon="-4.869617">
        <ele>2156.0</ele>
        <time>2016-06-11T14:25:48Z</time>
      </trkpt>
      <trkpt lat="40.494033" lon="-4.869650">
        <ele>2158.0</ele>
        <time>2016-06-11T14:25:49Z</time>
      </trkpt>
      <trkpt lat="40.494067" lon="-4.869667">
        <ele>2160.0</ele>
        <time>2016-06-11T14:25:50Z</time>
      </trkpt>
      <trkpt lat="40.494083" lon="-4.869650">
        <ele>2163.0</ele>
        <time>2016-06-11T14:25:51Z</time>
      </trkpt>
      <trkpt lat="40.494117" lon="-4.869617">
        <ele>2165.0</ele>
        <time>2016-06-11T14:25:52Z</time>
      </trkpt>
      <trkpt lat="40.494133" lon="-4.869567">
        <ele>2167.0</ele>
        <time>2016-06-11T14:25:53Z</time>
      </trkpt>
      <trkpt lat="40.494167" lon="-4.869500">
        <ele>2168.0</ele>
        <time>2016-06-11T14:25:54Z</time>
      </trkpt>
      <trkpt lat="40.494217" lon="-4.869433">
        <ele>2169.0</ele>
        <time>2016-06-11T14:25:55Z</time>
      </trkpt>
      <trkpt lat="40.494250" lon="-4.869350">
        <ele>2172.0</ele>
        <time>2016-06-11T14:25:56Z</time>
      </trkpt>
      <trkpt lat="40.494300" lon="-4.869283">
        <ele>2174.0</ele>
        <time>2016-06-11T14:25:57Z</time>
      </trkpt>
      <trkpt lat="40.494350" lon="-4.869233">
        <ele>2176.0</ele>
        <time>2016-06-11T14:25:58Z</time>
      </trkpt>
      <trkpt lat="40.494400" lon="-4.869183">
        <ele>2177.0</ele>
        <time>2016-06-11T14:25:59Z</time>
      </trkpt>
      <trkpt lat="40.494450" lon="-4.869100">
        <ele>2177.0</ele>
        <time>2016-06-11T14:26:00Z</time>
      </trkpt>
      <trkpt lat="40.494517" lon="-4.869000">
        <ele>2178.0</ele>
        <time>2016-06-11T14:26:01Z</time>
      </trkpt>
      <trkpt lat="40.494550" lon="-4.868867">
        <ele>2179.0</ele>
        <time>2016-06-11T14:26:02Z</time>
      </trkpt>
      <trkpt lat="40.494567" lon="-4.868733">
        <ele>2179.0</ele>
        <time>2016-06-11T14:26:03Z</time>
      </trkpt>
      <trkpt lat="40.494550" lon="-4.868583">
        <ele>2180.0</ele>
        <time>2016-06-11T14:26:04Z</time>
      </trkpt>
      <trkpt lat="40.494517" lon="-4.868450">
        <ele>2180.0</ele>
        <time>2016-06-11T14:26:05Z</time>
      </trkpt>
      <trkpt lat="40.494450" lon="-4.868300">
        <ele>2178.0</ele>
        <time>2016-06-11T14:26:06Z</time>
      </trkpt>
      <trkpt lat="40.494350" lon="-4.868167">
        <ele>2175.0</ele>
        <time>2016-06-11T14:26:07Z</time>
      </trkpt>
      <trkpt lat="40.494267" lon="-4.868017">
        <ele>2175.0</ele>
        <time>2016-06-11T14:26:08Z</time>
      </trkpt>
      <trkpt lat="40.494217" lon="-4.867867">
        <ele>2178.0</ele>
        <time>2016-06-11T14:26:09Z</time>
      </trkpt>
      <trkpt lat="40.494200" lon="-4.867717">
        <ele>2179.0</ele>
        <time>2016-06-11T14:26:10Z</time>
      </trkpt>
      <trkpt lat="40.494200" lon="-4.867567">
        <ele>2180.0</ele>
        <time>2016-06-11T14:26:11Z</time>
      </trkpt>
      <trkpt lat="40.494217" lon="-4.867433">
        <ele>2180.0</ele>
        <time>2016-06-11T14:26:12Z</time>
      </trkpt>
      <trkpt lat="40.494233" lon="-4.867300">
        <ele>2180.0</ele>
        <time>2016-06-11T14:26:13Z</time>
      </trkpt>
      <trkpt lat="40.494250" lon="-4.867167">
        <ele>2180.0</ele>
        <time>2016-06-11T14:26:14Z</time>
      </trkpt>
      <trkpt lat="40.494300" lon="-4.867067">
        <ele>2180.0</ele>
        <time>2016-06-11T14:26:15Z</time>
      </trkpt>
      <trkpt lat="40.494333" lon="-4.867000">
        <ele>2180.0</ele>
        <time>2016-06-11T14:26:16Z</time>
      </trkpt>
      <trkpt lat="40.494383" lon="-4.866967">
        <ele>2178.0</ele>
        <time>2016-06-11T14:26:17Z</time>
      </trkpt>
      <trkpt lat="40.494417" lon="-4.866967">
        <ele>2176.0</ele>
        <time>2016-06-11T14:26:18Z</time>
      </trkpt>
      <trkpt lat="40.494450" lon="-4.866967">
        <ele>2174.0</ele>
        <time>2016-06-11T14:26:19Z</time>
      </trkpt>
      <trkpt lat="40.494467" lon="-4.866983">
        <ele>2173.0</ele>
        <time>2016-06-11T14:26:20Z</time>
      </trkpt>
      <trkpt lat="40.494483" lon="-4.867017">
        <ele>2170.0</ele>
        <time>2016-06-11T14:26:21Z</time>
      </trkpt>
      <trkpt lat="40.494500" lon="-4.867050">
        <ele>2168.0</ele>
        <time>2016-06-11T14:26:22Z</time>
      </trkpt>
      <trkpt lat="40.494500" lon="-4.867117">
        <ele>2166.0</ele>
        <time>2016-06-11T14:26:23Z</time>
      </trkpt>
      <trkpt lat="40.494467" lon="-4.867167">
        <ele>2164.0</ele>
        <time>2016-06-11T14:26:24Z</time>
      </trkpt>
      <trkpt lat="40.494450" lon="-4.867233">
        <ele>2163.0</ele>
        <time>2016-06-11T14:26:25Z</time>
      </trkpt>
      <trkpt lat="40.494417" lon="-4.867283">
        <ele>2162.0</ele>
        <time>2016-06-11T14:26:26Z</time>
      </trkpt>
      <trkpt lat="40.494400" lon="-4.867317">
        <ele>2161.0</ele>
        <time>2016-06-11T14:26:27Z</time>
      </trkpt>
      <trkpt lat="40.494400" lon="-4.867333">
        <ele>2161.0</ele>
        <time>2016-06-11T14:26:28Z</time>
      </trkpt>
      <trkpt lat="40.494433" lon="-4.867333">
        <ele>2160.0</ele>
        <time>2016-06-11T14:26:29Z</time>
      </trkpt>
      <trkpt lat="40.494483" lon="-4.867283">
        <ele>2157.0</ele>
        <time>2016-06-11T14:26:30Z</time>
      </trkpt>
      <trkpt lat="40.494533" lon="-4.867200">
        <ele>2155.0</ele>
        <time>2016-06-11T14:26:31Z</time>
      </trkpt>
      <trkpt lat="40.494567" lon="-4.867050">
        <ele>2153.0</ele>
        <time>2016-06-11T14:26:32Z</time>
      </trkpt>
      <trkpt lat="40.494550" lon="-4.866883">
        <ele>2152.0</ele>
        <time>2016-06-11T14:26:33Z</time>
      </trkpt>
      <trkpt lat="40.494517" lon="-4.866717">
        <ele>2152.0</ele>
        <time>2016-06-11T14:26:34Z</time>
      </trkpt>
      <trkpt lat="40.494467" lon="-4.866567">
        <ele>2152.0</ele>
        <time>2016-06-11T14:26:35Z</time>
      </trkpt>
      <trkpt lat="40.494417" lon="-4.866433">
        <ele>2152.0</ele>
        <time>2016-06-11T14:26:36Z</time>
      </trkpt>
      <trkpt lat="40.494367" lon="-4.866267">
        <ele>2151.0</ele>
        <time>2016-06-11T14:26:37Z</time>
      </trkpt>
      <trkpt lat="40.494300" lon="-4.866117">
        <ele>2150.0</ele>
        <time>2016-06-11T14:26:38Z</time>
      </trkpt>
      <trkpt lat="40.494233" lon="-4.865950">
        <ele>2149.0</ele>
        <time>2016-06-11T14:26:39Z</time>
      </trkpt>
      <trkpt lat="40.494167" lon="-4.865783">
        <ele>2148.0</ele>
        <time>2016-06-11T14:26:40Z</time>
      </trkpt>
      <trkpt lat="40.494117" lon="-4.865633">
        <ele>2148.0</ele>
        <time>2016-06-11T14:26:41Z</time>
      </trkpt>
      <trkpt lat="40.494067" lon="-4.865467">
        <ele>2148.0</ele>
        <time>2016-06-11T14:26:42Z</time>
      </trkpt>
      <trkpt lat="40.494033" lon="-4.865300">
        <ele>2148.0</ele>
        <time>2016-06-11T14:26:43Z</time>
      </trkpt>
      <trkpt lat="40.494000" lon="-4.865133">
        <ele>2149.0</ele>
        <time>2016-06-11T14:26:44Z</time>
      </trkpt>
      <trkpt lat="40.494000" lon="-4.865000">
        <ele>2149.0</ele>
        <time>2016-06-11T14:26:45Z</time>
      </trkpt>
      <trkpt lat="40.494033" lon="-4.864867">
        <ele>2150.0</ele>
        <time>2016-06-11T14:26:46Z</time>
      </trkpt>
      <trkpt lat="40.494050" lon="-4.864750">
        <ele>2149.0</ele>
        <time>2016-06-11T14:26:47Z</time>
      </trkpt>
      <trkpt lat="40.494083" lon="-4.864633">
        <ele>2149.0</ele>
        <time>2016-06-11T14:26:48Z</time>
      </trkpt>
      <trkpt lat="40.494117" lon="-4.864517">
        <ele>2148.0</ele>
        <time>2016-06-11T14:26:49Z</time>
      </trkpt>
      <trkpt lat="40.494150" lon="-4.864400">
        <ele>2147.0</ele>
        <time>2016-06-11T14:26:50Z</time>
      </trkpt>
      <trkpt lat="40.494183" lon="-4.864267">
        <ele>2146.0</ele>
        <time>2016-06-11T14:26:51Z</time>
      </trkpt>
      <trkpt lat="40.494233" lon="-4.864150">
        <ele>2145.0</ele>
        <time>2016-06-11T14:26:52Z</time>
      </trkpt>
      <trkpt lat="40.494267" lon="-4.864017">
        <ele>2145.0</ele>
        <time>2016-06-11T14:26:53Z</time>
      </trkpt>
      <trkpt lat="40.494300" lon="-4.863917">
        <ele>2146.0</ele>
        <time>2016-06-11T14:26:54Z</time>
      </trkpt>
      <trkpt lat="40.494350" lon="-4.863833">
        <ele>2147.0</ele>
        <time>2016-06-11T14:26:55Z</time>
      </trkpt>
      <trkpt lat="40.494383" lon="-4.863733">
        <ele>2147.0</ele>
        <time>2016-06-11T14:26:56Z</time>
      </trkpt>
      <trkpt lat="40.494433" lon="-4.863617">
        <ele>2147.0</ele>
        <time>2016-06-11T14:26:57Z</time>
      </trkpt>
      <trkpt lat="40.494467" lon="-4.863500">
        <ele>2147.0</ele>
        <time>2016-06-11T14:26:58Z</time>
      </trkpt>
      <trkpt lat="40.494517" lon="-4.863400">
        <ele>2147.0</ele>
        <time>2016-06-11T14:26:59Z</time>
      </trkpt>
      <trkpt lat="40.494550" lon="-4.863300">
        <ele>2148.0</ele>
        <time>2016-06-11T14:27:00Z</time>
      </trkpt>
      <trkpt lat="40.494600" lon="-4.863217">
        <ele>2149.0</ele>
        <time>2016-06-11T14:27:01Z</time>
      </trkpt>
      <trkpt lat="40.494633" lon="-4.863150">
        <ele>2150.0</ele>
        <time>2016-06-11T14:27:02Z</time>
      </trkpt>
      <trkpt lat="40.494683" lon="-4.863100">
        <ele>2151.0</ele>
        <time>2016-06-11T14:27:03Z</time>
      </trkpt>
      <trkpt lat="40.494717" lon="-4.863067">
        <ele>2151.0</ele>
        <time>2016-06-11T14:27:04Z</time>
      </trkpt>
      <trkpt lat="40.494767" lon="-4.863050">
        <ele>2151.0</ele>
        <time>2016-06-11T14:27:05Z</time>
      </trkpt>
      <trkpt lat="40.494800" lon="-4.863050">
        <ele>2151.0</ele>
        <time>2016-06-11T14:27:06Z</time>
      </trkpt>
      <trkpt lat="40.494817" lon="-4.863050">
        <ele>2152.0</ele>
        <time>2016-06-11T14:27:07Z</time>
      </trkpt>
      <trkpt lat="40.494833" lon="-4.863033">
        <ele>2152.0</ele>
        <time>2016-06-11T14:27:08Z</time>
      </trkpt>
      <trkpt lat="40.494867" lon="-4.863017">
        <ele>2151.0</ele>
        <time>2016-06-11T14:27:09Z</time>
      </trkpt>
      <trkpt lat="40.494900" lon="-4.862983">
        <ele>2150.0</ele>
        <time>2016-06-11T14:27:10Z</time>
      </trkpt>
      <trkpt lat="40.494950" lon="-4.862967">
        <ele>2148.0</ele>
        <time>2016-06-11T14:27:11Z</time>
      </trkpt>
      <trkpt lat="40.494983" lon="-4.862967">
        <ele>2146.0</ele>
        <time>2016-06-11T14:27:12Z</time>
      </trkpt>
      <trkpt lat="40.495017" lon="-4.862967">
        <ele>2144.0</ele>
        <time>2016-06-11T14:27:13Z</time>
      </trkpt>
      <trkpt lat="40.495033" lon="-4.862983">
        <ele>2143.0</ele>
        <time>2016-06-11T14:27:14Z</time>
      </trkpt>
      <trkpt lat="40.495067" lon="-4.862983">
        <ele>2142.0</ele>
        <time>2016-06-11T14:27:15Z</time>
      </trkpt>
      <trkpt lat="40.495117" lon="-4.862967">
        <ele>2142.0</ele>
        <time>2016-06-11T14:27:16Z</time>
      </trkpt>
      <trkpt lat="40.495150" lon="-4.862933">
        <ele>2141.0</ele>
        <time>2016-06-11T14:27:17Z</time>
      </trkpt>
      <trkpt lat="40.495200" lon="-4.862850">
        <ele>2142.0</ele>
        <time>2016-06-11T14:27:18Z</time>
      </trkpt>
      <trkpt lat="40.495233" lon="-4.862717">
        <ele>2141.0</ele>
        <time>2016-06-11T14:27:19Z</time>
      </trkpt>
      <trkpt lat="40.495283" lon="-4.862567">
        <ele>2139.0</ele>
        <time>2016-06-11T14:27:20Z</time>
      </trkpt>
      <trkpt lat="40.495300" lon="-4.862400">
        <ele>2138.0</ele>
        <time>2016-06-11T14:27:21Z</time>
      </trkpt>
      <trkpt lat="40.495317" lon="-4.862267">
        <ele>2139.0</ele>
        <time>2016-06-11T14:27:22Z</time>
      </trkpt>
      <trkpt lat="40.495350" lon="-4.862117">
        <ele>2139.0</ele>
        <time>2016-06-11T14:27:23Z</time>
      </trkpt>
      <trkpt lat="40.495367" lon="-4.861983">
        <ele>2139.0</ele>
        <time>2016-06-11T14:27:24Z</time>
      </trkpt>
      <trkpt lat="40.495367" lon="-4.861817">
        <ele>2137.0</ele>
        <time>2016-06-11T14:27:25Z</time>
      </trkpt>
      <trkpt lat="40.495367" lon="-4.861617">
        <ele>2135.0</ele>
        <time>2016-06-11T14:27:26Z</time>
      </trkpt>
      <trkpt lat="40.495350" lon="-4.861417">
        <ele>2133.0</ele>
        <time>2016-06-11T14:27:27Z</time>
      </trkpt>
      <trkpt lat="40.495317" lon="-4.861217">
        <ele>2131.0</ele>
        <time>2016-06-11T14:27:28Z</time>
      </trkpt>
      <trkpt lat="40.495283" lon="-4.861017">
        <ele>2131.0</ele>
        <time>2016-06-11T14:27:29Z</time>
      </trkpt>
      <trkpt lat="40.495250" lon="-4.860833">
        <ele>2130.0</ele>
        <time>2016-06-11T14:27:30Z</time>
      </trkpt>
      <trkpt lat="40.495217" lon="-4.860650">
        <ele>2129.0</ele>
        <time>2016-06-11T14:27:31Z</time>
      </trkpt>
      <trkpt lat="40.495183" lon="-4.860450">
        <ele>2127.0</ele>
        <time>2016-06-11T14:27:32Z</time>
      </trkpt>
      <trkpt lat="40.495150" lon="-4.860250">
        <ele>2125.0</ele>
        <time>2016-06-11T14:27:33Z</time>
      </trkpt>
      <trkpt lat="40.495100" lon="-4.860050">
        <ele>2123.0</ele>
        <time>2016-06-11T14:27:34Z</time>
      </trkpt>
      <trkpt lat="40.495067" lon="-4.859850">
        <ele>2122.0</ele>
        <time>2016-06-11T14:27:35Z</time>
      </trkpt>
      <trkpt lat="40.495033" lon="-4.859650">
        <ele>2122.0</ele>
        <time>2016-06-11T14:27:36Z</time>
      </trkpt>
      <trkpt lat="40.494983" lon="-4.859467">
        <ele>2122.0</ele>
        <time>2016-06-11T14:27:37Z</time>
      </trkpt>
      <trkpt lat="40.494950" lon="-4.859283">
        <ele>2121.0</ele>
        <time>2016-06-11T14:27:38Z</time>
      </trkpt>
      <trkpt lat="40.494900" lon="-4.859083">
        <ele>2119.0</ele>
        <time>2016-06-11T14:27:39Z</time>
      </trkpt>
      <trkpt lat="40.494850" lon="-4.858883">
        <ele>2118.0</ele>
        <time>2016-06-11T14:27:40Z</time>
      </trkpt>
      <trkpt lat="40.494800" lon="-4.858683">
        <ele>2117.0</ele>
        <time>2016-06-11T14:27:41Z</time>
      </trkpt>
      <trkpt lat="40.494750" lon="-4.858500">
        <ele>2117.0</ele>
        <time>2016-06-11T14:27:42Z</time>
      </trkpt>
      <trkpt lat="40.494700" lon="-4.858333">
        <ele>2117.0</ele>
        <time>2016-06-11T14:27:43Z</time>
      </trkpt>
      <trkpt lat="40.494667" lon="-4.858150">
        <ele>2117.0</ele>
        <time>2016-06-11T14:27:44Z</time>
      </trkpt>
      <trkpt lat="40.494633" lon="-4.857983">
        <ele>2116.0</ele>
        <time>2016-06-11T14:27:45Z</time>
      </trkpt>
      <trkpt lat="40.494617" lon="-4.857783">
        <ele>2114.0</ele>
        <time>2016-06-11T14:27:46Z</time>
      </trkpt>
      <trkpt lat="40.494583" lon="-4.857600">
        <ele>2112.0</ele>
        <time>2016-06-11T14:27:47Z</time>
      </trkpt>
      <trkpt lat="40.494567" lon="-4.857400">
        <ele>2110.0</ele>
        <time>2016-06-11T14:27:48Z</time>
      </trkpt>
      <trkpt lat="40.494567" lon="-4.857217">
        <ele>2108.0</ele>
        <time>2016-06-11T14:27:49Z</time>
      </trkpt>
      <trkpt lat="40.494567" lon="-4.857033">
        <ele>2106.0</ele>
        <time>2016-06-11T14:27:50Z</time>
      </trkpt>
      <trkpt lat="40.494567" lon="-4.856850">
        <ele>2105.0</ele>
        <time>2016-06-11T14:27:51Z</time>
      </trkpt>
      <trkpt lat="40.494567" lon="-4.856667">
        <ele>2103.0</ele>
        <time>2016-06-11T14:27:52Z</time>
      </trkpt>
      <trkpt lat="40.494583" lon="-4.856500">
        <ele>2103.0</ele>
        <time>2016-06-11T14:27:53Z</time>
      </trkpt>
      <trkpt lat="40.494600" lon="-4.856350">
        <ele>2103.0</ele>
        <time>2016-06-11T14:27:54Z</time>
      </trkpt>
      <trkpt lat="40.494600" lon="-4.856217">
        <ele>2104.0</ele>
        <time>2016-06-11T14:27:55Z</time>
      </trkpt>
      <trkpt lat="40.494617" lon="-4.856067">
        <ele>2103.0</ele>
        <time>2016-06-11T14:27:56Z</time>
      </trkpt>
      <trkpt lat="40.494633" lon="-4.855933">
        <ele>2102.0</ele>
        <time>2016-06-11T14:27:57Z</time>
      </trkpt>
      <trkpt lat="40.494650" lon="-4.855783">
        <ele>2100.0</ele>
        <time>2016-06-11T14:27:58Z</time>
      </trkpt>
      <trkpt lat="40.494683" lon="-4.855650">
        <ele>2099.0</ele>
        <time>2016-06-11T14:27:59Z</time>
      </trkpt>
      <trkpt lat="40.494717" lon="-4.855533">
        <ele>2099.0</ele>
        <time>2016-06-11T14:28:00Z</time>
      </trkpt>
      <trkpt lat="40.494750" lon="-4.855417">
        <ele>2099.0</ele>
        <time>2016-06-11T14:28:01Z</time>
      </trkpt>
      <trkpt lat="40.494783" lon="-4.855317">
        <ele>2098.0</ele>
        <time>2016-06-11T14:28:02Z</time>
      </trkpt>
      <trkpt lat="40.494817" lon="-4.855200">
        <ele>2097.0</ele>
        <time>2016-06-11T14:28:03Z</time>
      </trkpt>
      <trkpt lat="40.494867" lon="-4.855083">
        <ele>2096.0</ele>
        <time>2016-06-11T14:28:04Z</time>
      </trkpt>
      <trkpt lat="40.494900" lon="-4.854967">
        <ele>2095.0</ele>
        <time>2016-06-11T14:28:05Z</time>
      </trkpt>
      <trkpt lat="40.494933" lon="-4.854833">
        <ele>2094.0</ele>
        <time>2016-06-11T14:28:06Z</time>
      </trkpt>
      <trkpt lat="40.494983" lon="-4.854683">
        <ele>2093.0</ele>
        <time>2016-06-11T14:28:07Z</time>
      </trkpt>
      <trkpt lat="40.495017" lon="-4.854567">
        <ele>2094.0</ele>
        <time>2016-06-11T14:28:08Z</time>
      </trkpt>
      <trkpt lat="40.495050" lon="-4.854433">
        <ele>2095.0</ele>
        <time>2016-06-11T14:28:09Z</time>
      </trkpt>
      <trkpt lat="40.495067" lon="-4.854300">
        <ele>2096.0</ele>
        <time>2016-06-11T14:28:10Z</time>
      </trkpt>
      <trkpt lat="40.495083" lon="-4.854167">
        <ele>2097.0</ele>
        <time>2016-06-11T14:28:11Z</time>
      </trkpt>
      <trkpt lat="40.495083" lon="-4.854033">
        <ele>2097.0</ele>
        <time>2016-06-11T14:28:12Z</time>
      </trkpt>
      <trkpt lat="40.495100" lon="-4.853883">
        <ele>2096.0</ele>
        <time>2016-06-11T14:28:13Z</time>
      </trkpt>
      <trkpt lat="40.495117" lon="-4.853750">
        <ele>2095.0</ele>
        <time>2016-06-11T14:28:14Z</time>
      </trkpt>
      <trkpt lat="40.495150" lon="-4.853600">
        <ele>2092.0</ele>
        <time>2016-06-11T14:28:15Z</time>
      </trkpt>
      <trkpt lat="40.495200" lon="-4.853467">
        <ele>2091.0</ele>
        <time>2016-06-11T14:28:16Z</time>
      </trkpt>
      <trkpt lat="40.495217" lon="-4.853350">
        <ele>2092.0</ele>
        <time>2016-06-11T14:28:17Z</time>
      </trkpt>
      <trkpt lat="40.495233" lon="-4.853233">
        <ele>2093.0</ele>
        <time>2016-06-11T14:28:18Z</time>
      </trkpt>
      <trkpt lat="40.495250" lon="-4.853117">
        <ele>2094.0</ele>
        <time>2016-06-11T14:28:19Z</time>
      </trkpt>
      <trkpt lat="40.495283" lon="-4.853000">
        <ele>2094.0</ele>
        <time>2016-06-11T14:28:20Z</time>
      </trkpt>
      <trkpt lat="40.495317" lon="-4.852883">
        <ele>2092.0</ele>
        <time>2016-06-11T14:28:21Z</time>
      </trkpt>
      <trkpt lat="40.495350" lon="-4.852750">
        <ele>2090.0</ele>
        <time>2016-06-11T14:28:22Z</time>
      </trkpt>
      <trkpt lat="40.495400" lon="-4.852617">
        <ele>2089.0</ele>
        <time>2016-06-11T14:28:23Z</time>
      </trkpt>
      <trkpt lat="40.495450" lon="-4.852500">
        <ele>2090.0</ele>
        <time>2016-06-11T14:28:24Z</time>
      </trkpt>
      <trkpt lat="40.495467" lon="-4.852383">
        <ele>2091.0</ele>
        <time>2016-06-11T14:28:25Z</time>
      </trkpt>
      <trkpt lat="40.495500" lon="-4.852267">
        <ele>2091.0</ele>
        <time>2016-06-11T14:28:26Z</time>
      </trkpt>
      <trkpt lat="40.495533" lon="-4.852150">
        <ele>2091.0</ele>
        <time>2016-06-11T14:28:27Z</time>
      </trkpt>
      <trkpt lat="40.495567" lon="-4.852033">
        <ele>2091.0</ele>
        <time>2016-06-11T14:28:28Z</time>
      </trkpt>
      <trkpt lat="40.495617" lon="-4.851917">
        <ele>2091.0</ele>
        <time>2016-06-11T14:28:29Z</time>
      </trkpt>
      <trkpt lat="40.495650" lon="-4.851800">
        <ele>2091.0</ele>
        <time>2016-06-11T14:28:30Z</time>
      </trkpt>
      <trkpt lat="40.495683" lon="-4.851700">
        <ele>2091.0</ele>
        <time>2016-06-11T14:28:31Z</time>
      </trkpt>
      <trkpt lat="40.495717" lon="-4.851583">
        <ele>2091.0</ele>
        <time>2016-06-11T14:28:32Z</time>
      </trkpt>
      <trkpt lat="40.495750" lon="-4.851483">
        <ele>2090.0</ele>
        <time>2016-06-11T14:28:33Z</time>
      </trkpt>
      <trkpt lat="40.495783" lon="-4.851367">
        <ele>2089.0</ele>
        <time>2016-06-11T14:28:34Z</time>
      </trkpt>
      <trkpt lat="40.495833" lon="-4.851250">
        <ele>2088.0</ele>
        <time>2016-06-11T14:28:35Z</time>
      </trkpt>
      <trkpt lat="40.495867" lon="-4.851133">
        <ele>2087.0</ele>
        <time>2016-06-11T14:28:36Z</time>
      </trkpt>
      <trkpt lat="40.495900" lon="-4.851017">
        <ele>2086.0</ele>
        <time>2016-06-11T14:28:37Z</time>
      </trkpt>
      <trkpt lat="40.495933" lon="-4.850900">
        <ele>2085.0</ele>
        <time>2016-06-11T14:28:38Z</time>
      </trkpt>
      <trkpt lat="40.495950" lon="-4.850767">
        <ele>2084.0</ele>
        <time>2016-06-11T14:28:39Z</time>
      </trkpt>
      <trkpt lat="40.495983" lon="-4.850633">
        <ele>2083.0</ele>
        <time>2016-06-11T14:28:40Z</time>
      </trkpt>
      <trkpt lat="40.496033" lon="-4.850533">
        <ele>2081.0</ele>
        <time>2016-06-11T14:28:41Z</time>
      </trkpt>
      <trkpt lat="40.496067" lon="-4.850417">
        <ele>2079.0</ele>
        <time>2016-06-11T14:28:42Z</time>
      </trkpt>
      <trkpt lat="40.496117" lon="-4.850317">
        <ele>2077.0</ele>
        <time>2016-06-11T14:28:43Z</time>
      </trkpt>
      <trkpt lat="40.496167" lon="-4.850200">
        <ele>2076.0</ele>
        <time>2016-06-11T14:28:44Z</time>
      </trkpt>
      <trkpt lat="40.496217" lon="-4.850083">
        <ele>2075.0</ele>
        <time>2016-06-11T14:28:45Z</time>
      </trkpt>
      <trkpt lat="40.496267" lon="-4.849983">
        <ele>2075.0</ele>
        <time>2016-06-11T14:28:46Z</time>
      </trkpt>
      <trkpt lat="40.496317" lon="-4.849917">
        <ele>2074.0</ele>
        <time>2016-06-11T14:28:47Z</time>
      </trkpt>
      <trkpt lat="40.496367" lon="-4.849833">
        <ele>2074.0</ele>
        <time>2016-06-11T14:28:48Z</time>
      </trkpt>
      <trkpt lat="40.496400" lon="-4.849750">
        <ele>2074.0</ele>
        <time>2016-06-11T14:28:49Z</time>
      </trkpt>
      <trkpt lat="40.496417" lon="-4.849650">
        <ele>2075.0</ele>
        <time>2016-06-11T14:28:50Z</time>
      </trkpt>
      <trkpt lat="40.496450" lon="-4.849533">
        <ele>2075.0</ele>
        <time>2016-06-11T14:28:51Z</time>
      </trkpt>
      <trkpt lat="40.496483" lon="-4.849450">
        <ele>2073.0</ele>
        <time>2016-06-11T14:28:52Z</time>
      </trkpt>
      <trkpt lat="40.496533" lon="-4.849350">
        <ele>2071.0</ele>
        <time>2016-06-11T14:28:53Z</time>
      </trkpt>
      <trkpt lat="40.496600" lon="-4.849283">
        <ele>2069.0</ele>
        <time>2016-06-11T14:28:54Z</time>
      </trkpt>
      <trkpt lat="40.496650" lon="-4.849233">
        <ele>2069.0</ele>
        <time>2016-06-11T14:28:55Z</time>
      </trkpt>
      <trkpt lat="40.496683" lon="-4.849167">
        <ele>2070.0</ele>
        <time>2016-06-11T14:28:56Z</time>
      </trkpt>
      <trkpt lat="40.496717" lon="-4.849117">
        <ele>2072.0</ele>
        <time>2016-06-11T14:28:57Z</time>
      </trkpt>
      <trkpt lat="40.496733" lon="-4.849067">
        <ele>2073.0</ele>
        <time>2016-06-11T14:28:58Z</time>
      </trkpt>
      <trkpt lat="40.496767" lon="-4.849000">
        <ele>2073.0</ele>
        <time>2016-06-11T14:28:59Z</time>
      </trkpt>
      <trkpt lat="40.496800" lon="-4.848933">
        <ele>2073.0</ele>
        <time>2016-06-11T14:29:00Z</time>
      </trkpt>
      <trkpt lat="40.496850" lon="-4.848883">
        <ele>2072.0</ele>
        <time>2016-06-11T14:29:01Z</time>
      </trkpt>
      <trkpt lat="40.496900" lon="-4.848850">
        <ele>2071.0</ele>
        <time>2016-06-11T14:29:02Z</time>
      </trkpt>
      <trkpt lat="40.496950" lon="-4.848850">
        <ele>2072.0</ele>
        <time>2016-06-11T14:29:03Z</time>
      </trkpt>
      <trkpt lat="40.496983" lon="-4.848850">
        <ele>2072.0</ele>
        <time>2016-06-11T14:29:04Z</time>
      </trkpt>
      <trkpt lat="40.497000" lon="-4.848867">
        <ele>2073.0</ele>
        <time>2016-06-11T14:29:05Z</time>
      </trkpt>
      <trkpt lat="40.497033" lon="-4.848867">
        <ele>2075.0</ele>
        <time>2016-06-11T14:29:06Z</time>
      </trkpt>
      <trkpt lat="40.497050" lon="-4.848867">
        <ele>2075.0</ele>
        <time>2016-06-11T14:29:07Z</time>
      </trkpt>
      <trkpt lat="40.497083" lon="-4.848867">
        <ele>2075.0</ele>
        <time>2016-06-11T14:29:08Z</time>
      </trkpt>
      <trkpt lat="40.497117" lon="-4.848867">
        <ele>2074.0</ele>
        <time>2016-06-11T14:29:09Z</time>
      </trkpt>
      <trkpt lat="40.497167" lon="-4.848867">
        <ele>2073.0</ele>
        <time>2016-06-11T14:29:10Z</time>
      </trkpt>
      <trkpt lat="40.497217" lon="-4.848833">
        <ele>2074.0</ele>
        <time>2016-06-11T14:29:11Z</time>
      </trkpt>
      <trkpt lat="40.497267" lon="-4.848767">
        <ele>2075.0</ele>
        <time>2016-06-11T14:29:12Z</time>
      </trkpt>
      <trkpt lat="40.497333" lon="-4.848650">
        <ele>2076.0</ele>
        <time>2016-06-11T14:29:13Z</time>
      </trkpt>
      <trkpt lat="40.497383" lon="-4.848550">
        <ele>2077.0</ele>
        <time>2016-06-11T14:29:14Z</time>
      </trkpt>
      <trkpt lat="40.497417" lon="-4.848450">
        <ele>2080.0</ele>
        <time>2016-06-11T14:29:15Z</time>
      </trkpt>
      <trkpt lat="40.497433" lon="-4.848383">
        <ele>2083.0</ele>
        <time>2016-06-11T14:29:16Z</time>
      </trkpt>
      <trkpt lat="40.497450" lon="-4.848300">
        <ele>2084.0</ele>
        <time>2016-06-11T14:29:17Z</time>
      </trkpt>
      <trkpt lat="40.497483" lon="-4.848217">
        <ele>2084.0</ele>
        <time>2016-06-11T14:29:18Z</time>
      </trkpt>
      <trkpt lat="40.497517" lon="-4.848133">
        <ele>2083.0</ele>
        <time>2016-06-11T14:29:19Z</time>
      </trkpt>
      <trkpt lat="40.497567" lon="-4.848050">
        <ele>2082.0</ele>
        <time>2016-06-11T14:29:20Z</time>
      </trkpt>
      <trkpt lat="40.497600" lon="-4.847983">
        <ele>2082.0</ele>
        <time>2016-06-11T14:29:21Z</time>
      </trkpt>
      <trkpt lat="40.497633" lon="-4.847917">
        <ele>2082.0</ele>
        <time>2016-06-11T14:29:22Z</time>
      </trkpt>
      <trkpt lat="40.497667" lon="-4.847833">
        <ele>2081.0</ele>
        <time>2016-06-11T14:29:23Z</time>
      </trkpt>
      <trkpt lat="40.497700" lon="-4.847767">
        <ele>2081.0</ele>
        <time>2016-06-11T14:29:24Z</time>
      </trkpt>
      <trkpt lat="40.497733" lon="-4.847683">
        <ele>2080.0</ele>
        <time>2016-06-11T14:29:25Z</time>
      </trkpt>
      <trkpt lat="40.497767" lon="-4.847633">
        <ele>2080.0</ele>
        <time>2016-06-11T14:29:26Z</time>
      </trkpt>
      <trkpt lat="40.497800" lon="-4.847567">
        <ele>2081.0</ele>
        <time>2016-06-11T14:29:27Z</time>
      </trkpt>
      <trkpt lat="40.497817" lon="-4.847500">
        <ele>2080.0</ele>
        <time>2016-06-11T14:29:28Z</time>
      </trkpt>
      <trkpt lat="40.497867" lon="-4.847417">
        <ele>2080.0</ele>
        <time>2016-06-11T14:29:29Z</time>
      </trkpt>
      <trkpt lat="40.497900" lon="-4.847333">
        <ele>2078.0</ele>
        <time>2016-06-11T14:29:30Z</time>
      </trkpt>
      <trkpt lat="40.497950" lon="-4.847233">
        <ele>2077.0</ele>
        <time>2016-06-11T14:29:31Z</time>
      </trkpt>
      <trkpt lat="40.497983" lon="-4.847150">
        <ele>2077.0</ele>
        <time>2016-06-11T14:29:32Z</time>
      </trkpt>
      <trkpt lat="40.498017" lon="-4.847050">
        <ele>2077.0</ele>
        <time>2016-06-11T14:29:33Z</time>
      </trkpt>
      <trkpt lat="40.498050" lon="-4.846933">
        <ele>2077.0</ele>
        <time>2016-06-11T14:29:34Z</time>
      </trkpt>
      <trkpt lat="40.498083" lon="-4.846833">
        <ele>2077.0</ele>
        <time>2016-06-11T14:29:35Z</time>
      </trkpt>
      <trkpt lat="40.498117" lon="-4.846733">
        <ele>2077.0</ele>
        <time>2016-06-11T14:29:36Z</time>
      </trkpt>
      <trkpt lat="40.498150" lon="-4.846650">
        <ele>2077.0</ele>
        <time>2016-06-11T14:29:37Z</time>
      </trkpt>
      <trkpt lat="40.498183" lon="-4.846550">
        <ele>2077.0</ele>
        <time>2016-06-11T14:29:38Z</time>
      </trkpt>
      <trkpt lat="40.498217" lon="-4.846450">
        <ele>2077.0</ele>
        <time>2016-06-11T14:29:39Z</time>
      </trkpt>
      <trkpt lat="40.498250" lon="-4.846367">
        <ele>2076.0</ele>
        <time>2016-06-11T14:29:40Z</time>
      </trkpt>
      <trkpt lat="40.498300" lon="-4.846267">
        <ele>2075.0</ele>
        <time>2016-06-11T14:29:41Z</time>
      </trkpt>
      <trkpt lat="40.498350" lon="-4.846200">
        <ele>2075.0</ele>
        <time>2016-06-11T14:29:42Z</time>
      </trkpt>
      <trkpt lat="40.498400" lon="-4.846133">
        <ele>2074.0</ele>
        <time>2016-06-11T14:29:43Z</time>
      </trkpt>
      <trkpt lat="40.498433" lon="-4.846067">
        <ele>2074.0</ele>
        <time>2016-06-11T14:29:44Z</time>
      </trkpt>
      <trkpt lat="40.498467" lon="-4.846000">
        <ele>2073.0</ele>
        <time>2016-06-11T14:29:45Z</time>
      </trkpt>
      <trkpt lat="40.498500" lon="-4.845933">
        <ele>2072.0</ele>
        <time>2016-06-11T14:29:46Z</time>
      </trkpt>
      <trkpt lat="40.498533" lon="-4.845850">
        <ele>2070.0</ele>
        <time>2016-06-11T14:29:47Z</time>
      </trkpt>
      <trkpt lat="40.498583" lon="-4.845767">
        <ele>2067.0</ele>
        <time>2016-06-11T14:29:48Z</time>
      </trkpt>
      <trkpt lat="40.498617" lon="-4.845667">
        <ele>2065.0</ele>
        <time>2016-06-11T14:29:49Z</time>
      </trkpt>
      <trkpt lat="40.498650" lon="-4.845567">
        <ele>2064.0</ele>
        <time>2016-06-11T14:29:50Z</time>
      </trkpt>
      <trkpt lat="40.498683" lon="-4.845467">
        <ele>2062.0</ele>
        <time>2016-06-11T14:29:51Z</time>
      </trkpt>
      <trkpt lat="40.498717" lon="-4.845383">
        <ele>2060.0</ele>
        <time>2016-06-11T14:29:52Z</time>
      </trkpt>
      <trkpt lat="40.498750" lon="-4.845317">
        <ele>2058.0</ele>
        <time>2016-06-11T14:29:53Z</time>
      </trkpt>
      <trkpt lat="40.498800" lon="-4.845233">
        <ele>2056.0</ele>
        <time>2016-06-11T14:29:54Z</time>
      </trkpt>
      <trkpt lat="40.498850" lon="-4.845150">
        <ele>2054.0</ele>
        <time>2016-06-11T14:29:55Z</time>
      </trkpt>
      <trkpt lat="40.498900" lon="-4.845067">
        <ele>2052.0</ele>
        <time>2016-06-11T14:29:56Z</time>
      </trkpt>
      <trkpt lat="40.498950" lon="-4.844983">
        <ele>2050.0</ele>
        <time>2016-06-11T14:29:57Z</time>
      </trkpt>
      <trkpt lat="40.499017" lon="-4.844883">
        <ele>2049.0</ele>
        <time>2016-06-11T14:29:58Z</time>
      </trkpt>
      <trkpt lat="40.499067" lon="-4.844783">
        <ele>2048.0</ele>
        <time>2016-06-11T14:29:59Z</time>
      </trkpt>
      <trkpt lat="40.499117" lon="-4.844683">
        <ele>2046.0</ele>
        <time>2016-06-11T14:30:00Z</time>
      </trkpt>
      <trkpt lat="40.499183" lon="-4.844567">
        <ele>2045.0</ele>
        <time>2016-06-11T14:30:01Z</time>
      </trkpt>
      <trkpt lat="40.499267" lon="-4.844467">
        <ele>2044.0</ele>
        <time>2016-06-11T14:30:02Z</time>
      </trkpt>
      <trkpt lat="40.499333" lon="-4.844350">
        <ele>2043.0</ele>
        <time>2016-06-11T14:30:03Z</time>
      </trkpt>
      <trkpt lat="40.499400" lon="-4.844267">
        <ele>2044.0</ele>
        <time>2016-06-11T14:30:04Z</time>
      </trkpt>
      <trkpt lat="40.499450" lon="-4.844217">
        <ele>2047.0</ele>
        <time>2016-06-11T14:30:05Z</time>
      </trkpt>
      <trkpt lat="40.499483" lon="-4.844133">
        <ele>2048.0</ele>
        <time>2016-06-11T14:30:06Z</time>
      </trkpt>
      <trkpt lat="40.499533" lon="-4.844050">
        <ele>2048.0</ele>
        <time>2016-06-11T14:30:07Z</time>
      </trkpt>
      <trkpt lat="40.499583" lon="-4.843933">
        <ele>2048.0</ele>
        <time>2016-06-11T14:30:08Z</time>
      </trkpt>
      <trkpt lat="40.499633" lon="-4.843833">
        <ele>2048.0</ele>
        <time>2016-06-11T14:30:09Z</time>
      </trkpt>
      <trkpt lat="40.499683" lon="-4.843750">
        <ele>2048.0</ele>
        <time>2016-06-11T14:30:10Z</time>
      </trkpt>
      <trkpt lat="40.499750" lon="-4.843683">
        <ele>2048.0</ele>
        <time>2016-06-11T14:30:11Z</time>
      </trkpt>
      <trkpt lat="40.499800" lon="-4.843633">
        <ele>2049.0</ele>
        <time>2016-06-11T14:30:12Z</time>
      </trkpt>
      <trkpt lat="40.499850" lon="-4.843567">
        <ele>2051.0</ele>
        <time>2016-06-11T14:30:13Z</time>
      </trkpt>
      <trkpt lat="40.499917" lon="-4.843500">
        <ele>2053.0</ele>
        <time>2016-06-11T14:30:14Z</time>
      </trkpt>
      <trkpt lat="40.499967" lon="-4.843433">
        <ele>2055.0</ele>
        <time>2016-06-11T14:30:15Z</time>
      </trkpt>
      <trkpt lat="40.500017" lon="-4.843417">
        <ele>2057.0</ele>
        <time>2016-06-11T14:30:16Z</time>
      </trkpt>
      <trkpt lat="40.500050" lon="-4.843383">
        <ele>2059.0</ele>
        <time>2016-06-11T14:30:17Z</time>
      </trkpt>
      <trkpt lat="40.500100" lon="-4.843350">
        <ele>2061.0</ele>
        <time>2016-06-11T14:30:18Z</time>
      </trkpt>
      <trkpt lat="40.500150" lon="-4.843300">
        <ele>2063.0</ele>
        <time>2016-06-11T14:30:19Z</time>
      </trkpt>
      <trkpt lat="40.500183" lon="-4.843250">
        <ele>2065.0</ele>
        <time>2016-06-11T14:30:20Z</time>
      </trkpt>
      <trkpt lat="40.500233" lon="-4.843200">
        <ele>2068.0</ele>
        <time>2016-06-11T14:30:21Z</time>
      </trkpt>
      <trkpt lat="40.500267" lon="-4.843183">
        <ele>2070.0</ele>
        <time>2016-06-11T14:30:22Z</time>
      </trkpt>
      <trkpt lat="40.500300" lon="-4.843167">
        <ele>2070.0</ele>
        <time>2016-06-11T14:30:23Z</time>
      </trkpt>
      <trkpt lat="40.500333" lon="-4.843167">
        <ele>2070.0</ele>
        <time>2016-06-11T14:30:24Z</time>
      </trkpt>
      <trkpt lat="40.500383" lon="-4.843167">
        <ele>2071.0</ele>
        <time>2016-06-11T14:30:25Z</time>
      </trkpt>
      <trkpt lat="40.500417" lon="-4.843150">
        <ele>2073.0</ele>
        <time>2016-06-11T14:30:26Z</time>
      </trkpt>
      <trkpt lat="40.500450" lon="-4.843117">
        <ele>2075.0</ele>
        <time>2016-06-11T14:30:27Z</time>
      </trkpt>
      <trkpt lat="40.500500" lon="-4.843100">
        <ele>2077.0</ele>
        <time>2016-06-11T14:30:28Z</time>
      </trkpt>
      <trkpt lat="40.500517" lon="-4.843117">
        <ele>2078.0</ele>
        <time>2016-06-11T14:30:29Z</time>
      </trkpt>
      <trkpt lat="40.500550" lon="-4.843117">
        <ele>2079.0</ele>
        <time>2016-06-11T14:30:30Z</time>
      </trkpt>
      <trkpt lat="40.500583" lon="-4.843133">
        <ele>2081.0</ele>
        <time>2016-06-11T14:30:31Z</time>
      </trkpt>
      <trkpt lat="40.500617" lon="-4.843133">
        <ele>2083.0</ele>
        <time>2016-06-11T14:30:32Z</time>
      </trkpt>
      <trkpt lat="40.500633" lon="-4.843117">
        <ele>2086.0</ele>
        <time>2016-06-11T14:30:33Z</time>
      </trkpt>
      <trkpt lat="40.500667" lon="-4.843083">
        <ele>2088.0</ele>
        <time>2016-06-11T14:30:34Z</time>
      </trkpt>
      <trkpt lat="40.500683" lon="-4.843050">
        <ele>2090.0</ele>
        <time>2016-06-11T14:30:35Z</time>
      </trkpt>
      <trkpt lat="40.500717" lon="-4.843017">
        <ele>2090.0</ele>
        <time>2016-06-11T14:30:36Z</time>
      </trkpt>
      <trkpt lat="40.500733" lon="-4.842950">
        <ele>2089.0</ele>
        <time>2016-06-11T14:30:37Z</time>
      </trkpt>
      <trkpt lat="40.500767" lon="-4.842850">
        <ele>2087.0</ele>
        <time>2016-06-11T14:30:38Z</time>
      </trkpt>
      <trkpt lat="40.500783" lon="-4.842717">
        <ele>2085.0</ele>
        <time>2016-06-11T14:30:39Z</time>
      </trkpt>
      <trkpt lat="40.500783" lon="-4.842550">
        <ele>2083.0</ele>
        <time>2016-06-11T14:30:40Z</time>
      </trkpt>
      <trkpt lat="40.500733" lon="-4.842350">
        <ele>2082.0</ele>
        <time>2016-06-11T14:30:41Z</time>
      </trkpt>
      <trkpt lat="40.500650" lon="-4.842183">
        <ele>2080.0</ele>
        <time>2016-06-11T14:30:42Z</time>
      </trkpt>
      <trkpt lat="40.500550" lon="-4.842050">
        <ele>2080.0</ele>
        <time>2016-06-11T14:30:43Z</time>
      </trkpt>
      <trkpt lat="40.500433" lon="-4.841933">
        <ele>2081.0</ele>
        <time>2016-06-11T14:30:44Z</time>
      </trkpt>
      <trkpt lat="40.500317" lon="-4.841867">
        <ele>2081.0</ele>
        <time>2016-06-11T14:30:45Z</time>
      </trkpt>
      <trkpt lat="40.500217" lon="-4.841800">
        <ele>2081.0</ele>
        <time>2016-06-11T14:30:46Z</time>
      </trkpt>
      <trkpt lat="40.500100" lon="-4.841733">
        <ele>2079.0</ele>
        <time>2016-06-11T14:30:47Z</time>
      </trkpt>
      <trkpt lat="40.499967" lon="-4.841700">
        <ele>2078.0</ele>
        <time>2016-06-11T14:30:48Z</time>
      </trkpt>
      <trkpt lat="40.499850" lon="-4.841667">
        <ele>2077.0</ele>
        <time>2016-06-11T14:30:49Z</time>
      </trkpt>
      <trkpt lat="40.499750" lon="-4.841667">
        <ele>2079.0</ele>
        <time>2016-06-11T14:30:50Z</time>
      </trkpt>
      <trkpt lat="40.499683" lon="-4.841667">
        <ele>2081.0</ele>
        <time>2016-06-11T14:30:51Z</time>
      </trkpt>
      <trkpt lat="40.499617" lon="-4.841667">
        <ele>2082.0</ele>
        <time>2016-06-11T14:30:52Z</time>
      </trkpt>
      <trkpt lat="40.499567" lon="-4.841667">
        <ele>2082.0</ele>
        <time>2016-06-11T14:30:53Z</time>
      </trkpt>
      <trkpt lat="40.499500" lon="-4.841700">
        <ele>2081.0</ele>
        <time>2016-06-11T14:30:54Z</time>
      </trkpt>
      <trkpt lat="40.499417" lon="-4.841733">
        <ele>2081.0</ele>
        <time>2016-06-11T14:30:55Z</time>
      </trkpt>
      <trkpt lat="40.499367" lon="-4.841783">
        <ele>2081.0</ele>
        <time>2016-06-11T14:30:56Z</time>
      </trkpt>
      <trkpt lat="40.499333" lon="-4.841850">
        <ele>2082.0</ele>
        <time>2016-06-11T14:30:57Z</time>
      </trkpt>
      <trkpt lat="40.499300" lon="-4.841883">
        <ele>2084.0</ele>
        <time>2016-06-11T14:30:58Z</time>
      </trkpt>
      <trkpt lat="40.499300" lon="-4.841917">
        <ele>2085.0</ele>
        <time>2016-06-11T14:30:59Z</time>
      </trkpt>
      <trkpt lat="40.499283" lon="-4.841933">
        <ele>2085.0</ele>
        <time>2016-06-11T14:31:00Z</time>
      </trkpt>
      <trkpt lat="40.499267" lon="-4.841967">
        <ele>2083.0</ele>
        <time>2016-06-11T14:31:01Z</time>
      </trkpt>
      <trkpt lat="40.499250" lon="-4.842033">
        <ele>2081.0</ele>
        <time>2016-06-11T14:31:02Z</time>
      </trkpt>
      <trkpt lat="40.499250" lon="-4.842083">
        <ele>2078.0</ele>
        <time>2016-06-11T14:31:03Z</time>
      </trkpt>
      <trkpt lat="40.499267" lon="-4.842117">
        <ele>2078.0</ele>
        <time>2016-06-11T14:31:04Z</time>
      </trkpt>
      <trkpt lat="40.499283" lon="-4.842117">
        <ele>2080.0</ele>
        <time>2016-06-11T14:31:05Z</time>
      </trkpt>
      <trkpt lat="40.499283" lon="-4.842100">
        <ele>2081.0</ele>
        <time>2016-06-11T14:31:06Z</time>
      </trkpt>
      <trkpt lat="40.499300" lon="-4.842100">
        <ele>2080.0</ele>
        <time>2016-06-11T14:31:07Z</time>
      </trkpt>
      <trkpt lat="40.499300" lon="-4.842133">
        <ele>2078.0</ele>
        <time>2016-06-11T14:31:08Z</time>
      </trkpt>
      <trkpt lat="40.499283" lon="-4.842183">
        <ele>2075.0</ele>
        <time>2016-06-11T14:31:09Z</time>
      </trkpt>
      <trkpt lat="40.499283" lon="-4.842250">
        <ele>2073.0</ele>
        <time>2016-06-11T14:31:10Z</time>
      </trkpt>
      <trkpt lat="40.499283" lon="-4.842300">
        <ele>2073.0</ele>
        <time>2016-06-11T14:31:11Z</time>
      </trkpt>
      <trkpt lat="40.499283" lon="-4.842317">
        <ele>2073.0</ele>
        <time>2016-06-11T14:31:12Z</time>
      </trkpt>
      <trkpt lat="40.499267" lon="-4.842333">
        <ele>2073.0</ele>
        <time>2016-06-11T14:31:13Z</time>
      </trkpt>
      <trkpt lat="40.499267" lon="-4.842350">
        <ele>2072.0</ele>
        <time>2016-06-11T14:31:14Z</time>
      </trkpt>
      <trkpt lat="40.499267" lon="-4.842367">
        <ele>2070.0</ele>
        <time>2016-06-11T14:31:15Z</time>
      </trkpt>
      <trkpt lat="40.499283" lon="-4.842417">
        <ele>2066.0</ele>
        <time>2016-06-11T14:31:16Z</time>
      </trkpt>
      <trkpt lat="40.499300" lon="-4.842467">
        <ele>2062.0</ele>
        <time>2016-06-11T14:31:17Z</time>
      </trkpt>
      <trkpt lat="40.499300" lon="-4.842500">
        <ele>2060.0</ele>
        <time>2016-06-11T14:31:18Z</time>
      </trkpt>
      <trkpt lat="40.499317" lon="-4.842517">
        <ele>2060.0</ele>
        <time>2016-06-11T14:31:19Z</time>
      </trkpt>
      <trkpt lat="40.499317" lon="-4.842517">
        <ele>2060.0</ele>
        <time>2016-06-11T14:31:20Z</time>
      </trkpt>
      <trkpt lat="40.499333" lon="-4.842517">
        <ele>2059.0</ele>
        <time>2016-06-11T14:31:21Z</time>
      </trkpt>
      <trkpt lat="40.499350" lon="-4.842533">
        <ele>2058.0</ele>
        <time>2016-06-11T14:31:22Z</time>
      </trkpt>
      <trkpt lat="40.499367" lon="-4.842550">
        <ele>2055.0</ele>
        <time>2016-06-11T14:31:23Z</time>
      </trkpt>
      <trkpt lat="40.499383" lon="-4.842567">
        <ele>2054.0</ele>
        <time>2016-06-11T14:31:24Z</time>
      </trkpt>
      <trkpt lat="40.499417" lon="-4.842567">
        <ele>2054.0</ele>
        <time>2016-06-11T14:31:25Z</time>
      </trkpt>
      <trkpt lat="40.499433" lon="-4.842550">
        <ele>2055.0</ele>
        <time>2016-06-11T14:31:26Z</time>
      </trkpt>
      <trkpt lat="40.499450" lon="-4.842517">
        <ele>2055.0</ele>
        <time>2016-06-11T14:31:27Z</time>
      </trkpt>
      <trkpt lat="40.499483" lon="-4.842500">
        <ele>2054.0</ele>
        <time>2016-06-11T14:31:28Z</time>
      </trkpt>
      <trkpt lat="40.499533" lon="-4.842500">
        <ele>2052.0</ele>
        <time>2016-06-11T14:31:29Z</time>
      </trkpt>
      <trkpt lat="40.499583" lon="-4.842483">
        <ele>2051.0</ele>
        <time>2016-06-11T14:31:30Z</time>
      </trkpt>
      <trkpt lat="40.499633" lon="-4.842467">
        <ele>2051.0</ele>
        <time>2016-06-11T14:31:31Z</time>
      </trkpt>
      <trkpt lat="40.499667" lon="-4.842417">
        <ele>2052.0</ele>
        <time>2016-06-11T14:31:32Z</time>
      </trkpt>
      <trkpt lat="40.499683" lon="-4.842367">
        <ele>2052.0</ele>
        <time>2016-06-11T14:31:33Z</time>
      </trkpt>
      <trkpt lat="40.499700" lon="-4.842333">
        <ele>2051.0</ele>
        <time>2016-06-11T14:31:34Z</time>
      </trkpt>
      <trkpt lat="40.499733" lon="-4.842283">
        <ele>2049.0</ele>
        <time>2016-06-11T14:31:35Z</time>
      </trkpt>
      <trkpt lat="40.499767" lon="-4.842233">
        <ele>2045.0</ele>
        <time>2016-06-11T14:31:36Z</time>
      </trkpt>
      <trkpt lat="40.499817" lon="-4.842200">
        <ele>2040.0</ele>
        <time>2016-06-11T14:31:37Z</time>
      </trkpt>
      <trkpt lat="40.499883" lon="-4.842150">
        <ele>2037.0</ele>
        <time>2016-06-11T14:31:38Z</time>
      </trkpt>
      <trkpt lat="40.499933" lon="-4.842117">
        <ele>2034.0</ele>
        <time>2016-06-11T14:31:39Z</time>
      </trkpt>
      <trkpt lat="40.499967" lon="-4.842050">
        <ele>2033.0</ele>
        <time>2016-06-11T14:31:40Z</time>
      </trkpt>
      <trkpt lat="40.500017" lon="-4.841967">
        <ele>2031.0</ele>
        <time>2016-06-11T14:31:41Z</time>
      </trkpt>
      <trkpt lat="40.500050" lon="-4.841883">
        <ele>2028.0</ele>
        <time>2016-06-11T14:31:42Z</time>
      </trkpt>
      <trkpt lat="40.500100" lon="-4.841817">
        <ele>2026.0</ele>
        <time>2016-06-11T14:31:43Z</time>
      </trkpt>
      <trkpt lat="40.500167" lon="-4.841750">
        <ele>2024.0</ele>
        <time>2016-06-11T14:31:44Z</time>
      </trkpt>
      <trkpt lat="40.500200" lon="-4.841717">
        <ele>2022.0</ele>
        <time>2016-06-11T14:31:45Z</time>
      </trkpt>
      <trkpt lat="40.500250" lon="-4.841683">
        <ele>2021.0</ele>
        <time>2016-06-11T14:31:46Z</time>
      </trkpt>
      <trkpt lat="40.500300" lon="-4.841633">
        <ele>2020.0</ele>
        <time>2016-06-11T14:31:47Z</time>
      </trkpt>
      <trkpt lat="40.500350" lon="-4.841583">
        <ele>2018.0</ele>
        <time>2016-06-11T14:31:48Z</time>
      </trkpt>
      <trkpt lat="40.500400" lon="-4.841533">
        <ele>2014.0</ele>
        <time>2016-06-11T14:31:49Z</time>
      </trkpt>
      <trkpt lat="40.500467" lon="-4.841483">
        <ele>2011.0</ele>
        <time>2016-06-11T14:31:50Z</time>
      </trkpt>
      <trkpt lat="40.500533" lon="-4.841433">
        <ele>2008.0</ele>
        <time>2016-06-11T14:31:51Z</time>
      </trkpt>
      <trkpt lat="40.500600" lon="-4.841367">
        <ele>2006.0</ele>
        <time>2016-06-11T14:31:52Z</time>
      </trkpt>
      <trkpt lat="40.500667" lon="-4.841300">
        <ele>2005.0</ele>
        <time>2016-06-11T14:31:53Z</time>
      </trkpt>
      <trkpt lat="40.500717" lon="-4.841250">
        <ele>2003.0</ele>
        <time>2016-06-11T14:31:54Z</time>
      </trkpt>
      <trkpt lat="40.500767" lon="-4.841200">
        <ele>2002.0</ele>
        <time>2016-06-11T14:31:55Z</time>
      </trkpt>
      <trkpt lat="40.500817" lon="-4.841133">
        <ele>2000.0</ele>
        <time>2016-06-11T14:31:56Z</time>
      </trkpt>
      <trkpt lat="40.500883" lon="-4.841067">
        <ele>1997.0</ele>
        <time>2016-06-11T14:31:57Z</time>
      </trkpt>
      <trkpt lat="40.500950" lon="-4.840983">
        <ele>1995.0</ele>
        <time>2016-06-11T14:31:58Z</time>
      </trkpt>
      <trkpt lat="40.501017" lon="-4.840917">
        <ele>1992.0</ele>
        <time>2016-06-11T14:31:59Z</time>
      </trkpt>
      <trkpt lat="40.501067" lon="-4.840850">
        <ele>1990.0</ele>
        <time>2016-06-11T14:32:00Z</time>
      </trkpt>
      <trkpt lat="40.501133" lon="-4.840767">
        <ele>1988.0</ele>
        <time>2016-06-11T14:32:01Z</time>
      </trkpt>
      <trkpt lat="40.501183" lon="-4.840683">
        <ele>1987.0</ele>
        <time>2016-06-11T14:32:02Z</time>
      </trkpt>
      <trkpt lat="40.501233" lon="-4.840583">
        <ele>1984.0</ele>
        <time>2016-06-11T14:32:03Z</time>
      </trkpt>
      <trkpt lat="40.501283" lon="-4.840483">
        <ele>1981.0</ele>
        <time>2016-06-11T14:32:04Z</time>
      </trkpt>
      <trkpt lat="40.501350" lon="-4.840367">
        <ele>1977.0</ele>
        <time>2016-06-11T14:32:05Z</time>
      </trkpt>
      <trkpt lat="40.501417" lon="-4.840267">
        <ele>1973.0</ele>
        <time>2016-06-11T14:32:06Z</time>
      </trkpt>
      <trkpt lat="40.501483" lon="-4.840150">
        <ele>1971.0</ele>
        <time>2016-06-11T14:32:07Z</time>
      </trkpt>
      <trkpt lat="40.501550" lon="-4.840050">
        <ele>1970.0</ele>
        <time>2016-06-11T14:32:08Z</time>
      </trkpt>
      <trkpt lat="40.501600" lon="-4.839950">
        <ele>1971.0</ele>
        <time>2016-06-11T14:32:09Z</time>
      </trkpt>
      <trkpt lat="40.501650" lon="-4.839850">
        <ele>1972.0</ele>
        <time>2016-06-11T14:32:10Z</time>
      </trkpt>
      <trkpt lat="40.501700" lon="-4.839750">
        <ele>1972.0</ele>
        <time>2016-06-11T14:32:11Z</time>
      </trkpt>
      <trkpt lat="40.501733" lon="-4.839667">
        <ele>1972.0</ele>
        <time>2016-06-11T14:32:12Z</time>
      </trkpt>
      <trkpt lat="40.501800" lon="-4.839583">
        <ele>1970.0</ele>
        <time>2016-06-11T14:32:13Z</time>
      </trkpt>
      <trkpt lat="40.501867" lon="-4.839483">
        <ele>1968.0</ele>
        <time>2016-06-11T14:32:14Z</time>
      </trkpt>
      <trkpt lat="40.501917" lon="-4.839383">
        <ele>1967.0</ele>
        <time>2016-06-11T14:32:15Z</time>
      </trkpt>
      <trkpt lat="40.501967" lon="-4.839267">
        <ele>1969.0</ele>
        <time>2016-06-11T14:32:16Z</time>
      </trkpt>
      <trkpt lat="40.502000" lon="-4.839167">
        <ele>1972.0</ele>
        <time>2016-06-11T14:32:17Z</time>
      </trkpt>
      <trkpt lat="40.502017" lon="-4.839067">
        <ele>1973.0</ele>
        <time>2016-06-11T14:32:18Z</time>
      </trkpt>
      <trkpt lat="40.502067" lon="-4.838950">
        <ele>1973.0</ele>
        <time>2016-06-11T14:32:19Z</time>
      </trkpt>
      <trkpt lat="40.502117" lon="-4.838833">
        <ele>1971.0</ele>
        <time>2016-06-11T14:32:20Z</time>
      </trkpt>
      <trkpt lat="40.502167" lon="-4.838700">
        <ele>1970.0</ele>
        <time>2016-06-11T14:32:21Z</time>
      </trkpt>
      <trkpt lat="40.502200" lon="-4.838567">
        <ele>1971.0</ele>
        <time>2016-06-11T14:32:22Z</time>
      </trkpt>
      <trkpt lat="40.502217" lon="-4.838450">
        <ele>1973.0</ele>
        <time>2016-06-11T14:32:23Z</time>
      </trkpt>
      <trkpt lat="40.502233" lon="-4.838367">
        <ele>1974.0</ele>
        <time>2016-06-11T14:32:24Z</time>
      </trkpt>
      <trkpt lat="40.502267" lon="-4.838300">
        <ele>1974.0</ele>
        <time>2016-06-11T14:32:25Z</time>
      </trkpt>
      <trkpt lat="40.502283" lon="-4.838217">
        <ele>1971.0</ele>
        <time>2016-06-11T14:32:26Z</time>
      </trkpt>
      <trkpt lat="40.502317" lon="-4.838117">
        <ele>1968.0</ele>
        <time>2016-06-11T14:32:27Z</time>
      </trkpt>
      <trkpt lat="40.502367" lon="-4.838000">
        <ele>1965.0</ele>
        <time>2016-06-11T14:32:28Z</time>
      </trkpt>
      <trkpt lat="40.502400" lon="-4.837900">
        <ele>1963.0</ele>
        <time>2016-06-11T14:32:29Z</time>
      </trkpt>
      <trkpt lat="40.502433" lon="-4.837833">
        <ele>1962.0</ele>
        <time>2016-06-11T14:32:30Z</time>
      </trkpt>
      <trkpt lat="40.502467" lon="-4.837783">
        <ele>1961.0</ele>
        <time>2016-06-11T14:32:31Z</time>
      </trkpt>
      <trkpt lat="40.502500" lon="-4.837733">
        <ele>1959.0</ele>
        <time>2016-06-11T14:32:32Z</time>
      </trkpt>
      <trkpt lat="40.502533" lon="-4.837683">
        <ele>1957.0</ele>
        <time>2016-06-11T14:32:33Z</time>
      </trkpt>
      <trkpt lat="40.502550" lon="-4.837633">
        <ele>1956.0</ele>
        <time>2016-06-11T14:32:34Z</time>
      </trkpt>
      <trkpt lat="40.502583" lon="-4.837567">
        <ele>1954.0</ele>
        <time>2016-06-11T14:32:35Z</time>
      </trkpt>
      <trkpt lat="40.502617" lon="-4.837517">
        <ele>1952.0</ele>
        <time>2016-06-11T14:32:36Z</time>
      </trkpt>
      <trkpt lat="40.502650" lon="-4.837483">
        <ele>1947.0</ele>
        <time>2016-06-11T14:32:37Z</time>
      </trkpt>
      <trkpt lat="40.502717" lon="-4.837433">
        <ele>1943.0</ele>
        <time>2016-06-11T14:32:38Z</time>
      </trkpt>
      <trkpt lat="40.502783" lon="-4.837367">
        <ele>1940.0</ele>
        <time>2016-06-11T14:32:39Z</time>
      </trkpt>
      <trkpt lat="40.502850" lon="-4.837300">
        <ele>1938.0</ele>
        <time>2016-06-11T14:32:40Z</time>
      </trkpt>
      <trkpt lat="40.502900" lon="-4.837250">
        <ele>1937.0</ele>
        <time>2016-06-11T14:32:41Z</time>
      </trkpt>
      <trkpt lat="40.502950" lon="-4.837200">
        <ele>1939.0</ele>
        <time>2016-06-11T14:32:42Z</time>
      </trkpt>
      <trkpt lat="40.502967" lon="-4.837167">
        <ele>1941.0</ele>
        <time>2016-06-11T14:32:43Z</time>
      </trkpt>
      <trkpt lat="40.502967" lon="-4.837117">
        <ele>1941.0</ele>
        <time>2016-06-11T14:32:44Z</time>
      </trkpt>
      <trkpt lat="40.502983" lon="-4.837083">
        <ele>1939.0</ele>
        <time>2016-06-11T14:32:45Z</time>
      </trkpt>
      <trkpt lat="40.503033" lon="-4.837033">
        <ele>1935.0</ele>
        <time>2016-06-11T14:32:46Z</time>
      </trkpt>
      <trkpt lat="40.503100" lon="-4.837000">
        <ele>1930.0</ele>
        <time>2016-06-11T14:32:47Z</time>
      </trkpt>
      <trkpt lat="40.503167" lon="-4.836933">
        <ele>1926.0</ele>
        <time>2016-06-11T14:32:48Z</time>
      </trkpt>
      <trkpt lat="40.503233" lon="-4.836867">
        <ele>1926.0</ele>
        <time>2016-06-11T14:32:49Z</time>
      </trkpt>
      <trkpt lat="40.503267" lon="-4.836800">
        <ele>1927.0</ele>
        <time>2016-06-11T14:32:50Z</time>
      </trkpt>
      <trkpt lat="40.503283" lon="-4.836750">
        <ele>1935.0</ele>
        <time>2016-06-11T14:32:51Z</time>
      </trkpt>
      <trkpt lat="40.503283" lon="-4.836717">
        <ele>1940.0</ele>
        <time>2016-06-11T14:32:52Z</time>
      </trkpt>
      <trkpt lat="40.503283" lon="-4.836683">
        <ele>1943.0</ele>
        <time>2016-06-11T14:32:53Z</time>
      </trkpt>
      <trkpt lat="40.503300" lon="-4.836650">
        <ele>1945.0</ele>
        <time>2016-06-11T14:32:54Z</time>
      </trkpt>
      <trkpt lat="40.503317" lon="-4.836633">
        <ele>1945.0</ele>
        <time>2016-06-11T14:32:55Z</time>
      </trkpt>
      <trkpt lat="40.503350" lon="-4.836617">
        <ele>1946.0</ele>
        <time>2016-06-11T14:32:56Z</time>
      </trkpt>
      <trkpt lat="40.503367" lon="-4.836617">
        <ele>1947.0</ele>
        <time>2016-06-11T14:32:57Z</time>
      </trkpt>
      <trkpt lat="40.503367" lon="-4.836617">
        <ele>1950.0</ele>
        <time>2016-06-11T14:32:58Z</time>
      </trkpt>
      <trkpt lat="40.503400" lon="-4.836567">
        <ele>1952.0</ele>
        <time>2016-06-11T14:32:59Z</time>
      </trkpt>
      <trkpt lat="40.503433" lon="-4.836517">
        <ele>1953.0</ele>
        <time>2016-06-11T14:33:00Z</time>
      </trkpt>
      <trkpt lat="40.503467" lon="-4.836483">
        <ele>1952.0</ele>
        <time>2016-06-11T14:33:01Z</time>
      </trkpt>
      <trkpt lat="40.503500" lon="-4.836483">
        <ele>1952.0</ele>
        <time>2016-06-11T14:33:02Z</time>
      </trkpt>
      <trkpt lat="40.503500" lon="-4.836500">
        <ele>1952.0</ele>
        <time>2016-06-11T14:33:03Z</time>
      </trkpt>
      <trkpt lat="40.503517" lon="-4.836517">
        <ele>1953.0</ele>
        <time>2016-06-11T14:33:04Z</time>
      </trkpt>
      <trkpt lat="40.503550" lon="-4.836500">
        <ele>1953.0</ele>
        <time>2016-06-11T14:33:05Z</time>
      </trkpt>
      <trkpt lat="40.503583" lon="-4.836483">
        <ele>1954.0</ele>
        <time>2016-06-11T14:33:06Z</time>
      </trkpt>
      <trkpt lat="40.503617" lon="-4.836433">
        <ele>1954.0</ele>
        <time>2016-06-11T14:33:07Z</time>
      </trkpt>
      <trkpt lat="40.503650" lon="-4.836400">
        <ele>1954.0</ele>
        <time>2016-06-11T14:33:08Z</time>
      </trkpt>
      <trkpt lat="40.503683" lon="-4.836383">
        <ele>1955.0</ele>
        <time>2016-06-11T14:33:09Z</time>
      </trkpt>
      <trkpt lat="40.503683" lon="-4.836383">
        <ele>1956.0</ele>
        <time>2016-06-11T14:33:10Z</time>
      </trkpt>
      <trkpt lat="40.503700" lon="-4.836383">
        <ele>1956.0</ele>
        <time>2016-06-11T14:33:11Z</time>
      </trkpt>
      <trkpt lat="40.503717" lon="-4.836367">
        <ele>1957.0</ele>
        <time>2016-06-11T14:33:12Z</time>
      </trkpt>
      <trkpt lat="40.503733" lon="-4.836317">
        <ele>1956.0</ele>
        <time>2016-06-11T14:33:13Z</time>
      </trkpt>
      <trkpt lat="40.503767" lon="-4.836267">
        <ele>1956.0</ele>
        <time>2016-06-11T14:33:14Z</time>
      </trkpt>
      <trkpt lat="40.503783" lon="-4.836217">
        <ele>1955.0</ele>
        <time>2016-06-11T14:33:15Z</time>
      </trkpt>
      <trkpt lat="40.503817" lon="-4.836183">
        <ele>1954.0</ele>
        <time>2016-06-11T14:33:16Z</time>
      </trkpt>
      <trkpt lat="40.503833" lon="-4.836167">
        <ele>1954.0</ele>
        <time>2016-06-11T14:33:17Z</time>
      </trkpt>
      <trkpt lat="40.503850" lon="-4.836150">
        <ele>1953.0</ele>
        <time>2016-06-11T14:33:18Z</time>
      </trkpt>
      <trkpt lat="40.503850" lon="-4.836133">
        <ele>1953.0</ele>
        <time>2016-06-11T14:33:19Z</time>
      </trkpt>
      <trkpt lat="40.503867" lon="-4.836117">
        <ele>1954.0</ele>
        <time>2016-06-11T14:33:20Z</time>
      </trkpt>
      <trkpt lat="40.503900" lon="-4.836067">
        <ele>1953.0</ele>
        <time>2016-06-11T14:33:21Z</time>
      </trkpt>
      <trkpt lat="40.503933" lon="-4.836033">
        <ele>1952.0</ele>
        <time>2016-06-11T14:33:22Z</time>
      </trkpt>
      <trkpt lat="40.503967" lon="-4.835983">
        <ele>1952.0</ele>
        <time>2016-06-11T14:33:23Z</time>
      </trkpt>
      <trkpt lat="40.503983" lon="-4.835933">
        <ele>1951.0</ele>
        <time>2016-06-11T14:33:24Z</time>
      </trkpt>
      <trkpt lat="40.504000" lon="-4.835900">
        <ele>1951.0</ele>
        <time>2016-06-11T14:33:25Z</time>
      </trkpt>
      <trkpt lat="40.504017" lon="-4.835850">
        <ele>1949.0</ele>
        <time>2016-06-11T14:33:26Z</time>
      </trkpt>
      <trkpt lat="40.504050" lon="-4.835817">
        <ele>1945.0</ele>
        <time>2016-06-11T14:33:27Z</time>
      </trkpt>
      <trkpt lat="40.504083" lon="-4.835750">
        <ele>1939.0</ele>
        <time>2016-06-11T14:33:28Z</time>
      </trkpt>
      <trkpt lat="40.504150" lon="-4.835683">
        <ele>1935.0</ele>
        <time>2016-06-11T14:33:29Z</time>
      </trkpt>
      <trkpt lat="40.504200" lon="-4.835617">
        <ele>1932.0</ele>
        <time>2016-06-11T14:33:30Z</time>
      </trkpt>
      <trkpt lat="40.504233" lon="-4.835533">
        <ele>1931.0</ele>
        <time>2016-06-11T14:33:31Z</time>
      </trkpt>
      <trkpt lat="40.504267" lon="-4.835450">
        <ele>1931.0</ele>
        <time>2016-06-11T14:33:32Z</time>
      </trkpt>
      <trkpt lat="40.504300" lon="-4.835350">
        <ele>1929.0</ele>
        <time>2016-06-11T14:33:33Z</time>
      </trkpt>
      <trkpt lat="40.504333" lon="-4.835283">
        <ele>1927.0</ele>
        <time>2016-06-11T14:33:34Z</time>
      </trkpt>
      <trkpt lat="40.504367" lon="-4.835200">
        <ele>1924.0</ele>
        <time>2016-06-11T14:33:35Z</time>
      </trkpt>
      <trkpt lat="40.504417" lon="-4.835117">
        <ele>1921.0</ele>
        <time>2016-06-11T14:33:36Z</time>
      </trkpt>
      <trkpt lat="40.504467" lon="-4.835033">
        <ele>1918.0</ele>
        <time>2016-06-11T14:33:37Z</time>
      </trkpt>
      <trkpt lat="40.504500" lon="-4.834950">
        <ele>1915.0</ele>
        <time>2016-06-11T14:33:38Z</time>
      </trkpt>
      <trkpt lat="40.504533" lon="-4.834867">
        <ele>1912.0</ele>
        <time>2016-06-11T14:33:39Z</time>
      </trkpt>
      <trkpt lat="40.504583" lon="-4.834817">
        <ele>1909.0</ele>
        <time>2016-06-11T14:33:40Z</time>
      </trkpt>
      <trkpt lat="40.504633" lon="-4.834750">
        <ele>1906.0</ele>
        <time>2016-06-11T14:33:41Z</time>
      </trkpt>
      <trkpt lat="40.504683" lon="-4.834717">
        <ele>1904.0</ele>
        <time>2016-06-11T14:33:42Z</time>
      </trkpt>
      <trkpt lat="40.504717" lon="-4.834683">
        <ele>1902.0</ele>
        <time>2016-06-11T14:33:43Z</time>
      </trkpt>
      <trkpt lat="40.504750" lon="-4.834650">
        <ele>1901.0</ele>
        <time>2016-06-11T14:33:44Z</time>
      </trkpt>
      <trkpt lat="40.504783" lon="-4.834617">
        <ele>1900.0</ele>
        <time>2016-06-11T14:33:45Z</time>
      </trkpt>
      <trkpt lat="40.504833" lon="-4.834567">
        <ele>1897.0</ele>
        <time>2016-06-11T14:33:46Z</time>
      </trkpt>
      <trkpt lat="40.504883" lon="-4.834500">
        <ele>1894.0</ele>
        <time>2016-06-11T14:33:47Z</time>
      </trkpt>
      <trkpt lat="40.504933" lon="-4.834433">
        <ele>1892.0</ele>
        <time>2016-06-11T14:33:48Z</time>
      </trkpt>
      <trkpt lat="40.504983" lon="-4.834367">
        <ele>1891.0</ele>
        <time>2016-06-11T14:33:49Z</time>
      </trkpt>
      <trkpt lat="40.505017" lon="-4.834333">
        <ele>1893.0</ele>
        <time>2016-06-11T14:33:50Z</time>
      </trkpt>
      <trkpt lat="40.505050" lon="-4.834283">
        <ele>1894.0</ele>
        <time>2016-06-11T14:33:51Z</time>
      </trkpt>
      <trkpt lat="40.505067" lon="-4.834233">
        <ele>1894.0</ele>
        <time>2016-06-11T14:33:52Z</time>
      </trkpt>
      <trkpt lat="40.505117" lon="-4.834167">
        <ele>1892.0</ele>
        <time>2016-06-11T14:33:53Z</time>
      </trkpt>
      <trkpt lat="40.505167" lon="-4.834083">
        <ele>1890.0</ele>
        <time>2016-06-11T14:33:54Z</time>
      </trkpt>
      <trkpt lat="40.505217" lon="-4.834000">
        <ele>1888.0</ele>
        <time>2016-06-11T14:33:55Z</time>
      </trkpt>
      <trkpt lat="40.505250" lon="-4.833933">
        <ele>1888.0</ele>
        <time>2016-06-11T14:33:56Z</time>
      </trkpt>
      <trkpt lat="40.505300" lon="-4.833867">
        <ele>1888.0</ele>
        <time>2016-06-11T14:33:57Z</time>
      </trkpt>
      <trkpt lat="40.505333" lon="-4.833800">
        <ele>1888.0</ele>
        <time>2016-06-11T14:33:58Z</time>
      </trkpt>
      <trkpt lat="40.505350" lon="-4.833733">
        <ele>1888.0</ele>
        <time>2016-06-11T14:33:59Z</time>
      </trkpt>
      <trkpt lat="40.505383" lon="-4.833633">
        <ele>1887.0</ele>
        <time>2016-06-11T14:34:00Z</time>
      </trkpt>
      <trkpt lat="40.505433" lon="-4.833550">
        <ele>1884.0</ele>
        <time>2016-06-11T14:34:01Z</time>
      </trkpt>
      <trkpt lat="40.505483" lon="-4.833467">
        <ele>1881.0</ele>
        <time>2016-06-11T14:34:02Z</time>
      </trkpt>
      <trkpt lat="40.505533" lon="-4.833383">
        <ele>1879.0</ele>
        <time>2016-06-11T14:34:03Z</time>
      </trkpt>
      <trkpt lat="40.505567" lon="-4.833300">
        <ele>1877.0</ele>
        <time>2016-06-11T14:34:04Z</time>
      </trkpt>
      <trkpt lat="40.505617" lon="-4.833200">
        <ele>1875.0</ele>
        <time>2016-06-11T14:34:05Z</time>
      </trkpt>
      <trkpt lat="40.505650" lon="-4.833117">
        <ele>1874.0</ele>
        <time>2016-06-11T14:34:06Z</time>
      </trkpt>
      <trkpt lat="40.505700" lon="-4.833017">
        <ele>1871.0</ele>
        <time>2016-06-11T14:34:07Z</time>
      </trkpt>
      <trkpt lat="40.505750" lon="-4.832917">
        <ele>1868.0</ele>
        <time>2016-06-11T14:34:08Z</time>
      </trkpt>
      <trkpt lat="40.505800" lon="-4.832817">
        <ele>1864.0</ele>
        <time>2016-06-11T14:34:09Z</time>
      </trkpt>
      <trkpt lat="40.505867" lon="-4.832717">
        <ele>1860.0</ele>
        <time>2016-06-11T14:34:10Z</time>
      </trkpt>
      <trkpt lat="40.505933" lon="-4.832633">
        <ele>1856.0</ele>
        <time>2016-06-11T14:34:11Z</time>
      </trkpt>
      <trkpt lat="40.506000" lon="-4.832567">
        <ele>1854.0</ele>
        <time>2016-06-11T14:34:12Z</time>
      </trkpt>
      <trkpt lat="40.506050" lon="-4.832517">
        <ele>1853.0</ele>
        <time>2016-06-11T14:34:13Z</time>
      </trkpt>
      <trkpt lat="40.506100" lon="-4.832467">
        <ele>1851.0</ele>
        <time>2016-06-11T14:34:14Z</time>
      </trkpt>
      <trkpt lat="40.506150" lon="-4.832417">
        <ele>1849.0</ele>
        <time>2016-06-11T14:34:15Z</time>
      </trkpt>
      <trkpt lat="40.506200" lon="-4.832367">
        <ele>1847.0</ele>
        <time>2016-06-11T14:34:16Z</time>
      </trkpt>
      <trkpt lat="40.506250" lon="-4.832317">
        <ele>1844.0</ele>
        <time>2016-06-11T14:34:17Z</time>
      </trkpt>
      <trkpt lat="40.506300" lon="-4.832283">
        <ele>1840.0</ele>
        <time>2016-06-11T14:34:18Z</time>
      </trkpt>
      <trkpt lat="40.506367" lon="-4.832250">
        <ele>1837.0</ele>
        <time>2016-06-11T14:34:19Z</time>
      </trkpt>
      <trkpt lat="40.506417" lon="-4.832200">
        <ele>1833.0</ele>
        <time>2016-06-11T14:34:20Z</time>
      </trkpt>
      <trkpt lat="40.506483" lon="-4.832133">
        <ele>1830.0</ele>
        <time>2016-06-11T14:34:21Z</time>
      </trkpt>
      <trkpt lat="40.506550" lon="-4.832050">
        <ele>1826.0</ele>
        <time>2016-06-11T14:34:22Z</time>
      </trkpt>
      <trkpt lat="40.506617" lon="-4.832000">
        <ele>1823.0</ele>
        <time>2016-06-11T14:34:23Z</time>
      </trkpt>
      <trkpt lat="40.506683" lon="-4.831950">
        <ele>1819.0</ele>
        <time>2016-06-11T14:34:24Z</time>
      </trkpt>
      <trkpt lat="40.506750" lon="-4.831900">
        <ele>1816.0</ele>
        <time>2016-06-11T14:34:25Z</time>
      </trkpt>
      <trkpt lat="40.506833" lon="-4.831817">
        <ele>1812.0</ele>
        <time>2016-06-11T14:34:26Z</time>
      </trkpt>
      <trkpt lat="40.506900" lon="-4.831750">
        <ele>1809.0</ele>
        <time>2016-06-11T14:34:27Z</time>
      </trkpt>
      <trkpt lat="40.506967" lon="-4.831667">
        <ele>1805.0</ele>
        <time>2016-06-11T14:34:28Z</time>
      </trkpt>
      <trkpt lat="40.507050" lon="-4.831617">
        <ele>1802.0</ele>
        <time>2016-06-11T14:34:29Z</time>
      </trkpt>
      <trkpt lat="40.507150" lon="-4.831567">
        <ele>1798.0</ele>
        <time>2016-06-11T14:34:30Z</time>
      </trkpt>
      <trkpt lat="40.507233" lon="-4.831483">
        <ele>1796.0</ele>
        <time>2016-06-11T14:34:31Z</time>
      </trkpt>
      <trkpt lat="40.507317" lon="-4.831400">
        <ele>1797.0</ele>
        <time>2016-06-11T14:34:32Z</time>
      </trkpt>
      <trkpt lat="40.507367" lon="-4.831300">
        <ele>1798.0</ele>
        <time>2016-06-11T14:34:33Z</time>
      </trkpt>
      <trkpt lat="40.507417" lon="-4.831217">
        <ele>1798.0</ele>
        <time>2016-06-11T14:34:34Z</time>
      </trkpt>
      <trkpt lat="40.507483" lon="-4.831133">
        <ele>1797.0</ele>
        <time>2016-06-11T14:34:35Z</time>
      </trkpt>
      <trkpt lat="40.507550" lon="-4.831050">
        <ele>1795.0</ele>
        <time>2016-06-11T14:34:36Z</time>
      </trkpt>
      <trkpt lat="40.507617" lon="-4.830950">
        <ele>1791.0</ele>
        <time>2016-06-11T14:34:37Z</time>
      </trkpt>
      <trkpt lat="40.507683" lon="-4.830833">
        <ele>1789.0</ele>
        <time>2016-06-11T14:34:38Z</time>
      </trkpt>
      <trkpt lat="40.507750" lon="-4.830733">
        <ele>1788.0</ele>
        <time>2016-06-11T14:34:39Z</time>
      </trkpt>
      <trkpt lat="40.507800" lon="-4.830650">
        <ele>1787.0</ele>
        <time>2016-06-11T14:34:40Z</time>
      </trkpt>
      <trkpt lat="40.507867" lon="-4.830567">
        <ele>1786.0</ele>
        <time>2016-06-11T14:34:41Z</time>
      </trkpt>
      <trkpt lat="40.507933" lon="-4.830500">
        <ele>1783.0</ele>
        <time>2016-06-11T14:34:42Z</time>
      </trkpt>
      <trkpt lat="40.508000" lon="-4.830417">
        <ele>1779.0</ele>
        <time>2016-06-11T14:34:43Z</time>
      </trkpt>
      <trkpt lat="40.508067" lon="-4.830333">
        <ele>1775.0</ele>
        <time>2016-06-11T14:34:44Z</time>
      </trkpt>
      <trkpt lat="40.508150" lon="-4.830250">
        <ele>1771.0</ele>
        <time>2016-06-11T14:34:45Z</time>
      </trkpt>
      <trkpt lat="40.508233" lon="-4.830183">
        <ele>1768.0</ele>
        <time>2016-06-11T14:34:46Z</time>
      </trkpt>
      <trkpt lat="40.508317" lon="-4.830117">
        <ele>1767.0</ele>
        <time>2016-06-11T14:34:47Z</time>
      </trkpt>
      <trkpt lat="40.508400" lon="-4.830067">
        <ele>1765.0</ele>
        <time>2016-06-11T14:34:48Z</time>
      </trkpt>
      <trkpt lat="40.508483" lon="-4.830017">
        <ele>1764.0</ele>
        <time>2016-06-11T14:34:49Z</time>
      </trkpt>
      <trkpt lat="40.508550" lon="-4.829950">
        <ele>1763.0</ele>
        <time>2016-06-11T14:34:50Z</time>
      </trkpt>
      <trkpt lat="40.508633" lon="-4.829883">
        <ele>1760.0</ele>
        <time>2016-06-11T14:34:51Z</time>
      </trkpt>
      <trkpt lat="40.508733" lon="-4.829833">
        <ele>1757.0</ele>
        <time>2016-06-11T14:34:52Z</time>
      </trkpt>
      <trkpt lat="40.508817" lon="-4.829800">
        <ele>1755.0</ele>
        <time>2016-06-11T14:34:53Z</time>
      </trkpt>
      <trkpt lat="40.508900" lon="-4.829783">
        <ele>1753.0</ele>
        <time>2016-06-11T14:34:54Z</time>
      </trkpt>
      <trkpt lat="40.508983" lon="-4.829750">
        <ele>1752.0</ele>
        <time>2016-06-11T14:34:55Z</time>
      </trkpt>
      <trkpt lat="40.509050" lon="-4.829717">
        <ele>1750.0</ele>
        <time>2016-06-11T14:34:56Z</time>
      </trkpt>
      <trkpt lat="40.509117" lon="-4.829683">
        <ele>1749.0</ele>
        <time>2016-06-11T14:34:57Z</time>
      </trkpt>
      <trkpt lat="40.509200" lon="-4.829667">
        <ele>1746.0</ele>
        <time>2016-06-11T14:34:58Z</time>
      </trkpt>
      <trkpt lat="40.509267" lon="-4.829650">
        <ele>1744.0</ele>
        <time>2016-06-11T14:34:59Z</time>
      </trkpt>
      <trkpt lat="40.509350" lon="-4.829650">
        <ele>1741.0</ele>
        <time>2016-06-11T14:35:00Z</time>
      </trkpt>
      <trkpt lat="40.509417" lon="-4.829650">
        <ele>1739.0</ele>
        <time>2016-06-11T14:35:01Z</time>
      </trkpt>
      <trkpt lat="40.509500" lon="-4.829650">
        <ele>1737.0</ele>
        <time>2016-06-11T14:35:02Z</time>
      </trkpt>
      <trkpt lat="40.509567" lon="-4.829650">
        <ele>1736.0</ele>
        <time>2016-06-11T14:35:03Z</time>
      </trkpt>
      <trkpt lat="40.509617" lon="-4.829633">
        <ele>1736.0</ele>
        <time>2016-06-11T14:35:04Z</time>
      </trkpt>
      <trkpt lat="40.509667" lon="-4.829617">
        <ele>1735.0</ele>
        <time>2016-06-11T14:35:05Z</time>
      </trkpt>
      <trkpt lat="40.509717" lon="-4.829600">
        <ele>1734.0</ele>
        <time>2016-06-11T14:35:06Z</time>
      </trkpt>
      <trkpt lat="40.509783" lon="-4.829600">
        <ele>1731.0</ele>
        <time>2016-06-11T14:35:07Z</time>
      </trkpt>
      <trkpt lat="40.509850" lon="-4.829583">
        <ele>1727.0</ele>
        <time>2016-06-11T14:35:08Z</time>
      </trkpt>
      <trkpt lat="40.509933" lon="-4.829583">
        <ele>1724.0</ele>
        <time>2016-06-11T14:35:09Z</time>
      </trkpt>
      <trkpt lat="40.510017" lon="-4.829583">
        <ele>1721.0</ele>
        <time>2016-06-11T14:35:10Z</time>
      </trkpt>
      <trkpt lat="40.510083" lon="-4.829583">
        <ele>1721.0</ele>
        <time>2016-06-11T14:35:11Z</time>
      </trkpt>
      <trkpt lat="40.510150" lon="-4.829583">
        <ele>1721.0</ele>
        <time>2016-06-11T14:35:12Z</time>
      </trkpt>
      <trkpt lat="40.510200" lon="-4.829583">
        <ele>1722.0</ele>
        <time>2016-06-11T14:35:13Z</time>
      </trkpt>
      <trkpt lat="40.510250" lon="-4.829550">
        <ele>1722.0</ele>
        <time>2016-06-11T14:35:14Z</time>
      </trkpt>
      <trkpt lat="40.510300" lon="-4.829500">
        <ele>1720.0</ele>
        <time>2016-06-11T14:35:15Z</time>
      </trkpt>
      <trkpt lat="40.510383" lon="-4.829467">
        <ele>1717.0</ele>
        <time>2016-06-11T14:35:16Z</time>
      </trkpt>
      <trkpt lat="40.510467" lon="-4.829467">
        <ele>1714.0</ele>
        <time>2016-06-11T14:35:17Z</time>
      </trkpt>
      <trkpt lat="40.510550" lon="-4.829483">
        <ele>1712.0</ele>
        <time>2016-06-11T14:35:18Z</time>
      </trkpt>
      <trkpt lat="40.510617" lon="-4.829517">
        <ele>1711.0</ele>
        <time>2016-06-11T14:35:19Z</time>
      </trkpt>
      <trkpt lat="40.510683" lon="-4.829533">
        <ele>1711.0</ele>
        <time>2016-06-11T14:35:20Z</time>
      </trkpt>
      <trkpt lat="40.510733" lon="-4.829550">
        <ele>1710.0</ele>
        <time>2016-06-11T14:35:21Z</time>
      </trkpt>
      <trkpt lat="40.510800" lon="-4.829567">
        <ele>1710.0</ele>
        <time>2016-06-11T14:35:22Z</time>
      </trkpt>
      <trkpt lat="40.510867" lon="-4.829567">
        <ele>1709.0</ele>
        <time>2016-06-11T14:35:23Z</time>
      </trkpt>
      <trkpt lat="40.510933" lon="-4.829583">
        <ele>1708.0</ele>
        <time>2016-06-11T14:35:24Z</time>
      </trkpt>
      <trkpt lat="40.511000" lon="-4.829600">
        <ele>1706.0</ele>
        <time>2016-06-11T14:35:25Z</time>
      </trkpt>
      <trkpt lat="40.511067" lon="-4.829617">
        <ele>1705.0</ele>
        <time>2016-06-11T14:35:26Z</time>
      </trkpt>
      <trkpt lat="40.511133" lon="-4.829617">
        <ele>1704.0</ele>
        <time>2016-06-11T14:35:27Z</time>
      </trkpt>
      <trkpt lat="40.511167" lon="-4.829617">
        <ele>1705.0</ele>
        <time>2016-06-11T14:35:28Z</time>
      </trkpt>
      <trkpt lat="40.511200" lon="-4.829617">
        <ele>1708.0</ele>
        <time>2016-06-11T14:35:29Z</time>
      </trkpt>
      <trkpt lat="40.511217" lon="-4.829617">
        <ele>1708.0</ele>
        <time>2016-06-11T14:35:30Z</time>
      </trkpt>
      <trkpt lat="40.511267" lon="-4.829633">
        <ele>1707.0</ele>
        <time>2016-06-11T14:35:31Z</time>
      </trkpt>
      <trkpt lat="40.511317" lon="-4.829617">
        <ele>1705.0</ele>
        <time>2016-06-11T14:35:32Z</time>
      </trkpt>
      <trkpt lat="40.511383" lon="-4.829583">
        <ele>1705.0</ele>
        <time>2016-06-11T14:35:33Z</time>
      </trkpt>
      <trkpt lat="40.511417" lon="-4.829517">
        <ele>1707.0</ele>
        <time>2016-06-11T14:35:34Z</time>
      </trkpt>
      <trkpt lat="40.511433" lon="-4.829467">
        <ele>1710.0</ele>
        <time>2016-06-11T14:35:35Z</time>
      </trkpt>
      <trkpt lat="40.511450" lon="-4.829433">
        <ele>1710.0</ele>
        <time>2016-06-11T14:35:36Z</time>
      </trkpt>
      <trkpt lat="40.511483" lon="-4.829400">
        <ele>1709.0</ele>
        <time>2016-06-11T14:35:37Z</time>
      </trkpt>
      <trkpt lat="40.511533" lon="-4.829367">
        <ele>1706.0</ele>
        <time>2016-06-11T14:35:38Z</time>
      </trkpt>
      <trkpt lat="40.511583" lon="-4.829350">
        <ele>1704.0</ele>
        <time>2016-06-11T14:35:39Z</time>
      </trkpt>
      <trkpt lat="40.511617" lon="-4.829333">
        <ele>1704.0</ele>
        <time>2016-06-11T14:35:40Z</time>
      </trkpt>
      <trkpt lat="40.511633" lon="-4.829317">
        <ele>1705.0</ele>
        <time>2016-06-11T14:35:41Z</time>
      </trkpt>
      <trkpt lat="40.511667" lon="-4.829317">
        <ele>1705.0</ele>
        <time>2016-06-11T14:35:42Z</time>
      </trkpt>
      <trkpt lat="40.511700" lon="-4.829317">
        <ele>1704.0</ele>
        <time>2016-06-11T14:35:43Z</time>
      </trkpt>
      <trkpt lat="40.511750" lon="-4.829317">
        <ele>1703.0</ele>
        <time>2016-06-11T14:35:44Z</time>
      </trkpt>
      <trkpt lat="40.511800" lon="-4.829317">
        <ele>1702.0</ele>
        <time>2016-06-11T14:35:45Z</time>
      </trkpt>
      <trkpt lat="40.511850" lon="-4.829300">
        <ele>1702.0</ele>
        <time>2016-06-11T14:35:46Z</time>
      </trkpt>
      <trkpt lat="40.511883" lon="-4.829283">
        <ele>1703.0</ele>
        <time>2016-06-11T14:35:47Z</time>
      </trkpt>
      <trkpt lat="40.511933" lon="-4.829283">
        <ele>1704.0</ele>
        <time>2016-06-11T14:35:48Z</time>
      </trkpt>
      <trkpt lat="40.511950" lon="-4.829283">
        <ele>1706.0</ele>
        <time>2016-06-11T14:35:49Z</time>
      </trkpt>
      <trkpt lat="40.511967" lon="-4.829283">
        <ele>1707.0</ele>
        <time>2016-06-11T14:35:50Z</time>
      </trkpt>
      <trkpt lat="40.512000" lon="-4.829283">
        <ele>1708.0</ele>
        <time>2016-06-11T14:35:51Z</time>
      </trkpt>
      <trkpt lat="40.512033" lon="-4.829283">
        <ele>1707.0</ele>
        <time>2016-06-11T14:35:52Z</time>
      </trkpt>
      <trkpt lat="40.512083" lon="-4.829267">
        <ele>1706.0</ele>
        <time>2016-06-11T14:35:53Z</time>
      </trkpt>
      <trkpt lat="40.512133" lon="-4.829250">
        <ele>1704.0</ele>
        <time>2016-06-11T14:35:54Z</time>
      </trkpt>
      <trkpt lat="40.512183" lon="-4.829250">
        <ele>1703.0</ele>
        <time>2016-06-11T14:35:55Z</time>
      </trkpt>
      <trkpt lat="40.512233" lon="-4.829250">
        <ele>1702.0</ele>
        <time>2016-06-11T14:35:56Z</time>
      </trkpt>
      <trkpt lat="40.512267" lon="-4.829283">
        <ele>1702.0</ele>
        <time>2016-06-11T14:35:57Z</time>
      </trkpt>
      <trkpt lat="40.512300" lon="-4.829317">
        <ele>1701.0</ele>
        <time>2016-06-11T14:35:58Z</time>
      </trkpt>
      <trkpt lat="40.512333" lon="-4.829350">
        <ele>1701.0</ele>
        <time>2016-06-11T14:35:59Z</time>
      </trkpt>
      <trkpt lat="40.512367" lon="-4.829383">
        <ele>1700.0</ele>
        <time>2016-06-11T14:36:00Z</time>
      </trkpt>
      <trkpt lat="40.512400" lon="-4.829400">
        <ele>1700.0</ele>
        <time>2016-06-11T14:36:01Z</time>
      </trkpt>
      <trkpt lat="40.512417" lon="-4.829417">
        <ele>1699.0</ele>
        <time>2016-06-11T14:36:02Z</time>
      </trkpt>
      <trkpt lat="40.512450" lon="-4.829433">
        <ele>1699.0</ele>
        <time>2016-06-11T14:36:03Z</time>
      </trkpt>
      <trkpt lat="40.512483" lon="-4.829450">
        <ele>1698.0</ele>
        <time>2016-06-11T14:36:04Z</time>
      </trkpt>
      <trkpt lat="40.512533" lon="-4.829450">
        <ele>1697.0</ele>
        <time>2016-06-11T14:36:05Z</time>
      </trkpt>
      <trkpt lat="40.512583" lon="-4.829450">
        <ele>1695.0</ele>
        <time>2016-06-11T14:36:06Z</time>
      </trkpt>
      <trkpt lat="40.512633" lon="-4.829483">
        <ele>1694.0</ele>
        <time>2016-06-11T14:36:07Z</time>
      </trkpt>
      <trkpt lat="40.512667" lon="-4.829500">
        <ele>1694.0</ele>
        <time>2016-06-11T14:36:08Z</time>
      </trkpt>
      <trkpt lat="40.512683" lon="-4.829500">
        <ele>1697.0</ele>
        <time>2016-06-11T14:36:09Z</time>
      </trkpt>
      <trkpt lat="40.512683" lon="-4.829517">
        <ele>1700.0</ele>
        <time>2016-06-11T14:36:10Z</time>
      </trkpt>
      <trkpt lat="40.512700" lon="-4.829533">
        <ele>1702.0</ele>
        <time>2016-06-11T14:36:11Z</time>
      </trkpt>
      <trkpt lat="40.512733" lon="-4.829567">
        <ele>1701.0</ele>
        <time>2016-06-11T14:36:12Z</time>
      </trkpt>
      <trkpt lat="40.512767" lon="-4.829600">
        <ele>1701.0</ele>
        <time>2016-06-11T14:36:13Z</time>
      </trkpt>
      <trkpt lat="40.512800" lon="-4.829617">
        <ele>1704.0</ele>
        <time>2016-06-11T14:36:14Z</time>
      </trkpt>
      <trkpt lat="40.512817" lon="-4.829633">
        <ele>1708.0</ele>
        <time>2016-06-11T14:36:15Z</time>
      </trkpt>
      <trkpt lat="40.512833" lon="-4.829617">
        <ele>1712.0</ele>
        <time>2016-06-11T14:36:16Z</time>
      </trkpt>
      <trkpt lat="40.512850" lon="-4.829617">
        <ele>1714.0</ele>
        <time>2016-06-11T14:36:17Z</time>
      </trkpt>
      <trkpt lat="40.512867" lon="-4.829617">
        <ele>1714.0</ele>
        <time>2016-06-11T14:36:18Z</time>
      </trkpt>
      <trkpt lat="40.512900" lon="-4.829650">
        <ele>1713.0</ele>
        <time>2016-06-11T14:36:19Z</time>
      </trkpt>
      <trkpt lat="40.512950" lon="-4.829667">
        <ele>1711.0</ele>
        <time>2016-06-11T14:36:20Z</time>
      </trkpt>
      <trkpt lat="40.512983" lon="-4.829683">
        <ele>1712.0</ele>
        <time>2016-06-11T14:36:21Z</time>
      </trkpt>
      <trkpt lat="40.513017" lon="-4.829700">
        <ele>1714.0</ele>
        <time>2016-06-11T14:36:22Z</time>
      </trkpt>
      <trkpt lat="40.513050" lon="-4.829700">
        <ele>1715.0</ele>
        <time>2016-06-11T14:36:23Z</time>
      </trkpt>
      <trkpt lat="40.513083" lon="-4.829717">
        <ele>1716.0</ele>
        <time>2016-06-11T14:36:24Z</time>
      </trkpt>
      <trkpt lat="40.513117" lon="-4.829733">
        <ele>1716.0</ele>
        <time>2016-06-11T14:36:25Z</time>
      </trkpt>
      <trkpt lat="40.513167" lon="-4.829750">
        <ele>1717.0</ele>
        <time>2016-06-11T14:36:26Z</time>
      </trkpt>
      <trkpt lat="40.513183" lon="-4.829750">
        <ele>1718.0</ele>
        <time>2016-06-11T14:36:27Z</time>
      </trkpt>
      <trkpt lat="40.513217" lon="-4.829750">
        <ele>1719.0</ele>
        <time>2016-06-11T14:36:28Z</time>
      </trkpt>
      <trkpt lat="40.513233" lon="-4.829767">
        <ele>1720.0</ele>
        <time>2016-06-11T14:36:29Z</time>
      </trkpt>
      <trkpt lat="40.513267" lon="-4.829783">
        <ele>1720.0</ele>
        <time>2016-06-11T14:36:30Z</time>
      </trkpt>
      <trkpt lat="40.513300" lon="-4.829817">
        <ele>1721.0</ele>
        <time>2016-06-11T14:36:31Z</time>
      </trkpt>
      <trkpt lat="40.513317" lon="-4.829817">
        <ele>1724.0</ele>
        <time>2016-06-11T14:36:32Z</time>
      </trkpt>
      <trkpt lat="40.513333" lon="-4.829817">
        <ele>1727.0</ele>
        <time>2016-06-11T14:36:33Z</time>
      </trkpt>
      <trkpt lat="40.513350" lon="-4.829800">
        <ele>1729.0</ele>
        <time>2016-06-11T14:36:34Z</time>
      </trkpt>
      <trkpt lat="40.513367" lon="-4.829767">
        <ele>1730.0</ele>
        <time>2016-06-11T14:36:35Z</time>
      </trkpt>
      <trkpt lat="40.513383" lon="-4.829717">
        <ele>1730.0</ele>
        <time>2016-06-11T14:36:36Z</time>
      </trkpt>
      <trkpt lat="40.513383" lon="-4.829700">
        <ele>1731.0</ele>
        <time>2016-06-11T14:36:37Z</time>
      </trkpt>
      <trkpt lat="40.513367" lon="-4.829683">
        <ele>1732.0</ele>
        <time>2016-06-11T14:36:38Z</time>
      </trkpt>
      <trkpt lat="40.513350" lon="-4.829667">
        <ele>1731.0</ele>
        <time>2016-06-11T14:36:39Z</time>
      </trkpt>
      <trkpt lat="40.513350" lon="-4.829633">
        <ele>1730.0</ele>
        <time>2016-06-11T14:36:40Z</time>
      </trkpt>
      <trkpt lat="40.513383" lon="-4.829583">
        <ele>1729.0</ele>
        <time>2016-06-11T14:36:41Z</time>
      </trkpt>
      <trkpt lat="40.513400" lon="-4.829517">
        <ele>1728.0</ele>
        <time>2016-06-11T14:36:42Z</time>
      </trkpt>
      <trkpt lat="40.513400" lon="-4.829483">
        <ele>1728.0</ele>
        <time>2016-06-11T14:36:43Z</time>
      </trkpt>
      <trkpt lat="40.513400" lon="-4.829450">
        <ele>1729.0</ele>
        <time>2016-06-11T14:36:44Z</time>
      </trkpt>
      <trkpt lat="40.513400" lon="-4.829417">
        <ele>1729.0</ele>
        <time>2016-06-11T14:36:45Z</time>
      </trkpt>
      <trkpt lat="40.513400" lon="-4.829400">
        <ele>1729.0</ele>
        <time>2016-06-11T14:36:46Z</time>
      </trkpt>
      <trkpt lat="40.513400" lon="-4.829367">
        <ele>1729.0</ele>
        <time>2016-06-11T14:36:47Z</time>
      </trkpt>
      <trkpt lat="40.513433" lon="-4.829333">
        <ele>1728.0</ele>
        <time>2016-06-11T14:36:48Z</time>
      </trkpt>
      <trkpt lat="40.513467" lon="-4.829317">
        <ele>1728.0</ele>
        <time>2016-06-11T14:36:49Z</time>
      </trkpt>
      <trkpt lat="40.513500" lon="-4.829300">
        <ele>1728.0</ele>
        <time>2016-06-11T14:36:50Z</time>
      </trkpt>
      <trkpt lat="40.513517" lon="-4.829233">
        <ele>1730.0</ele>
        <time>2016-06-11T14:36:51Z</time>
      </trkpt>
      <trkpt lat="40.513533" lon="-4.829150">
        <ele>1731.0</ele>
        <time>2016-06-11T14:36:52Z</time>
      </trkpt>
      <trkpt lat="40.513550" lon="-4.829083">
        <ele>1732.0</ele>
        <time>2016-06-11T14:36:53Z</time>
      </trkpt>
      <trkpt lat="40.513567" lon="-4.829017">
        <ele>1733.0</ele>
        <time>2016-06-11T14:36:54Z</time>
      </trkpt>
      <trkpt lat="40.513567" lon="-4.828983">
        <ele>1734.0</ele>
        <time>2016-06-11T14:36:55Z</time>
      </trkpt>
      <trkpt lat="40.513583" lon="-4.828950">
        <ele>1735.0</ele>
        <time>2016-06-11T14:36:56Z</time>
      </trkpt>
      <trkpt lat="40.513600" lon="-4.828917">
        <ele>1736.0</ele>
        <time>2016-06-11T14:36:57Z</time>
      </trkpt>
      <trkpt lat="40.513633" lon="-4.828867">
        <ele>1737.0</ele>
        <time>2016-06-11T14:36:58Z</time>
      </trkpt>
      <trkpt lat="40.513667" lon="-4.828817">
        <ele>1739.0</ele>
        <time>2016-06-11T14:36:59Z</time>
      </trkpt>
      <trkpt lat="40.513700" lon="-4.828767">
        <ele>1741.0</ele>
        <time>2016-06-11T14:37:00Z</time>
      </trkpt>
      <trkpt lat="40.513717" lon="-4.828700">
        <ele>1743.0</ele>
        <time>2016-06-11T14:37:01Z</time>
      </trkpt>
      <trkpt lat="40.513733" lon="-4.828667">
        <ele>1744.0</ele>
        <time>2016-06-11T14:37:02Z</time>
      </trkpt>
      <trkpt lat="40.513767" lon="-4.828633">
        <ele>1744.0</ele>
        <time>2016-06-11T14:37:03Z</time>
      </trkpt>
      <trkpt lat="40.513783" lon="-4.828617">
        <ele>1745.0</ele>
        <time>2016-06-11T14:37:04Z</time>
      </trkpt>
      <trkpt lat="40.513800" lon="-4.828583">
        <ele>1746.0</ele>
        <time>2016-06-11T14:37:05Z</time>
      </trkpt>
      <trkpt lat="40.513817" lon="-4.828550">
        <ele>1748.0</ele>
        <time>2016-06-11T14:37:06Z</time>
      </trkpt>
      <trkpt lat="40.513817" lon="-4.828517">
        <ele>1750.0</ele>
        <time>2016-06-11T14:37:07Z</time>
      </trkpt>
      <trkpt lat="40.513833" lon="-4.828483">
        <ele>1751.0</ele>
        <time>2016-06-11T14:37:08Z</time>
      </trkpt>
      <trkpt lat="40.513850" lon="-4.828467">
        <ele>1751.0</ele>
        <time>2016-06-11T14:37:09Z</time>
      </trkpt>
      <trkpt lat="40.513867" lon="-4.828450">
        <ele>1750.0</ele>
        <time>2016-06-11T14:37:10Z</time>
      </trkpt>
      <trkpt lat="40.513883" lon="-4.828417">
        <ele>1750.0</ele>
        <time>2016-06-11T14:37:11Z</time>
      </trkpt>
      <trkpt lat="40.513900" lon="-4.828383">
        <ele>1751.0</ele>
        <time>2016-06-11T14:37:12Z</time>
      </trkpt>
      <trkpt lat="40.513900" lon="-4.828350">
        <ele>1752.0</ele>
        <time>2016-06-11T14:37:13Z</time>
      </trkpt>
      <trkpt lat="40.513900" lon="-4.828300">
        <ele>1753.0</ele>
        <time>2016-06-11T14:37:14Z</time>
      </trkpt>
      <trkpt lat="40.513900" lon="-4.828250">
        <ele>1752.0</ele>
        <time>2016-06-11T14:37:15Z</time>
      </trkpt>
      <trkpt lat="40.513933" lon="-4.828217">
        <ele>1750.0</ele>
        <time>2016-06-11T14:37:16Z</time>
      </trkpt>
      <trkpt lat="40.513967" lon="-4.828183">
        <ele>1747.0</ele>
        <time>2016-06-11T14:37:17Z</time>
      </trkpt>
      <trkpt lat="40.514000" lon="-4.828150">
        <ele>1745.0</ele>
        <time>2016-06-11T14:37:18Z</time>
      </trkpt>
      <trkpt lat="40.514033" lon="-4.828117">
        <ele>1744.0</ele>
        <time>2016-06-11T14:37:19Z</time>
      </trkpt>
      <trkpt lat="40.514050" lon="-4.828100">
        <ele>1744.0</ele>
        <time>2016-06-11T14:37:20Z</time>
      </trkpt>
      <trkpt lat="40.514083" lon="-4.828067">
        <ele>1744.0</ele>
        <time>2016-06-11T14:37:21Z</time>
      </trkpt>
      <trkpt lat="40.514100" lon="-4.828050">
        <ele>1743.0</ele>
        <time>2016-06-11T14:37:22Z</time>
      </trkpt>
      <trkpt lat="40.514117" lon="-4.828050">
        <ele>1742.0</ele>
        <time>2016-06-11T14:37:23Z</time>
      </trkpt>
      <trkpt lat="40.514150" lon="-4.828050">
        <ele>1740.0</ele>
        <time>2016-06-11T14:37:24Z</time>
      </trkpt>
      <trkpt lat="40.514183" lon="-4.828050">
        <ele>1738.0</ele>
        <time>2016-06-11T14:37:25Z</time>
      </trkpt>
      <trkpt lat="40.514233" lon="-4.828033">
        <ele>1737.0</ele>
        <time>2016-06-11T14:37:26Z</time>
      </trkpt>
      <trkpt lat="40.514267" lon="-4.828017">
        <ele>1736.0</ele>
        <time>2016-06-11T14:37:27Z</time>
      </trkpt>
      <trkpt lat="40.514300" lon="-4.828000">
        <ele>1735.0</ele>
        <time>2016-06-11T14:37:28Z</time>
      </trkpt>
      <trkpt lat="40.514333" lon="-4.827983">
        <ele>1735.0</ele>
        <time>2016-06-11T14:37:29Z</time>
      </trkpt>
      <trkpt lat="40.514367" lon="-4.827967">
        <ele>1734.0</ele>
        <time>2016-06-11T14:37:30Z</time>
      </trkpt>
      <trkpt lat="40.514400" lon="-4.827950">
        <ele>1734.0</ele>
        <time>2016-06-11T14:37:31Z</time>
      </trkpt>
      <trkpt lat="40.514433" lon="-4.827917">
        <ele>1732.0</ele>
        <time>2016-06-11T14:37:32Z</time>
      </trkpt>
      <trkpt lat="40.514483" lon="-4.827883">
        <ele>1729.0</ele>
        <time>2016-06-11T14:37:33Z</time>
      </trkpt>
      <trkpt lat="40.514533" lon="-4.827850">
        <ele>1726.0</ele>
        <time>2016-06-11T14:37:34Z</time>
      </trkpt>
      <trkpt lat="40.514600" lon="-4.827833">
        <ele>1723.0</ele>
        <time>2016-06-11T14:37:35Z</time>
      </trkpt>
      <trkpt lat="40.514667" lon="-4.827833">
        <ele>1721.0</ele>
        <time>2016-06-11T14:37:36Z</time>
      </trkpt>
      <trkpt lat="40.514717" lon="-4.827833">
        <ele>1719.0</ele>
        <time>2016-06-11T14:37:37Z</time>
      </trkpt>
      <trkpt lat="40.514767" lon="-4.827833">
        <ele>1719.0</ele>
        <time>2016-06-11T14:37:38Z</time>
      </trkpt>
      <trkpt lat="40.514800" lon="-4.827833">
        <ele>1718.0</ele>
        <time>2016-06-11T14:37:39Z</time>
      </trkpt>
      <trkpt lat="40.514850" lon="-4.827817">
        <ele>1717.0</ele>
        <time>2016-06-11T14:37:40Z</time>
      </trkpt>
      <trkpt lat="40.514900" lon="-4.827817">
        <ele>1716.0</ele>
        <time>2016-06-11T14:37:41Z</time>
      </trkpt>
      <trkpt lat="40.514933" lon="-4.827800">
        <ele>1714.0</ele>
        <time>2016-06-11T14:37:42Z</time>
      </trkpt>
      <trkpt lat="40.514983" lon="-4.827783">
        <ele>1713.0</ele>
        <time>2016-06-11T14:37:43Z</time>
      </trkpt>
      <trkpt lat="40.515050" lon="-4.827750">
        <ele>1711.0</ele>
        <time>2016-06-11T14:37:44Z</time>
      </trkpt>
      <trkpt lat="40.515083" lon="-4.827733">
        <ele>1710.0</ele>
        <time>2016-06-11T14:37:45Z</time>
      </trkpt>
      <trkpt lat="40.515133" lon="-4.827717">
        <ele>1708.0</ele>
        <time>2016-06-11T14:37:46Z</time>
      </trkpt>
      <trkpt lat="40.515183" lon="-4.827700">
        <ele>1706.0</ele>
        <time>2016-06-11T14:37:47Z</time>
      </trkpt>
      <trkpt lat="40.515233" lon="-4.827700">
        <ele>1704.0</ele>
        <time>2016-06-11T14:37:48Z</time>
      </trkpt>
      <trkpt lat="40.515267" lon="-4.827683">
        <ele>1702.0</ele>
        <time>2016-06-11T14:37:49Z</time>
      </trkpt>
      <trkpt lat="40.515317" lon="-4.827650">
        <ele>1701.0</ele>
        <time>2016-06-11T14:37:50Z</time>
      </trkpt>
      <trkpt lat="40.515383" lon="-4.827633">
        <ele>1699.0</ele>
        <time>2016-06-11T14:37:51Z</time>
      </trkpt>
      <trkpt lat="40.515433" lon="-4.827600">
        <ele>1698.0</ele>
        <time>2016-06-11T14:37:52Z</time>
      </trkpt>
      <trkpt lat="40.515500" lon="-4.827583">
        <ele>1697.0</ele>
        <time>2016-06-11T14:37:53Z</time>
      </trkpt>
      <trkpt lat="40.515550" lon="-4.827583">
        <ele>1696.0</ele>
        <time>2016-06-11T14:37:54Z</time>
      </trkpt>
      <trkpt lat="40.515600" lon="-4.827567">
        <ele>1695.0</ele>
        <time>2016-06-11T14:37:55Z</time>
      </trkpt>
      <trkpt lat="40.515667" lon="-4.827533">
        <ele>1694.0</ele>
        <time>2016-06-11T14:37:56Z</time>
      </trkpt>
      <trkpt lat="40.515717" lon="-4.827517">
        <ele>1693.0</ele>
        <time>2016-06-11T14:37:57Z</time>
      </trkpt>
      <trkpt lat="40.515767" lon="-4.827500">
        <ele>1692.0</ele>
        <time>2016-06-11T14:37:58Z</time>
      </trkpt>
      <trkpt lat="40.515817" lon="-4.827467">
        <ele>1691.0</ele>
        <time>2016-06-11T14:37:59Z</time>
      </trkpt>
      <trkpt lat="40.515883" lon="-4.827433">
        <ele>1690.0</ele>
        <time>2016-06-11T14:38:00Z</time>
      </trkpt>
      <trkpt lat="40.515950" lon="-4.827400">
        <ele>1688.0</ele>
        <time>2016-06-11T14:38:01Z</time>
      </trkpt>
      <trkpt lat="40.516017" lon="-4.827367">
        <ele>1686.0</ele>
        <time>2016-06-11T14:38:02Z</time>
      </trkpt>
      <trkpt lat="40.516067" lon="-4.827333">
        <ele>1685.0</ele>
        <time>2016-06-11T14:38:03Z</time>
      </trkpt>
      <trkpt lat="40.516133" lon="-4.827300">
        <ele>1683.0</ele>
        <time>2016-06-11T14:38:04Z</time>
      </trkpt>
      <trkpt lat="40.516200" lon="-4.827267">
        <ele>1681.0</ele>
        <time>2016-06-11T14:38:05Z</time>
      </trkpt>
      <trkpt lat="40.516267" lon="-4.827233">
        <ele>1680.0</ele>
        <time>2016-06-11T14:38:06Z</time>
      </trkpt>
      <trkpt lat="40.516333" lon="-4.827200">
        <ele>1678.0</ele>
        <time>2016-06-11T14:38:07Z</time>
      </trkpt>
      <trkpt lat="40.516383" lon="-4.827167">
        <ele>1677.0</ele>
        <time>2016-06-11T14:38:08Z</time>
      </trkpt>
      <trkpt lat="40.516450" lon="-4.827133">
        <ele>1675.0</ele>
        <time>2016-06-11T14:38:09Z</time>
      </trkpt>
      <trkpt lat="40.516517" lon="-4.827100">
        <ele>1673.0</ele>
        <time>2016-06-11T14:38:10Z</time>
      </trkpt>
      <trkpt lat="40.516583" lon="-4.827050">
        <ele>1670.0</ele>
        <time>2016-06-11T14:38:11Z</time>
      </trkpt>
      <trkpt lat="40.516650" lon="-4.827017">
        <ele>1669.0</ele>
        <time>2016-06-11T14:38:12Z</time>
      </trkpt>
      <trkpt lat="40.516717" lon="-4.827000">
        <ele>1666.0</ele>
        <time>2016-06-11T14:38:13Z</time>
      </trkpt>
      <trkpt lat="40.516800" lon="-4.827000">
        <ele>1664.0</ele>
        <time>2016-06-11T14:38:14Z</time>
      </trkpt>
      <trkpt lat="40.516850" lon="-4.827000">
        <ele>1662.0</ele>
        <time>2016-06-11T14:38:15Z</time>
      </trkpt>
      <trkpt lat="40.516917" lon="-4.827017">
        <ele>1660.0</ele>
        <time>2016-06-11T14:38:16Z</time>
      </trkpt>
      <trkpt lat="40.516967" lon="-4.827033">
        <ele>1658.0</ele>
        <time>2016-06-11T14:38:17Z</time>
      </trkpt>
      <trkpt lat="40.517017" lon="-4.827050">
        <ele>1655.0</ele>
        <time>2016-06-11T14:38:18Z</time>
      </trkpt>
      <trkpt lat="40.517083" lon="-4.827083">
        <ele>1652.0</ele>
        <time>2016-06-11T14:38:19Z</time>
      </trkpt>
      <trkpt lat="40.517133" lon="-4.827117">
        <ele>1650.0</ele>
        <time>2016-06-11T14:38:20Z</time>
      </trkpt>
      <trkpt lat="40.517183" lon="-4.827167">
        <ele>1647.0</ele>
        <time>2016-06-11T14:38:21Z</time>
      </trkpt>
      <trkpt lat="40.517217" lon="-4.827200">
        <ele>1645.0</ele>
        <time>2016-06-11T14:38:22Z</time>
      </trkpt>
      <trkpt lat="40.517250" lon="-4.827250">
        <ele>1643.0</ele>
        <time>2016-06-11T14:38:23Z</time>
      </trkpt>
      <trkpt lat="40.517300" lon="-4.827283">
        <ele>1641.0</ele>
        <time>2016-06-11T14:38:24Z</time>
      </trkpt>
      <trkpt lat="40.517350" lon="-4.827333">
        <ele>1639.0</ele>
        <time>2016-06-11T14:38:25Z</time>
      </trkpt>
      <trkpt lat="40.517400" lon="-4.827367">
        <ele>1636.0</ele>
        <time>2016-06-11T14:38:26Z</time>
      </trkpt>
      <trkpt lat="40.517450" lon="-4.827400">
        <ele>1633.0</ele>
        <time>2016-06-11T14:38:27Z</time>
      </trkpt>
      <trkpt lat="40.517500" lon="-4.827417">
        <ele>1630.0</ele>
        <time>2016-06-11T14:38:28Z</time>
      </trkpt>
      <trkpt lat="40.517550" lon="-4.827433">
        <ele>1628.0</ele>
        <time>2016-06-11T14:38:29Z</time>
      </trkpt>
      <trkpt lat="40.517600" lon="-4.827450">
        <ele>1625.0</ele>
        <time>2016-06-11T14:38:30Z</time>
      </trkpt>
      <trkpt lat="40.517650" lon="-4.827450">
        <ele>1622.0</ele>
        <time>2016-06-11T14:38:31Z</time>
      </trkpt>
      <trkpt lat="40.517700" lon="-4.827467">
        <ele>1619.0</ele>
        <time>2016-06-11T14:38:32Z</time>
      </trkpt>
      <trkpt lat="40.517767" lon="-4.827483">
        <ele>1615.0</ele>
        <time>2016-06-11T14:38:33Z</time>
      </trkpt>
      <trkpt lat="40.517833" lon="-4.827483">
        <ele>1611.0</ele>
        <time>2016-06-11T14:38:34Z</time>
      </trkpt>
      <trkpt lat="40.517900" lon="-4.827500">
        <ele>1607.0</ele>
        <time>2016-06-11T14:38:35Z</time>
      </trkpt>
      <trkpt lat="40.517950" lon="-4.827517">
        <ele>1604.0</ele>
        <time>2016-06-11T14:38:36Z</time>
      </trkpt>
      <trkpt lat="40.518017" lon="-4.827533">
        <ele>1600.0</ele>
        <time>2016-06-11T14:38:37Z</time>
      </trkpt>
      <trkpt lat="40.518083" lon="-4.827533">
        <ele>1597.0</ele>
        <time>2016-06-11T14:38:38Z</time>
      </trkpt>
      <trkpt lat="40.518167" lon="-4.827517">
        <ele>1594.0</ele>
        <time>2016-06-11T14:38:39Z</time>
      </trkpt>
      <trkpt lat="40.518233" lon="-4.827500">
        <ele>1590.0</ele>
        <time>2016-06-11T14:38:40Z</time>
      </trkpt>
      <trkpt lat="40.518317" lon="-4.827483">
        <ele>1587.0</ele>
        <time>2016-06-11T14:38:41Z</time>
      </trkpt>
      <trkpt lat="40.518383" lon="-4.827483">
        <ele>1584.0</ele>
        <time>2016-06-11T14:38:42Z</time>
      </trkpt>
      <trkpt lat="40.518467" lon="-4.827450">
        <ele>1581.0</ele>
        <time>2016-06-11T14:38:43Z</time>
      </trkpt>
      <trkpt lat="40.518533" lon="-4.827433">
        <ele>1579.0</ele>
        <time>2016-06-11T14:38:44Z</time>
      </trkpt>
      <trkpt lat="40.518617" lon="-4.827417">
        <ele>1576.0</ele>
        <time>2016-06-11T14:38:45Z</time>
      </trkpt>
      <trkpt lat="40.518700" lon="-4.827400">
        <ele>1574.0</ele>
        <time>2016-06-11T14:38:46Z</time>
      </trkpt>
      <trkpt lat="40.518783" lon="-4.827383">
        <ele>1570.0</ele>
        <time>2016-06-11T14:38:47Z</time>
      </trkpt>
      <trkpt lat="40.518867" lon="-4.827350">
        <ele>1567.0</ele>
        <time>2016-06-11T14:38:48Z</time>
      </trkpt>
      <trkpt lat="40.518950" lon="-4.827317">
        <ele>1563.0</ele>
        <time>2016-06-11T14:38:49Z</time>
      </trkpt>
      <trkpt lat="40.519017" lon="-4.827283">
        <ele>1560.0</ele>
        <time>2016-06-11T14:38:50Z</time>
      </trkpt>
      <trkpt lat="40.519100" lon="-4.827250">
        <ele>1557.0</ele>
        <time>2016-06-11T14:38:51Z</time>
      </trkpt>
      <trkpt lat="40.519167" lon="-4.827233">
        <ele>1553.0</ele>
        <time>2016-06-11T14:38:52Z</time>
      </trkpt>
      <trkpt lat="40.519250" lon="-4.827200">
        <ele>1550.0</ele>
        <time>2016-06-11T14:38:53Z</time>
      </trkpt>
      <trkpt lat="40.519317" lon="-4.827183">
        <ele>1545.0</ele>
        <time>2016-06-11T14:38:54Z</time>
      </trkpt>
      <trkpt lat="40.519383" lon="-4.827183">
        <ele>1541.0</ele>
        <time>2016-06-11T14:38:55Z</time>
      </trkpt>
      <trkpt lat="40.519450" lon="-4.827183">
        <ele>1536.0</ele>
        <time>2016-06-11T14:38:56Z</time>
      </trkpt>
      <trkpt lat="40.519533" lon="-4.827217">
        <ele>1532.0</ele>
        <time>2016-06-11T14:38:57Z</time>
      </trkpt>
      <trkpt lat="40.519600" lon="-4.827233">
        <ele>1528.0</ele>
        <time>2016-06-11T14:38:58Z</time>
      </trkpt>
      <trkpt lat="40.519667" lon="-4.827283">
        <ele>1525.0</ele>
        <time>2016-06-11T14:38:59Z</time>
      </trkpt>
      <trkpt lat="40.519733" lon="-4.827300">
        <ele>1522.0</ele>
        <time>2016-06-11T14:39:00Z</time>
      </trkpt>
      <trkpt lat="40.519767" lon="-4.827317">
        <ele>1520.0</ele>
        <time>2016-06-11T14:39:01Z</time>
      </trkpt>
      <trkpt lat="40.519783" lon="-4.827300">
        <ele>1520.0</ele>
        <time>2016-06-11T14:39:02Z</time>
      </trkpt>
      <trkpt lat="40.519800" lon="-4.827267">
        <ele>1521.0</ele>
        <time>2016-06-11T14:39:03Z</time>
      </trkpt>
      <trkpt lat="40.519800" lon="-4.827250">
        <ele>1519.0</ele>
        <time>2016-06-11T14:39:04Z</time>
      </trkpt>
      <trkpt lat="40.519817" lon="-4.827250">
        <ele>1515.0</ele>
        <time>2016-06-11T14:39:05Z</time>
      </trkpt>
      <trkpt lat="40.519867" lon="-4.827283">
        <ele>1508.0</ele>
        <time>2016-06-11T14:39:06Z</time>
      </trkpt>
      <trkpt lat="40.519917" lon="-4.827317">
        <ele>1504.0</ele>
        <time>2016-06-11T14:39:07Z</time>
      </trkpt>
      <trkpt lat="40.519983" lon="-4.827333">
        <ele>1502.0</ele>
        <time>2016-06-11T14:39:08Z</time>
      </trkpt>
      <trkpt lat="40.520017" lon="-4.827350">
        <ele>1502.0</ele>
        <time>2016-06-11T14:39:09Z</time>
      </trkpt>
      <trkpt lat="40.520067" lon="-4.827350">
        <ele>1502.0</ele>
        <time>2016-06-11T14:39:10Z</time>
      </trkpt>
      <trkpt lat="40.520100" lon="-4.827367">
        <ele>1502.0</ele>
        <time>2016-06-11T14:39:11Z</time>
      </trkpt>
      <trkpt lat="40.520150" lon="-4.827367">
        <ele>1500.0</ele>
        <time>2016-06-11T14:39:12Z</time>
      </trkpt>
      <trkpt lat="40.520200" lon="-4.827383">
        <ele>1499.0</ele>
        <time>2016-06-11T14:39:13Z</time>
      </trkpt>
      <trkpt lat="40.520267" lon="-4.827400">
        <ele>1498.0</ele>
        <time>2016-06-11T14:39:14Z</time>
      </trkpt>
      <trkpt lat="40.520317" lon="-4.827417">
        <ele>1498.0</ele>
        <time>2016-06-11T14:39:15Z</time>
      </trkpt>
      <trkpt lat="40.520367" lon="-4.827433">
        <ele>1499.0</ele>
        <time>2016-06-11T14:39:16Z</time>
      </trkpt>
      <trkpt lat="40.520433" lon="-4.827433">
        <ele>1500.0</ele>
        <time>2016-06-11T14:39:17Z</time>
      </trkpt>
      <trkpt lat="40.520500" lon="-4.827417">
        <ele>1500.0</ele>
        <time>2016-06-11T14:39:18Z</time>
      </trkpt>
      <trkpt lat="40.520550" lon="-4.827417">
        <ele>1500.0</ele>
        <time>2016-06-11T14:39:19Z</time>
      </trkpt>
      <trkpt lat="40.520617" lon="-4.827383">
        <ele>1501.0</ele>
        <time>2016-06-11T14:39:20Z</time>
      </trkpt>
      <trkpt lat="40.520683" lon="-4.827350">
        <ele>1501.0</ele>
        <time>2016-06-11T14:39:21Z</time>
      </trkpt>
      <trkpt lat="40.520733" lon="-4.827300">
        <ele>1503.0</ele>
        <time>2016-06-11T14:39:22Z</time>
      </trkpt>
      <trkpt lat="40.520750" lon="-4.827267">
        <ele>1506.0</ele>
        <time>2016-06-11T14:39:23Z</time>
      </trkpt>
      <trkpt lat="40.520767" lon="-4.827250">
        <ele>1508.0</ele>
        <time>2016-06-11T14:39:24Z</time>
      </trkpt>
      <trkpt lat="40.520783" lon="-4.827217">
        <ele>1510.0</ele>
        <time>2016-06-11T14:39:25Z</time>
      </trkpt>
      <trkpt lat="40.520817" lon="-4.827200">
        <ele>1509.0</ele>
        <time>2016-06-11T14:39:26Z</time>
      </trkpt>
      <trkpt lat="40.520867" lon="-4.827167">
        <ele>1505.0</ele>
        <time>2016-06-11T14:39:27Z</time>
      </trkpt>
      <trkpt lat="40.520933" lon="-4.827133">
        <ele>1502.0</ele>
        <time>2016-06-11T14:39:28Z</time>
      </trkpt>
      <trkpt lat="40.521000" lon="-4.827117">
        <ele>1499.0</ele>
        <time>2016-06-11T14:39:29Z</time>
      </trkpt>
      <trkpt lat="40.521067" lon="-4.827100">
        <ele>1498.0</ele>
        <time>2016-06-11T14:39:30Z</time>
      </trkpt>
      <trkpt lat="40.521117" lon="-4.827083">
        <ele>1498.0</ele>
        <time>2016-06-11T14:39:31Z</time>
      </trkpt>
      <trkpt lat="40.521167" lon="-4.827050">
        <ele>1498.0</ele>
        <time>2016-06-11T14:39:32Z</time>
      </trkpt>
      <trkpt lat="40.521217" lon="-4.827033">
        <ele>1497.0</ele>
        <time>2016-06-11T14:39:33Z</time>
      </trkpt>
      <trkpt lat="40.521283" lon="-4.827017">
        <ele>1495.0</ele>
        <time>2016-06-11T14:39:34Z</time>
      </trkpt>
      <trkpt lat="40.521350" lon="-4.826983">
        <ele>1492.0</ele>
        <time>2016-06-11T14:39:35Z</time>
      </trkpt>
      <trkpt lat="40.521417" lon="-4.826933">
        <ele>1489.0</ele>
        <time>2016-06-11T14:39:36Z</time>
      </trkpt>
      <trkpt lat="40.521483" lon="-4.826900">
        <ele>1487.0</ele>
        <time>2016-06-11T14:39:37Z</time>
      </trkpt>
      <trkpt lat="40.521550" lon="-4.826850">
        <ele>1486.0</ele>
        <time>2016-06-11T14:39:38Z</time>
      </trkpt>
      <trkpt lat="40.521617" lon="-4.826817">
        <ele>1486.0</ele>
        <time>2016-06-11T14:39:39Z</time>
      </trkpt>
      <trkpt lat="40.521667" lon="-4.826767">
        <ele>1485.0</ele>
        <time>2016-06-11T14:39:40Z</time>
      </trkpt>
      <trkpt lat="40.521733" lon="-4.826717">
        <ele>1483.0</ele>
        <time>2016-06-11T14:39:41Z</time>
      </trkpt>
      <trkpt lat="40.521800" lon="-4.826650">
        <ele>1481.0</ele>
        <time>2016-06-11T14:39:42Z</time>
      </trkpt>
      <trkpt lat="40.521850" lon="-4.826567">
        <ele>1479.0</ele>
        <time>2016-06-11T14:39:43Z</time>
      </trkpt>
      <trkpt lat="40.521883" lon="-4.826517">
        <ele>1479.0</ele>
        <time>2016-06-11T14:39:44Z</time>
      </trkpt>
      <trkpt lat="40.521933" lon="-4.826483">
        <ele>1479.0</ele>
        <time>2016-06-11T14:39:45Z</time>
      </trkpt>
      <trkpt lat="40.521967" lon="-4.826467">
        <ele>1477.0</ele>
        <time>2016-06-11T14:39:46Z</time>
      </trkpt>
      <trkpt lat="40.522017" lon="-4.826467">
        <ele>1475.0</ele>
        <time>2016-06-11T14:39:47Z</time>
      </trkpt>
      <trkpt lat="40.522083" lon="-4.826450">
        <ele>1472.0</ele>
        <time>2016-06-11T14:39:48Z</time>
      </trkpt>
      <trkpt lat="40.522150" lon="-4.826400">
        <ele>1469.0</ele>
        <time>2016-06-11T14:39:49Z</time>
      </trkpt>
      <trkpt lat="40.522200" lon="-4.826367">
        <ele>1468.0</ele>
        <time>2016-06-11T14:39:50Z</time>
      </trkpt>
      <trkpt lat="40.522233" lon="-4.826333">
        <ele>1467.0</ele>
        <time>2016-06-11T14:39:51Z</time>
      </trkpt>
      <trkpt lat="40.522283" lon="-4.826317">
        <ele>1466.0</ele>
        <time>2016-06-11T14:39:52Z</time>
      </trkpt>
      <trkpt lat="40.522333" lon="-4.826300">
        <ele>1464.0</ele>
        <time>2016-06-11T14:39:53Z</time>
      </trkpt>
      <trkpt lat="40.522383" lon="-4.826283">
        <ele>1463.0</ele>
        <time>2016-06-11T14:39:54Z</time>
      </trkpt>
      <trkpt lat="40.522433" lon="-4.826250">
        <ele>1462.0</ele>
        <time>2016-06-11T14:39:55Z</time>
      </trkpt>
      <trkpt lat="40.522467" lon="-4.826217">
        <ele>1462.0</ele>
        <time>2016-06-11T14:39:56Z</time>
      </trkpt>
      <trkpt lat="40.522533" lon="-4.826167">
        <ele>1462.0</ele>
        <time>2016-06-11T14:39:57Z</time>
      </trkpt>
      <trkpt lat="40.522583" lon="-4.826100">
        <ele>1462.0</ele>
        <time>2016-06-11T14:39:58Z</time>
      </trkpt>
      <trkpt lat="40.522617" lon="-4.826017">
        <ele>1464.0</ele>
        <time>2016-06-11T14:39:59Z</time>
      </trkpt>
      <trkpt lat="40.522650" lon="-4.825917">
        <ele>1466.0</ele>
        <time>2016-06-11T14:40:00Z</time>
      </trkpt>
      <trkpt lat="40.522683" lon="-4.825850">
        <ele>1467.0</ele>
        <time>2016-06-11T14:40:01Z</time>
      </trkpt>
      <trkpt lat="40.522717" lon="-4.825817">
        <ele>1469.0</ele>
        <time>2016-06-11T14:40:02Z</time>
      </trkpt>
      <trkpt lat="40.522767" lon="-4.825783">
        <ele>1469.0</ele>
        <time>2016-06-11T14:40:03Z</time>
      </trkpt>
      <trkpt lat="40.522817" lon="-4.825733">
        <ele>1469.0</ele>
        <time>2016-06-11T14:40:04Z</time>
      </trkpt>
      <trkpt lat="40.522867" lon="-4.825683">
        <ele>1469.0</ele>
        <time>2016-06-11T14:40:05Z</time>
      </trkpt>
      <trkpt lat="40.522900" lon="-4.825633">
        <ele>1470.0</ele>
        <time>2016-06-11T14:40:06Z</time>
      </trkpt>
      <trkpt lat="40.522933" lon="-4.825583">
        <ele>1471.0</ele>
        <time>2016-06-11T14:40:07Z</time>
      </trkpt>
      <trkpt lat="40.522967" lon="-4.825550">
        <ele>1473.0</ele>
        <time>2016-06-11T14:40:08Z</time>
      </trkpt>
      <trkpt lat="40.523017" lon="-4.825500">
        <ele>1473.0</ele>
        <time>2016-06-11T14:40:09Z</time>
      </trkpt>
      <trkpt lat="40.523050" lon="-4.825450">
        <ele>1474.0</ele>
        <time>2016-06-11T14:40:10Z</time>
      </trkpt>
      <trkpt lat="40.523083" lon="-4.825417">
        <ele>1476.0</ele>
        <time>2016-06-11T14:40:11Z</time>
      </trkpt>
      <trkpt lat="40.523117" lon="-4.825383">
        <ele>1477.0</ele>
        <time>2016-06-11T14:40:12Z</time>
      </trkpt>
      <trkpt lat="40.523150" lon="-4.825367">
        <ele>1477.0</ele>
        <time>2016-06-11T14:40:13Z</time>
      </trkpt>
      <trkpt lat="40.523200" lon="-4.825350">
        <ele>1478.0</ele>
        <time>2016-06-11T14:40:14Z</time>
      </trkpt>
      <trkpt lat="40.523250" lon="-4.825300">
        <ele>1478.0</ele>
        <time>2016-06-11T14:40:15Z</time>
      </trkpt>
      <trkpt lat="40.523300" lon="-4.825267">
        <ele>1479.0</ele>
        <time>2016-06-11T14:40:16Z</time>
      </trkpt>
      <trkpt lat="40.523333" lon="-4.825217">
        <ele>1481.0</ele>
        <time>2016-06-11T14:40:17Z</time>
      </trkpt>
      <trkpt lat="40.523367" lon="-4.825183">
        <ele>1482.0</ele>
        <time>2016-06-11T14:40:18Z</time>
      </trkpt>
      <trkpt lat="40.523383" lon="-4.825150">
        <ele>1482.0</ele>
        <time>2016-06-11T14:40:19Z</time>
      </trkpt>
      <trkpt lat="40.523433" lon="-4.825117">
        <ele>1480.0</ele>
        <time>2016-06-11T14:40:20Z</time>
      </trkpt>
      <trkpt lat="40.523467" lon="-4.825067">
        <ele>1478.0</ele>
        <time>2016-06-11T14:40:21Z</time>
      </trkpt>
      <trkpt lat="40.523533" lon="-4.825017">
        <ele>1476.0</ele>
        <time>2016-06-11T14:40:22Z</time>
      </trkpt>
      <trkpt lat="40.523583" lon="-4.824950">
        <ele>1473.0</ele>
        <time>2016-06-11T14:40:23Z</time>
      </trkpt>
      <trkpt lat="40.523633" lon="-4.824867">
        <ele>1471.0</ele>
        <time>2016-06-11T14:40:24Z</time>
      </trkpt>
      <trkpt lat="40.523683" lon="-4.824800">
        <ele>1469.0</ele>
        <time>2016-06-11T14:40:25Z</time>
      </trkpt>
      <trkpt lat="40.523750" lon="-4.824717">
        <ele>1467.0</ele>
        <time>2016-06-11T14:40:26Z</time>
      </trkpt>
      <trkpt lat="40.523800" lon="-4.824633">
        <ele>1464.0</ele>
        <time>2016-06-11T14:40:27Z</time>
      </trkpt>
      <trkpt lat="40.523867" lon="-4.824533">
        <ele>1462.0</ele>
        <time>2016-06-11T14:40:28Z</time>
      </trkpt>
      <trkpt lat="40.523933" lon="-4.824433">
        <ele>1460.0</ele>
        <time>2016-06-11T14:40:29Z</time>
      </trkpt>
      <trkpt lat="40.524017" lon="-4.824333">
        <ele>1459.0</ele>
        <time>2016-06-11T14:40:30Z</time>
      </trkpt>
      <trkpt lat="40.524083" lon="-4.824267">
        <ele>1459.0</ele>
        <time>2016-06-11T14:40:31Z</time>
      </trkpt>
      <trkpt lat="40.524150" lon="-4.824200">
        <ele>1460.0</ele>
        <time>2016-06-11T14:40:32Z</time>
      </trkpt>
      <trkpt lat="40.524200" lon="-4.824117">
        <ele>1461.0</ele>
        <time>2016-06-11T14:40:33Z</time>
      </trkpt>
      <trkpt lat="40.524250" lon="-4.824017">
        <ele>1461.0</ele>
        <time>2016-06-11T14:40:34Z</time>
      </trkpt>
      <trkpt lat="40.524300" lon="-4.823917">
        <ele>1463.0</ele>
        <time>2016-06-11T14:40:35Z</time>
      </trkpt>
      <trkpt lat="40.524367" lon="-4.823833">
        <ele>1464.0</ele>
        <time>2016-06-11T14:40:36Z</time>
      </trkpt>
      <trkpt lat="40.524417" lon="-4.823783">
        <ele>1467.0</ele>
        <time>2016-06-11T14:40:37Z</time>
      </trkpt>
      <trkpt lat="40.524467" lon="-4.823717">
        <ele>1469.0</ele>
        <time>2016-06-11T14:40:38Z</time>
      </trkpt>
      <trkpt lat="40.524500" lon="-4.823633">
        <ele>1470.0</ele>
        <time>2016-06-11T14:40:39Z</time>
      </trkpt>
      <trkpt lat="40.524550" lon="-4.823567">
        <ele>1470.0</ele>
        <time>2016-06-11T14:40:40Z</time>
      </trkpt>
      <trkpt lat="40.524600" lon="-4.823500">
        <ele>1470.0</ele>
        <time>2016-06-11T14:40:41Z</time>
      </trkpt>
      <trkpt lat="40.524667" lon="-4.823467">
        <ele>1471.0</ele>
        <time>2016-06-11T14:40:42Z</time>
      </trkpt>
      <trkpt lat="40.524717" lon="-4.823417">
        <ele>1471.0</ele>
        <time>2016-06-11T14:40:43Z</time>
      </trkpt>
      <trkpt lat="40.524750" lon="-4.823350">
        <ele>1471.0</ele>
        <time>2016-06-11T14:40:44Z</time>
      </trkpt>
      <trkpt lat="40.524783" lon="-4.823250">
        <ele>1470.0</ele>
        <time>2016-06-11T14:40:45Z</time>
      </trkpt>
      <trkpt lat="40.524817" lon="-4.823133">
        <ele>1468.0</ele>
        <time>2016-06-11T14:40:46Z</time>
      </trkpt>
      <trkpt lat="40.524850" lon="-4.823033">
        <ele>1467.0</ele>
        <time>2016-06-11T14:40:47Z</time>
      </trkpt>
      <trkpt lat="40.524883" lon="-4.822933">
        <ele>1467.0</ele>
        <time>2016-06-11T14:40:48Z</time>
      </trkpt>
      <trkpt lat="40.524900" lon="-4.822833">
        <ele>1468.0</ele>
        <time>2016-06-11T14:40:49Z</time>
      </trkpt>
      <trkpt lat="40.524917" lon="-4.822733">
        <ele>1468.0</ele>
        <time>2016-06-11T14:40:50Z</time>
      </trkpt>
      <trkpt lat="40.524933" lon="-4.822617">
        <ele>1467.0</ele>
        <time>2016-06-11T14:40:51Z</time>
      </trkpt>
      <trkpt lat="40.524983" lon="-4.822500">
        <ele>1465.0</ele>
        <time>2016-06-11T14:40:52Z</time>
      </trkpt>
      <trkpt lat="40.525017" lon="-4.822383">
        <ele>1464.0</ele>
        <time>2016-06-11T14:40:53Z</time>
      </trkpt>
      <trkpt lat="40.525067" lon="-4.822300">
        <ele>1465.0</ele>
        <time>2016-06-11T14:40:54Z</time>
      </trkpt>
      <trkpt lat="40.525100" lon="-4.822217">
        <ele>1465.0</ele>
        <time>2016-06-11T14:40:55Z</time>
      </trkpt>
      <trkpt lat="40.525117" lon="-4.822133">
        <ele>1466.0</ele>
        <time>2016-06-11T14:40:56Z</time>
      </trkpt>
      <trkpt lat="40.525150" lon="-4.822033">
        <ele>1466.0</ele>
        <time>2016-06-11T14:40:57Z</time>
      </trkpt>
      <trkpt lat="40.525167" lon="-4.821950">
        <ele>1466.0</ele>
        <time>2016-06-11T14:40:58Z</time>
      </trkpt>
      <trkpt lat="40.525200" lon="-4.821850">
        <ele>1467.0</ele>
        <time>2016-06-11T14:40:59Z</time>
      </trkpt>
      <trkpt lat="40.525233" lon="-4.821750">
        <ele>1466.0</ele>
        <time>2016-06-11T14:41:00Z</time>
      </trkpt>
      <trkpt lat="40.525267" lon="-4.821667">
        <ele>1466.0</ele>
        <time>2016-06-11T14:41:01Z</time>
      </trkpt>
      <trkpt lat="40.525300" lon="-4.821567">
        <ele>1465.0</ele>
        <time>2016-06-11T14:41:02Z</time>
      </trkpt>
      <trkpt lat="40.525333" lon="-4.821483">
        <ele>1465.0</ele>
        <time>2016-06-11T14:41:03Z</time>
      </trkpt>
      <trkpt lat="40.525367" lon="-4.821383">
        <ele>1464.0</ele>
        <time>2016-06-11T14:41:04Z</time>
      </trkpt>
      <trkpt lat="40.525400" lon="-4.821267">
        <ele>1464.0</ele>
        <time>2016-06-11T14:41:05Z</time>
      </trkpt>
      <trkpt lat="40.525433" lon="-4.821167">
        <ele>1464.0</ele>
        <time>2016-06-11T14:41:06Z</time>
      </trkpt>
      <trkpt lat="40.525467" lon="-4.821083">
        <ele>1465.0</ele>
        <time>2016-06-11T14:41:07Z</time>
      </trkpt>
      <trkpt lat="40.525500" lon="-4.820983">
        <ele>1465.0</ele>
        <time>2016-06-11T14:41:08Z</time>
      </trkpt>
      <trkpt lat="40.525533" lon="-4.820900">
        <ele>1465.0</ele>
        <time>2016-06-11T14:41:09Z</time>
      </trkpt>
      <trkpt lat="40.525583" lon="-4.820800">
        <ele>1465.0</ele>
        <time>2016-06-11T14:41:10Z</time>
      </trkpt>
      <trkpt lat="40.525617" lon="-4.820700">
        <ele>1465.0</ele>
        <time>2016-06-11T14:41:11Z</time>
      </trkpt>
      <trkpt lat="40.525667" lon="-4.820617">
        <ele>1465.0</ele>
        <time>2016-06-11T14:41:12Z</time>
      </trkpt>
      <trkpt lat="40.525700" lon="-4.820517">
        <ele>1466.0</ele>
        <time>2016-06-11T14:41:13Z</time>
      </trkpt>
      <trkpt lat="40.525750" lon="-4.820433">
        <ele>1466.0</ele>
        <time>2016-06-11T14:41:14Z</time>
      </trkpt>
      <trkpt lat="40.525783" lon="-4.820333">
        <ele>1467.0</ele>
        <time>2016-06-11T14:41:15Z</time>
      </trkpt>
      <trkpt lat="40.525833" lon="-4.820233">
        <ele>1467.0</ele>
        <time>2016-06-11T14:41:16Z</time>
      </trkpt>
      <trkpt lat="40.525867" lon="-4.820133">
        <ele>1468.0</ele>
        <time>2016-06-11T14:41:17Z</time>
      </trkpt>
      <trkpt lat="40.525900" lon="-4.820033">
        <ele>1468.0</ele>
        <time>2016-06-11T14:41:18Z</time>
      </trkpt>
      <trkpt lat="40.525950" lon="-4.819933">
        <ele>1468.0</ele>
        <time>2016-06-11T14:41:19Z</time>
      </trkpt>
      <trkpt lat="40.526000" lon="-4.819833">
        <ele>1467.0</ele>
        <time>2016-06-11T14:41:20Z</time>
      </trkpt>
      <trkpt lat="40.526033" lon="-4.819733">
        <ele>1467.0</ele>
        <time>2016-06-11T14:41:21Z</time>
      </trkpt>
      <trkpt lat="40.526083" lon="-4.819633">
        <ele>1466.0</ele>
        <time>2016-06-11T14:41:22Z</time>
      </trkpt>
      <trkpt lat="40.526133" lon="-4.819533">
        <ele>1466.0</ele>
        <time>2016-06-11T14:41:23Z</time>
      </trkpt>
      <trkpt lat="40.526183" lon="-4.819450">
        <ele>1466.0</ele>
        <time>2016-06-11T14:41:24Z</time>
      </trkpt>
      <trkpt lat="40.526250" lon="-4.819350">
        <ele>1465.0</ele>
        <time>2016-06-11T14:41:25Z</time>
      </trkpt>
      <trkpt lat="40.526300" lon="-4.819250">
        <ele>1464.0</ele>
        <time>2016-06-11T14:41:26Z</time>
      </trkpt>
      <trkpt lat="40.526367" lon="-4.819150">
        <ele>1464.0</ele>
        <time>2016-06-11T14:41:27Z</time>
      </trkpt>
      <trkpt lat="40.526433" lon="-4.819050">
        <ele>1464.0</ele>
        <time>2016-06-11T14:41:28Z</time>
      </trkpt>
      <trkpt lat="40.526483" lon="-4.818950">
        <ele>1464.0</ele>
        <time>2016-06-11T14:41:29Z</time>
      </trkpt>
      <trkpt lat="40.526533" lon="-4.818850">
        <ele>1465.0</ele>
        <time>2016-06-11T14:41:30Z</time>
      </trkpt>
      <trkpt lat="40.526583" lon="-4.818750">
        <ele>1465.0</ele>
        <time>2016-06-11T14:41:31Z</time>
      </trkpt>
      <trkpt lat="40.526633" lon="-4.818650">
        <ele>1465.0</ele>
        <time>2016-06-11T14:41:32Z</time>
      </trkpt>
      <trkpt lat="40.526683" lon="-4.818533">
        <ele>1466.0</ele>
        <time>2016-06-11T14:41:33Z</time>
      </trkpt>
      <trkpt lat="40.526717" lon="-4.818433">
        <ele>1468.0</ele>
        <time>2016-06-11T14:41:34Z</time>
      </trkpt>
      <trkpt lat="40.526750" lon="-4.818333">
        <ele>1469.0</ele>
        <time>2016-06-11T14:41:35Z</time>
      </trkpt>
      <trkpt lat="40.526800" lon="-4.818267">
        <ele>1469.0</ele>
        <time>2016-06-11T14:41:36Z</time>
      </trkpt>
      <trkpt lat="40.526867" lon="-4.818167">
        <ele>1468.0</ele>
        <time>2016-06-11T14:41:37Z</time>
      </trkpt>
      <trkpt lat="40.526933" lon="-4.818067">
        <ele>1468.0</ele>
        <time>2016-06-11T14:41:38Z</time>
      </trkpt>
      <trkpt lat="40.526983" lon="-4.817950">
        <ele>1470.0</ele>
        <time>2016-06-11T14:41:39Z</time>
      </trkpt>
      <trkpt lat="40.527017" lon="-4.817850">
        <ele>1473.0</ele>
        <time>2016-06-11T14:41:40Z</time>
      </trkpt>
      <trkpt lat="40.527050" lon="-4.817750">
        <ele>1475.0</ele>
        <time>2016-06-11T14:41:41Z</time>
      </trkpt>
      <trkpt lat="40.527083" lon="-4.817667">
        <ele>1477.0</ele>
        <time>2016-06-11T14:41:42Z</time>
      </trkpt>
      <trkpt lat="40.527150" lon="-4.817617">
        <ele>1476.0</ele>
        <time>2016-06-11T14:41:43Z</time>
      </trkpt>
      <trkpt lat="40.527183" lon="-4.817617">
        <ele>1476.0</ele>
        <time>2016-06-11T14:41:44Z</time>
      </trkpt>
      <trkpt lat="40.527200" lon="-4.817650">
        <ele>1476.0</ele>
        <time>2016-06-11T14:41:45Z</time>
      </trkpt>
      <trkpt lat="40.527167" lon="-4.817700">
        <ele>1477.0</ele>
        <time>2016-06-11T14:41:46Z</time>
      </trkpt>
      <trkpt lat="40.527117" lon="-4.817717">
        <ele>1477.0</ele>
        <time>2016-06-11T14:41:47Z</time>
      </trkpt>
      <trkpt lat="40.527083" lon="-4.817733">
        <ele>1477.0</ele>
        <time>2016-06-11T14:41:48Z</time>
      </trkpt>
      <trkpt lat="40.527033" lon="-4.817767">
        <ele>1478.0</ele>
        <time>2016-06-11T14:41:49Z</time>
      </trkpt>
      <trkpt lat="40.527017" lon="-4.817817">
        <ele>1477.0</ele>
        <time>2016-06-11T14:41:50Z</time>
      </trkpt>
      <trkpt lat="40.527000" lon="-4.817867">
        <ele>1477.0</ele>
        <time>2016-06-11T14:41:51Z</time>
      </trkpt>
      <trkpt lat="40.526967" lon="-4.817900">
        <ele>1479.0</ele>
        <time>2016-06-11T14:41:52Z</time>
      </trkpt>
      <trkpt lat="40.526950" lon="-4.817917">
        <ele>1482.0</ele>
        <time>2016-06-11T14:41:53Z</time>
      </trkpt>
      <trkpt lat="40.526950" lon="-4.817933">
        <ele>1484.0</ele>
        <time>2016-06-11T14:41:54Z</time>
      </trkpt>
      <trkpt lat="40.526950" lon="-4.817950">
        <ele>1485.0</ele>
        <time>2016-06-11T14:41:55Z</time>
      </trkpt>
      <trkpt lat="40.526967" lon="-4.817983">
        <ele>1484.0</ele>
        <time>2016-06-11T14:41:56Z</time>
      </trkpt>
      <trkpt lat="40.526983" lon="-4.818017">
        <ele>1483.0</ele>
        <time>2016-06-11T14:41:57Z</time>
      </trkpt>
      <trkpt lat="40.527000" lon="-4.818050">
        <ele>1483.0</ele>
        <time>2016-06-11T14:41:58Z</time>
      </trkpt>
      <trkpt lat="40.526983" lon="-4.818083">
        <ele>1482.0</ele>
        <time>2016-06-11T14:41:59Z</time>
      </trkpt>
      <trkpt lat="40.526950" lon="-4.818117">
        <ele>1481.0</ele>
        <time>2016-06-11T14:42:00Z</time>
      </trkpt>
      <trkpt lat="40.526900" lon="-4.818150">
        <ele>1480.0</ele>
        <time>2016-06-11T14:42:01Z</time>
      </trkpt>
      <trkpt lat="40.526867" lon="-4.818183">
        <ele>1480.0</ele>
        <time>2016-06-11T14:42:02Z</time>
      </trkpt>
      <trkpt lat="40.526833" lon="-4.818217">
        <ele>1479.0</ele>
        <time>2016-06-11T14:42:03Z</time>
      </trkpt>
      <trkpt lat="40.526800" lon="-4.818250">
        <ele>1479.0</ele>
        <time>2016-06-11T14:42:04Z</time>
      </trkpt>
      <trkpt lat="40.526750" lon="-4.818283">
        <ele>1479.0</ele>
        <time>2016-06-11T14:42:05Z</time>
      </trkpt>
      <trkpt lat="40.526717" lon="-4.818317">
        <ele>1480.0</ele>
        <time>2016-06-11T14:42:06Z</time>
      </trkpt>
      <trkpt lat="40.526700" lon="-4.818350">
        <ele>1481.0</ele>
        <time>2016-06-11T14:42:07Z</time>
      </trkpt>
      <trkpt lat="40.526667" lon="-4.818383">
        <ele>1482.0</ele>
        <time>2016-06-11T14:42:08Z</time>
      </trkpt>
      <trkpt lat="40.526650" lon="-4.818433">
        <ele>1483.0</ele>
        <time>2016-06-11T14:42:09Z</time>
      </trkpt>
      <trkpt lat="40.526650" lon="-4.818467">
        <ele>1484.0</ele>
        <time>2016-06-11T14:42:10Z</time>
      </trkpt>
      <trkpt lat="40.526633" lon="-4.818483">
        <ele>1486.0</ele>
        <time>2016-06-11T14:42:11Z</time>
      </trkpt>
      <trkpt lat="40.526617" lon="-4.818483">
        <ele>1489.0</ele>
        <time>2016-06-11T14:42:12Z</time>
      </trkpt>
      <trkpt lat="40.526600" lon="-4.818500">
        <ele>1489.0</ele>
        <time>2016-06-11T14:42:13Z</time>
      </trkpt>
      <trkpt lat="40.526600" lon="-4.818533">
        <ele>1488.0</ele>
        <time>2016-06-11T14:42:14Z</time>
      </trkpt>
      <trkpt lat="40.526583" lon="-4.818583">
        <ele>1487.0</ele>
        <time>2016-06-11T14:42:15Z</time>
      </trkpt>
      <trkpt lat="40.526583" lon="-4.818650">
        <ele>1487.0</ele>
        <time>2016-06-11T14:42:16Z</time>
      </trkpt>
      <trkpt lat="40.526567" lon="-4.818683">
        <ele>1489.0</ele>
        <time>2016-06-11T14:42:17Z</time>
      </trkpt>
      <trkpt lat="40.526550" lon="-4.818700">
        <ele>1491.0</ele>
        <time>2016-06-11T14:42:18Z</time>
      </trkpt>
      <trkpt lat="40.526533" lon="-4.818733">
        <ele>1492.0</ele>
        <time>2016-06-11T14:42:19Z</time>
      </trkpt>
      <trkpt lat="40.526517" lon="-4.818750">
        <ele>1492.0</ele>
        <time>2016-06-11T14:42:20Z</time>
      </trkpt>
      <trkpt lat="40.526500" lon="-4.818800">
        <ele>1493.0</ele>
        <time>2016-06-11T14:42:21Z</time>
      </trkpt>
      <trkpt lat="40.526467" lon="-4.818833">
        <ele>1493.0</ele>
        <time>2016-06-11T14:42:22Z</time>
      </trkpt>
      <trkpt lat="40.526433" lon="-4.818883">
        <ele>1492.0</ele>
        <time>2016-06-11T14:42:23Z</time>
      </trkpt>
      <trkpt lat="40.526383" lon="-4.818917">
        <ele>1492.0</ele>
        <time>2016-06-11T14:42:24Z</time>
      </trkpt>
      <trkpt lat="40.526333" lon="-4.818950">
        <ele>1492.0</ele>
        <time>2016-06-11T14:42:25Z</time>
      </trkpt>
      <trkpt lat="40.526283" lon="-4.819000">
        <ele>1492.0</ele>
        <time>2016-06-11T14:42:26Z</time>
      </trkpt>
      <trkpt lat="40.526250" lon="-4.819050">
        <ele>1492.0</ele>
        <time>2016-06-11T14:42:27Z</time>
      </trkpt>
      <trkpt lat="40.526217" lon="-4.819083">
        <ele>1492.0</ele>
        <time>2016-06-11T14:42:28Z</time>
      </trkpt>
      <trkpt lat="40.526183" lon="-4.819133">
        <ele>1492.0</ele>
        <time>2016-06-11T14:42:29Z</time>
      </trkpt>
      <trkpt lat="40.526167" lon="-4.819167">
        <ele>1493.0</ele>
        <time>2016-06-11T14:42:30Z</time>
      </trkpt>
      <trkpt lat="40.526133" lon="-4.819217">
        <ele>1494.0</ele>
        <time>2016-06-11T14:42:31Z</time>
      </trkpt>
      <trkpt lat="40.526100" lon="-4.819267">
        <ele>1495.0</ele>
        <time>2016-06-11T14:42:32Z</time>
      </trkpt>
      <trkpt lat="40.526067" lon="-4.819317">
        <ele>1495.0</ele>
        <time>2016-06-11T14:42:33Z</time>
      </trkpt>
      <trkpt lat="40.526017" lon="-4.819367">
        <ele>1495.0</ele>
        <time>2016-06-11T14:42:34Z</time>
      </trkpt>
      <trkpt lat="40.525983" lon="-4.819417">
        <ele>1496.0</ele>
        <time>2016-06-11T14:42:35Z</time>
      </trkpt>
      <trkpt lat="40.525933" lon="-4.819467">
        <ele>1497.0</ele>
        <time>2016-06-11T14:42:36Z</time>
      </trkpt>
      <trkpt lat="40.525883" lon="-4.819500">
        <ele>1498.0</ele>
        <time>2016-06-11T14:42:37Z</time>
      </trkpt>
      <trkpt lat="40.525817" lon="-4.819533">
        <ele>1499.0</ele>
        <time>2016-06-11T14:42:38Z</time>
      </trkpt>
      <trkpt lat="40.525750" lon="-4.819567">
        <ele>1500.0</ele>
        <time>2016-06-11T14:42:39Z</time>
      </trkpt>
      <trkpt lat="40.525667" lon="-4.819600">
        <ele>1501.0</ele>
        <time>2016-06-11T14:42:40Z</time>
      </trkpt>
      <trkpt lat="40.525600" lon="-4.819633">
        <ele>1503.0</ele>
        <time>2016-06-11T14:42:41Z</time>
      </trkpt>
      <trkpt lat="40.525533" lon="-4.819650">
        <ele>1505.0</ele>
        <time>2016-06-11T14:42:42Z</time>
      </trkpt>
      <trkpt lat="40.525483" lon="-4.819683">
        <ele>1506.0</ele>
        <time>2016-06-11T14:42:43Z</time>
      </trkpt>
      <trkpt lat="40.525433" lon="-4.819717">
        <ele>1507.0</ele>
        <time>2016-06-11T14:42:44Z</time>
      </trkpt>
      <trkpt lat="40.525400" lon="-4.819750">
        <ele>1508.0</ele>
        <time>2016-06-11T14:42:45Z</time>
      </trkpt>
      <trkpt lat="40.525367" lon="-4.819767">
        <ele>1509.0</ele>
        <time>2016-06-11T14:42:46Z</time>
      </trkpt>
      <trkpt lat="40.525367" lon="-4.819767">
        <ele>1511.0</ele>
        <time>2016-06-11T14:42:47Z</time>
      </trkpt>
      <trkpt lat="40.525350" lon="-4.819750">
        <ele>1513.0</ele>
        <time>2016-06-11T14:42:48Z</time>
      </trkpt>
      <trkpt lat="40.525350" lon="-4.819717">
        <ele>1513.0</ele>
        <time>2016-06-11T14:42:49Z</time>
      </trkpt>
      <trkpt lat="40.525367" lon="-4.819700">
        <ele>1514.0</ele>
        <time>2016-06-11T14:42:50Z</time>
      </trkpt>
      <trkpt lat="40.525400" lon="-4.819667">
        <ele>1513.0</ele>
        <time>2016-06-11T14:42:51Z</time>
      </trkpt>
      <trkpt lat="40.525433" lon="-4.819633">
        <ele>1512.0</ele>
        <time>2016-06-11T14:42:52Z</time>
      </trkpt>
      <trkpt lat="40.525467" lon="-4.819600">
        <ele>1512.0</ele>
        <time>2016-06-11T14:42:53Z</time>
      </trkpt>
      <trkpt lat="40.525483" lon="-4.819600">
        <ele>1512.0</ele>
        <time>2016-06-11T14:42:54Z</time>
      </trkpt>
      <trkpt lat="40.525483" lon="-4.819617">
        <ele>1513.0</ele>
        <time>2016-06-11T14:42:55Z</time>
      </trkpt>
      <trkpt lat="40.525483" lon="-4.819633">
        <ele>1513.0</ele>
        <time>2016-06-11T14:42:56Z</time>
      </trkpt>
      <trkpt lat="40.525517" lon="-4.819633">
        <ele>1513.0</ele>
        <time>2016-06-11T14:42:57Z</time>
      </trkpt>
      <trkpt lat="40.525567" lon="-4.819617">
        <ele>1514.0</ele>
        <time>2016-06-11T14:42:58Z</time>
      </trkpt>
      <trkpt lat="40.525617" lon="-4.819583">
        <ele>1516.0</ele>
        <time>2016-06-11T14:42:59Z</time>
      </trkpt>
      <trkpt lat="40.525650" lon="-4.819567">
        <ele>1518.0</ele>
        <time>2016-06-11T14:43:00Z</time>
      </trkpt>
      <trkpt lat="40.525683" lon="-4.819550">
        <ele>1520.0</ele>
        <time>2016-06-11T14:43:01Z</time>
      </trkpt>
      <trkpt lat="40.525717" lon="-4.819517">
        <ele>1521.0</ele>
        <time>2016-06-11T14:43:02Z</time>
      </trkpt>
      <trkpt lat="40.525733" lon="-4.819483">
        <ele>1522.0</ele>
        <time>2016-06-11T14:43:03Z</time>
      </trkpt>
      <trkpt lat="40.525767" lon="-4.819433">
        <ele>1522.0</ele>
        <time>2016-06-11T14:43:04Z</time>
      </trkpt>
      <trkpt lat="40.525800" lon="-4.819383">
        <ele>1522.0</ele>
        <time>2016-06-11T14:43:05Z</time>
      </trkpt>
      <trkpt lat="40.525850" lon="-4.819350">
        <ele>1522.0</ele>
        <time>2016-06-11T14:43:06Z</time>
      </trkpt>
      <trkpt lat="40.525900" lon="-4.819317">
        <ele>1522.0</ele>
        <time>2016-06-11T14:43:07Z</time>
      </trkpt>
      <trkpt lat="40.525933" lon="-4.819283">
        <ele>1522.0</ele>
        <time>2016-06-11T14:43:08Z</time>
      </trkpt>
      <trkpt lat="40.525967" lon="-4.819250">
        <ele>1523.0</ele>
        <time>2016-06-11T14:43:09Z</time>
      </trkpt>
      <trkpt lat="40.526000" lon="-4.819233">
        <ele>1523.0</ele>
        <time>2016-06-11T14:43:10Z</time>
      </trkpt>
      <trkpt lat="40.526033" lon="-4.819217">
        <ele>1524.0</ele>
        <time>2016-06-11T14:43:11Z</time>
      </trkpt>
      <trkpt lat="40.526067" lon="-4.819217">
        <ele>1524.0</ele>
        <time>2016-06-11T14:43:12Z</time>
      </trkpt>
      <trkpt lat="40.526100" lon="-4.819200">
        <ele>1525.0</ele>
        <time>2016-06-11T14:43:13Z</time>
      </trkpt>
      <trkpt lat="40.526133" lon="-4.819200">
        <ele>1525.0</ele>
        <time>2016-06-11T14:43:14Z</time>
      </trkpt>
      <trkpt lat="40.526167" lon="-4.819183">
        <ele>1526.0</ele>
        <time>2016-06-11T14:43:15Z</time>
      </trkpt>
      <trkpt lat="40.526183" lon="-4.819183">
        <ele>1526.0</ele>
        <time>2016-06-11T14:43:16Z</time>
      </trkpt>
      <trkpt lat="40.526217" lon="-4.819167">
        <ele>1525.0</ele>
        <time>2016-06-11T14:43:17Z</time>
      </trkpt>
      <trkpt lat="40.526250" lon="-4.819150">
        <ele>1525.0</ele>
        <time>2016-06-11T14:43:18Z</time>
      </trkpt>
      <trkpt lat="40.526267" lon="-4.819150">
        <ele>1524.0</ele>
        <time>2016-06-11T14:43:19Z</time>
      </trkpt>
      <trkpt lat="40.526283" lon="-4.819183">
        <ele>1523.0</ele>
        <time>2016-06-11T14:43:20Z</time>
      </trkpt>
      <trkpt lat="40.526300" lon="-4.819217">
        <ele>1523.0</ele>
        <time>2016-06-11T14:43:21Z</time>
      </trkpt>
      <trkpt lat="40.526283" lon="-4.819267">
        <ele>1522.0</ele>
        <time>2016-06-11T14:43:22Z</time>
      </trkpt>
      <trkpt lat="40.526283" lon="-4.819300">
        <ele>1523.0</ele>
        <time>2016-06-11T14:43:23Z</time>
      </trkpt>
      <trkpt lat="40.526267" lon="-4.819350">
        <ele>1525.0</ele>
        <time>2016-06-11T14:43:24Z</time>
      </trkpt>
      <trkpt lat="40.526250" lon="-4.819383">
        <ele>1526.0</ele>
        <time>2016-06-11T14:43:25Z</time>
      </trkpt>
      <trkpt lat="40.526233" lon="-4.819417">
        <ele>1526.0</ele>
        <time>2016-06-11T14:43:26Z</time>
      </trkpt>
      <trkpt lat="40.526217" lon="-4.819467">
        <ele>1527.0</ele>
        <time>2016-06-11T14:43:27Z</time>
      </trkpt>
      <trkpt lat="40.526200" lon="-4.819500">
        <ele>1528.0</ele>
        <time>2016-06-11T14:43:28Z</time>
      </trkpt>
      <trkpt lat="40.526183" lon="-4.819533">
        <ele>1529.0</ele>
        <time>2016-06-11T14:43:29Z</time>
      </trkpt>
      <trkpt lat="40.526167" lon="-4.819583">
        <ele>1530.0</ele>
        <time>2016-06-11T14:43:30Z</time>
      </trkpt>
      <trkpt lat="40.526150" lon="-4.819617">
        <ele>1530.0</ele>
        <time>2016-06-11T14:43:31Z</time>
      </trkpt>
      <trkpt lat="40.526133" lon="-4.819650">
        <ele>1531.0</ele>
        <time>2016-06-11T14:43:32Z</time>
      </trkpt>
      <trkpt lat="40.526117" lon="-4.819683">
        <ele>1532.0</ele>
        <time>2016-06-11T14:43:33Z</time>
      </trkpt>
      <trkpt lat="40.526100" lon="-4.819717">
        <ele>1534.0</ele>
        <time>2016-06-11T14:43:34Z</time>
      </trkpt>
      <trkpt lat="40.526083" lon="-4.819750">
        <ele>1535.0</ele>
        <time>2016-06-11T14:43:35Z</time>
      </trkpt>
      <trkpt lat="40.526067" lon="-4.819767">
        <ele>1536.0</ele>
        <time>2016-06-11T14:43:36Z</time>
      </trkpt>
      <trkpt lat="40.526050" lon="-4.819783">
        <ele>1536.0</ele>
        <time>2016-06-11T14:43:37Z</time>
      </trkpt>
      <trkpt lat="40.526033" lon="-4.819783">
        <ele>1536.0</ele>
        <time>2016-06-11T14:43:38Z</time>
      </trkpt>
      <trkpt lat="40.526033" lon="-4.819800">
        <ele>1536.0</ele>
        <time>2016-06-11T14:43:39Z</time>
      </trkpt>
      <trkpt lat="40.526050" lon="-4.819800">
        <ele>1535.0</ele>
        <time>2016-06-11T14:43:40Z</time>
      </trkpt>
      <trkpt lat="40.526083" lon="-4.819783">
        <ele>1534.0</ele>
        <time>2016-06-11T14:43:41Z</time>
      </trkpt>
      <trkpt lat="40.526117" lon="-4.819750">
        <ele>1533.0</ele>
        <time>2016-06-11T14:43:42Z</time>
      </trkpt>
      <trkpt lat="40.526183" lon="-4.819667">
        <ele>1532.0</ele>
        <time>2016-06-11T14:43:43Z</time>
      </trkpt>
      <trkpt lat="40.526233" lon="-4.819567">
        <ele>1532.0</ele>
        <time>2016-06-11T14:43:44Z</time>
      </trkpt>
      <trkpt lat="40.526267" lon="-4.819417">
        <ele>1531.0</ele>
        <time>2016-06-11T14:43:45Z</time>
      </trkpt>
      <trkpt lat="40.526300" lon="-4.819267">
        <ele>1531.0</ele>
        <time>2016-06-11T14:43:46Z</time>
      </trkpt>
      <trkpt lat="40.526333" lon="-4.819133">
        <ele>1530.0</ele>
        <time>2016-06-11T14:43:47Z</time>
      </trkpt>
      <trkpt lat="40.526383" lon="-4.819000">
        <ele>1530.0</ele>
        <time>2016-06-11T14:43:48Z</time>
      </trkpt>
      <trkpt lat="40.526450" lon="-4.818883">
        <ele>1529.0</ele>
        <time>2016-06-11T14:43:49Z</time>
      </trkpt>
      <trkpt lat="40.526517" lon="-4.818783">
        <ele>1530.0</ele>
        <time>2016-06-11T14:43:50Z</time>
      </trkpt>
      <trkpt lat="40.526567" lon="-4.818683">
        <ele>1533.0</ele>
        <time>2016-06-11T14:43:51Z</time>
      </trkpt>
      <trkpt lat="40.526600" lon="-4.818600">
        <ele>1535.0</ele>
        <time>2016-06-11T14:43:52Z</time>
      </trkpt>
      <trkpt lat="40.526633" lon="-4.818500">
        <ele>1537.0</ele>
        <time>2016-06-11T14:43:53Z</time>
      </trkpt>
      <trkpt lat="40.526683" lon="-4.818417">
        <ele>1537.0</ele>
        <time>2016-06-11T14:43:54Z</time>
      </trkpt>
      <trkpt lat="40.526750" lon="-4.818317">
        <ele>1537.0</ele>
        <time>2016-06-11T14:43:55Z</time>
      </trkpt>
      <trkpt lat="40.526800" lon="-4.818250">
        <ele>1537.0</ele>
        <time>2016-06-11T14:43:56Z</time>
      </trkpt>
      <trkpt lat="40.526867" lon="-4.818183">
        <ele>1538.0</ele>
        <time>2016-06-11T14:43:57Z</time>
      </trkpt>
      <trkpt lat="40.526917" lon="-4.818133">
        <ele>1539.0</ele>
        <time>2016-06-11T14:43:58Z</time>
      </trkpt>
      <trkpt lat="40.526967" lon="-4.818117">
        <ele>1539.0</ele>
        <time>2016-06-11T14:43:59Z</time>
      </trkpt>
      <trkpt lat="40.527017" lon="-4.818133">
        <ele>1538.0</ele>
        <time>2016-06-11T14:44:00Z</time>
      </trkpt>
      <trkpt lat="40.527017" lon="-4.818167">
        <ele>1538.0</ele>
        <time>2016-06-11T14:44:01Z</time>
      </trkpt>
      <trkpt lat="40.527000" lon="-4.818200">
        <ele>1537.0</ele>
        <time>2016-06-11T14:44:02Z</time>
      </trkpt>
      <trkpt lat="40.526967" lon="-4.818217">
        <ele>1537.0</ele>
        <time>2016-06-11T14:44:03Z</time>
      </trkpt>
      <trkpt lat="40.526933" lon="-4.818250">
        <ele>1536.0</ele>
        <time>2016-06-11T14:44:04Z</time>
      </trkpt>
      <trkpt lat="40.526900" lon="-4.818300">
        <ele>1534.0</ele>
        <time>2016-06-11T14:44:05Z</time>
      </trkpt>
      <trkpt lat="40.526867" lon="-4.818350">
        <ele>1533.0</ele>
        <time>2016-06-11T14:44:06Z</time>
      </trkpt>
      <trkpt lat="40.526817" lon="-4.818400">
        <ele>1533.0</ele>
        <time>2016-06-11T14:44:07Z</time>
      </trkpt>
      <trkpt lat="40.526750" lon="-4.818433">
        <ele>1534.0</ele>
        <time>2016-06-11T14:44:08Z</time>
      </trkpt>
      <trkpt lat="40.526700" lon="-4.818467">
        <ele>1536.0</ele>
        <time>2016-06-11T14:44:09Z</time>
      </trkpt>
      <trkpt lat="40.526667" lon="-4.818500">
        <ele>1537.0</ele>
        <time>2016-06-11T14:44:10Z</time>
      </trkpt>
      <trkpt lat="40.526617" lon="-4.818533">
        <ele>1538.0</ele>
        <time>2016-06-11T14:44:11Z</time>
      </trkpt>
      <trkpt lat="40.526567" lon="-4.818567">
        <ele>1539.0</ele>
        <time>2016-06-11T14:44:12Z</time>
      </trkpt>
      <trkpt lat="40.526500" lon="-4.818617">
        <ele>1539.0</ele>
        <time>2016-06-11T14:44:13Z</time>
      </trkpt>
      <trkpt lat="40.526450" lon="-4.818667">
        <ele>1541.0</ele>
        <time>2016-06-11T14:44:14Z</time>
      </trkpt>
      <trkpt lat="40.526383" lon="-4.818700">
        <ele>1542.0</ele>
        <time>2016-06-11T14:44:15Z</time>
      </trkpt>
      <trkpt lat="40.526333" lon="-4.818717">
        <ele>1544.0</ele>
        <time>2016-06-11T14:44:16Z</time>
      </trkpt>
      <trkpt lat="40.526267" lon="-4.818717">
        <ele>1544.0</ele>
        <time>2016-06-11T14:44:17Z</time>
      </trkpt>
      <trkpt lat="40.526200" lon="-4.818750">
        <ele>1543.0</ele>
        <time>2016-06-11T14:44:18Z</time>
      </trkpt>
      <trkpt lat="40.526133" lon="-4.818783">
        <ele>1541.0</ele>
        <time>2016-06-11T14:44:19Z</time>
      </trkpt>
      <trkpt lat="40.526083" lon="-4.818817">
        <ele>1540.0</ele>
        <time>2016-06-11T14:44:20Z</time>
      </trkpt>
      <trkpt lat="40.526033" lon="-4.818867">
        <ele>1539.0</ele>
        <time>2016-06-11T14:44:21Z</time>
      </trkpt>
      <trkpt lat="40.526000" lon="-4.818917">
        <ele>1538.0</ele>
        <time>2016-06-11T14:44:22Z</time>
      </trkpt>
      <trkpt lat="40.525950" lon="-4.818950">
        <ele>1539.0</ele>
        <time>2016-06-11T14:44:23Z</time>
      </trkpt>
      <trkpt lat="40.525933" lon="-4.818983">
        <ele>1539.0</ele>
        <time>2016-06-11T14:44:24Z</time>
      </trkpt>
      <trkpt lat="40.525900" lon="-4.819000">
        <ele>1541.0</ele>
        <time>2016-06-11T14:44:25Z</time>
      </trkpt>
      <trkpt lat="40.525883" lon="-4.819033">
        <ele>1542.0</ele>
        <time>2016-06-11T14:44:26Z</time>
      </trkpt>
      <trkpt lat="40.525867" lon="-4.819050">
        <ele>1541.0</ele>
        <time>2016-06-11T14:44:27Z</time>
      </trkpt>
      <trkpt lat="40.525833" lon="-4.819083">
        <ele>1541.0</ele>
        <time>2016-06-11T14:44:28Z</time>
      </trkpt>
      <trkpt lat="40.525817" lon="-4.819117">
        <ele>1540.0</ele>
        <time>2016-06-11T14:44:29Z</time>
      </trkpt>
      <trkpt lat="40.525783" lon="-4.819133">
        <ele>1540.0</ele>
        <time>2016-06-11T14:44:30Z</time>
      </trkpt>
      <trkpt lat="40.525767" lon="-4.819150">
        <ele>1540.0</ele>
        <time>2016-06-11T14:44:31Z</time>
      </trkpt>
      <trkpt lat="40.525750" lon="-4.819167">
        <ele>1539.0</ele>
        <time>2016-06-11T14:44:32Z</time>
      </trkpt>
      <trkpt lat="40.525733" lon="-4.819183">
        <ele>1538.0</ele>
        <time>2016-06-11T14:44:33Z</time>
      </trkpt>
      <trkpt lat="40.525733" lon="-4.819217">
        <ele>1538.0</ele>
        <time>2016-06-11T14:44:34Z</time>
      </trkpt>
      <trkpt lat="40.525767" lon="-4.819233">
        <ele>1537.0</ele>
        <time>2016-06-11T14:44:35Z</time>
      </trkpt>
      <trkpt lat="40.525817" lon="-4.819250">
        <ele>1538.0</ele>
        <time>2016-06-11T14:44:36Z</time>
      </trkpt>
      <trkpt lat="40.525867" lon="-4.819217">
        <ele>1538.0</ele>
        <time>2016-06-11T14:44:37Z</time>
      </trkpt>
      <trkpt lat="40.525917" lon="-4.819150">
        <ele>1539.0</ele>
        <time>2016-06-11T14:44:38Z</time>
      </trkpt>
      <trkpt lat="40.525983" lon="-4.819067">
        <ele>1541.0</ele>
        <time>2016-06-11T14:44:39Z</time>
      </trkpt>
      <trkpt lat="40.526033" lon="-4.818967">
        <ele>1542.0</ele>
        <time>2016-06-11T14:44:40Z</time>
      </trkpt>
      <trkpt lat="40.526083" lon="-4.818867">
        <ele>1542.0</ele>
        <time>2016-06-11T14:44:41Z</time>
      </trkpt>
      <trkpt lat="40.526133" lon="-4.818750">
        <ele>1543.0</ele>
        <time>2016-06-11T14:44:42Z</time>
      </trkpt>
      <trkpt lat="40.526183" lon="-4.818633">
        <ele>1543.0</ele>
        <time>2016-06-11T14:44:43Z</time>
      </trkpt>
      <trkpt lat="40.526233" lon="-4.818517">
        <ele>1544.0</ele>
        <time>2016-06-11T14:44:44Z</time>
      </trkpt>
      <trkpt lat="40.526267" lon="-4.818417">
        <ele>1544.0</ele>
        <time>2016-06-11T14:44:45Z</time>
      </trkpt>
      <trkpt lat="40.526333" lon="-4.818300">
        <ele>1544.0</ele>
        <time>2016-06-11T14:44:46Z</time>
      </trkpt>
      <trkpt lat="40.526383" lon="-4.818217">
        <ele>1543.0</ele>
        <time>2016-06-11T14:44:47Z</time>
      </trkpt>
      <trkpt lat="40.526450" lon="-4.818133">
        <ele>1542.0</ele>
        <time>2016-06-11T14:44:48Z</time>
      </trkpt>
      <trkpt lat="40.526517" lon="-4.818067">
        <ele>1541.0</ele>
        <time>2016-06-11T14:44:49Z</time>
      </trkpt>
      <trkpt lat="40.526567" lon="-4.817983">
        <ele>1540.0</ele>
        <time>2016-06-11T14:44:50Z</time>
      </trkpt>
      <trkpt lat="40.526617" lon="-4.817917">
        <ele>1540.0</ele>
        <time>2016-06-11T14:44:51Z</time>
      </trkpt>
      <trkpt lat="40.526683" lon="-4.817867">
        <ele>1539.0</ele>
        <time>2016-06-11T14:44:52Z</time>
      </trkpt>
      <trkpt lat="40.526717" lon="-4.817867">
        <ele>1539.0</ele>
        <time>2016-06-11T14:44:53Z</time>
      </trkpt>
      <trkpt lat="40.526750" lon="-4.817883">
        <ele>1537.0</ele>
        <time>2016-06-11T14:44:54Z</time>
      </trkpt>
      <trkpt lat="40.526767" lon="-4.817917">
        <ele>1535.0</ele>
        <time>2016-06-11T14:44:55Z</time>
      </trkpt>
      <trkpt lat="40.526767" lon="-4.817950">
        <ele>1534.0</ele>
        <time>2016-06-11T14:44:56Z</time>
      </trkpt>
      <trkpt lat="40.526733" lon="-4.817983">
        <ele>1533.0</ele>
        <time>2016-06-11T14:44:57Z</time>
      </trkpt>
      <trkpt lat="40.526717" lon="-4.818000">
        <ele>1532.0</ele>
        <time>2016-06-11T14:44:58Z</time>
      </trkpt>
      <trkpt lat="40.526683" lon="-4.818033">
        <ele>1530.0</ele>
        <time>2016-06-11T14:44:59Z</time>
      </trkpt>
      <trkpt lat="40.526650" lon="-4.818067">
        <ele>1527.0</ele>
        <time>2016-06-11T14:45:00Z</time>
      </trkpt>
      <trkpt lat="40.526617" lon="-4.818100">
        <ele>1525.0</ele>
        <time>2016-06-11T14:45:01Z</time>
      </trkpt>
      <trkpt lat="40.526583" lon="-4.818133">
        <ele>1523.0</ele>
        <time>2016-06-11T14:45:02Z</time>
      </trkpt>
      <trkpt lat="40.526533" lon="-4.818133">
        <ele>1522.0</ele>
        <time>2016-06-11T14:45:03Z</time>
      </trkpt>
      <trkpt lat="40.526483" lon="-4.818133">
        <ele>1521.0</ele>
        <time>2016-06-11T14:45:04Z</time>
      </trkpt>
      <trkpt lat="40.526417" lon="-4.818133">
        <ele>1518.0</ele>
        <time>2016-06-11T14:45:05Z</time>
      </trkpt>
      <trkpt lat="40.526350" lon="-4.818150">
        <ele>1515.0</ele>
        <time>2016-06-11T14:45:06Z</time>
      </trkpt>
      <trkpt lat="40.526300" lon="-4.818167">
        <ele>1513.0</ele>
        <time>2016-06-11T14:45:07Z</time>
      </trkpt>
      <trkpt lat="40.526300" lon="-4.818200">
        <ele>1512.0</ele>
        <time>2016-06-11T14:45:08Z</time>
      </trkpt>
      <trkpt lat="40.526333" lon="-4.818200">
        <ele>1510.0</ele>
        <time>2016-06-11T14:45:09Z</time>
      </trkpt>
      <trkpt lat="40.526383" lon="-4.818167">
        <ele>1508.0</ele>
        <time>2016-06-11T14:45:10Z</time>
      </trkpt>
      <trkpt lat="40.526467" lon="-4.818100">
        <ele>1504.0</ele>
        <time>2016-06-11T14:45:11Z</time>
      </trkpt>
      <trkpt lat="40.526533" lon="-4.817983">
        <ele>1501.0</ele>
        <time>2016-06-11T14:45:12Z</time>
      </trkpt>
      <trkpt lat="40.526583" lon="-4.817867">
        <ele>1498.0</ele>
        <time>2016-06-11T14:45:13Z</time>
      </trkpt>
      <trkpt lat="40.526633" lon="-4.817733">
        <ele>1496.0</ele>
        <time>2016-06-11T14:45:14Z</time>
      </trkpt>
      <trkpt lat="40.526700" lon="-4.817583">
        <ele>1494.0</ele>
        <time>2016-06-11T14:45:15Z</time>
      </trkpt>
      <trkpt lat="40.526750" lon="-4.817450">
        <ele>1492.0</ele>
        <time>2016-06-11T14:45:16Z</time>
      </trkpt>
      <trkpt lat="40.526833" lon="-4.817283">
        <ele>1491.0</ele>
        <time>2016-06-11T14:45:17Z</time>
      </trkpt>
      <trkpt lat="40.526900" lon="-4.817133">
        <ele>1490.0</ele>
        <time>2016-06-11T14:45:18Z</time>
      </trkpt>
      <trkpt lat="40.526967" lon="-4.817017">
        <ele>1491.0</ele>
        <time>2016-06-11T14:45:19Z</time>
      </trkpt>
      <trkpt lat="40.527017" lon="-4.816917">
        <ele>1492.0</ele>
        <time>2016-06-11T14:45:20Z</time>
      </trkpt>
      <trkpt lat="40.527083" lon="-4.816833">
        <ele>1492.0</ele>
        <time>2016-06-11T14:45:21Z</time>
      </trkpt>
      <trkpt lat="40.527133" lon="-4.816750">
        <ele>1491.0</ele>
        <time>2016-06-11T14:45:22Z</time>
      </trkpt>
      <trkpt lat="40.527200" lon="-4.816667">
        <ele>1489.0</ele>
        <time>2016-06-11T14:45:23Z</time>
      </trkpt>
      <trkpt lat="40.527267" lon="-4.816567">
        <ele>1486.0</ele>
        <time>2016-06-11T14:45:24Z</time>
      </trkpt>
      <trkpt lat="40.527333" lon="-4.816483">
        <ele>1483.0</ele>
        <time>2016-06-11T14:45:25Z</time>
      </trkpt>
      <trkpt lat="40.527400" lon="-4.816383">
        <ele>1481.0</ele>
        <time>2016-06-11T14:45:26Z</time>
      </trkpt>
      <trkpt lat="40.527450" lon="-4.816300">
        <ele>1479.0</ele>
        <time>2016-06-11T14:45:27Z</time>
      </trkpt>
      <trkpt lat="40.527517" lon="-4.816217">
        <ele>1478.0</ele>
        <time>2016-06-11T14:45:28Z</time>
      </trkpt>
      <trkpt lat="40.527567" lon="-4.816133">
        <ele>1478.0</ele>
        <time>2016-06-11T14:45:29Z</time>
      </trkpt>
      <trkpt lat="40.527633" lon="-4.816033">
        <ele>1478.0</ele>
        <time>2016-06-11T14:45:30Z</time>
      </trkpt>
      <trkpt lat="40.527717" lon="-4.815950">
        <ele>1479.0</ele>
        <time>2016-06-11T14:45:31Z</time>
      </trkpt>
      <trkpt lat="40.527783" lon="-4.815867">
        <ele>1480.0</ele>
        <time>2016-06-11T14:45:32Z</time>
      </trkpt>
      <trkpt lat="40.527850" lon="-4.815817">
        <ele>1482.0</ele>
        <time>2016-06-11T14:45:33Z</time>
      </trkpt>
      <trkpt lat="40.527900" lon="-4.815767">
        <ele>1483.0</ele>
        <time>2016-06-11T14:45:34Z</time>
      </trkpt>
      <trkpt lat="40.527950" lon="-4.815717">
        <ele>1484.0</ele>
        <time>2016-06-11T14:45:35Z</time>
      </trkpt>
      <trkpt lat="40.527983" lon="-4.815650">
        <ele>1484.0</ele>
        <time>2016-06-11T14:45:36Z</time>
      </trkpt>
      <trkpt lat="40.528033" lon="-4.815583">
        <ele>1485.0</ele>
        <time>2016-06-11T14:45:37Z</time>
      </trkpt>
      <trkpt lat="40.528083" lon="-4.815517">
        <ele>1484.0</ele>
        <time>2016-06-11T14:45:38Z</time>
      </trkpt>
      <trkpt lat="40.528133" lon="-4.815450">
        <ele>1483.0</ele>
        <time>2016-06-11T14:45:39Z</time>
      </trkpt>
      <trkpt lat="40.528183" lon="-4.815383">
        <ele>1482.0</ele>
        <time>2016-06-11T14:45:40Z</time>
      </trkpt>
      <trkpt lat="40.528233" lon="-4.815300">
        <ele>1481.0</ele>
        <time>2016-06-11T14:45:41Z</time>
      </trkpt>
      <trkpt lat="40.528283" lon="-4.815217">
        <ele>1479.0</ele>
        <time>2016-06-11T14:45:42Z</time>
      </trkpt>
      <trkpt lat="40.528350" lon="-4.815133">
        <ele>1477.0</ele>
        <time>2016-06-11T14:45:43Z</time>
      </trkpt>
      <trkpt lat="40.528417" lon="-4.815067">
        <ele>1475.0</ele>
        <time>2016-06-11T14:45:44Z</time>
      </trkpt>
      <trkpt lat="40.528500" lon="-4.815017">
        <ele>1474.0</ele>
        <time>2016-06-11T14:45:45Z</time>
      </trkpt>
      <trkpt lat="40.528550" lon="-4.815000">
        <ele>1475.0</ele>
        <time>2016-06-11T14:45:46Z</time>
      </trkpt>
      <trkpt lat="40.528600" lon="-4.814967">
        <ele>1476.0</ele>
        <time>2016-06-11T14:45:47Z</time>
      </trkpt>
      <trkpt lat="40.528650" lon="-4.814933">
        <ele>1476.0</ele>
        <time>2016-06-11T14:45:48Z</time>
      </trkpt>
      <trkpt lat="40.528717" lon="-4.814917">
        <ele>1476.0</ele>
        <time>2016-06-11T14:45:49Z</time>
      </trkpt>
      <trkpt lat="40.528783" lon="-4.814883">
        <ele>1475.0</ele>
        <time>2016-06-11T14:45:50Z</time>
      </trkpt>
      <trkpt lat="40.528833" lon="-4.814867">
        <ele>1474.0</ele>
        <time>2016-06-11T14:45:51Z</time>
      </trkpt>
      <trkpt lat="40.528883" lon="-4.814850">
        <ele>1474.0</ele>
        <time>2016-06-11T14:45:52Z</time>
      </trkpt>
      <trkpt lat="40.528950" lon="-4.814867">
        <ele>1472.0</ele>
        <time>2016-06-11T14:45:53Z</time>
      </trkpt>
      <trkpt lat="40.529000" lon="-4.814883">
        <ele>1471.0</ele>
        <time>2016-06-11T14:45:54Z</time>
      </trkpt>
      <trkpt lat="40.529050" lon="-4.814883">
        <ele>1470.0</ele>
        <time>2016-06-11T14:45:55Z</time>
      </trkpt>
      <trkpt lat="40.529100" lon="-4.814883">
        <ele>1471.0</ele>
        <time>2016-06-11T14:45:56Z</time>
      </trkpt>
      <trkpt lat="40.529133" lon="-4.814867">
        <ele>1472.0</ele>
        <time>2016-06-11T14:45:57Z</time>
      </trkpt>
      <trkpt lat="40.529167" lon="-4.814850">
        <ele>1472.0</ele>
        <time>2016-06-11T14:45:58Z</time>
      </trkpt>
      <trkpt lat="40.529217" lon="-4.814833">
        <ele>1473.0</ele>
        <time>2016-06-11T14:45:59Z</time>
      </trkpt>
      <trkpt lat="40.529267" lon="-4.814817">
        <ele>1472.0</ele>
        <time>2016-06-11T14:46:00Z</time>
      </trkpt>
      <trkpt lat="40.529317" lon="-4.814817">
        <ele>1471.0</ele>
        <time>2016-06-11T14:46:01Z</time>
      </trkpt>
      <trkpt lat="40.529383" lon="-4.814800">
        <ele>1470.0</ele>
        <time>2016-06-11T14:46:02Z</time>
      </trkpt>
      <trkpt lat="40.529433" lon="-4.814800">
        <ele>1470.0</ele>
        <time>2016-06-11T14:46:03Z</time>
      </trkpt>
      <trkpt lat="40.529483" lon="-4.814800">
        <ele>1471.0</ele>
        <time>2016-06-11T14:46:04Z</time>
      </trkpt>
      <trkpt lat="40.529517" lon="-4.814783">
        <ele>1473.0</ele>
        <time>2016-06-11T14:46:05Z</time>
      </trkpt>
      <trkpt lat="40.529550" lon="-4.814783">
        <ele>1474.0</ele>
        <time>2016-06-11T14:46:06Z</time>
      </trkpt>
      <trkpt lat="40.529600" lon="-4.814783">
        <ele>1474.0</ele>
        <time>2016-06-11T14:46:07Z</time>
      </trkpt>
      <trkpt lat="40.529667" lon="-4.814767">
        <ele>1473.0</ele>
        <time>2016-06-11T14:46:08Z</time>
      </trkpt>
      <trkpt lat="40.529717" lon="-4.814767">
        <ele>1474.0</ele>
        <time>2016-06-11T14:46:09Z</time>
      </trkpt>
      <trkpt lat="40.529767" lon="-4.814767">
        <ele>1476.0</ele>
        <time>2016-06-11T14:46:10Z</time>
      </trkpt>
      <trkpt lat="40.529783" lon="-4.814767">
        <ele>1478.0</ele>
        <time>2016-06-11T14:46:11Z</time>
      </trkpt>
      <trkpt lat="40.529800" lon="-4.814767">
        <ele>1478.0</ele>
        <time>2016-06-11T14:46:12Z</time>
      </trkpt>
      <trkpt lat="40.529833" lon="-4.814800">
        <ele>1477.0</ele>
        <time>2016-06-11T14:46:13Z</time>
      </trkpt>
      <trkpt lat="40.529867" lon="-4.814833">
        <ele>1475.0</ele>
        <time>2016-06-11T14:46:14Z</time>
      </trkpt>
      <trkpt lat="40.529900" lon="-4.814867">
        <ele>1474.0</ele>
        <time>2016-06-11T14:46:15Z</time>
      </trkpt>
      <trkpt lat="40.529950" lon="-4.814883">
        <ele>1474.0</ele>
        <time>2016-06-11T14:46:16Z</time>
      </trkpt>
      <trkpt lat="40.529967" lon="-4.814917">
        <ele>1475.0</ele>
        <time>2016-06-11T14:46:17Z</time>
      </trkpt>
      <trkpt lat="40.529983" lon="-4.814933">
        <ele>1476.0</ele>
        <time>2016-06-11T14:46:18Z</time>
      </trkpt>
      <trkpt lat="40.530017" lon="-4.814950">
        <ele>1476.0</ele>
        <time>2016-06-11T14:46:19Z</time>
      </trkpt>
      <trkpt lat="40.530067" lon="-4.814967">
        <ele>1477.0</ele>
        <time>2016-06-11T14:46:20Z</time>
      </trkpt>
      <trkpt lat="40.530100" lon="-4.815000">
        <ele>1477.0</ele>
        <time>2016-06-11T14:46:21Z</time>
      </trkpt>
      <trkpt lat="40.530133" lon="-4.815033">
        <ele>1479.0</ele>
        <time>2016-06-11T14:46:22Z</time>
      </trkpt>
      <trkpt lat="40.530167" lon="-4.815050">
        <ele>1481.0</ele>
        <time>2016-06-11T14:46:23Z</time>
      </trkpt>
      <trkpt lat="40.530200" lon="-4.815067">
        <ele>1484.0</ele>
        <time>2016-06-11T14:46:24Z</time>
      </trkpt>
      <trkpt lat="40.530217" lon="-4.815067">
        <ele>1486.0</ele>
        <time>2016-06-11T14:46:25Z</time>
      </trkpt>
      <trkpt lat="40.530250" lon="-4.815083">
        <ele>1488.0</ele>
        <time>2016-06-11T14:46:26Z</time>
      </trkpt>
      <trkpt lat="40.530267" lon="-4.815100">
        <ele>1489.0</ele>
        <time>2016-06-11T14:46:27Z</time>
      </trkpt>
      <trkpt lat="40.530300" lon="-4.815117">
        <ele>1491.0</ele>
        <time>2016-06-11T14:46:28Z</time>
      </trkpt>
      <trkpt lat="40.530317" lon="-4.815150">
        <ele>1492.0</ele>
        <time>2016-06-11T14:46:29Z</time>
      </trkpt>
      <trkpt lat="40.530333" lon="-4.815167">
        <ele>1493.0</ele>
        <time>2016-06-11T14:46:30Z</time>
      </trkpt>
      <trkpt lat="40.530350" lon="-4.815200">
        <ele>1494.0</ele>
        <time>2016-06-11T14:46:31Z</time>
      </trkpt>
      <trkpt lat="40.530383" lon="-4.815233">
        <ele>1495.0</ele>
        <time>2016-06-11T14:46:32Z</time>
      </trkpt>
      <trkpt lat="40.530433" lon="-4.815267">
        <ele>1496.0</ele>
        <time>2016-06-11T14:46:33Z</time>
      </trkpt>
      <trkpt lat="40.530467" lon="-4.815300">
        <ele>1496.0</ele>
        <time>2016-06-11T14:46:34Z</time>
      </trkpt>
      <trkpt lat="40.530467" lon="-4.815333">
        <ele>1497.0</ele>
        <time>2016-06-11T14:46:35Z</time>
      </trkpt>
      <trkpt lat="40.530483" lon="-4.815367">
        <ele>1497.0</ele>
        <time>2016-06-11T14:46:36Z</time>
      </trkpt>
      <trkpt lat="40.530483" lon="-4.815383">
        <ele>1497.0</ele>
        <time>2016-06-11T14:46:37Z</time>
      </trkpt>
      <trkpt lat="40.530517" lon="-4.815367">
        <ele>1495.0</ele>
        <time>2016-06-11T14:46:38Z</time>
      </trkpt>
      <trkpt lat="40.530567" lon="-4.815333">
        <ele>1493.0</ele>
        <time>2016-06-11T14:46:39Z</time>
      </trkpt>
      <trkpt lat="40.530617" lon="-4.815267">
        <ele>1490.0</ele>
        <time>2016-06-11T14:46:40Z</time>
      </trkpt>
      <trkpt lat="40.530667" lon="-4.815150">
        <ele>1489.0</ele>
        <time>2016-06-11T14:46:41Z</time>
      </trkpt>
      <trkpt lat="40.530683" lon="-4.815000">
        <ele>1488.0</ele>
        <time>2016-06-11T14:46:42Z</time>
      </trkpt>
      <trkpt lat="40.530683" lon="-4.814833">
        <ele>1486.0</ele>
        <time>2016-06-11T14:46:43Z</time>
      </trkpt>
      <trkpt lat="40.530633" lon="-4.814667">
        <ele>1483.0</ele>
        <time>2016-06-11T14:46:44Z</time>
      </trkpt>
      <trkpt lat="40.530550" lon="-4.814533">
        <ele>1481.0</ele>
        <time>2016-06-11T14:46:45Z</time>
      </trkpt>
      <trkpt lat="40.530467" lon="-4.814433">
        <ele>1481.0</ele>
        <time>2016-06-11T14:46:46Z</time>
      </trkpt>
      <trkpt lat="40.530383" lon="-4.814383">
        <ele>1481.0</ele>
        <time>2016-06-11T14:46:47Z</time>
      </trkpt>
      <trkpt lat="40.530300" lon="-4.814333">
        <ele>1480.0</ele>
        <time>2016-06-11T14:46:48Z</time>
      </trkpt>
      <trkpt lat="40.530233" lon="-4.814283">
        <ele>1479.0</ele>
        <time>2016-06-11T14:46:49Z</time>
      </trkpt>
      <trkpt lat="40.530150" lon="-4.814233">
        <ele>1478.0</ele>
        <time>2016-06-11T14:46:50Z</time>
      </trkpt>
      <trkpt lat="40.530083" lon="-4.814183">
        <ele>1477.0</ele>
        <time>2016-06-11T14:46:51Z</time>
      </trkpt>
      <trkpt lat="40.530000" lon="-4.814167">
        <ele>1475.0</ele>
        <time>2016-06-11T14:46:52Z</time>
      </trkpt>
      <trkpt lat="40.529950" lon="-4.814183">
        <ele>1472.0</ele>
        <time>2016-06-11T14:46:53Z</time>
      </trkpt>
      <trkpt lat="40.529917" lon="-4.814233">
        <ele>1469.0</ele>
        <time>2016-06-11T14:46:54Z</time>
      </trkpt>
      <trkpt lat="40.529900" lon="-4.814283">
        <ele>1466.0</ele>
        <time>2016-06-11T14:46:55Z</time>
      </trkpt>
      <trkpt lat="40.529883" lon="-4.814300">
        <ele>1465.0</ele>
        <time>2016-06-11T14:46:56Z</time>
      </trkpt>
      <trkpt lat="40.529883" lon="-4.814333">
        <ele>1465.0</ele>
        <time>2016-06-11T14:46:57Z</time>
      </trkpt>
      <trkpt lat="40.529883" lon="-4.814367">
        <ele>1464.0</ele>
        <time>2016-06-11T14:46:58Z</time>
      </trkpt>
      <trkpt lat="40.529900" lon="-4.814400">
        <ele>1462.0</ele>
        <time>2016-06-11T14:46:59Z</time>
      </trkpt>
      <trkpt lat="40.529900" lon="-4.814433">
        <ele>1460.0</ele>
        <time>2016-06-11T14:47:00Z</time>
      </trkpt>
      <trkpt lat="40.529933" lon="-4.814450">
        <ele>1458.0</ele>
        <time>2016-06-11T14:47:01Z</time>
      </trkpt>
      <trkpt lat="40.529950" lon="-4.814467">
        <ele>1457.0</ele>
        <time>2016-06-11T14:47:02Z</time>
      </trkpt>
      <trkpt lat="40.530000" lon="-4.814450">
        <ele>1456.0</ele>
        <time>2016-06-11T14:47:03Z</time>
      </trkpt>
      <trkpt lat="40.530050" lon="-4.814417">
        <ele>1454.0</ele>
        <time>2016-06-11T14:47:04Z</time>
      </trkpt>
      <trkpt lat="40.530117" lon="-4.814350">
        <ele>1452.0</ele>
        <time>2016-06-11T14:47:05Z</time>
      </trkpt>
      <trkpt lat="40.530200" lon="-4.814300">
        <ele>1449.0</ele>
        <time>2016-06-11T14:47:06Z</time>
      </trkpt>
      <trkpt lat="40.530267" lon="-4.814250">
        <ele>1446.0</ele>
        <time>2016-06-11T14:47:07Z</time>
      </trkpt>
      <trkpt lat="40.530333" lon="-4.814183">
        <ele>1445.0</ele>
        <time>2016-06-11T14:47:08Z</time>
      </trkpt>
      <trkpt lat="40.530367" lon="-4.814100">
        <ele>1445.0</ele>
        <time>2016-06-11T14:47:09Z</time>
      </trkpt>
      <trkpt lat="40.530400" lon="-4.813983">
        <ele>1442.0</ele>
        <time>2016-06-11T14:47:10Z</time>
      </trkpt>
      <trkpt lat="40.530433" lon="-4.813817">
        <ele>1438.0</ele>
        <time>2016-06-11T14:47:11Z</time>
      </trkpt>
      <trkpt lat="40.530467" lon="-4.813650">
        <ele>1434.0</ele>
        <time>2016-06-11T14:47:12Z</time>
      </trkpt>
      <trkpt lat="40.530467" lon="-4.813483">
        <ele>1432.0</ele>
        <time>2016-06-11T14:47:13Z</time>
      </trkpt>
      <trkpt lat="40.530450" lon="-4.813317">
        <ele>1430.0</ele>
        <time>2016-06-11T14:47:14Z</time>
      </trkpt>
      <trkpt lat="40.530433" lon="-4.813150">
        <ele>1428.0</ele>
        <time>2016-06-11T14:47:15Z</time>
      </trkpt>
      <trkpt lat="40.530417" lon="-4.812967">
        <ele>1425.0</ele>
        <time>2016-06-11T14:47:16Z</time>
      </trkpt>
      <trkpt lat="40.530400" lon="-4.812783">
        <ele>1422.0</ele>
        <time>2016-06-11T14:47:17Z</time>
      </trkpt>
      <trkpt lat="40.530383" lon="-4.812583">
        <ele>1418.0</ele>
        <time>2016-06-11T14:47:18Z</time>
      </trkpt>
      <trkpt lat="40.530383" lon="-4.812400">
        <ele>1416.0</ele>
        <time>2016-06-11T14:47:19Z</time>
      </trkpt>
      <trkpt lat="40.530383" lon="-4.812217">
        <ele>1414.0</ele>
        <time>2016-06-11T14:47:20Z</time>
      </trkpt>
      <trkpt lat="40.530400" lon="-4.812033">
        <ele>1412.0</ele>
        <time>2016-06-11T14:47:21Z</time>
      </trkpt>
      <trkpt lat="40.530433" lon="-4.811867">
        <ele>1412.0</ele>
        <time>2016-06-11T14:47:22Z</time>
      </trkpt>
      <trkpt lat="40.530450" lon="-4.811700">
        <ele>1411.0</ele>
        <time>2016-06-11T14:47:23Z</time>
      </trkpt>
      <trkpt lat="40.530483" lon="-4.811533">
        <ele>1411.0</ele>
        <time>2016-06-11T14:47:24Z</time>
      </trkpt>
      <trkpt lat="40.530517" lon="-4.811350">
        <ele>1411.0</ele>
        <time>2016-06-11T14:47:25Z</time>
      </trkpt>
      <trkpt lat="40.530550" lon="-4.811150">
        <ele>1412.0</ele>
        <time>2016-06-11T14:47:26Z</time>
      </trkpt>
      <trkpt lat="40.530567" lon="-4.810967">
        <ele>1413.0</ele>
        <time>2016-06-11T14:47:27Z</time>
      </trkpt>
      <trkpt lat="40.530583" lon="-4.810783">
        <ele>1414.0</ele>
        <time>2016-06-11T14:47:28Z</time>
      </trkpt>
      <trkpt lat="40.530600" lon="-4.810617">
        <ele>1416.0</ele>
        <time>2016-06-11T14:47:29Z</time>
      </trkpt>
      <trkpt lat="40.530600" lon="-4.810467">
        <ele>1418.0</ele>
        <time>2016-06-11T14:47:30Z</time>
      </trkpt>
      <trkpt lat="40.530583" lon="-4.810317">
        <ele>1419.0</ele>
        <time>2016-06-11T14:47:31Z</time>
      </trkpt>
      <trkpt lat="40.530567" lon="-4.810167">
        <ele>1419.0</ele>
        <time>2016-06-11T14:47:32Z</time>
      </trkpt>
      <trkpt lat="40.530567" lon="-4.810017">
        <ele>1419.0</ele>
        <time>2016-06-11T14:47:33Z</time>
      </trkpt>
      <trkpt lat="40.530550" lon="-4.809833">
        <ele>1418.0</ele>
        <time>2016-06-11T14:47:34Z</time>
      </trkpt>
      <trkpt lat="40.530533" lon="-4.809667">
        <ele>1418.0</ele>
        <time>2016-06-11T14:47:35Z</time>
      </trkpt>
      <trkpt lat="40.530517" lon="-4.809500">
        <ele>1420.0</ele>
        <time>2016-06-11T14:47:36Z</time>
      </trkpt>
      <trkpt lat="40.530483" lon="-4.809333">
        <ele>1422.0</ele>
        <time>2016-06-11T14:47:37Z</time>
      </trkpt>
      <trkpt lat="40.530450" lon="-4.809183">
        <ele>1422.0</ele>
        <time>2016-06-11T14:47:38Z</time>
      </trkpt>
      <trkpt lat="40.530433" lon="-4.809017">
        <ele>1423.0</ele>
        <time>2016-06-11T14:47:39Z</time>
      </trkpt>
      <trkpt lat="40.530433" lon="-4.808850">
        <ele>1422.0</ele>
        <time>2016-06-11T14:47:40Z</time>
      </trkpt>
      <trkpt lat="40.530417" lon="-4.808683">
        <ele>1421.0</ele>
        <time>2016-06-11T14:47:41Z</time>
      </trkpt>
      <trkpt lat="40.530417" lon="-4.808483">
        <ele>1421.0</ele>
        <time>2016-06-11T14:47:42Z</time>
      </trkpt>
      <trkpt lat="40.530417" lon="-4.808317">
        <ele>1422.0</ele>
        <time>2016-06-11T14:47:43Z</time>
      </trkpt>
      <trkpt lat="40.530400" lon="-4.808167">
        <ele>1424.0</ele>
        <time>2016-06-11T14:47:44Z</time>
      </trkpt>
      <trkpt lat="40.530400" lon="-4.808033">
        <ele>1425.0</ele>
        <time>2016-06-11T14:47:45Z</time>
      </trkpt>
      <trkpt lat="40.530417" lon="-4.807883">
        <ele>1426.0</ele>
        <time>2016-06-11T14:47:46Z</time>
      </trkpt>
      <trkpt lat="40.530433" lon="-4.807733">
        <ele>1425.0</ele>
        <time>2016-06-11T14:47:47Z</time>
      </trkpt>
      <trkpt lat="40.530450" lon="-4.807583">
        <ele>1425.0</ele>
        <time>2016-06-11T14:47:48Z</time>
      </trkpt>
      <trkpt lat="40.530467" lon="-4.807450">
        <ele>1427.0</ele>
        <time>2016-06-11T14:47:49Z</time>
      </trkpt>
      <trkpt lat="40.530483" lon="-4.807317">
        <ele>1429.0</ele>
        <time>2016-06-11T14:47:50Z</time>
      </trkpt>
      <trkpt lat="40.530517" lon="-4.807217">
        <ele>1431.0</ele>
        <time>2016-06-11T14:47:51Z</time>
      </trkpt>
      <trkpt lat="40.530533" lon="-4.807100">
        <ele>1432.0</ele>
        <time>2016-06-11T14:47:52Z</time>
      </trkpt>
      <trkpt lat="40.530567" lon="-4.806983">
        <ele>1432.0</ele>
        <time>2016-06-11T14:47:53Z</time>
      </trkpt>
      <trkpt lat="40.530600" lon="-4.806850">
        <ele>1432.0</ele>
        <time>2016-06-11T14:47:54Z</time>
      </trkpt>
      <trkpt lat="40.530633" lon="-4.806717">
        <ele>1432.0</ele>
        <time>2016-06-11T14:47:55Z</time>
      </trkpt>
      <trkpt lat="40.530683" lon="-4.806583">
        <ele>1434.0</ele>
        <time>2016-06-11T14:47:56Z</time>
      </trkpt>
      <trkpt lat="40.530717" lon="-4.806467">
        <ele>1436.0</ele>
        <time>2016-06-11T14:47:57Z</time>
      </trkpt>
      <trkpt lat="40.530767" lon="-4.806367">
        <ele>1438.0</ele>
        <time>2016-06-11T14:47:58Z</time>
      </trkpt>
      <trkpt lat="40.530817" lon="-4.806250">
        <ele>1440.0</ele>
        <time>2016-06-11T14:47:59Z</time>
      </trkpt>
      <trkpt lat="40.530883" lon="-4.806150">
        <ele>1441.0</ele>
        <time>2016-06-11T14:48:00Z</time>
      </trkpt>
      <trkpt lat="40.530933" lon="-4.806067">
        <ele>1442.0</ele>
        <time>2016-06-11T14:48:01Z</time>
      </trkpt>
      <trkpt lat="40.531000" lon="-4.806000">
        <ele>1442.0</ele>
        <time>2016-06-11T14:48:02Z</time>
      </trkpt>
      <trkpt lat="40.531050" lon="-4.805967">
        <ele>1443.0</ele>
        <time>2016-06-11T14:48:03Z</time>
      </trkpt>
      <trkpt lat="40.531100" lon="-4.805917">
        <ele>1445.0</ele>
        <time>2016-06-11T14:48:04Z</time>
      </trkpt>
      <trkpt lat="40.531150" lon="-4.805867">
        <ele>1447.0</ele>
        <time>2016-06-11T14:48:05Z</time>
      </trkpt>
      <trkpt lat="40.531200" lon="-4.805767">
        <ele>1448.0</ele>
        <time>2016-06-11T14:48:06Z</time>
      </trkpt>
      <trkpt lat="40.531250" lon="-4.805683">
        <ele>1448.0</ele>
        <time>2016-06-11T14:48:07Z</time>
      </trkpt>
      <trkpt lat="40.531317" lon="-4.805583">
        <ele>1449.0</ele>
        <time>2016-06-11T14:48:08Z</time>
      </trkpt>
      <trkpt lat="40.531383" lon="-4.805517">
        <ele>1451.0</ele>
        <time>2016-06-11T14:48:09Z</time>
      </trkpt>
      <trkpt lat="40.531433" lon="-4.805483">
        <ele>1454.0</ele>
        <time>2016-06-11T14:48:10Z</time>
      </trkpt>
      <trkpt lat="40.531483" lon="-4.805483">
        <ele>1456.0</ele>
        <time>2016-06-11T14:48:11Z</time>
      </trkpt>
      <trkpt lat="40.531533" lon="-4.805467">
        <ele>1459.0</ele>
        <time>2016-06-11T14:48:12Z</time>
      </trkpt>
      <trkpt lat="40.531583" lon="-4.805450">
        <ele>1462.0</ele>
        <time>2016-06-11T14:48:13Z</time>
      </trkpt>
      <trkpt lat="40.531633" lon="-4.805400">
        <ele>1465.0</ele>
        <time>2016-06-11T14:48:14Z</time>
      </trkpt>
      <trkpt lat="40.531683" lon="-4.805367">
        <ele>1469.0</ele>
        <time>2016-06-11T14:48:15Z</time>
      </trkpt>
      <trkpt lat="40.531733" lon="-4.805350">
        <ele>1471.0</ele>
        <time>2016-06-11T14:48:16Z</time>
      </trkpt>
      <trkpt lat="40.531783" lon="-4.805317">
        <ele>1473.0</ele>
        <time>2016-06-11T14:48:17Z</time>
      </trkpt>
      <trkpt lat="40.531817" lon="-4.805283">
        <ele>1476.0</ele>
        <time>2016-06-11T14:48:18Z</time>
      </trkpt>
      <trkpt lat="40.531817" lon="-4.805267">
        <ele>1479.0</ele>
        <time>2016-06-11T14:48:19Z</time>
      </trkpt>
      <trkpt lat="40.531833" lon="-4.805250">
        <ele>1481.0</ele>
        <time>2016-06-11T14:48:20Z</time>
      </trkpt>
      <trkpt lat="40.531850" lon="-4.805250">
        <ele>1482.0</ele>
        <time>2016-06-11T14:48:21Z</time>
      </trkpt>
      <trkpt lat="40.531900" lon="-4.805233">
        <ele>1482.0</ele>
        <time>2016-06-11T14:48:22Z</time>
      </trkpt>
      <trkpt lat="40.531933" lon="-4.805250">
        <ele>1481.0</ele>
        <time>2016-06-11T14:48:23Z</time>
      </trkpt>
      <trkpt lat="40.531967" lon="-4.805267">
        <ele>1482.0</ele>
        <time>2016-06-11T14:48:24Z</time>
      </trkpt>
      <trkpt lat="40.531983" lon="-4.805300">
        <ele>1483.0</ele>
        <time>2016-06-11T14:48:25Z</time>
      </trkpt>
      <trkpt lat="40.532017" lon="-4.805317">
        <ele>1484.0</ele>
        <time>2016-06-11T14:48:26Z</time>
      </trkpt>
      <trkpt lat="40.532050" lon="-4.805333">
        <ele>1486.0</ele>
        <time>2016-06-11T14:48:27Z</time>
      </trkpt>
      <trkpt lat="40.532100" lon="-4.805317">
        <ele>1487.0</ele>
        <time>2016-06-11T14:48:28Z</time>
      </trkpt>
      <trkpt lat="40.532167" lon="-4.805300">
        <ele>1487.0</ele>
        <time>2016-06-11T14:48:29Z</time>
      </trkpt>
      <trkpt lat="40.532217" lon="-4.805300">
        <ele>1488.0</ele>
        <time>2016-06-11T14:48:30Z</time>
      </trkpt>
      <trkpt lat="40.532250" lon="-4.805317">
        <ele>1489.0</ele>
        <time>2016-06-11T14:48:31Z</time>
      </trkpt>
      <trkpt lat="40.532283" lon="-4.805333">
        <ele>1491.0</ele>
        <time>2016-06-11T14:48:32Z</time>
      </trkpt>
      <trkpt lat="40.532350" lon="-4.805317">
        <ele>1493.0</ele>
        <time>2016-06-11T14:48:33Z</time>
      </trkpt>
      <trkpt lat="40.532400" lon="-4.805283">
        <ele>1495.0</ele>
        <time>2016-06-11T14:48:34Z</time>
      </trkpt>
      <trkpt lat="40.532450" lon="-4.805267">
        <ele>1497.0</ele>
        <time>2016-06-11T14:48:35Z</time>
      </trkpt>
      <trkpt lat="40.532483" lon="-4.805250">
        <ele>1500.0</ele>
        <time>2016-06-11T14:48:36Z</time>
      </trkpt>
      <trkpt lat="40.532500" lon="-4.805233">
        <ele>1501.0</ele>
        <time>2016-06-11T14:48:37Z</time>
      </trkpt>
      <trkpt lat="40.532517" lon="-4.805233">
        <ele>1503.0</ele>
        <time>2016-06-11T14:48:38Z</time>
      </trkpt>
      <trkpt lat="40.532550" lon="-4.805233">
        <ele>1503.0</ele>
        <time>2016-06-11T14:48:39Z</time>
      </trkpt>
      <trkpt lat="40.532567" lon="-4.805233">
        <ele>1503.0</ele>
        <time>2016-06-11T14:48:40Z</time>
      </trkpt>
      <trkpt lat="40.532583" lon="-4.805267">
        <ele>1502.0</ele>
        <time>2016-06-11T14:48:41Z</time>
      </trkpt>
      <trkpt lat="40.532583" lon="-4.805300">
        <ele>1502.0</ele>
        <time>2016-06-11T14:48:42Z</time>
      </trkpt>
      <trkpt lat="40.532583" lon="-4.805333">
        <ele>1503.0</ele>
        <time>2016-06-11T14:48:43Z</time>
      </trkpt>
      <trkpt lat="40.532567" lon="-4.805367">
        <ele>1503.0</ele>
        <time>2016-06-11T14:48:44Z</time>
      </trkpt>
      <trkpt lat="40.532533" lon="-4.805383">
        <ele>1504.0</ele>
        <time>2016-06-11T14:48:45Z</time>
      </trkpt>
      <trkpt lat="40.532483" lon="-4.805417">
        <ele>1504.0</ele>
        <time>2016-06-11T14:48:46Z</time>
      </trkpt>
      <trkpt lat="40.532433" lon="-4.805433">
        <ele>1503.0</ele>
        <time>2016-06-11T14:48:47Z</time>
      </trkpt>
      <trkpt lat="40.532350" lon="-4.805467">
        <ele>1502.0</ele>
        <time>2016-06-11T14:48:48Z</time>
      </trkpt>
      <trkpt lat="40.532267" lon="-4.805483">
        <ele>1502.0</ele>
        <time>2016-06-11T14:48:49Z</time>
      </trkpt>
      <trkpt lat="40.532183" lon="-4.805483">
        <ele>1503.0</ele>
        <time>2016-06-11T14:48:50Z</time>
      </trkpt>
      <trkpt lat="40.532117" lon="-4.805450">
        <ele>1506.0</ele>
        <time>2016-06-11T14:48:51Z</time>
      </trkpt>
      <trkpt lat="40.532050" lon="-4.805433">
        <ele>1508.0</ele>
        <time>2016-06-11T14:48:52Z</time>
      </trkpt>
      <trkpt lat="40.531983" lon="-4.805417">
        <ele>1509.0</ele>
        <time>2016-06-11T14:48:53Z</time>
      </trkpt>
      <trkpt lat="40.531900" lon="-4.805400">
        <ele>1509.0</ele>
        <time>2016-06-11T14:48:54Z</time>
      </trkpt>
      <trkpt lat="40.531783" lon="-4.805400">
        <ele>1508.0</ele>
        <time>2016-06-11T14:48:55Z</time>
      </trkpt>
      <trkpt lat="40.531683" lon="-4.805383">
        <ele>1509.0</ele>
        <time>2016-06-11T14:48:56Z</time>
      </trkpt>
      <trkpt lat="40.531600" lon="-4.805383">
        <ele>1511.0</ele>
        <time>2016-06-11T14:48:57Z</time>
      </trkpt>
      <trkpt lat="40.531550" lon="-4.805383">
        <ele>1513.0</ele>
        <time>2016-06-11T14:48:58Z</time>
      </trkpt>
      <trkpt lat="40.531500" lon="-4.805383">
        <ele>1513.0</ele>
        <time>2016-06-11T14:48:59Z</time>
      </trkpt>
      <trkpt lat="40.531433" lon="-4.805383">
        <ele>1512.0</ele>
        <time>2016-06-11T14:49:00Z</time>
      </trkpt>
      <trkpt lat="40.531367" lon="-4.805383">
        <ele>1510.0</ele>
        <time>2016-06-11T14:49:01Z</time>
      </trkpt>
      <trkpt lat="40.531283" lon="-4.805400">
        <ele>1508.0</ele>
        <time>2016-06-11T14:49:02Z</time>
      </trkpt>
      <trkpt lat="40.531217" lon="-4.805400">
        <ele>1509.0</ele>
        <time>2016-06-11T14:49:03Z</time>
      </trkpt>
      <trkpt lat="40.531150" lon="-4.805400">
        <ele>1510.0</ele>
        <time>2016-06-11T14:49:04Z</time>
      </trkpt>
      <trkpt lat="40.531083" lon="-4.805383">
        <ele>1511.0</ele>
        <time>2016-06-11T14:49:05Z</time>
      </trkpt>
      <trkpt lat="40.531000" lon="-4.805383">
        <ele>1511.0</ele>
        <time>2016-06-11T14:49:06Z</time>
      </trkpt>
      <trkpt lat="40.530950" lon="-4.805383">
        <ele>1511.0</ele>
        <time>2016-06-11T14:49:07Z</time>
      </trkpt>
      <trkpt lat="40.530900" lon="-4.805400">
        <ele>1509.0</ele>
        <time>2016-06-11T14:49:08Z</time>
      </trkpt>
      <trkpt lat="40.530883" lon="-4.805417">
        <ele>1508.0</ele>
        <time>2016-06-11T14:49:09Z</time>
      </trkpt>
      <trkpt lat="40.530883" lon="-4.805450">
        <ele>1505.0</ele>
        <time>2016-06-11T14:49:10Z</time>
      </trkpt>
      <trkpt lat="40.530917" lon="-4.805433">
        <ele>1503.0</ele>
        <time>2016-06-11T14:49:11Z</time>
      </trkpt>
      <trkpt lat="40.530967" lon="-4.805417">
        <ele>1501.0</ele>
        <time>2016-06-11T14:49:12Z</time>
      </trkpt>
      <trkpt lat="40.531017" lon="-4.805367">
        <ele>1498.0</ele>
        <time>2016-06-11T14:49:13Z</time>
      </trkpt>
      <trkpt lat="40.531067" lon="-4.805300">
        <ele>1497.0</ele>
        <time>2016-06-11T14:49:14Z</time>
      </trkpt>
      <trkpt lat="40.531117" lon="-4.805217">
        <ele>1497.0</ele>
        <time>2016-06-11T14:49:15Z</time>
      </trkpt>
      <trkpt lat="40.531167" lon="-4.805133">
        <ele>1496.0</ele>
        <time>2016-06-11T14:49:16Z</time>
      </trkpt>
      <trkpt lat="40.531217" lon="-4.805033">
        <ele>1495.0</ele>
        <time>2016-06-11T14:49:17Z</time>
      </trkpt>
      <trkpt lat="40.531267" lon="-4.804917">
        <ele>1494.0</ele>
        <time>2016-06-11T14:49:18Z</time>
      </trkpt>
      <trkpt lat="40.531317" lon="-4.804783">
        <ele>1492.0</ele>
        <time>2016-06-11T14:49:19Z</time>
      </trkpt>
      <trkpt lat="40.531367" lon="-4.804667">
        <ele>1491.0</ele>
        <time>2016-06-11T14:49:20Z</time>
      </trkpt>
      <trkpt lat="40.531417" lon="-4.804550">
        <ele>1490.0</ele>
        <time>2016-06-11T14:49:21Z</time>
      </trkpt>
      <trkpt lat="40.531467" lon="-4.804450">
        <ele>1490.0</ele>
        <time>2016-06-11T14:49:22Z</time>
      </trkpt>
      <trkpt lat="40.531517" lon="-4.804333">
        <ele>1489.0</ele>
        <time>2016-06-11T14:49:23Z</time>
      </trkpt>
      <trkpt lat="40.531567" lon="-4.804217">
        <ele>1488.0</ele>
        <time>2016-06-11T14:49:24Z</time>
      </trkpt>
      <trkpt lat="40.531600" lon="-4.804083">
        <ele>1488.0</ele>
        <time>2016-06-11T14:49:25Z</time>
      </trkpt>
      <trkpt lat="40.531650" lon="-4.803950">
        <ele>1490.0</ele>
        <time>2016-06-11T14:49:26Z</time>
      </trkpt>
      <trkpt lat="40.531683" lon="-4.803850">
        <ele>1492.0</ele>
        <time>2016-06-11T14:49:27Z</time>
      </trkpt>
      <trkpt lat="40.531733" lon="-4.803750">
        <ele>1493.0</ele>
        <time>2016-06-11T14:49:28Z</time>
      </trkpt>
      <trkpt lat="40.531783" lon="-4.803650">
        <ele>1493.0</ele>
        <time>2016-06-11T14:49:29Z</time>
      </trkpt>
      <trkpt lat="40.531833" lon="-4.803550">
        <ele>1494.0</ele>
        <time>2016-06-11T14:49:30Z</time>
      </trkpt>
      <trkpt lat="40.531883" lon="-4.803467">
        <ele>1494.0</ele>
        <time>2016-06-11T14:49:31Z</time>
      </trkpt>
      <trkpt lat="40.531933" lon="-4.803383">
        <ele>1495.0</ele>
        <time>2016-06-11T14:49:32Z</time>
      </trkpt>
      <trkpt lat="40.531983" lon="-4.803300">
        <ele>1496.0</ele>
        <time>2016-06-11T14:49:33Z</time>
      </trkpt>
      <trkpt lat="40.532017" lon="-4.803233">
        <ele>1497.0</ele>
        <time>2016-06-11T14:49:34Z</time>
      </trkpt>
      <trkpt lat="40.532067" lon="-4.803150">
        <ele>1499.0</ele>
        <time>2016-06-11T14:49:35Z</time>
      </trkpt>
      <trkpt lat="40.532117" lon="-4.803067">
        <ele>1499.0</ele>
        <time>2016-06-11T14:49:36Z</time>
      </trkpt>
      <trkpt lat="40.532150" lon="-4.803000">
        <ele>1500.0</ele>
        <time>2016-06-11T14:49:37Z</time>
      </trkpt>
      <trkpt lat="40.532200" lon="-4.802933">
        <ele>1501.0</ele>
        <time>2016-06-11T14:49:38Z</time>
      </trkpt>
      <trkpt lat="40.532267" lon="-4.802867">
        <ele>1501.0</ele>
        <time>2016-06-11T14:49:39Z</time>
      </trkpt>
      <trkpt lat="40.532317" lon="-4.802817">
        <ele>1502.0</ele>
        <time>2016-06-11T14:49:40Z</time>
      </trkpt>
      <trkpt lat="40.532383" lon="-4.802750">
        <ele>1503.0</ele>
        <time>2016-06-11T14:49:41Z</time>
      </trkpt>
      <trkpt lat="40.532433" lon="-4.802700">
        <ele>1505.0</ele>
        <time>2016-06-11T14:49:42Z</time>
      </trkpt>
      <trkpt lat="40.532483" lon="-4.802667">
        <ele>1507.0</ele>
        <time>2016-06-11T14:49:43Z</time>
      </trkpt>
      <trkpt lat="40.532533" lon="-4.802617">
        <ele>1510.0</ele>
        <time>2016-06-11T14:49:44Z</time>
      </trkpt>
      <trkpt lat="40.532550" lon="-4.802567">
        <ele>1513.0</ele>
        <time>2016-06-11T14:49:45Z</time>
      </trkpt>
      <trkpt lat="40.532567" lon="-4.802500">
        <ele>1517.0</ele>
        <time>2016-06-11T14:49:46Z</time>
      </trkpt>
      <trkpt lat="40.532583" lon="-4.802450">
        <ele>1520.0</ele>
        <time>2016-06-11T14:49:47Z</time>
      </trkpt>
      <trkpt lat="40.532617" lon="-4.802417">
        <ele>1522.0</ele>
        <time>2016-06-11T14:49:48Z</time>
      </trkpt>
      <trkpt lat="40.532633" lon="-4.802367">
        <ele>1523.0</ele>
        <time>2016-06-11T14:49:49Z</time>
      </trkpt>
      <trkpt lat="40.532650" lon="-4.802317">
        <ele>1524.0</ele>
        <time>2016-06-11T14:49:50Z</time>
      </trkpt>
      <trkpt lat="40.532667" lon="-4.802267">
        <ele>1525.0</ele>
        <time>2016-06-11T14:49:51Z</time>
      </trkpt>
      <trkpt lat="40.532683" lon="-4.802233">
        <ele>1525.0</ele>
        <time>2016-06-11T14:49:52Z</time>
      </trkpt>
      <trkpt lat="40.532683" lon="-4.802217">
        <ele>1525.0</ele>
        <time>2016-06-11T14:49:53Z</time>
      </trkpt>
      <trkpt lat="40.532683" lon="-4.802217">
        <ele>1524.0</ele>
        <time>2016-06-11T14:49:54Z</time>
      </trkpt>
      <trkpt lat="40.532667" lon="-4.802233">
        <ele>1523.0</ele>
        <time>2016-06-11T14:49:55Z</time>
      </trkpt>
      <trkpt lat="40.532633" lon="-4.802267">
        <ele>1523.0</ele>
        <time>2016-06-11T14:49:56Z</time>
      </trkpt>
      <trkpt lat="40.532567" lon="-4.802317">
        <ele>1523.0</ele>
        <time>2016-06-11T14:49:57Z</time>
      </trkpt>
      <trkpt lat="40.532500" lon="-4.802350">
        <ele>1523.0</ele>
        <time>2016-06-11T14:49:58Z</time>
      </trkpt>
      <trkpt lat="40.532400" lon="-4.802367">
        <ele>1524.0</ele>
        <time>2016-06-11T14:49:59Z</time>
      </trkpt>
      <trkpt lat="40.532300" lon="-4.802367">
        <ele>1525.0</ele>
        <time>2016-06-11T14:50:00Z</time>
      </trkpt>
      <trkpt lat="40.532200" lon="-4.802350">
        <ele>1525.0</ele>
        <time>2016-06-11T14:50:01Z</time>
      </trkpt>
      <trkpt lat="40.532083" lon="-4.802300">
        <ele>1525.0</ele>
        <time>2016-06-11T14:50:02Z</time>
      </trkpt>
      <trkpt lat="40.531967" lon="-4.802217">
        <ele>1525.0</ele>
        <time>2016-06-11T14:50:03Z</time>
      </trkpt>
      <trkpt lat="40.531850" lon="-4.802117">
        <ele>1525.0</ele>
        <time>2016-06-11T14:50:04Z</time>
      </trkpt>
      <trkpt lat="40.531750" lon="-4.802000">
        <ele>1526.0</ele>
        <time>2016-06-11T14:50:05Z</time>
      </trkpt>
      <trkpt lat="40.531667" lon="-4.801883">
        <ele>1529.0</ele>
        <time>2016-06-11T14:50:06Z</time>
      </trkpt>
      <trkpt lat="40.531600" lon="-4.801767">
        <ele>1532.0</ele>
        <time>2016-06-11T14:50:07Z</time>
      </trkpt>
      <trkpt lat="40.531533" lon="-4.801650">
        <ele>1535.0</ele>
        <time>2016-06-11T14:50:08Z</time>
      </trkpt>
      <trkpt lat="40.531450" lon="-4.801533">
        <ele>1536.0</ele>
        <time>2016-06-11T14:50:09Z</time>
      </trkpt>
      <trkpt lat="40.531367" lon="-4.801417">
        <ele>1537.0</ele>
        <time>2016-06-11T14:50:10Z</time>
      </trkpt>
      <trkpt lat="40.531267" lon="-4.801283">
        <ele>1537.0</ele>
        <time>2016-06-11T14:50:11Z</time>
      </trkpt>
      <trkpt lat="40.531183" lon="-4.801133">
        <ele>1538.0</ele>
        <time>2016-06-11T14:50:12Z</time>
      </trkpt>
      <trkpt lat="40.531133" lon="-4.800967">
        <ele>1539.0</ele>
        <time>2016-06-11T14:50:13Z</time>
      </trkpt>
      <trkpt lat="40.531117" lon="-4.800817">
        <ele>1541.0</ele>
        <time>2016-06-11T14:50:14Z</time>
      </trkpt>
      <trkpt lat="40.531100" lon="-4.800667">
        <ele>1543.0</ele>
        <time>2016-06-11T14:50:15Z</time>
      </trkpt>
      <trkpt lat="40.531117" lon="-4.800517">
        <ele>1544.0</ele>
        <time>2016-06-11T14:50:16Z</time>
      </trkpt>
      <trkpt lat="40.531133" lon="-4.800383">
        <ele>1546.0</ele>
        <time>2016-06-11T14:50:17Z</time>
      </trkpt>
      <trkpt lat="40.531167" lon="-4.800267">
        <ele>1548.0</ele>
        <time>2016-06-11T14:50:18Z</time>
      </trkpt>
      <trkpt lat="40.531200" lon="-4.800167">
        <ele>1550.0</ele>
        <time>2016-06-11T14:50:19Z</time>
      </trkpt>
      <trkpt lat="40.531217" lon="-4.800067">
        <ele>1551.0</ele>
        <time>2016-06-11T14:50:20Z</time>
      </trkpt>
      <trkpt lat="40.531217" lon="-4.799950">
        <ele>1553.0</ele>
        <time>2016-06-11T14:50:21Z</time>
      </trkpt>
      <trkpt lat="40.531233" lon="-4.799833">
        <ele>1554.0</ele>
        <time>2016-06-11T14:50:22Z</time>
      </trkpt>
      <trkpt lat="40.531283" lon="-4.799733">
        <ele>1554.0</ele>
        <time>2016-06-11T14:50:23Z</time>
      </trkpt>
      <trkpt lat="40.531333" lon="-4.799667">
        <ele>1554.0</ele>
        <time>2016-06-11T14:50:24Z</time>
      </trkpt>
      <trkpt lat="40.531367" lon="-4.799617">
        <ele>1555.0</ele>
        <time>2016-06-11T14:50:25Z</time>
      </trkpt>
      <trkpt lat="40.531400" lon="-4.799583">
        <ele>1556.0</ele>
        <time>2016-06-11T14:50:26Z</time>
      </trkpt>
      <trkpt lat="40.531417" lon="-4.799550">
        <ele>1557.0</ele>
        <time>2016-06-11T14:50:27Z</time>
      </trkpt>
      <trkpt lat="40.531433" lon="-4.799517">
        <ele>1557.0</ele>
        <time>2016-06-11T14:50:28Z</time>
      </trkpt>
      <trkpt lat="40.531467" lon="-4.799500">
        <ele>1556.0</ele>
        <time>2016-06-11T14:50:29Z</time>
      </trkpt>
      <trkpt lat="40.531500" lon="-4.799500">
        <ele>1554.0</ele>
        <time>2016-06-11T14:50:30Z</time>
      </trkpt>
      <trkpt lat="40.531533" lon="-4.799517">
        <ele>1554.0</ele>
        <time>2016-06-11T14:50:31Z</time>
      </trkpt>
      <trkpt lat="40.531550" lon="-4.799567">
        <ele>1554.0</ele>
        <time>2016-06-11T14:50:32Z</time>
      </trkpt>
      <trkpt lat="40.531550" lon="-4.799617">
        <ele>1555.0</ele>
        <time>2016-06-11T14:50:33Z</time>
      </trkpt>
      <trkpt lat="40.531550" lon="-4.799650">
        <ele>1559.0</ele>
        <time>2016-06-11T14:50:34Z</time>
      </trkpt>
      <trkpt lat="40.531533" lon="-4.799667">
        <ele>1562.0</ele>
        <time>2016-06-11T14:50:35Z</time>
      </trkpt>
      <trkpt lat="40.531533" lon="-4.799683">
        <ele>1566.0</ele>
        <time>2016-06-11T14:50:36Z</time>
      </trkpt>
      <trkpt lat="40.531533" lon="-4.799700">
        <ele>1567.0</ele>
        <time>2016-06-11T14:50:37Z</time>
      </trkpt>
      <trkpt lat="40.531550" lon="-4.799733">
        <ele>1568.0</ele>
        <time>2016-06-11T14:50:38Z</time>
      </trkpt>
      <trkpt lat="40.531583" lon="-4.799750">
        <ele>1569.0</ele>
        <time>2016-06-11T14:50:39Z</time>
      </trkpt>
      <trkpt lat="40.531600" lon="-4.799767">
        <ele>1570.0</ele>
        <time>2016-06-11T14:50:40Z</time>
      </trkpt>
      <trkpt lat="40.531600" lon="-4.799750">
        <ele>1572.0</ele>
        <time>2016-06-11T14:50:41Z</time>
      </trkpt>
      <trkpt lat="40.531583" lon="-4.799750">
        <ele>1574.0</ele>
        <time>2016-06-11T14:50:42Z</time>
      </trkpt>
      <trkpt lat="40.531583" lon="-4.799750">
        <ele>1573.0</ele>
        <time>2016-06-11T14:50:43Z</time>
      </trkpt>
      <trkpt lat="40.531567" lon="-4.799783">
        <ele>1572.0</ele>
        <time>2016-06-11T14:50:44Z</time>
      </trkpt>
      <trkpt lat="40.531567" lon="-4.799817">
        <ele>1572.0</ele>
        <time>2016-06-11T14:50:45Z</time>
      </trkpt>
      <trkpt lat="40.531533" lon="-4.799867">
        <ele>1572.0</ele>
        <time>2016-06-11T14:50:46Z</time>
      </trkpt>
      <trkpt lat="40.531483" lon="-4.799883">
        <ele>1573.0</ele>
        <time>2016-06-11T14:50:47Z</time>
      </trkpt>
      <trkpt lat="40.531450" lon="-4.799917">
        <ele>1574.0</ele>
        <time>2016-06-11T14:50:48Z</time>
      </trkpt>
      <trkpt lat="40.531383" lon="-4.799933">
        <ele>1575.0</ele>
        <time>2016-06-11T14:50:49Z</time>
      </trkpt>
      <trkpt lat="40.531333" lon="-4.799967">
        <ele>1575.0</ele>
        <time>2016-06-11T14:50:50Z</time>
      </trkpt>
      <trkpt lat="40.531250" lon="-4.800000">
        <ele>1575.0</ele>
        <time>2016-06-11T14:50:51Z</time>
      </trkpt>
      <trkpt lat="40.531183" lon="-4.800017">
        <ele>1575.0</ele>
        <time>2016-06-11T14:50:52Z</time>
      </trkpt>
      <trkpt lat="40.531100" lon="-4.800033">
        <ele>1576.0</ele>
        <time>2016-06-11T14:50:53Z</time>
      </trkpt>
      <trkpt lat="40.531017" lon="-4.800050">
        <ele>1577.0</ele>
        <time>2016-06-11T14:50:54Z</time>
      </trkpt>
      <trkpt lat="40.530933" lon="-4.800067">
        <ele>1578.0</ele>
        <time>2016-06-11T14:50:55Z</time>
      </trkpt>
      <trkpt lat="40.530850" lon="-4.800067">
        <ele>1579.0</ele>
        <time>2016-06-11T14:50:56Z</time>
      </trkpt>
      <trkpt lat="40.530750" lon="-4.800067">
        <ele>1581.0</ele>
        <time>2016-06-11T14:50:57Z</time>
      </trkpt>
      <trkpt lat="40.530667" lon="-4.800050">
        <ele>1583.0</ele>
        <time>2016-06-11T14:50:58Z</time>
      </trkpt>
      <trkpt lat="40.530583" lon="-4.800033">
        <ele>1585.0</ele>
        <time>2016-06-11T14:50:59Z</time>
      </trkpt>
      <trkpt lat="40.530500" lon="-4.800017">
        <ele>1589.0</ele>
        <time>2016-06-11T14:51:00Z</time>
      </trkpt>
      <trkpt lat="40.530433" lon="-4.800017">
        <ele>1592.0</ele>
        <time>2016-06-11T14:51:01Z</time>
      </trkpt>
      <trkpt lat="40.530367" lon="-4.800017">
        <ele>1593.0</ele>
        <time>2016-06-11T14:51:02Z</time>
      </trkpt>
      <trkpt lat="40.530300" lon="-4.800050">
        <ele>1593.0</ele>
        <time>2016-06-11T14:51:03Z</time>
      </trkpt>
      <trkpt lat="40.530233" lon="-4.800083">
        <ele>1593.0</ele>
        <time>2016-06-11T14:51:04Z</time>
      </trkpt>
      <trkpt lat="40.530167" lon="-4.800133">
        <ele>1593.0</ele>
        <time>2016-06-11T14:51:05Z</time>
      </trkpt>
      <trkpt lat="40.530133" lon="-4.800183">
        <ele>1597.0</ele>
        <time>2016-06-11T14:51:06Z</time>
      </trkpt>
      <trkpt lat="40.530100" lon="-4.800217">
        <ele>1602.0</ele>
        <time>2016-06-11T14:51:07Z</time>
      </trkpt>
      <trkpt lat="40.530100" lon="-4.800233">
        <ele>1606.0</ele>
        <time>2016-06-11T14:51:08Z</time>
      </trkpt>
      <trkpt lat="40.530083" lon="-4.800267">
        <ele>1608.0</ele>
        <time>2016-06-11T14:51:09Z</time>
      </trkpt>
      <trkpt lat="40.530067" lon="-4.800333">
        <ele>1608.0</ele>
        <time>2016-06-11T14:51:10Z</time>
      </trkpt>
      <trkpt lat="40.530083" lon="-4.800400">
        <ele>1609.0</ele>
        <time>2016-06-11T14:51:11Z</time>
      </trkpt>
      <trkpt lat="40.530117" lon="-4.800433">
        <ele>1610.0</ele>
        <time>2016-06-11T14:51:12Z</time>
      </trkpt>
      <trkpt lat="40.530150" lon="-4.800433">
        <ele>1615.0</ele>
        <time>2016-06-11T14:51:13Z</time>
      </trkpt>
      <trkpt lat="40.530167" lon="-4.800400">
        <ele>1618.0</ele>
        <time>2016-06-11T14:51:14Z</time>
      </trkpt>
      <trkpt lat="40.530167" lon="-4.800367">
        <ele>1620.0</ele>
        <time>2016-06-11T14:51:15Z</time>
      </trkpt>
      <trkpt lat="40.530183" lon="-4.800367">
        <ele>1620.0</ele>
        <time>2016-06-11T14:51:16Z</time>
      </trkpt>
      <trkpt lat="40.530233" lon="-4.800367">
        <ele>1618.0</ele>
        <time>2016-06-11T14:51:17Z</time>
      </trkpt>
      <trkpt lat="40.530283" lon="-4.800333">
        <ele>1617.0</ele>
        <time>2016-06-11T14:51:18Z</time>
      </trkpt>
      <trkpt lat="40.530350" lon="-4.800283">
        <ele>1617.0</ele>
        <time>2016-06-11T14:51:19Z</time>
      </trkpt>
      <trkpt lat="40.530400" lon="-4.800233">
        <ele>1618.0</ele>
        <time>2016-06-11T14:51:20Z</time>
      </trkpt>
      <trkpt lat="40.530467" lon="-4.800183">
        <ele>1619.0</ele>
        <time>2016-06-11T14:51:21Z</time>
      </trkpt>
      <trkpt lat="40.530550" lon="-4.800133">
        <ele>1621.0</ele>
        <time>2016-06-11T14:51:22Z</time>
      </trkpt>
      <trkpt lat="40.530617" lon="-4.800083">
        <ele>1623.0</ele>
        <time>2016-06-11T14:51:23Z</time>
      </trkpt>
      <trkpt lat="40.530700" lon="-4.800033">
        <ele>1626.0</ele>
        <time>2016-06-11T14:51:24Z</time>
      </trkpt>
      <trkpt lat="40.530733" lon="-4.800000">
        <ele>1631.0</ele>
        <time>2016-06-11T14:51:25Z</time>
      </trkpt>
      <trkpt lat="40.530767" lon="-4.799967">
        <ele>1636.0</ele>
        <time>2016-06-11T14:51:26Z</time>
      </trkpt>
      <trkpt lat="40.530783" lon="-4.799950">
        <ele>1641.0</ele>
        <time>2016-06-11T14:51:27Z</time>
      </trkpt>
      <trkpt lat="40.530800" lon="-4.799917">
        <ele>1645.0</ele>
        <time>2016-06-11T14:51:28Z</time>
      </trkpt>
      <trkpt lat="40.530833" lon="-4.799883">
        <ele>1647.0</ele>
        <time>2016-06-11T14:51:29Z</time>
      </trkpt>
      <trkpt lat="40.530900" lon="-4.799817">
        <ele>1648.0</ele>
        <time>2016-06-11T14:51:30Z</time>
      </trkpt>
      <trkpt lat="40.530950" lon="-4.799733">
        <ele>1650.0</ele>
        <time>2016-06-11T14:51:31Z</time>
      </trkpt>
      <trkpt lat="40.531000" lon="-4.799667">
        <ele>1652.0</ele>
        <time>2016-06-11T14:51:32Z</time>
      </trkpt>
      <trkpt lat="40.531050" lon="-4.799583">
        <ele>1654.0</ele>
        <time>2016-06-11T14:51:33Z</time>
      </trkpt>
      <trkpt lat="40.531100" lon="-4.799517">
        <ele>1656.0</ele>
        <time>2016-06-11T14:51:34Z</time>
      </trkpt>
      <trkpt lat="40.531167" lon="-4.799433">
        <ele>1657.0</ele>
        <time>2016-06-11T14:51:35Z</time>
      </trkpt>
      <trkpt lat="40.531217" lon="-4.799367">
        <ele>1659.0</ele>
        <time>2016-06-11T14:51:36Z</time>
      </trkpt>
      <trkpt lat="40.531267" lon="-4.799333">
        <ele>1660.0</ele>
        <time>2016-06-11T14:51:37Z</time>
      </trkpt>
      <trkpt lat="40.531317" lon="-4.799317">
        <ele>1662.0</ele>
        <time>2016-06-11T14:51:38Z</time>
      </trkpt>
      <trkpt lat="40.531350" lon="-4.799300">
        <ele>1665.0</ele>
        <time>2016-06-11T14:51:39Z</time>
      </trkpt>
      <trkpt lat="40.531383" lon="-4.799300">
        <ele>1667.0</ele>
        <time>2016-06-11T14:51:40Z</time>
      </trkpt>
      <trkpt lat="40.531400" lon="-4.799283">
        <ele>1668.0</ele>
        <time>2016-06-11T14:51:41Z</time>
      </trkpt>
      <trkpt lat="40.531450" lon="-4.799267">
        <ele>1667.0</ele>
        <time>2016-06-11T14:51:42Z</time>
      </trkpt>
      <trkpt lat="40.531500" lon="-4.799267">
        <ele>1664.0</ele>
        <time>2016-06-11T14:51:43Z</time>
      </trkpt>
      <trkpt lat="40.531550" lon="-4.799283">
        <ele>1663.0</ele>
        <time>2016-06-11T14:51:44Z</time>
      </trkpt>
      <trkpt lat="40.531583" lon="-4.799317">
        <ele>1663.0</ele>
        <time>2016-06-11T14:51:45Z</time>
      </trkpt>
      <trkpt lat="40.531617" lon="-4.799350">
        <ele>1663.0</ele>
        <time>2016-06-11T14:51:46Z</time>
      </trkpt>
      <trkpt lat="40.531617" lon="-4.799383">
        <ele>1664.0</ele>
        <time>2016-06-11T14:51:47Z</time>
      </trkpt>
      <trkpt lat="40.531617" lon="-4.799433">
        <ele>1665.0</ele>
        <time>2016-06-11T14:51:48Z</time>
      </trkpt>
      <trkpt lat="40.531617" lon="-4.799467">
        <ele>1666.0</ele>
        <time>2016-06-11T14:51:49Z</time>
      </trkpt>
      <trkpt lat="40.531600" lon="-4.799500">
        <ele>1667.0</ele>
        <time>2016-06-11T14:51:50Z</time>
      </trkpt>
      <trkpt lat="40.531617" lon="-4.799550">
        <ele>1668.0</ele>
        <time>2016-06-11T14:51:51Z</time>
      </trkpt>
      <trkpt lat="40.531633" lon="-4.799583">
        <ele>1669.0</ele>
        <time>2016-06-11T14:51:52Z</time>
      </trkpt>
      <trkpt lat="40.531650" lon="-4.799617">
        <ele>1670.0</ele>
        <time>2016-06-11T14:51:53Z</time>
      </trkpt>
      <trkpt lat="40.531667" lon="-4.799650">
        <ele>1672.0</ele>
        <time>2016-06-11T14:51:54Z</time>
      </trkpt>
      <trkpt lat="40.531667" lon="-4.799667">
        <ele>1674.0</ele>
        <time>2016-06-11T14:51:55Z</time>
      </trkpt>
      <trkpt lat="40.531667" lon="-4.799700">
        <ele>1677.0</ele>
        <time>2016-06-11T14:51:56Z</time>
      </trkpt>
      <trkpt lat="40.531667" lon="-4.799717">
        <ele>1679.0</ele>
        <time>2016-06-11T14:51:57Z</time>
      </trkpt>
      <trkpt lat="40.531650" lon="-4.799750">
        <ele>1682.0</ele>
        <time>2016-06-11T14:51:58Z</time>
      </trkpt>
      <trkpt lat="40.531650" lon="-4.799767">
        <ele>1685.0</ele>
        <time>2016-06-11T14:51:59Z</time>
      </trkpt>
      <trkpt lat="40.531633" lon="-4.799767">
        <ele>1688.0</ele>
        <time>2016-06-11T14:52:00Z</time>
      </trkpt>
      <trkpt lat="40.531633" lon="-4.799750">
        <ele>1692.0</ele>
        <time>2016-06-11T14:52:01Z</time>
      </trkpt>
      <trkpt lat="40.531617" lon="-4.799750">
        <ele>1692.0</ele>
        <time>2016-06-11T14:52:02Z</time>
      </trkpt>
      <trkpt lat="40.531600" lon="-4.799750">
        <ele>1693.0</ele>
        <time>2016-06-11T14:52:03Z</time>
      </trkpt>
      <trkpt lat="40.531583" lon="-4.799767">
        <ele>1693.0</ele>
        <time>2016-06-11T14:52:04Z</time>
      </trkpt>
      <trkpt lat="40.531533" lon="-4.799783">
        <ele>1694.0</ele>
        <time>2016-06-11T14:52:05Z</time>
      </trkpt>
      <trkpt lat="40.531483" lon="-4.799767">
        <ele>1695.0</ele>
        <time>2016-06-11T14:52:06Z</time>
      </trkpt>
      <trkpt lat="40.531417" lon="-4.799750">
        <ele>1694.0</ele>
        <time>2016-06-11T14:52:07Z</time>
      </trkpt>
      <trkpt lat="40.531350" lon="-4.799733">
        <ele>1692.0</ele>
        <time>2016-06-11T14:52:08Z</time>
      </trkpt>
      <trkpt lat="40.531267" lon="-4.799700">
        <ele>1691.0</ele>
        <time>2016-06-11T14:52:09Z</time>
      </trkpt>
      <trkpt lat="40.531183" lon="-4.799683">
        <ele>1691.0</ele>
        <time>2016-06-11T14:52:10Z</time>
      </trkpt>
      <trkpt lat="40.531100" lon="-4.799633">
        <ele>1690.0</ele>
        <time>2016-06-11T14:52:11Z</time>
      </trkpt>
      <trkpt lat="40.530983" lon="-4.799550">
        <ele>1690.0</ele>
        <time>2016-06-11T14:52:12Z</time>
      </trkpt>
      <trkpt lat="40.530883" lon="-4.799433">
        <ele>1689.0</ele>
        <time>2016-06-11T14:52:13Z</time>
      </trkpt>
      <trkpt lat="40.530800" lon="-4.799283">
        <ele>1688.0</ele>
        <time>2016-06-11T14:52:14Z</time>
      </trkpt>
      <trkpt lat="40.530717" lon="-4.799133">
        <ele>1690.0</ele>
        <time>2016-06-11T14:52:15Z</time>
      </trkpt>
      <trkpt lat="40.530650" lon="-4.798983">
        <ele>1693.0</ele>
        <time>2016-06-11T14:52:16Z</time>
      </trkpt>
      <trkpt lat="40.530583" lon="-4.798833">
        <ele>1695.0</ele>
        <time>2016-06-11T14:52:17Z</time>
      </trkpt>
      <trkpt lat="40.530550" lon="-4.798683">
        <ele>1697.0</ele>
        <time>2016-06-11T14:52:18Z</time>
      </trkpt>
      <trkpt lat="40.530500" lon="-4.798500">
        <ele>1698.0</ele>
        <time>2016-06-11T14:52:19Z</time>
      </trkpt>
      <trkpt lat="40.530467" lon="-4.798317">
        <ele>1700.0</ele>
        <time>2016-06-11T14:52:20Z</time>
      </trkpt>
      <trkpt lat="40.530433" lon="-4.798133">
        <ele>1704.0</ele>
        <time>2016-06-11T14:52:21Z</time>
      </trkpt>
      <trkpt lat="40.530400" lon="-4.797983">
        <ele>1707.0</ele>
        <time>2016-06-11T14:52:22Z</time>
      </trkpt>
      <trkpt lat="40.530367" lon="-4.797833">
        <ele>1709.0</ele>
        <time>2016-06-11T14:52:23Z</time>
      </trkpt>
      <trkpt lat="40.530350" lon="-4.797683">
        <ele>1709.0</ele>
        <time>2016-06-11T14:52:24Z</time>
      </trkpt>
      <trkpt lat="40.530333" lon="-4.797533">
        <ele>1707.0</ele>
        <time>2016-06-11T14:52:25Z</time>
      </trkpt>
      <trkpt lat="40.530350" lon="-4.797367">
        <ele>1705.0</ele>
        <time>2016-06-11T14:52:26Z</time>
      </trkpt>
      <trkpt lat="40.530400" lon="-4.797217">
        <ele>1702.0</ele>
        <time>2016-06-11T14:52:27Z</time>
      </trkpt>
      <trkpt lat="40.530467" lon="-4.797100">
        <ele>1700.0</ele>
        <time>2016-06-11T14:52:28Z</time>
      </trkpt>
      <trkpt lat="40.530550" lon="-4.797000">
        <ele>1700.0</ele>
        <time>2016-06-11T14:52:29Z</time>
      </trkpt>
      <trkpt lat="40.530617" lon="-4.796933">
        <ele>1702.0</ele>
        <time>2016-06-11T14:52:30Z</time>
      </trkpt>
      <trkpt lat="40.530667" lon="-4.796850">
        <ele>1706.0</ele>
        <time>2016-06-11T14:52:31Z</time>
      </trkpt>
      <trkpt lat="40.530700" lon="-4.796783">
        <ele>1710.0</ele>
        <time>2016-06-11T14:52:32Z</time>
      </trkpt>
      <trkpt lat="40.530733" lon="-4.796683">
        <ele>1711.0</ele>
        <time>2016-06-11T14:52:33Z</time>
      </trkpt>
      <trkpt lat="40.530767" lon="-4.796583">
        <ele>1712.0</ele>
        <time>2016-06-11T14:52:34Z</time>
      </trkpt>
      <trkpt lat="40.530817" lon="-4.796483">
        <ele>1711.0</ele>
        <time>2016-06-11T14:52:35Z</time>
      </trkpt>
      <trkpt lat="40.530883" lon="-4.796400">
        <ele>1711.0</ele>
        <time>2016-06-11T14:52:36Z</time>
      </trkpt>
      <trkpt lat="40.530950" lon="-4.796350">
        <ele>1711.0</ele>
        <time>2016-06-11T14:52:37Z</time>
      </trkpt>
      <trkpt lat="40.531017" lon="-4.796317">
        <ele>1713.0</ele>
        <time>2016-06-11T14:52:38Z</time>
      </trkpt>
      <trkpt lat="40.531067" lon="-4.796267">
        <ele>1715.0</ele>
        <time>2016-06-11T14:52:39Z</time>
      </trkpt>
      <trkpt lat="40.531100" lon="-4.796233">
        <ele>1717.0</ele>
        <time>2016-06-11T14:52:40Z</time>
      </trkpt>
      <trkpt lat="40.531133" lon="-4.796200">
        <ele>1719.0</ele>
        <time>2016-06-11T14:52:41Z</time>
      </trkpt>
      <trkpt lat="40.531167" lon="-4.796183">
        <ele>1719.0</ele>
        <time>2016-06-11T14:52:42Z</time>
      </trkpt>
      <trkpt lat="40.531200" lon="-4.796183">
        <ele>1720.0</ele>
        <time>2016-06-11T14:52:43Z</time>
      </trkpt>
      <trkpt lat="40.531233" lon="-4.796167">
        <ele>1721.0</ele>
        <time>2016-06-11T14:52:44Z</time>
      </trkpt>
      <trkpt lat="40.531250" lon="-4.796133">
        <ele>1723.0</ele>
        <time>2016-06-11T14:52:45Z</time>
      </trkpt>
      <trkpt lat="40.531267" lon="-4.796083">
        <ele>1723.0</ele>
        <time>2016-06-11T14:52:46Z</time>
      </trkpt>
      <trkpt lat="40.531283" lon="-4.796067">
        <ele>1722.0</ele>
        <time>2016-06-11T14:52:47Z</time>
      </trkpt>
      <trkpt lat="40.531283" lon="-4.796067">
        <ele>1721.0</ele>
        <time>2016-06-11T14:52:48Z</time>
      </trkpt>
      <trkpt lat="40.531300" lon="-4.796083">
        <ele>1720.0</ele>
        <time>2016-06-11T14:52:49Z</time>
      </trkpt>
      <trkpt lat="40.531283" lon="-4.796100">
        <ele>1720.0</ele>
        <time>2016-06-11T14:52:50Z</time>
      </trkpt>
      <trkpt lat="40.531267" lon="-4.796117">
        <ele>1722.0</ele>
        <time>2016-06-11T14:52:51Z</time>
      </trkpt>
      <trkpt lat="40.531217" lon="-4.796133">
        <ele>1723.0</ele>
        <time>2016-06-11T14:52:52Z</time>
      </trkpt>
      <trkpt lat="40.531183" lon="-4.796133">
        <ele>1724.0</ele>
        <time>2016-06-11T14:52:53Z</time>
      </trkpt>
      <trkpt lat="40.531117" lon="-4.796133">
        <ele>1724.0</ele>
        <time>2016-06-11T14:52:54Z</time>
      </trkpt>
      <trkpt lat="40.531050" lon="-4.796133">
        <ele>1724.0</ele>
        <time>2016-06-11T14:52:55Z</time>
      </trkpt>
      <trkpt lat="40.530950" lon="-4.796117">
        <ele>1723.0</ele>
        <time>2016-06-11T14:52:56Z</time>
      </trkpt>
      <trkpt lat="40.530833" lon="-4.796083">
        <ele>1724.0</ele>
        <time>2016-06-11T14:52:57Z</time>
      </trkpt>
      <trkpt lat="40.530717" lon="-4.796033">
        <ele>1724.0</ele>
        <time>2016-06-11T14:52:58Z</time>
      </trkpt>
      <trkpt lat="40.530600" lon="-4.795950">
        <ele>1725.0</ele>
        <time>2016-06-11T14:52:59Z</time>
      </trkpt>
      <trkpt lat="40.530483" lon="-4.795833">
        <ele>1725.0</ele>
        <time>2016-06-11T14:53:00Z</time>
      </trkpt>
      <trkpt lat="40.530383" lon="-4.795700">
        <ele>1725.0</ele>
        <time>2016-06-11T14:53:01Z</time>
      </trkpt>
      <trkpt lat="40.530300" lon="-4.795533">
        <ele>1724.0</ele>
        <time>2016-06-11T14:53:02Z</time>
      </trkpt>
      <trkpt lat="40.530250" lon="-4.795367">
        <ele>1723.0</ele>
        <time>2016-06-11T14:53:03Z</time>
      </trkpt>
      <trkpt lat="40.530200" lon="-4.795200">
        <ele>1722.0</ele>
        <time>2016-06-11T14:53:04Z</time>
      </trkpt>
      <trkpt lat="40.530183" lon="-4.795017">
        <ele>1721.0</ele>
        <time>2016-06-11T14:53:05Z</time>
      </trkpt>
      <trkpt lat="40.530200" lon="-4.794833">
        <ele>1721.0</ele>
        <time>2016-06-11T14:53:06Z</time>
      </trkpt>
      <trkpt lat="40.530217" lon="-4.794633">
        <ele>1721.0</ele>
        <time>2016-06-11T14:53:07Z</time>
      </trkpt>
      <trkpt lat="40.530217" lon="-4.794467">
        <ele>1723.0</ele>
        <time>2016-06-11T14:53:08Z</time>
      </trkpt>
      <trkpt lat="40.530250" lon="-4.794333">
        <ele>1725.0</ele>
        <time>2016-06-11T14:53:09Z</time>
      </trkpt>
      <trkpt lat="40.530283" lon="-4.794200">
        <ele>1725.0</ele>
        <time>2016-06-11T14:53:10Z</time>
      </trkpt>
      <trkpt lat="40.530333" lon="-4.794067">
        <ele>1724.0</ele>
        <time>2016-06-11T14:53:11Z</time>
      </trkpt>
      <trkpt lat="40.530383" lon="-4.793933">
        <ele>1724.0</ele>
        <time>2016-06-11T14:53:12Z</time>
      </trkpt>
      <trkpt lat="40.530433" lon="-4.793817">
        <ele>1724.0</ele>
        <time>2016-06-11T14:53:13Z</time>
      </trkpt>
      <trkpt lat="40.530500" lon="-4.793700">
        <ele>1724.0</ele>
        <time>2016-06-11T14:53:14Z</time>
      </trkpt>
      <trkpt lat="40.530550" lon="-4.793617">
        <ele>1724.0</ele>
        <time>2016-06-11T14:53:15Z</time>
      </trkpt>
      <trkpt lat="40.530600" lon="-4.793533">
        <ele>1724.0</ele>
        <time>2016-06-11T14:53:16Z</time>
      </trkpt>
      <trkpt lat="40.530650" lon="-4.793433">
        <ele>1724.0</ele>
        <time>2016-06-11T14:53:17Z</time>
      </trkpt>
      <trkpt lat="40.530717" lon="-4.793350">
        <ele>1723.0</ele>
        <time>2016-06-11T14:53:18Z</time>
      </trkpt>
      <trkpt lat="40.530767" lon="-4.793300">
        <ele>1721.0</ele>
        <time>2016-06-11T14:53:19Z</time>
      </trkpt>
      <trkpt lat="40.530833" lon="-4.793267">
        <ele>1719.0</ele>
        <time>2016-06-11T14:53:20Z</time>
      </trkpt>
      <trkpt lat="40.530883" lon="-4.793283">
        <ele>1718.0</ele>
        <time>2016-06-11T14:53:21Z</time>
      </trkpt>
      <trkpt lat="40.530933" lon="-4.793267">
        <ele>1719.0</ele>
        <time>2016-06-11T14:53:22Z</time>
      </trkpt>
      <trkpt lat="40.530967" lon="-4.793250">
        <ele>1721.0</ele>
        <time>2016-06-11T14:53:23Z</time>
      </trkpt>
      <trkpt lat="40.531000" lon="-4.793233">
        <ele>1724.0</ele>
        <time>2016-06-11T14:53:24Z</time>
      </trkpt>
      <trkpt lat="40.531033" lon="-4.793200">
        <ele>1726.0</ele>
        <time>2016-06-11T14:53:25Z</time>
      </trkpt>
      <trkpt lat="40.531067" lon="-4.793183">
        <ele>1727.0</ele>
        <time>2016-06-11T14:53:26Z</time>
      </trkpt>
      <trkpt lat="40.531100" lon="-4.793167">
        <ele>1728.0</ele>
        <time>2016-06-11T14:53:27Z</time>
      </trkpt>
      <trkpt lat="40.531150" lon="-4.793150">
        <ele>1730.0</ele>
        <time>2016-06-11T14:53:28Z</time>
      </trkpt>
      <trkpt lat="40.531183" lon="-4.793133">
        <ele>1733.0</ele>
        <time>2016-06-11T14:53:29Z</time>
      </trkpt>
      <trkpt lat="40.531217" lon="-4.793117">
        <ele>1735.0</ele>
        <time>2016-06-11T14:53:30Z</time>
      </trkpt>
      <trkpt lat="40.531233" lon="-4.793117">
        <ele>1737.0</ele>
        <time>2016-06-11T14:53:31Z</time>
      </trkpt>
      <trkpt lat="40.531250" lon="-4.793100">
        <ele>1738.0</ele>
        <time>2016-06-11T14:53:32Z</time>
      </trkpt>
      <trkpt lat="40.531283" lon="-4.793100">
        <ele>1740.0</ele>
        <time>2016-06-11T14:53:33Z</time>
      </trkpt>
      <trkpt lat="40.531300" lon="-4.793100">
        <ele>1740.0</ele>
        <time>2016-06-11T14:53:34Z</time>
      </trkpt>
      <trkpt lat="40.531333" lon="-4.793100">
        <ele>1742.0</ele>
        <time>2016-06-11T14:53:35Z</time>
      </trkpt>
      <trkpt lat="40.531350" lon="-4.793117">
        <ele>1744.0</ele>
        <time>2016-06-11T14:53:36Z</time>
      </trkpt>
      <trkpt lat="40.531367" lon="-4.793133">
        <ele>1746.0</ele>
        <time>2016-06-11T14:53:37Z</time>
      </trkpt>
      <trkpt lat="40.531383" lon="-4.793133">
        <ele>1747.0</ele>
        <time>2016-06-11T14:53:38Z</time>
      </trkpt>
      <trkpt lat="40.531400" lon="-4.793150">
        <ele>1748.0</ele>
        <time>2016-06-11T14:53:39Z</time>
      </trkpt>
      <trkpt lat="40.531417" lon="-4.793167">
        <ele>1750.0</ele>
        <time>2016-06-11T14:53:40Z</time>
      </trkpt>
      <trkpt lat="40.531433" lon="-4.793183">
        <ele>1752.0</ele>
        <time>2016-06-11T14:53:41Z</time>
      </trkpt>
      <trkpt lat="40.531433" lon="-4.793200">
        <ele>1753.0</ele>
        <time>2016-06-11T14:53:42Z</time>
      </trkpt>
      <trkpt lat="40.531433" lon="-4.793217">
        <ele>1754.0</ele>
        <time>2016-06-11T14:53:43Z</time>
      </trkpt>
      <trkpt lat="40.531417" lon="-4.793250">
        <ele>1755.0</ele>
        <time>2016-06-11T14:53:44Z</time>
      </trkpt>
      <trkpt lat="40.531400" lon="-4.793283">
        <ele>1756.0</ele>
        <time>2016-06-11T14:53:45Z</time>
      </trkpt>
      <trkpt lat="40.531367" lon="-4.793317">
        <ele>1757.0</ele>
        <time>2016-06-11T14:53:46Z</time>
      </trkpt>
      <trkpt lat="40.531350" lon="-4.793317">
        <ele>1758.0</ele>
        <time>2016-06-11T14:53:47Z</time>
      </trkpt>
      <trkpt lat="40.531333" lon="-4.793317">
        <ele>1757.0</ele>
        <time>2016-06-11T14:53:48Z</time>
      </trkpt>
      <trkpt lat="40.531300" lon="-4.793333">
        <ele>1756.0</ele>
        <time>2016-06-11T14:53:49Z</time>
      </trkpt>
      <trkpt lat="40.531250" lon="-4.793367">
        <ele>1754.0</ele>
        <time>2016-06-11T14:53:50Z</time>
      </trkpt>
      <trkpt lat="40.531200" lon="-4.793400">
        <ele>1753.0</ele>
        <time>2016-06-11T14:53:51Z</time>
      </trkpt>
      <trkpt lat="40.531117" lon="-4.793417">
        <ele>1754.0</ele>
        <time>2016-06-11T14:53:52Z</time>
      </trkpt>
      <trkpt lat="40.531017" lon="-4.793400">
        <ele>1754.0</ele>
        <time>2016-06-11T14:53:53Z</time>
      </trkpt>
      <trkpt lat="40.530900" lon="-4.793350">
        <ele>1754.0</ele>
        <time>2016-06-11T14:53:54Z</time>
      </trkpt>
      <trkpt lat="40.530767" lon="-4.793267">
        <ele>1754.0</ele>
        <time>2016-06-11T14:53:55Z</time>
      </trkpt>
      <trkpt lat="40.530650" lon="-4.793150">
        <ele>1754.0</ele>
        <time>2016-06-11T14:53:56Z</time>
      </trkpt>
      <trkpt lat="40.530533" lon="-4.793033">
        <ele>1754.0</ele>
        <time>2016-06-11T14:53:57Z</time>
      </trkpt>
      <trkpt lat="40.530450" lon="-4.792883">
        <ele>1754.0</ele>
        <time>2016-06-11T14:53:58Z</time>
      </trkpt>
      <trkpt lat="40.530383" lon="-4.792700">
        <ele>1754.0</ele>
        <time>2016-06-11T14:53:59Z</time>
      </trkpt>
      <trkpt lat="40.530333" lon="-4.792533">
        <ele>1754.0</ele>
        <time>2016-06-11T14:54:00Z</time>
      </trkpt>
      <trkpt lat="40.530300" lon="-4.792350">
        <ele>1754.0</ele>
        <time>2016-06-11T14:54:01Z</time>
      </trkpt>
      <trkpt lat="40.530300" lon="-4.792183">
        <ele>1753.0</ele>
        <time>2016-06-11T14:54:02Z</time>
      </trkpt>
      <trkpt lat="40.530300" lon="-4.792033">
        <ele>1753.0</ele>
        <time>2016-06-11T14:54:03Z</time>
      </trkpt>
      <trkpt lat="40.530333" lon="-4.791917">
        <ele>1751.0</ele>
        <time>2016-06-11T14:54:04Z</time>
      </trkpt>
      <trkpt lat="40.530367" lon="-4.791800">
        <ele>1750.0</ele>
        <time>2016-06-11T14:54:05Z</time>
      </trkpt>
      <trkpt lat="40.530417" lon="-4.791717">
        <ele>1750.0</ele>
        <time>2016-06-11T14:54:06Z</time>
      </trkpt>
      <trkpt lat="40.530467" lon="-4.791633">
        <ele>1751.0</ele>
        <time>2016-06-11T14:54:07Z</time>
      </trkpt>
      <trkpt lat="40.530517" lon="-4.791583">
        <ele>1752.0</ele>
        <time>2016-06-11T14:54:08Z</time>
      </trkpt>
      <trkpt lat="40.530550" lon="-4.791517">
        <ele>1751.0</ele>
        <time>2016-06-11T14:54:09Z</time>
      </trkpt>
      <trkpt lat="40.530583" lon="-4.791450">
        <ele>1751.0</ele>
        <time>2016-06-11T14:54:10Z</time>
      </trkpt>
      <trkpt lat="40.530633" lon="-4.791383">
        <ele>1751.0</ele>
        <time>2016-06-11T14:54:11Z</time>
      </trkpt>
      <trkpt lat="40.530683" lon="-4.791317">
        <ele>1751.0</ele>
        <time>2016-06-11T14:54:12Z</time>
      </trkpt>
      <trkpt lat="40.530733" lon="-4.791267">
        <ele>1752.0</ele>
        <time>2016-06-11T14:54:13Z</time>
      </trkpt>
      <trkpt lat="40.530767" lon="-4.791200">
        <ele>1754.0</ele>
        <time>2016-06-11T14:54:14Z</time>
      </trkpt>
      <trkpt lat="40.530817" lon="-4.791117">
        <ele>1755.0</ele>
        <time>2016-06-11T14:54:15Z</time>
      </trkpt>
      <trkpt lat="40.530867" lon="-4.791033">
        <ele>1755.0</ele>
        <time>2016-06-11T14:54:16Z</time>
      </trkpt>
      <trkpt lat="40.530917" lon="-4.790933">
        <ele>1755.0</ele>
        <time>2016-06-11T14:54:17Z</time>
      </trkpt>
      <trkpt lat="40.530967" lon="-4.790833">
        <ele>1755.0</ele>
        <time>2016-06-11T14:54:18Z</time>
      </trkpt>
      <trkpt lat="40.531033" lon="-4.790750">
        <ele>1755.0</ele>
        <time>2016-06-11T14:54:19Z</time>
      </trkpt>
      <trkpt lat="40.531083" lon="-4.790667">
        <ele>1755.0</ele>
        <time>2016-06-11T14:54:20Z</time>
      </trkpt>
      <trkpt lat="40.531150" lon="-4.790583">
        <ele>1756.0</ele>
        <time>2016-06-11T14:54:21Z</time>
      </trkpt>
      <trkpt lat="40.531217" lon="-4.790500">
        <ele>1757.0</ele>
        <time>2016-06-11T14:54:22Z</time>
      </trkpt>
      <trkpt lat="40.531283" lon="-4.790433">
        <ele>1759.0</ele>
        <time>2016-06-11T14:54:23Z</time>
      </trkpt>
      <trkpt lat="40.531333" lon="-4.790367">
        <ele>1761.0</ele>
        <time>2016-06-11T14:54:24Z</time>
      </trkpt>
      <trkpt lat="40.531367" lon="-4.790283">
        <ele>1763.0</ele>
        <time>2016-06-11T14:54:25Z</time>
      </trkpt>
      <trkpt lat="40.531400" lon="-4.790183">
        <ele>1765.0</ele>
        <time>2016-06-11T14:54:26Z</time>
      </trkpt>
      <trkpt lat="40.531433" lon="-4.790083">
        <ele>1766.0</ele>
        <time>2016-06-11T14:54:27Z</time>
      </trkpt>
      <trkpt lat="40.531483" lon="-4.790017">
        <ele>1767.0</ele>
        <time>2016-06-11T14:54:28Z</time>
      </trkpt>
      <trkpt lat="40.531517" lon="-4.789950">
        <ele>1769.0</ele>
        <time>2016-06-11T14:54:29Z</time>
      </trkpt>
      <trkpt lat="40.531567" lon="-4.789883">
        <ele>1770.0</ele>
        <time>2016-06-11T14:54:30Z</time>
      </trkpt>
      <trkpt lat="40.531617" lon="-4.789817">
        <ele>1772.0</ele>
        <time>2016-06-11T14:54:31Z</time>
      </trkpt>
      <trkpt lat="40.531667" lon="-4.789767">
        <ele>1773.0</ele>
        <time>2016-06-11T14:54:32Z</time>
      </trkpt>
      <trkpt lat="40.531700" lon="-4.789700">
        <ele>1775.0</ele>
        <time>2016-06-11T14:54:33Z</time>
      </trkpt>
      <trkpt lat="40.531750" lon="-4.789633">
        <ele>1776.0</ele>
        <time>2016-06-11T14:54:34Z</time>
      </trkpt>
      <trkpt lat="40.531800" lon="-4.789583">
        <ele>1778.0</ele>
        <time>2016-06-11T14:54:35Z</time>
      </trkpt>
      <trkpt lat="40.531850" lon="-4.789517">
        <ele>1779.0</ele>
        <time>2016-06-11T14:54:36Z</time>
      </trkpt>
      <trkpt lat="40.531900" lon="-4.789450">
        <ele>1781.0</ele>
        <time>2016-06-11T14:54:37Z</time>
      </trkpt>
      <trkpt lat="40.531933" lon="-4.789367">
        <ele>1783.0</ele>
        <time>2016-06-11T14:54:38Z</time>
      </trkpt>
      <trkpt lat="40.531983" lon="-4.789300">
        <ele>1785.0</ele>
        <time>2016-06-11T14:54:39Z</time>
      </trkpt>
      <trkpt lat="40.532033" lon="-4.789217">
        <ele>1787.0</ele>
        <time>2016-06-11T14:54:40Z</time>
      </trkpt>
      <trkpt lat="40.532083" lon="-4.789117">
        <ele>1789.0</ele>
        <time>2016-06-11T14:54:41Z</time>
      </trkpt>
      <trkpt lat="40.532117" lon="-4.789033">
        <ele>1791.0</ele>
        <time>2016-06-11T14:54:42Z</time>
      </trkpt>
      <trkpt lat="40.532150" lon="-4.788950">
        <ele>1793.0</ele>
        <time>2016-06-11T14:54:43Z</time>
      </trkpt>
      <trkpt lat="40.532183" lon="-4.788883">
        <ele>1794.0</ele>
        <time>2016-06-11T14:54:44Z</time>
      </trkpt>
      <trkpt lat="40.532217" lon="-4.788817">
        <ele>1795.0</ele>
        <time>2016-06-11T14:54:45Z</time>
      </trkpt>
      <trkpt lat="40.532250" lon="-4.788733">
        <ele>1796.0</ele>
        <time>2016-06-11T14:54:46Z</time>
      </trkpt>
      <trkpt lat="40.532283" lon="-4.788617">
        <ele>1796.0</ele>
        <time>2016-06-11T14:54:47Z</time>
      </trkpt>
      <trkpt lat="40.532300" lon="-4.788467">
        <ele>1797.0</ele>
        <time>2016-06-11T14:54:48Z</time>
      </trkpt>
      <trkpt lat="40.532300" lon="-4.788300">
        <ele>1797.0</ele>
        <time>2016-06-11T14:54:49Z</time>
      </trkpt>
      <trkpt lat="40.532283" lon="-4.788133">
        <ele>1796.0</ele>
        <time>2016-06-11T14:54:50Z</time>
      </trkpt>
      <trkpt lat="40.532233" lon="-4.787950">
        <ele>1793.0</ele>
        <time>2016-06-11T14:54:51Z</time>
      </trkpt>
      <trkpt lat="40.532150" lon="-4.787750">
        <ele>1791.0</ele>
        <time>2016-06-11T14:54:52Z</time>
      </trkpt>
      <trkpt lat="40.532050" lon="-4.787567">
        <ele>1792.0</ele>
        <time>2016-06-11T14:54:53Z</time>
      </trkpt>
      <trkpt lat="40.531950" lon="-4.787400">
        <ele>1795.0</ele>
        <time>2016-06-11T14:54:54Z</time>
      </trkpt>
      <trkpt lat="40.531850" lon="-4.787267">
        <ele>1799.0</ele>
        <time>2016-06-11T14:54:55Z</time>
      </trkpt>
      <trkpt lat="40.531750" lon="-4.787167">
        <ele>1802.0</ele>
        <time>2016-06-11T14:54:56Z</time>
      </trkpt>
      <trkpt lat="40.531667" lon="-4.787050">
        <ele>1803.0</ele>
        <time>2016-06-11T14:54:57Z</time>
      </trkpt>
      <trkpt lat="40.531567" lon="-4.786950">
        <ele>1803.0</ele>
        <time>2016-06-11T14:54:58Z</time>
      </trkpt>
      <trkpt lat="40.531467" lon="-4.786833">
        <ele>1803.0</ele>
        <time>2016-06-11T14:54:59Z</time>
      </trkpt>
      <trkpt lat="40.531350" lon="-4.786767">
        <ele>1803.0</ele>
        <time>2016-06-11T14:55:00Z</time>
      </trkpt>
      <trkpt lat="40.531250" lon="-4.786733">
        <ele>1804.0</ele>
        <time>2016-06-11T14:55:01Z</time>
      </trkpt>
      <trkpt lat="40.531150" lon="-4.786717">
        <ele>1805.0</ele>
        <time>2016-06-11T14:55:02Z</time>
      </trkpt>
      <trkpt lat="40.531083" lon="-4.786717">
        <ele>1806.0</ele>
        <time>2016-06-11T14:55:03Z</time>
      </trkpt>
      <trkpt lat="40.531000" lon="-4.786733">
        <ele>1807.0</ele>
        <time>2016-06-11T14:55:04Z</time>
      </trkpt>
      <trkpt lat="40.530933" lon="-4.786733">
        <ele>1808.0</ele>
        <time>2016-06-11T14:55:05Z</time>
      </trkpt>
      <trkpt lat="40.530867" lon="-4.786733">
        <ele>1809.0</ele>
        <time>2016-06-11T14:55:06Z</time>
      </trkpt>
      <trkpt lat="40.530817" lon="-4.786750">
        <ele>1810.0</ele>
        <time>2016-06-11T14:55:07Z</time>
      </trkpt>
      <trkpt lat="40.530750" lon="-4.786767">
        <ele>1811.0</ele>
        <time>2016-06-11T14:55:08Z</time>
      </trkpt>
      <trkpt lat="40.530700" lon="-4.786800">
        <ele>1811.0</ele>
        <time>2016-06-11T14:55:09Z</time>
      </trkpt>
      <trkpt lat="40.530667" lon="-4.786817">
        <ele>1812.0</ele>
        <time>2016-06-11T14:55:10Z</time>
      </trkpt>
      <trkpt lat="40.530650" lon="-4.786833">
        <ele>1813.0</ele>
        <time>2016-06-11T14:55:11Z</time>
      </trkpt>
      <trkpt lat="40.530667" lon="-4.786850">
        <ele>1814.0</ele>
        <time>2016-06-11T14:55:12Z</time>
      </trkpt>
      <trkpt lat="40.530667" lon="-4.786850">
        <ele>1814.0</ele>
        <time>2016-06-11T14:55:13Z</time>
      </trkpt>
      <trkpt lat="40.530683" lon="-4.786850">
        <ele>1815.0</ele>
        <time>2016-06-11T14:55:14Z</time>
      </trkpt>
      <trkpt lat="40.530700" lon="-4.786850">
        <ele>1816.0</ele>
        <time>2016-06-11T14:55:15Z</time>
      </trkpt>
      <trkpt lat="40.530717" lon="-4.786833">
        <ele>1817.0</ele>
        <time>2016-06-11T14:55:16Z</time>
      </trkpt>
      <trkpt lat="40.530750" lon="-4.786800">
        <ele>1818.0</ele>
        <time>2016-06-11T14:55:17Z</time>
      </trkpt>
      <trkpt lat="40.530800" lon="-4.786750">
        <ele>1819.0</ele>
        <time>2016-06-11T14:55:18Z</time>
      </trkpt>
      <trkpt lat="40.530850" lon="-4.786700">
        <ele>1819.0</ele>
        <time>2016-06-11T14:55:19Z</time>
      </trkpt>
      <trkpt lat="40.530900" lon="-4.786633">
        <ele>1820.0</ele>
        <time>2016-06-11T14:55:20Z</time>
      </trkpt>
      <trkpt lat="40.530950" lon="-4.786583">
        <ele>1820.0</ele>
        <time>2016-06-11T14:55:21Z</time>
      </trkpt>
      <trkpt lat="40.531017" lon="-4.786533">
        <ele>1821.0</ele>
        <time>2016-06-11T14:55:22Z</time>
      </trkpt>
      <trkpt lat="40.531067" lon="-4.786500">
        <ele>1823.0</ele>
        <time>2016-06-11T14:55:23Z</time>
      </trkpt>
      <trkpt lat="40.531117" lon="-4.786450">
        <ele>1824.0</ele>
        <time>2016-06-11T14:55:24Z</time>
      </trkpt>
      <trkpt lat="40.531167" lon="-4.786417">
        <ele>1825.0</ele>
        <time>2016-06-11T14:55:25Z</time>
      </trkpt>
      <trkpt lat="40.531217" lon="-4.786350">
        <ele>1826.0</ele>
        <time>2016-06-11T14:55:26Z</time>
      </trkpt>
      <trkpt lat="40.531267" lon="-4.786283">
        <ele>1827.0</ele>
        <time>2016-06-11T14:55:27Z</time>
      </trkpt>
      <trkpt lat="40.531317" lon="-4.786200">
        <ele>1829.0</ele>
        <time>2016-06-11T14:55:28Z</time>
      </trkpt>
      <trkpt lat="40.531350" lon="-4.786117">
        <ele>1831.0</ele>
        <time>2016-06-11T14:55:29Z</time>
      </trkpt>
      <trkpt lat="40.531400" lon="-4.786050">
        <ele>1833.0</ele>
        <time>2016-06-11T14:55:30Z</time>
      </trkpt>
      <trkpt lat="40.531433" lon="-4.786000">
        <ele>1834.0</ele>
        <time>2016-06-11T14:55:31Z</time>
      </trkpt>
      <trkpt lat="40.531467" lon="-4.785983">
        <ele>1835.0</ele>
        <time>2016-06-11T14:55:32Z</time>
      </trkpt>
      <trkpt lat="40.531483" lon="-4.785933">
        <ele>1836.0</ele>
        <time>2016-06-11T14:55:33Z</time>
      </trkpt>
      <trkpt lat="40.531533" lon="-4.785850">
        <ele>1836.0</ele>
        <time>2016-06-11T14:55:34Z</time>
      </trkpt>
      <trkpt lat="40.531567" lon="-4.785750">
        <ele>1836.0</ele>
        <time>2016-06-11T14:55:35Z</time>
      </trkpt>
      <trkpt lat="40.531600" lon="-4.785650">
        <ele>1837.0</ele>
        <time>2016-06-11T14:55:36Z</time>
      </trkpt>
      <trkpt lat="40.531633" lon="-4.785550">
        <ele>1838.0</ele>
        <time>2016-06-11T14:55:37Z</time>
      </trkpt>
      <trkpt lat="40.531650" lon="-4.785433">
        <ele>1838.0</ele>
        <time>2016-06-11T14:55:38Z</time>
      </trkpt>
      <trkpt lat="40.531683" lon="-4.785300">
        <ele>1839.0</ele>
        <time>2016-06-11T14:55:39Z</time>
      </trkpt>
      <trkpt lat="40.531700" lon="-4.785167">
        <ele>1839.0</ele>
        <time>2016-06-11T14:55:40Z</time>
      </trkpt>
      <trkpt lat="40.531717" lon="-4.785017">
        <ele>1841.0</ele>
        <time>2016-06-11T14:55:41Z</time>
      </trkpt>
      <trkpt lat="40.531733" lon="-4.784883">
        <ele>1843.0</ele>
        <time>2016-06-11T14:55:42Z</time>
      </trkpt>
      <trkpt lat="40.531733" lon="-4.784767">
        <ele>1845.0</ele>
        <time>2016-06-11T14:55:43Z</time>
      </trkpt>
      <trkpt lat="40.531733" lon="-4.784633">
        <ele>1847.0</ele>
        <time>2016-06-11T14:55:44Z</time>
      </trkpt>
      <trkpt lat="40.531717" lon="-4.784483">
        <ele>1847.0</ele>
        <time>2016-06-11T14:55:45Z</time>
      </trkpt>
      <trkpt lat="40.531700" lon="-4.784333">
        <ele>1846.0</ele>
        <time>2016-06-11T14:55:46Z</time>
      </trkpt>
      <trkpt lat="40.531633" lon="-4.784167">
        <ele>1845.0</ele>
        <time>2016-06-11T14:55:47Z</time>
      </trkpt>
      <trkpt lat="40.531567" lon="-4.784017">
        <ele>1845.0</ele>
        <time>2016-06-11T14:55:48Z</time>
      </trkpt>
      <trkpt lat="40.531467" lon="-4.783883">
        <ele>1845.0</ele>
        <time>2016-06-11T14:55:49Z</time>
      </trkpt>
      <trkpt lat="40.531367" lon="-4.783783">
        <ele>1844.0</ele>
        <time>2016-06-11T14:55:50Z</time>
      </trkpt>
      <trkpt lat="40.531267" lon="-4.783700">
        <ele>1844.0</ele>
        <time>2016-06-11T14:55:51Z</time>
      </trkpt>
      <trkpt lat="40.531150" lon="-4.783633">
        <ele>1842.0</ele>
        <time>2016-06-11T14:55:52Z</time>
      </trkpt>
      <trkpt lat="40.531050" lon="-4.783583">
        <ele>1841.0</ele>
        <time>2016-06-11T14:55:53Z</time>
      </trkpt>
      <trkpt lat="40.530950" lon="-4.783550">
        <ele>1840.0</ele>
        <time>2016-06-11T14:55:54Z</time>
      </trkpt>
      <trkpt lat="40.530867" lon="-4.783550">
        <ele>1839.0</ele>
        <time>2016-06-11T14:55:55Z</time>
      </trkpt>
      <trkpt lat="40.530800" lon="-4.783550">
        <ele>1838.0</ele>
        <time>2016-06-11T14:55:56Z</time>
      </trkpt>
      <trkpt lat="40.530750" lon="-4.783600">
        <ele>1837.0</ele>
        <time>2016-06-11T14:55:57Z</time>
      </trkpt>
      <trkpt lat="40.530717" lon="-4.783633">
        <ele>1836.0</ele>
        <time>2016-06-11T14:55:58Z</time>
      </trkpt>
      <trkpt lat="40.530700" lon="-4.783683">
        <ele>1836.0</ele>
        <time>2016-06-11T14:55:59Z</time>
      </trkpt>
      <trkpt lat="40.530700" lon="-4.783700">
        <ele>1838.0</ele>
        <time>2016-06-11T14:56:00Z</time>
      </trkpt>
      <trkpt lat="40.530683" lon="-4.783717">
        <ele>1839.0</ele>
        <time>2016-06-11T14:56:01Z</time>
      </trkpt>
      <trkpt lat="40.530683" lon="-4.783717">
        <ele>1839.0</ele>
        <time>2016-06-11T14:56:02Z</time>
      </trkpt>
      <trkpt lat="40.530683" lon="-4.783717">
        <ele>1839.0</ele>
        <time>2016-06-11T14:56:03Z</time>
      </trkpt>
      <trkpt lat="40.530700" lon="-4.783717">
        <ele>1838.0</ele>
        <time>2016-06-11T14:56:04Z</time>
      </trkpt>
      <trkpt lat="40.530750" lon="-4.783733">
        <ele>1837.0</ele>
        <time>2016-06-11T14:56:05Z</time>
      </trkpt>
      <trkpt lat="40.530800" lon="-4.783717">
        <ele>1837.0</ele>
        <time>2016-06-11T14:56:06Z</time>
      </trkpt>
      <trkpt lat="40.530833" lon="-4.783700">
        <ele>1841.0</ele>
        <time>2016-06-11T14:56:07Z</time>
      </trkpt>
      <trkpt lat="40.530867" lon="-4.783683">
        <ele>1844.0</ele>
        <time>2016-06-11T14:56:08Z</time>
      </trkpt>
      <trkpt lat="40.530900" lon="-4.783667">
        <ele>1846.0</ele>
        <time>2016-06-11T14:56:09Z</time>
      </trkpt>
      <trkpt lat="40.530933" lon="-4.783650">
        <ele>1847.0</ele>
        <time>2016-06-11T14:56:10Z</time>
      </trkpt>
      <trkpt lat="40.530967" lon="-4.783650">
        <ele>1848.0</ele>
        <time>2016-06-11T14:56:11Z</time>
      </trkpt>
      <trkpt lat="40.531000" lon="-4.783650">
        <ele>1849.0</ele>
        <time>2016-06-11T14:56:12Z</time>
      </trkpt>
      <trkpt lat="40.531033" lon="-4.783633">
        <ele>1851.0</ele>
        <time>2016-06-11T14:56:13Z</time>
      </trkpt>
      <trkpt lat="40.531083" lon="-4.783617">
        <ele>1853.0</ele>
        <time>2016-06-11T14:56:14Z</time>
      </trkpt>
      <trkpt lat="40.531100" lon="-4.783600">
        <ele>1855.0</ele>
        <time>2016-06-11T14:56:15Z</time>
      </trkpt>
      <trkpt lat="40.531150" lon="-4.783567">
        <ele>1856.0</ele>
        <time>2016-06-11T14:56:16Z</time>
      </trkpt>
      <trkpt lat="40.531183" lon="-4.783550">
        <ele>1858.0</ele>
        <time>2016-06-11T14:56:17Z</time>
      </trkpt>
      <trkpt lat="40.531233" lon="-4.783517">
        <ele>1859.0</ele>
        <time>2016-06-11T14:56:18Z</time>
      </trkpt>
      <trkpt lat="40.531283" lon="-4.783483">
        <ele>1861.0</ele>
        <time>2016-06-11T14:56:19Z</time>
      </trkpt>
      <trkpt lat="40.531317" lon="-4.783467">
        <ele>1863.0</ele>
        <time>2016-06-11T14:56:20Z</time>
      </trkpt>
      <trkpt lat="40.531350" lon="-4.783450">
        <ele>1865.0</ele>
        <time>2016-06-11T14:56:21Z</time>
      </trkpt>
      <trkpt lat="40.531383" lon="-4.783417">
        <ele>1867.0</ele>
        <time>2016-06-11T14:56:22Z</time>
      </trkpt>
      <trkpt lat="40.531400" lon="-4.783383">
        <ele>1869.0</ele>
        <time>2016-06-11T14:56:23Z</time>
      </trkpt>
      <trkpt lat="40.531433" lon="-4.783333">
        <ele>1870.0</ele>
        <time>2016-06-11T14:56:24Z</time>
      </trkpt>
      <trkpt lat="40.531467" lon="-4.783267">
        <ele>1871.0</ele>
        <time>2016-06-11T14:56:25Z</time>
      </trkpt>
      <trkpt lat="40.531500" lon="-4.783200">
        <ele>1871.0</ele>
        <time>2016-06-11T14:56:26Z</time>
      </trkpt>
      <trkpt lat="40.531533" lon="-4.783100">
        <ele>1871.0</ele>
        <time>2016-06-11T14:56:27Z</time>
      </trkpt>
      <trkpt lat="40.531567" lon="-4.782983">
        <ele>1871.0</ele>
        <time>2016-06-11T14:56:28Z</time>
      </trkpt>
      <trkpt lat="40.531600" lon="-4.782867">
        <ele>1871.0</ele>
        <time>2016-06-11T14:56:29Z</time>
      </trkpt>
      <trkpt lat="40.531617" lon="-4.782733">
        <ele>1871.0</ele>
        <time>2016-06-11T14:56:30Z</time>
      </trkpt>
      <trkpt lat="40.531617" lon="-4.782567">
        <ele>1870.0</ele>
        <time>2016-06-11T14:56:31Z</time>
      </trkpt>
      <trkpt lat="40.531617" lon="-4.782400">
        <ele>1869.0</ele>
        <time>2016-06-11T14:56:32Z</time>
      </trkpt>
      <trkpt lat="40.531567" lon="-4.782200">
        <ele>1867.0</ele>
        <time>2016-06-11T14:56:33Z</time>
      </trkpt>
      <trkpt lat="40.531500" lon="-4.782017">
        <ele>1866.0</ele>
        <time>2016-06-11T14:56:34Z</time>
      </trkpt>
      <trkpt lat="40.531400" lon="-4.781867">
        <ele>1865.0</ele>
        <time>2016-06-11T14:56:35Z</time>
      </trkpt>
      <trkpt lat="40.531267" lon="-4.781750">
        <ele>1864.0</ele>
        <time>2016-06-11T14:56:36Z</time>
      </trkpt>
      <trkpt lat="40.531150" lon="-4.781683">
        <ele>1864.0</ele>
        <time>2016-06-11T14:56:37Z</time>
      </trkpt>
      <trkpt lat="40.531033" lon="-4.781650">
        <ele>1865.0</ele>
        <time>2016-06-11T14:56:38Z</time>
      </trkpt>
      <trkpt lat="40.530917" lon="-4.781617">
        <ele>1866.0</ele>
        <time>2016-06-11T14:56:39Z</time>
      </trkpt>
      <trkpt lat="40.530817" lon="-4.781583">
        <ele>1867.0</ele>
        <time>2016-06-11T14:56:40Z</time>
      </trkpt>
      <trkpt lat="40.530733" lon="-4.781567">
        <ele>1867.0</ele>
        <time>2016-06-11T14:56:41Z</time>
      </trkpt>
      <trkpt lat="40.530650" lon="-4.781583">
        <ele>1867.0</ele>
        <time>2016-06-11T14:56:42Z</time>
      </trkpt>
      <trkpt lat="40.530583" lon="-4.781600">
        <ele>1867.0</ele>
        <time>2016-06-11T14:56:43Z</time>
      </trkpt>
      <trkpt lat="40.530533" lon="-4.781633">
        <ele>1869.0</ele>
        <time>2016-06-11T14:56:44Z</time>
      </trkpt>
      <trkpt lat="40.530500" lon="-4.781667">
        <ele>1871.0</ele>
        <time>2016-06-11T14:56:45Z</time>
      </trkpt>
      <trkpt lat="40.530467" lon="-4.781667">
        <ele>1872.0</ele>
        <time>2016-06-11T14:56:46Z</time>
      </trkpt>
      <trkpt lat="40.530450" lon="-4.781683">
        <ele>1873.0</ele>
        <time>2016-06-11T14:56:47Z</time>
      </trkpt>
      <trkpt lat="40.530433" lon="-4.781717">
        <ele>1874.0</ele>
        <time>2016-06-11T14:56:48Z</time>
      </trkpt>
      <trkpt lat="40.530400" lon="-4.781750">
        <ele>1874.0</ele>
        <time>2016-06-11T14:56:49Z</time>
      </trkpt>
      <trkpt lat="40.530367" lon="-4.781783">
        <ele>1875.0</ele>
        <time>2016-06-11T14:56:50Z</time>
      </trkpt>
      <trkpt lat="40.530333" lon="-4.781800">
        <ele>1876.0</ele>
        <time>2016-06-11T14:56:51Z</time>
      </trkpt>
      <trkpt lat="40.530317" lon="-4.781800">
        <ele>1877.0</ele>
        <time>2016-06-11T14:56:52Z</time>
      </trkpt>
      <trkpt lat="40.530317" lon="-4.781800">
        <ele>1877.0</ele>
        <time>2016-06-11T14:56:53Z</time>
      </trkpt>
      <trkpt lat="40.530333" lon="-4.781800">
        <ele>1877.0</ele>
        <time>2016-06-11T14:56:54Z</time>
      </trkpt>
      <trkpt lat="40.530350" lon="-4.781783">
        <ele>1877.0</ele>
        <time>2016-06-11T14:56:55Z</time>
      </trkpt>
      <trkpt lat="40.530367" lon="-4.781750">
        <ele>1877.0</ele>
        <time>2016-06-11T14:56:56Z</time>
      </trkpt>
      <trkpt lat="40.530400" lon="-4.781717">
        <ele>1877.0</ele>
        <time>2016-06-11T14:56:57Z</time>
      </trkpt>
      <trkpt lat="40.530417" lon="-4.781667">
        <ele>1877.0</ele>
        <time>2016-06-11T14:56:58Z</time>
      </trkpt>
      <trkpt lat="40.530450" lon="-4.781617">
        <ele>1876.0</ele>
        <time>2016-06-11T14:56:59Z</time>
      </trkpt>
      <trkpt lat="40.530483" lon="-4.781567">
        <ele>1874.0</ele>
        <time>2016-06-11T14:57:00Z</time>
      </trkpt>
      <trkpt lat="40.530533" lon="-4.781517">
        <ele>1872.0</ele>
        <time>2016-06-11T14:57:01Z</time>
      </trkpt>
      <trkpt lat="40.530567" lon="-4.781450">
        <ele>1872.0</ele>
        <time>2016-06-11T14:57:02Z</time>
      </trkpt>
      <trkpt lat="40.530600" lon="-4.781400">
        <ele>1872.0</ele>
        <time>2016-06-11T14:57:03Z</time>
      </trkpt>
      <trkpt lat="40.530633" lon="-4.781317">
        <ele>1873.0</ele>
        <time>2016-06-11T14:57:04Z</time>
      </trkpt>
      <trkpt lat="40.530650" lon="-4.781233">
        <ele>1873.0</ele>
        <time>2016-06-11T14:57:05Z</time>
      </trkpt>
      <trkpt lat="40.530683" lon="-4.781133">
        <ele>1873.0</ele>
        <time>2016-06-11T14:57:06Z</time>
      </trkpt>
      <trkpt lat="40.530717" lon="-4.781017">
        <ele>1872.0</ele>
        <time>2016-06-11T14:57:07Z</time>
      </trkpt>
      <trkpt lat="40.530750" lon="-4.780917">
        <ele>1871.0</ele>
        <time>2016-06-11T14:57:08Z</time>
      </trkpt>
      <trkpt lat="40.530800" lon="-4.780817">
        <ele>1871.0</ele>
        <time>2016-06-11T14:57:09Z</time>
      </trkpt>
      <trkpt lat="40.530850" lon="-4.780717">
        <ele>1871.0</ele>
        <time>2016-06-11T14:57:10Z</time>
      </trkpt>
      <trkpt lat="40.530900" lon="-4.780633">
        <ele>1872.0</ele>
        <time>2016-06-11T14:57:11Z</time>
      </trkpt>
      <trkpt lat="40.530933" lon="-4.780567">
        <ele>1873.0</ele>
        <time>2016-06-11T14:57:12Z</time>
      </trkpt>
      <trkpt lat="40.530967" lon="-4.780517">
        <ele>1873.0</ele>
        <time>2016-06-11T14:57:13Z</time>
      </trkpt>
      <trkpt lat="40.531000" lon="-4.780450">
        <ele>1873.0</ele>
        <time>2016-06-11T14:57:14Z</time>
      </trkpt>
      <trkpt lat="40.531033" lon="-4.780383">
        <ele>1871.0</ele>
        <time>2016-06-11T14:57:15Z</time>
      </trkpt>
      <trkpt lat="40.531100" lon="-4.780300">
        <ele>1870.0</ele>
        <time>2016-06-11T14:57:16Z</time>
      </trkpt>
      <trkpt lat="40.531150" lon="-4.780217">
        <ele>1869.0</ele>
        <time>2016-06-11T14:57:17Z</time>
      </trkpt>
      <trkpt lat="40.531200" lon="-4.780133">
        <ele>1870.0</ele>
        <time>2016-06-11T14:57:18Z</time>
      </trkpt>
      <trkpt lat="40.531233" lon="-4.780050">
        <ele>1870.0</ele>
        <time>2016-06-11T14:57:19Z</time>
      </trkpt>
      <trkpt lat="40.531283" lon="-4.779967">
        <ele>1870.0</ele>
        <time>2016-06-11T14:57:20Z</time>
      </trkpt>
      <trkpt lat="40.531333" lon="-4.779883">
        <ele>1870.0</ele>
        <time>2016-06-11T14:57:21Z</time>
      </trkpt>
      <trkpt lat="40.531367" lon="-4.779817">
        <ele>1870.0</ele>
        <time>2016-06-11T14:57:22Z</time>
      </trkpt>
      <trkpt lat="40.531417" lon="-4.779733">
        <ele>1870.0</ele>
        <time>2016-06-11T14:57:23Z</time>
      </trkpt>
      <trkpt lat="40.531450" lon="-4.779667">
        <ele>1870.0</ele>
        <time>2016-06-11T14:57:24Z</time>
      </trkpt>
      <trkpt lat="40.531483" lon="-4.779600">
        <ele>1869.0</ele>
        <time>2016-06-11T14:57:25Z</time>
      </trkpt>
      <trkpt lat="40.531517" lon="-4.779533">
        <ele>1868.0</ele>
        <time>2016-06-11T14:57:26Z</time>
      </trkpt>
      <trkpt lat="40.531550" lon="-4.779467">
        <ele>1867.0</ele>
        <time>2016-06-11T14:57:27Z</time>
      </trkpt>
      <trkpt lat="40.531600" lon="-4.779400">
        <ele>1866.0</ele>
        <time>2016-06-11T14:57:28Z</time>
      </trkpt>
      <trkpt lat="40.531650" lon="-4.779333">
        <ele>1866.0</ele>
        <time>2016-06-11T14:57:29Z</time>
      </trkpt>
      <trkpt lat="40.531700" lon="-4.779250">
        <ele>1866.0</ele>
        <time>2016-06-11T14:57:30Z</time>
      </trkpt>
      <trkpt lat="40.531733" lon="-4.779167">
        <ele>1867.0</ele>
        <time>2016-06-11T14:57:31Z</time>
      </trkpt>
      <trkpt lat="40.531783" lon="-4.779067">
        <ele>1868.0</ele>
        <time>2016-06-11T14:57:32Z</time>
      </trkpt>
      <trkpt lat="40.531817" lon="-4.778950">
        <ele>1869.0</ele>
        <time>2016-06-11T14:57:33Z</time>
      </trkpt>
      <trkpt lat="40.531850" lon="-4.778817">
        <ele>1870.0</ele>
        <time>2016-06-11T14:57:34Z</time>
      </trkpt>
      <trkpt lat="40.531883" lon="-4.778700">
        <ele>1871.0</ele>
        <time>2016-06-11T14:57:35Z</time>
      </trkpt>
      <trkpt lat="40.531917" lon="-4.778600">
        <ele>1872.0</ele>
        <time>2016-06-11T14:57:36Z</time>
      </trkpt>
      <trkpt lat="40.531950" lon="-4.778500">
        <ele>1872.0</ele>
        <time>2016-06-11T14:57:37Z</time>
      </trkpt>
      <trkpt lat="40.532000" lon="-4.778417">
        <ele>1871.0</ele>
        <time>2016-06-11T14:57:38Z</time>
      </trkpt>
      <trkpt lat="40.532033" lon="-4.778367">
        <ele>1870.0</ele>
        <time>2016-06-11T14:57:39Z</time>
      </trkpt>
      <trkpt lat="40.532083" lon="-4.778300">
        <ele>1870.0</ele>
        <time>2016-06-11T14:57:40Z</time>
      </trkpt>
      <trkpt lat="40.532117" lon="-4.778233">
        <ele>1869.0</ele>
        <time>2016-06-11T14:57:41Z</time>
      </trkpt>
      <trkpt lat="40.532150" lon="-4.778167">
        <ele>1868.0</ele>
        <time>2016-06-11T14:57:42Z</time>
      </trkpt>
      <trkpt lat="40.532200" lon="-4.778100">
        <ele>1867.0</ele>
        <time>2016-06-11T14:57:43Z</time>
      </trkpt>
      <trkpt lat="40.532233" lon="-4.778033">
        <ele>1866.0</ele>
        <time>2016-06-11T14:57:44Z</time>
      </trkpt>
      <trkpt lat="40.532283" lon="-4.777983">
        <ele>1865.0</ele>
        <time>2016-06-11T14:57:45Z</time>
      </trkpt>
      <trkpt lat="40.532317" lon="-4.777933">
        <ele>1864.0</ele>
        <time>2016-06-11T14:57:46Z</time>
      </trkpt>
      <trkpt lat="40.532350" lon="-4.777883">
        <ele>1863.0</ele>
        <time>2016-06-11T14:57:47Z</time>
      </trkpt>
      <trkpt lat="40.532400" lon="-4.777817">
        <ele>1861.0</ele>
        <time>2016-06-11T14:57:48Z</time>
      </trkpt>
      <trkpt lat="40.532433" lon="-4.777767">
        <ele>1859.0</ele>
        <time>2016-06-11T14:57:49Z</time>
      </trkpt>
      <trkpt lat="40.532500" lon="-4.777717">
        <ele>1857.0</ele>
        <time>2016-06-11T14:57:50Z</time>
      </trkpt>
      <trkpt lat="40.532550" lon="-4.777667">
        <ele>1856.0</ele>
        <time>2016-06-11T14:57:51Z</time>
      </trkpt>
      <trkpt lat="40.532583" lon="-4.777617">
        <ele>1855.0</ele>
        <time>2016-06-11T14:57:52Z</time>
      </trkpt>
      <trkpt lat="40.532617" lon="-4.777567">
        <ele>1855.0</ele>
        <time>2016-06-11T14:57:53Z</time>
      </trkpt>
      <trkpt lat="40.532667" lon="-4.777500">
        <ele>1854.0</ele>
        <time>2016-06-11T14:57:54Z</time>
      </trkpt>
      <trkpt lat="40.532733" lon="-4.777433">
        <ele>1850.0</ele>
        <time>2016-06-11T14:57:55Z</time>
      </trkpt>
      <trkpt lat="40.532817" lon="-4.777350">
        <ele>1847.0</ele>
        <time>2016-06-11T14:57:56Z</time>
      </trkpt>
      <trkpt lat="40.532883" lon="-4.777250">
        <ele>1846.0</ele>
        <time>2016-06-11T14:57:57Z</time>
      </trkpt>
      <trkpt lat="40.532967" lon="-4.777150">
        <ele>1846.0</ele>
        <time>2016-06-11T14:57:58Z</time>
      </trkpt>
      <trkpt lat="40.533017" lon="-4.777033">
        <ele>1847.0</ele>
        <time>2016-06-11T14:57:59Z</time>
      </trkpt>
      <trkpt lat="40.533083" lon="-4.776933">
        <ele>1847.0</ele>
        <time>2016-06-11T14:58:00Z</time>
      </trkpt>
      <trkpt lat="40.533133" lon="-4.776833">
        <ele>1846.0</ele>
        <time>2016-06-11T14:58:01Z</time>
      </trkpt>
      <trkpt lat="40.533200" lon="-4.776717">
        <ele>1845.0</ele>
        <time>2016-06-11T14:58:02Z</time>
      </trkpt>
      <trkpt lat="40.533283" lon="-4.776600">
        <ele>1844.0</ele>
        <time>2016-06-11T14:58:03Z</time>
      </trkpt>
      <trkpt lat="40.533333" lon="-4.776483">
        <ele>1844.0</ele>
        <time>2016-06-11T14:58:04Z</time>
      </trkpt>
      <trkpt lat="40.533383" lon="-4.776383">
        <ele>1846.0</ele>
        <time>2016-06-11T14:58:05Z</time>
      </trkpt>
      <trkpt lat="40.533417" lon="-4.776300">
        <ele>1848.0</ele>
        <time>2016-06-11T14:58:06Z</time>
      </trkpt>
      <trkpt lat="40.533450" lon="-4.776200">
        <ele>1848.0</ele>
        <time>2016-06-11T14:58:07Z</time>
      </trkpt>
      <trkpt lat="40.533483" lon="-4.776100">
        <ele>1847.0</ele>
        <time>2016-06-11T14:58:08Z</time>
      </trkpt>
      <trkpt lat="40.533533" lon="-4.775983">
        <ele>1844.0</ele>
        <time>2016-06-11T14:58:09Z</time>
      </trkpt>
      <trkpt lat="40.533600" lon="-4.775867">
        <ele>1842.0</ele>
        <time>2016-06-11T14:58:10Z</time>
      </trkpt>
      <trkpt lat="40.533667" lon="-4.775750">
        <ele>1841.0</ele>
        <time>2016-06-11T14:58:11Z</time>
      </trkpt>
      <trkpt lat="40.533717" lon="-4.775650">
        <ele>1842.0</ele>
        <time>2016-06-11T14:58:12Z</time>
      </trkpt>
      <trkpt lat="40.533767" lon="-4.775550">
        <ele>1844.0</ele>
        <time>2016-06-11T14:58:13Z</time>
      </trkpt>
      <trkpt lat="40.533800" lon="-4.775450">
        <ele>1845.0</ele>
        <time>2016-06-11T14:58:14Z</time>
      </trkpt>
      <trkpt lat="40.533850" lon="-4.775350">
        <ele>1845.0</ele>
        <time>2016-06-11T14:58:15Z</time>
      </trkpt>
      <trkpt lat="40.533900" lon="-4.775250">
        <ele>1844.0</ele>
        <time>2016-06-11T14:58:16Z</time>
      </trkpt>
      <trkpt lat="40.533967" lon="-4.775150">
        <ele>1842.0</ele>
        <time>2016-06-11T14:58:17Z</time>
      </trkpt>
      <trkpt lat="40.534017" lon="-4.775033">
        <ele>1842.0</ele>
        <time>2016-06-11T14:58:18Z</time>
      </trkpt>
      <trkpt lat="40.534050" lon="-4.774917">
        <ele>1843.0</ele>
        <time>2016-06-11T14:58:19Z</time>
      </trkpt>
      <trkpt lat="40.534100" lon="-4.774800">
        <ele>1844.0</ele>
        <time>2016-06-11T14:58:20Z</time>
      </trkpt>
      <trkpt lat="40.534133" lon="-4.774700">
        <ele>1844.0</ele>
        <time>2016-06-11T14:58:21Z</time>
      </trkpt>
      <trkpt lat="40.534200" lon="-4.774600">
        <ele>1842.0</ele>
        <time>2016-06-11T14:58:22Z</time>
      </trkpt>
      <trkpt lat="40.534267" lon="-4.774500">
        <ele>1841.0</ele>
        <time>2016-06-11T14:58:23Z</time>
      </trkpt>
      <trkpt lat="40.534333" lon="-4.774383">
        <ele>1839.0</ele>
        <time>2016-06-11T14:58:24Z</time>
      </trkpt>
      <trkpt lat="40.534383" lon="-4.774283">
        <ele>1839.0</ele>
        <time>2016-06-11T14:58:25Z</time>
      </trkpt>
      <trkpt lat="40.534450" lon="-4.774167">
        <ele>1839.0</ele>
        <time>2016-06-11T14:58:26Z</time>
      </trkpt>
      <trkpt lat="40.534517" lon="-4.774067">
        <ele>1840.0</ele>
        <time>2016-06-11T14:58:27Z</time>
      </trkpt>
      <trkpt lat="40.534567" lon="-4.773967">
        <ele>1839.0</ele>
        <time>2016-06-11T14:58:28Z</time>
      </trkpt>
      <trkpt lat="40.534633" lon="-4.773867">
        <ele>1838.0</ele>
        <time>2016-06-11T14:58:29Z</time>
      </trkpt>
      <trkpt lat="40.534700" lon="-4.773767">
        <ele>1836.0</ele>
        <time>2016-06-11T14:58:30Z</time>
      </trkpt>
      <trkpt lat="40.534750" lon="-4.773650">
        <ele>1833.0</ele>
        <time>2016-06-11T14:58:31Z</time>
      </trkpt>
      <trkpt lat="40.534817" lon="-4.773533">
        <ele>1831.0</ele>
        <time>2016-06-11T14:58:32Z</time>
      </trkpt>
      <trkpt lat="40.534883" lon="-4.773400">
        <ele>1829.0</ele>
        <time>2016-06-11T14:58:33Z</time>
      </trkpt>
      <trkpt lat="40.534933" lon="-4.773283">
        <ele>1828.0</ele>
        <time>2016-06-11T14:58:34Z</time>
      </trkpt>
      <trkpt lat="40.534983" lon="-4.773167">
        <ele>1827.0</ele>
        <time>2016-06-11T14:58:35Z</time>
      </trkpt>
      <trkpt lat="40.535017" lon="-4.773050">
        <ele>1826.0</ele>
        <time>2016-06-11T14:58:36Z</time>
      </trkpt>
      <trkpt lat="40.535067" lon="-4.772933">
        <ele>1823.0</ele>
        <time>2016-06-11T14:58:37Z</time>
      </trkpt>
      <trkpt lat="40.535117" lon="-4.772800">
        <ele>1819.0</ele>
        <time>2016-06-11T14:58:38Z</time>
      </trkpt>
      <trkpt lat="40.535167" lon="-4.772683">
        <ele>1816.0</ele>
        <time>2016-06-11T14:58:39Z</time>
      </trkpt>
      <trkpt lat="40.535217" lon="-4.772550">
        <ele>1812.0</ele>
        <time>2016-06-11T14:58:40Z</time>
      </trkpt>
      <trkpt lat="40.535267" lon="-4.772433">
        <ele>1810.0</ele>
        <time>2016-06-11T14:58:41Z</time>
      </trkpt>
      <trkpt lat="40.535317" lon="-4.772317">
        <ele>1807.0</ele>
        <time>2016-06-11T14:58:42Z</time>
      </trkpt>
      <trkpt lat="40.535367" lon="-4.772233">
        <ele>1806.0</ele>
        <time>2016-06-11T14:58:43Z</time>
      </trkpt>
      <trkpt lat="40.535400" lon="-4.772150">
        <ele>1803.0</ele>
        <time>2016-06-11T14:58:44Z</time>
      </trkpt>
      <trkpt lat="40.535467" lon="-4.772067">
        <ele>1800.0</ele>
        <time>2016-06-11T14:58:45Z</time>
      </trkpt>
      <trkpt lat="40.535550" lon="-4.771967">
        <ele>1797.0</ele>
        <time>2016-06-11T14:58:46Z</time>
      </trkpt>
      <trkpt lat="40.535617" lon="-4.771867">
        <ele>1795.0</ele>
        <time>2016-06-11T14:58:47Z</time>
      </trkpt>
      <trkpt lat="40.535667" lon="-4.771750">
        <ele>1795.0</ele>
        <time>2016-06-11T14:58:48Z</time>
      </trkpt>
      <trkpt lat="40.535717" lon="-4.771650">
        <ele>1794.0</ele>
        <time>2016-06-11T14:58:49Z</time>
      </trkpt>
      <trkpt lat="40.535750" lon="-4.771550">
        <ele>1793.0</ele>
        <time>2016-06-11T14:58:50Z</time>
      </trkpt>
      <trkpt lat="40.535783" lon="-4.771467">
        <ele>1789.0</ele>
        <time>2016-06-11T14:58:51Z</time>
      </trkpt>
      <trkpt lat="40.535850" lon="-4.771383">
        <ele>1785.0</ele>
        <time>2016-06-11T14:58:52Z</time>
      </trkpt>
      <trkpt lat="40.535917" lon="-4.771300">
        <ele>1780.0</ele>
        <time>2016-06-11T14:58:53Z</time>
      </trkpt>
      <trkpt lat="40.535983" lon="-4.771200">
        <ele>1776.0</ele>
        <time>2016-06-11T14:58:54Z</time>
      </trkpt>
      <trkpt lat="40.536050" lon="-4.771100">
        <ele>1772.0</ele>
        <time>2016-06-11T14:58:55Z</time>
      </trkpt>
      <trkpt lat="40.536083" lon="-4.771000">
        <ele>1769.0</ele>
        <time>2016-06-11T14:58:56Z</time>
      </trkpt>
      <trkpt lat="40.536133" lon="-4.770883">
        <ele>1765.0</ele>
        <time>2016-06-11T14:58:57Z</time>
      </trkpt>
      <trkpt lat="40.536200" lon="-4.770767">
        <ele>1759.0</ele>
        <time>2016-06-11T14:58:58Z</time>
      </trkpt>
      <trkpt lat="40.536267" lon="-4.770650">
        <ele>1753.0</ele>
        <time>2016-06-11T14:58:59Z</time>
      </trkpt>
      <trkpt lat="40.536367" lon="-4.770533">
        <ele>1747.0</ele>
        <time>2016-06-11T14:59:00Z</time>
      </trkpt>
      <trkpt lat="40.536450" lon="-4.770417">
        <ele>1743.0</ele>
        <time>2016-06-11T14:59:01Z</time>
      </trkpt>
      <trkpt lat="40.536517" lon="-4.770300">
        <ele>1741.0</ele>
        <time>2016-06-11T14:59:02Z</time>
      </trkpt>
      <trkpt lat="40.536583" lon="-4.770150">
        <ele>1741.0</ele>
        <time>2016-06-11T14:59:03Z</time>
      </trkpt>
      <trkpt lat="40.536650" lon="-4.770017">
        <ele>1740.0</ele>
        <time>2016-06-11T14:59:04Z</time>
      </trkpt>
      <trkpt lat="40.536717" lon="-4.769883">
        <ele>1739.0</ele>
        <time>2016-06-11T14:59:05Z</time>
      </trkpt>
      <trkpt lat="40.536767" lon="-4.769767">
        <ele>1738.0</ele>
        <time>2016-06-11T14:59:06Z</time>
      </trkpt>
      <trkpt lat="40.536833" lon="-4.769650">
        <ele>1736.0</ele>
        <time>2016-06-11T14:59:07Z</time>
      </trkpt>
      <trkpt lat="40.536900" lon="-4.769517">
        <ele>1734.0</ele>
        <time>2016-06-11T14:59:08Z</time>
      </trkpt>
      <trkpt lat="40.536967" lon="-4.769383">
        <ele>1732.0</ele>
        <time>2016-06-11T14:59:09Z</time>
      </trkpt>
      <trkpt lat="40.537033" lon="-4.769233">
        <ele>1729.0</ele>
        <time>2016-06-11T14:59:10Z</time>
      </trkpt>
      <trkpt lat="40.537117" lon="-4.769067">
        <ele>1727.0</ele>
        <time>2016-06-11T14:59:11Z</time>
      </trkpt>
      <trkpt lat="40.537183" lon="-4.768917">
        <ele>1725.0</ele>
        <time>2016-06-11T14:59:12Z</time>
      </trkpt>
      <trkpt lat="40.537267" lon="-4.768783">
        <ele>1724.0</ele>
        <time>2016-06-11T14:59:13Z</time>
      </trkpt>
      <trkpt lat="40.537333" lon="-4.768650">
        <ele>1722.0</ele>
        <time>2016-06-11T14:59:14Z</time>
      </trkpt>
      <trkpt lat="40.537400" lon="-4.768500">
        <ele>1720.0</ele>
        <time>2016-06-11T14:59:15Z</time>
      </trkpt>
      <trkpt lat="40.537483" lon="-4.768367">
        <ele>1719.0</ele>
        <time>2016-06-11T14:59:16Z</time>
      </trkpt>
      <trkpt lat="40.537550" lon="-4.768217">
        <ele>1717.0</ele>
        <time>2016-06-11T14:59:17Z</time>
      </trkpt>
      <trkpt lat="40.537617" lon="-4.768083">
        <ele>1715.0</ele>
        <time>2016-06-11T14:59:18Z</time>
      </trkpt>
      <trkpt lat="40.537683" lon="-4.767967">
        <ele>1714.0</ele>
        <time>2016-06-11T14:59:19Z</time>
      </trkpt>
      <trkpt lat="40.537750" lon="-4.767850">
        <ele>1712.0</ele>
        <time>2016-06-11T14:59:20Z</time>
      </trkpt>
      <trkpt lat="40.537833" lon="-4.767733">
        <ele>1710.0</ele>
        <time>2016-06-11T14:59:21Z</time>
      </trkpt>
      <trkpt lat="40.537917" lon="-4.767617">
        <ele>1709.0</ele>
        <time>2016-06-11T14:59:22Z</time>
      </trkpt>
      <trkpt lat="40.538000" lon="-4.767500">
        <ele>1707.0</ele>
        <time>2016-06-11T14:59:23Z</time>
      </trkpt>
      <trkpt lat="40.538083" lon="-4.767383">
        <ele>1706.0</ele>
        <time>2016-06-11T14:59:24Z</time>
      </trkpt>
      <trkpt lat="40.538167" lon="-4.767250">
        <ele>1706.0</ele>
        <time>2016-06-11T14:59:25Z</time>
      </trkpt>
      <trkpt lat="40.538233" lon="-4.767100">
        <ele>1706.0</ele>
        <time>2016-06-11T14:59:26Z</time>
      </trkpt>
      <trkpt lat="40.538300" lon="-4.766950">
        <ele>1705.0</ele>
        <time>2016-06-11T14:59:27Z</time>
      </trkpt>
      <trkpt lat="40.538367" lon="-4.766817">
        <ele>1704.0</ele>
        <time>2016-06-11T14:59:28Z</time>
      </trkpt>
      <trkpt lat="40.538450" lon="-4.766683">
        <ele>1703.0</ele>
        <time>2016-06-11T14:59:29Z</time>
      </trkpt>
      <trkpt lat="40.538517" lon="-4.766550">
        <ele>1701.0</ele>
        <time>2016-06-11T14:59:30Z</time>
      </trkpt>
      <trkpt lat="40.538600" lon="-4.766417">
        <ele>1700.0</ele>
        <time>2016-06-11T14:59:31Z</time>
      </trkpt>
      <trkpt lat="40.538667" lon="-4.766300">
        <ele>1698.0</ele>
        <time>2016-06-11T14:59:32Z</time>
      </trkpt>
      <trkpt lat="40.538750" lon="-4.766167">
        <ele>1697.0</ele>
        <time>2016-06-11T14:59:33Z</time>
      </trkpt>
      <trkpt lat="40.538833" lon="-4.766033">
        <ele>1695.0</ele>
        <time>2016-06-11T14:59:34Z</time>
      </trkpt>
      <trkpt lat="40.538917" lon="-4.765883">
        <ele>1693.0</ele>
        <time>2016-06-11T14:59:35Z</time>
      </trkpt>
      <trkpt lat="40.539000" lon="-4.765733">
        <ele>1693.0</ele>
        <time>2016-06-11T14:59:36Z</time>
      </trkpt>
      <trkpt lat="40.539083" lon="-4.765567">
        <ele>1692.0</ele>
        <time>2016-06-11T14:59:37Z</time>
      </trkpt>
      <trkpt lat="40.539150" lon="-4.765400">
        <ele>1693.0</ele>
        <time>2016-06-11T14:59:38Z</time>
      </trkpt>
      <trkpt lat="40.539200" lon="-4.765250">
        <ele>1693.0</ele>
        <time>2016-06-11T14:59:39Z</time>
      </trkpt>
      <trkpt lat="40.539267" lon="-4.765083">
        <ele>1693.0</ele>
        <time>2016-06-11T14:59:40Z</time>
      </trkpt>
      <trkpt lat="40.539333" lon="-4.764933">
        <ele>1692.0</ele>
        <time>2016-06-11T14:59:41Z</time>
      </trkpt>
      <trkpt lat="40.539400" lon="-4.764783">
        <ele>1690.0</ele>
        <time>2016-06-11T14:59:42Z</time>
      </trkpt>
      <trkpt lat="40.539467" lon="-4.764617">
        <ele>1689.0</ele>
        <time>2016-06-11T14:59:43Z</time>
      </trkpt>
      <trkpt lat="40.539533" lon="-4.764433">
        <ele>1688.0</ele>
        <time>2016-06-11T14:59:44Z</time>
      </trkpt>
      <trkpt lat="40.539600" lon="-4.764267">
        <ele>1686.0</ele>
        <time>2016-06-11T14:59:45Z</time>
      </trkpt>
      <trkpt lat="40.539667" lon="-4.764100">
        <ele>1686.0</ele>
        <time>2016-06-11T14:59:46Z</time>
      </trkpt>
      <trkpt lat="40.539733" lon="-4.763933">
        <ele>1685.0</ele>
        <time>2016-06-11T14:59:47Z</time>
      </trkpt>
      <trkpt lat="40.539800" lon="-4.763767">
        <ele>1684.0</ele>
        <time>2016-06-11T14:59:48Z</time>
      </trkpt>
      <trkpt lat="40.539867" lon="-4.763567">
        <ele>1682.0</ele>
        <time>2016-06-11T14:59:49Z</time>
      </trkpt>
      <trkpt lat="40.539933" lon="-4.763367">
        <ele>1681.0</ele>
        <time>2016-06-11T14:59:50Z</time>
      </trkpt>
      <trkpt lat="40.539983" lon="-4.763167">
        <ele>1680.0</ele>
        <time>2016-06-11T14:59:51Z</time>
      </trkpt>
      <trkpt lat="40.540050" lon="-4.762967">
        <ele>1680.0</ele>
        <time>2016-06-11T14:59:52Z</time>
      </trkpt>
      <trkpt lat="40.540100" lon="-4.762767">
        <ele>1681.0</ele>
        <time>2016-06-11T14:59:53Z</time>
      </trkpt>
      <trkpt lat="40.540150" lon="-4.762583">
        <ele>1681.0</ele>
        <time>2016-06-11T14:59:54Z</time>
      </trkpt>
      <trkpt lat="40.540200" lon="-4.762400">
        <ele>1681.0</ele>
        <time>2016-06-11T14:59:55Z</time>
      </trkpt>
      <trkpt lat="40.540250" lon="-4.762217">
        <ele>1680.0</ele>
        <time>2016-06-11T14:59:56Z</time>
      </trkpt>
      <trkpt lat="40.540317" lon="-4.762017">
        <ele>1678.0</ele>
        <time>2016-06-11T14:59:57Z</time>
      </trkpt>
      <trkpt lat="40.540367" lon="-4.761817">
        <ele>1677.0</ele>
        <time>2016-06-11T14:59:58Z</time>
      </trkpt>
      <trkpt lat="40.540433" lon="-4.761617">
        <ele>1676.0</ele>
        <time>2016-06-11T14:59:59Z</time>
      </trkpt>
      <trkpt lat="40.540483" lon="-4.761433">
        <ele>1676.0</ele>
        <time>2016-06-11T15:00:00Z</time>
      </trkpt>
      <trkpt lat="40.540550" lon="-4.761267">
        <ele>1675.0</ele>
        <time>2016-06-11T15:00:01Z</time>
      </trkpt>
      <trkpt lat="40.540617" lon="-4.761083">
        <ele>1674.0</ele>
        <time>2016-06-11T15:00:02Z</time>
      </trkpt>
      <trkpt lat="40.540683" lon="-4.760900">
        <ele>1673.0</ele>
        <time>2016-06-11T15:00:03Z</time>
      </trkpt>
      <trkpt lat="40.540750" lon="-4.760733">
        <ele>1671.0</ele>
        <time>2016-06-11T15:00:04Z</time>
      </trkpt>
      <trkpt lat="40.540833" lon="-4.760600">
        <ele>1671.0</ele>
        <time>2016-06-11T15:00:05Z</time>
      </trkpt>
      <trkpt lat="40.540917" lon="-4.760467">
        <ele>1671.0</ele>
        <time>2016-06-11T15:00:06Z</time>
      </trkpt>
      <trkpt lat="40.540983" lon="-4.760333">
        <ele>1672.0</ele>
        <time>2016-06-11T15:00:07Z</time>
      </trkpt>
      <trkpt lat="40.541050" lon="-4.760200">
        <ele>1671.0</ele>
        <time>2016-06-11T15:00:08Z</time>
      </trkpt>
      <trkpt lat="40.541117" lon="-4.760067">
        <ele>1670.0</ele>
        <time>2016-06-11T15:00:09Z</time>
      </trkpt>
      <trkpt lat="40.541183" lon="-4.759933">
        <ele>1669.0</ele>
        <time>2016-06-11T15:00:10Z</time>
      </trkpt>
      <trkpt lat="40.541267" lon="-4.759817">
        <ele>1669.0</ele>
        <time>2016-06-11T15:00:11Z</time>
      </trkpt>
      <trkpt lat="40.541317" lon="-4.759700">
        <ele>1669.0</ele>
        <time>2016-06-11T15:00:12Z</time>
      </trkpt>
      <trkpt lat="40.541383" lon="-4.759583">
        <ele>1669.0</ele>
        <time>2016-06-11T15:00:13Z</time>
      </trkpt>
      <trkpt lat="40.541450" lon="-4.759483">
        <ele>1667.0</ele>
        <time>2016-06-11T15:00:14Z</time>
      </trkpt>
      <trkpt lat="40.541533" lon="-4.759350">
        <ele>1665.0</ele>
        <time>2016-06-11T15:00:15Z</time>
      </trkpt>
      <trkpt lat="40.541617" lon="-4.759200">
        <ele>1662.0</ele>
        <time>2016-06-11T15:00:16Z</time>
      </trkpt>
      <trkpt lat="40.541700" lon="-4.759017">
        <ele>1659.0</ele>
        <time>2016-06-11T15:00:17Z</time>
      </trkpt>
      <trkpt lat="40.541783" lon="-4.758867">
        <ele>1658.0</ele>
        <time>2016-06-11T15:00:18Z</time>
      </trkpt>
      <trkpt lat="40.541867" lon="-4.758717">
        <ele>1659.0</ele>
        <time>2016-06-11T15:00:19Z</time>
      </trkpt>
      <trkpt lat="40.541917" lon="-4.758583">
        <ele>1659.0</ele>
        <time>2016-06-11T15:00:20Z</time>
      </trkpt>
      <trkpt lat="40.541983" lon="-4.758433">
        <ele>1659.0</ele>
        <time>2016-06-11T15:00:21Z</time>
      </trkpt>
      <trkpt lat="40.542067" lon="-4.758283">
        <ele>1657.0</ele>
        <time>2016-06-11T15:00:22Z</time>
      </trkpt>
      <trkpt lat="40.542133" lon="-4.758133">
        <ele>1655.0</ele>
        <time>2016-06-11T15:00:23Z</time>
      </trkpt>
      <trkpt lat="40.542200" lon="-4.757983">
        <ele>1654.0</ele>
        <time>2016-06-11T15:00:24Z</time>
      </trkpt>
      <trkpt lat="40.542267" lon="-4.757833">
        <ele>1654.0</ele>
        <time>2016-06-11T15:00:25Z</time>
      </trkpt>
      <trkpt lat="40.542317" lon="-4.757700">
        <ele>1653.0</ele>
        <time>2016-06-11T15:00:26Z</time>
      </trkpt>
      <trkpt lat="40.542367" lon="-4.757567">
        <ele>1653.0</ele>
        <time>2016-06-11T15:00:27Z</time>
      </trkpt>
      <trkpt lat="40.542417" lon="-4.757417">
        <ele>1652.0</ele>
        <time>2016-06-11T15:00:28Z</time>
      </trkpt>
      <trkpt lat="40.542450" lon="-4.757283">
        <ele>1650.0</ele>
        <time>2016-06-11T15:00:29Z</time>
      </trkpt>
      <trkpt lat="40.542500" lon="-4.757133">
        <ele>1647.0</ele>
        <time>2016-06-11T15:00:30Z</time>
      </trkpt>
      <trkpt lat="40.542550" lon="-4.757017">
        <ele>1644.0</ele>
        <time>2016-06-11T15:00:31Z</time>
      </trkpt>
      <trkpt lat="40.542617" lon="-4.756883">
        <ele>1641.0</ele>
        <time>2016-06-11T15:00:32Z</time>
      </trkpt>
      <trkpt lat="40.542667" lon="-4.756767">
        <ele>1639.0</ele>
        <time>2016-06-11T15:00:33Z</time>
      </trkpt>
      <trkpt lat="40.542717" lon="-4.756617">
        <ele>1637.0</ele>
        <time>2016-06-11T15:00:34Z</time>
      </trkpt>
      <trkpt lat="40.542767" lon="-4.756483">
        <ele>1634.0</ele>
        <time>2016-06-11T15:00:35Z</time>
      </trkpt>
      <trkpt lat="40.542817" lon="-4.756333">
        <ele>1631.0</ele>
        <time>2016-06-11T15:00:36Z</time>
      </trkpt>
      <trkpt lat="40.542867" lon="-4.756200">
        <ele>1628.0</ele>
        <time>2016-06-11T15:00:37Z</time>
      </trkpt>
      <trkpt lat="40.542933" lon="-4.756067">
        <ele>1625.0</ele>
        <time>2016-06-11T15:00:38Z</time>
      </trkpt>
      <trkpt lat="40.543000" lon="-4.755917">
        <ele>1623.0</ele>
        <time>2016-06-11T15:00:39Z</time>
      </trkpt>
      <trkpt lat="40.543067" lon="-4.755783">
        <ele>1621.0</ele>
        <time>2016-06-11T15:00:40Z</time>
      </trkpt>
      <trkpt lat="40.543117" lon="-4.755633">
        <ele>1620.0</ele>
        <time>2016-06-11T15:00:41Z</time>
      </trkpt>
      <trkpt lat="40.543167" lon="-4.755483">
        <ele>1621.0</ele>
        <time>2016-06-11T15:00:42Z</time>
      </trkpt>
      <trkpt lat="40.543200" lon="-4.755350">
        <ele>1621.0</ele>
        <time>2016-06-11T15:00:43Z</time>
      </trkpt>
      <trkpt lat="40.543250" lon="-4.755200">
        <ele>1621.0</ele>
        <time>2016-06-11T15:00:44Z</time>
      </trkpt>
      <trkpt lat="40.543300" lon="-4.755067">
        <ele>1621.0</ele>
        <time>2016-06-11T15:00:45Z</time>
      </trkpt>
      <trkpt lat="40.543350" lon="-4.754917">
        <ele>1621.0</ele>
        <time>2016-06-11T15:00:46Z</time>
      </trkpt>
      <trkpt lat="40.543383" lon="-4.754767">
        <ele>1621.0</ele>
        <time>2016-06-11T15:00:47Z</time>
      </trkpt>
      <trkpt lat="40.543433" lon="-4.754650">
        <ele>1623.0</ele>
        <time>2016-06-11T15:00:48Z</time>
      </trkpt>
      <trkpt lat="40.543483" lon="-4.754550">
        <ele>1624.0</ele>
        <time>2016-06-11T15:00:49Z</time>
      </trkpt>
      <trkpt lat="40.543517" lon="-4.754467">
        <ele>1626.0</ele>
        <time>2016-06-11T15:00:50Z</time>
      </trkpt>
      <trkpt lat="40.543550" lon="-4.754367">
        <ele>1628.0</ele>
        <time>2016-06-11T15:00:51Z</time>
      </trkpt>
      <trkpt lat="40.543583" lon="-4.754267">
        <ele>1628.0</ele>
        <time>2016-06-11T15:00:52Z</time>
      </trkpt>
      <trkpt lat="40.543617" lon="-4.754183">
        <ele>1628.0</ele>
        <time>2016-06-11T15:00:53Z</time>
      </trkpt>
      <trkpt lat="40.543650" lon="-4.754100">
        <ele>1628.0</ele>
        <time>2016-06-11T15:00:54Z</time>
      </trkpt>
      <trkpt lat="40.543700" lon="-4.754017">
        <ele>1629.0</ele>
        <time>2016-06-11T15:00:55Z</time>
      </trkpt>
      <trkpt lat="40.543733" lon="-4.753933">
        <ele>1629.0</ele>
        <time>2016-06-11T15:00:56Z</time>
      </trkpt>
      <trkpt lat="40.543783" lon="-4.753850">
        <ele>1630.0</ele>
        <time>2016-06-11T15:00:57Z</time>
      </trkpt>
      <trkpt lat="40.543817" lon="-4.753767">
        <ele>1630.0</ele>
        <time>2016-06-11T15:00:58Z</time>
      </trkpt>
      <trkpt lat="40.543867" lon="-4.753700">
        <ele>1630.0</ele>
        <time>2016-06-11T15:00:59Z</time>
      </trkpt>
      <trkpt lat="40.543933" lon="-4.753633">
        <ele>1629.0</ele>
        <time>2016-06-11T15:01:00Z</time>
      </trkpt>
      <trkpt lat="40.543983" lon="-4.753550">
        <ele>1628.0</ele>
        <time>2016-06-11T15:01:01Z</time>
      </trkpt>
      <trkpt lat="40.544050" lon="-4.753483">
        <ele>1628.0</ele>
        <time>2016-06-11T15:01:02Z</time>
      </trkpt>
      <trkpt lat="40.544100" lon="-4.753400">
        <ele>1627.0</ele>
        <time>2016-06-11T15:01:03Z</time>
      </trkpt>
      <trkpt lat="40.544150" lon="-4.753317">
        <ele>1624.0</ele>
        <time>2016-06-11T15:01:04Z</time>
      </trkpt>
      <trkpt lat="40.544217" lon="-4.753233">
        <ele>1621.0</ele>
        <time>2016-06-11T15:01:05Z</time>
      </trkpt>
      <trkpt lat="40.544283" lon="-4.753150">
        <ele>1618.0</ele>
        <time>2016-06-11T15:01:06Z</time>
      </trkpt>
      <trkpt lat="40.544350" lon="-4.753067">
        <ele>1616.0</ele>
        <time>2016-06-11T15:01:07Z</time>
      </trkpt>
      <trkpt lat="40.544417" lon="-4.752983">
        <ele>1614.0</ele>
        <time>2016-06-11T15:01:08Z</time>
      </trkpt>
      <trkpt lat="40.544467" lon="-4.752900">
        <ele>1611.0</ele>
        <time>2016-06-11T15:01:09Z</time>
      </trkpt>
      <trkpt lat="40.544533" lon="-4.752800">
        <ele>1608.0</ele>
        <time>2016-06-11T15:01:10Z</time>
      </trkpt>
      <trkpt lat="40.544617" lon="-4.752700">
        <ele>1605.0</ele>
        <time>2016-06-11T15:01:11Z</time>
      </trkpt>
      <trkpt lat="40.544700" lon="-4.752600">
        <ele>1601.0</ele>
        <time>2016-06-11T15:01:12Z</time>
      </trkpt>
      <trkpt lat="40.544783" lon="-4.752467">
        <ele>1599.0</ele>
        <time>2016-06-11T15:01:13Z</time>
      </trkpt>
      <trkpt lat="40.544850" lon="-4.752350">
        <ele>1599.0</ele>
        <time>2016-06-11T15:01:14Z</time>
      </trkpt>
      <trkpt lat="40.544900" lon="-4.752217">
        <ele>1599.0</ele>
        <time>2016-06-11T15:01:15Z</time>
      </trkpt>
      <trkpt lat="40.544950" lon="-4.752100">
        <ele>1601.0</ele>
        <time>2016-06-11T15:01:16Z</time>
      </trkpt>
      <trkpt lat="40.545000" lon="-4.751967">
        <ele>1601.0</ele>
        <time>2016-06-11T15:01:17Z</time>
      </trkpt>
      <trkpt lat="40.545050" lon="-4.751850">
        <ele>1600.0</ele>
        <time>2016-06-11T15:01:18Z</time>
      </trkpt>
      <trkpt lat="40.545100" lon="-4.751717">
        <ele>1599.0</ele>
        <time>2016-06-11T15:01:19Z</time>
      </trkpt>
      <trkpt lat="40.545167" lon="-4.751567">
        <ele>1598.0</ele>
        <time>2016-06-11T15:01:20Z</time>
      </trkpt>
      <trkpt lat="40.545217" lon="-4.751467">
        <ele>1599.0</ele>
        <time>2016-06-11T15:01:21Z</time>
      </trkpt>
      <trkpt lat="40.545267" lon="-4.751350">
        <ele>1602.0</ele>
        <time>2016-06-11T15:01:22Z</time>
      </trkpt>
      <trkpt lat="40.545283" lon="-4.751250">
        <ele>1604.0</ele>
        <time>2016-06-11T15:01:23Z</time>
      </trkpt>
      <trkpt lat="40.545317" lon="-4.751150">
        <ele>1606.0</ele>
        <time>2016-06-11T15:01:24Z</time>
      </trkpt>
      <trkpt lat="40.545333" lon="-4.751050">
        <ele>1606.0</ele>
        <time>2016-06-11T15:01:25Z</time>
      </trkpt>
      <trkpt lat="40.545367" lon="-4.750967">
        <ele>1607.0</ele>
        <time>2016-06-11T15:01:26Z</time>
      </trkpt>
      <trkpt lat="40.545400" lon="-4.750900">
        <ele>1607.0</ele>
        <time>2016-06-11T15:01:27Z</time>
      </trkpt>
      <trkpt lat="40.545450" lon="-4.750850">
        <ele>1607.0</ele>
        <time>2016-06-11T15:01:28Z</time>
      </trkpt>
      <trkpt lat="40.545500" lon="-4.750833">
        <ele>1607.0</ele>
        <time>2016-06-11T15:01:29Z</time>
      </trkpt>
      <trkpt lat="40.545533" lon="-4.750817">
        <ele>1608.0</ele>
        <time>2016-06-11T15:01:30Z</time>
      </trkpt>
      <trkpt lat="40.545567" lon="-4.750800">
        <ele>1610.0</ele>
        <time>2016-06-11T15:01:31Z</time>
      </trkpt>
      <trkpt lat="40.545600" lon="-4.750767">
        <ele>1611.0</ele>
        <time>2016-06-11T15:01:32Z</time>
      </trkpt>
      <trkpt lat="40.545650" lon="-4.750733">
        <ele>1613.0</ele>
        <time>2016-06-11T15:01:33Z</time>
      </trkpt>
      <trkpt lat="40.545683" lon="-4.750700">
        <ele>1614.0</ele>
        <time>2016-06-11T15:01:34Z</time>
      </trkpt>
      <trkpt lat="40.545717" lon="-4.750667">
        <ele>1616.0</ele>
        <time>2016-06-11T15:01:35Z</time>
      </trkpt>
      <trkpt lat="40.545750" lon="-4.750650">
        <ele>1616.0</ele>
        <time>2016-06-11T15:01:36Z</time>
      </trkpt>
      <trkpt lat="40.545783" lon="-4.750633">
        <ele>1616.0</ele>
        <time>2016-06-11T15:01:37Z</time>
      </trkpt>
      <trkpt lat="40.545833" lon="-4.750633">
        <ele>1615.0</ele>
        <time>2016-06-11T15:01:38Z</time>
      </trkpt>
      <trkpt lat="40.545867" lon="-4.750667">
        <ele>1614.0</ele>
        <time>2016-06-11T15:01:39Z</time>
      </trkpt>
      <trkpt lat="40.545900" lon="-4.750700">
        <ele>1612.0</ele>
        <time>2016-06-11T15:01:40Z</time>
      </trkpt>
      <trkpt lat="40.545933" lon="-4.750750">
        <ele>1610.0</ele>
        <time>2016-06-11T15:01:41Z</time>
      </trkpt>
      <trkpt lat="40.545950" lon="-4.750783">
        <ele>1609.0</ele>
        <time>2016-06-11T15:01:42Z</time>
      </trkpt>
      <trkpt lat="40.545983" lon="-4.750800">
        <ele>1609.0</ele>
        <time>2016-06-11T15:01:43Z</time>
      </trkpt>
      <trkpt lat="40.546000" lon="-4.750817">
        <ele>1608.0</ele>
        <time>2016-06-11T15:01:44Z</time>
      </trkpt>
      <trkpt lat="40.546033" lon="-4.750817">
        <ele>1605.0</ele>
        <time>2016-06-11T15:01:45Z</time>
      </trkpt>
      <trkpt lat="40.546083" lon="-4.750833">
        <ele>1601.0</ele>
        <time>2016-06-11T15:01:46Z</time>
      </trkpt>
      <trkpt lat="40.546117" lon="-4.750867">
        <ele>1598.0</ele>
        <time>2016-06-11T15:01:47Z</time>
      </trkpt>
      <trkpt lat="40.546133" lon="-4.750917">
        <ele>1596.0</ele>
        <time>2016-06-11T15:01:48Z</time>
      </trkpt>
      <trkpt lat="40.546133" lon="-4.750967">
        <ele>1594.0</ele>
        <time>2016-06-11T15:01:49Z</time>
      </trkpt>
      <trkpt lat="40.546117" lon="-4.751017">
        <ele>1592.0</ele>
        <time>2016-06-11T15:01:50Z</time>
      </trkpt>
      <trkpt lat="40.546100" lon="-4.751083">
        <ele>1590.0</ele>
        <time>2016-06-11T15:01:51Z</time>
      </trkpt>
      <trkpt lat="40.546083" lon="-4.751133">
        <ele>1587.0</ele>
        <time>2016-06-11T15:01:52Z</time>
      </trkpt>
      <trkpt lat="40.546067" lon="-4.751183">
        <ele>1585.0</ele>
        <time>2016-06-11T15:01:53Z</time>
      </trkpt>
      <trkpt lat="40.546017" lon="-4.751233">
        <ele>1583.0</ele>
        <time>2016-06-11T15:01:54Z</time>
      </trkpt>
      <trkpt lat="40.545950" lon="-4.751267">
        <ele>1580.0</ele>
        <time>2016-06-11T15:01:55Z</time>
      </trkpt>
      <trkpt lat="40.545850" lon="-4.751300">
        <ele>1577.0</ele>
        <time>2016-06-11T15:01:56Z</time>
      </trkpt>
      <trkpt lat="40.545767" lon="-4.751317">
        <ele>1575.0</ele>
        <time>2016-06-11T15:01:57Z</time>
      </trkpt>
      <trkpt lat="40.545683" lon="-4.751300">
        <ele>1575.0</ele>
        <time>2016-06-11T15:01:58Z</time>
      </trkpt>
      <trkpt lat="40.545600" lon="-4.751250">
        <ele>1573.0</ele>
        <time>2016-06-11T15:01:59Z</time>
      </trkpt>
      <trkpt lat="40.545517" lon="-4.751183">
        <ele>1571.0</ele>
        <time>2016-06-11T15:02:00Z</time>
      </trkpt>
      <trkpt lat="40.545417" lon="-4.751100">
        <ele>1568.0</ele>
        <time>2016-06-11T15:02:01Z</time>
      </trkpt>
      <trkpt lat="40.545350" lon="-4.751000">
        <ele>1566.0</ele>
        <time>2016-06-11T15:02:02Z</time>
      </trkpt>
      <trkpt lat="40.545283" lon="-4.750867">
        <ele>1564.0</ele>
        <time>2016-06-11T15:02:03Z</time>
      </trkpt>
      <trkpt lat="40.545250" lon="-4.750717">
        <ele>1561.0</ele>
        <time>2016-06-11T15:02:04Z</time>
      </trkpt>
      <trkpt lat="40.545233" lon="-4.750550">
        <ele>1558.0</ele>
        <time>2016-06-11T15:02:05Z</time>
      </trkpt>
      <trkpt lat="40.545250" lon="-4.750400">
        <ele>1555.0</ele>
        <time>2016-06-11T15:02:06Z</time>
      </trkpt>
      <trkpt lat="40.545267" lon="-4.750250">
        <ele>1552.0</ele>
        <time>2016-06-11T15:02:07Z</time>
      </trkpt>
      <trkpt lat="40.545300" lon="-4.750083">
        <ele>1549.0</ele>
        <time>2016-06-11T15:02:08Z</time>
      </trkpt>
      <trkpt lat="40.545350" lon="-4.749917">
        <ele>1547.0</ele>
        <time>2016-06-11T15:02:09Z</time>
      </trkpt>
      <trkpt lat="40.545383" lon="-4.749767">
        <ele>1546.0</ele>
        <time>2016-06-11T15:02:10Z</time>
      </trkpt>
      <trkpt lat="40.545400" lon="-4.749617">
        <ele>1545.0</ele>
        <time>2016-06-11T15:02:11Z</time>
      </trkpt>
      <trkpt lat="40.545433" lon="-4.749467">
        <ele>1543.0</ele>
        <time>2016-06-11T15:02:12Z</time>
      </trkpt>
      <trkpt lat="40.545450" lon="-4.749317">
        <ele>1541.0</ele>
        <time>2016-06-11T15:02:13Z</time>
      </trkpt>
      <trkpt lat="40.545483" lon="-4.749167">
        <ele>1539.0</ele>
        <time>2016-06-11T15:02:14Z</time>
      </trkpt>
      <trkpt lat="40.545533" lon="-4.749050">
        <ele>1538.0</ele>
        <time>2016-06-11T15:02:15Z</time>
      </trkpt>
      <trkpt lat="40.545550" lon="-4.748967">
        <ele>1539.0</ele>
        <time>2016-06-11T15:02:16Z</time>
      </trkpt>
      <trkpt lat="40.545583" lon="-4.748850">
        <ele>1540.0</ele>
        <time>2016-06-11T15:02:17Z</time>
      </trkpt>
      <trkpt lat="40.545600" lon="-4.748750">
        <ele>1541.0</ele>
        <time>2016-06-11T15:02:18Z</time>
      </trkpt>
      <trkpt lat="40.545600" lon="-4.748650">
        <ele>1542.0</ele>
        <time>2016-06-11T15:02:19Z</time>
      </trkpt>
      <trkpt lat="40.545617" lon="-4.748550">
        <ele>1545.0</ele>
        <time>2016-06-11T15:02:20Z</time>
      </trkpt>
      <trkpt lat="40.545633" lon="-4.748483">
        <ele>1548.0</ele>
        <time>2016-06-11T15:02:21Z</time>
      </trkpt>
      <trkpt lat="40.545633" lon="-4.748400">
        <ele>1550.0</ele>
        <time>2016-06-11T15:02:22Z</time>
      </trkpt>
      <trkpt lat="40.545650" lon="-4.748317">
        <ele>1552.0</ele>
        <time>2016-06-11T15:02:23Z</time>
      </trkpt>
      <trkpt lat="40.545667" lon="-4.748233">
        <ele>1553.0</ele>
        <time>2016-06-11T15:02:24Z</time>
      </trkpt>
      <trkpt lat="40.545700" lon="-4.748167">
        <ele>1553.0</ele>
        <time>2016-06-11T15:02:25Z</time>
      </trkpt>
      <trkpt lat="40.545733" lon="-4.748133">
        <ele>1554.0</ele>
        <time>2016-06-11T15:02:26Z</time>
      </trkpt>
      <trkpt lat="40.545783" lon="-4.748133">
        <ele>1554.0</ele>
        <time>2016-06-11T15:02:27Z</time>
      </trkpt>
      <trkpt lat="40.545800" lon="-4.748167">
        <ele>1555.0</ele>
        <time>2016-06-11T15:02:28Z</time>
      </trkpt>
      <trkpt lat="40.545817" lon="-4.748200">
        <ele>1557.0</ele>
        <time>2016-06-11T15:02:29Z</time>
      </trkpt>
      <trkpt lat="40.545817" lon="-4.748233">
        <ele>1558.0</ele>
        <time>2016-06-11T15:02:30Z</time>
      </trkpt>
      <trkpt lat="40.545817" lon="-4.748250">
        <ele>1559.0</ele>
        <time>2016-06-11T15:02:31Z</time>
      </trkpt>
      <trkpt lat="40.545833" lon="-4.748267">
        <ele>1560.0</ele>
        <time>2016-06-11T15:02:32Z</time>
      </trkpt>
      <trkpt lat="40.545833" lon="-4.748283">
        <ele>1559.0</ele>
        <time>2016-06-11T15:02:33Z</time>
      </trkpt>
      <trkpt lat="40.545833" lon="-4.748317">
        <ele>1557.0</ele>
        <time>2016-06-11T15:02:34Z</time>
      </trkpt>
      <trkpt lat="40.545817" lon="-4.748383">
        <ele>1554.0</ele>
        <time>2016-06-11T15:02:35Z</time>
      </trkpt>
      <trkpt lat="40.545767" lon="-4.748433">
        <ele>1552.0</ele>
        <time>2016-06-11T15:02:36Z</time>
      </trkpt>
      <trkpt lat="40.545700" lon="-4.748467">
        <ele>1551.0</ele>
        <time>2016-06-11T15:02:37Z</time>
      </trkpt>
      <trkpt lat="40.545600" lon="-4.748450">
        <ele>1550.0</ele>
        <time>2016-06-11T15:02:38Z</time>
      </trkpt>
      <trkpt lat="40.545500" lon="-4.748400">
        <ele>1548.0</ele>
        <time>2016-06-11T15:02:39Z</time>
      </trkpt>
      <trkpt lat="40.545400" lon="-4.748333">
        <ele>1546.0</ele>
        <time>2016-06-11T15:02:40Z</time>
      </trkpt>
      <trkpt lat="40.545317" lon="-4.748250">
        <ele>1543.0</ele>
        <time>2016-06-11T15:02:41Z</time>
      </trkpt>
      <trkpt lat="40.545233" lon="-4.748133">
        <ele>1540.0</ele>
        <time>2016-06-11T15:02:42Z</time>
      </trkpt>
      <trkpt lat="40.545167" lon="-4.747983">
        <ele>1537.0</ele>
        <time>2016-06-11T15:02:43Z</time>
      </trkpt>
      <trkpt lat="40.545133" lon="-4.747800">
        <ele>1534.0</ele>
        <time>2016-06-11T15:02:44Z</time>
      </trkpt>
      <trkpt lat="40.545133" lon="-4.747633">
        <ele>1531.0</ele>
        <time>2016-06-11T15:02:45Z</time>
      </trkpt>
      <trkpt lat="40.545150" lon="-4.747467">
        <ele>1528.0</ele>
        <time>2016-06-11T15:02:46Z</time>
      </trkpt>
      <trkpt lat="40.545200" lon="-4.747333">
        <ele>1526.0</ele>
        <time>2016-06-11T15:02:47Z</time>
      </trkpt>
      <trkpt lat="40.545233" lon="-4.747233">
        <ele>1525.0</ele>
        <time>2016-06-11T15:02:48Z</time>
      </trkpt>
      <trkpt lat="40.545283" lon="-4.747167">
        <ele>1524.0</ele>
        <time>2016-06-11T15:02:49Z</time>
      </trkpt>
      <trkpt lat="40.545317" lon="-4.747100">
        <ele>1522.0</ele>
        <time>2016-06-11T15:02:50Z</time>
      </trkpt>
      <trkpt lat="40.545367" lon="-4.747017">
        <ele>1520.0</ele>
        <time>2016-06-11T15:02:51Z</time>
      </trkpt>
      <trkpt lat="40.545417" lon="-4.746950">
        <ele>1517.0</ele>
        <time>2016-06-11T15:02:52Z</time>
      </trkpt>
      <trkpt lat="40.545467" lon="-4.746900">
        <ele>1515.0</ele>
        <time>2016-06-11T15:02:53Z</time>
      </trkpt>
      <trkpt lat="40.545500" lon="-4.746833">
        <ele>1514.0</ele>
        <time>2016-06-11T15:02:54Z</time>
      </trkpt>
      <trkpt lat="40.545550" lon="-4.746767">
        <ele>1512.0</ele>
        <time>2016-06-11T15:02:55Z</time>
      </trkpt>
      <trkpt lat="40.545617" lon="-4.746683">
        <ele>1511.0</ele>
        <time>2016-06-11T15:02:56Z</time>
      </trkpt>
      <trkpt lat="40.545667" lon="-4.746617">
        <ele>1510.0</ele>
        <time>2016-06-11T15:02:57Z</time>
      </trkpt>
      <trkpt lat="40.545717" lon="-4.746533">
        <ele>1509.0</ele>
        <time>2016-06-11T15:02:58Z</time>
      </trkpt>
      <trkpt lat="40.545767" lon="-4.746417">
        <ele>1508.0</ele>
        <time>2016-06-11T15:02:59Z</time>
      </trkpt>
      <trkpt lat="40.545817" lon="-4.746300">
        <ele>1506.0</ele>
        <time>2016-06-11T15:03:00Z</time>
      </trkpt>
      <trkpt lat="40.545867" lon="-4.746150">
        <ele>1504.0</ele>
        <time>2016-06-11T15:03:01Z</time>
      </trkpt>
      <trkpt lat="40.545917" lon="-4.746000">
        <ele>1500.0</ele>
        <time>2016-06-11T15:03:02Z</time>
      </trkpt>
      <trkpt lat="40.545967" lon="-4.745833">
        <ele>1498.0</ele>
        <time>2016-06-11T15:03:03Z</time>
      </trkpt>
      <trkpt lat="40.546017" lon="-4.745683">
        <ele>1496.0</ele>
        <time>2016-06-11T15:03:04Z</time>
      </trkpt>
      <trkpt lat="40.546067" lon="-4.745517">
        <ele>1495.0</ele>
        <time>2016-06-11T15:03:05Z</time>
      </trkpt>
      <trkpt lat="40.546100" lon="-4.745333">
        <ele>1494.0</ele>
        <time>2016-06-11T15:03:06Z</time>
      </trkpt>
      <trkpt lat="40.546133" lon="-4.745167">
        <ele>1494.0</ele>
        <time>2016-06-11T15:03:07Z</time>
      </trkpt>
      <trkpt lat="40.546183" lon="-4.744983">
        <ele>1493.0</ele>
        <time>2016-06-11T15:03:08Z</time>
      </trkpt>
      <trkpt lat="40.546217" lon="-4.744800">
        <ele>1493.0</ele>
        <time>2016-06-11T15:03:09Z</time>
      </trkpt>
      <trkpt lat="40.546233" lon="-4.744617">
        <ele>1494.0</ele>
        <time>2016-06-11T15:03:10Z</time>
      </trkpt>
      <trkpt lat="40.546233" lon="-4.744450">
        <ele>1495.0</ele>
        <time>2016-06-11T15:03:11Z</time>
      </trkpt>
      <trkpt lat="40.546250" lon="-4.744283">
        <ele>1496.0</ele>
        <time>2016-06-11T15:03:12Z</time>
      </trkpt>
      <trkpt lat="40.546267" lon="-4.744117">
        <ele>1497.0</ele>
        <time>2016-06-11T15:03:13Z</time>
      </trkpt>
      <trkpt lat="40.546300" lon="-4.743933">
        <ele>1499.0</ele>
        <time>2016-06-11T15:03:14Z</time>
      </trkpt>
      <trkpt lat="40.546350" lon="-4.743783">
        <ele>1501.0</ele>
        <time>2016-06-11T15:03:15Z</time>
      </trkpt>
      <trkpt lat="40.546400" lon="-4.743633">
        <ele>1503.0</ele>
        <time>2016-06-11T15:03:16Z</time>
      </trkpt>
      <trkpt lat="40.546450" lon="-4.743500">
        <ele>1505.0</ele>
        <time>2016-06-11T15:03:17Z</time>
      </trkpt>
      <trkpt lat="40.546500" lon="-4.743367">
        <ele>1507.0</ele>
        <time>2016-06-11T15:03:18Z</time>
      </trkpt>
      <trkpt lat="40.546550" lon="-4.743250">
        <ele>1509.0</ele>
        <time>2016-06-11T15:03:19Z</time>
      </trkpt>
      <trkpt lat="40.546583" lon="-4.743117">
        <ele>1511.0</ele>
        <time>2016-06-11T15:03:20Z</time>
      </trkpt>
      <trkpt lat="40.546617" lon="-4.743000">
        <ele>1513.0</ele>
        <time>2016-06-11T15:03:21Z</time>
      </trkpt>
      <trkpt lat="40.546650" lon="-4.742883">
        <ele>1514.0</ele>
        <time>2016-06-11T15:03:22Z</time>
      </trkpt>
      <trkpt lat="40.546683" lon="-4.742783">
        <ele>1515.0</ele>
        <time>2016-06-11T15:03:23Z</time>
      </trkpt>
      <trkpt lat="40.546733" lon="-4.742700">
        <ele>1515.0</ele>
        <time>2016-06-11T15:03:24Z</time>
      </trkpt>
      <trkpt lat="40.546783" lon="-4.742617">
        <ele>1515.0</ele>
        <time>2016-06-11T15:03:25Z</time>
      </trkpt>
      <trkpt lat="40.546850" lon="-4.742533">
        <ele>1515.0</ele>
        <time>2016-06-11T15:03:26Z</time>
      </trkpt>
      <trkpt lat="40.546917" lon="-4.742467">
        <ele>1514.0</ele>
        <time>2016-06-11T15:03:27Z</time>
      </trkpt>
      <trkpt lat="40.546983" lon="-4.742417">
        <ele>1514.0</ele>
        <time>2016-06-11T15:03:28Z</time>
      </trkpt>
      <trkpt lat="40.547050" lon="-4.742383">
        <ele>1514.0</ele>
        <time>2016-06-11T15:03:29Z</time>
      </trkpt>
      <trkpt lat="40.547083" lon="-4.742367">
        <ele>1515.0</ele>
        <time>2016-06-11T15:03:30Z</time>
      </trkpt>
      <trkpt lat="40.547133" lon="-4.742367">
        <ele>1516.0</ele>
        <time>2016-06-11T15:03:31Z</time>
      </trkpt>
      <trkpt lat="40.547167" lon="-4.742350">
        <ele>1516.0</ele>
        <time>2016-06-11T15:03:32Z</time>
      </trkpt>
      <trkpt lat="40.547217" lon="-4.742350">
        <ele>1516.0</ele>
        <time>2016-06-11T15:03:33Z</time>
      </trkpt>
      <trkpt lat="40.547267" lon="-4.742333">
        <ele>1515.0</ele>
        <time>2016-06-11T15:03:34Z</time>
      </trkpt>
      <trkpt lat="40.547300" lon="-4.742333">
        <ele>1515.0</ele>
        <time>2016-06-11T15:03:35Z</time>
      </trkpt>
      <trkpt lat="40.547333" lon="-4.742350">
        <ele>1515.0</ele>
        <time>2016-06-11T15:03:36Z</time>
      </trkpt>
      <trkpt lat="40.547367" lon="-4.742383">
        <ele>1514.0</ele>
        <time>2016-06-11T15:03:37Z</time>
      </trkpt>
      <trkpt lat="40.547400" lon="-4.742400">
        <ele>1514.0</ele>
        <time>2016-06-11T15:03:38Z</time>
      </trkpt>
      <trkpt lat="40.547450" lon="-4.742417">
        <ele>1515.0</ele>
        <time>2016-06-11T15:03:39Z</time>
      </trkpt>
      <trkpt lat="40.547483" lon="-4.742433">
        <ele>1518.0</ele>
        <time>2016-06-11T15:03:40Z</time>
      </trkpt>
      <trkpt lat="40.547500" lon="-4.742450">
        <ele>1519.0</ele>
        <time>2016-06-11T15:03:41Z</time>
      </trkpt>
      <trkpt lat="40.547533" lon="-4.742467">
        <ele>1520.0</ele>
        <time>2016-06-11T15:03:42Z</time>
      </trkpt>
      <trkpt lat="40.547567" lon="-4.742483">
        <ele>1520.0</ele>
        <time>2016-06-11T15:03:43Z</time>
      </trkpt>
      <trkpt lat="40.547617" lon="-4.742500">
        <ele>1520.0</ele>
        <time>2016-06-11T15:03:44Z</time>
      </trkpt>
      <trkpt lat="40.547650" lon="-4.742533">
        <ele>1520.0</ele>
        <time>2016-06-11T15:03:45Z</time>
      </trkpt>
      <trkpt lat="40.547667" lon="-4.742567">
        <ele>1521.0</ele>
        <time>2016-06-11T15:03:46Z</time>
      </trkpt>
      <trkpt lat="40.547683" lon="-4.742600">
        <ele>1522.0</ele>
        <time>2016-06-11T15:03:47Z</time>
      </trkpt>
      <trkpt lat="40.547700" lon="-4.742617">
        <ele>1523.0</ele>
        <time>2016-06-11T15:03:48Z</time>
      </trkpt>
      <trkpt lat="40.547717" lon="-4.742633">
        <ele>1524.0</ele>
        <time>2016-06-11T15:03:49Z</time>
      </trkpt>
      <trkpt lat="40.547750" lon="-4.742650">
        <ele>1525.0</ele>
        <time>2016-06-11T15:03:50Z</time>
      </trkpt>
      <trkpt lat="40.547783" lon="-4.742667">
        <ele>1525.0</ele>
        <time>2016-06-11T15:03:51Z</time>
      </trkpt>
      <trkpt lat="40.547817" lon="-4.742683">
        <ele>1524.0</ele>
        <time>2016-06-11T15:03:52Z</time>
      </trkpt>
      <trkpt lat="40.547833" lon="-4.742717">
        <ele>1524.0</ele>
        <time>2016-06-11T15:03:53Z</time>
      </trkpt>
      <trkpt lat="40.547850" lon="-4.742750">
        <ele>1526.0</ele>
        <time>2016-06-11T15:03:54Z</time>
      </trkpt>
      <trkpt lat="40.547867" lon="-4.742767">
        <ele>1527.0</ele>
        <time>2016-06-11T15:03:55Z</time>
      </trkpt>
      <trkpt lat="40.547883" lon="-4.742783">
        <ele>1530.0</ele>
        <time>2016-06-11T15:03:56Z</time>
      </trkpt>
      <trkpt lat="40.547900" lon="-4.742783">
        <ele>1533.0</ele>
        <time>2016-06-11T15:03:57Z</time>
      </trkpt>
      <trkpt lat="40.547900" lon="-4.742800">
        <ele>1536.0</ele>
        <time>2016-06-11T15:03:58Z</time>
      </trkpt>
      <trkpt lat="40.547917" lon="-4.742800">
        <ele>1538.0</ele>
        <time>2016-06-11T15:03:59Z</time>
      </trkpt>
      <trkpt lat="40.547917" lon="-4.742800">
        <ele>1541.0</ele>
        <time>2016-06-11T15:04:00Z</time>
      </trkpt>
      <trkpt lat="40.547933" lon="-4.742783">
        <ele>1544.0</ele>
        <time>2016-06-11T15:04:01Z</time>
      </trkpt>
      <trkpt lat="40.547933" lon="-4.742767">
        <ele>1545.0</ele>
        <time>2016-06-11T15:04:02Z</time>
      </trkpt>
      <trkpt lat="40.547967" lon="-4.742767">
        <ele>1546.0</ele>
        <time>2016-06-11T15:04:03Z</time>
      </trkpt>
      <trkpt lat="40.547983" lon="-4.742767">
        <ele>1546.0</ele>
        <time>2016-06-11T15:04:04Z</time>
      </trkpt>
      <trkpt lat="40.548000" lon="-4.742783">
        <ele>1547.0</ele>
        <time>2016-06-11T15:04:05Z</time>
      </trkpt>
      <trkpt lat="40.548000" lon="-4.742783">
        <ele>1548.0</ele>
        <time>2016-06-11T15:04:06Z</time>
      </trkpt>
      <trkpt lat="40.548000" lon="-4.742783">
        <ele>1550.0</ele>
        <time>2016-06-11T15:04:07Z</time>
      </trkpt>
      <trkpt lat="40.547983" lon="-4.742767">
        <ele>1550.0</ele>
        <time>2016-06-11T15:04:08Z</time>
      </trkpt>
      <trkpt lat="40.547983" lon="-4.742767">
        <ele>1550.0</ele>
        <time>2016-06-11T15:04:09Z</time>
      </trkpt>
      <trkpt lat="40.548000" lon="-4.742783">
        <ele>1548.0</ele>
        <time>2016-06-11T15:04:10Z</time>
      </trkpt>
      <trkpt lat="40.548017" lon="-4.742800">
        <ele>1547.0</ele>
        <time>2016-06-11T15:04:11Z</time>
      </trkpt>
      <trkpt lat="40.548017" lon="-4.742833">
        <ele>1546.0</ele>
        <time>2016-06-11T15:04:12Z</time>
      </trkpt>
      <trkpt lat="40.548000" lon="-4.742850">
        <ele>1547.0</ele>
        <time>2016-06-11T15:04:13Z</time>
      </trkpt>
      <trkpt lat="40.548000" lon="-4.742850">
        <ele>1548.0</ele>
        <time>2016-06-11T15:04:14Z</time>
      </trkpt>
      <trkpt lat="40.548000" lon="-4.742850">
        <ele>1548.0</ele>
        <time>2016-06-11T15:04:15Z</time>
      </trkpt>
      <trkpt lat="40.548000" lon="-4.742850">
        <ele>1547.0</ele>
        <time>2016-06-11T15:04:16Z</time>
      </trkpt>
      <trkpt lat="40.548000" lon="-4.742867">
        <ele>1546.0</ele>
        <time>2016-06-11T15:04:17Z</time>
      </trkpt>
      <trkpt lat="40.548000" lon="-4.742900">
        <ele>1546.0</ele>
        <time>2016-06-11T15:04:18Z</time>
      </trkpt>
      <trkpt lat="40.547983" lon="-4.742917">
        <ele>1545.0</ele>
        <time>2016-06-11T15:04:19Z</time>
      </trkpt>
      <trkpt lat="40.547950" lon="-4.742950">
        <ele>1546.0</ele>
        <time>2016-06-11T15:04:20Z</time>
      </trkpt>
      <trkpt lat="40.547950" lon="-4.742967">
        <ele>1547.0</ele>
        <time>2016-06-11T15:04:21Z</time>
      </trkpt>
      <trkpt lat="40.547933" lon="-4.742967">
        <ele>1547.0</ele>
        <time>2016-06-11T15:04:22Z</time>
      </trkpt>
      <trkpt lat="40.547917" lon="-4.742983">
        <ele>1546.0</ele>
        <time>2016-06-11T15:04:23Z</time>
      </trkpt>
      <trkpt lat="40.547900" lon="-4.743000">
        <ele>1545.0</ele>
        <time>2016-06-11T15:04:24Z</time>
      </trkpt>
      <trkpt lat="40.547867" lon="-4.743033">
        <ele>1544.0</ele>
        <time>2016-06-11T15:04:25Z</time>
      </trkpt>
      <trkpt lat="40.547817" lon="-4.743050">
        <ele>1544.0</ele>
        <time>2016-06-11T15:04:26Z</time>
      </trkpt>
      <trkpt lat="40.547767" lon="-4.743067">
        <ele>1544.0</ele>
        <time>2016-06-11T15:04:27Z</time>
      </trkpt>
      <trkpt lat="40.547717" lon="-4.743067">
        <ele>1544.0</ele>
        <time>2016-06-11T15:04:28Z</time>
      </trkpt>
      <trkpt lat="40.547667" lon="-4.743050">
        <ele>1544.0</ele>
        <time>2016-06-11T15:04:29Z</time>
      </trkpt>
      <trkpt lat="40.547600" lon="-4.743050">
        <ele>1544.0</ele>
        <time>2016-06-11T15:04:30Z</time>
      </trkpt>
      <trkpt lat="40.547550" lon="-4.743050">
        <ele>1543.0</ele>
        <time>2016-06-11T15:04:31Z</time>
      </trkpt>
      <trkpt lat="40.547500" lon="-4.743050">
        <ele>1541.0</ele>
        <time>2016-06-11T15:04:32Z</time>
      </trkpt>
      <trkpt lat="40.547467" lon="-4.743067">
        <ele>1540.0</ele>
        <time>2016-06-11T15:04:33Z</time>
      </trkpt>
      <trkpt lat="40.547450" lon="-4.743100">
        <ele>1539.0</ele>
        <time>2016-06-11T15:04:34Z</time>
      </trkpt>
      <trkpt lat="40.547467" lon="-4.743100">
        <ele>1538.0</ele>
        <time>2016-06-11T15:04:35Z</time>
      </trkpt>
      <trkpt lat="40.547483" lon="-4.743083">
        <ele>1537.0</ele>
        <time>2016-06-11T15:04:36Z</time>
      </trkpt>
      <trkpt lat="40.547533" lon="-4.743050">
        <ele>1536.0</ele>
        <time>2016-06-11T15:04:37Z</time>
      </trkpt>
      <trkpt lat="40.547583" lon="-4.743000">
        <ele>1534.0</ele>
        <time>2016-06-11T15:04:38Z</time>
      </trkpt>
      <trkpt lat="40.547650" lon="-4.742917">
        <ele>1531.0</ele>
        <time>2016-06-11T15:04:39Z</time>
      </trkpt>
      <trkpt lat="40.547717" lon="-4.742783">
        <ele>1529.0</ele>
        <time>2016-06-11T15:04:40Z</time>
      </trkpt>
      <trkpt lat="40.547783" lon="-4.742633">
        <ele>1528.0</ele>
        <time>2016-06-11T15:04:41Z</time>
      </trkpt>
      <trkpt lat="40.547817" lon="-4.742467">
        <ele>1528.0</ele>
        <time>2016-06-11T15:04:42Z</time>
      </trkpt>
      <trkpt lat="40.547833" lon="-4.742317">
        <ele>1529.0</ele>
        <time>2016-06-11T15:04:43Z</time>
      </trkpt>
      <trkpt lat="40.547850" lon="-4.742150">
        <ele>1529.0</ele>
        <time>2016-06-11T15:04:44Z</time>
      </trkpt>
      <trkpt lat="40.547883" lon="-4.741983">
        <ele>1529.0</ele>
        <time>2016-06-11T15:04:45Z</time>
      </trkpt>
      <trkpt lat="40.547900" lon="-4.741817">
        <ele>1528.0</ele>
        <time>2016-06-11T15:04:46Z</time>
      </trkpt>
      <trkpt lat="40.547933" lon="-4.741667">
        <ele>1531.0</ele>
        <time>2016-06-11T15:04:47Z</time>
      </trkpt>
      <trkpt lat="40.547967" lon="-4.741583">
        <ele>1536.0</ele>
        <time>2016-06-11T15:04:48Z</time>
      </trkpt>
      <trkpt lat="40.547983" lon="-4.741500">
        <ele>1542.0</ele>
        <time>2016-06-11T15:04:49Z</time>
      </trkpt>
      <trkpt lat="40.548000" lon="-4.741417">
        <ele>1547.0</ele>
        <time>2016-06-11T15:04:50Z</time>
      </trkpt>
      <trkpt lat="40.548017" lon="-4.741283">
        <ele>1549.0</ele>
        <time>2016-06-11T15:04:51Z</time>
      </trkpt>
      <trkpt lat="40.548067" lon="-4.741167">
        <ele>1550.0</ele>
        <time>2016-06-11T15:04:52Z</time>
      </trkpt>
      <trkpt lat="40.548117" lon="-4.741050">
        <ele>1551.0</ele>
        <time>2016-06-11T15:04:53Z</time>
      </trkpt>
      <trkpt lat="40.548200" lon="-4.740967">
        <ele>1554.0</ele>
        <time>2016-06-11T15:04:54Z</time>
      </trkpt>
      <trkpt lat="40.548267" lon="-4.740900">
        <ele>1556.0</ele>
        <time>2016-06-11T15:04:55Z</time>
      </trkpt>
      <trkpt lat="40.548317" lon="-4.740850">
        <ele>1559.0</ele>
        <time>2016-06-11T15:04:56Z</time>
      </trkpt>
      <trkpt lat="40.548367" lon="-4.740783">
        <ele>1562.0</ele>
        <time>2016-06-11T15:04:57Z</time>
      </trkpt>
      <trkpt lat="40.548417" lon="-4.740700">
        <ele>1564.0</ele>
        <time>2016-06-11T15:04:58Z</time>
      </trkpt>
      <trkpt lat="40.548467" lon="-4.740617">
        <ele>1565.0</ele>
        <time>2016-06-11T15:04:59Z</time>
      </trkpt>
      <trkpt lat="40.548533" lon="-4.740517">
        <ele>1566.0</ele>
        <time>2016-06-11T15:05:00Z</time>
      </trkpt>
      <trkpt lat="40.548583" lon="-4.740367">
        <ele>1567.0</ele>
        <time>2016-06-11T15:05:01Z</time>
      </trkpt>
      <trkpt lat="40.548617" lon="-4.740200">
        <ele>1568.0</ele>
        <time>2016-06-11T15:05:02Z</time>
      </trkpt>
      <trkpt lat="40.548617" lon="-4.740000">
        <ele>1568.0</ele>
        <time>2016-06-11T15:05:03Z</time>
      </trkpt>
      <trkpt lat="40.548567" lon="-4.739833">
        <ele>1569.0</ele>
        <time>2016-06-11T15:05:04Z</time>
      </trkpt>
      <trkpt lat="40.548483" lon="-4.739717">
        <ele>1568.0</ele>
        <time>2016-06-11T15:05:05Z</time>
      </trkpt>
      <trkpt lat="40.548383" lon="-4.739683">
        <ele>1566.0</ele>
        <time>2016-06-11T15:05:06Z</time>
      </trkpt>
      <trkpt lat="40.548300" lon="-4.739683">
        <ele>1565.0</ele>
        <time>2016-06-11T15:05:07Z</time>
      </trkpt>
      <trkpt lat="40.548233" lon="-4.739683">
        <ele>1566.0</ele>
        <time>2016-06-11T15:05:08Z</time>
      </trkpt>
      <trkpt lat="40.548183" lon="-4.739683">
        <ele>1568.0</ele>
        <time>2016-06-11T15:05:09Z</time>
      </trkpt>
      <trkpt lat="40.548150" lon="-4.739683">
        <ele>1571.0</ele>
        <time>2016-06-11T15:05:10Z</time>
      </trkpt>
      <trkpt lat="40.548100" lon="-4.739700">
        <ele>1573.0</ele>
        <time>2016-06-11T15:05:11Z</time>
      </trkpt>
      <trkpt lat="40.548067" lon="-4.739700">
        <ele>1575.0</ele>
        <time>2016-06-11T15:05:12Z</time>
      </trkpt>
      <trkpt lat="40.548017" lon="-4.739733">
        <ele>1577.0</ele>
        <time>2016-06-11T15:05:13Z</time>
      </trkpt>
      <trkpt lat="40.547983" lon="-4.739750">
        <ele>1579.0</ele>
        <time>2016-06-11T15:05:14Z</time>
      </trkpt>
      <trkpt lat="40.547933" lon="-4.739783">
        <ele>1582.0</ele>
        <time>2016-06-11T15:05:15Z</time>
      </trkpt>
      <trkpt lat="40.547900" lon="-4.739783">
        <ele>1584.0</ele>
        <time>2016-06-11T15:05:16Z</time>
      </trkpt>
      <trkpt lat="40.547883" lon="-4.739817">
        <ele>1587.0</ele>
        <time>2016-06-11T15:05:17Z</time>
      </trkpt>
      <trkpt lat="40.547867" lon="-4.739850">
        <ele>1589.0</ele>
        <time>2016-06-11T15:05:18Z</time>
      </trkpt>
      <trkpt lat="40.547850" lon="-4.739883">
        <ele>1591.0</ele>
        <time>2016-06-11T15:05:19Z</time>
      </trkpt>
      <trkpt lat="40.547833" lon="-4.739917">
        <ele>1593.0</ele>
        <time>2016-06-11T15:05:20Z</time>
      </trkpt>
      <trkpt lat="40.547833" lon="-4.739933">
        <ele>1596.0</ele>
        <time>2016-06-11T15:05:21Z</time>
      </trkpt>
      <trkpt lat="40.547817" lon="-4.739933">
        <ele>1599.0</ele>
        <time>2016-06-11T15:05:22Z</time>
      </trkpt>
      <trkpt lat="40.547817" lon="-4.739933">
        <ele>1600.0</ele>
        <time>2016-06-11T15:05:23Z</time>
      </trkpt>
      <trkpt lat="40.547817" lon="-4.739950">
        <ele>1601.0</ele>
        <time>2016-06-11T15:05:24Z</time>
      </trkpt>
      <trkpt lat="40.547817" lon="-4.739983">
        <ele>1600.0</ele>
        <time>2016-06-11T15:05:25Z</time>
      </trkpt>
      <trkpt lat="40.547833" lon="-4.740017">
        <ele>1599.0</ele>
        <time>2016-06-11T15:05:26Z</time>
      </trkpt>
      <trkpt lat="40.547850" lon="-4.740050">
        <ele>1600.0</ele>
        <time>2016-06-11T15:05:27Z</time>
      </trkpt>
      <trkpt lat="40.547867" lon="-4.740067">
        <ele>1603.0</ele>
        <time>2016-06-11T15:05:28Z</time>
      </trkpt>
      <trkpt lat="40.547883" lon="-4.740067">
        <ele>1605.0</ele>
        <time>2016-06-11T15:05:29Z</time>
      </trkpt>
      <trkpt lat="40.547900" lon="-4.740067">
        <ele>1608.0</ele>
        <time>2016-06-11T15:05:30Z</time>
      </trkpt>
      <trkpt lat="40.547900" lon="-4.740100">
        <ele>1609.0</ele>
        <time>2016-06-11T15:05:31Z</time>
      </trkpt>
      <trkpt lat="40.547900" lon="-4.740117">
        <ele>1609.0</ele>
        <time>2016-06-11T15:05:32Z</time>
      </trkpt>
      <trkpt lat="40.547900" lon="-4.740150">
        <ele>1610.0</ele>
        <time>2016-06-11T15:05:33Z</time>
      </trkpt>
      <trkpt lat="40.547900" lon="-4.740133">
        <ele>1615.0</ele>
        <time>2016-06-11T15:05:34Z</time>
      </trkpt>
      <trkpt lat="40.547900" lon="-4.740100">
        <ele>1617.0</ele>
        <time>2016-06-11T15:05:35Z</time>
      </trkpt>
      <trkpt lat="40.547917" lon="-4.740067">
        <ele>1618.0</ele>
        <time>2016-06-11T15:05:36Z</time>
      </trkpt>
      <trkpt lat="40.547933" lon="-4.740050">
        <ele>1619.0</ele>
        <time>2016-06-11T15:05:37Z</time>
      </trkpt>
      <trkpt lat="40.547950" lon="-4.740050">
        <ele>1619.0</ele>
        <time>2016-06-11T15:05:38Z</time>
      </trkpt>
      <trkpt lat="40.547983" lon="-4.740050">
        <ele>1619.0</ele>
        <time>2016-06-11T15:05:39Z</time>
      </trkpt>
      <trkpt lat="40.548000" lon="-4.740017">
        <ele>1620.0</ele>
        <time>2016-06-11T15:05:40Z</time>
      </trkpt>
      <trkpt lat="40.548050" lon="-4.739950">
        <ele>1620.0</ele>
        <time>2016-06-11T15:05:41Z</time>
      </trkpt>
      <trkpt lat="40.548067" lon="-4.739867">
        <ele>1621.0</ele>
        <time>2016-06-11T15:05:42Z</time>
      </trkpt>
      <trkpt lat="40.548100" lon="-4.739800">
        <ele>1622.0</ele>
        <time>2016-06-11T15:05:43Z</time>
      </trkpt>
      <trkpt lat="40.548133" lon="-4.739767">
        <ele>1622.0</ele>
        <time>2016-06-11T15:05:44Z</time>
      </trkpt>
      <trkpt lat="40.548167" lon="-4.739717">
        <ele>1622.0</ele>
        <time>2016-06-11T15:05:45Z</time>
      </trkpt>
      <trkpt lat="40.548200" lon="-4.739667">
        <ele>1622.0</ele>
        <time>2016-06-11T15:05:46Z</time>
      </trkpt>
      <trkpt lat="40.548233" lon="-4.739600">
        <ele>1622.0</ele>
        <time>2016-06-11T15:05:47Z</time>
      </trkpt>
      <trkpt lat="40.548267" lon="-4.739500">
        <ele>1622.0</ele>
        <time>2016-06-11T15:05:48Z</time>
      </trkpt>
      <trkpt lat="40.548300" lon="-4.739400">
        <ele>1622.0</ele>
        <time>2016-06-11T15:05:49Z</time>
      </trkpt>
      <trkpt lat="40.548317" lon="-4.739283">
        <ele>1622.0</ele>
        <time>2016-06-11T15:05:50Z</time>
      </trkpt>
      <trkpt lat="40.548300" lon="-4.739150">
        <ele>1623.0</ele>
        <time>2016-06-11T15:05:51Z</time>
      </trkpt>
      <trkpt lat="40.548267" lon="-4.739000">
        <ele>1623.0</ele>
        <time>2016-06-11T15:05:52Z</time>
      </trkpt>
      <trkpt lat="40.548200" lon="-4.738867">
        <ele>1623.0</ele>
        <time>2016-06-11T15:05:53Z</time>
      </trkpt>
      <trkpt lat="40.548117" lon="-4.738750">
        <ele>1623.0</ele>
        <time>2016-06-11T15:05:54Z</time>
      </trkpt>
      <trkpt lat="40.548033" lon="-4.738667">
        <ele>1624.0</ele>
        <time>2016-06-11T15:05:55Z</time>
      </trkpt>
      <trkpt lat="40.547950" lon="-4.738617">
        <ele>1624.0</ele>
        <time>2016-06-11T15:05:56Z</time>
      </trkpt>
      <trkpt lat="40.547850" lon="-4.738583">
        <ele>1623.0</ele>
        <time>2016-06-11T15:05:57Z</time>
      </trkpt>
      <trkpt lat="40.547733" lon="-4.738567">
        <ele>1622.0</ele>
        <time>2016-06-11T15:05:58Z</time>
      </trkpt>
      <trkpt lat="40.547617" lon="-4.738550">
        <ele>1621.0</ele>
        <time>2016-06-11T15:05:59Z</time>
      </trkpt>
      <trkpt lat="40.547500" lon="-4.738550">
        <ele>1623.0</ele>
        <time>2016-06-11T15:06:00Z</time>
      </trkpt>
      <trkpt lat="40.547400" lon="-4.738550">
        <ele>1625.0</ele>
        <time>2016-06-11T15:06:01Z</time>
      </trkpt>
      <trkpt lat="40.547317" lon="-4.738533">
        <ele>1627.0</ele>
        <time>2016-06-11T15:06:02Z</time>
      </trkpt>
      <trkpt lat="40.547233" lon="-4.738500">
        <ele>1627.0</ele>
        <time>2016-06-11T15:06:03Z</time>
      </trkpt>
      <trkpt lat="40.547150" lon="-4.738483">
        <ele>1625.0</ele>
        <time>2016-06-11T15:06:04Z</time>
      </trkpt>
      <trkpt lat="40.547050" lon="-4.738500">
        <ele>1623.0</ele>
        <time>2016-06-11T15:06:05Z</time>
      </trkpt>
      <trkpt lat="40.546967" lon="-4.738533">
        <ele>1622.0</ele>
        <time>2016-06-11T15:06:06Z</time>
      </trkpt>
      <trkpt lat="40.546917" lon="-4.738567">
        <ele>1621.0</ele>
        <time>2016-06-11T15:06:07Z</time>
      </trkpt>
      <trkpt lat="40.546867" lon="-4.738583">
        <ele>1621.0</ele>
        <time>2016-06-11T15:06:08Z</time>
      </trkpt>
      <trkpt lat="40.546833" lon="-4.738600">
        <ele>1620.0</ele>
        <time>2016-06-11T15:06:09Z</time>
      </trkpt>
      <trkpt lat="40.546783" lon="-4.738633">
        <ele>1620.0</ele>
        <time>2016-06-11T15:06:10Z</time>
      </trkpt>
      <trkpt lat="40.546750" lon="-4.738667">
        <ele>1620.0</ele>
        <time>2016-06-11T15:06:11Z</time>
      </trkpt>
      <trkpt lat="40.546733" lon="-4.738700">
        <ele>1621.0</ele>
        <time>2016-06-11T15:06:12Z</time>
      </trkpt>
      <trkpt lat="40.546733" lon="-4.738733">
        <ele>1622.0</ele>
        <time>2016-06-11T15:06:13Z</time>
      </trkpt>
      <trkpt lat="40.546733" lon="-4.738750">
        <ele>1624.0</ele>
        <time>2016-06-11T15:06:14Z</time>
      </trkpt>
      <trkpt lat="40.546717" lon="-4.738767">
        <ele>1626.0</ele>
        <time>2016-06-11T15:06:15Z</time>
      </trkpt>
      <trkpt lat="40.546700" lon="-4.738767">
        <ele>1627.0</ele>
        <time>2016-06-11T15:06:16Z</time>
      </trkpt>
      <trkpt lat="40.546700" lon="-4.738783">
        <ele>1625.0</ele>
        <time>2016-06-11T15:06:17Z</time>
      </trkpt>
      <trkpt lat="40.546700" lon="-4.738817">
        <ele>1624.0</ele>
        <time>2016-06-11T15:06:18Z</time>
      </trkpt>
      <trkpt lat="40.546717" lon="-4.738867">
        <ele>1624.0</ele>
        <time>2016-06-11T15:06:19Z</time>
      </trkpt>
      <trkpt lat="40.546733" lon="-4.738900">
        <ele>1626.0</ele>
        <time>2016-06-11T15:06:20Z</time>
      </trkpt>
      <trkpt lat="40.546717" lon="-4.738917">
        <ele>1627.0</ele>
        <time>2016-06-11T15:06:21Z</time>
      </trkpt>
      <trkpt lat="40.546717" lon="-4.738950">
        <ele>1627.0</ele>
        <time>2016-06-11T15:06:22Z</time>
      </trkpt>
      <trkpt lat="40.546717" lon="-4.738983">
        <ele>1626.0</ele>
        <time>2016-06-11T15:06:23Z</time>
      </trkpt>
      <trkpt lat="40.546733" lon="-4.739017">
        <ele>1626.0</ele>
        <time>2016-06-11T15:06:24Z</time>
      </trkpt>
      <trkpt lat="40.546750" lon="-4.739067">
        <ele>1628.0</ele>
        <time>2016-06-11T15:06:25Z</time>
      </trkpt>
      <trkpt lat="40.546767" lon="-4.739083">
        <ele>1631.0</ele>
        <time>2016-06-11T15:06:26Z</time>
      </trkpt>
      <trkpt lat="40.546767" lon="-4.739100">
        <ele>1635.0</ele>
        <time>2016-06-11T15:06:27Z</time>
      </trkpt>
      <trkpt lat="40.546750" lon="-4.739083">
        <ele>1636.0</ele>
        <time>2016-06-11T15:06:28Z</time>
      </trkpt>
      <trkpt lat="40.546750" lon="-4.739083">
        <ele>1637.0</ele>
        <time>2016-06-11T15:06:29Z</time>
      </trkpt>
      <trkpt lat="40.546767" lon="-4.739083">
        <ele>1637.0</ele>
        <time>2016-06-11T15:06:30Z</time>
      </trkpt>
      <trkpt lat="40.546783" lon="-4.739100">
        <ele>1638.0</ele>
        <time>2016-06-11T15:06:31Z</time>
      </trkpt>
      <trkpt lat="40.546783" lon="-4.739117">
        <ele>1639.0</ele>
        <time>2016-06-11T15:06:32Z</time>
      </trkpt>
      <trkpt lat="40.546800" lon="-4.739117">
        <ele>1640.0</ele>
        <time>2016-06-11T15:06:33Z</time>
      </trkpt>
      <trkpt lat="40.546800" lon="-4.739100">
        <ele>1645.0</ele>
        <time>2016-06-11T15:06:34Z</time>
      </trkpt>
      <trkpt lat="40.546800" lon="-4.739067">
        <ele>1646.0</ele>
        <time>2016-06-11T15:06:35Z</time>
      </trkpt>
      <trkpt lat="40.546800" lon="-4.739050">
        <ele>1647.0</ele>
        <time>2016-06-11T15:06:36Z</time>
      </trkpt>
      <trkpt lat="40.546800" lon="-4.739033">
        <ele>1647.0</ele>
        <time>2016-06-11T15:06:37Z</time>
      </trkpt>
      <trkpt lat="40.546800" lon="-4.739000">
        <ele>1647.0</ele>
        <time>2016-06-11T15:06:38Z</time>
      </trkpt>
      <trkpt lat="40.546833" lon="-4.738967">
        <ele>1647.0</ele>
        <time>2016-06-11T15:06:39Z</time>
      </trkpt>
      <trkpt lat="40.546850" lon="-4.738900">
        <ele>1649.0</ele>
        <time>2016-06-11T15:06:40Z</time>
      </trkpt>
      <trkpt lat="40.546850" lon="-4.738817">
        <ele>1650.0</ele>
        <time>2016-06-11T15:06:41Z</time>
      </trkpt>
      <trkpt lat="40.546867" lon="-4.738733">
        <ele>1651.0</ele>
        <time>2016-06-11T15:06:42Z</time>
      </trkpt>
      <trkpt lat="40.546867" lon="-4.738683">
        <ele>1651.0</ele>
        <time>2016-06-11T15:06:43Z</time>
      </trkpt>
      <trkpt lat="40.546883" lon="-4.738617">
        <ele>1650.0</ele>
        <time>2016-06-11T15:06:44Z</time>
      </trkpt>
      <trkpt lat="40.546917" lon="-4.738550">
        <ele>1650.0</ele>
        <time>2016-06-11T15:06:45Z</time>
      </trkpt>
      <trkpt lat="40.546933" lon="-4.738450">
        <ele>1650.0</ele>
        <time>2016-06-11T15:06:46Z</time>
      </trkpt>
      <trkpt lat="40.546950" lon="-4.738333">
        <ele>1649.0</ele>
        <time>2016-06-11T15:06:47Z</time>
      </trkpt>
      <trkpt lat="40.546967" lon="-4.738217">
        <ele>1648.0</ele>
        <time>2016-06-11T15:06:48Z</time>
      </trkpt>
      <trkpt lat="40.546967" lon="-4.738083">
        <ele>1647.0</ele>
        <time>2016-06-11T15:06:49Z</time>
      </trkpt>
      <trkpt lat="40.546950" lon="-4.737933">
        <ele>1645.0</ele>
        <time>2016-06-11T15:06:50Z</time>
      </trkpt>
      <trkpt lat="40.546917" lon="-4.737750">
        <ele>1642.0</ele>
        <time>2016-06-11T15:06:51Z</time>
      </trkpt>
      <trkpt lat="40.546867" lon="-4.737567">
        <ele>1640.0</ele>
        <time>2016-06-11T15:06:52Z</time>
      </trkpt>
      <trkpt lat="40.546800" lon="-4.737383">
        <ele>1640.0</ele>
        <time>2016-06-11T15:06:53Z</time>
      </trkpt>
      <trkpt lat="40.546717" lon="-4.737233">
        <ele>1641.0</ele>
        <time>2016-06-11T15:06:54Z</time>
      </trkpt>
      <trkpt lat="40.546617" lon="-4.737100">
        <ele>1640.0</ele>
        <time>2016-06-11T15:06:55Z</time>
      </trkpt>
      <trkpt lat="40.546500" lon="-4.736983">
        <ele>1639.0</ele>
        <time>2016-06-11T15:06:56Z</time>
      </trkpt>
      <trkpt lat="40.546383" lon="-4.736883">
        <ele>1639.0</ele>
        <time>2016-06-11T15:06:57Z</time>
      </trkpt>
      <trkpt lat="40.546250" lon="-4.736817">
        <ele>1639.0</ele>
        <time>2016-06-11T15:06:58Z</time>
      </trkpt>
      <trkpt lat="40.546117" lon="-4.736767">
        <ele>1639.0</ele>
        <time>2016-06-11T15:06:59Z</time>
      </trkpt>
      <trkpt lat="40.546000" lon="-4.736733">
        <ele>1639.0</ele>
        <time>2016-06-11T15:07:00Z</time>
      </trkpt>
      <trkpt lat="40.545900" lon="-4.736717">
        <ele>1638.0</ele>
        <time>2016-06-11T15:07:01Z</time>
      </trkpt>
      <trkpt lat="40.545800" lon="-4.736733">
        <ele>1638.0</ele>
        <time>2016-06-11T15:07:02Z</time>
      </trkpt>
      <trkpt lat="40.545700" lon="-4.736750">
        <ele>1637.0</ele>
        <time>2016-06-11T15:07:03Z</time>
      </trkpt>
      <trkpt lat="40.545600" lon="-4.736783">
        <ele>1636.0</ele>
        <time>2016-06-11T15:07:04Z</time>
      </trkpt>
      <trkpt lat="40.545500" lon="-4.736800">
        <ele>1635.0</ele>
        <time>2016-06-11T15:07:05Z</time>
      </trkpt>
      <trkpt lat="40.545433" lon="-4.736833">
        <ele>1636.0</ele>
        <time>2016-06-11T15:07:06Z</time>
      </trkpt>
      <trkpt lat="40.545383" lon="-4.736867">
        <ele>1637.0</ele>
        <time>2016-06-11T15:07:07Z</time>
      </trkpt>
      <trkpt lat="40.545350" lon="-4.736883">
        <ele>1638.0</ele>
        <time>2016-06-11T15:07:08Z</time>
      </trkpt>
      <trkpt lat="40.545333" lon="-4.736900">
        <ele>1641.0</ele>
        <time>2016-06-11T15:07:09Z</time>
      </trkpt>
      <trkpt lat="40.545317" lon="-4.736900">
        <ele>1644.0</ele>
        <time>2016-06-11T15:07:10Z</time>
      </trkpt>
      <trkpt lat="40.545283" lon="-4.736900">
        <ele>1646.0</ele>
        <time>2016-06-11T15:07:11Z</time>
      </trkpt>
      <trkpt lat="40.545250" lon="-4.736900">
        <ele>1646.0</ele>
        <time>2016-06-11T15:07:12Z</time>
      </trkpt>
      <trkpt lat="40.545233" lon="-4.736917">
        <ele>1645.0</ele>
        <time>2016-06-11T15:07:13Z</time>
      </trkpt>
      <trkpt lat="40.545217" lon="-4.736967">
        <ele>1645.0</ele>
        <time>2016-06-11T15:07:14Z</time>
      </trkpt>
      <trkpt lat="40.545217" lon="-4.737017">
        <ele>1646.0</ele>
        <time>2016-06-11T15:07:15Z</time>
      </trkpt>
      <trkpt lat="40.545200" lon="-4.737050">
        <ele>1648.0</ele>
        <time>2016-06-11T15:07:16Z</time>
      </trkpt>
      <trkpt lat="40.545200" lon="-4.737083">
        <ele>1652.0</ele>
        <time>2016-06-11T15:07:17Z</time>
      </trkpt>
      <trkpt lat="40.545183" lon="-4.737083">
        <ele>1654.0</ele>
        <time>2016-06-11T15:07:18Z</time>
      </trkpt>
      <trkpt lat="40.545167" lon="-4.737100">
        <ele>1656.0</ele>
        <time>2016-06-11T15:07:19Z</time>
      </trkpt>
      <trkpt lat="40.545167" lon="-4.737117">
        <ele>1656.0</ele>
        <time>2016-06-11T15:07:20Z</time>
      </trkpt>
      <trkpt lat="40.545167" lon="-4.737167">
        <ele>1657.0</ele>
        <time>2016-06-11T15:07:21Z</time>
      </trkpt>
      <trkpt lat="40.545150" lon="-4.737217">
        <ele>1659.0</ele>
        <time>2016-06-11T15:07:22Z</time>
      </trkpt>
      <trkpt lat="40.545150" lon="-4.737267">
        <ele>1662.0</ele>
        <time>2016-06-11T15:07:23Z</time>
      </trkpt>
      <trkpt lat="40.545133" lon="-4.737283">
        <ele>1665.0</ele>
        <time>2016-06-11T15:07:24Z</time>
      </trkpt>
      <trkpt lat="40.545117" lon="-4.737283">
        <ele>1667.0</ele>
        <time>2016-06-11T15:07:25Z</time>
      </trkpt>
      <trkpt lat="40.545100" lon="-4.737300">
        <ele>1668.0</ele>
        <time>2016-06-11T15:07:26Z</time>
      </trkpt>
      <trkpt lat="40.545083" lon="-4.737333">
        <ele>1669.0</ele>
        <time>2016-06-11T15:07:27Z</time>
      </trkpt>
      <trkpt lat="40.545050" lon="-4.737367">
        <ele>1671.0</ele>
        <time>2016-06-11T15:07:28Z</time>
      </trkpt>
      <trkpt lat="40.545017" lon="-4.737383">
        <ele>1673.0</ele>
        <time>2016-06-11T15:07:29Z</time>
      </trkpt>
      <trkpt lat="40.545000" lon="-4.737383">
        <ele>1674.0</ele>
        <time>2016-06-11T15:07:30Z</time>
      </trkpt>
      <trkpt lat="40.544983" lon="-4.737383">
        <ele>1675.0</ele>
        <time>2016-06-11T15:07:31Z</time>
      </trkpt>
      <trkpt lat="40.545000" lon="-4.737383">
        <ele>1674.0</ele>
        <time>2016-06-11T15:07:32Z</time>
      </trkpt>
      <trkpt lat="40.545017" lon="-4.737400">
        <ele>1673.0</ele>
        <time>2016-06-11T15:07:33Z</time>
      </trkpt>
      <trkpt lat="40.545033" lon="-4.737400">
        <ele>1674.0</ele>
        <time>2016-06-11T15:07:34Z</time>
      </trkpt>
      <trkpt lat="40.545050" lon="-4.737400">
        <ele>1674.0</ele>
        <time>2016-06-11T15:07:35Z</time>
      </trkpt>
      <trkpt lat="40.545083" lon="-4.737367">
        <ele>1674.0</ele>
        <time>2016-06-11T15:07:36Z</time>
      </trkpt>
      <trkpt lat="40.545133" lon="-4.737317">
        <ele>1674.0</ele>
        <time>2016-06-11T15:07:37Z</time>
      </trkpt>
      <trkpt lat="40.545183" lon="-4.737250">
        <ele>1673.0</ele>
        <time>2016-06-11T15:07:38Z</time>
      </trkpt>
      <trkpt lat="40.545233" lon="-4.737183">
        <ele>1674.0</ele>
        <time>2016-06-11T15:07:39Z</time>
      </trkpt>
      <trkpt lat="40.545283" lon="-4.737100">
        <ele>1675.0</ele>
        <time>2016-06-11T15:07:40Z</time>
      </trkpt>
      <trkpt lat="40.545333" lon="-4.737033">
        <ele>1676.0</ele>
        <time>2016-06-11T15:07:41Z</time>
      </trkpt>
      <trkpt lat="40.545383" lon="-4.736983">
        <ele>1678.0</ele>
        <time>2016-06-11T15:07:42Z</time>
      </trkpt>
      <trkpt lat="40.545433" lon="-4.736950">
        <ele>1679.0</ele>
        <time>2016-06-11T15:07:43Z</time>
      </trkpt>
      <trkpt lat="40.545467" lon="-4.736917">
        <ele>1680.0</ele>
        <time>2016-06-11T15:07:44Z</time>
      </trkpt>
      <trkpt lat="40.545517" lon="-4.736883">
        <ele>1682.0</ele>
        <time>2016-06-11T15:07:45Z</time>
      </trkpt>
      <trkpt lat="40.545550" lon="-4.736867">
        <ele>1684.0</ele>
        <time>2016-06-11T15:07:46Z</time>
      </trkpt>
      <trkpt lat="40.545600" lon="-4.736833">
        <ele>1686.0</ele>
        <time>2016-06-11T15:07:47Z</time>
      </trkpt>
      <trkpt lat="40.545633" lon="-4.736817">
        <ele>1688.0</ele>
        <time>2016-06-11T15:07:48Z</time>
      </trkpt>
      <trkpt lat="40.545683" lon="-4.736800">
        <ele>1691.0</ele>
        <time>2016-06-11T15:07:49Z</time>
      </trkpt>
      <trkpt lat="40.545717" lon="-4.736767">
        <ele>1693.0</ele>
        <time>2016-06-11T15:07:50Z</time>
      </trkpt>
      <trkpt lat="40.545750" lon="-4.736750">
        <ele>1696.0</ele>
        <time>2016-06-11T15:07:51Z</time>
      </trkpt>
      <trkpt lat="40.545800" lon="-4.736717">
        <ele>1697.0</ele>
        <time>2016-06-11T15:07:52Z</time>
      </trkpt>
      <trkpt lat="40.545833" lon="-4.736667">
        <ele>1699.0</ele>
        <time>2016-06-11T15:07:53Z</time>
      </trkpt>
      <trkpt lat="40.545867" lon="-4.736617">
        <ele>1699.0</ele>
        <time>2016-06-11T15:07:54Z</time>
      </trkpt>
      <trkpt lat="40.545900" lon="-4.736517">
        <ele>1699.0</ele>
        <time>2016-06-11T15:07:55Z</time>
      </trkpt>
      <trkpt lat="40.545967" lon="-4.736400">
        <ele>1698.0</ele>
        <time>2016-06-11T15:07:56Z</time>
      </trkpt>
      <trkpt lat="40.546017" lon="-4.736267">
        <ele>1699.0</ele>
        <time>2016-06-11T15:07:57Z</time>
      </trkpt>
      <trkpt lat="40.546050" lon="-4.736150">
        <ele>1701.0</ele>
        <time>2016-06-11T15:07:58Z</time>
      </trkpt>
      <trkpt lat="40.546067" lon="-4.736033">
        <ele>1702.0</ele>
        <time>2016-06-11T15:07:59Z</time>
      </trkpt>
      <trkpt lat="40.546083" lon="-4.735917">
        <ele>1702.0</ele>
        <time>2016-06-11T15:08:00Z</time>
      </trkpt>
      <trkpt lat="40.546117" lon="-4.735767">
        <ele>1700.0</ele>
        <time>2016-06-11T15:08:01Z</time>
      </trkpt>
      <trkpt lat="40.546167" lon="-4.735617">
        <ele>1700.0</ele>
        <time>2016-06-11T15:08:02Z</time>
      </trkpt>
      <trkpt lat="40.546217" lon="-4.735450">
        <ele>1701.0</ele>
        <time>2016-06-11T15:08:03Z</time>
      </trkpt>
      <trkpt lat="40.546217" lon="-4.735300">
        <ele>1703.0</ele>
        <time>2016-06-11T15:08:04Z</time>
      </trkpt>
      <trkpt lat="40.546217" lon="-4.735117">
        <ele>1704.0</ele>
        <time>2016-06-11T15:08:05Z</time>
      </trkpt>
      <trkpt lat="40.546183" lon="-4.734933">
        <ele>1703.0</ele>
        <time>2016-06-11T15:08:06Z</time>
      </trkpt>
      <trkpt lat="40.546167" lon="-4.734733">
        <ele>1702.0</ele>
        <time>2016-06-11T15:08:07Z</time>
      </trkpt>
      <trkpt lat="40.546150" lon="-4.734533">
        <ele>1703.0</ele>
        <time>2016-06-11T15:08:08Z</time>
      </trkpt>
      <trkpt lat="40.546133" lon="-4.734333">
        <ele>1703.0</ele>
        <time>2016-06-11T15:08:09Z</time>
      </trkpt>
      <trkpt lat="40.546117" lon="-4.734167">
        <ele>1703.0</ele>
        <time>2016-06-11T15:08:10Z</time>
      </trkpt>
      <trkpt lat="40.546100" lon="-4.733983">
        <ele>1702.0</ele>
        <time>2016-06-11T15:08:11Z</time>
      </trkpt>
      <trkpt lat="40.546033" lon="-4.733783">
        <ele>1700.0</ele>
        <time>2016-06-11T15:08:12Z</time>
      </trkpt>
      <trkpt lat="40.545967" lon="-4.733583">
        <ele>1700.0</ele>
        <time>2016-06-11T15:08:13Z</time>
      </trkpt>
      <trkpt lat="40.545883" lon="-4.733400">
        <ele>1701.0</ele>
        <time>2016-06-11T15:08:14Z</time>
      </trkpt>
      <trkpt lat="40.545800" lon="-4.733250">
        <ele>1704.0</ele>
        <time>2016-06-11T15:08:15Z</time>
      </trkpt>
      <trkpt lat="40.545700" lon="-4.733117">
        <ele>1705.0</ele>
        <time>2016-06-11T15:08:16Z</time>
      </trkpt>
      <trkpt lat="40.545600" lon="-4.733017">
        <ele>1705.0</ele>
        <time>2016-06-11T15:08:17Z</time>
      </trkpt>
      <trkpt lat="40.545467" lon="-4.732950">
        <ele>1704.0</ele>
        <time>2016-06-11T15:08:18Z</time>
      </trkpt>
      <trkpt lat="40.545350" lon="-4.732883">
        <ele>1705.0</ele>
        <time>2016-06-11T15:08:19Z</time>
      </trkpt>
      <trkpt lat="40.545250" lon="-4.732850">
        <ele>1706.0</ele>
        <time>2016-06-11T15:08:20Z</time>
      </trkpt>
      <trkpt lat="40.545183" lon="-4.732817">
        <ele>1708.0</ele>
        <time>2016-06-11T15:08:21Z</time>
      </trkpt>
      <trkpt lat="40.545100" lon="-4.732800">
        <ele>1708.0</ele>
        <time>2016-06-11T15:08:22Z</time>
      </trkpt>
      <trkpt lat="40.545050" lon="-4.732783">
        <ele>1708.0</ele>
        <time>2016-06-11T15:08:23Z</time>
      </trkpt>
      <trkpt lat="40.544983" lon="-4.732783">
        <ele>1708.0</ele>
        <time>2016-06-11T15:08:24Z</time>
      </trkpt>
      <trkpt lat="40.544917" lon="-4.732783">
        <ele>1708.0</ele>
        <time>2016-06-11T15:08:25Z</time>
      </trkpt>
      <trkpt lat="40.544883" lon="-4.732800">
        <ele>1709.0</ele>
        <time>2016-06-11T15:08:26Z</time>
      </trkpt>
      <trkpt lat="40.544850" lon="-4.732817">
        <ele>1710.0</ele>
        <time>2016-06-11T15:08:27Z</time>
      </trkpt>
      <trkpt lat="40.544833" lon="-4.732817">
        <ele>1711.0</ele>
        <time>2016-06-11T15:08:28Z</time>
      </trkpt>
      <trkpt lat="40.544833" lon="-4.732800">
        <ele>1713.0</ele>
        <time>2016-06-11T15:08:29Z</time>
      </trkpt>
      <trkpt lat="40.544833" lon="-4.732783">
        <ele>1714.0</ele>
        <time>2016-06-11T15:08:30Z</time>
      </trkpt>
      <trkpt lat="40.544833" lon="-4.732783">
        <ele>1715.0</ele>
        <time>2016-06-11T15:08:31Z</time>
      </trkpt>
      <trkpt lat="40.544833" lon="-4.732783">
        <ele>1716.0</ele>
        <time>2016-06-11T15:08:32Z</time>
      </trkpt>
      <trkpt lat="40.544850" lon="-4.732767">
        <ele>1716.0</ele>
        <time>2016-06-11T15:08:33Z</time>
      </trkpt>
      <trkpt lat="40.544867" lon="-4.732750">
        <ele>1717.0</ele>
        <time>2016-06-11T15:08:34Z</time>
      </trkpt>
      <trkpt lat="40.544900" lon="-4.732700">
        <ele>1717.0</ele>
        <time>2016-06-11T15:08:35Z</time>
      </trkpt>
      <trkpt lat="40.544950" lon="-4.732650">
        <ele>1718.0</ele>
        <time>2016-06-11T15:08:36Z</time>
      </trkpt>
      <trkpt lat="40.545000" lon="-4.732583">
        <ele>1719.0</ele>
        <time>2016-06-11T15:08:37Z</time>
      </trkpt>
      <trkpt lat="40.545050" lon="-4.732533">
        <ele>1720.0</ele>
        <time>2016-06-11T15:08:38Z</time>
      </trkpt>
      <trkpt lat="40.545083" lon="-4.732467">
        <ele>1722.0</ele>
        <time>2016-06-11T15:08:39Z</time>
      </trkpt>
      <trkpt lat="40.545100" lon="-4.732400">
        <ele>1722.0</ele>
        <time>2016-06-11T15:08:40Z</time>
      </trkpt>
      <trkpt lat="40.545117" lon="-4.732317">
        <ele>1722.0</ele>
        <time>2016-06-11T15:08:41Z</time>
      </trkpt>
      <trkpt lat="40.545133" lon="-4.732217">
        <ele>1721.0</ele>
        <time>2016-06-11T15:08:42Z</time>
      </trkpt>
      <trkpt lat="40.545183" lon="-4.732117">
        <ele>1721.0</ele>
        <time>2016-06-11T15:08:43Z</time>
      </trkpt>
      <trkpt lat="40.545217" lon="-4.731983">
        <ele>1721.0</ele>
        <time>2016-06-11T15:08:44Z</time>
      </trkpt>
      <trkpt lat="40.545250" lon="-4.731900">
        <ele>1721.0</ele>
        <time>2016-06-11T15:08:45Z</time>
      </trkpt>
      <trkpt lat="40.545300" lon="-4.731850">
        <ele>1722.0</ele>
        <time>2016-06-11T15:08:46Z</time>
      </trkpt>
      <trkpt lat="40.545333" lon="-4.731817">
        <ele>1722.0</ele>
        <time>2016-06-11T15:08:47Z</time>
      </trkpt>
      <trkpt lat="40.545350" lon="-4.731767">
        <ele>1721.0</ele>
        <time>2016-06-11T15:08:48Z</time>
      </trkpt>
      <trkpt lat="40.545383" lon="-4.731683">
        <ele>1720.0</ele>
        <time>2016-06-11T15:08:49Z</time>
      </trkpt>
      <trkpt lat="40.545400" lon="-4.731600">
        <ele>1718.0</ele>
        <time>2016-06-11T15:08:50Z</time>
      </trkpt>
      <trkpt lat="40.545433" lon="-4.731517">
        <ele>1717.0</ele>
        <time>2016-06-11T15:08:51Z</time>
      </trkpt>
      <trkpt lat="40.545467" lon="-4.731433">
        <ele>1717.0</ele>
        <time>2016-06-11T15:08:52Z</time>
      </trkpt>
      <trkpt lat="40.545483" lon="-4.731333">
        <ele>1715.0</ele>
        <time>2016-06-11T15:08:53Z</time>
      </trkpt>
      <trkpt lat="40.545500" lon="-4.731233">
        <ele>1714.0</ele>
        <time>2016-06-11T15:08:54Z</time>
      </trkpt>
      <trkpt lat="40.545500" lon="-4.731083">
        <ele>1712.0</ele>
        <time>2016-06-11T15:08:55Z</time>
      </trkpt>
      <trkpt lat="40.545483" lon="-4.730917">
        <ele>1709.0</ele>
        <time>2016-06-11T15:08:56Z</time>
      </trkpt>
      <trkpt lat="40.545433" lon="-4.730767">
        <ele>1709.0</ele>
        <time>2016-06-11T15:08:57Z</time>
      </trkpt>
      <trkpt lat="40.545350" lon="-4.730633">
        <ele>1710.0</ele>
        <time>2016-06-11T15:08:58Z</time>
      </trkpt>
      <trkpt lat="40.545267" lon="-4.730550">
        <ele>1709.0</ele>
        <time>2016-06-11T15:08:59Z</time>
      </trkpt>
      <trkpt lat="40.545183" lon="-4.730500">
        <ele>1708.0</ele>
        <time>2016-06-11T15:09:00Z</time>
      </trkpt>
      <trkpt lat="40.545100" lon="-4.730450">
        <ele>1707.0</ele>
        <time>2016-06-11T15:09:01Z</time>
      </trkpt>
      <trkpt lat="40.545000" lon="-4.730400">
        <ele>1706.0</ele>
        <time>2016-06-11T15:09:02Z</time>
      </trkpt>
      <trkpt lat="40.544900" lon="-4.730350">
        <ele>1704.0</ele>
        <time>2016-06-11T15:09:03Z</time>
      </trkpt>
      <trkpt lat="40.544800" lon="-4.730333">
        <ele>1705.0</ele>
        <time>2016-06-11T15:09:04Z</time>
      </trkpt>
      <trkpt lat="40.544700" lon="-4.730317">
        <ele>1707.0</ele>
        <time>2016-06-11T15:09:05Z</time>
      </trkpt>
      <trkpt lat="40.544617" lon="-4.730300">
        <ele>1710.0</ele>
        <time>2016-06-11T15:09:06Z</time>
      </trkpt>
      <trkpt lat="40.544550" lon="-4.730283">
        <ele>1713.0</ele>
        <time>2016-06-11T15:09:07Z</time>
      </trkpt>
      <trkpt lat="40.544467" lon="-4.730300">
        <ele>1714.0</ele>
        <time>2016-06-11T15:09:08Z</time>
      </trkpt>
      <trkpt lat="40.544400" lon="-4.730317">
        <ele>1715.0</ele>
        <time>2016-06-11T15:09:09Z</time>
      </trkpt>
      <trkpt lat="40.544317" lon="-4.730333">
        <ele>1717.0</ele>
        <time>2016-06-11T15:09:10Z</time>
      </trkpt>
      <trkpt lat="40.544250" lon="-4.730317">
        <ele>1720.0</ele>
        <time>2016-06-11T15:09:11Z</time>
      </trkpt>
      <trkpt lat="40.544183" lon="-4.730300">
        <ele>1721.0</ele>
        <time>2016-06-11T15:09:12Z</time>
      </trkpt>
      <trkpt lat="40.544133" lon="-4.730283">
        <ele>1719.0</ele>
        <time>2016-06-11T15:09:13Z</time>
      </trkpt>
      <trkpt lat="40.544117" lon="-4.730300">
        <ele>1717.0</ele>
        <time>2016-06-11T15:09:14Z</time>
      </trkpt>
      <trkpt lat="40.544117" lon="-4.730333">
        <ele>1716.0</ele>
        <time>2016-06-11T15:09:15Z</time>
      </trkpt>
      <trkpt lat="40.544150" lon="-4.730367">
        <ele>1717.0</ele>
        <time>2016-06-11T15:09:16Z</time>
      </trkpt>
      <trkpt lat="40.544150" lon="-4.730383">
        <ele>1720.0</ele>
        <time>2016-06-11T15:09:17Z</time>
      </trkpt>
      <trkpt lat="40.544167" lon="-4.730367">
        <ele>1722.0</ele>
        <time>2016-06-11T15:09:18Z</time>
      </trkpt>
      <trkpt lat="40.544167" lon="-4.730350">
        <ele>1723.0</ele>
        <time>2016-06-11T15:09:19Z</time>
      </trkpt>
      <trkpt lat="40.544183" lon="-4.730333">
        <ele>1723.0</ele>
        <time>2016-06-11T15:09:20Z</time>
      </trkpt>
      <trkpt lat="40.544233" lon="-4.730317">
        <ele>1722.0</ele>
        <time>2016-06-11T15:09:21Z</time>
      </trkpt>
      <trkpt lat="40.544283" lon="-4.730267">
        <ele>1722.0</ele>
        <time>2016-06-11T15:09:22Z</time>
      </trkpt>
      <trkpt lat="40.544333" lon="-4.730183">
        <ele>1724.0</ele>
        <time>2016-06-11T15:09:23Z</time>
      </trkpt>
      <trkpt lat="40.544383" lon="-4.730100">
        <ele>1726.0</ele>
        <time>2016-06-11T15:09:24Z</time>
      </trkpt>
      <trkpt lat="40.544417" lon="-4.730017">
        <ele>1726.0</ele>
        <time>2016-06-11T15:09:25Z</time>
      </trkpt>
      <trkpt lat="40.544467" lon="-4.729933">
        <ele>1727.0</ele>
        <time>2016-06-11T15:09:26Z</time>
      </trkpt>
      <trkpt lat="40.544517" lon="-4.729867">
        <ele>1728.0</ele>
        <time>2016-06-11T15:09:27Z</time>
      </trkpt>
      <trkpt lat="40.544567" lon="-4.729783">
        <ele>1730.0</ele>
        <time>2016-06-11T15:09:28Z</time>
      </trkpt>
      <trkpt lat="40.544600" lon="-4.729700">
        <ele>1732.0</ele>
        <time>2016-06-11T15:09:29Z</time>
      </trkpt>
      <trkpt lat="40.544617" lon="-4.729600">
        <ele>1733.0</ele>
        <time>2016-06-11T15:09:30Z</time>
      </trkpt>
      <trkpt lat="40.544617" lon="-4.729500">
        <ele>1733.0</ele>
        <time>2016-06-11T15:09:31Z</time>
      </trkpt>
      <trkpt lat="40.544633" lon="-4.729367">
        <ele>1733.0</ele>
        <time>2016-06-11T15:09:32Z</time>
      </trkpt>
      <trkpt lat="40.544633" lon="-4.729217">
        <ele>1732.0</ele>
        <time>2016-06-11T15:09:33Z</time>
      </trkpt>
      <trkpt lat="40.544650" lon="-4.729083">
        <ele>1732.0</ele>
        <time>2016-06-11T15:09:34Z</time>
      </trkpt>
      <trkpt lat="40.544633" lon="-4.728950">
        <ele>1733.0</ele>
        <time>2016-06-11T15:09:35Z</time>
      </trkpt>
      <trkpt lat="40.544583" lon="-4.728800">
        <ele>1732.0</ele>
        <time>2016-06-11T15:09:36Z</time>
      </trkpt>
      <trkpt lat="40.544517" lon="-4.728667">
        <ele>1731.0</ele>
        <time>2016-06-11T15:09:37Z</time>
      </trkpt>
      <trkpt lat="40.544450" lon="-4.728517">
        <ele>1729.0</ele>
        <time>2016-06-11T15:09:38Z</time>
      </trkpt>
      <trkpt lat="40.544367" lon="-4.728383">
        <ele>1730.0</ele>
        <time>2016-06-11T15:09:39Z</time>
      </trkpt>
      <trkpt lat="40.544283" lon="-4.728250">
        <ele>1730.0</ele>
        <time>2016-06-11T15:09:40Z</time>
      </trkpt>
      <trkpt lat="40.544183" lon="-4.728167">
        <ele>1731.0</ele>
        <time>2016-06-11T15:09:41Z</time>
      </trkpt>
      <trkpt lat="40.544083" lon="-4.728100">
        <ele>1731.0</ele>
        <time>2016-06-11T15:09:42Z</time>
      </trkpt>
      <trkpt lat="40.543983" lon="-4.728067">
        <ele>1731.0</ele>
        <time>2016-06-11T15:09:43Z</time>
      </trkpt>
      <trkpt lat="40.543883" lon="-4.728050">
        <ele>1731.0</ele>
        <time>2016-06-11T15:09:44Z</time>
      </trkpt>
      <trkpt lat="40.543767" lon="-4.728050">
        <ele>1732.0</ele>
        <time>2016-06-11T15:09:45Z</time>
      </trkpt>
      <trkpt lat="40.543683" lon="-4.728050">
        <ele>1734.0</ele>
        <time>2016-06-11T15:09:46Z</time>
      </trkpt>
      <trkpt lat="40.543600" lon="-4.728067">
        <ele>1735.0</ele>
        <time>2016-06-11T15:09:47Z</time>
      </trkpt>
      <trkpt lat="40.543517" lon="-4.728067">
        <ele>1736.0</ele>
        <time>2016-06-11T15:09:48Z</time>
      </trkpt>
      <trkpt lat="40.543433" lon="-4.728083">
        <ele>1737.0</ele>
        <time>2016-06-11T15:09:49Z</time>
      </trkpt>
      <trkpt lat="40.543367" lon="-4.728133">
        <ele>1737.0</ele>
        <time>2016-06-11T15:09:50Z</time>
      </trkpt>
      <trkpt lat="40.543300" lon="-4.728183">
        <ele>1739.0</ele>
        <time>2016-06-11T15:09:51Z</time>
      </trkpt>
      <trkpt lat="40.543250" lon="-4.728233">
        <ele>1741.0</ele>
        <time>2016-06-11T15:09:52Z</time>
      </trkpt>
      <trkpt lat="40.543200" lon="-4.728267">
        <ele>1745.0</ele>
        <time>2016-06-11T15:09:53Z</time>
      </trkpt>
      <trkpt lat="40.543167" lon="-4.728283">
        <ele>1748.0</ele>
        <time>2016-06-11T15:09:54Z</time>
      </trkpt>
      <trkpt lat="40.543133" lon="-4.728300">
        <ele>1749.0</ele>
        <time>2016-06-11T15:09:55Z</time>
      </trkpt>
      <trkpt lat="40.543083" lon="-4.728333">
        <ele>1751.0</ele>
        <time>2016-06-11T15:09:56Z</time>
      </trkpt>
      <trkpt lat="40.543067" lon="-4.728367">
        <ele>1750.0</ele>
        <time>2016-06-11T15:09:57Z</time>
      </trkpt>
      <trkpt lat="40.543050" lon="-4.728417">
        <ele>1750.0</ele>
        <time>2016-06-11T15:09:58Z</time>
      </trkpt>
      <trkpt lat="40.543050" lon="-4.728467">
        <ele>1751.0</ele>
        <time>2016-06-11T15:09:59Z</time>
      </trkpt>
      <trkpt lat="40.543050" lon="-4.728483">
        <ele>1751.0</ele>
        <time>2016-06-11T15:10:00Z</time>
      </trkpt>
      <trkpt lat="40.543083" lon="-4.728500">
        <ele>1751.0</ele>
        <time>2016-06-11T15:10:01Z</time>
      </trkpt>
      <trkpt lat="40.543117" lon="-4.728500">
        <ele>1751.0</ele>
        <time>2016-06-11T15:10:02Z</time>
      </trkpt>
      <trkpt lat="40.543167" lon="-4.728467">
        <ele>1752.0</ele>
        <time>2016-06-11T15:10:03Z</time>
      </trkpt>
      <trkpt lat="40.543200" lon="-4.728433">
        <ele>1753.0</ele>
        <time>2016-06-11T15:10:04Z</time>
      </trkpt>
      <trkpt lat="40.543233" lon="-4.728383">
        <ele>1755.0</ele>
        <time>2016-06-11T15:10:05Z</time>
      </trkpt>
      <trkpt lat="40.543267" lon="-4.728317">
        <ele>1756.0</ele>
        <time>2016-06-11T15:10:06Z</time>
      </trkpt>
      <trkpt lat="40.543317" lon="-4.728250">
        <ele>1756.0</ele>
        <time>2016-06-11T15:10:07Z</time>
      </trkpt>
      <trkpt lat="40.543350" lon="-4.728183">
        <ele>1757.0</ele>
        <time>2016-06-11T15:10:08Z</time>
      </trkpt>
      <trkpt lat="40.543400" lon="-4.728117">
        <ele>1758.0</ele>
        <time>2016-06-11T15:10:09Z</time>
      </trkpt>
      <trkpt lat="40.543433" lon="-4.728017">
        <ele>1759.0</ele>
        <time>2016-06-11T15:10:10Z</time>
      </trkpt>
      <trkpt lat="40.543450" lon="-4.727917">
        <ele>1760.0</ele>
        <time>2016-06-11T15:10:11Z</time>
      </trkpt>
      <trkpt lat="40.543483" lon="-4.727800">
        <ele>1760.0</ele>
        <time>2016-06-11T15:10:12Z</time>
      </trkpt>
      <trkpt lat="40.543500" lon="-4.727667">
        <ele>1760.0</ele>
        <time>2016-06-11T15:10:13Z</time>
      </trkpt>
      <trkpt lat="40.543500" lon="-4.727533">
        <ele>1761.0</ele>
        <time>2016-06-11T15:10:14Z</time>
      </trkpt>
      <trkpt lat="40.543500" lon="-4.727383">
        <ele>1763.0</ele>
        <time>2016-06-11T15:10:15Z</time>
      </trkpt>
      <trkpt lat="40.543500" lon="-4.727233">
        <ele>1764.0</ele>
        <time>2016-06-11T15:10:16Z</time>
      </trkpt>
      <trkpt lat="40.543483" lon="-4.727100">
        <ele>1765.0</ele>
        <time>2016-06-11T15:10:17Z</time>
      </trkpt>
      <trkpt lat="40.543433" lon="-4.726950">
        <ele>1766.0</ele>
        <time>2016-06-11T15:10:18Z</time>
      </trkpt>
      <trkpt lat="40.543383" lon="-4.726817">
        <ele>1767.0</ele>
        <time>2016-06-11T15:10:19Z</time>
      </trkpt>
      <trkpt lat="40.543317" lon="-4.726683">
        <ele>1767.0</ele>
        <time>2016-06-11T15:10:20Z</time>
      </trkpt>
      <trkpt lat="40.543217" lon="-4.726550">
        <ele>1767.0</ele>
        <time>2016-06-11T15:10:21Z</time>
      </trkpt>
      <trkpt lat="40.543117" lon="-4.726433">
        <ele>1768.0</ele>
        <time>2016-06-11T15:10:22Z</time>
      </trkpt>
      <trkpt lat="40.543017" lon="-4.726350">
        <ele>1768.0</ele>
        <time>2016-06-11T15:10:23Z</time>
      </trkpt>
      <trkpt lat="40.542900" lon="-4.726267">
        <ele>1768.0</ele>
        <time>2016-06-11T15:10:24Z</time>
      </trkpt>
      <trkpt lat="40.542783" lon="-4.726233">
        <ele>1769.0</ele>
        <time>2016-06-11T15:10:25Z</time>
      </trkpt>
      <trkpt lat="40.542683" lon="-4.726217">
        <ele>1770.0</ele>
        <time>2016-06-11T15:10:26Z</time>
      </trkpt>
      <trkpt lat="40.542583" lon="-4.726233">
        <ele>1771.0</ele>
        <time>2016-06-11T15:10:27Z</time>
      </trkpt>
      <trkpt lat="40.542500" lon="-4.726250">
        <ele>1773.0</ele>
        <time>2016-06-11T15:10:28Z</time>
      </trkpt>
      <trkpt lat="40.542433" lon="-4.726283">
        <ele>1774.0</ele>
        <time>2016-06-11T15:10:29Z</time>
      </trkpt>
      <trkpt lat="40.542367" lon="-4.726333">
        <ele>1774.0</ele>
        <time>2016-06-11T15:10:30Z</time>
      </trkpt>
      <trkpt lat="40.542283" lon="-4.726383">
        <ele>1775.0</ele>
        <time>2016-06-11T15:10:31Z</time>
      </trkpt>
      <trkpt lat="40.542233" lon="-4.726433">
        <ele>1777.0</ele>
        <time>2016-06-11T15:10:32Z</time>
      </trkpt>
      <trkpt lat="40.542200" lon="-4.726467">
        <ele>1778.0</ele>
        <time>2016-06-11T15:10:33Z</time>
      </trkpt>
      <trkpt lat="40.542183" lon="-4.726517">
        <ele>1779.0</ele>
        <time>2016-06-11T15:10:34Z</time>
      </trkpt>
      <trkpt lat="40.542167" lon="-4.726567">
        <ele>1781.0</ele>
        <time>2016-06-11T15:10:35Z</time>
      </trkpt>
      <trkpt lat="40.542150" lon="-4.726600">
        <ele>1783.0</ele>
        <time>2016-06-11T15:10:36Z</time>
      </trkpt>
      <trkpt lat="40.542150" lon="-4.726650">
        <ele>1784.0</ele>
        <time>2016-06-11T15:10:37Z</time>
      </trkpt>
      <trkpt lat="40.542150" lon="-4.726667">
        <ele>1786.0</ele>
        <time>2016-06-11T15:10:38Z</time>
      </trkpt>
      <trkpt lat="40.542167" lon="-4.726683">
        <ele>1788.0</ele>
        <time>2016-06-11T15:10:39Z</time>
      </trkpt>
      <trkpt lat="40.542167" lon="-4.726683">
        <ele>1789.0</ele>
        <time>2016-06-11T15:10:40Z</time>
      </trkpt>
      <trkpt lat="40.542200" lon="-4.726683">
        <ele>1790.0</ele>
        <time>2016-06-11T15:10:41Z</time>
      </trkpt>
      <trkpt lat="40.542233" lon="-4.726683">
        <ele>1791.0</ele>
        <time>2016-06-11T15:10:42Z</time>
      </trkpt>
      <trkpt lat="40.542267" lon="-4.726667">
        <ele>1793.0</ele>
        <time>2016-06-11T15:10:43Z</time>
      </trkpt>
      <trkpt lat="40.542300" lon="-4.726633">
        <ele>1795.0</ele>
        <time>2016-06-11T15:10:44Z</time>
      </trkpt>
      <trkpt lat="40.542333" lon="-4.726600">
        <ele>1797.0</ele>
        <time>2016-06-11T15:10:45Z</time>
      </trkpt>
      <trkpt lat="40.542350" lon="-4.726533">
        <ele>1798.0</ele>
        <time>2016-06-11T15:10:46Z</time>
      </trkpt>
      <trkpt lat="40.542367" lon="-4.726483">
        <ele>1799.0</ele>
        <time>2016-06-11T15:10:47Z</time>
      </trkpt>
      <trkpt lat="40.542383" lon="-4.726400">
        <ele>1800.0</ele>
        <time>2016-06-11T15:10:48Z</time>
      </trkpt>
      <trkpt lat="40.542400" lon="-4.726300">
        <ele>1800.0</ele>
        <time>2016-06-11T15:10:49Z</time>
      </trkpt>
      <trkpt lat="40.542400" lon="-4.726167">
        <ele>1800.0</ele>
        <time>2016-06-11T15:10:50Z</time>
      </trkpt>
      <trkpt lat="40.542383" lon="-4.726033">
        <ele>1800.0</ele>
        <time>2016-06-11T15:10:51Z</time>
      </trkpt>
      <trkpt lat="40.542350" lon="-4.725883">
        <ele>1799.0</ele>
        <time>2016-06-11T15:10:52Z</time>
      </trkpt>
      <trkpt lat="40.542300" lon="-4.725750">
        <ele>1799.0</ele>
        <time>2016-06-11T15:10:53Z</time>
      </trkpt>
      <trkpt lat="40.542250" lon="-4.725600">
        <ele>1798.0</ele>
        <time>2016-06-11T15:10:54Z</time>
      </trkpt>
      <trkpt lat="40.542167" lon="-4.725483">
        <ele>1797.0</ele>
        <time>2016-06-11T15:10:55Z</time>
      </trkpt>
      <trkpt lat="40.542067" lon="-4.725350">
        <ele>1796.0</ele>
        <time>2016-06-11T15:10:56Z</time>
      </trkpt>
      <trkpt lat="40.541933" lon="-4.725217">
        <ele>1795.0</ele>
        <time>2016-06-11T15:10:57Z</time>
      </trkpt>
      <trkpt lat="40.541817" lon="-4.725083">
        <ele>1797.0</ele>
        <time>2016-06-11T15:10:58Z</time>
      </trkpt>
      <trkpt lat="40.541717" lon="-4.724983">
        <ele>1800.0</ele>
        <time>2016-06-11T15:10:59Z</time>
      </trkpt>
      <trkpt lat="40.541617" lon="-4.724900">
        <ele>1803.0</ele>
        <time>2016-06-11T15:11:00Z</time>
      </trkpt>
      <trkpt lat="40.541517" lon="-4.724817">
        <ele>1804.0</ele>
        <time>2016-06-11T15:11:01Z</time>
      </trkpt>
      <trkpt lat="40.541417" lon="-4.724733">
        <ele>1806.0</ele>
        <time>2016-06-11T15:11:02Z</time>
      </trkpt>
      <trkpt lat="40.541317" lon="-4.724633">
        <ele>1808.0</ele>
        <time>2016-06-11T15:11:03Z</time>
      </trkpt>
      <trkpt lat="40.541217" lon="-4.724550">
        <ele>1810.0</ele>
        <time>2016-06-11T15:11:04Z</time>
      </trkpt>
      <trkpt lat="40.541133" lon="-4.724483">
        <ele>1812.0</ele>
        <time>2016-06-11T15:11:05Z</time>
      </trkpt>
      <trkpt lat="40.541033" lon="-4.724400">
        <ele>1814.0</ele>
        <time>2016-06-11T15:11:06Z</time>
      </trkpt>
      <trkpt lat="40.540933" lon="-4.724333">
        <ele>1815.0</ele>
        <time>2016-06-11T15:11:07Z</time>
      </trkpt>
      <trkpt lat="40.540817" lon="-4.724300">
        <ele>1816.0</ele>
        <time>2016-06-11T15:11:08Z</time>
      </trkpt>
      <trkpt lat="40.540717" lon="-4.724300">
        <ele>1818.0</ele>
        <time>2016-06-11T15:11:09Z</time>
      </trkpt>
      <trkpt lat="40.540650" lon="-4.724333">
        <ele>1819.0</ele>
        <time>2016-06-11T15:11:10Z</time>
      </trkpt>
      <trkpt lat="40.540583" lon="-4.724367">
        <ele>1821.0</ele>
        <time>2016-06-11T15:11:11Z</time>
      </trkpt>
      <trkpt lat="40.540533" lon="-4.724400">
        <ele>1823.0</ele>
        <time>2016-06-11T15:11:12Z</time>
      </trkpt>
      <trkpt lat="40.540483" lon="-4.724433">
        <ele>1825.0</ele>
        <time>2016-06-11T15:11:13Z</time>
      </trkpt>
      <trkpt lat="40.540433" lon="-4.724450">
        <ele>1826.0</ele>
        <time>2016-06-11T15:11:14Z</time>
      </trkpt>
      <trkpt lat="40.540383" lon="-4.724483">
        <ele>1827.0</ele>
        <time>2016-06-11T15:11:15Z</time>
      </trkpt>
      <trkpt lat="40.540367" lon="-4.724500">
        <ele>1827.0</ele>
        <time>2016-06-11T15:11:16Z</time>
      </trkpt>
      <trkpt lat="40.540350" lon="-4.724517">
        <ele>1828.0</ele>
        <time>2016-06-11T15:11:17Z</time>
      </trkpt>
      <trkpt lat="40.540350" lon="-4.724533">
        <ele>1829.0</ele>
        <time>2016-06-11T15:11:18Z</time>
      </trkpt>
      <trkpt lat="40.540350" lon="-4.724533">
        <ele>1831.0</ele>
        <time>2016-06-11T15:11:19Z</time>
      </trkpt>
      <trkpt lat="40.540367" lon="-4.724517">
        <ele>1833.0</ele>
        <time>2016-06-11T15:11:20Z</time>
      </trkpt>
      <trkpt lat="40.540367" lon="-4.724500">
        <ele>1833.0</ele>
        <time>2016-06-11T15:11:21Z</time>
      </trkpt>
      <trkpt lat="40.540383" lon="-4.724500">
        <ele>1834.0</ele>
        <time>2016-06-11T15:11:22Z</time>
      </trkpt>
      <trkpt lat="40.540400" lon="-4.724500">
        <ele>1835.0</ele>
        <time>2016-06-11T15:11:23Z</time>
      </trkpt>
      <trkpt lat="40.540417" lon="-4.724500">
        <ele>1837.0</ele>
        <time>2016-06-11T15:11:24Z</time>
      </trkpt>
      <trkpt lat="40.540450" lon="-4.724483">
        <ele>1838.0</ele>
        <time>2016-06-11T15:11:25Z</time>
      </trkpt>
      <trkpt lat="40.540467" lon="-4.724433">
        <ele>1839.0</ele>
        <time>2016-06-11T15:11:26Z</time>
      </trkpt>
      <trkpt lat="40.540483" lon="-4.724400">
        <ele>1840.0</ele>
        <time>2016-06-11T15:11:27Z</time>
      </trkpt>
      <trkpt lat="40.540500" lon="-4.724350">
        <ele>1841.0</ele>
        <time>2016-06-11T15:11:28Z</time>
      </trkpt>
      <trkpt lat="40.540517" lon="-4.724283">
        <ele>1842.0</ele>
        <time>2016-06-11T15:11:29Z</time>
      </trkpt>
      <trkpt lat="40.540533" lon="-4.724217">
        <ele>1842.0</ele>
        <time>2016-06-11T15:11:30Z</time>
      </trkpt>
      <trkpt lat="40.540550" lon="-4.724150">
        <ele>1842.0</ele>
        <time>2016-06-11T15:11:31Z</time>
      </trkpt>
      <trkpt lat="40.540567" lon="-4.724050">
        <ele>1842.0</ele>
        <time>2016-06-11T15:11:32Z</time>
      </trkpt>
      <trkpt lat="40.540583" lon="-4.723967">
        <ele>1842.0</ele>
        <time>2016-06-11T15:11:33Z</time>
      </trkpt>
      <trkpt lat="40.540600" lon="-4.723850">
        <ele>1842.0</ele>
        <time>2016-06-11T15:11:34Z</time>
      </trkpt>
      <trkpt lat="40.540583" lon="-4.723717">
        <ele>1842.0</ele>
        <time>2016-06-11T15:11:35Z</time>
      </trkpt>
      <trkpt lat="40.540567" lon="-4.723567">
        <ele>1840.0</ele>
        <time>2016-06-11T15:11:36Z</time>
      </trkpt>
      <trkpt lat="40.540517" lon="-4.723400">
        <ele>1839.0</ele>
        <time>2016-06-11T15:11:37Z</time>
      </trkpt>
      <trkpt lat="40.540450" lon="-4.723217">
        <ele>1839.0</ele>
        <time>2016-06-11T15:11:38Z</time>
      </trkpt>
      <trkpt lat="40.540367" lon="-4.723067">
        <ele>1839.0</ele>
        <time>2016-06-11T15:11:39Z</time>
      </trkpt>
      <trkpt lat="40.540267" lon="-4.722900">
        <ele>1839.0</ele>
        <time>2016-06-11T15:11:40Z</time>
      </trkpt>
      <trkpt lat="40.540167" lon="-4.722767">
        <ele>1839.0</ele>
        <time>2016-06-11T15:11:41Z</time>
      </trkpt>
      <trkpt lat="40.540067" lon="-4.722633">
        <ele>1839.0</ele>
        <time>2016-06-11T15:11:42Z</time>
      </trkpt>
      <trkpt lat="40.539950" lon="-4.722500">
        <ele>1838.0</ele>
        <time>2016-06-11T15:11:43Z</time>
      </trkpt>
      <trkpt lat="40.539850" lon="-4.722350">
        <ele>1837.0</ele>
        <time>2016-06-11T15:11:44Z</time>
      </trkpt>
      <trkpt lat="40.539750" lon="-4.722217">
        <ele>1838.0</ele>
        <time>2016-06-11T15:11:45Z</time>
      </trkpt>
      <trkpt lat="40.539633" lon="-4.722100">
        <ele>1839.0</ele>
        <time>2016-06-11T15:11:46Z</time>
      </trkpt>
      <trkpt lat="40.539533" lon="-4.721983">
        <ele>1841.0</ele>
        <time>2016-06-11T15:11:47Z</time>
      </trkpt>
      <trkpt lat="40.539417" lon="-4.721883">
        <ele>1843.0</ele>
        <time>2016-06-11T15:11:48Z</time>
      </trkpt>
      <trkpt lat="40.539317" lon="-4.721783">
        <ele>1845.0</ele>
        <time>2016-06-11T15:11:49Z</time>
      </trkpt>
      <trkpt lat="40.539200" lon="-4.721700">
        <ele>1846.0</ele>
        <time>2016-06-11T15:11:50Z</time>
      </trkpt>
      <trkpt lat="40.539067" lon="-4.721633">
        <ele>1848.0</ele>
        <time>2016-06-11T15:11:51Z</time>
      </trkpt>
      <trkpt lat="40.538950" lon="-4.721600">
        <ele>1851.0</ele>
        <time>2016-06-11T15:11:52Z</time>
      </trkpt>
      <trkpt lat="40.538833" lon="-4.721567">
        <ele>1854.0</ele>
        <time>2016-06-11T15:11:53Z</time>
      </trkpt>
      <trkpt lat="40.538750" lon="-4.721517">
        <ele>1858.0</ele>
        <time>2016-06-11T15:11:54Z</time>
      </trkpt>
      <trkpt lat="40.538667" lon="-4.721467">
        <ele>1861.0</ele>
        <time>2016-06-11T15:11:55Z</time>
      </trkpt>
      <trkpt lat="40.538567" lon="-4.721400">
        <ele>1862.0</ele>
        <time>2016-06-11T15:11:56Z</time>
      </trkpt>
      <trkpt lat="40.538467" lon="-4.721367">
        <ele>1863.0</ele>
        <time>2016-06-11T15:11:57Z</time>
      </trkpt>
      <trkpt lat="40.538383" lon="-4.721367">
        <ele>1864.0</ele>
        <time>2016-06-11T15:11:58Z</time>
      </trkpt>
      <trkpt lat="40.538300" lon="-4.721383">
        <ele>1866.0</ele>
        <time>2016-06-11T15:11:59Z</time>
      </trkpt>
      <trkpt lat="40.538267" lon="-4.721417">
        <ele>1868.0</ele>
        <time>2016-06-11T15:12:00Z</time>
      </trkpt>
      <trkpt lat="40.538233" lon="-4.721433">
        <ele>1870.0</ele>
        <time>2016-06-11T15:12:01Z</time>
      </trkpt>
      <trkpt lat="40.538217" lon="-4.721450">
        <ele>1872.0</ele>
        <time>2016-06-11T15:12:02Z</time>
      </trkpt>
      <trkpt lat="40.538183" lon="-4.721467">
        <ele>1874.0</ele>
        <time>2016-06-11T15:12:03Z</time>
      </trkpt>
      <trkpt lat="40.538133" lon="-4.721483">
        <ele>1876.0</ele>
        <time>2016-06-11T15:12:04Z</time>
      </trkpt>
      <trkpt lat="40.538083" lon="-4.721500">
        <ele>1878.0</ele>
        <time>2016-06-11T15:12:05Z</time>
      </trkpt>
      <trkpt lat="40.538033" lon="-4.721517">
        <ele>1881.0</ele>
        <time>2016-06-11T15:12:06Z</time>
      </trkpt>
      <trkpt lat="40.538017" lon="-4.721517">
        <ele>1883.0</ele>
        <time>2016-06-11T15:12:07Z</time>
      </trkpt>
      <trkpt lat="40.538000" lon="-4.721533">
        <ele>1886.0</ele>
        <time>2016-06-11T15:12:08Z</time>
      </trkpt>
      <trkpt lat="40.537983" lon="-4.721533">
        <ele>1888.0</ele>
        <time>2016-06-11T15:12:09Z</time>
      </trkpt>
      <trkpt lat="40.537983" lon="-4.721533">
        <ele>1891.0</ele>
        <time>2016-06-11T15:12:10Z</time>
      </trkpt>
      <trkpt lat="40.537967" lon="-4.721533">
        <ele>1893.0</ele>
        <time>2016-06-11T15:12:11Z</time>
      </trkpt>
      <trkpt lat="40.537967" lon="-4.721517">
        <ele>1895.0</ele>
        <time>2016-06-11T15:12:12Z</time>
      </trkpt>
      <trkpt lat="40.537983" lon="-4.721517">
        <ele>1897.0</ele>
        <time>2016-06-11T15:12:13Z</time>
      </trkpt>
      <trkpt lat="40.538033" lon="-4.721517">
        <ele>1898.0</ele>
        <time>2016-06-11T15:12:14Z</time>
      </trkpt>
      <trkpt lat="40.538067" lon="-4.721517">
        <ele>1901.0</ele>
        <time>2016-06-11T15:12:15Z</time>
      </trkpt>
      <trkpt lat="40.538067" lon="-4.721517">
        <ele>1905.0</ele>
        <time>2016-06-11T15:12:16Z</time>
      </trkpt>
      <trkpt lat="40.538083" lon="-4.721483">
        <ele>1909.0</ele>
        <time>2016-06-11T15:12:17Z</time>
      </trkpt>
      <trkpt lat="40.538083" lon="-4.721450">
        <ele>1913.0</ele>
        <time>2016-06-11T15:12:18Z</time>
      </trkpt>
      <trkpt lat="40.538100" lon="-4.721400">
        <ele>1914.0</ele>
        <time>2016-06-11T15:12:19Z</time>
      </trkpt>
      <trkpt lat="40.538133" lon="-4.721333">
        <ele>1915.0</ele>
        <time>2016-06-11T15:12:20Z</time>
      </trkpt>
      <trkpt lat="40.538167" lon="-4.721267">
        <ele>1916.0</ele>
        <time>2016-06-11T15:12:21Z</time>
      </trkpt>
      <trkpt lat="40.538183" lon="-4.721183">
        <ele>1918.0</ele>
        <time>2016-06-11T15:12:22Z</time>
      </trkpt>
      <trkpt lat="40.538200" lon="-4.721083">
        <ele>1920.0</ele>
        <time>2016-06-11T15:12:23Z</time>
      </trkpt>
      <trkpt lat="40.538200" lon="-4.720983">
        <ele>1922.0</ele>
        <time>2016-06-11T15:12:24Z</time>
      </trkpt>
      <trkpt lat="40.538217" lon="-4.720883">
        <ele>1923.0</ele>
        <time>2016-06-11T15:12:25Z</time>
      </trkpt>
      <trkpt lat="40.538233" lon="-4.720783">
        <ele>1924.0</ele>
        <time>2016-06-11T15:12:26Z</time>
      </trkpt>
      <trkpt lat="40.538233" lon="-4.720667">
        <ele>1924.0</ele>
        <time>2016-06-11T15:12:27Z</time>
      </trkpt>
      <trkpt lat="40.538233" lon="-4.720517">
        <ele>1925.0</ele>
        <time>2016-06-11T15:12:28Z</time>
      </trkpt>
      <trkpt lat="40.538217" lon="-4.720383">
        <ele>1925.0</ele>
        <time>2016-06-11T15:12:29Z</time>
      </trkpt>
      <trkpt lat="40.538183" lon="-4.720233">
        <ele>1926.0</ele>
        <time>2016-06-11T15:12:30Z</time>
      </trkpt>
      <trkpt lat="40.538150" lon="-4.720083">
        <ele>1927.0</ele>
        <time>2016-06-11T15:12:31Z</time>
      </trkpt>
      <trkpt lat="40.538083" lon="-4.719933">
        <ele>1928.0</ele>
        <time>2016-06-11T15:12:32Z</time>
      </trkpt>
      <trkpt lat="40.538017" lon="-4.719783">
        <ele>1929.0</ele>
        <time>2016-06-11T15:12:33Z</time>
      </trkpt>
      <trkpt lat="40.537917" lon="-4.719633">
        <ele>1929.0</ele>
        <time>2016-06-11T15:12:34Z</time>
      </trkpt>
      <trkpt lat="40.537800" lon="-4.719500">
        <ele>1929.0</ele>
        <time>2016-06-11T15:12:35Z</time>
      </trkpt>
      <trkpt lat="40.537683" lon="-4.719383">
        <ele>1930.0</ele>
        <time>2016-06-11T15:12:36Z</time>
      </trkpt>
      <trkpt lat="40.537550" lon="-4.719300">
        <ele>1931.0</ele>
        <time>2016-06-11T15:12:37Z</time>
      </trkpt>
      <trkpt lat="40.537433" lon="-4.719217">
        <ele>1932.0</ele>
        <time>2016-06-11T15:12:38Z</time>
      </trkpt>
      <trkpt lat="40.537300" lon="-4.719150">
        <ele>1933.0</ele>
        <time>2016-06-11T15:12:39Z</time>
      </trkpt>
      <trkpt lat="40.537167" lon="-4.719117">
        <ele>1935.0</ele>
        <time>2016-06-11T15:12:40Z</time>
      </trkpt>
      <trkpt lat="40.537050" lon="-4.719067">
        <ele>1937.0</ele>
        <time>2016-06-11T15:12:41Z</time>
      </trkpt>
      <trkpt lat="40.536950" lon="-4.719050">
        <ele>1940.0</ele>
        <time>2016-06-11T15:12:42Z</time>
      </trkpt>
      <trkpt lat="40.536850" lon="-4.719033">
        <ele>1943.0</ele>
        <time>2016-06-11T15:12:43Z</time>
      </trkpt>
      <trkpt lat="40.536767" lon="-4.719033">
        <ele>1945.0</ele>
        <time>2016-06-11T15:12:44Z</time>
      </trkpt>
      <trkpt lat="40.536700" lon="-4.719050">
        <ele>1948.0</ele>
        <time>2016-06-11T15:12:45Z</time>
      </trkpt>
      <trkpt lat="40.536600" lon="-4.719033">
        <ele>1950.0</ele>
        <time>2016-06-11T15:12:46Z</time>
      </trkpt>
      <trkpt lat="40.536500" lon="-4.719000">
        <ele>1953.0</ele>
        <time>2016-06-11T15:12:47Z</time>
      </trkpt>
      <trkpt lat="40.536417" lon="-4.718967">
        <ele>1956.0</ele>
        <time>2016-06-11T15:12:48Z</time>
      </trkpt>
      <trkpt lat="40.536350" lon="-4.718950">
        <ele>1958.0</ele>
        <time>2016-06-11T15:12:49Z</time>
      </trkpt>
      <trkpt lat="40.536300" lon="-4.718967">
        <ele>1959.0</ele>
        <time>2016-06-11T15:12:50Z</time>
      </trkpt>
      <trkpt lat="40.536267" lon="-4.718967">
        <ele>1959.0</ele>
        <time>2016-06-11T15:12:51Z</time>
      </trkpt>
      <trkpt lat="40.536217" lon="-4.718967">
        <ele>1960.0</ele>
        <time>2016-06-11T15:12:52Z</time>
      </trkpt>
      <trkpt lat="40.536150" lon="-4.718967">
        <ele>1962.0</ele>
        <time>2016-06-11T15:12:53Z</time>
      </trkpt>
      <trkpt lat="40.536117" lon="-4.718967">
        <ele>1964.0</ele>
        <time>2016-06-11T15:12:54Z</time>
      </trkpt>
      <trkpt lat="40.536083" lon="-4.718967">
        <ele>1964.0</ele>
        <time>2016-06-11T15:12:55Z</time>
      </trkpt>
      <trkpt lat="40.536050" lon="-4.718983">
        <ele>1964.0</ele>
        <time>2016-06-11T15:12:56Z</time>
      </trkpt>
      <trkpt lat="40.536033" lon="-4.719000">
        <ele>1963.0</ele>
        <time>2016-06-11T15:12:57Z</time>
      </trkpt>
      <trkpt lat="40.536033" lon="-4.719017">
        <ele>1963.0</ele>
        <time>2016-06-11T15:12:58Z</time>
      </trkpt>
      <trkpt lat="40.536017" lon="-4.719017">
        <ele>1964.0</ele>
        <time>2016-06-11T15:12:59Z</time>
      </trkpt>
      <trkpt lat="40.536033" lon="-4.719000">
        <ele>1965.0</ele>
        <time>2016-06-11T15:13:00Z</time>
      </trkpt>
      <trkpt lat="40.536050" lon="-4.718983">
        <ele>1965.0</ele>
        <time>2016-06-11T15:13:01Z</time>
      </trkpt>
      <trkpt lat="40.536067" lon="-4.718983">
        <ele>1965.0</ele>
        <time>2016-06-11T15:13:02Z</time>
      </trkpt>
      <trkpt lat="40.536083" lon="-4.718950">
        <ele>1965.0</ele>
        <time>2016-06-11T15:13:03Z</time>
      </trkpt>
      <trkpt lat="40.536117" lon="-4.718933">
        <ele>1966.0</ele>
        <time>2016-06-11T15:13:04Z</time>
      </trkpt>
      <trkpt lat="40.536167" lon="-4.718883">
        <ele>1967.0</ele>
        <time>2016-06-11T15:13:05Z</time>
      </trkpt>
      <trkpt lat="40.536200" lon="-4.718833">
        <ele>1968.0</ele>
        <time>2016-06-11T15:13:06Z</time>
      </trkpt>
      <trkpt lat="40.536233" lon="-4.718800">
        <ele>1969.0</ele>
        <time>2016-06-11T15:13:07Z</time>
      </trkpt>
      <trkpt lat="40.536250" lon="-4.718767">
        <ele>1970.0</ele>
        <time>2016-06-11T15:13:08Z</time>
      </trkpt>
      <trkpt lat="40.536267" lon="-4.718717">
        <ele>1971.0</ele>
        <time>2016-06-11T15:13:09Z</time>
      </trkpt>
      <trkpt lat="40.536300" lon="-4.718650">
        <ele>1971.0</ele>
        <time>2016-06-11T15:13:10Z</time>
      </trkpt>
      <trkpt lat="40.536333" lon="-4.718550">
        <ele>1972.0</ele>
        <time>2016-06-11T15:13:11Z</time>
      </trkpt>
      <trkpt lat="40.536350" lon="-4.718467">
        <ele>1974.0</ele>
        <time>2016-06-11T15:13:12Z</time>
      </trkpt>
      <trkpt lat="40.536383" lon="-4.718383">
        <ele>1976.0</ele>
        <time>2016-06-11T15:13:13Z</time>
      </trkpt>
      <trkpt lat="40.536400" lon="-4.718317">
        <ele>1977.0</ele>
        <time>2016-06-11T15:13:14Z</time>
      </trkpt>
      <trkpt lat="40.536417" lon="-4.718250">
        <ele>1979.0</ele>
        <time>2016-06-11T15:13:15Z</time>
      </trkpt>
      <trkpt lat="40.536450" lon="-4.718167">
        <ele>1979.0</ele>
        <time>2016-06-11T15:13:16Z</time>
      </trkpt>
      <trkpt lat="40.536467" lon="-4.718083">
        <ele>1981.0</ele>
        <time>2016-06-11T15:13:17Z</time>
      </trkpt>
      <trkpt lat="40.536500" lon="-4.717983">
        <ele>1982.0</ele>
        <time>2016-06-11T15:13:18Z</time>
      </trkpt>
      <trkpt lat="40.536533" lon="-4.717900">
        <ele>1984.0</ele>
        <time>2016-06-11T15:13:19Z</time>
      </trkpt>
      <trkpt lat="40.536550" lon="-4.717800">
        <ele>1986.0</ele>
        <time>2016-06-11T15:13:20Z</time>
      </trkpt>
      <trkpt lat="40.536567" lon="-4.717700">
        <ele>1988.0</ele>
        <time>2016-06-11T15:13:21Z</time>
      </trkpt>
      <trkpt lat="40.536583" lon="-4.717600">
        <ele>1989.0</ele>
        <time>2016-06-11T15:13:22Z</time>
      </trkpt>
      <trkpt lat="40.536583" lon="-4.717467">
        <ele>1989.0</ele>
        <time>2016-06-11T15:13:23Z</time>
      </trkpt>
      <trkpt lat="40.536600" lon="-4.717317">
        <ele>1990.0</ele>
        <time>2016-06-11T15:13:24Z</time>
      </trkpt>
      <trkpt lat="40.536583" lon="-4.717150">
        <ele>1990.0</ele>
        <time>2016-06-11T15:13:25Z</time>
      </trkpt>
      <trkpt lat="40.536567" lon="-4.716983">
        <ele>1993.0</ele>
        <time>2016-06-11T15:13:26Z</time>
      </trkpt>
      <trkpt lat="40.536533" lon="-4.716800">
        <ele>1996.0</ele>
        <time>2016-06-11T15:13:27Z</time>
      </trkpt>
      <trkpt lat="40.536500" lon="-4.716633">
        <ele>1998.0</ele>
        <time>2016-06-11T15:13:28Z</time>
      </trkpt>
      <trkpt lat="40.536483" lon="-4.716483">
        <ele>2001.0</ele>
        <time>2016-06-11T15:13:29Z</time>
      </trkpt>
      <trkpt lat="40.536467" lon="-4.716333">
        <ele>2003.0</ele>
        <time>2016-06-11T15:13:30Z</time>
      </trkpt>
      <trkpt lat="40.536433" lon="-4.716183">
        <ele>2005.0</ele>
        <time>2016-06-11T15:13:31Z</time>
      </trkpt>
      <trkpt lat="40.536383" lon="-4.716050">
        <ele>2007.0</ele>
        <time>2016-06-11T15:13:32Z</time>
      </trkpt>
      <trkpt lat="40.536333" lon="-4.715900">
        <ele>2008.0</ele>
        <time>2016-06-11T15:13:33Z</time>
      </trkpt>
      <trkpt lat="40.536250" lon="-4.715767">
        <ele>2008.0</ele>
        <time>2016-06-11T15:13:34Z</time>
      </trkpt>
      <trkpt lat="40.536133" lon="-4.715633">
        <ele>2009.0</ele>
        <time>2016-06-11T15:13:35Z</time>
      </trkpt>
      <trkpt lat="40.536017" lon="-4.715517">
        <ele>2010.0</ele>
        <time>2016-06-11T15:13:36Z</time>
      </trkpt>
      <trkpt lat="40.535883" lon="-4.715417">
        <ele>2011.0</ele>
        <time>2016-06-11T15:13:37Z</time>
      </trkpt>
      <trkpt lat="40.535767" lon="-4.715350">
        <ele>2012.0</ele>
        <time>2016-06-11T15:13:38Z</time>
      </trkpt>
      <trkpt lat="40.535633" lon="-4.715300">
        <ele>2013.0</ele>
        <time>2016-06-11T15:13:39Z</time>
      </trkpt>
      <trkpt lat="40.535500" lon="-4.715267">
        <ele>2014.0</ele>
        <time>2016-06-11T15:13:40Z</time>
      </trkpt>
      <trkpt lat="40.535367" lon="-4.715233">
        <ele>2014.0</ele>
        <time>2016-06-11T15:13:41Z</time>
      </trkpt>
      <trkpt lat="40.535233" lon="-4.715200">
        <ele>2015.0</ele>
        <time>2016-06-11T15:13:42Z</time>
      </trkpt>
      <trkpt lat="40.535117" lon="-4.715167">
        <ele>2017.0</ele>
        <time>2016-06-11T15:13:43Z</time>
      </trkpt>
      <trkpt lat="40.535000" lon="-4.715133">
        <ele>2020.0</ele>
        <time>2016-06-11T15:13:44Z</time>
      </trkpt>
      <trkpt lat="40.534883" lon="-4.715100">
        <ele>2023.0</ele>
        <time>2016-06-11T15:13:45Z</time>
      </trkpt>
      <trkpt lat="40.534800" lon="-4.715067">
        <ele>2025.0</ele>
        <time>2016-06-11T15:13:46Z</time>
      </trkpt>
      <trkpt lat="40.534700" lon="-4.715067">
        <ele>2027.0</ele>
        <time>2016-06-11T15:13:47Z</time>
      </trkpt>
      <trkpt lat="40.534633" lon="-4.715083">
        <ele>2027.0</ele>
        <time>2016-06-11T15:13:48Z</time>
      </trkpt>
      <trkpt lat="40.534583" lon="-4.715117">
        <ele>2029.0</ele>
        <time>2016-06-11T15:13:49Z</time>
      </trkpt>
      <trkpt lat="40.534533" lon="-4.715150">
        <ele>2031.0</ele>
        <time>2016-06-11T15:13:50Z</time>
      </trkpt>
      <trkpt lat="40.534467" lon="-4.715167">
        <ele>2034.0</ele>
        <time>2016-06-11T15:13:51Z</time>
      </trkpt>
      <trkpt lat="40.534433" lon="-4.715183">
        <ele>2037.0</ele>
        <time>2016-06-11T15:13:52Z</time>
      </trkpt>
      <trkpt lat="40.534383" lon="-4.715200">
        <ele>2039.0</ele>
        <time>2016-06-11T15:13:53Z</time>
      </trkpt>
      <trkpt lat="40.534350" lon="-4.715233">
        <ele>2041.0</ele>
        <time>2016-06-11T15:13:54Z</time>
      </trkpt>
      <trkpt lat="40.534333" lon="-4.715250">
        <ele>2044.0</ele>
        <time>2016-06-11T15:13:55Z</time>
      </trkpt>
      <trkpt lat="40.534333" lon="-4.715283">
        <ele>2046.0</ele>
        <time>2016-06-11T15:13:56Z</time>
      </trkpt>
      <trkpt lat="40.534333" lon="-4.715300">
        <ele>2049.0</ele>
        <time>2016-06-11T15:13:57Z</time>
      </trkpt>
      <trkpt lat="40.534350" lon="-4.715317">
        <ele>2052.0</ele>
        <time>2016-06-11T15:13:58Z</time>
      </trkpt>
      <trkpt lat="40.534350" lon="-4.715300">
        <ele>2055.0</ele>
        <time>2016-06-11T15:13:59Z</time>
      </trkpt>
      <trkpt lat="40.534367" lon="-4.715300">
        <ele>2057.0</ele>
        <time>2016-06-11T15:14:00Z</time>
      </trkpt>
      <trkpt lat="40.534367" lon="-4.715300">
        <ele>2059.0</ele>
        <time>2016-06-11T15:14:01Z</time>
      </trkpt>
      <trkpt lat="40.534383" lon="-4.715283">
        <ele>2060.0</ele>
        <time>2016-06-11T15:14:02Z</time>
      </trkpt>
      <trkpt lat="40.534417" lon="-4.715267">
        <ele>2061.0</ele>
        <time>2016-06-11T15:14:03Z</time>
      </trkpt>
      <trkpt lat="40.534450" lon="-4.715250">
        <ele>2062.0</ele>
        <time>2016-06-11T15:14:04Z</time>
      </trkpt>
      <trkpt lat="40.534483" lon="-4.715217">
        <ele>2065.0</ele>
        <time>2016-06-11T15:14:05Z</time>
      </trkpt>
      <trkpt lat="40.534500" lon="-4.715167">
        <ele>2068.0</ele>
        <time>2016-06-11T15:14:06Z</time>
      </trkpt>
      <trkpt lat="40.534533" lon="-4.715117">
        <ele>2071.0</ele>
        <time>2016-06-11T15:14:07Z</time>
      </trkpt>
      <trkpt lat="40.534567" lon="-4.715067">
        <ele>2074.0</ele>
        <time>2016-06-11T15:14:08Z</time>
      </trkpt>
      <trkpt lat="40.534583" lon="-4.715017">
        <ele>2077.0</ele>
        <time>2016-06-11T15:14:09Z</time>
      </trkpt>
      <trkpt lat="40.534600" lon="-4.714967">
        <ele>2079.0</ele>
        <time>2016-06-11T15:14:10Z</time>
      </trkpt>
      <trkpt lat="40.534633" lon="-4.714900">
        <ele>2081.0</ele>
        <time>2016-06-11T15:14:11Z</time>
      </trkpt>
      <trkpt lat="40.534650" lon="-4.714817">
        <ele>2084.0</ele>
        <time>2016-06-11T15:14:12Z</time>
      </trkpt>
      <trkpt lat="40.534683" lon="-4.714717">
        <ele>2085.0</ele>
        <time>2016-06-11T15:14:13Z</time>
      </trkpt>
      <trkpt lat="40.534700" lon="-4.714617">
        <ele>2087.0</ele>
        <time>2016-06-11T15:14:14Z</time>
      </trkpt>
      <trkpt lat="40.534717" lon="-4.714483">
        <ele>2088.0</ele>
        <time>2016-06-11T15:14:15Z</time>
      </trkpt>
      <trkpt lat="40.534717" lon="-4.714350">
        <ele>2089.0</ele>
        <time>2016-06-11T15:14:16Z</time>
      </trkpt>
      <trkpt lat="40.534700" lon="-4.714167">
        <ele>2090.0</ele>
        <time>2016-06-11T15:14:17Z</time>
      </trkpt>
      <trkpt lat="40.534650" lon="-4.714000">
        <ele>2092.0</ele>
        <time>2016-06-11T15:14:18Z</time>
      </trkpt>
      <trkpt lat="40.534583" lon="-4.713833">
        <ele>2094.0</ele>
        <time>2016-06-11T15:14:19Z</time>
      </trkpt>
      <trkpt lat="40.534483" lon="-4.713717">
        <ele>2095.0</ele>
        <time>2016-06-11T15:14:20Z</time>
      </trkpt>
      <trkpt lat="40.534367" lon="-4.713617">
        <ele>2095.0</ele>
        <time>2016-06-11T15:14:21Z</time>
      </trkpt>
      <trkpt lat="40.534233" lon="-4.713550">
        <ele>2096.0</ele>
        <time>2016-06-11T15:14:22Z</time>
      </trkpt>
      <trkpt lat="40.534100" lon="-4.713500">
        <ele>2098.0</ele>
        <time>2016-06-11T15:14:23Z</time>
      </trkpt>
      <trkpt lat="40.533983" lon="-4.713433">
        <ele>2100.0</ele>
        <time>2016-06-11T15:14:24Z</time>
      </trkpt>
      <trkpt lat="40.533867" lon="-4.713400">
        <ele>2102.0</ele>
        <time>2016-06-11T15:14:25Z</time>
      </trkpt>
      <trkpt lat="40.533750" lon="-4.713367">
        <ele>2104.0</ele>
        <time>2016-06-11T15:14:26Z</time>
      </trkpt>
      <trkpt lat="40.533633" lon="-4.713350">
        <ele>2105.0</ele>
        <time>2016-06-11T15:14:27Z</time>
      </trkpt>
      <trkpt lat="40.533517" lon="-4.713350">
        <ele>2107.0</ele>
        <time>2016-06-11T15:14:28Z</time>
      </trkpt>
      <trkpt lat="40.533417" lon="-4.713367">
        <ele>2110.0</ele>
        <time>2016-06-11T15:14:29Z</time>
      </trkpt>
      <trkpt lat="40.533317" lon="-4.713383">
        <ele>2113.0</ele>
        <time>2016-06-11T15:14:30Z</time>
      </trkpt>
      <trkpt lat="40.533233" lon="-4.713400">
        <ele>2115.0</ele>
        <time>2016-06-11T15:14:31Z</time>
      </trkpt>
      <trkpt lat="40.533150" lon="-4.713417">
        <ele>2117.0</ele>
        <time>2016-06-11T15:14:32Z</time>
      </trkpt>
      <trkpt lat="40.533067" lon="-4.713433">
        <ele>2119.0</ele>
        <time>2016-06-11T15:14:33Z</time>
      </trkpt>
      <trkpt lat="40.532983" lon="-4.713450">
        <ele>2121.0</ele>
        <time>2016-06-11T15:14:34Z</time>
      </trkpt>
      <trkpt lat="40.532900" lon="-4.713467">
        <ele>2122.0</ele>
        <time>2016-06-11T15:14:35Z</time>
      </trkpt>
      <trkpt lat="40.532817" lon="-4.713483">
        <ele>2124.0</ele>
        <time>2016-06-11T15:14:36Z</time>
      </trkpt>
      <trkpt lat="40.532750" lon="-4.713500">
        <ele>2125.0</ele>
        <time>2016-06-11T15:14:37Z</time>
      </trkpt>
      <trkpt lat="40.532700" lon="-4.713517">
        <ele>2126.0</ele>
        <time>2016-06-11T15:14:38Z</time>
      </trkpt>
      <trkpt lat="40.532667" lon="-4.713550">
        <ele>2128.0</ele>
        <time>2016-06-11T15:14:39Z</time>
      </trkpt>
      <trkpt lat="40.532633" lon="-4.713550">
        <ele>2129.0</ele>
        <time>2016-06-11T15:14:40Z</time>
      </trkpt>
      <trkpt lat="40.532633" lon="-4.713567">
        <ele>2130.0</ele>
        <time>2016-06-11T15:14:41Z</time>
      </trkpt>
      <trkpt lat="40.532633" lon="-4.713550">
        <ele>2130.0</ele>
        <time>2016-06-11T15:14:42Z</time>
      </trkpt>
      <trkpt lat="40.532650" lon="-4.713550">
        <ele>2130.0</ele>
        <time>2016-06-11T15:14:43Z</time>
      </trkpt>
      <trkpt lat="40.532667" lon="-4.713550">
        <ele>2131.0</ele>
        <time>2016-06-11T15:14:44Z</time>
      </trkpt>
      <trkpt lat="40.532683" lon="-4.713517">
        <ele>2132.0</ele>
        <time>2016-06-11T15:14:45Z</time>
      </trkpt>
      <trkpt lat="40.532700" lon="-4.713483">
        <ele>2133.0</ele>
        <time>2016-06-11T15:14:46Z</time>
      </trkpt>
      <trkpt lat="40.532733" lon="-4.713450">
        <ele>2133.0</ele>
        <time>2016-06-11T15:14:47Z</time>
      </trkpt>
      <trkpt lat="40.532783" lon="-4.713400">
        <ele>2133.0</ele>
        <time>2016-06-11T15:14:48Z</time>
      </trkpt>
      <trkpt lat="40.532817" lon="-4.713333">
        <ele>2134.0</ele>
        <time>2016-06-11T15:14:49Z</time>
      </trkpt>
      <trkpt lat="40.532850" lon="-4.713233">
        <ele>2134.0</ele>
        <time>2016-06-11T15:14:50Z</time>
      </trkpt>
      <trkpt lat="40.532883" lon="-4.713133">
        <ele>2135.0</ele>
        <time>2016-06-11T15:14:51Z</time>
      </trkpt>
      <trkpt lat="40.532883" lon="-4.713033">
        <ele>2136.0</ele>
        <time>2016-06-11T15:14:52Z</time>
      </trkpt>
      <trkpt lat="40.532900" lon="-4.712917">
        <ele>2136.0</ele>
        <time>2016-06-11T15:14:53Z</time>
      </trkpt>
      <trkpt lat="40.532900" lon="-4.712783">
        <ele>2136.0</ele>
        <time>2016-06-11T15:14:54Z</time>
      </trkpt>
      <trkpt lat="40.532900" lon="-4.712633">
        <ele>2135.0</ele>
        <time>2016-06-11T15:14:55Z</time>
      </trkpt>
      <trkpt lat="40.532900" lon="-4.712483">
        <ele>2136.0</ele>
        <time>2016-06-11T15:14:56Z</time>
      </trkpt>
      <trkpt lat="40.532883" lon="-4.712317">
        <ele>2137.0</ele>
        <time>2016-06-11T15:14:57Z</time>
      </trkpt>
      <trkpt lat="40.532867" lon="-4.712150">
        <ele>2139.0</ele>
        <time>2016-06-11T15:14:58Z</time>
      </trkpt>
      <trkpt lat="40.532817" lon="-4.712000">
        <ele>2141.0</ele>
        <time>2016-06-11T15:14:59Z</time>
      </trkpt>
      <trkpt lat="40.532767" lon="-4.711833">
        <ele>2142.0</ele>
        <time>2016-06-11T15:15:00Z</time>
      </trkpt>
      <trkpt lat="40.532717" lon="-4.711667">
        <ele>2144.0</ele>
        <time>2016-06-11T15:15:01Z</time>
      </trkpt>
      <trkpt lat="40.532650" lon="-4.711517">
        <ele>2146.0</ele>
        <time>2016-06-11T15:15:02Z</time>
      </trkpt>
      <trkpt lat="40.532583" lon="-4.711383">
        <ele>2149.0</ele>
        <time>2016-06-11T15:15:03Z</time>
      </trkpt>
      <trkpt lat="40.532500" lon="-4.711250">
        <ele>2150.0</ele>
        <time>2016-06-11T15:15:04Z</time>
      </trkpt>
      <trkpt lat="40.532417" lon="-4.711117">
        <ele>2150.0</ele>
        <time>2016-06-11T15:15:05Z</time>
      </trkpt>
      <trkpt lat="40.532317" lon="-4.710983">
        <ele>2150.0</ele>
        <time>2016-06-11T15:15:06Z</time>
      </trkpt>
      <trkpt lat="40.532217" lon="-4.710850">
        <ele>2150.0</ele>
        <time>2016-06-11T15:15:07Z</time>
      </trkpt>
      <trkpt lat="40.532117" lon="-4.710717">
        <ele>2151.0</ele>
        <time>2016-06-11T15:15:08Z</time>
      </trkpt>
      <trkpt lat="40.532000" lon="-4.710617">
        <ele>2152.0</ele>
        <time>2016-06-11T15:15:09Z</time>
      </trkpt>
      <trkpt lat="40.531883" lon="-4.710533">
        <ele>2152.0</ele>
        <time>2016-06-11T15:15:10Z</time>
      </trkpt>
      <trkpt lat="40.531750" lon="-4.710450">
        <ele>2151.0</ele>
        <time>2016-06-11T15:15:11Z</time>
      </trkpt>
      <trkpt lat="40.531600" lon="-4.710367">
        <ele>2152.0</ele>
        <time>2016-06-11T15:15:12Z</time>
      </trkpt>
      <trkpt lat="40.531467" lon="-4.710317">
        <ele>2152.0</ele>
        <time>2016-06-11T15:15:13Z</time>
      </trkpt>
      <trkpt lat="40.531333" lon="-4.710283">
        <ele>2154.0</ele>
        <time>2016-06-11T15:15:14Z</time>
      </trkpt>
      <trkpt lat="40.531217" lon="-4.710283">
        <ele>2155.0</ele>
        <time>2016-06-11T15:15:15Z</time>
      </trkpt>
      <trkpt lat="40.531083" lon="-4.710300">
        <ele>2157.0</ele>
        <time>2016-06-11T15:15:16Z</time>
      </trkpt>
      <trkpt lat="40.530983" lon="-4.710300">
        <ele>2160.0</ele>
        <time>2016-06-11T15:15:17Z</time>
      </trkpt>
      <trkpt lat="40.530883" lon="-4.710283">
        <ele>2161.0</ele>
        <time>2016-06-11T15:15:18Z</time>
      </trkpt>
      <trkpt lat="40.530783" lon="-4.710283">
        <ele>2163.0</ele>
        <time>2016-06-11T15:15:19Z</time>
      </trkpt>
      <trkpt lat="40.530700" lon="-4.710283">
        <ele>2164.0</ele>
        <time>2016-06-11T15:15:20Z</time>
      </trkpt>
      <trkpt lat="40.530633" lon="-4.710300">
        <ele>2164.0</ele>
        <time>2016-06-11T15:15:21Z</time>
      </trkpt>
      <trkpt lat="40.530583" lon="-4.710333">
        <ele>2163.0</ele>
        <time>2016-06-11T15:15:22Z</time>
      </trkpt>
      <trkpt lat="40.530533" lon="-4.710383">
        <ele>2163.0</ele>
        <time>2016-06-11T15:15:23Z</time>
      </trkpt>
      <trkpt lat="40.530500" lon="-4.710417">
        <ele>2164.0</ele>
        <time>2016-06-11T15:15:24Z</time>
      </trkpt>
      <trkpt lat="40.530467" lon="-4.710433">
        <ele>2164.0</ele>
        <time>2016-06-11T15:15:25Z</time>
      </trkpt>
      <trkpt lat="40.530450" lon="-4.710467">
        <ele>2164.0</ele>
        <time>2016-06-11T15:15:26Z</time>
      </trkpt>
      <trkpt lat="40.530433" lon="-4.710483">
        <ele>2164.0</ele>
        <time>2016-06-11T15:15:27Z</time>
      </trkpt>
      <trkpt lat="40.530417" lon="-4.710500">
        <ele>2163.0</ele>
        <time>2016-06-11T15:15:28Z</time>
      </trkpt>
      <trkpt lat="40.530417" lon="-4.710533">
        <ele>2162.0</ele>
        <time>2016-06-11T15:15:29Z</time>
      </trkpt>
      <trkpt lat="40.530433" lon="-4.710567">
        <ele>2161.0</ele>
        <time>2016-06-11T15:15:30Z</time>
      </trkpt>
      <trkpt lat="40.530433" lon="-4.710583">
        <ele>2160.0</ele>
        <time>2016-06-11T15:15:31Z</time>
      </trkpt>
      <trkpt lat="40.530467" lon="-4.710600">
        <ele>2159.0</ele>
        <time>2016-06-11T15:15:32Z</time>
      </trkpt>
      <trkpt lat="40.530500" lon="-4.710600">
        <ele>2158.0</ele>
        <time>2016-06-11T15:15:33Z</time>
      </trkpt>
      <trkpt lat="40.530533" lon="-4.710600">
        <ele>2158.0</ele>
        <time>2016-06-11T15:15:34Z</time>
      </trkpt>
      <trkpt lat="40.530583" lon="-4.710583">
        <ele>2158.0</ele>
        <time>2016-06-11T15:15:35Z</time>
      </trkpt>
      <trkpt lat="40.530633" lon="-4.710567">
        <ele>2159.0</ele>
        <time>2016-06-11T15:15:36Z</time>
      </trkpt>
      <trkpt lat="40.530683" lon="-4.710533">
        <ele>2159.0</ele>
        <time>2016-06-11T15:15:37Z</time>
      </trkpt>
      <trkpt lat="40.530750" lon="-4.710500">
        <ele>2160.0</ele>
        <time>2016-06-11T15:15:38Z</time>
      </trkpt>
      <trkpt lat="40.530800" lon="-4.710467">
        <ele>2160.0</ele>
        <time>2016-06-11T15:15:39Z</time>
      </trkpt>
      <trkpt lat="40.530867" lon="-4.710433">
        <ele>2161.0</ele>
        <time>2016-06-11T15:15:40Z</time>
      </trkpt>
      <trkpt lat="40.530917" lon="-4.710400">
        <ele>2162.0</ele>
        <time>2016-06-11T15:15:41Z</time>
      </trkpt>
      <trkpt lat="40.530967" lon="-4.710333">
        <ele>2163.0</ele>
        <time>2016-06-11T15:15:42Z</time>
      </trkpt>
      <trkpt lat="40.531017" lon="-4.710283">
        <ele>2163.0</ele>
        <time>2016-06-11T15:15:43Z</time>
      </trkpt>
      <trkpt lat="40.531067" lon="-4.710217">
        <ele>2162.0</ele>
        <time>2016-06-11T15:15:44Z</time>
      </trkpt>
      <trkpt lat="40.531133" lon="-4.710150">
        <ele>2162.0</ele>
        <time>2016-06-11T15:15:45Z</time>
      </trkpt>
      <trkpt lat="40.531200" lon="-4.710083">
        <ele>2162.0</ele>
        <time>2016-06-11T15:15:46Z</time>
      </trkpt>
      <trkpt lat="40.531250" lon="-4.710033">
        <ele>2163.0</ele>
        <time>2016-06-11T15:15:47Z</time>
      </trkpt>
      <trkpt lat="40.531283" lon="-4.709967">
        <ele>2163.0</ele>
        <time>2016-06-11T15:15:48Z</time>
      </trkpt>
      <trkpt lat="40.531333" lon="-4.709883">
        <ele>2163.0</ele>
        <time>2016-06-11T15:15:49Z</time>
      </trkpt>
      <trkpt lat="40.531383" lon="-4.709800">
        <ele>2162.0</ele>
        <time>2016-06-11T15:15:50Z</time>
      </trkpt>
      <trkpt lat="40.531450" lon="-4.709683">
        <ele>2161.0</ele>
        <time>2016-06-11T15:15:51Z</time>
      </trkpt>
      <trkpt lat="40.531500" lon="-4.709583">
        <ele>2162.0</ele>
        <time>2016-06-11T15:15:52Z</time>
      </trkpt>
      <trkpt lat="40.531567" lon="-4.709467">
        <ele>2163.0</ele>
        <time>2016-06-11T15:15:53Z</time>
      </trkpt>
      <trkpt lat="40.531617" lon="-4.709350">
        <ele>2165.0</ele>
        <time>2016-06-11T15:15:54Z</time>
      </trkpt>
      <trkpt lat="40.531650" lon="-4.709233">
        <ele>2167.0</ele>
        <time>2016-06-11T15:15:55Z</time>
      </trkpt>
      <trkpt lat="40.531700" lon="-4.709117">
        <ele>2168.0</ele>
        <time>2016-06-11T15:15:56Z</time>
      </trkpt>
      <trkpt lat="40.531750" lon="-4.709000">
        <ele>2169.0</ele>
        <time>2016-06-11T15:15:57Z</time>
      </trkpt>
      <trkpt lat="40.531800" lon="-4.708900">
        <ele>2170.0</ele>
        <time>2016-06-11T15:15:58Z</time>
      </trkpt>
      <trkpt lat="40.531867" lon="-4.708817">
        <ele>2171.0</ele>
        <time>2016-06-11T15:15:59Z</time>
      </trkpt>
      <trkpt lat="40.531933" lon="-4.708733">
        <ele>2174.0</ele>
        <time>2016-06-11T15:16:00Z</time>
      </trkpt>
      <trkpt lat="40.532000" lon="-4.708650">
        <ele>2178.0</ele>
        <time>2016-06-11T15:16:01Z</time>
      </trkpt>
      <trkpt lat="40.532033" lon="-4.708550">
        <ele>2181.0</ele>
        <time>2016-06-11T15:16:02Z</time>
      </trkpt>
      <trkpt lat="40.532083" lon="-4.708483">
        <ele>2184.0</ele>
        <time>2016-06-11T15:16:03Z</time>
      </trkpt>
      <trkpt lat="40.532133" lon="-4.708400">
        <ele>2187.0</ele>
        <time>2016-06-11T15:16:04Z</time>
      </trkpt>
      <trkpt lat="40.532200" lon="-4.708317">
        <ele>2190.0</ele>
        <time>2016-06-11T15:16:05Z</time>
      </trkpt>
      <trkpt lat="40.532233" lon="-4.708233">
        <ele>2192.0</ele>
        <time>2016-06-11T15:16:06Z</time>
      </trkpt>
      <trkpt lat="40.532267" lon="-4.708117">
        <ele>2196.0</ele>
        <time>2016-06-11T15:16:07Z</time>
      </trkpt>
      <trkpt lat="40.532283" lon="-4.708017">
        <ele>2198.0</ele>
        <time>2016-06-11T15:16:08Z</time>
      </trkpt>
      <trkpt lat="40.532300" lon="-4.707867">
        <ele>2200.0</ele>
        <time>2016-06-11T15:16:09Z</time>
      </trkpt>
      <trkpt lat="40.532300" lon="-4.707700">
        <ele>2201.0</ele>
        <time>2016-06-11T15:16:10Z</time>
      </trkpt>
      <trkpt lat="40.532283" lon="-4.707533">
        <ele>2204.0</ele>
        <time>2016-06-11T15:16:11Z</time>
      </trkpt>
      <trkpt lat="40.532250" lon="-4.707367">
        <ele>2208.0</ele>
        <time>2016-06-11T15:16:12Z</time>
      </trkpt>
      <trkpt lat="40.532183" lon="-4.707233">
        <ele>2211.0</ele>
        <time>2016-06-11T15:16:13Z</time>
      </trkpt>
      <trkpt lat="40.532117" lon="-4.707100">
        <ele>2212.0</ele>
        <time>2016-06-11T15:16:14Z</time>
      </trkpt>
      <trkpt lat="40.532033" lon="-4.706950">
        <ele>2212.0</ele>
        <time>2016-06-11T15:16:15Z</time>
      </trkpt>
      <trkpt lat="40.531933" lon="-4.706817">
        <ele>2212.0</ele>
        <time>2016-06-11T15:16:16Z</time>
      </trkpt>
      <trkpt lat="40.531817" lon="-4.706717">
        <ele>2213.0</ele>
        <time>2016-06-11T15:16:17Z</time>
      </trkpt>
      <trkpt lat="40.531700" lon="-4.706683">
        <ele>2214.0</ele>
        <time>2016-06-11T15:16:18Z</time>
      </trkpt>
      <trkpt lat="40.531583" lon="-4.706700">
        <ele>2215.0</ele>
        <time>2016-06-11T15:16:19Z</time>
      </trkpt>
      <trkpt lat="40.531517" lon="-4.706733">
        <ele>2218.0</ele>
        <time>2016-06-11T15:16:20Z</time>
      </trkpt>
      <trkpt lat="40.531467" lon="-4.706733">
        <ele>2223.0</ele>
        <time>2016-06-11T15:16:21Z</time>
      </trkpt>
      <trkpt lat="40.531417" lon="-4.706733">
        <ele>2226.0</ele>
        <time>2016-06-11T15:16:22Z</time>
      </trkpt>
      <trkpt lat="40.531367" lon="-4.706733">
        <ele>2228.0</ele>
        <time>2016-06-11T15:16:23Z</time>
      </trkpt>
      <trkpt lat="40.531317" lon="-4.706750">
        <ele>2230.0</ele>
        <time>2016-06-11T15:16:24Z</time>
      </trkpt>
      <trkpt lat="40.531283" lon="-4.706800">
        <ele>2231.0</ele>
        <time>2016-06-11T15:16:25Z</time>
      </trkpt>
      <trkpt lat="40.531283" lon="-4.706833">
        <ele>2234.0</ele>
        <time>2016-06-11T15:16:26Z</time>
      </trkpt>
      <trkpt lat="40.531300" lon="-4.706833">
        <ele>2238.0</ele>
        <time>2016-06-11T15:16:27Z</time>
      </trkpt>
      <trkpt lat="40.531300" lon="-4.706817">
        <ele>2241.0</ele>
        <time>2016-06-11T15:16:28Z</time>
      </trkpt>
      <trkpt lat="40.531300" lon="-4.706800">
        <ele>2242.0</ele>
        <time>2016-06-11T15:16:29Z</time>
      </trkpt>
      <trkpt lat="40.531300" lon="-4.706800">
        <ele>2242.0</ele>
        <time>2016-06-11T15:16:30Z</time>
      </trkpt>
      <trkpt lat="40.531300" lon="-4.706800">
        <ele>2243.0</ele>
        <time>2016-06-11T15:16:31Z</time>
      </trkpt>
      <trkpt lat="40.531333" lon="-4.706783">
        <ele>2244.0</ele>
        <time>2016-06-11T15:16:32Z</time>
      </trkpt>
      <trkpt lat="40.531367" lon="-4.706750">
        <ele>2244.0</ele>
        <time>2016-06-11T15:16:33Z</time>
      </trkpt>
      <trkpt lat="40.531417" lon="-4.706717">
        <ele>2245.0</ele>
        <time>2016-06-11T15:16:34Z</time>
      </trkpt>
      <trkpt lat="40.531467" lon="-4.706717">
        <ele>2247.0</ele>
        <time>2016-06-11T15:16:35Z</time>
      </trkpt>
      <trkpt lat="40.531500" lon="-4.706717">
        <ele>2249.0</ele>
        <time>2016-06-11T15:16:36Z</time>
      </trkpt>
      <trkpt lat="40.531550" lon="-4.706717">
        <ele>2253.0</ele>
        <time>2016-06-11T15:16:37Z</time>
      </trkpt>
      <trkpt lat="40.531583" lon="-4.706683">
        <ele>2255.0</ele>
        <time>2016-06-11T15:16:38Z</time>
      </trkpt>
      <trkpt lat="40.531617" lon="-4.706633">
        <ele>2257.0</ele>
        <time>2016-06-11T15:16:39Z</time>
      </trkpt>
      <trkpt lat="40.531667" lon="-4.706567">
        <ele>2258.0</ele>
        <time>2016-06-11T15:16:40Z</time>
      </trkpt>
      <trkpt lat="40.531700" lon="-4.706500">
        <ele>2259.0</ele>
        <time>2016-06-11T15:16:41Z</time>
      </trkpt>
      <trkpt lat="40.531750" lon="-4.706450">
        <ele>2259.0</ele>
        <time>2016-06-11T15:16:42Z</time>
      </trkpt>
      <trkpt lat="40.531800" lon="-4.706383">
        <ele>2260.0</ele>
        <time>2016-06-11T15:16:43Z</time>
      </trkpt>
      <trkpt lat="40.531850" lon="-4.706283">
        <ele>2261.0</ele>
        <time>2016-06-11T15:16:44Z</time>
      </trkpt>
      <trkpt lat="40.531900" lon="-4.706183">
        <ele>2264.0</ele>
        <time>2016-06-11T15:16:45Z</time>
      </trkpt>
      <trkpt lat="40.531950" lon="-4.706100">
        <ele>2267.0</ele>
        <time>2016-06-11T15:16:46Z</time>
      </trkpt>
      <trkpt lat="40.531983" lon="-4.706033">
        <ele>2271.0</ele>
        <time>2016-06-11T15:16:47Z</time>
      </trkpt>
      <trkpt lat="40.532033" lon="-4.705983">
        <ele>2273.0</ele>
        <time>2016-06-11T15:16:48Z</time>
      </trkpt>
      <trkpt lat="40.532067" lon="-4.705900">
        <ele>2276.0</ele>
        <time>2016-06-11T15:16:49Z</time>
      </trkpt>
      <trkpt lat="40.532100" lon="-4.705800">
        <ele>2280.0</ele>
        <time>2016-06-11T15:16:50Z</time>
      </trkpt>
      <trkpt lat="40.532117" lon="-4.705700">
        <ele>2283.0</ele>
        <time>2016-06-11T15:16:51Z</time>
      </trkpt>
      <trkpt lat="40.532133" lon="-4.705617">
        <ele>2287.0</ele>
        <time>2016-06-11T15:16:52Z</time>
      </trkpt>
      <trkpt lat="40.532167" lon="-4.705533">
        <ele>2290.0</ele>
        <time>2016-06-11T15:16:53Z</time>
      </trkpt>
      <trkpt lat="40.532200" lon="-4.705450">
        <ele>2292.0</ele>
        <time>2016-06-11T15:16:54Z</time>
      </trkpt>
      <trkpt lat="40.532233" lon="-4.705333">
        <ele>2295.0</ele>
        <time>2016-06-11T15:16:55Z</time>
      </trkpt>
      <trkpt lat="40.532250" lon="-4.705200">
        <ele>2297.0</ele>
        <time>2016-06-11T15:16:56Z</time>
      </trkpt>
      <trkpt lat="40.532250" lon="-4.705033">
        <ele>2298.0</ele>
        <time>2016-06-11T15:16:57Z</time>
      </trkpt>
      <trkpt lat="40.532250" lon="-4.704867">
        <ele>2299.0</ele>
        <time>2016-06-11T15:16:58Z</time>
      </trkpt>
      <trkpt lat="40.532233" lon="-4.704667">
        <ele>2299.0</ele>
        <time>2016-06-11T15:16:59Z</time>
      </trkpt>
      <trkpt lat="40.532200" lon="-4.704450">
        <ele>2300.0</ele>
        <time>2016-06-11T15:17:00Z</time>
      </trkpt>
      <trkpt lat="40.532117" lon="-4.704250">
        <ele>2302.0</ele>
        <time>2016-06-11T15:17:01Z</time>
      </trkpt>
      <trkpt lat="40.532000" lon="-4.704100">
        <ele>2306.0</ele>
        <time>2016-06-11T15:17:02Z</time>
      </trkpt>
      <trkpt lat="40.531883" lon="-4.703983">
        <ele>2311.0</ele>
        <time>2016-06-11T15:17:03Z</time>
      </trkpt>
      <trkpt lat="40.531767" lon="-4.703917">
        <ele>2315.0</ele>
        <time>2016-06-11T15:17:04Z</time>
      </trkpt>
      <trkpt lat="40.531667" lon="-4.703867">
        <ele>2319.0</ele>
        <time>2016-06-11T15:17:05Z</time>
      </trkpt>
      <trkpt lat="40.531583" lon="-4.703833">
        <ele>2322.0</ele>
        <time>2016-06-11T15:17:06Z</time>
      </trkpt>
      <trkpt lat="40.531500" lon="-4.703817">
        <ele>2325.0</ele>
        <time>2016-06-11T15:17:07Z</time>
      </trkpt>
      <trkpt lat="40.531450" lon="-4.703817">
        <ele>2328.0</ele>
        <time>2016-06-11T15:17:08Z</time>
      </trkpt>
      <trkpt lat="40.531433" lon="-4.703833">
        <ele>2331.0</ele>
        <time>2016-06-11T15:17:09Z</time>
      </trkpt>
      <trkpt lat="40.531450" lon="-4.703833">
        <ele>2334.0</ele>
        <time>2016-06-11T15:17:10Z</time>
      </trkpt>
      <trkpt lat="40.531483" lon="-4.703800">
        <ele>2337.0</ele>
        <time>2016-06-11T15:17:11Z</time>
      </trkpt>
      <trkpt lat="40.531533" lon="-4.703733">
        <ele>2340.0</ele>
        <time>2016-06-11T15:17:12Z</time>
      </trkpt>
      <trkpt lat="40.531567" lon="-4.703617">
        <ele>2343.0</ele>
        <time>2016-06-11T15:17:13Z</time>
      </trkpt>
      <trkpt lat="40.531583" lon="-4.703483">
        <ele>2345.0</ele>
        <time>2016-06-11T15:17:14Z</time>
      </trkpt>
      <trkpt lat="40.531600" lon="-4.703317">
        <ele>2346.0</ele>
        <time>2016-06-11T15:17:15Z</time>
      </trkpt>
      <trkpt lat="40.531583" lon="-4.703133">
        <ele>2346.0</ele>
        <time>2016-06-11T15:17:16Z</time>
      </trkpt>
      <trkpt lat="40.531567" lon="-4.702933">
        <ele>2346.0</ele>
        <time>2016-06-11T15:17:17Z</time>
      </trkpt>
      <trkpt lat="40.531500" lon="-4.702717">
        <ele>2347.0</ele>
        <time>2016-06-11T15:17:18Z</time>
      </trkpt>
      <trkpt lat="40.531417" lon="-4.702550">
        <ele>2350.0</ele>
        <time>2016-06-11T15:17:19Z</time>
      </trkpt>
      <trkpt lat="40.531283" lon="-4.702433">
        <ele>2352.0</ele>
        <time>2016-06-11T15:17:20Z</time>
      </trkpt>
      <trkpt lat="40.531167" lon="-4.702383">
        <ele>2355.0</ele>
        <time>2016-06-11T15:17:21Z</time>
      </trkpt>
      <trkpt lat="40.531083" lon="-4.702367">
        <ele>2359.0</ele>
        <time>2016-06-11T15:17:22Z</time>
      </trkpt>
      <trkpt lat="40.531017" lon="-4.702350">
        <ele>2364.0</ele>
        <time>2016-06-11T15:17:23Z</time>
      </trkpt>
      <trkpt lat="40.530983" lon="-4.702350">
        <ele>2367.0</ele>
        <time>2016-06-11T15:17:24Z</time>
      </trkpt>
      <trkpt lat="40.530983" lon="-4.702350">
        <ele>2370.0</ele>
        <time>2016-06-11T15:17:25Z</time>
      </trkpt>
      <trkpt lat="40.531000" lon="-4.702317">
        <ele>2372.0</ele>
        <time>2016-06-11T15:17:26Z</time>
      </trkpt>
      <trkpt lat="40.531033" lon="-4.702267">
        <ele>2373.0</ele>
        <time>2016-06-11T15:17:27Z</time>
      </trkpt>
      <trkpt lat="40.531067" lon="-4.702183">
        <ele>2373.0</ele>
        <time>2016-06-11T15:17:28Z</time>
      </trkpt>
      <trkpt lat="40.531117" lon="-4.702050">
        <ele>2373.0</ele>
        <time>2016-06-11T15:17:29Z</time>
      </trkpt>
      <trkpt lat="40.531150" lon="-4.701883">
        <ele>2373.0</ele>
        <time>2016-06-11T15:17:30Z</time>
      </trkpt>
      <trkpt lat="40.531150" lon="-4.701700">
        <ele>2374.0</ele>
        <time>2016-06-11T15:17:31Z</time>
      </trkpt>
      <trkpt lat="40.531133" lon="-4.701500">
        <ele>2375.0</ele>
        <time>2016-06-11T15:17:32Z</time>
      </trkpt>
      <trkpt lat="40.531067" lon="-4.701300">
        <ele>2376.0</ele>
        <time>2016-06-11T15:17:33Z</time>
      </trkpt>
      <trkpt lat="40.530983" lon="-4.701133">
        <ele>2377.0</ele>
        <time>2016-06-11T15:17:34Z</time>
      </trkpt>
      <trkpt lat="40.530850" lon="-4.700983">
        <ele>2378.0</ele>
        <time>2016-06-11T15:17:35Z</time>
      </trkpt>
      <trkpt lat="40.530733" lon="-4.700900">
        <ele>2382.0</ele>
        <time>2016-06-11T15:17:36Z</time>
      </trkpt>
      <trkpt lat="40.530633" lon="-4.700817">
        <ele>2387.0</ele>
        <time>2016-06-11T15:17:37Z</time>
      </trkpt>
      <trkpt lat="40.530567" lon="-4.700750">
        <ele>2390.0</ele>
        <time>2016-06-11T15:17:38Z</time>
      </trkpt>
      <trkpt lat="40.530483" lon="-4.700717">
        <ele>2394.0</ele>
        <time>2016-06-11T15:17:39Z</time>
      </trkpt>
      <trkpt lat="40.530417" lon="-4.700683">
        <ele>2396.0</ele>
        <time>2016-06-11T15:17:40Z</time>
      </trkpt>
      <trkpt lat="40.530350" lon="-4.700667">
        <ele>2398.0</ele>
        <time>2016-06-11T15:17:41Z</time>
      </trkpt>
      <trkpt lat="40.530300" lon="-4.700650">
        <ele>2401.0</ele>
        <time>2016-06-11T15:17:42Z</time>
      </trkpt>
      <trkpt lat="40.530300" lon="-4.700650">
        <ele>2402.0</ele>
        <time>2016-06-11T15:17:43Z</time>
      </trkpt>
      <trkpt lat="40.530300" lon="-4.700617">
        <ele>2404.0</ele>
        <time>2016-06-11T15:17:44Z</time>
      </trkpt>
      <trkpt lat="40.530333" lon="-4.700567">
        <ele>2405.0</ele>
        <time>2016-06-11T15:17:45Z</time>
      </trkpt>
      <trkpt lat="40.530367" lon="-4.700500">
        <ele>2406.0</ele>
        <time>2016-06-11T15:17:46Z</time>
      </trkpt>
      <trkpt lat="40.530400" lon="-4.700417">
        <ele>2406.0</ele>
        <time>2016-06-11T15:17:47Z</time>
      </trkpt>
      <trkpt lat="40.530433" lon="-4.700350">
        <ele>2407.0</ele>
        <time>2016-06-11T15:17:48Z</time>
      </trkpt>
      <trkpt lat="40.530467" lon="-4.700267">
        <ele>2408.0</ele>
        <time>2016-06-11T15:17:49Z</time>
      </trkpt>
      <trkpt lat="40.530500" lon="-4.700167">
        <ele>2408.0</ele>
        <time>2016-06-11T15:17:50Z</time>
      </trkpt>
      <trkpt lat="40.530533" lon="-4.700017">
        <ele>2408.0</ele>
        <time>2016-06-11T15:17:51Z</time>
      </trkpt>
      <trkpt lat="40.530550" lon="-4.699833">
        <ele>2407.0</ele>
        <time>2016-06-11T15:17:52Z</time>
      </trkpt>
      <trkpt lat="40.530550" lon="-4.699650">
        <ele>2408.0</ele>
        <time>2016-06-11T15:17:53Z</time>
      </trkpt>
      <trkpt lat="40.530550" lon="-4.699483">
        <ele>2410.0</ele>
        <time>2016-06-11T15:17:54Z</time>
      </trkpt>
      <trkpt lat="40.530550" lon="-4.699300">
        <ele>2413.0</ele>
        <time>2016-06-11T15:17:55Z</time>
      </trkpt>
      <trkpt lat="40.530533" lon="-4.699133">
        <ele>2415.0</ele>
        <time>2016-06-11T15:17:56Z</time>
      </trkpt>
      <trkpt lat="40.530483" lon="-4.698967">
        <ele>2416.0</ele>
        <time>2016-06-11T15:17:57Z</time>
      </trkpt>
      <trkpt lat="40.530417" lon="-4.698800">
        <ele>2416.0</ele>
        <time>2016-06-11T15:17:58Z</time>
      </trkpt>
      <trkpt lat="40.530317" lon="-4.698617">
        <ele>2416.0</ele>
        <time>2016-06-11T15:17:59Z</time>
      </trkpt>
      <trkpt lat="40.530217" lon="-4.698467">
        <ele>2418.0</ele>
        <time>2016-06-11T15:18:00Z</time>
      </trkpt>
      <trkpt lat="40.530117" lon="-4.698333">
        <ele>2419.0</ele>
        <time>2016-06-11T15:18:01Z</time>
      </trkpt>
      <trkpt lat="40.530000" lon="-4.698217">
        <ele>2420.0</ele>
        <time>2016-06-11T15:18:02Z</time>
      </trkpt>
      <trkpt lat="40.529883" lon="-4.698150">
        <ele>2422.0</ele>
        <time>2016-06-11T15:18:03Z</time>
      </trkpt>
      <trkpt lat="40.529783" lon="-4.698083">
        <ele>2424.0</ele>
        <time>2016-06-11T15:18:04Z</time>
      </trkpt>
      <trkpt lat="40.529700" lon="-4.698033">
        <ele>2427.0</ele>
        <time>2016-06-11T15:18:05Z</time>
      </trkpt>
      <trkpt lat="40.529633" lon="-4.697983">
        <ele>2428.0</ele>
        <time>2016-06-11T15:18:06Z</time>
      </trkpt>
      <trkpt lat="40.529567" lon="-4.697950">
        <ele>2430.0</ele>
        <time>2016-06-11T15:18:07Z</time>
      </trkpt>
      <trkpt lat="40.529500" lon="-4.697933">
        <ele>2432.0</ele>
        <time>2016-06-11T15:18:08Z</time>
      </trkpt>
      <trkpt lat="40.529450" lon="-4.697933">
        <ele>2435.0</ele>
        <time>2016-06-11T15:18:09Z</time>
      </trkpt>
      <trkpt lat="40.529433" lon="-4.697933">
        <ele>2437.0</ele>
        <time>2016-06-11T15:18:10Z</time>
      </trkpt>
      <trkpt lat="40.529417" lon="-4.697917">
        <ele>2440.0</ele>
        <time>2016-06-11T15:18:11Z</time>
      </trkpt>
      <trkpt lat="40.529400" lon="-4.697883">
        <ele>2441.0</ele>
        <time>2016-06-11T15:18:12Z</time>
      </trkpt>
      <trkpt lat="40.529400" lon="-4.697867">
        <ele>2442.0</ele>
        <time>2016-06-11T15:18:13Z</time>
      </trkpt>
      <trkpt lat="40.529417" lon="-4.697833">
        <ele>2442.0</ele>
        <time>2016-06-11T15:18:14Z</time>
      </trkpt>
      <trkpt lat="40.529450" lon="-4.697800">
        <ele>2441.0</ele>
        <time>2016-06-11T15:18:15Z</time>
      </trkpt>
      <trkpt lat="40.529483" lon="-4.697767">
        <ele>2441.0</ele>
        <time>2016-06-11T15:18:16Z</time>
      </trkpt>
      <trkpt lat="40.529517" lon="-4.697717">
        <ele>2441.0</ele>
        <time>2016-06-11T15:18:17Z</time>
      </trkpt>
      <trkpt lat="40.529550" lon="-4.697633">
        <ele>2441.0</ele>
        <time>2016-06-11T15:18:18Z</time>
      </trkpt>
      <trkpt lat="40.529567" lon="-4.697567">
        <ele>2441.0</ele>
        <time>2016-06-11T15:18:19Z</time>
      </trkpt>
      <trkpt lat="40.529600" lon="-4.697467">
        <ele>2440.0</ele>
        <time>2016-06-11T15:18:20Z</time>
      </trkpt>
      <trkpt lat="40.529650" lon="-4.697367">
        <ele>2438.0</ele>
        <time>2016-06-11T15:18:21Z</time>
      </trkpt>
      <trkpt lat="40.529683" lon="-4.697233">
        <ele>2437.0</ele>
        <time>2016-06-11T15:18:22Z</time>
      </trkpt>
      <trkpt lat="40.529717" lon="-4.697117">
        <ele>2436.0</ele>
        <time>2016-06-11T15:18:23Z</time>
      </trkpt>
      <trkpt lat="40.529750" lon="-4.696983">
        <ele>2436.0</ele>
        <time>2016-06-11T15:18:24Z</time>
      </trkpt>
      <trkpt lat="40.529767" lon="-4.696867">
        <ele>2437.0</ele>
        <time>2016-06-11T15:18:25Z</time>
      </trkpt>
      <trkpt lat="40.529783" lon="-4.696733">
        <ele>2438.0</ele>
        <time>2016-06-11T15:18:26Z</time>
      </trkpt>
      <trkpt lat="40.529783" lon="-4.696583">
        <ele>2438.0</ele>
        <time>2016-06-11T15:18:27Z</time>
      </trkpt>
      <trkpt lat="40.529783" lon="-4.696417">
        <ele>2439.0</ele>
        <time>2016-06-11T15:18:28Z</time>
      </trkpt>
      <trkpt lat="40.529800" lon="-4.696250">
        <ele>2441.0</ele>
        <time>2016-06-11T15:18:29Z</time>
      </trkpt>
      <trkpt lat="40.529800" lon="-4.696100">
        <ele>2443.0</ele>
        <time>2016-06-11T15:18:30Z</time>
      </trkpt>
      <trkpt lat="40.529817" lon="-4.695967">
        <ele>2445.0</ele>
        <time>2016-06-11T15:18:31Z</time>
      </trkpt>
      <trkpt lat="40.529833" lon="-4.695833">
        <ele>2447.0</ele>
        <time>2016-06-11T15:18:32Z</time>
      </trkpt>
      <trkpt lat="40.529850" lon="-4.695683">
        <ele>2448.0</ele>
        <time>2016-06-11T15:18:33Z</time>
      </trkpt>
      <trkpt lat="40.529850" lon="-4.695517">
        <ele>2449.0</ele>
        <time>2016-06-11T15:18:34Z</time>
      </trkpt>
      <trkpt lat="40.529833" lon="-4.695333">
        <ele>2450.0</ele>
        <time>2016-06-11T15:18:35Z</time>
      </trkpt>
      <trkpt lat="40.529783" lon="-4.695150">
        <ele>2450.0</ele>
        <time>2016-06-11T15:18:36Z</time>
      </trkpt>
      <trkpt lat="40.529733" lon="-4.694950">
        <ele>2451.0</ele>
        <time>2016-06-11T15:18:37Z</time>
      </trkpt>
      <trkpt lat="40.529667" lon="-4.694767">
        <ele>2452.0</ele>
        <time>2016-06-11T15:18:38Z</time>
      </trkpt>
      <trkpt lat="40.529567" lon="-4.694600">
        <ele>2453.0</ele>
        <time>2016-06-11T15:18:39Z</time>
      </trkpt>
      <trkpt lat="40.529433" lon="-4.694467">
        <ele>2453.0</ele>
        <time>2016-06-11T15:18:40Z</time>
      </trkpt>
      <trkpt lat="40.529300" lon="-4.694350">
        <ele>2454.0</ele>
        <time>2016-06-11T15:18:41Z</time>
      </trkpt>
      <trkpt lat="40.529167" lon="-4.694283">
        <ele>2456.0</ele>
        <time>2016-06-11T15:18:42Z</time>
      </trkpt>
      <trkpt lat="40.529050" lon="-4.694217">
        <ele>2459.0</ele>
        <time>2016-06-11T15:18:43Z</time>
      </trkpt>
      <trkpt lat="40.528917" lon="-4.694167">
        <ele>2463.0</ele>
        <time>2016-06-11T15:18:44Z</time>
      </trkpt>
      <trkpt lat="40.528800" lon="-4.694083">
        <ele>2466.0</ele>
        <time>2016-06-11T15:18:45Z</time>
      </trkpt>
      <trkpt lat="40.528717" lon="-4.694000">
        <ele>2469.0</ele>
        <time>2016-06-11T15:18:46Z</time>
      </trkpt>
      <trkpt lat="40.528633" lon="-4.693933">
        <ele>2471.0</ele>
        <time>2016-06-11T15:18:47Z</time>
      </trkpt>
      <trkpt lat="40.528567" lon="-4.693900">
        <ele>2470.0</ele>
        <time>2016-06-11T15:18:48Z</time>
      </trkpt>
      <trkpt lat="40.528500" lon="-4.693883">
        <ele>2469.0</ele>
        <time>2016-06-11T15:18:49Z</time>
      </trkpt>
      <trkpt lat="40.528467" lon="-4.693900">
        <ele>2468.0</ele>
        <time>2016-06-11T15:18:50Z</time>
      </trkpt>
      <trkpt lat="40.528433" lon="-4.693917">
        <ele>2468.0</ele>
        <time>2016-06-11T15:18:51Z</time>
      </trkpt>
      <trkpt lat="40.528417" lon="-4.693917">
        <ele>2469.0</ele>
        <time>2016-06-11T15:18:52Z</time>
      </trkpt>
      <trkpt lat="40.528400" lon="-4.693900">
        <ele>2469.0</ele>
        <time>2016-06-11T15:18:53Z</time>
      </trkpt>
      <trkpt lat="40.528417" lon="-4.693883">
        <ele>2469.0</ele>
        <time>2016-06-11T15:18:54Z</time>
      </trkpt>
      <trkpt lat="40.528417" lon="-4.693850">
        <ele>2469.0</ele>
        <time>2016-06-11T15:18:55Z</time>
      </trkpt>
      <trkpt lat="40.528433" lon="-4.693817">
        <ele>2470.0</ele>
        <time>2016-06-11T15:18:56Z</time>
      </trkpt>
      <trkpt lat="40.528450" lon="-4.693767">
        <ele>2470.0</ele>
        <time>2016-06-11T15:18:57Z</time>
      </trkpt>
      <trkpt lat="40.528483" lon="-4.693700">
        <ele>2470.0</ele>
        <time>2016-06-11T15:18:58Z</time>
      </trkpt>
      <trkpt lat="40.528517" lon="-4.693633">
        <ele>2471.0</ele>
        <time>2016-06-11T15:18:59Z</time>
      </trkpt>
      <trkpt lat="40.528533" lon="-4.693550">
        <ele>2472.0</ele>
        <time>2016-06-11T15:19:00Z</time>
      </trkpt>
      <trkpt lat="40.528550" lon="-4.693450">
        <ele>2474.0</ele>
        <time>2016-06-11T15:19:01Z</time>
      </trkpt>
      <trkpt lat="40.528567" lon="-4.693333">
        <ele>2475.0</ele>
        <time>2016-06-11T15:19:02Z</time>
      </trkpt>
      <trkpt lat="40.528567" lon="-4.693217">
        <ele>2475.0</ele>
        <time>2016-06-11T15:19:03Z</time>
      </trkpt>
      <trkpt lat="40.528583" lon="-4.693083">
        <ele>2474.0</ele>
        <time>2016-06-11T15:19:04Z</time>
      </trkpt>
      <trkpt lat="40.528600" lon="-4.692967">
        <ele>2473.0</ele>
        <time>2016-06-11T15:19:05Z</time>
      </trkpt>
      <trkpt lat="40.528633" lon="-4.692850">
        <ele>2473.0</ele>
        <time>2016-06-11T15:19:06Z</time>
      </trkpt>
      <trkpt lat="40.528667" lon="-4.692733">
        <ele>2473.0</ele>
        <time>2016-06-11T15:19:07Z</time>
      </trkpt>
      <trkpt lat="40.528683" lon="-4.692583">
        <ele>2475.0</ele>
        <time>2016-06-11T15:19:08Z</time>
      </trkpt>
      <trkpt lat="40.528700" lon="-4.692433">
        <ele>2476.0</ele>
        <time>2016-06-11T15:19:09Z</time>
      </trkpt>
      <trkpt lat="40.528733" lon="-4.692283">
        <ele>2477.0</ele>
        <time>2016-06-11T15:19:10Z</time>
      </trkpt>
      <trkpt lat="40.528750" lon="-4.692117">
        <ele>2478.0</ele>
        <time>2016-06-11T15:19:11Z</time>
      </trkpt>
      <trkpt lat="40.528750" lon="-4.691950">
        <ele>2479.0</ele>
        <time>2016-06-11T15:19:12Z</time>
      </trkpt>
      <trkpt lat="40.528733" lon="-4.691750">
        <ele>2480.0</ele>
        <time>2016-06-11T15:19:13Z</time>
      </trkpt>
      <trkpt lat="40.528700" lon="-4.691550">
        <ele>2480.0</ele>
        <time>2016-06-11T15:19:14Z</time>
      </trkpt>
      <trkpt lat="40.528650" lon="-4.691350">
        <ele>2481.0</ele>
        <time>2016-06-11T15:19:15Z</time>
      </trkpt>
      <trkpt lat="40.528600" lon="-4.691150">
        <ele>2482.0</ele>
        <time>2016-06-11T15:19:16Z</time>
      </trkpt>
      <trkpt lat="40.528517" lon="-4.690950">
        <ele>2483.0</ele>
        <time>2016-06-11T15:19:17Z</time>
      </trkpt>
      <trkpt lat="40.528433" lon="-4.690767">
        <ele>2484.0</ele>
        <time>2016-06-11T15:19:18Z</time>
      </trkpt>
      <trkpt lat="40.528333" lon="-4.690600">
        <ele>2484.0</ele>
        <time>2016-06-11T15:19:19Z</time>
      </trkpt>
      <trkpt lat="40.528217" lon="-4.690450">
        <ele>2484.0</ele>
        <time>2016-06-11T15:19:20Z</time>
      </trkpt>
      <trkpt lat="40.528100" lon="-4.690333">
        <ele>2485.0</ele>
        <time>2016-06-11T15:19:21Z</time>
      </trkpt>
      <trkpt lat="40.527983" lon="-4.690233">
        <ele>2485.0</ele>
        <time>2016-06-11T15:19:22Z</time>
      </trkpt>
      <trkpt lat="40.527867" lon="-4.690133">
        <ele>2486.0</ele>
        <time>2016-06-11T15:19:23Z</time>
      </trkpt>
      <trkpt lat="40.527733" lon="-4.690067">
        <ele>2486.0</ele>
        <time>2016-06-11T15:19:24Z</time>
      </trkpt>
      <trkpt lat="40.527617" lon="-4.690017">
        <ele>2486.0</ele>
        <time>2016-06-11T15:19:25Z</time>
      </trkpt>
      <trkpt lat="40.527517" lon="-4.690000">
        <ele>2487.0</ele>
        <time>2016-06-11T15:19:26Z</time>
      </trkpt>
      <trkpt lat="40.527417" lon="-4.689983">
        <ele>2488.0</ele>
        <time>2016-06-11T15:19:27Z</time>
      </trkpt>
      <trkpt lat="40.527333" lon="-4.689983">
        <ele>2489.0</ele>
        <time>2016-06-11T15:19:28Z</time>
      </trkpt>
      <trkpt lat="40.527267" lon="-4.689983">
        <ele>2490.0</ele>
        <time>2016-06-11T15:19:29Z</time>
      </trkpt>
      <trkpt lat="40.527183" lon="-4.689983">
        <ele>2490.0</ele>
        <time>2016-06-11T15:19:30Z</time>
      </trkpt>
      <trkpt lat="40.527100" lon="-4.689983">
        <ele>2491.0</ele>
        <time>2016-06-11T15:19:31Z</time>
      </trkpt>
      <trkpt lat="40.527033" lon="-4.689983">
        <ele>2492.0</ele>
        <time>2016-06-11T15:19:32Z</time>
      </trkpt>
      <trkpt lat="40.526967" lon="-4.689983">
        <ele>2492.0</ele>
        <time>2016-06-11T15:19:33Z</time>
      </trkpt>
      <trkpt lat="40.526900" lon="-4.689983">
        <ele>2492.0</ele>
        <time>2016-06-11T15:19:34Z</time>
      </trkpt>
      <trkpt lat="40.526850" lon="-4.690000">
        <ele>2493.0</ele>
        <time>2016-06-11T15:19:35Z</time>
      </trkpt>
      <trkpt lat="40.526817" lon="-4.690033">
        <ele>2492.0</ele>
        <time>2016-06-11T15:19:36Z</time>
      </trkpt>
      <trkpt lat="40.526783" lon="-4.690050">
        <ele>2492.0</ele>
        <time>2016-06-11T15:19:37Z</time>
      </trkpt>
      <trkpt lat="40.526767" lon="-4.690067">
        <ele>2492.0</ele>
        <time>2016-06-11T15:19:38Z</time>
      </trkpt>
      <trkpt lat="40.526767" lon="-4.690067">
        <ele>2491.0</ele>
        <time>2016-06-11T15:19:39Z</time>
      </trkpt>
      <trkpt lat="40.526767" lon="-4.690050">
        <ele>2491.0</ele>
        <time>2016-06-11T15:19:40Z</time>
      </trkpt>
      <trkpt lat="40.526767" lon="-4.690017">
        <ele>2490.0</ele>
        <time>2016-06-11T15:19:41Z</time>
      </trkpt>
      <trkpt lat="40.526783" lon="-4.689950">
        <ele>2490.0</ele>
        <time>2016-06-11T15:19:42Z</time>
      </trkpt>
      <trkpt lat="40.526800" lon="-4.689833">
        <ele>2489.0</ele>
        <time>2016-06-11T15:19:43Z</time>
      </trkpt>
      <trkpt lat="40.526833" lon="-4.689700">
        <ele>2488.0</ele>
        <time>2016-06-11T15:19:44Z</time>
      </trkpt>
      <trkpt lat="40.526833" lon="-4.689550">
        <ele>2487.0</ele>
        <time>2016-06-11T15:19:45Z</time>
      </trkpt>
      <trkpt lat="40.526867" lon="-4.689400">
        <ele>2485.0</ele>
        <time>2016-06-11T15:19:46Z</time>
      </trkpt>
      <trkpt lat="40.526883" lon="-4.689267">
        <ele>2484.0</ele>
        <time>2016-06-11T15:19:47Z</time>
      </trkpt>
      <trkpt lat="40.526917" lon="-4.689150">
        <ele>2483.0</ele>
        <time>2016-06-11T15:19:48Z</time>
      </trkpt>
      <trkpt lat="40.526950" lon="-4.689000">
        <ele>2483.0</ele>
        <time>2016-06-11T15:19:49Z</time>
      </trkpt>
      <trkpt lat="40.526983" lon="-4.688850">
        <ele>2484.0</ele>
        <time>2016-06-11T15:19:50Z</time>
      </trkpt>
      <trkpt lat="40.527017" lon="-4.688700">
        <ele>2485.0</ele>
        <time>2016-06-11T15:19:51Z</time>
      </trkpt>
      <trkpt lat="40.527033" lon="-4.688533">
        <ele>2486.0</ele>
        <time>2016-06-11T15:19:52Z</time>
      </trkpt>
      <trkpt lat="40.527067" lon="-4.688367">
        <ele>2486.0</ele>
        <time>2016-06-11T15:19:53Z</time>
      </trkpt>
      <trkpt lat="40.527100" lon="-4.688217">
        <ele>2486.0</ele>
        <time>2016-06-11T15:19:54Z</time>
      </trkpt>
      <trkpt lat="40.527150" lon="-4.688067">
        <ele>2487.0</ele>
        <time>2016-06-11T15:19:55Z</time>
      </trkpt>
      <trkpt lat="40.527200" lon="-4.687933">
        <ele>2487.0</ele>
        <time>2016-06-11T15:19:56Z</time>
      </trkpt>
      <trkpt lat="40.527233" lon="-4.687800">
        <ele>2488.0</ele>
        <time>2016-06-11T15:19:57Z</time>
      </trkpt>
      <trkpt lat="40.527267" lon="-4.687667">
        <ele>2486.0</ele>
        <time>2016-06-11T15:19:58Z</time>
      </trkpt>
      <trkpt lat="40.527300" lon="-4.687533">
        <ele>2484.0</ele>
        <time>2016-06-11T15:19:59Z</time>
      </trkpt>
      <trkpt lat="40.527367" lon="-4.687400">
        <ele>2481.0</ele>
        <time>2016-06-11T15:20:00Z</time>
      </trkpt>
      <trkpt lat="40.527417" lon="-4.687283">
        <ele>2480.0</ele>
        <time>2016-06-11T15:20:01Z</time>
      </trkpt>
      <trkpt lat="40.527467" lon="-4.687167">
        <ele>2480.0</ele>
        <time>2016-06-11T15:20:02Z</time>
      </trkpt>
      <trkpt lat="40.527517" lon="-4.687050">
        <ele>2479.0</ele>
        <time>2016-06-11T15:20:03Z</time>
      </trkpt>
      <trkpt lat="40.527567" lon="-4.686950">
        <ele>2478.0</ele>
        <time>2016-06-11T15:20:04Z</time>
      </trkpt>
      <trkpt lat="40.527617" lon="-4.686850">
        <ele>2476.0</ele>
        <time>2016-06-11T15:20:05Z</time>
      </trkpt>
      <trkpt lat="40.527683" lon="-4.686733">
        <ele>2474.0</ele>
        <time>2016-06-11T15:20:06Z</time>
      </trkpt>
      <trkpt lat="40.527733" lon="-4.686617">
        <ele>2473.0</ele>
        <time>2016-06-11T15:20:07Z</time>
      </trkpt>
      <trkpt lat="40.527783" lon="-4.686467">
        <ele>2473.0</ele>
        <time>2016-06-11T15:20:08Z</time>
      </trkpt>
      <trkpt lat="40.527817" lon="-4.686317">
        <ele>2471.0</ele>
        <time>2016-06-11T15:20:09Z</time>
      </trkpt>
      <trkpt lat="40.527833" lon="-4.686183">
        <ele>2468.0</ele>
        <time>2016-06-11T15:20:10Z</time>
      </trkpt>
      <trkpt lat="40.527867" lon="-4.686033">
        <ele>2464.0</ele>
        <time>2016-06-11T15:20:11Z</time>
      </trkpt>
      <trkpt lat="40.527917" lon="-4.685883">
        <ele>2461.0</ele>
        <time>2016-06-11T15:20:12Z</time>
      </trkpt>
      <trkpt lat="40.527967" lon="-4.685733">
        <ele>2459.0</ele>
        <time>2016-06-11T15:20:13Z</time>
      </trkpt>
      <trkpt lat="40.528017" lon="-4.685583">
        <ele>2460.0</ele>
        <time>2016-06-11T15:20:14Z</time>
      </trkpt>
      <trkpt lat="40.528017" lon="-4.685450">
        <ele>2460.0</ele>
        <time>2016-06-11T15:20:15Z</time>
      </trkpt>
      <trkpt lat="40.528033" lon="-4.685333">
        <ele>2458.0</ele>
        <time>2016-06-11T15:20:16Z</time>
      </trkpt>
      <trkpt lat="40.528050" lon="-4.685217">
        <ele>2454.0</ele>
        <time>2016-06-11T15:20:17Z</time>
      </trkpt>
      <trkpt lat="40.528100" lon="-4.685117">
        <ele>2448.0</ele>
        <time>2016-06-11T15:20:18Z</time>
      </trkpt>
      <trkpt lat="40.528150" lon="-4.685017">
        <ele>2444.0</ele>
        <time>2016-06-11T15:20:19Z</time>
      </trkpt>
      <trkpt lat="40.528217" lon="-4.684900">
        <ele>2442.0</ele>
        <time>2016-06-11T15:20:20Z</time>
      </trkpt>
      <trkpt lat="40.528250" lon="-4.684783">
        <ele>2441.0</ele>
        <time>2016-06-11T15:20:21Z</time>
      </trkpt>
      <trkpt lat="40.528267" lon="-4.684667">
        <ele>2440.0</ele>
        <time>2016-06-11T15:20:22Z</time>
      </trkpt>
      <trkpt lat="40.528283" lon="-4.684550">
        <ele>2436.0</ele>
        <time>2016-06-11T15:20:23Z</time>
      </trkpt>
      <trkpt lat="40.528317" lon="-4.684433">
        <ele>2431.0</ele>
        <time>2016-06-11T15:20:24Z</time>
      </trkpt>
      <trkpt lat="40.528367" lon="-4.684300">
        <ele>2427.0</ele>
        <time>2016-06-11T15:20:25Z</time>
      </trkpt>
      <trkpt lat="40.528417" lon="-4.684167">
        <ele>2425.0</ele>
        <time>2016-06-11T15:20:26Z</time>
      </trkpt>
      <trkpt lat="40.528433" lon="-4.684050">
        <ele>2424.0</ele>
        <time>2016-06-11T15:20:27Z</time>
      </trkpt>
      <trkpt lat="40.528467" lon="-4.683933">
        <ele>2424.0</ele>
        <time>2016-06-11T15:20:28Z</time>
      </trkpt>
      <trkpt lat="40.528467" lon="-4.683800">
        <ele>2421.0</ele>
        <time>2016-06-11T15:20:29Z</time>
      </trkpt>
      <trkpt lat="40.528500" lon="-4.683683">
        <ele>2418.0</ele>
        <time>2016-06-11T15:20:30Z</time>
      </trkpt>
      <trkpt lat="40.528533" lon="-4.683567">
        <ele>2414.0</ele>
        <time>2016-06-11T15:20:31Z</time>
      </trkpt>
      <trkpt lat="40.528583" lon="-4.683433">
        <ele>2410.0</ele>
        <time>2016-06-11T15:20:32Z</time>
      </trkpt>
      <trkpt lat="40.528633" lon="-4.683317">
        <ele>2408.0</ele>
        <time>2016-06-11T15:20:33Z</time>
      </trkpt>
      <trkpt lat="40.528667" lon="-4.683200">
        <ele>2407.0</ele>
        <time>2016-06-11T15:20:34Z</time>
      </trkpt>
      <trkpt lat="40.528683" lon="-4.683083">
        <ele>2406.0</ele>
        <time>2016-06-11T15:20:35Z</time>
      </trkpt>
      <trkpt lat="40.528717" lon="-4.682950">
        <ele>2402.0</ele>
        <time>2016-06-11T15:20:36Z</time>
      </trkpt>
      <trkpt lat="40.528750" lon="-4.682817">
        <ele>2399.0</ele>
        <time>2016-06-11T15:20:37Z</time>
      </trkpt>
      <trkpt lat="40.528783" lon="-4.682683">
        <ele>2395.0</ele>
        <time>2016-06-11T15:20:38Z</time>
      </trkpt>
      <trkpt lat="40.528817" lon="-4.682533">
        <ele>2394.0</ele>
        <time>2016-06-11T15:20:39Z</time>
      </trkpt>
      <trkpt lat="40.528833" lon="-4.682417">
        <ele>2392.0</ele>
        <time>2016-06-11T15:20:40Z</time>
      </trkpt>
      <trkpt lat="40.528867" lon="-4.682300">
        <ele>2390.0</ele>
        <time>2016-06-11T15:20:41Z</time>
      </trkpt>
      <trkpt lat="40.528900" lon="-4.682183">
        <ele>2388.0</ele>
        <time>2016-06-11T15:20:42Z</time>
      </trkpt>
      <trkpt lat="40.528933" lon="-4.682067">
        <ele>2386.0</ele>
        <time>2016-06-11T15:20:43Z</time>
      </trkpt>
      <trkpt lat="40.528967" lon="-4.681950">
        <ele>2383.0</ele>
        <time>2016-06-11T15:20:44Z</time>
      </trkpt>
      <trkpt lat="40.528983" lon="-4.681817">
        <ele>2382.0</ele>
        <time>2016-06-11T15:20:45Z</time>
      </trkpt>
      <trkpt lat="40.529017" lon="-4.681683">
        <ele>2380.0</ele>
        <time>2016-06-11T15:20:46Z</time>
      </trkpt>
      <trkpt lat="40.529033" lon="-4.681567">
        <ele>2378.0</ele>
        <time>2016-06-11T15:20:47Z</time>
      </trkpt>
      <trkpt lat="40.529067" lon="-4.681450">
        <ele>2375.0</ele>
        <time>2016-06-11T15:20:48Z</time>
      </trkpt>
      <trkpt lat="40.529100" lon="-4.681317">
        <ele>2373.0</ele>
        <time>2016-06-11T15:20:49Z</time>
      </trkpt>
      <trkpt lat="40.529117" lon="-4.681183">
        <ele>2369.0</ele>
        <time>2016-06-11T15:20:50Z</time>
      </trkpt>
      <trkpt lat="40.529150" lon="-4.681033">
        <ele>2366.0</ele>
        <time>2016-06-11T15:20:51Z</time>
      </trkpt>
      <trkpt lat="40.529183" lon="-4.680900">
        <ele>2363.0</ele>
        <time>2016-06-11T15:20:52Z</time>
      </trkpt>
      <trkpt lat="40.529200" lon="-4.680750">
        <ele>2361.0</ele>
        <time>2016-06-11T15:20:53Z</time>
      </trkpt>
      <trkpt lat="40.529217" lon="-4.680600">
        <ele>2359.0</ele>
        <time>2016-06-11T15:20:54Z</time>
      </trkpt>
      <trkpt lat="40.529233" lon="-4.680450">
        <ele>2356.0</ele>
        <time>2016-06-11T15:20:55Z</time>
      </trkpt>
      <trkpt lat="40.529250" lon="-4.680300">
        <ele>2354.0</ele>
        <time>2016-06-11T15:20:56Z</time>
      </trkpt>
      <trkpt lat="40.529283" lon="-4.680183">
        <ele>2351.0</ele>
        <time>2016-06-11T15:20:57Z</time>
      </trkpt>
      <trkpt lat="40.529333" lon="-4.680067">
        <ele>2348.0</ele>
        <time>2016-06-11T15:20:58Z</time>
      </trkpt>
      <trkpt lat="40.529367" lon="-4.679950">
        <ele>2347.0</ele>
        <time>2016-06-11T15:20:59Z</time>
      </trkpt>
      <trkpt lat="40.529383" lon="-4.679817">
        <ele>2344.0</ele>
        <time>2016-06-11T15:21:00Z</time>
      </trkpt>
      <trkpt lat="40.529383" lon="-4.679683">
        <ele>2341.0</ele>
        <time>2016-06-11T15:21:01Z</time>
      </trkpt>
      <trkpt lat="40.529417" lon="-4.679533">
        <ele>2339.0</ele>
        <time>2016-06-11T15:21:02Z</time>
      </trkpt>
      <trkpt lat="40.529433" lon="-4.679383">
        <ele>2336.0</ele>
        <time>2016-06-11T15:21:03Z</time>
      </trkpt>
      <trkpt lat="40.529467" lon="-4.679233">
        <ele>2335.0</ele>
        <time>2016-06-11T15:21:04Z</time>
      </trkpt>
      <trkpt lat="40.529467" lon="-4.679067">
        <ele>2335.0</ele>
        <time>2016-06-11T15:21:05Z</time>
      </trkpt>
      <trkpt lat="40.529483" lon="-4.678900">
        <ele>2335.0</ele>
        <time>2016-06-11T15:21:06Z</time>
      </trkpt>
      <trkpt lat="40.529517" lon="-4.678767">
        <ele>2334.0</ele>
        <time>2016-06-11T15:21:07Z</time>
      </trkpt>
      <trkpt lat="40.529550" lon="-4.678650">
        <ele>2334.0</ele>
        <time>2016-06-11T15:21:08Z</time>
      </trkpt>
      <trkpt lat="40.529583" lon="-4.678517">
        <ele>2334.0</ele>
        <time>2016-06-11T15:21:09Z</time>
      </trkpt>
      <trkpt lat="40.529617" lon="-4.678383">
        <ele>2334.0</ele>
        <time>2016-06-11T15:21:10Z</time>
      </trkpt>
      <trkpt lat="40.529633" lon="-4.678250">
        <ele>2333.0</ele>
        <time>2016-06-11T15:21:11Z</time>
      </trkpt>
      <trkpt lat="40.529650" lon="-4.678133">
        <ele>2331.0</ele>
        <time>2016-06-11T15:21:12Z</time>
      </trkpt>
      <trkpt lat="40.529700" lon="-4.678033">
        <ele>2330.0</ele>
        <time>2016-06-11T15:21:13Z</time>
      </trkpt>
      <trkpt lat="40.529750" lon="-4.677950">
        <ele>2328.0</ele>
        <time>2016-06-11T15:21:14Z</time>
      </trkpt>
      <trkpt lat="40.529800" lon="-4.677900">
        <ele>2327.0</ele>
        <time>2016-06-11T15:21:15Z</time>
      </trkpt>
      <trkpt lat="40.529850" lon="-4.677883">
        <ele>2326.0</ele>
        <time>2016-06-11T15:21:16Z</time>
      </trkpt>
      <trkpt lat="40.529883" lon="-4.677867">
        <ele>2326.0</ele>
        <time>2016-06-11T15:21:17Z</time>
      </trkpt>
      <trkpt lat="40.529900" lon="-4.677883">
        <ele>2325.0</ele>
        <time>2016-06-11T15:21:18Z</time>
      </trkpt>
      <trkpt lat="40.529917" lon="-4.677883">
        <ele>2324.0</ele>
        <time>2016-06-11T15:21:19Z</time>
      </trkpt>
      <trkpt lat="40.529900" lon="-4.677917">
        <ele>2322.0</ele>
        <time>2016-06-11T15:21:20Z</time>
      </trkpt>
      <trkpt lat="40.529867" lon="-4.677950">
        <ele>2320.0</ele>
        <time>2016-06-11T15:21:21Z</time>
      </trkpt>
      <trkpt lat="40.529817" lon="-4.677967">
        <ele>2318.0</ele>
        <time>2016-06-11T15:21:22Z</time>
      </trkpt>
      <trkpt lat="40.529767" lon="-4.677983">
        <ele>2316.0</ele>
        <time>2016-06-11T15:21:23Z</time>
      </trkpt>
      <trkpt lat="40.529700" lon="-4.677967">
        <ele>2314.0</ele>
        <time>2016-06-11T15:21:24Z</time>
      </trkpt>
      <trkpt lat="40.529633" lon="-4.677933">
        <ele>2310.0</ele>
        <time>2016-06-11T15:21:25Z</time>
      </trkpt>
      <trkpt lat="40.529517" lon="-4.677900">
        <ele>2304.0</ele>
        <time>2016-06-11T15:21:26Z</time>
      </trkpt>
      <trkpt lat="40.529400" lon="-4.677833">
        <ele>2299.0</ele>
        <time>2016-06-11T15:21:27Z</time>
      </trkpt>
      <trkpt lat="40.529267" lon="-4.677717">
        <ele>2297.0</ele>
        <time>2016-06-11T15:21:28Z</time>
      </trkpt>
      <trkpt lat="40.529150" lon="-4.677567">
        <ele>2294.0</ele>
        <time>2016-06-11T15:21:29Z</time>
      </trkpt>
      <trkpt lat="40.529067" lon="-4.677417">
        <ele>2293.0</ele>
        <time>2016-06-11T15:21:30Z</time>
      </trkpt>
      <trkpt lat="40.528967" lon="-4.677267">
        <ele>2292.0</ele>
        <time>2016-06-11T15:21:31Z</time>
      </trkpt>
      <trkpt lat="40.528883" lon="-4.677133">
        <ele>2292.0</ele>
        <time>2016-06-11T15:21:32Z</time>
      </trkpt>
      <trkpt lat="40.528817" lon="-4.676983">
        <ele>2290.0</ele>
        <time>2016-06-11T15:21:33Z</time>
      </trkpt>
      <trkpt lat="40.528767" lon="-4.676800">
        <ele>2288.0</ele>
        <time>2016-06-11T15:21:34Z</time>
      </trkpt>
      <trkpt lat="40.528717" lon="-4.676600">
        <ele>2286.0</ele>
        <time>2016-06-11T15:21:35Z</time>
      </trkpt>
      <trkpt lat="40.528683" lon="-4.676433">
        <ele>2286.0</ele>
        <time>2016-06-11T15:21:36Z</time>
      </trkpt>
      <trkpt lat="40.528650" lon="-4.676250">
        <ele>2285.0</ele>
        <time>2016-06-11T15:21:37Z</time>
      </trkpt>
      <trkpt lat="40.528633" lon="-4.676083">
        <ele>2284.0</ele>
        <time>2016-06-11T15:21:38Z</time>
      </trkpt>
      <trkpt lat="40.528633" lon="-4.675917">
        <ele>2282.0</ele>
        <time>2016-06-11T15:21:39Z</time>
      </trkpt>
      <trkpt lat="40.528650" lon="-4.675750">
        <ele>2280.0</ele>
        <time>2016-06-11T15:21:40Z</time>
      </trkpt>
      <trkpt lat="40.528650" lon="-4.675583">
        <ele>2279.0</ele>
        <time>2016-06-11T15:21:41Z</time>
      </trkpt>
      <trkpt lat="40.528667" lon="-4.675433">
        <ele>2278.0</ele>
        <time>2016-06-11T15:21:42Z</time>
      </trkpt>
      <trkpt lat="40.528683" lon="-4.675300">
        <ele>2277.0</ele>
        <time>2016-06-11T15:21:43Z</time>
      </trkpt>
      <trkpt lat="40.528717" lon="-4.675167">
        <ele>2275.0</ele>
        <time>2016-06-11T15:21:44Z</time>
      </trkpt>
      <trkpt lat="40.528733" lon="-4.675017">
        <ele>2272.0</ele>
        <time>2016-06-11T15:21:45Z</time>
      </trkpt>
      <trkpt lat="40.528750" lon="-4.674883">
        <ele>2269.0</ele>
        <time>2016-06-11T15:21:46Z</time>
      </trkpt>
      <trkpt lat="40.528783" lon="-4.674750">
        <ele>2266.0</ele>
        <time>2016-06-11T15:21:47Z</time>
      </trkpt>
      <trkpt lat="40.528817" lon="-4.674617">
        <ele>2262.0</ele>
        <time>2016-06-11T15:21:48Z</time>
      </trkpt>
      <trkpt lat="40.528867" lon="-4.674483">
        <ele>2259.0</ele>
        <time>2016-06-11T15:21:49Z</time>
      </trkpt>
      <trkpt lat="40.528900" lon="-4.674333">
        <ele>2257.0</ele>
        <time>2016-06-11T15:21:50Z</time>
      </trkpt>
      <trkpt lat="40.528917" lon="-4.674200">
        <ele>2255.0</ele>
        <time>2016-06-11T15:21:51Z</time>
      </trkpt>
      <trkpt lat="40.528950" lon="-4.674050">
        <ele>2253.0</ele>
        <time>2016-06-11T15:21:52Z</time>
      </trkpt>
      <trkpt lat="40.528967" lon="-4.673917">
        <ele>2250.0</ele>
        <time>2016-06-11T15:21:53Z</time>
      </trkpt>
      <trkpt lat="40.528967" lon="-4.673767">
        <ele>2247.0</ele>
        <time>2016-06-11T15:21:54Z</time>
      </trkpt>
      <trkpt lat="40.528983" lon="-4.673583">
        <ele>2244.0</ele>
        <time>2016-06-11T15:21:55Z</time>
      </trkpt>
      <trkpt lat="40.529017" lon="-4.673417">
        <ele>2242.0</ele>
        <time>2016-06-11T15:21:56Z</time>
      </trkpt>
      <trkpt lat="40.529050" lon="-4.673267">
        <ele>2241.0</ele>
        <time>2016-06-11T15:21:57Z</time>
      </trkpt>
      <trkpt lat="40.529100" lon="-4.673117">
        <ele>2241.0</ele>
        <time>2016-06-11T15:21:58Z</time>
      </trkpt>
      <trkpt lat="40.529117" lon="-4.672983">
        <ele>2240.0</ele>
        <time>2016-06-11T15:21:59Z</time>
      </trkpt>
      <trkpt lat="40.529150" lon="-4.672833">
        <ele>2239.0</ele>
        <time>2016-06-11T15:22:00Z</time>
      </trkpt>
      <trkpt lat="40.529167" lon="-4.672700">
        <ele>2238.0</ele>
        <time>2016-06-11T15:22:01Z</time>
      </trkpt>
      <trkpt lat="40.529217" lon="-4.672567">
        <ele>2236.0</ele>
        <time>2016-06-11T15:22:02Z</time>
      </trkpt>
      <trkpt lat="40.529267" lon="-4.672467">
        <ele>2234.0</ele>
        <time>2016-06-11T15:22:03Z</time>
      </trkpt>
      <trkpt lat="40.529300" lon="-4.672350">
        <ele>2233.0</ele>
        <time>2016-06-11T15:22:04Z</time>
      </trkpt>
      <trkpt lat="40.529350" lon="-4.672250">
        <ele>2231.0</ele>
        <time>2016-06-11T15:22:05Z</time>
      </trkpt>
      <trkpt lat="40.529383" lon="-4.672150">
        <ele>2228.0</ele>
        <time>2016-06-11T15:22:06Z</time>
      </trkpt>
      <trkpt lat="40.529433" lon="-4.672033">
        <ele>2225.0</ele>
        <time>2016-06-11T15:22:07Z</time>
      </trkpt>
      <trkpt lat="40.529483" lon="-4.671933">
        <ele>2223.0</ele>
        <time>2016-06-11T15:22:08Z</time>
      </trkpt>
      <trkpt lat="40.529533" lon="-4.671800">
        <ele>2220.0</ele>
        <time>2016-06-11T15:22:09Z</time>
      </trkpt>
      <trkpt lat="40.529583" lon="-4.671683">
        <ele>2217.0</ele>
        <time>2016-06-11T15:22:10Z</time>
      </trkpt>
      <trkpt lat="40.529617" lon="-4.671550">
        <ele>2215.0</ele>
        <time>2016-06-11T15:22:11Z</time>
      </trkpt>
      <trkpt lat="40.529650" lon="-4.671400">
        <ele>2213.0</ele>
        <time>2016-06-11T15:22:12Z</time>
      </trkpt>
      <trkpt lat="40.529683" lon="-4.671233">
        <ele>2211.0</ele>
        <time>2016-06-11T15:22:13Z</time>
      </trkpt>
      <trkpt lat="40.529700" lon="-4.671050">
        <ele>2208.0</ele>
        <time>2016-06-11T15:22:14Z</time>
      </trkpt>
      <trkpt lat="40.529717" lon="-4.670867">
        <ele>2207.0</ele>
        <time>2016-06-11T15:22:15Z</time>
      </trkpt>
      <trkpt lat="40.529733" lon="-4.670700">
        <ele>2206.0</ele>
        <time>2016-06-11T15:22:16Z</time>
      </trkpt>
      <trkpt lat="40.529750" lon="-4.670517">
        <ele>2205.0</ele>
        <time>2016-06-11T15:22:17Z</time>
      </trkpt>
      <trkpt lat="40.529750" lon="-4.670333">
        <ele>2203.0</ele>
        <time>2016-06-11T15:22:18Z</time>
      </trkpt>
      <trkpt lat="40.529750" lon="-4.670133">
        <ele>2201.0</ele>
        <time>2016-06-11T15:22:19Z</time>
      </trkpt>
      <trkpt lat="40.529733" lon="-4.669933">
        <ele>2198.0</ele>
        <time>2016-06-11T15:22:20Z</time>
      </trkpt>
      <trkpt lat="40.529733" lon="-4.669750">
        <ele>2196.0</ele>
        <time>2016-06-11T15:22:21Z</time>
      </trkpt>
      <trkpt lat="40.529750" lon="-4.669567">
        <ele>2195.0</ele>
        <time>2016-06-11T15:22:22Z</time>
      </trkpt>
      <trkpt lat="40.529750" lon="-4.669400">
        <ele>2194.0</ele>
        <time>2016-06-11T15:22:23Z</time>
      </trkpt>
      <trkpt lat="40.529767" lon="-4.669233">
        <ele>2192.0</ele>
        <time>2016-06-11T15:22:24Z</time>
      </trkpt>
      <trkpt lat="40.529767" lon="-4.669067">
        <ele>2189.0</ele>
        <time>2016-06-11T15:22:25Z</time>
      </trkpt>
      <trkpt lat="40.529783" lon="-4.668883">
        <ele>2185.0</ele>
        <time>2016-06-11T15:22:26Z</time>
      </trkpt>
      <trkpt lat="40.529800" lon="-4.668717">
        <ele>2181.0</ele>
        <time>2016-06-11T15:22:27Z</time>
      </trkpt>
      <trkpt lat="40.529817" lon="-4.668533">
        <ele>2178.0</ele>
        <time>2016-06-11T15:22:28Z</time>
      </trkpt>
      <trkpt lat="40.529833" lon="-4.668367">
        <ele>2176.0</ele>
        <time>2016-06-11T15:22:29Z</time>
      </trkpt>
      <trkpt lat="40.529850" lon="-4.668217">
        <ele>2174.0</ele>
        <time>2016-06-11T15:22:30Z</time>
      </trkpt>
      <trkpt lat="40.529883" lon="-4.668067">
        <ele>2171.0</ele>
        <time>2016-06-11T15:22:31Z</time>
      </trkpt>
      <trkpt lat="40.529900" lon="-4.667900">
        <ele>2169.0</ele>
        <time>2016-06-11T15:22:32Z</time>
      </trkpt>
      <trkpt lat="40.529917" lon="-4.667733">
        <ele>2167.0</ele>
        <time>2016-06-11T15:22:33Z</time>
      </trkpt>
      <trkpt lat="40.529950" lon="-4.667583">
        <ele>2165.0</ele>
        <time>2016-06-11T15:22:34Z</time>
      </trkpt>
      <trkpt lat="40.529983" lon="-4.667450">
        <ele>2163.0</ele>
        <time>2016-06-11T15:22:35Z</time>
      </trkpt>
      <trkpt lat="40.530017" lon="-4.667300">
        <ele>2161.0</ele>
        <time>2016-06-11T15:22:36Z</time>
      </trkpt>
      <trkpt lat="40.530033" lon="-4.667133">
        <ele>2159.0</ele>
        <time>2016-06-11T15:22:37Z</time>
      </trkpt>
      <trkpt lat="40.530050" lon="-4.666983">
        <ele>2157.0</ele>
        <time>2016-06-11T15:22:38Z</time>
      </trkpt>
      <trkpt lat="40.530067" lon="-4.666833">
        <ele>2155.0</ele>
        <time>2016-06-11T15:22:39Z</time>
      </trkpt>
      <trkpt lat="40.530100" lon="-4.666667">
        <ele>2152.0</ele>
        <time>2016-06-11T15:22:40Z</time>
      </trkpt>
      <trkpt lat="40.530133" lon="-4.666517">
        <ele>2149.0</ele>
        <time>2016-06-11T15:22:41Z</time>
      </trkpt>
      <trkpt lat="40.530167" lon="-4.666333">
        <ele>2147.0</ele>
        <time>2016-06-11T15:22:42Z</time>
      </trkpt>
      <trkpt lat="40.530183" lon="-4.666150">
        <ele>2145.0</ele>
        <time>2016-06-11T15:22:43Z</time>
      </trkpt>
      <trkpt lat="40.530217" lon="-4.665983">
        <ele>2143.0</ele>
        <time>2016-06-11T15:22:44Z</time>
      </trkpt>
      <trkpt lat="40.530233" lon="-4.665817">
        <ele>2141.0</ele>
        <time>2016-06-11T15:22:45Z</time>
      </trkpt>
      <trkpt lat="40.530267" lon="-4.665650">
        <ele>2139.0</ele>
        <time>2016-06-11T15:22:46Z</time>
      </trkpt>
      <trkpt lat="40.530300" lon="-4.665483">
        <ele>2136.0</ele>
        <time>2016-06-11T15:22:47Z</time>
      </trkpt>
      <trkpt lat="40.530317" lon="-4.665300">
        <ele>2133.0</ele>
        <time>2016-06-11T15:22:48Z</time>
      </trkpt>
      <trkpt lat="40.530350" lon="-4.665117">
        <ele>2131.0</ele>
        <time>2016-06-11T15:22:49Z</time>
      </trkpt>
      <trkpt lat="40.530367" lon="-4.664950">
        <ele>2129.0</ele>
        <time>2016-06-11T15:22:50Z</time>
      </trkpt>
      <trkpt lat="40.530400" lon="-4.664783">
        <ele>2127.0</ele>
        <time>2016-06-11T15:22:51Z</time>
      </trkpt>
      <trkpt lat="40.530417" lon="-4.664617">
        <ele>2125.0</ele>
        <time>2016-06-11T15:22:52Z</time>
      </trkpt>
      <trkpt lat="40.530433" lon="-4.664433">
        <ele>2122.0</ele>
        <time>2016-06-11T15:22:53Z</time>
      </trkpt>
      <trkpt lat="40.530467" lon="-4.664267">
        <ele>2119.0</ele>
        <time>2016-06-11T15:22:54Z</time>
      </trkpt>
      <trkpt lat="40.530500" lon="-4.664083">
        <ele>2116.0</ele>
        <time>2016-06-11T15:22:55Z</time>
      </trkpt>
      <trkpt lat="40.530517" lon="-4.663917">
        <ele>2115.0</ele>
        <time>2016-06-11T15:22:56Z</time>
      </trkpt>
      <trkpt lat="40.530550" lon="-4.663750">
        <ele>2114.0</ele>
        <time>2016-06-11T15:22:57Z</time>
      </trkpt>
      <trkpt lat="40.530550" lon="-4.663600">
        <ele>2114.0</ele>
        <time>2016-06-11T15:22:58Z</time>
      </trkpt>
      <trkpt lat="40.530550" lon="-4.663450">
        <ele>2113.0</ele>
        <time>2016-06-11T15:22:59Z</time>
      </trkpt>
      <trkpt lat="40.530550" lon="-4.663283">
        <ele>2111.0</ele>
        <time>2016-06-11T15:23:00Z</time>
      </trkpt>
      <trkpt lat="40.530533" lon="-4.663117">
        <ele>2108.0</ele>
        <time>2016-06-11T15:23:01Z</time>
      </trkpt>
      <trkpt lat="40.530533" lon="-4.662950">
        <ele>2105.0</ele>
        <time>2016-06-11T15:23:02Z</time>
      </trkpt>
      <trkpt lat="40.530517" lon="-4.662767">
        <ele>2101.0</ele>
        <time>2016-06-11T15:23:03Z</time>
      </trkpt>
      <trkpt lat="40.530500" lon="-4.662567">
        <ele>2099.0</ele>
        <time>2016-06-11T15:23:04Z</time>
      </trkpt>
      <trkpt lat="40.530483" lon="-4.662367">
        <ele>2097.0</ele>
        <time>2016-06-11T15:23:05Z</time>
      </trkpt>
      <trkpt lat="40.530483" lon="-4.662183">
        <ele>2095.0</ele>
        <time>2016-06-11T15:23:06Z</time>
      </trkpt>
      <trkpt lat="40.530517" lon="-4.662017">
        <ele>2093.0</ele>
        <time>2016-06-11T15:23:07Z</time>
      </trkpt>
      <trkpt lat="40.530517" lon="-4.661850">
        <ele>2091.0</ele>
        <time>2016-06-11T15:23:08Z</time>
      </trkpt>
      <trkpt lat="40.530500" lon="-4.661683">
        <ele>2089.0</ele>
        <time>2016-06-11T15:23:09Z</time>
      </trkpt>
      <trkpt lat="40.530483" lon="-4.661517">
        <ele>2086.0</ele>
        <time>2016-06-11T15:23:10Z</time>
      </trkpt>
      <trkpt lat="40.530483" lon="-4.661333">
        <ele>2083.0</ele>
        <time>2016-06-11T15:23:11Z</time>
      </trkpt>
      <trkpt lat="40.530500" lon="-4.661167">
        <ele>2079.0</ele>
        <time>2016-06-11T15:23:12Z</time>
      </trkpt>
      <trkpt lat="40.530517" lon="-4.661000">
        <ele>2075.0</ele>
        <time>2016-06-11T15:23:13Z</time>
      </trkpt>
      <trkpt lat="40.530517" lon="-4.660817">
        <ele>2072.0</ele>
        <time>2016-06-11T15:23:14Z</time>
      </trkpt>
      <trkpt lat="40.530517" lon="-4.660650">
        <ele>2069.0</ele>
        <time>2016-06-11T15:23:15Z</time>
      </trkpt>
      <trkpt lat="40.530500" lon="-4.660467">
        <ele>2065.0</ele>
        <time>2016-06-11T15:23:16Z</time>
      </trkpt>
      <trkpt lat="40.530500" lon="-4.660300">
        <ele>2061.0</ele>
        <time>2016-06-11T15:23:17Z</time>
      </trkpt>
      <trkpt lat="40.530517" lon="-4.660117">
        <ele>2057.0</ele>
        <time>2016-06-11T15:23:18Z</time>
      </trkpt>
      <trkpt lat="40.530533" lon="-4.659933">
        <ele>2053.0</ele>
        <time>2016-06-11T15:23:19Z</time>
      </trkpt>
      <trkpt lat="40.530550" lon="-4.659733">
        <ele>2050.0</ele>
        <time>2016-06-11T15:23:20Z</time>
      </trkpt>
      <trkpt lat="40.530533" lon="-4.659533">
        <ele>2049.0</ele>
        <time>2016-06-11T15:23:21Z</time>
      </trkpt>
      <trkpt lat="40.530533" lon="-4.659350">
        <ele>2048.0</ele>
        <time>2016-06-11T15:23:22Z</time>
      </trkpt>
      <trkpt lat="40.530517" lon="-4.659183">
        <ele>2046.0</ele>
        <time>2016-06-11T15:23:23Z</time>
      </trkpt>
      <trkpt lat="40.530517" lon="-4.659000">
        <ele>2043.0</ele>
        <time>2016-06-11T15:23:24Z</time>
      </trkpt>
      <trkpt lat="40.530517" lon="-4.658817">
        <ele>2039.0</ele>
        <time>2016-06-11T15:23:25Z</time>
      </trkpt>
      <trkpt lat="40.530533" lon="-4.658633">
        <ele>2036.0</ele>
        <time>2016-06-11T15:23:26Z</time>
      </trkpt>
      <trkpt lat="40.530550" lon="-4.658433">
        <ele>2034.0</ele>
        <time>2016-06-11T15:23:27Z</time>
      </trkpt>
      <trkpt lat="40.530567" lon="-4.658267">
        <ele>2033.0</ele>
        <time>2016-06-11T15:23:28Z</time>
      </trkpt>
      <trkpt lat="40.530600" lon="-4.658083">
        <ele>2031.0</ele>
        <time>2016-06-11T15:23:29Z</time>
      </trkpt>
      <trkpt lat="40.530617" lon="-4.657900">
        <ele>2029.0</ele>
        <time>2016-06-11T15:23:30Z</time>
      </trkpt>
      <trkpt lat="40.530633" lon="-4.657733">
        <ele>2026.0</ele>
        <time>2016-06-11T15:23:31Z</time>
      </trkpt>
      <trkpt lat="40.530650" lon="-4.657550">
        <ele>2023.0</ele>
        <time>2016-06-11T15:23:32Z</time>
      </trkpt>
      <trkpt lat="40.530650" lon="-4.657367">
        <ele>2019.0</ele>
        <time>2016-06-11T15:23:33Z</time>
      </trkpt>
      <trkpt lat="40.530667" lon="-4.657183">
        <ele>2016.0</ele>
        <time>2016-06-11T15:23:34Z</time>
      </trkpt>
      <trkpt lat="40.530683" lon="-4.656983">
        <ele>2012.0</ele>
        <time>2016-06-11T15:23:35Z</time>
      </trkpt>
      <trkpt lat="40.530700" lon="-4.656783">
        <ele>2009.0</ele>
        <time>2016-06-11T15:23:36Z</time>
      </trkpt>
      <trkpt lat="40.530717" lon="-4.656583">
        <ele>2006.0</ele>
        <time>2016-06-11T15:23:37Z</time>
      </trkpt>
      <trkpt lat="40.530717" lon="-4.656383">
        <ele>2004.0</ele>
        <time>2016-06-11T15:23:38Z</time>
      </trkpt>
      <trkpt lat="40.530700" lon="-4.656183">
        <ele>2002.0</ele>
        <time>2016-06-11T15:23:39Z</time>
      </trkpt>
      <trkpt lat="40.530683" lon="-4.656000">
        <ele>1999.0</ele>
        <time>2016-06-11T15:23:40Z</time>
      </trkpt>
      <trkpt lat="40.530667" lon="-4.655800">
        <ele>1995.0</ele>
        <time>2016-06-11T15:23:41Z</time>
      </trkpt>
      <trkpt lat="40.530667" lon="-4.655600">
        <ele>1991.0</ele>
        <time>2016-06-11T15:23:42Z</time>
      </trkpt>
      <trkpt lat="40.530667" lon="-4.655383">
        <ele>1986.0</ele>
        <time>2016-06-11T15:23:43Z</time>
      </trkpt>
      <trkpt lat="40.530667" lon="-4.655183">
        <ele>1983.0</ele>
        <time>2016-06-11T15:23:44Z</time>
      </trkpt>
      <trkpt lat="40.530650" lon="-4.654983">
        <ele>1980.0</ele>
        <time>2016-06-11T15:23:45Z</time>
      </trkpt>
      <trkpt lat="40.530633" lon="-4.654783">
        <ele>1976.0</ele>
        <time>2016-06-11T15:23:46Z</time>
      </trkpt>
      <trkpt lat="40.530633" lon="-4.654583">
        <ele>1972.0</ele>
        <time>2016-06-11T15:23:47Z</time>
      </trkpt>
      <trkpt lat="40.530617" lon="-4.654383">
        <ele>1967.0</ele>
        <time>2016-06-11T15:23:48Z</time>
      </trkpt>
      <trkpt lat="40.530633" lon="-4.654167">
        <ele>1963.0</ele>
        <time>2016-06-11T15:23:49Z</time>
      </trkpt>
      <trkpt lat="40.530617" lon="-4.653950">
        <ele>1960.0</ele>
        <time>2016-06-11T15:23:50Z</time>
      </trkpt>
      <trkpt lat="40.530600" lon="-4.653750">
        <ele>1957.0</ele>
        <time>2016-06-11T15:23:51Z</time>
      </trkpt>
      <trkpt lat="40.530583" lon="-4.653550">
        <ele>1955.0</ele>
        <time>2016-06-11T15:23:52Z</time>
      </trkpt>
      <trkpt lat="40.530567" lon="-4.653367">
        <ele>1953.0</ele>
        <time>2016-06-11T15:23:53Z</time>
      </trkpt>
      <trkpt lat="40.530567" lon="-4.653167">
        <ele>1950.0</ele>
        <time>2016-06-11T15:23:54Z</time>
      </trkpt>
      <trkpt lat="40.530567" lon="-4.652983">
        <ele>1947.0</ele>
        <time>2016-06-11T15:23:55Z</time>
      </trkpt>
      <trkpt lat="40.530550" lon="-4.652800">
        <ele>1944.0</ele>
        <time>2016-06-11T15:23:56Z</time>
      </trkpt>
      <trkpt lat="40.530550" lon="-4.652600">
        <ele>1941.0</ele>
        <time>2016-06-11T15:23:57Z</time>
      </trkpt>
      <trkpt lat="40.530517" lon="-4.652417">
        <ele>1939.0</ele>
        <time>2016-06-11T15:23:58Z</time>
      </trkpt>
      <trkpt lat="40.530483" lon="-4.652233">
        <ele>1936.0</ele>
        <time>2016-06-11T15:23:59Z</time>
      </trkpt>
      <trkpt lat="40.530467" lon="-4.652050">
        <ele>1933.0</ele>
        <time>2016-06-11T15:24:00Z</time>
      </trkpt>
      <trkpt lat="40.530450" lon="-4.651867">
        <ele>1929.0</ele>
        <time>2016-06-11T15:24:01Z</time>
      </trkpt>
      <trkpt lat="40.530450" lon="-4.651667">
        <ele>1925.0</ele>
        <time>2016-06-11T15:24:02Z</time>
      </trkpt>
      <trkpt lat="40.530433" lon="-4.651467">
        <ele>1922.0</ele>
        <time>2016-06-11T15:24:03Z</time>
      </trkpt>
      <trkpt lat="40.530417" lon="-4.651283">
        <ele>1920.0</ele>
        <time>2016-06-11T15:24:04Z</time>
      </trkpt>
      <trkpt lat="40.530400" lon="-4.651117">
        <ele>1917.0</ele>
        <time>2016-06-11T15:24:05Z</time>
      </trkpt>
      <trkpt lat="40.530383" lon="-4.650933">
        <ele>1914.0</ele>
        <time>2016-06-11T15:24:06Z</time>
      </trkpt>
      <trkpt lat="40.530383" lon="-4.650750">
        <ele>1910.0</ele>
        <time>2016-06-11T15:24:07Z</time>
      </trkpt>
      <trkpt lat="40.530383" lon="-4.650567">
        <ele>1907.0</ele>
        <time>2016-06-11T15:24:08Z</time>
      </trkpt>
      <trkpt lat="40.530367" lon="-4.650383">
        <ele>1904.0</ele>
        <time>2016-06-11T15:24:09Z</time>
      </trkpt>
      <trkpt lat="40.530367" lon="-4.650200">
        <ele>1902.0</ele>
        <time>2016-06-11T15:24:10Z</time>
      </trkpt>
      <trkpt lat="40.530333" lon="-4.650033">
        <ele>1900.0</ele>
        <time>2016-06-11T15:24:11Z</time>
      </trkpt>
      <trkpt lat="40.530317" lon="-4.649850">
        <ele>1897.0</ele>
        <time>2016-06-11T15:24:12Z</time>
      </trkpt>
      <trkpt lat="40.530317" lon="-4.649667">
        <ele>1894.0</ele>
        <time>2016-06-11T15:24:13Z</time>
      </trkpt>
      <trkpt lat="40.530300" lon="-4.649483">
        <ele>1891.0</ele>
        <time>2016-06-11T15:24:14Z</time>
      </trkpt>
      <trkpt lat="40.530317" lon="-4.649300">
        <ele>1888.0</ele>
        <time>2016-06-11T15:24:15Z</time>
      </trkpt>
      <trkpt lat="40.530300" lon="-4.649117">
        <ele>1886.0</ele>
        <time>2016-06-11T15:24:16Z</time>
      </trkpt>
      <trkpt lat="40.530283" lon="-4.648933">
        <ele>1884.0</ele>
        <time>2016-06-11T15:24:17Z</time>
      </trkpt>
      <trkpt lat="40.530267" lon="-4.648767">
        <ele>1882.0</ele>
        <time>2016-06-11T15:24:18Z</time>
      </trkpt>
      <trkpt lat="40.530250" lon="-4.648583">
        <ele>1879.0</ele>
        <time>2016-06-11T15:24:19Z</time>
      </trkpt>
      <trkpt lat="40.530233" lon="-4.648400">
        <ele>1875.0</ele>
        <time>2016-06-11T15:24:20Z</time>
      </trkpt>
      <trkpt lat="40.530233" lon="-4.648200">
        <ele>1872.0</ele>
        <time>2016-06-11T15:24:21Z</time>
      </trkpt>
      <trkpt lat="40.530217" lon="-4.648017">
        <ele>1870.0</ele>
        <time>2016-06-11T15:24:22Z</time>
      </trkpt>
      <trkpt lat="40.530200" lon="-4.647817">
        <ele>1868.0</ele>
        <time>2016-06-11T15:24:23Z</time>
      </trkpt>
      <trkpt lat="40.530183" lon="-4.647650">
        <ele>1867.0</ele>
        <time>2016-06-11T15:24:24Z</time>
      </trkpt>
      <trkpt lat="40.530150" lon="-4.647467">
        <ele>1864.0</ele>
        <time>2016-06-11T15:24:25Z</time>
      </trkpt>
      <trkpt lat="40.530117" lon="-4.647283">
        <ele>1861.0</ele>
        <time>2016-06-11T15:24:26Z</time>
      </trkpt>
      <trkpt lat="40.530100" lon="-4.647100">
        <ele>1857.0</ele>
        <time>2016-06-11T15:24:27Z</time>
      </trkpt>
      <trkpt lat="40.530083" lon="-4.646917">
        <ele>1853.0</ele>
        <time>2016-06-11T15:24:28Z</time>
      </trkpt>
      <trkpt lat="40.530067" lon="-4.646717">
        <ele>1848.0</ele>
        <time>2016-06-11T15:24:29Z</time>
      </trkpt>
      <trkpt lat="40.530050" lon="-4.646517">
        <ele>1845.0</ele>
        <time>2016-06-11T15:24:30Z</time>
      </trkpt>
      <trkpt lat="40.530050" lon="-4.646333">
        <ele>1842.0</ele>
        <time>2016-06-11T15:24:31Z</time>
      </trkpt>
      <trkpt lat="40.530033" lon="-4.646150">
        <ele>1840.0</ele>
        <time>2016-06-11T15:24:32Z</time>
      </trkpt>
      <trkpt lat="40.530033" lon="-4.645967">
        <ele>1836.0</ele>
        <time>2016-06-11T15:24:33Z</time>
      </trkpt>
      <trkpt lat="40.530033" lon="-4.645783">
        <ele>1832.0</ele>
        <time>2016-06-11T15:24:34Z</time>
      </trkpt>
      <trkpt lat="40.530033" lon="-4.645600">
        <ele>1829.0</ele>
        <time>2016-06-11T15:24:35Z</time>
      </trkpt>
      <trkpt lat="40.530050" lon="-4.645417">
        <ele>1825.0</ele>
        <time>2016-06-11T15:24:36Z</time>
      </trkpt>
      <trkpt lat="40.530050" lon="-4.645217">
        <ele>1822.0</ele>
        <time>2016-06-11T15:24:37Z</time>
      </trkpt>
      <trkpt lat="40.530033" lon="-4.645033">
        <ele>1819.0</ele>
        <time>2016-06-11T15:24:38Z</time>
      </trkpt>
      <trkpt lat="40.530033" lon="-4.644833">
        <ele>1816.0</ele>
        <time>2016-06-11T15:24:39Z</time>
      </trkpt>
      <trkpt lat="40.530017" lon="-4.644650">
        <ele>1813.0</ele>
        <time>2016-06-11T15:24:40Z</time>
      </trkpt>
      <trkpt lat="40.530017" lon="-4.644467">
        <ele>1810.0</ele>
        <time>2016-06-11T15:24:41Z</time>
      </trkpt>
      <trkpt lat="40.529983" lon="-4.644267">
        <ele>1806.0</ele>
        <time>2016-06-11T15:24:42Z</time>
      </trkpt>
      <trkpt lat="40.529967" lon="-4.644067">
        <ele>1801.0</ele>
        <time>2016-06-11T15:24:43Z</time>
      </trkpt>
      <trkpt lat="40.529933" lon="-4.643833">
        <ele>1795.0</ele>
        <time>2016-06-11T15:24:44Z</time>
      </trkpt>
      <trkpt lat="40.529917" lon="-4.643617">
        <ele>1790.0</ele>
        <time>2016-06-11T15:24:45Z</time>
      </trkpt>
      <trkpt lat="40.529900" lon="-4.643383">
        <ele>1786.0</ele>
        <time>2016-06-11T15:24:46Z</time>
      </trkpt>
      <trkpt lat="40.529883" lon="-4.643150">
        <ele>1783.0</ele>
        <time>2016-06-11T15:24:47Z</time>
      </trkpt>
      <trkpt lat="40.529883" lon="-4.642933">
        <ele>1780.0</ele>
        <time>2016-06-11T15:24:48Z</time>
      </trkpt>
      <trkpt lat="40.529883" lon="-4.642717">
        <ele>1777.0</ele>
        <time>2016-06-11T15:24:49Z</time>
      </trkpt>
      <trkpt lat="40.529867" lon="-4.642500">
        <ele>1775.0</ele>
        <time>2016-06-11T15:24:50Z</time>
      </trkpt>
      <trkpt lat="40.529850" lon="-4.642283">
        <ele>1772.0</ele>
        <time>2016-06-11T15:24:51Z</time>
      </trkpt>
      <trkpt lat="40.529850" lon="-4.642067">
        <ele>1769.0</ele>
        <time>2016-06-11T15:24:52Z</time>
      </trkpt>
      <trkpt lat="40.529850" lon="-4.641850">
        <ele>1766.0</ele>
        <time>2016-06-11T15:24:53Z</time>
      </trkpt>
      <trkpt lat="40.529867" lon="-4.641633">
        <ele>1763.0</ele>
        <time>2016-06-11T15:24:54Z</time>
      </trkpt>
      <trkpt lat="40.529883" lon="-4.641417">
        <ele>1760.0</ele>
        <time>2016-06-11T15:24:55Z</time>
      </trkpt>
      <trkpt lat="40.529900" lon="-4.641200">
        <ele>1756.0</ele>
        <time>2016-06-11T15:24:56Z</time>
      </trkpt>
      <trkpt lat="40.529917" lon="-4.640983">
        <ele>1753.0</ele>
        <time>2016-06-11T15:24:57Z</time>
      </trkpt>
      <trkpt lat="40.529933" lon="-4.640767">
        <ele>1750.0</ele>
        <time>2016-06-11T15:24:58Z</time>
      </trkpt>
      <trkpt lat="40.529967" lon="-4.640567">
        <ele>1747.0</ele>
        <time>2016-06-11T15:24:59Z</time>
      </trkpt>
      <trkpt lat="40.530000" lon="-4.640367">
        <ele>1743.0</ele>
        <time>2016-06-11T15:25:00Z</time>
      </trkpt>
      <trkpt lat="40.530033" lon="-4.640150">
        <ele>1740.0</ele>
        <time>2016-06-11T15:25:01Z</time>
      </trkpt>
      <trkpt lat="40.530050" lon="-4.639933">
        <ele>1736.0</ele>
        <time>2016-06-11T15:25:02Z</time>
      </trkpt>
      <trkpt lat="40.530083" lon="-4.639717">
        <ele>1733.0</ele>
        <time>2016-06-11T15:25:03Z</time>
      </trkpt>
      <trkpt lat="40.530117" lon="-4.639517">
        <ele>1731.0</ele>
        <time>2016-06-11T15:25:04Z</time>
      </trkpt>
      <trkpt lat="40.530133" lon="-4.639317">
        <ele>1728.0</ele>
        <time>2016-06-11T15:25:05Z</time>
      </trkpt>
      <trkpt lat="40.530167" lon="-4.639117">
        <ele>1725.0</ele>
        <time>2016-06-11T15:25:06Z</time>
      </trkpt>
      <trkpt lat="40.530217" lon="-4.638933">
        <ele>1721.0</ele>
        <time>2016-06-11T15:25:07Z</time>
      </trkpt>
      <trkpt lat="40.530250" lon="-4.638733">
        <ele>1718.0</ele>
        <time>2016-06-11T15:25:08Z</time>
      </trkpt>
      <trkpt lat="40.530300" lon="-4.638550">
        <ele>1715.0</ele>
        <time>2016-06-11T15:25:09Z</time>
      </trkpt>
      <trkpt lat="40.530333" lon="-4.638350">
        <ele>1712.0</ele>
        <time>2016-06-11T15:25:10Z</time>
      </trkpt>
      <trkpt lat="40.530383" lon="-4.638167">
        <ele>1709.0</ele>
        <time>2016-06-11T15:25:11Z</time>
      </trkpt>
      <trkpt lat="40.530433" lon="-4.637983">
        <ele>1706.0</ele>
        <time>2016-06-11T15:25:12Z</time>
      </trkpt>
      <trkpt lat="40.530483" lon="-4.637800">
        <ele>1703.0</ele>
        <time>2016-06-11T15:25:13Z</time>
      </trkpt>
      <trkpt lat="40.530533" lon="-4.637633">
        <ele>1701.0</ele>
        <time>2016-06-11T15:25:14Z</time>
      </trkpt>
      <trkpt lat="40.530567" lon="-4.637450">
        <ele>1699.0</ele>
        <time>2016-06-11T15:25:15Z</time>
      </trkpt>
      <trkpt lat="40.530600" lon="-4.637283">
        <ele>1697.0</ele>
        <time>2016-06-11T15:25:16Z</time>
      </trkpt>
      <trkpt lat="40.530650" lon="-4.637117">
        <ele>1694.0</ele>
        <time>2016-06-11T15:25:17Z</time>
      </trkpt>
      <trkpt lat="40.530700" lon="-4.636933">
        <ele>1690.0</ele>
        <time>2016-06-11T15:25:18Z</time>
      </trkpt>
      <trkpt lat="40.530733" lon="-4.636767">
        <ele>1687.0</ele>
        <time>2016-06-11T15:25:19Z</time>
      </trkpt>
      <trkpt lat="40.530800" lon="-4.636600">
        <ele>1684.0</ele>
        <time>2016-06-11T15:25:20Z</time>
      </trkpt>
      <trkpt lat="40.530850" lon="-4.636433">
        <ele>1681.0</ele>
        <time>2016-06-11T15:25:21Z</time>
      </trkpt>
      <trkpt lat="40.530917" lon="-4.636283">
        <ele>1679.0</ele>
        <time>2016-06-11T15:25:22Z</time>
      </trkpt>
      <trkpt lat="40.530967" lon="-4.636117">
        <ele>1676.0</ele>
        <time>2016-06-11T15:25:23Z</time>
      </trkpt>
      <trkpt lat="40.531017" lon="-4.635967">
        <ele>1673.0</ele>
        <time>2016-06-11T15:25:24Z</time>
      </trkpt>
      <trkpt lat="40.531067" lon="-4.635800">
        <ele>1670.0</ele>
        <time>2016-06-11T15:25:25Z</time>
      </trkpt>
      <trkpt lat="40.531117" lon="-4.635650">
        <ele>1667.0</ele>
        <time>2016-06-11T15:25:26Z</time>
      </trkpt>
      <trkpt lat="40.531183" lon="-4.635483">
        <ele>1664.0</ele>
        <time>2016-06-11T15:25:27Z</time>
      </trkpt>
      <trkpt lat="40.531233" lon="-4.635333">
        <ele>1662.0</ele>
        <time>2016-06-11T15:25:28Z</time>
      </trkpt>
      <trkpt lat="40.531300" lon="-4.635183">
        <ele>1660.0</ele>
        <time>2016-06-11T15:25:29Z</time>
      </trkpt>
      <trkpt lat="40.531350" lon="-4.635033">
        <ele>1658.0</ele>
        <time>2016-06-11T15:25:30Z</time>
      </trkpt>
      <trkpt lat="40.531400" lon="-4.634883">
        <ele>1657.0</ele>
        <time>2016-06-11T15:25:31Z</time>
      </trkpt>
      <trkpt lat="40.531467" lon="-4.634767">
        <ele>1656.0</ele>
        <time>2016-06-11T15:25:32Z</time>
      </trkpt>
      <trkpt lat="40.531517" lon="-4.634633">
        <ele>1654.0</ele>
        <time>2016-06-11T15:25:33Z</time>
      </trkpt>
      <trkpt lat="40.531567" lon="-4.634517">
        <ele>1653.0</ele>
        <time>2016-06-11T15:25:34Z</time>
      </trkpt>
      <trkpt lat="40.531617" lon="-4.634400">
        <ele>1651.0</ele>
        <time>2016-06-11T15:25:35Z</time>
      </trkpt>
      <trkpt lat="40.531683" lon="-4.634283">
        <ele>1649.0</ele>
        <time>2016-06-11T15:25:36Z</time>
      </trkpt>
      <trkpt lat="40.531750" lon="-4.634167">
        <ele>1648.0</ele>
        <time>2016-06-11T15:25:37Z</time>
      </trkpt>
      <trkpt lat="40.531833" lon="-4.634050">
        <ele>1647.0</ele>
        <time>2016-06-11T15:25:38Z</time>
      </trkpt>
      <trkpt lat="40.531883" lon="-4.633933">
        <ele>1649.0</ele>
        <time>2016-06-11T15:25:39Z</time>
      </trkpt>
      <trkpt lat="40.531917" lon="-4.633800">
        <ele>1649.0</ele>
        <time>2016-06-11T15:25:40Z</time>
      </trkpt>
      <trkpt lat="40.531950" lon="-4.633667">
        <ele>1649.0</ele>
        <time>2016-06-11T15:25:41Z</time>
      </trkpt>
      <trkpt lat="40.531983" lon="-4.633533">
        <ele>1647.0</ele>
        <time>2016-06-11T15:25:42Z</time>
      </trkpt>
      <trkpt lat="40.532033" lon="-4.633400">
        <ele>1646.0</ele>
        <time>2016-06-11T15:25:43Z</time>
      </trkpt>
      <trkpt lat="40.532100" lon="-4.633300">
        <ele>1644.0</ele>
        <time>2016-06-11T15:25:44Z</time>
      </trkpt>
      <trkpt lat="40.532150" lon="-4.633200">
        <ele>1644.0</ele>
        <time>2016-06-11T15:25:45Z</time>
      </trkpt>
      <trkpt lat="40.532200" lon="-4.633100">
        <ele>1644.0</ele>
        <time>2016-06-11T15:25:46Z</time>
      </trkpt>
      <trkpt lat="40.532250" lon="-4.633033">
        <ele>1644.0</ele>
        <time>2016-06-11T15:25:47Z</time>
      </trkpt>
      <trkpt lat="40.532283" lon="-4.632950">
        <ele>1644.0</ele>
        <time>2016-06-11T15:25:48Z</time>
      </trkpt>
      <trkpt lat="40.532317" lon="-4.632850">
        <ele>1642.0</ele>
        <time>2016-06-11T15:25:49Z</time>
      </trkpt>
      <trkpt lat="40.532367" lon="-4.632733">
        <ele>1640.0</ele>
        <time>2016-06-11T15:25:50Z</time>
      </trkpt>
      <trkpt lat="40.532417" lon="-4.632617">
        <ele>1639.0</ele>
        <time>2016-06-11T15:25:51Z</time>
      </trkpt>
      <trkpt lat="40.532450" lon="-4.632517">
        <ele>1639.0</ele>
        <time>2016-06-11T15:25:52Z</time>
      </trkpt>
      <trkpt lat="40.532467" lon="-4.632417">
        <ele>1641.0</ele>
        <time>2016-06-11T15:25:53Z</time>
      </trkpt>
      <trkpt lat="40.532467" lon="-4.632333">
        <ele>1642.0</ele>
        <time>2016-06-11T15:25:54Z</time>
      </trkpt>
      <trkpt lat="40.532483" lon="-4.632250">
        <ele>1641.0</ele>
        <time>2016-06-11T15:25:55Z</time>
      </trkpt>
      <trkpt lat="40.532500" lon="-4.632167">
        <ele>1639.0</ele>
        <time>2016-06-11T15:25:56Z</time>
      </trkpt>
      <trkpt lat="40.532550" lon="-4.632083">
        <ele>1636.0</ele>
        <time>2016-06-11T15:25:57Z</time>
      </trkpt>
      <trkpt lat="40.532600" lon="-4.632033">
        <ele>1635.0</ele>
        <time>2016-06-11T15:25:58Z</time>
      </trkpt>
      <trkpt lat="40.532633" lon="-4.632000">
        <ele>1636.0</ele>
        <time>2016-06-11T15:25:59Z</time>
      </trkpt>
      <trkpt lat="40.532667" lon="-4.632000">
        <ele>1638.0</ele>
        <time>2016-06-11T15:26:00Z</time>
      </trkpt>
      <trkpt lat="40.532683" lon="-4.631983">
        <ele>1640.0</ele>
        <time>2016-06-11T15:26:01Z</time>
      </trkpt>
      <trkpt lat="40.532700" lon="-4.631967">
        <ele>1640.0</ele>
        <time>2016-06-11T15:26:02Z</time>
      </trkpt>
      <trkpt lat="40.532717" lon="-4.631933">
        <ele>1639.0</ele>
        <time>2016-06-11T15:26:03Z</time>
      </trkpt>
      <trkpt lat="40.532750" lon="-4.631917">
        <ele>1637.0</ele>
        <time>2016-06-11T15:26:04Z</time>
      </trkpt>
      <trkpt lat="40.532783" lon="-4.631883">
        <ele>1635.0</ele>
        <time>2016-06-11T15:26:05Z</time>
      </trkpt>
      <trkpt lat="40.532833" lon="-4.631867">
        <ele>1634.0</ele>
        <time>2016-06-11T15:26:06Z</time>
      </trkpt>
      <trkpt lat="40.532883" lon="-4.631850">
        <ele>1634.0</ele>
        <time>2016-06-11T15:26:07Z</time>
      </trkpt>
      <trkpt lat="40.532917" lon="-4.631850">
        <ele>1635.0</ele>
        <time>2016-06-11T15:26:08Z</time>
      </trkpt>
      <trkpt lat="40.532950" lon="-4.631850">
        <ele>1636.0</ele>
        <time>2016-06-11T15:26:09Z</time>
      </trkpt>
      <trkpt lat="40.532967" lon="-4.631833">
        <ele>1637.0</ele>
        <time>2016-06-11T15:26:10Z</time>
      </trkpt>
      <trkpt lat="40.533000" lon="-4.631817">
        <ele>1637.0</ele>
        <time>2016-06-11T15:26:11Z</time>
      </trkpt>
      <trkpt lat="40.533033" lon="-4.631783">
        <ele>1636.0</ele>
        <time>2016-06-11T15:26:12Z</time>
      </trkpt>
      <trkpt lat="40.533067" lon="-4.631783">
        <ele>1634.0</ele>
        <time>2016-06-11T15:26:13Z</time>
      </trkpt>
      <trkpt lat="40.533117" lon="-4.631783">
        <ele>1633.0</ele>
        <time>2016-06-11T15:26:14Z</time>
      </trkpt>
      <trkpt lat="40.533150" lon="-4.631783">
        <ele>1634.0</ele>
        <time>2016-06-11T15:26:15Z</time>
      </trkpt>
      <trkpt lat="40.533183" lon="-4.631783">
        <ele>1635.0</ele>
        <time>2016-06-11T15:26:16Z</time>
      </trkpt>
      <trkpt lat="40.533200" lon="-4.631767">
        <ele>1635.0</ele>
        <time>2016-06-11T15:26:17Z</time>
      </trkpt>
      <trkpt lat="40.533217" lon="-4.631733">
        <ele>1635.0</ele>
        <time>2016-06-11T15:26:18Z</time>
      </trkpt>
      <trkpt lat="40.533250" lon="-4.631733">
        <ele>1634.0</ele>
        <time>2016-06-11T15:26:19Z</time>
      </trkpt>
      <trkpt lat="40.533267" lon="-4.631733">
        <ele>1633.0</ele>
        <time>2016-06-11T15:26:20Z</time>
      </trkpt>
      <trkpt lat="40.533300" lon="-4.631733">
        <ele>1634.0</ele>
        <time>2016-06-11T15:26:21Z</time>
      </trkpt>
      <trkpt lat="40.533333" lon="-4.631717">
        <ele>1634.0</ele>
        <time>2016-06-11T15:26:22Z</time>
      </trkpt>
      <trkpt lat="40.533367" lon="-4.631700">
        <ele>1633.0</ele>
        <time>2016-06-11T15:26:23Z</time>
      </trkpt>
      <trkpt lat="40.533400" lon="-4.631683">
        <ele>1633.0</ele>
        <time>2016-06-11T15:26:24Z</time>
      </trkpt>
      <trkpt lat="40.533433" lon="-4.631683">
        <ele>1634.0</ele>
        <time>2016-06-11T15:26:25Z</time>
      </trkpt>
      <trkpt lat="40.533450" lon="-4.631683">
        <ele>1634.0</ele>
        <time>2016-06-11T15:26:26Z</time>
      </trkpt>
      <trkpt lat="40.533450" lon="-4.631700">
        <ele>1635.0</ele>
        <time>2016-06-11T15:26:27Z</time>
      </trkpt>
      <trkpt lat="40.533467" lon="-4.631700">
        <ele>1634.0</ele>
        <time>2016-06-11T15:26:28Z</time>
      </trkpt>
      <trkpt lat="40.533483" lon="-4.631717">
        <ele>1633.0</ele>
        <time>2016-06-11T15:26:29Z</time>
      </trkpt>
      <trkpt lat="40.533517" lon="-4.631750">
        <ele>1633.0</ele>
        <time>2016-06-11T15:26:30Z</time>
      </trkpt>
      <trkpt lat="40.533533" lon="-4.631783">
        <ele>1633.0</ele>
        <time>2016-06-11T15:26:31Z</time>
      </trkpt>
      <trkpt lat="40.533550" lon="-4.631800">
        <ele>1635.0</ele>
        <time>2016-06-11T15:26:32Z</time>
      </trkpt>
      <trkpt lat="40.533567" lon="-4.631800">
        <ele>1638.0</ele>
        <time>2016-06-11T15:26:33Z</time>
      </trkpt>
      <trkpt lat="40.533583" lon="-4.631783">
        <ele>1640.0</ele>
        <time>2016-06-11T15:26:34Z</time>
      </trkpt>
      <trkpt lat="40.533583" lon="-4.631783">
        <ele>1642.0</ele>
        <time>2016-06-11T15:26:35Z</time>
      </trkpt>
      <trkpt lat="40.533567" lon="-4.631800">
        <ele>1642.0</ele>
        <time>2016-06-11T15:26:36Z</time>
      </trkpt>
      <trkpt lat="40.533567" lon="-4.631833">
        <ele>1643.0</ele>
        <time>2016-06-11T15:26:37Z</time>
      </trkpt>
      <trkpt lat="40.533567" lon="-4.631867">
        <ele>1643.0</ele>
        <time>2016-06-11T15:26:38Z</time>
      </trkpt>
      <trkpt lat="40.533567" lon="-4.631900">
        <ele>1644.0</ele>
        <time>2016-06-11T15:26:39Z</time>
      </trkpt>
      <trkpt lat="40.533567" lon="-4.631933">
        <ele>1646.0</ele>
        <time>2016-06-11T15:26:40Z</time>
      </trkpt>
      <trkpt lat="40.533583" lon="-4.631967">
        <ele>1648.0</ele>
        <time>2016-06-11T15:26:41Z</time>
      </trkpt>
      <trkpt lat="40.533583" lon="-4.631983">
        <ele>1649.0</ele>
        <time>2016-06-11T15:26:42Z</time>
      </trkpt>
      <trkpt lat="40.533583" lon="-4.632017">
        <ele>1651.0</ele>
        <time>2016-06-11T15:26:43Z</time>
      </trkpt>
      <trkpt lat="40.533600" lon="-4.632050">
        <ele>1654.0</ele>
        <time>2016-06-11T15:26:44Z</time>
      </trkpt>
      <trkpt lat="40.533600" lon="-4.632083">
        <ele>1657.0</ele>
        <time>2016-06-11T15:26:45Z</time>
      </trkpt>
      <trkpt lat="40.533617" lon="-4.632100">
        <ele>1660.0</ele>
        <time>2016-06-11T15:26:46Z</time>
      </trkpt>
      <trkpt lat="40.533650" lon="-4.632100">
        <ele>1663.0</ele>
        <time>2016-06-11T15:26:47Z</time>
      </trkpt>
      <trkpt lat="40.533700" lon="-4.632050">
        <ele>1666.0</ele>
        <time>2016-06-11T15:26:48Z</time>
      </trkpt>
      <trkpt lat="40.533717" lon="-4.631983">
        <ele>1668.0</ele>
        <time>2016-06-11T15:26:49Z</time>
      </trkpt>
      <trkpt lat="40.533733" lon="-4.631917">
        <ele>1669.0</ele>
        <time>2016-06-11T15:26:50Z</time>
      </trkpt>
      <trkpt lat="40.533733" lon="-4.631867">
        <ele>1667.0</ele>
        <time>2016-06-11T15:26:51Z</time>
      </trkpt>
      <trkpt lat="40.533767" lon="-4.631833">
        <ele>1666.0</ele>
        <time>2016-06-11T15:26:52Z</time>
      </trkpt>
      <trkpt lat="40.533817" lon="-4.631783">
        <ele>1665.0</ele>
        <time>2016-06-11T15:26:53Z</time>
      </trkpt>
      <trkpt lat="40.533850" lon="-4.631750">
        <ele>1665.0</ele>
        <time>2016-06-11T15:26:54Z</time>
      </trkpt>
      <trkpt lat="40.533883" lon="-4.631733">
        <ele>1666.0</ele>
        <time>2016-06-11T15:26:55Z</time>
      </trkpt>
      <trkpt lat="40.533917" lon="-4.631717">
        <ele>1667.0</ele>
        <time>2016-06-11T15:26:56Z</time>
      </trkpt>
      <trkpt lat="40.533950" lon="-4.631700">
        <ele>1668.0</ele>
        <time>2016-06-11T15:26:57Z</time>
      </trkpt>
      <trkpt lat="40.533967" lon="-4.631683">
        <ele>1669.0</ele>
        <time>2016-06-11T15:26:58Z</time>
      </trkpt>
      <trkpt lat="40.534000" lon="-4.631650">
        <ele>1671.0</ele>
        <time>2016-06-11T15:26:59Z</time>
      </trkpt>
      <trkpt lat="40.534033" lon="-4.631633">
        <ele>1672.0</ele>
        <time>2016-06-11T15:27:00Z</time>
      </trkpt>
      <trkpt lat="40.534067" lon="-4.631633">
        <ele>1673.0</ele>
        <time>2016-06-11T15:27:01Z</time>
      </trkpt>
      <trkpt lat="40.534100" lon="-4.631633">
        <ele>1675.0</ele>
        <time>2016-06-11T15:27:02Z</time>
      </trkpt>
      <trkpt lat="40.534117" lon="-4.631633">
        <ele>1678.0</ele>
        <time>2016-06-11T15:27:03Z</time>
      </trkpt>
      <trkpt lat="40.534117" lon="-4.631633">
        <ele>1680.0</ele>
        <time>2016-06-11T15:27:04Z</time>
      </trkpt>
      <trkpt lat="40.534117" lon="-4.631617">
        <ele>1681.0</ele>
        <time>2016-06-11T15:27:05Z</time>
      </trkpt>
      <trkpt lat="40.534133" lon="-4.631617">
        <ele>1681.0</ele>
        <time>2016-06-11T15:27:06Z</time>
      </trkpt>
      <trkpt lat="40.534150" lon="-4.631617">
        <ele>1682.0</ele>
        <time>2016-06-11T15:27:07Z</time>
      </trkpt>
      <trkpt lat="40.534150" lon="-4.631633">
        <ele>1683.0</ele>
        <time>2016-06-11T15:27:08Z</time>
      </trkpt>
      <trkpt lat="40.534150" lon="-4.631650">
        <ele>1686.0</ele>
        <time>2016-06-11T15:27:09Z</time>
      </trkpt>
      <trkpt lat="40.534150" lon="-4.631667">
        <ele>1688.0</ele>
        <time>2016-06-11T15:27:10Z</time>
      </trkpt>
      <trkpt lat="40.534150" lon="-4.631683">
        <ele>1689.0</ele>
        <time>2016-06-11T15:27:11Z</time>
      </trkpt>
      <trkpt lat="40.534150" lon="-4.631700">
        <ele>1691.0</ele>
        <time>2016-06-11T15:27:12Z</time>
      </trkpt>
      <trkpt lat="40.534150" lon="-4.631717">
        <ele>1693.0</ele>
        <time>2016-06-11T15:27:13Z</time>
      </trkpt>
      <trkpt lat="40.534150" lon="-4.631733">
        <ele>1694.0</ele>
        <time>2016-06-11T15:27:14Z</time>
      </trkpt>
      <trkpt lat="40.534150" lon="-4.631750">
        <ele>1697.0</ele>
        <time>2016-06-11T15:27:15Z</time>
      </trkpt>
      <trkpt lat="40.534133" lon="-4.631767">
        <ele>1700.0</ele>
        <time>2016-06-11T15:27:16Z</time>
      </trkpt>
      <trkpt lat="40.534100" lon="-4.631767">
        <ele>1702.0</ele>
        <time>2016-06-11T15:27:17Z</time>
      </trkpt>
      <trkpt lat="40.534083" lon="-4.631767">
        <ele>1702.0</ele>
        <time>2016-06-11T15:27:18Z</time>
      </trkpt>
      <trkpt lat="40.534067" lon="-4.631783">
        <ele>1701.0</ele>
        <time>2016-06-11T15:27:19Z</time>
      </trkpt>
      <trkpt lat="40.534033" lon="-4.631817">
        <ele>1701.0</ele>
        <time>2016-06-11T15:27:20Z</time>
      </trkpt>
      <trkpt lat="40.533983" lon="-4.631850">
        <ele>1701.0</ele>
        <time>2016-06-11T15:27:21Z</time>
      </trkpt>
      <trkpt lat="40.533900" lon="-4.631883">
        <ele>1702.0</ele>
        <time>2016-06-11T15:27:22Z</time>
      </trkpt>
      <trkpt lat="40.533783" lon="-4.631900">
        <ele>1703.0</ele>
        <time>2016-06-11T15:27:23Z</time>
      </trkpt>
      <trkpt lat="40.533650" lon="-4.631883">
        <ele>1703.0</ele>
        <time>2016-06-11T15:27:24Z</time>
      </trkpt>
      <trkpt lat="40.533517" lon="-4.631817">
        <ele>1704.0</ele>
        <time>2016-06-11T15:27:25Z</time>
      </trkpt>
      <trkpt lat="40.533383" lon="-4.631717">
        <ele>1704.0</ele>
        <time>2016-06-11T15:27:26Z</time>
      </trkpt>
      <trkpt lat="40.533250" lon="-4.631600">
        <ele>1703.0</ele>
        <time>2016-06-11T15:27:27Z</time>
      </trkpt>
      <trkpt lat="40.533133" lon="-4.631450">
        <ele>1702.0</ele>
        <time>2016-06-11T15:27:28Z</time>
      </trkpt>
      <trkpt lat="40.533033" lon="-4.631300">
        <ele>1702.0</ele>
        <time>2016-06-11T15:27:29Z</time>
      </trkpt>
      <trkpt lat="40.532967" lon="-4.631133">
        <ele>1701.0</ele>
        <time>2016-06-11T15:27:30Z</time>
      </trkpt>
      <trkpt lat="40.532900" lon="-4.630950">
        <ele>1700.0</ele>
        <time>2016-06-11T15:27:31Z</time>
      </trkpt>
      <trkpt lat="40.532867" lon="-4.630783">
        <ele>1700.0</ele>
        <time>2016-06-11T15:27:32Z</time>
      </trkpt>
      <trkpt lat="40.532833" lon="-4.630617">
        <ele>1700.0</ele>
        <time>2016-06-11T15:27:33Z</time>
      </trkpt>
      <trkpt lat="40.532800" lon="-4.630467">
        <ele>1700.0</ele>
        <time>2016-06-11T15:27:34Z</time>
      </trkpt>
      <trkpt lat="40.532800" lon="-4.630317">
        <ele>1699.0</ele>
        <time>2016-06-11T15:27:35Z</time>
      </trkpt>
      <trkpt lat="40.532800" lon="-4.630183">
        <ele>1699.0</ele>
        <time>2016-06-11T15:27:36Z</time>
      </trkpt>
      <trkpt lat="40.532833" lon="-4.630033">
        <ele>1699.0</ele>
        <time>2016-06-11T15:27:37Z</time>
      </trkpt>
      <trkpt lat="40.532867" lon="-4.629900">
        <ele>1700.0</ele>
        <time>2016-06-11T15:27:38Z</time>
      </trkpt>
      <trkpt lat="40.532900" lon="-4.629767">
        <ele>1702.0</ele>
        <time>2016-06-11T15:27:39Z</time>
      </trkpt>
      <trkpt lat="40.532917" lon="-4.629667">
        <ele>1703.0</ele>
        <time>2016-06-11T15:27:40Z</time>
      </trkpt>
      <trkpt lat="40.532950" lon="-4.629583">
        <ele>1704.0</ele>
        <time>2016-06-11T15:27:41Z</time>
      </trkpt>
      <trkpt lat="40.532983" lon="-4.629483">
        <ele>1704.0</ele>
        <time>2016-06-11T15:27:42Z</time>
      </trkpt>
      <trkpt lat="40.533033" lon="-4.629383">
        <ele>1705.0</ele>
        <time>2016-06-11T15:27:43Z</time>
      </trkpt>
      <trkpt lat="40.533067" lon="-4.629300">
        <ele>1707.0</ele>
        <time>2016-06-11T15:27:44Z</time>
      </trkpt>
      <trkpt lat="40.533117" lon="-4.629233">
        <ele>1708.0</ele>
        <time>2016-06-11T15:27:45Z</time>
      </trkpt>
      <trkpt lat="40.533150" lon="-4.629167">
        <ele>1711.0</ele>
        <time>2016-06-11T15:27:46Z</time>
      </trkpt>
      <trkpt lat="40.533183" lon="-4.629100">
        <ele>1715.0</ele>
        <time>2016-06-11T15:27:47Z</time>
      </trkpt>
      <trkpt lat="40.533200" lon="-4.629050">
        <ele>1718.0</ele>
        <time>2016-06-11T15:27:48Z</time>
      </trkpt>
      <trkpt lat="40.533217" lon="-4.628983">
        <ele>1720.0</ele>
        <time>2016-06-11T15:27:49Z</time>
      </trkpt>
      <trkpt lat="40.533233" lon="-4.628933">
        <ele>1721.0</ele>
        <time>2016-06-11T15:27:50Z</time>
      </trkpt>
      <trkpt lat="40.533250" lon="-4.628883">
        <ele>1722.0</ele>
        <time>2016-06-11T15:27:51Z</time>
      </trkpt>
      <trkpt lat="40.533283" lon="-4.628833">
        <ele>1724.0</ele>
        <time>2016-06-11T15:27:52Z</time>
      </trkpt>
      <trkpt lat="40.533283" lon="-4.628767">
        <ele>1726.0</ele>
        <time>2016-06-11T15:27:53Z</time>
      </trkpt>
      <trkpt lat="40.533300" lon="-4.628683">
        <ele>1728.0</ele>
        <time>2016-06-11T15:27:54Z</time>
      </trkpt>
      <trkpt lat="40.533317" lon="-4.628600">
        <ele>1729.0</ele>
        <time>2016-06-11T15:27:55Z</time>
      </trkpt>
      <trkpt lat="40.533333" lon="-4.628533">
        <ele>1730.0</ele>
        <time>2016-06-11T15:27:56Z</time>
      </trkpt>
      <trkpt lat="40.533350" lon="-4.628467">
        <ele>1731.0</ele>
        <time>2016-06-11T15:27:57Z</time>
      </trkpt>
      <trkpt lat="40.533383" lon="-4.628417">
        <ele>1731.0</ele>
        <time>2016-06-11T15:27:58Z</time>
      </trkpt>
      <trkpt lat="40.533400" lon="-4.628367">
        <ele>1731.0</ele>
        <time>2016-06-11T15:27:59Z</time>
      </trkpt>
      <trkpt lat="40.533417" lon="-4.628350">
        <ele>1730.0</ele>
        <time>2016-06-11T15:28:00Z</time>
      </trkpt>
      <trkpt lat="40.533433" lon="-4.628350">
        <ele>1729.0</ele>
        <time>2016-06-11T15:28:01Z</time>
      </trkpt>
      <trkpt lat="40.533433" lon="-4.628350">
        <ele>1727.0</ele>
        <time>2016-06-11T15:28:02Z</time>
      </trkpt>
      <trkpt lat="40.533450" lon="-4.628367">
        <ele>1726.0</ele>
        <time>2016-06-11T15:28:03Z</time>
      </trkpt>
      <trkpt lat="40.533483" lon="-4.628367">
        <ele>1726.0</ele>
        <time>2016-06-11T15:28:04Z</time>
      </trkpt>
      <trkpt lat="40.533500" lon="-4.628367">
        <ele>1727.0</ele>
        <time>2016-06-11T15:28:05Z</time>
      </trkpt>
      <trkpt lat="40.533500" lon="-4.628350">
        <ele>1728.0</ele>
        <time>2016-06-11T15:28:06Z</time>
      </trkpt>
      <trkpt lat="40.533483" lon="-4.628333">
        <ele>1729.0</ele>
        <time>2016-06-11T15:28:07Z</time>
      </trkpt>
      <trkpt lat="40.533467" lon="-4.628317">
        <ele>1728.0</ele>
        <time>2016-06-11T15:28:08Z</time>
      </trkpt>
      <trkpt lat="40.533467" lon="-4.628317">
        <ele>1726.0</ele>
        <time>2016-06-11T15:28:09Z</time>
      </trkpt>
      <trkpt lat="40.533483" lon="-4.628350">
        <ele>1724.0</ele>
        <time>2016-06-11T15:28:10Z</time>
      </trkpt>
      <trkpt lat="40.533500" lon="-4.628367">
        <ele>1723.0</ele>
        <time>2016-06-11T15:28:11Z</time>
      </trkpt>
      <trkpt lat="40.533517" lon="-4.628383">
        <ele>1725.0</ele>
        <time>2016-06-11T15:28:12Z</time>
      </trkpt>
      <trkpt lat="40.533517" lon="-4.628383">
        <ele>1726.0</ele>
        <time>2016-06-11T15:28:13Z</time>
      </trkpt>
      <trkpt lat="40.533517" lon="-4.628367">
        <ele>1727.0</ele>
        <time>2016-06-11T15:28:14Z</time>
      </trkpt>
      <trkpt lat="40.533517" lon="-4.628367">
        <ele>1726.0</ele>
        <time>2016-06-11T15:28:15Z</time>
      </trkpt>
      <trkpt lat="40.533517" lon="-4.628350">
        <ele>1726.0</ele>
        <time>2016-06-11T15:28:16Z</time>
      </trkpt>
      <trkpt lat="40.533517" lon="-4.628350">
        <ele>1724.0</ele>
        <time>2016-06-11T15:28:17Z</time>
      </trkpt>
      <trkpt lat="40.533517" lon="-4.628350">
        <ele>1722.0</ele>
        <time>2016-06-11T15:28:18Z</time>
      </trkpt>
      <trkpt lat="40.533517" lon="-4.628367">
        <ele>1720.0</ele>
        <time>2016-06-11T15:28:19Z</time>
      </trkpt>
      <trkpt lat="40.533500" lon="-4.628350">
        <ele>1720.0</ele>
        <time>2016-06-11T15:28:20Z</time>
      </trkpt>
      <trkpt lat="40.533483" lon="-4.628317">
        <ele>1719.0</ele>
        <time>2016-06-11T15:28:21Z</time>
      </trkpt>
      <trkpt lat="40.533500" lon="-4.628267">
        <ele>1718.0</ele>
        <time>2016-06-11T15:28:22Z</time>
      </trkpt>
      <trkpt lat="40.533517" lon="-4.628200">
        <ele>1714.0</ele>
        <time>2016-06-11T15:28:23Z</time>
      </trkpt>
      <trkpt lat="40.533550" lon="-4.628133">
        <ele>1711.0</ele>
        <time>2016-06-11T15:28:24Z</time>
      </trkpt>
      <trkpt lat="40.533583" lon="-4.628050">
        <ele>1710.0</ele>
        <time>2016-06-11T15:28:25Z</time>
      </trkpt>
      <trkpt lat="40.533617" lon="-4.627933">
        <ele>1710.0</ele>
        <time>2016-06-11T15:28:26Z</time>
      </trkpt>
      <trkpt lat="40.533633" lon="-4.627817">
        <ele>1710.0</ele>
        <time>2016-06-11T15:28:27Z</time>
      </trkpt>
      <trkpt lat="40.533667" lon="-4.627700">
        <ele>1709.0</ele>
        <time>2016-06-11T15:28:28Z</time>
      </trkpt>
      <trkpt lat="40.533683" lon="-4.627583">
        <ele>1708.0</ele>
        <time>2016-06-11T15:28:29Z</time>
      </trkpt>
      <trkpt lat="40.533717" lon="-4.627450">
        <ele>1707.0</ele>
        <time>2016-06-11T15:28:30Z</time>
      </trkpt>
      <trkpt lat="40.533750" lon="-4.627333">
        <ele>1705.0</ele>
        <time>2016-06-11T15:28:31Z</time>
      </trkpt>
      <trkpt lat="40.533783" lon="-4.627217">
        <ele>1704.0</ele>
        <time>2016-06-11T15:28:32Z</time>
      </trkpt>
      <trkpt lat="40.533817" lon="-4.627083">
        <ele>1704.0</ele>
        <time>2016-06-11T15:28:33Z</time>
      </trkpt>
      <trkpt lat="40.533850" lon="-4.626967">
        <ele>1703.0</ele>
        <time>2016-06-11T15:28:34Z</time>
      </trkpt>
      <trkpt lat="40.533883" lon="-4.626833">
        <ele>1702.0</ele>
        <time>2016-06-11T15:28:35Z</time>
      </trkpt>
      <trkpt lat="40.533917" lon="-4.626700">
        <ele>1701.0</ele>
        <time>2016-06-11T15:28:36Z</time>
      </trkpt>
      <trkpt lat="40.533950" lon="-4.626567">
        <ele>1700.0</ele>
        <time>2016-06-11T15:28:37Z</time>
      </trkpt>
      <trkpt lat="40.533967" lon="-4.626433">
        <ele>1698.0</ele>
        <time>2016-06-11T15:28:38Z</time>
      </trkpt>
      <trkpt lat="40.534000" lon="-4.626283">
        <ele>1698.0</ele>
        <time>2016-06-11T15:28:39Z</time>
      </trkpt>
      <trkpt lat="40.534017" lon="-4.626133">
        <ele>1697.0</ele>
        <time>2016-06-11T15:28:40Z</time>
      </trkpt>
      <trkpt lat="40.534033" lon="-4.625983">
        <ele>1697.0</ele>
        <time>2016-06-11T15:28:41Z</time>
      </trkpt>
      <trkpt lat="40.534033" lon="-4.625833">
        <ele>1696.0</ele>
        <time>2016-06-11T15:28:42Z</time>
      </trkpt>
      <trkpt lat="40.534033" lon="-4.625683">
        <ele>1695.0</ele>
        <time>2016-06-11T15:28:43Z</time>
      </trkpt>
      <trkpt lat="40.534017" lon="-4.625517">
        <ele>1694.0</ele>
        <time>2016-06-11T15:28:44Z</time>
      </trkpt>
      <trkpt lat="40.534033" lon="-4.625350">
        <ele>1693.0</ele>
        <time>2016-06-11T15:28:45Z</time>
      </trkpt>
      <trkpt lat="40.534017" lon="-4.625167">
        <ele>1691.0</ele>
        <time>2016-06-11T15:28:46Z</time>
      </trkpt>
      <trkpt lat="40.534000" lon="-4.625000">
        <ele>1690.0</ele>
        <time>2016-06-11T15:28:47Z</time>
      </trkpt>
      <trkpt lat="40.534000" lon="-4.624817">
        <ele>1690.0</ele>
        <time>2016-06-11T15:28:48Z</time>
      </trkpt>
      <trkpt lat="40.533967" lon="-4.624633">
        <ele>1690.0</ele>
        <time>2016-06-11T15:28:49Z</time>
      </trkpt>
      <trkpt lat="40.533950" lon="-4.624450">
        <ele>1689.0</ele>
        <time>2016-06-11T15:28:50Z</time>
      </trkpt>
      <trkpt lat="40.533933" lon="-4.624267">
        <ele>1687.0</ele>
        <time>2016-06-11T15:28:51Z</time>
      </trkpt>
      <trkpt lat="40.533933" lon="-4.624100">
        <ele>1686.0</ele>
        <time>2016-06-11T15:28:52Z</time>
      </trkpt>
      <trkpt lat="40.533950" lon="-4.623917">
        <ele>1687.0</ele>
        <time>2016-06-11T15:28:53Z</time>
      </trkpt>
      <trkpt lat="40.533950" lon="-4.623750">
        <ele>1688.0</ele>
        <time>2016-06-11T15:28:54Z</time>
      </trkpt>
      <trkpt lat="40.533967" lon="-4.623567">
        <ele>1687.0</ele>
        <time>2016-06-11T15:28:55Z</time>
      </trkpt>
      <trkpt lat="40.533967" lon="-4.623400">
        <ele>1685.0</ele>
        <time>2016-06-11T15:28:56Z</time>
      </trkpt>
      <trkpt lat="40.533967" lon="-4.623250">
        <ele>1684.0</ele>
        <time>2016-06-11T15:28:57Z</time>
      </trkpt>
      <trkpt lat="40.533983" lon="-4.623067">
        <ele>1682.0</ele>
        <time>2016-06-11T15:28:58Z</time>
      </trkpt>
      <trkpt lat="40.534000" lon="-4.622900">
        <ele>1680.0</ele>
        <time>2016-06-11T15:28:59Z</time>
      </trkpt>
      <trkpt lat="40.534017" lon="-4.622733">
        <ele>1678.0</ele>
        <time>2016-06-11T15:29:00Z</time>
      </trkpt>
      <trkpt lat="40.534050" lon="-4.622567">
        <ele>1677.0</ele>
        <time>2016-06-11T15:29:01Z</time>
      </trkpt>
      <trkpt lat="40.534100" lon="-4.622467">
        <ele>1674.0</ele>
        <time>2016-06-11T15:29:02Z</time>
      </trkpt>
      <trkpt lat="40.534167" lon="-4.622383">
        <ele>1668.0</ele>
        <time>2016-06-11T15:29:03Z</time>
      </trkpt>
      <trkpt lat="40.534200" lon="-4.622233">
        <ele>1662.0</ele>
        <time>2016-06-11T15:29:04Z</time>
      </trkpt>
      <trkpt lat="40.534233" lon="-4.622050">
        <ele>1660.0</ele>
        <time>2016-06-11T15:29:05Z</time>
      </trkpt>
      <trkpt lat="40.534250" lon="-4.621850">
        <ele>1660.0</ele>
        <time>2016-06-11T15:29:06Z</time>
      </trkpt>
      <trkpt lat="40.534267" lon="-4.621667">
        <ele>1659.0</ele>
        <time>2016-06-11T15:29:07Z</time>
      </trkpt>
      <trkpt lat="40.534267" lon="-4.621517">
        <ele>1659.0</ele>
        <time>2016-06-11T15:29:08Z</time>
      </trkpt>
      <trkpt lat="40.534267" lon="-4.621350">
        <ele>1660.0</ele>
        <time>2016-06-11T15:29:09Z</time>
      </trkpt>
      <trkpt lat="40.534250" lon="-4.621183">
        <ele>1660.0</ele>
        <time>2016-06-11T15:29:10Z</time>
      </trkpt>
      <trkpt lat="40.534233" lon="-4.621033">
        <ele>1659.0</ele>
        <time>2016-06-11T15:29:11Z</time>
      </trkpt>
      <trkpt lat="40.534233" lon="-4.620883">
        <ele>1658.0</ele>
        <time>2016-06-11T15:29:12Z</time>
      </trkpt>
      <trkpt lat="40.534233" lon="-4.620733">
        <ele>1656.0</ele>
        <time>2016-06-11T15:29:13Z</time>
      </trkpt>
      <trkpt lat="40.534217" lon="-4.620567">
        <ele>1655.0</ele>
        <time>2016-06-11T15:29:14Z</time>
      </trkpt>
      <trkpt lat="40.534183" lon="-4.620383">
        <ele>1654.0</ele>
        <time>2016-06-11T15:29:15Z</time>
      </trkpt>
      <trkpt lat="40.534150" lon="-4.620200">
        <ele>1653.0</ele>
        <time>2016-06-11T15:29:16Z</time>
      </trkpt>
      <trkpt lat="40.534150" lon="-4.620050">
        <ele>1652.0</ele>
        <time>2016-06-11T15:29:17Z</time>
      </trkpt>
      <trkpt lat="40.534133" lon="-4.619883">
        <ele>1652.0</ele>
        <time>2016-06-11T15:29:18Z</time>
      </trkpt>
      <trkpt lat="40.534117" lon="-4.619717">
        <ele>1651.0</ele>
        <time>2016-06-11T15:29:19Z</time>
      </trkpt>
      <trkpt lat="40.534067" lon="-4.619550">
        <ele>1649.0</ele>
        <time>2016-06-11T15:29:20Z</time>
      </trkpt>
      <trkpt lat="40.534017" lon="-4.619367">
        <ele>1647.0</ele>
        <time>2016-06-11T15:29:21Z</time>
      </trkpt>
      <trkpt lat="40.533983" lon="-4.619200">
        <ele>1645.0</ele>
        <time>2016-06-11T15:29:22Z</time>
      </trkpt>
      <trkpt lat="40.533967" lon="-4.619033">
        <ele>1642.0</ele>
        <time>2016-06-11T15:29:23Z</time>
      </trkpt>
      <trkpt lat="40.533950" lon="-4.618867">
        <ele>1640.0</ele>
        <time>2016-06-11T15:29:24Z</time>
      </trkpt>
      <trkpt lat="40.533883" lon="-4.618683">
        <ele>1640.0</ele>
        <time>2016-06-11T15:29:25Z</time>
      </trkpt>
      <trkpt lat="40.533817" lon="-4.618517">
        <ele>1641.0</ele>
        <time>2016-06-11T15:29:26Z</time>
      </trkpt>
      <trkpt lat="40.533767" lon="-4.618367">
        <ele>1640.0</ele>
        <time>2016-06-11T15:29:27Z</time>
      </trkpt>
      <trkpt lat="40.533733" lon="-4.618233">
        <ele>1638.0</ele>
        <time>2016-06-11T15:29:28Z</time>
      </trkpt>
      <trkpt lat="40.533700" lon="-4.618083">
        <ele>1637.0</ele>
        <time>2016-06-11T15:29:29Z</time>
      </trkpt>
      <trkpt lat="40.533667" lon="-4.617933">
        <ele>1636.0</ele>
        <time>2016-06-11T15:29:30Z</time>
      </trkpt>
      <trkpt lat="40.533633" lon="-4.617783">
        <ele>1634.0</ele>
        <time>2016-06-11T15:29:31Z</time>
      </trkpt>
      <trkpt lat="40.533617" lon="-4.617633">
        <ele>1631.0</ele>
        <time>2016-06-11T15:29:32Z</time>
      </trkpt>
      <trkpt lat="40.533617" lon="-4.617483">
        <ele>1628.0</ele>
        <time>2016-06-11T15:29:33Z</time>
      </trkpt>
      <trkpt lat="40.533617" lon="-4.617350">
        <ele>1626.0</ele>
        <time>2016-06-11T15:29:34Z</time>
      </trkpt>
      <trkpt lat="40.533617" lon="-4.617217">
        <ele>1625.0</ele>
        <time>2016-06-11T15:29:35Z</time>
      </trkpt>
      <trkpt lat="40.533617" lon="-4.617100">
        <ele>1624.0</ele>
        <time>2016-06-11T15:29:36Z</time>
      </trkpt>
      <trkpt lat="40.533617" lon="-4.616983">
        <ele>1622.0</ele>
        <time>2016-06-11T15:29:37Z</time>
      </trkpt>
      <trkpt lat="40.533617" lon="-4.616850">
        <ele>1620.0</ele>
        <time>2016-06-11T15:29:38Z</time>
      </trkpt>
      <trkpt lat="40.533650" lon="-4.616700">
        <ele>1618.0</ele>
        <time>2016-06-11T15:29:39Z</time>
      </trkpt>
      <trkpt lat="40.533650" lon="-4.616567">
        <ele>1619.0</ele>
        <time>2016-06-11T15:29:40Z</time>
      </trkpt>
      <trkpt lat="40.533650" lon="-4.616433">
        <ele>1619.0</ele>
        <time>2016-06-11T15:29:41Z</time>
      </trkpt>
      <trkpt lat="40.533633" lon="-4.616317">
        <ele>1619.0</ele>
        <time>2016-06-11T15:29:42Z</time>
      </trkpt>
      <trkpt lat="40.533617" lon="-4.616167">
        <ele>1617.0</ele>
        <time>2016-06-11T15:29:43Z</time>
      </trkpt>
      <trkpt lat="40.533583" lon="-4.616000">
        <ele>1613.0</ele>
        <time>2016-06-11T15:29:44Z</time>
      </trkpt>
      <trkpt lat="40.533583" lon="-4.615833">
        <ele>1609.0</ele>
        <time>2016-06-11T15:29:45Z</time>
      </trkpt>
      <trkpt lat="40.533567" lon="-4.615650">
        <ele>1605.0</ele>
        <time>2016-06-11T15:29:46Z</time>
      </trkpt>
      <trkpt lat="40.533550" lon="-4.615500">
        <ele>1603.0</ele>
        <time>2016-06-11T15:29:47Z</time>
      </trkpt>
      <trkpt lat="40.533533" lon="-4.615350">
        <ele>1600.0</ele>
        <time>2016-06-11T15:29:48Z</time>
      </trkpt>
      <trkpt lat="40.533533" lon="-4.615200">
        <ele>1597.0</ele>
        <time>2016-06-11T15:29:49Z</time>
      </trkpt>
      <trkpt lat="40.533533" lon="-4.615050">
        <ele>1593.0</ele>
        <time>2016-06-11T15:29:50Z</time>
      </trkpt>
      <trkpt lat="40.533533" lon="-4.614900">
        <ele>1589.0</ele>
        <time>2016-06-11T15:29:51Z</time>
      </trkpt>
      <trkpt lat="40.533533" lon="-4.614733">
        <ele>1587.0</ele>
        <time>2016-06-11T15:29:52Z</time>
      </trkpt>
      <trkpt lat="40.533533" lon="-4.614583">
        <ele>1585.0</ele>
        <time>2016-06-11T15:29:53Z</time>
      </trkpt>
      <trkpt lat="40.533517" lon="-4.614433">
        <ele>1583.0</ele>
        <time>2016-06-11T15:29:54Z</time>
      </trkpt>
      <trkpt lat="40.533517" lon="-4.614300">
        <ele>1582.0</ele>
        <time>2016-06-11T15:29:55Z</time>
      </trkpt>
      <trkpt lat="40.533517" lon="-4.614150">
        <ele>1579.0</ele>
        <time>2016-06-11T15:29:56Z</time>
      </trkpt>
      <trkpt lat="40.533533" lon="-4.614033">
        <ele>1577.0</ele>
        <time>2016-06-11T15:29:57Z</time>
      </trkpt>
      <trkpt lat="40.533550" lon="-4.613917">
        <ele>1574.0</ele>
        <time>2016-06-11T15:29:58Z</time>
      </trkpt>
      <trkpt lat="40.533567" lon="-4.613800">
        <ele>1571.0</ele>
        <time>2016-06-11T15:29:59Z</time>
      </trkpt>
      <trkpt lat="40.533583" lon="-4.613650">
        <ele>1568.0</ele>
        <time>2016-06-11T15:30:00Z</time>
      </trkpt>
      <trkpt lat="40.533583" lon="-4.613483">
        <ele>1566.0</ele>
        <time>2016-06-11T15:30:01Z</time>
      </trkpt>
      <trkpt lat="40.533567" lon="-4.613317">
        <ele>1564.0</ele>
        <time>2016-06-11T15:30:02Z</time>
      </trkpt>
      <trkpt lat="40.533567" lon="-4.613167">
        <ele>1562.0</ele>
        <time>2016-06-11T15:30:03Z</time>
      </trkpt>
      <trkpt lat="40.533567" lon="-4.613033">
        <ele>1559.0</ele>
        <time>2016-06-11T15:30:04Z</time>
      </trkpt>
      <trkpt lat="40.533583" lon="-4.612883">
        <ele>1555.0</ele>
        <time>2016-06-11T15:30:05Z</time>
      </trkpt>
      <trkpt lat="40.533600" lon="-4.612733">
        <ele>1552.0</ele>
        <time>2016-06-11T15:30:06Z</time>
      </trkpt>
      <trkpt lat="40.533617" lon="-4.612550">
        <ele>1550.0</ele>
        <time>2016-06-11T15:30:07Z</time>
      </trkpt>
      <trkpt lat="40.533600" lon="-4.612383">
        <ele>1549.0</ele>
        <time>2016-06-11T15:30:08Z</time>
      </trkpt>
      <trkpt lat="40.533600" lon="-4.612233">
        <ele>1548.0</ele>
        <time>2016-06-11T15:30:09Z</time>
      </trkpt>
      <trkpt lat="40.533583" lon="-4.612100">
        <ele>1546.0</ele>
        <time>2016-06-11T15:30:10Z</time>
      </trkpt>
      <trkpt lat="40.533567" lon="-4.611967">
        <ele>1544.0</ele>
        <time>2016-06-11T15:30:11Z</time>
      </trkpt>
      <trkpt lat="40.533567" lon="-4.611817">
        <ele>1541.0</ele>
        <time>2016-06-11T15:30:12Z</time>
      </trkpt>
      <trkpt lat="40.533567" lon="-4.611667">
        <ele>1538.0</ele>
        <time>2016-06-11T15:30:13Z</time>
      </trkpt>
      <trkpt lat="40.533583" lon="-4.611517">
        <ele>1537.0</ele>
        <time>2016-06-11T15:30:14Z</time>
      </trkpt>
      <trkpt lat="40.533567" lon="-4.611383">
        <ele>1537.0</ele>
        <time>2016-06-11T15:30:15Z</time>
      </trkpt>
      <trkpt lat="40.533567" lon="-4.611250">
        <ele>1537.0</ele>
        <time>2016-06-11T15:30:16Z</time>
      </trkpt>
      <trkpt lat="40.533567" lon="-4.611117">
        <ele>1535.0</ele>
        <time>2016-06-11T15:30:17Z</time>
      </trkpt>
      <trkpt lat="40.533550" lon="-4.611000">
        <ele>1533.0</ele>
        <time>2016-06-11T15:30:18Z</time>
      </trkpt>
      <trkpt lat="40.533550" lon="-4.610867">
        <ele>1530.0</ele>
        <time>2016-06-11T15:30:19Z</time>
      </trkpt>
      <trkpt lat="40.533550" lon="-4.610717">
        <ele>1526.0</ele>
        <time>2016-06-11T15:30:20Z</time>
      </trkpt>
      <trkpt lat="40.533550" lon="-4.610550">
        <ele>1522.0</ele>
        <time>2016-06-11T15:30:21Z</time>
      </trkpt>
      <trkpt lat="40.533533" lon="-4.610383">
        <ele>1519.0</ele>
        <time>2016-06-11T15:30:22Z</time>
      </trkpt>
      <trkpt lat="40.533517" lon="-4.610217">
        <ele>1516.0</ele>
        <time>2016-06-11T15:30:23Z</time>
      </trkpt>
      <trkpt lat="40.533517" lon="-4.610067">
        <ele>1513.0</ele>
        <time>2016-06-11T15:30:24Z</time>
      </trkpt>
      <trkpt lat="40.533517" lon="-4.609917">
        <ele>1510.0</ele>
        <time>2016-06-11T15:30:25Z</time>
      </trkpt>
      <trkpt lat="40.533517" lon="-4.609767">
        <ele>1507.0</ele>
        <time>2016-06-11T15:30:26Z</time>
      </trkpt>
      <trkpt lat="40.533533" lon="-4.609633">
        <ele>1503.0</ele>
        <time>2016-06-11T15:30:27Z</time>
      </trkpt>
      <trkpt lat="40.533533" lon="-4.609500">
        <ele>1500.0</ele>
        <time>2016-06-11T15:30:28Z</time>
      </trkpt>
      <trkpt lat="40.533517" lon="-4.609350">
        <ele>1496.0</ele>
        <time>2016-06-11T15:30:29Z</time>
      </trkpt>
      <trkpt lat="40.533517" lon="-4.609233">
        <ele>1492.0</ele>
        <time>2016-06-11T15:30:30Z</time>
      </trkpt>
      <trkpt lat="40.533517" lon="-4.609100">
        <ele>1488.0</ele>
        <time>2016-06-11T15:30:31Z</time>
      </trkpt>
      <trkpt lat="40.533533" lon="-4.608983">
        <ele>1483.0</ele>
        <time>2016-06-11T15:30:32Z</time>
      </trkpt>
      <trkpt lat="40.533550" lon="-4.608850">
        <ele>1478.0</ele>
        <time>2016-06-11T15:30:33Z</time>
      </trkpt>
      <trkpt lat="40.533550" lon="-4.608700">
        <ele>1473.0</ele>
        <time>2016-06-11T15:30:34Z</time>
      </trkpt>
      <trkpt lat="40.533567" lon="-4.608533">
        <ele>1469.0</ele>
        <time>2016-06-11T15:30:35Z</time>
      </trkpt>
      <trkpt lat="40.533583" lon="-4.608367">
        <ele>1466.0</ele>
        <time>2016-06-11T15:30:36Z</time>
      </trkpt>
      <trkpt lat="40.533583" lon="-4.608200">
        <ele>1463.0</ele>
        <time>2016-06-11T15:30:37Z</time>
      </trkpt>
      <trkpt lat="40.533583" lon="-4.608050">
        <ele>1461.0</ele>
        <time>2016-06-11T15:30:38Z</time>
      </trkpt>
      <trkpt lat="40.533583" lon="-4.607917">
        <ele>1457.0</ele>
        <time>2016-06-11T15:30:39Z</time>
      </trkpt>
      <trkpt lat="40.533583" lon="-4.607767">
        <ele>1454.0</ele>
        <time>2016-06-11T15:30:40Z</time>
      </trkpt>
      <trkpt lat="40.533583" lon="-4.607600">
        <ele>1450.0</ele>
        <time>2016-06-11T15:30:41Z</time>
      </trkpt>
      <trkpt lat="40.533583" lon="-4.607450">
        <ele>1447.0</ele>
        <time>2016-06-11T15:30:42Z</time>
      </trkpt>
      <trkpt lat="40.533583" lon="-4.607300">
        <ele>1444.0</ele>
        <time>2016-06-11T15:30:43Z</time>
      </trkpt>
      <trkpt lat="40.533583" lon="-4.607167">
        <ele>1441.0</ele>
        <time>2016-06-11T15:30:44Z</time>
      </trkpt>
      <trkpt lat="40.533600" lon="-4.607017">
        <ele>1437.0</ele>
        <time>2016-06-11T15:30:45Z</time>
      </trkpt>
      <trkpt lat="40.533617" lon="-4.606867">
        <ele>1434.0</ele>
        <time>2016-06-11T15:30:46Z</time>
      </trkpt>
      <trkpt lat="40.533650" lon="-4.606717">
        <ele>1430.0</ele>
        <time>2016-06-11T15:30:47Z</time>
      </trkpt>
      <trkpt lat="40.533683" lon="-4.606567">
        <ele>1427.0</ele>
        <time>2016-06-11T15:30:48Z</time>
      </trkpt>
      <trkpt lat="40.533717" lon="-4.606433">
        <ele>1425.0</ele>
        <time>2016-06-11T15:30:49Z</time>
      </trkpt>
      <trkpt lat="40.533733" lon="-4.606300">
        <ele>1422.0</ele>
        <time>2016-06-11T15:30:50Z</time>
      </trkpt>
      <trkpt lat="40.533750" lon="-4.606150">
        <ele>1419.0</ele>
        <time>2016-06-11T15:30:51Z</time>
      </trkpt>
      <trkpt lat="40.533750" lon="-4.606017">
        <ele>1415.0</ele>
        <time>2016-06-11T15:30:52Z</time>
      </trkpt>
      <trkpt lat="40.533767" lon="-4.605883">
        <ele>1411.0</ele>
        <time>2016-06-11T15:30:53Z</time>
      </trkpt>
      <trkpt lat="40.533783" lon="-4.605733">
        <ele>1406.0</ele>
        <time>2016-06-11T15:30:54Z</time>
      </trkpt>
      <trkpt lat="40.533817" lon="-4.605583">
        <ele>1403.0</ele>
        <time>2016-06-11T15:30:55Z</time>
      </trkpt>
      <trkpt lat="40.533833" lon="-4.605433">
        <ele>1400.0</ele>
        <time>2016-06-11T15:30:56Z</time>
      </trkpt>
      <trkpt lat="40.533833" lon="-4.605300">
        <ele>1397.0</ele>
        <time>2016-06-11T15:30:57Z</time>
      </trkpt>
      <trkpt lat="40.533833" lon="-4.605150">
        <ele>1395.0</ele>
        <time>2016-06-11T15:30:58Z</time>
      </trkpt>
      <trkpt lat="40.533833" lon="-4.605017">
        <ele>1392.0</ele>
        <time>2016-06-11T15:30:59Z</time>
      </trkpt>
      <trkpt lat="40.533833" lon="-4.604883">
        <ele>1390.0</ele>
        <time>2016-06-11T15:31:00Z</time>
      </trkpt>
      <trkpt lat="40.533833" lon="-4.604767">
        <ele>1387.0</ele>
        <time>2016-06-11T15:31:01Z</time>
      </trkpt>
      <trkpt lat="40.533817" lon="-4.604633">
        <ele>1382.0</ele>
        <time>2016-06-11T15:31:02Z</time>
      </trkpt>
      <trkpt lat="40.533817" lon="-4.604483">
        <ele>1378.0</ele>
        <time>2016-06-11T15:31:03Z</time>
      </trkpt>
      <trkpt lat="40.533783" lon="-4.604333">
        <ele>1373.0</ele>
        <time>2016-06-11T15:31:04Z</time>
      </trkpt>
      <trkpt lat="40.533750" lon="-4.604150">
        <ele>1369.0</ele>
        <time>2016-06-11T15:31:05Z</time>
      </trkpt>
      <trkpt lat="40.533683" lon="-4.603983">
        <ele>1365.0</ele>
        <time>2016-06-11T15:31:06Z</time>
      </trkpt>
      <trkpt lat="40.533617" lon="-4.603817">
        <ele>1362.0</ele>
        <time>2016-06-11T15:31:07Z</time>
      </trkpt>
      <trkpt lat="40.533567" lon="-4.603667">
        <ele>1360.0</ele>
        <time>2016-06-11T15:31:08Z</time>
      </trkpt>
      <trkpt lat="40.533500" lon="-4.603550">
        <ele>1358.0</ele>
        <time>2016-06-11T15:31:09Z</time>
      </trkpt>
      <trkpt lat="40.533433" lon="-4.603433">
        <ele>1355.0</ele>
        <time>2016-06-11T15:31:10Z</time>
      </trkpt>
      <trkpt lat="40.533367" lon="-4.603300">
        <ele>1349.0</ele>
        <time>2016-06-11T15:31:11Z</time>
      </trkpt>
      <trkpt lat="40.533283" lon="-4.603133">
        <ele>1342.0</ele>
        <time>2016-06-11T15:31:12Z</time>
      </trkpt>
      <trkpt lat="40.533200" lon="-4.602950">
        <ele>1336.0</ele>
        <time>2016-06-11T15:31:13Z</time>
      </trkpt>
      <trkpt lat="40.533133" lon="-4.602767">
        <ele>1333.0</ele>
        <time>2016-06-11T15:31:14Z</time>
      </trkpt>
      <trkpt lat="40.533067" lon="-4.602600">
        <ele>1330.0</ele>
        <time>2016-06-11T15:31:15Z</time>
      </trkpt>
      <trkpt lat="40.532983" lon="-4.602433">
        <ele>1326.0</ele>
        <time>2016-06-11T15:31:16Z</time>
      </trkpt>
      <trkpt lat="40.532917" lon="-4.602283">
        <ele>1322.0</ele>
        <time>2016-06-11T15:31:17Z</time>
      </trkpt>
      <trkpt lat="40.532833" lon="-4.602117">
        <ele>1317.0</ele>
        <time>2016-06-11T15:31:18Z</time>
      </trkpt>
      <trkpt lat="40.532767" lon="-4.601950">
        <ele>1313.0</ele>
        <time>2016-06-11T15:31:19Z</time>
      </trkpt>
      <trkpt lat="40.532683" lon="-4.601767">
        <ele>1310.0</ele>
        <time>2016-06-11T15:31:20Z</time>
      </trkpt>
      <trkpt lat="40.532617" lon="-4.601617">
        <ele>1307.0</ele>
        <time>2016-06-11T15:31:21Z</time>
      </trkpt>
      <trkpt lat="40.532567" lon="-4.601483">
        <ele>1304.0</ele>
        <time>2016-06-11T15:31:22Z</time>
      </trkpt>
      <trkpt lat="40.532483" lon="-4.601350">
        <ele>1299.0</ele>
        <time>2016-06-11T15:31:23Z</time>
      </trkpt>
      <trkpt lat="40.532400" lon="-4.601200">
        <ele>1294.0</ele>
        <time>2016-06-11T15:31:24Z</time>
      </trkpt>
      <trkpt lat="40.532300" lon="-4.601050">
        <ele>1288.0</ele>
        <time>2016-06-11T15:31:25Z</time>
      </trkpt>
      <trkpt lat="40.532200" lon="-4.600883">
        <ele>1283.0</ele>
        <time>2016-06-11T15:31:26Z</time>
      </trkpt>
      <trkpt lat="40.532117" lon="-4.600733">
        <ele>1281.0</ele>
        <time>2016-06-11T15:31:27Z</time>
      </trkpt>
      <trkpt lat="40.532033" lon="-4.600600">
        <ele>1278.0</ele>
        <time>2016-06-11T15:31:28Z</time>
      </trkpt>
      <trkpt lat="40.531967" lon="-4.600467">
        <ele>1276.0</ele>
        <time>2016-06-11T15:31:29Z</time>
      </trkpt>
      <trkpt lat="40.531883" lon="-4.600333">
        <ele>1272.0</ele>
        <time>2016-06-11T15:31:30Z</time>
      </trkpt>
      <trkpt lat="40.531800" lon="-4.600183">
        <ele>1267.0</ele>
        <time>2016-06-11T15:31:31Z</time>
      </trkpt>
      <trkpt lat="40.531733" lon="-4.600017">
        <ele>1264.0</ele>
        <time>2016-06-11T15:31:32Z</time>
      </trkpt>
      <trkpt lat="40.531650" lon="-4.599883">
        <ele>1263.0</ele>
        <time>2016-06-11T15:31:33Z</time>
      </trkpt>
      <trkpt lat="40.531583" lon="-4.599750">
        <ele>1264.0</ele>
        <time>2016-06-11T15:31:34Z</time>
      </trkpt>
      <trkpt lat="40.531517" lon="-4.599650">
        <ele>1264.0</ele>
        <time>2016-06-11T15:31:35Z</time>
      </trkpt>
      <trkpt lat="40.531433" lon="-4.599550">
        <ele>1263.0</ele>
        <time>2016-06-11T15:31:36Z</time>
      </trkpt>
      <trkpt lat="40.531350" lon="-4.599450">
        <ele>1262.0</ele>
        <time>2016-06-11T15:31:37Z</time>
      </trkpt>
      <trkpt lat="40.531267" lon="-4.599367">
        <ele>1260.0</ele>
        <time>2016-06-11T15:31:38Z</time>
      </trkpt>
      <trkpt lat="40.531183" lon="-4.599283">
        <ele>1258.0</ele>
        <time>2016-06-11T15:31:39Z</time>
      </trkpt>
      <trkpt lat="40.531133" lon="-4.599183">
        <ele>1255.0</ele>
        <time>2016-06-11T15:31:40Z</time>
      </trkpt>
      <trkpt lat="40.531100" lon="-4.599050">
        <ele>1252.0</ele>
        <time>2016-06-11T15:31:41Z</time>
      </trkpt>
      <trkpt lat="40.531067" lon="-4.598900">
        <ele>1248.0</ele>
        <time>2016-06-11T15:31:42Z</time>
      </trkpt>
      <trkpt lat="40.531017" lon="-4.598783">
        <ele>1246.0</ele>
        <time>2016-06-11T15:31:43Z</time>
      </trkpt>
      <trkpt lat="40.530950" lon="-4.598700">
        <ele>1244.0</ele>
        <time>2016-06-11T15:31:44Z</time>
      </trkpt>
      <trkpt lat="40.530867" lon="-4.598617">
        <ele>1240.0</ele>
        <time>2016-06-11T15:31:45Z</time>
      </trkpt>
      <trkpt lat="40.530817" lon="-4.598500">
        <ele>1235.0</ele>
        <time>2016-06-11T15:31:46Z</time>
      </trkpt>
      <trkpt lat="40.530767" lon="-4.598367">
        <ele>1232.0</ele>
        <time>2016-06-11T15:31:47Z</time>
      </trkpt>
      <trkpt lat="40.530717" lon="-4.598250">
        <ele>1230.0</ele>
        <time>2016-06-11T15:31:48Z</time>
      </trkpt>
      <trkpt lat="40.530700" lon="-4.598150">
        <ele>1229.0</ele>
        <time>2016-06-11T15:31:49Z</time>
      </trkpt>
      <trkpt lat="40.530667" lon="-4.598067">
        <ele>1228.0</ele>
        <time>2016-06-11T15:31:50Z</time>
      </trkpt>
      <trkpt lat="40.530633" lon="-4.597967">
        <ele>1227.0</ele>
        <time>2016-06-11T15:31:51Z</time>
      </trkpt>
      <trkpt lat="40.530600" lon="-4.597850">
        <ele>1225.0</ele>
        <time>2016-06-11T15:31:52Z</time>
      </trkpt>
      <trkpt lat="40.530567" lon="-4.597717">
        <ele>1224.0</ele>
        <time>2016-06-11T15:31:53Z</time>
      </trkpt>
      <trkpt lat="40.530533" lon="-4.597567">
        <ele>1224.0</ele>
        <time>2016-06-11T15:31:54Z</time>
      </trkpt>
      <trkpt lat="40.530517" lon="-4.597433">
        <ele>1225.0</ele>
        <time>2016-06-11T15:31:55Z</time>
      </trkpt>
      <trkpt lat="40.530500" lon="-4.597333">
        <ele>1226.0</ele>
        <time>2016-06-11T15:31:56Z</time>
      </trkpt>
      <trkpt lat="40.530483" lon="-4.597233">
        <ele>1226.0</ele>
        <time>2016-06-11T15:31:57Z</time>
      </trkpt>
      <trkpt lat="40.530467" lon="-4.597133">
        <ele>1224.0</ele>
        <time>2016-06-11T15:31:58Z</time>
      </trkpt>
      <trkpt lat="40.530450" lon="-4.597017">
        <ele>1222.0</ele>
        <time>2016-06-11T15:31:59Z</time>
      </trkpt>
      <trkpt lat="40.530417" lon="-4.596900">
        <ele>1220.0</ele>
        <time>2016-06-11T15:32:00Z</time>
      </trkpt>
      <trkpt lat="40.530400" lon="-4.596800">
        <ele>1217.0</ele>
        <time>2016-06-11T15:32:01Z</time>
      </trkpt>
      <trkpt lat="40.530400" lon="-4.596717">
        <ele>1215.0</ele>
        <time>2016-06-11T15:32:02Z</time>
      </trkpt>
      <trkpt lat="40.530400" lon="-4.596617">
        <ele>1211.0</ele>
        <time>2016-06-11T15:32:03Z</time>
      </trkpt>
      <trkpt lat="40.530400" lon="-4.596517">
        <ele>1207.0</ele>
        <time>2016-06-11T15:32:04Z</time>
      </trkpt>
      <trkpt lat="40.530400" lon="-4.596383">
        <ele>1203.0</ele>
        <time>2016-06-11T15:32:05Z</time>
      </trkpt>
      <trkpt lat="40.530400" lon="-4.596233">
        <ele>1199.0</ele>
        <time>2016-06-11T15:32:06Z</time>
      </trkpt>
      <trkpt lat="40.530367" lon="-4.596083">
        <ele>1196.0</ele>
        <time>2016-06-11T15:32:07Z</time>
      </trkpt>
      <trkpt lat="40.530317" lon="-4.595950">
        <ele>1194.0</ele>
        <time>2016-06-11T15:32:08Z</time>
      </trkpt>
      <trkpt lat="40.530267" lon="-4.595800">
        <ele>1193.0</ele>
        <time>2016-06-11T15:32:09Z</time>
      </trkpt>
      <trkpt lat="40.530233" lon="-4.595650">
        <ele>1193.0</ele>
        <time>2016-06-11T15:32:10Z</time>
      </trkpt>
      <trkpt lat="40.530183" lon="-4.595500">
        <ele>1193.0</ele>
        <time>2016-06-11T15:32:11Z</time>
      </trkpt>
      <trkpt lat="40.530133" lon="-4.595367">
        <ele>1193.0</ele>
        <time>2016-06-11T15:32:12Z</time>
      </trkpt>
      <trkpt lat="40.530100" lon="-4.595233">
        <ele>1191.0</ele>
        <time>2016-06-11T15:32:13Z</time>
      </trkpt>
      <trkpt lat="40.530050" lon="-4.595100">
        <ele>1188.0</ele>
        <time>2016-06-11T15:32:14Z</time>
      </trkpt>
      <trkpt lat="40.529983" lon="-4.594983">
        <ele>1185.0</ele>
        <time>2016-06-11T15:32:15Z</time>
      </trkpt>
      <trkpt lat="40.529917" lon="-4.594850">
        <ele>1181.0</ele>
        <time>2016-06-11T15:32:16Z</time>
      </trkpt>
      <trkpt lat="40.529867" lon="-4.594717">
        <ele>1177.0</ele>
        <time>2016-06-11T15:32:17Z</time>
      </trkpt>
      <trkpt lat="40.529817" lon="-4.594567">
        <ele>1173.0</ele>
        <time>2016-06-11T15:32:18Z</time>
      </trkpt>
      <trkpt lat="40.529783" lon="-4.594450">
        <ele>1168.0</ele>
        <time>2016-06-11T15:32:19Z</time>
      </trkpt>
      <trkpt lat="40.529733" lon="-4.594333">
        <ele>1161.0</ele>
        <time>2016-06-11T15:32:20Z</time>
      </trkpt>
      <trkpt lat="40.529667" lon="-4.594217">
        <ele>1154.0</ele>
        <time>2016-06-11T15:32:21Z</time>
      </trkpt>
      <trkpt lat="40.529583" lon="-4.594117">
        <ele>1146.0</ele>
        <time>2016-06-11T15:32:22Z</time>
      </trkpt>
      <trkpt lat="40.529483" lon="-4.594017">
        <ele>1138.0</ele>
        <time>2016-06-11T15:32:23Z</time>
      </trkpt>
      <trkpt lat="40.529400" lon="-4.593933">
        <ele>1133.0</ele>
        <time>2016-06-11T15:32:24Z</time>
      </trkpt>
      <trkpt lat="40.529333" lon="-4.593883">
        <ele>1128.0</ele>
        <time>2016-06-11T15:32:25Z</time>
      </trkpt>
      <trkpt lat="40.529250" lon="-4.593850">
        <ele>1124.0</ele>
        <time>2016-06-11T15:32:26Z</time>
      </trkpt>
      <trkpt lat="40.529167" lon="-4.593850">
        <ele>1119.0</ele>
        <time>2016-06-11T15:32:27Z</time>
      </trkpt>
      <trkpt lat="40.529083" lon="-4.593833">
        <ele>1115.0</ele>
        <time>2016-06-11T15:32:28Z</time>
      </trkpt>
      <trkpt lat="40.528983" lon="-4.593800">
        <ele>1111.0</ele>
        <time>2016-06-11T15:32:29Z</time>
      </trkpt>
      <trkpt lat="40.528917" lon="-4.593750">
        <ele>1109.0</ele>
        <time>2016-06-11T15:32:30Z</time>
      </trkpt>
      <trkpt lat="40.528867" lon="-4.593683">
        <ele>1107.0</ele>
        <time>2016-06-11T15:32:31Z</time>
      </trkpt>
      <trkpt lat="40.528817" lon="-4.593617">
        <ele>1104.0</ele>
        <time>2016-06-11T15:32:32Z</time>
      </trkpt>
      <trkpt lat="40.528783" lon="-4.593567">
        <ele>1100.0</ele>
        <time>2016-06-11T15:32:33Z</time>
      </trkpt>
      <trkpt lat="40.528700" lon="-4.593550">
        <ele>1095.0</ele>
        <time>2016-06-11T15:32:34Z</time>
      </trkpt>
      <trkpt lat="40.528600" lon="-4.593583">
        <ele>1088.0</ele>
        <time>2016-06-11T15:32:35Z</time>
      </trkpt>
      <trkpt lat="40.528483" lon="-4.593650">
        <ele>1084.0</ele>
        <time>2016-06-11T15:32:36Z</time>
      </trkpt>
      <trkpt lat="40.528383" lon="-4.593717">
        <ele>1080.0</ele>
        <time>2016-06-11T15:32:37Z</time>
      </trkpt>
      <trkpt lat="40.528300" lon="-4.593750">
        <ele>1078.0</ele>
        <time>2016-06-11T15:32:38Z</time>
      </trkpt>
      <trkpt lat="40.528217" lon="-4.593767">
        <ele>1079.0</ele>
        <time>2016-06-11T15:32:39Z</time>
      </trkpt>
      <trkpt lat="40.528133" lon="-4.593817">
        <ele>1080.0</ele>
        <time>2016-06-11T15:32:40Z</time>
      </trkpt>
      <trkpt lat="40.528050" lon="-4.593867">
        <ele>1080.0</ele>
        <time>2016-06-11T15:32:41Z</time>
      </trkpt>
      <trkpt lat="40.527950" lon="-4.593917">
        <ele>1079.0</ele>
        <time>2016-06-11T15:32:42Z</time>
      </trkpt>
      <trkpt lat="40.527833" lon="-4.593983">
        <ele>1079.0</ele>
        <time>2016-06-11T15:32:43Z</time>
      </trkpt>
      <trkpt lat="40.527717" lon="-4.594033">
        <ele>1080.0</ele>
        <time>2016-06-11T15:32:44Z</time>
      </trkpt>
      <trkpt lat="40.527617" lon="-4.594083">
        <ele>1081.0</ele>
        <time>2016-06-11T15:32:45Z</time>
      </trkpt>
      <trkpt lat="40.527517" lon="-4.594117">
        <ele>1081.0</ele>
        <time>2016-06-11T15:32:46Z</time>
      </trkpt>
      <trkpt lat="40.527417" lon="-4.594133">
        <ele>1081.0</ele>
        <time>2016-06-11T15:32:47Z</time>
      </trkpt>
      <trkpt lat="40.527300" lon="-4.594167">
        <ele>1080.0</ele>
        <time>2016-06-11T15:32:48Z</time>
      </trkpt>
      <trkpt lat="40.527200" lon="-4.594183">
        <ele>1079.0</ele>
        <time>2016-06-11T15:32:49Z</time>
      </trkpt>
      <trkpt lat="40.527083" lon="-4.594233">
        <ele>1079.0</ele>
        <time>2016-06-11T15:32:50Z</time>
      </trkpt>
      <trkpt lat="40.527017" lon="-4.594300">
        <ele>1080.0</ele>
        <time>2016-06-11T15:32:51Z</time>
      </trkpt>
      <trkpt lat="40.526950" lon="-4.594383">
        <ele>1081.0</ele>
        <time>2016-06-11T15:32:52Z</time>
      </trkpt>
      <trkpt lat="40.526900" lon="-4.594483">
        <ele>1082.0</ele>
        <time>2016-06-11T15:32:53Z</time>
      </trkpt>
      <trkpt lat="40.526867" lon="-4.594583">
        <ele>1082.0</ele>
        <time>2016-06-11T15:32:54Z</time>
      </trkpt>
      <trkpt lat="40.526850" lon="-4.594700">
        <ele>1081.0</ele>
        <time>2016-06-11T15:32:55Z</time>
      </trkpt>
      <trkpt lat="40.526833" lon="-4.594800">
        <ele>1082.0</ele>
        <time>2016-06-11T15:32:56Z</time>
      </trkpt>
      <trkpt lat="40.526833" lon="-4.594883">
        <ele>1083.0</ele>
        <time>2016-06-11T15:32:57Z</time>
      </trkpt>
      <trkpt lat="40.526833" lon="-4.594950">
        <ele>1084.0</ele>
        <time>2016-06-11T15:32:58Z</time>
      </trkpt>
      <trkpt lat="40.526833" lon="-4.595000">
        <ele>1085.0</ele>
        <time>2016-06-11T15:32:59Z</time>
      </trkpt>
      <trkpt lat="40.526850" lon="-4.595017">
        <ele>1085.0</ele>
        <time>2016-06-11T15:33:00Z</time>
      </trkpt>
      <trkpt lat="40.526883" lon="-4.595017">
        <ele>1085.0</ele>
        <time>2016-06-11T15:33:01Z</time>
      </trkpt>
      <trkpt lat="40.526900" lon="-4.594983">
        <ele>1084.0</ele>
        <time>2016-06-11T15:33:02Z</time>
      </trkpt>
      <trkpt lat="40.526917" lon="-4.594917">
        <ele>1083.0</ele>
        <time>2016-06-11T15:33:03Z</time>
      </trkpt>
      <trkpt lat="40.526917" lon="-4.594817">
        <ele>1083.0</ele>
        <time>2016-06-11T15:33:04Z</time>
      </trkpt>
      <trkpt lat="40.526867" lon="-4.594733">
        <ele>1085.0</ele>
        <time>2016-06-11T15:33:05Z</time>
      </trkpt>
      <trkpt lat="40.526817" lon="-4.594650">
        <ele>1086.0</ele>
        <time>2016-06-11T15:33:06Z</time>
      </trkpt>
      <trkpt lat="40.526750" lon="-4.594567">
        <ele>1086.0</ele>
        <time>2016-06-11T15:33:07Z</time>
      </trkpt>
      <trkpt lat="40.526683" lon="-4.594500">
        <ele>1086.0</ele>
        <time>2016-06-11T15:33:08Z</time>
      </trkpt>
      <trkpt lat="40.526600" lon="-4.594417">
        <ele>1085.0</ele>
        <time>2016-06-11T15:33:09Z</time>
      </trkpt>
      <trkpt lat="40.526533" lon="-4.594333">
        <ele>1085.0</ele>
        <time>2016-06-11T15:33:10Z</time>
      </trkpt>
      <trkpt lat="40.526450" lon="-4.594283">
        <ele>1085.0</ele>
        <time>2016-06-11T15:33:11Z</time>
      </trkpt>
      <trkpt lat="40.526350" lon="-4.594217">
        <ele>1084.0</ele>
        <time>2016-06-11T15:33:12Z</time>
      </trkpt>
      <trkpt lat="40.526250" lon="-4.594167">
        <ele>1084.0</ele>
        <time>2016-06-11T15:33:13Z</time>
      </trkpt>
      <trkpt lat="40.526150" lon="-4.594117">
        <ele>1085.0</ele>
        <time>2016-06-11T15:33:14Z</time>
      </trkpt>
      <trkpt lat="40.526050" lon="-4.594050">
        <ele>1087.0</ele>
        <time>2016-06-11T15:33:15Z</time>
      </trkpt>
      <trkpt lat="40.525967" lon="-4.594000">
        <ele>1090.0</ele>
        <time>2016-06-11T15:33:16Z</time>
      </trkpt>
      <trkpt lat="40.525867" lon="-4.593933">
        <ele>1093.0</ele>
        <time>2016-06-11T15:33:17Z</time>
      </trkpt>
      <trkpt lat="40.525783" lon="-4.593900">
        <ele>1094.0</ele>
        <time>2016-06-11T15:33:18Z</time>
      </trkpt>
      <trkpt lat="40.525683" lon="-4.593883">
        <ele>1095.0</ele>
        <time>2016-06-11T15:33:19Z</time>
      </trkpt>
      <trkpt lat="40.525567" lon="-4.593917">
        <ele>1094.0</ele>
        <time>2016-06-11T15:33:20Z</time>
      </trkpt>
      <trkpt lat="40.525483" lon="-4.593967">
        <ele>1096.0</ele>
        <time>2016-06-11T15:33:21Z</time>
      </trkpt>
      <trkpt lat="40.525433" lon="-4.594033">
        <ele>1097.0</ele>
        <time>2016-06-11T15:33:22Z</time>
      </trkpt>
      <trkpt lat="40.525383" lon="-4.594083">
        <ele>1099.0</ele>
        <time>2016-06-11T15:33:23Z</time>
      </trkpt>
      <trkpt lat="40.525350" lon="-4.594133">
        <ele>1101.0</ele>
        <time>2016-06-11T15:33:24Z</time>
      </trkpt>
      <trkpt lat="40.525300" lon="-4.594167">
        <ele>1101.0</ele>
        <time>2016-06-11T15:33:25Z</time>
      </trkpt>
      <trkpt lat="40.525267" lon="-4.594217">
        <ele>1102.0</ele>
        <time>2016-06-11T15:33:26Z</time>
      </trkpt>
      <trkpt lat="40.525233" lon="-4.594267">
        <ele>1102.0</ele>
        <time>2016-06-11T15:33:27Z</time>
      </trkpt>
      <trkpt lat="40.525183" lon="-4.594333">
        <ele>1103.0</ele>
        <time>2016-06-11T15:33:28Z</time>
      </trkpt>
      <trkpt lat="40.525133" lon="-4.594383">
        <ele>1104.0</ele>
        <time>2016-06-11T15:33:29Z</time>
      </trkpt>
      <trkpt lat="40.525083" lon="-4.594433">
        <ele>1105.0</ele>
        <time>2016-06-11T15:33:30Z</time>
      </trkpt>
      <trkpt lat="40.525050" lon="-4.594483">
        <ele>1105.0</ele>
        <time>2016-06-11T15:33:31Z</time>
      </trkpt>
      <trkpt lat="40.525050" lon="-4.594550">
        <ele>1105.0</ele>
        <time>2016-06-11T15:33:32Z</time>
      </trkpt>
      <trkpt lat="40.525067" lon="-4.594617">
        <ele>1104.0</ele>
        <time>2016-06-11T15:33:33Z</time>
      </trkpt>
      <trkpt lat="40.525100" lon="-4.594667">
        <ele>1103.0</ele>
        <time>2016-06-11T15:33:34Z</time>
      </trkpt>
      <trkpt lat="40.525133" lon="-4.594667">
        <ele>1103.0</ele>
        <time>2016-06-11T15:33:35Z</time>
      </trkpt>
      <trkpt lat="40.525167" lon="-4.594617">
        <ele>1103.0</ele>
        <time>2016-06-11T15:33:36Z</time>
      </trkpt>
      <trkpt lat="40.525183" lon="-4.594500">
        <ele>1102.0</ele>
        <time>2016-06-11T15:33:37Z</time>
      </trkpt>
      <trkpt lat="40.525150" lon="-4.594383">
        <ele>1103.0</ele>
        <time>2016-06-11T15:33:38Z</time>
      </trkpt>
      <trkpt lat="40.525100" lon="-4.594267">
        <ele>1104.0</ele>
        <time>2016-06-11T15:33:39Z</time>
      </trkpt>
      <trkpt lat="40.525050" lon="-4.594167">
        <ele>1106.0</ele>
        <time>2016-06-11T15:33:40Z</time>
      </trkpt>
      <trkpt lat="40.524983" lon="-4.594083">
        <ele>1107.0</ele>
        <time>2016-06-11T15:33:41Z</time>
      </trkpt>
      <trkpt lat="40.524900" lon="-4.594000">
        <ele>1108.0</ele>
        <time>2016-06-11T15:33:42Z</time>
      </trkpt>
      <trkpt lat="40.524800" lon="-4.593933">
        <ele>1108.0</ele>
        <time>2016-06-11T15:33:43Z</time>
      </trkpt>
      <trkpt lat="40.524683" lon="-4.593867">
        <ele>1110.0</ele>
        <time>2016-06-11T15:33:44Z</time>
      </trkpt>
      <trkpt lat="40.524583" lon="-4.593833">
        <ele>1112.0</ele>
        <time>2016-06-11T15:33:45Z</time>
      </trkpt>
      <trkpt lat="40.524483" lon="-4.593800">
        <ele>1113.0</ele>
        <time>2016-06-11T15:33:46Z</time>
      </trkpt>
      <trkpt lat="40.524383" lon="-4.593767">
        <ele>1113.0</ele>
        <time>2016-06-11T15:33:47Z</time>
      </trkpt>
      <trkpt lat="40.524283" lon="-4.593733">
        <ele>1113.0</ele>
        <time>2016-06-11T15:33:48Z</time>
      </trkpt>
      <trkpt lat="40.524150" lon="-4.593717">
        <ele>1114.0</ele>
        <time>2016-06-11T15:33:49Z</time>
      </trkpt>
      <trkpt lat="40.524017" lon="-4.593733">
        <ele>1116.0</ele>
        <time>2016-06-11T15:33:50Z</time>
      </trkpt>
      <trkpt lat="40.523917" lon="-4.593767">
        <ele>1118.0</ele>
        <time>2016-06-11T15:33:51Z</time>
      </trkpt>
      <trkpt lat="40.523817" lon="-4.593833">
        <ele>1120.0</ele>
        <time>2016-06-11T15:33:52Z</time>
      </trkpt>
      <trkpt lat="40.523717" lon="-4.593883">
        <ele>1121.0</ele>
        <time>2016-06-11T15:33:53Z</time>
      </trkpt>
      <trkpt lat="40.523633" lon="-4.593950">
        <ele>1119.0</ele>
        <time>2016-06-11T15:33:54Z</time>
      </trkpt>
      <trkpt lat="40.523550" lon="-4.594017">
        <ele>1116.0</ele>
        <time>2016-06-11T15:33:55Z</time>
      </trkpt>
      <trkpt lat="40.523467" lon="-4.594083">
        <ele>1112.0</ele>
        <time>2016-06-11T15:33:56Z</time>
      </trkpt>
      <trkpt lat="40.523417" lon="-4.594150">
        <ele>1108.0</ele>
        <time>2016-06-11T15:33:57Z</time>
      </trkpt>
      <trkpt lat="40.523383" lon="-4.594217">
        <ele>1102.0</ele>
        <time>2016-06-11T15:33:58Z</time>
      </trkpt>
      <trkpt lat="40.523367" lon="-4.594283">
        <ele>1097.0</ele>
        <time>2016-06-11T15:33:59Z</time>
      </trkpt>
      <trkpt lat="40.523367" lon="-4.594333">
        <ele>1092.0</ele>
        <time>2016-06-11T15:34:00Z</time>
      </trkpt>
      <trkpt lat="40.523367" lon="-4.594383">
        <ele>1087.0</ele>
        <time>2016-06-11T15:34:01Z</time>
      </trkpt>
      <trkpt lat="40.523383" lon="-4.594433">
        <ele>1083.0</ele>
        <time>2016-06-11T15:34:02Z</time>
      </trkpt>
      <trkpt lat="40.523383" lon="-4.594450">
        <ele>1080.0</ele>
        <time>2016-06-11T15:34:03Z</time>
      </trkpt>
      <trkpt lat="40.523367" lon="-4.594500">
        <ele>1076.0</ele>
        <time>2016-06-11T15:34:04Z</time>
      </trkpt>
      <trkpt lat="40.523317" lon="-4.594533">
        <ele>1072.0</ele>
        <time>2016-06-11T15:34:05Z</time>
      </trkpt>
      <trkpt lat="40.523250" lon="-4.594583">
        <ele>1068.0</ele>
        <time>2016-06-11T15:34:06Z</time>
      </trkpt>
      <trkpt lat="40.523167" lon="-4.594633">
        <ele>1065.0</ele>
        <time>2016-06-11T15:34:07Z</time>
      </trkpt>
      <trkpt lat="40.523067" lon="-4.594650">
        <ele>1062.0</ele>
        <time>2016-06-11T15:34:08Z</time>
      </trkpt>
      <trkpt lat="40.522950" lon="-4.594633">
        <ele>1060.0</ele>
        <time>2016-06-11T15:34:09Z</time>
      </trkpt>
      <trkpt lat="40.522833" lon="-4.594617">
        <ele>1057.0</ele>
        <time>2016-06-11T15:34:10Z</time>
      </trkpt>
      <trkpt lat="40.522717" lon="-4.594600">
        <ele>1054.0</ele>
        <time>2016-06-11T15:34:11Z</time>
      </trkpt>
      <trkpt lat="40.522600" lon="-4.594600">
        <ele>1050.0</ele>
        <time>2016-06-11T15:34:12Z</time>
      </trkpt>
      <trkpt lat="40.522500" lon="-4.594617">
        <ele>1045.0</ele>
        <time>2016-06-11T15:34:13Z</time>
      </trkpt>
      <trkpt lat="40.522417" lon="-4.594667">
        <ele>1041.0</ele>
        <time>2016-06-11T15:34:14Z</time>
      </trkpt>
      <trkpt lat="40.522333" lon="-4.594717">
        <ele>1038.0</ele>
        <time>2016-06-11T15:34:15Z</time>
      </trkpt>
      <trkpt lat="40.522250" lon="-4.594750">
        <ele>1036.0</ele>
        <time>2016-06-11T15:34:16Z</time>
      </trkpt>
      <trkpt lat="40.522167" lon="-4.594800">
        <ele>1033.0</ele>
        <time>2016-06-11T15:34:17Z</time>
      </trkpt>
      <trkpt lat="40.522100" lon="-4.594850">
        <ele>1031.0</ele>
        <time>2016-06-11T15:34:18Z</time>
      </trkpt>
      <trkpt lat="40.522050" lon="-4.594933">
        <ele>1028.0</ele>
        <time>2016-06-11T15:34:19Z</time>
      </trkpt>
      <trkpt lat="40.522017" lon="-4.595017">
        <ele>1026.0</ele>
        <time>2016-06-11T15:34:20Z</time>
      </trkpt>
      <trkpt lat="40.522000" lon="-4.595100">
        <ele>1025.0</ele>
        <time>2016-06-11T15:34:21Z</time>
      </trkpt>
      <trkpt lat="40.522000" lon="-4.595150">
        <ele>1024.0</ele>
        <time>2016-06-11T15:34:22Z</time>
      </trkpt>
      <trkpt lat="40.522000" lon="-4.595200">
        <ele>1023.0</ele>
        <time>2016-06-11T15:34:23Z</time>
      </trkpt>
      <trkpt lat="40.522000" lon="-4.595233">
        <ele>1021.0</ele>
        <time>2016-06-11T15:34:24Z</time>
      </trkpt>
      <trkpt lat="40.522000" lon="-4.595233">
        <ele>1021.0</ele>
        <time>2016-06-11T15:34:25Z</time>
      </trkpt>
      <trkpt lat="40.522000" lon="-4.595217">
        <ele>1021.0</ele>
        <time>2016-06-11T15:34:26Z</time>
      </trkpt>
      <trkpt lat="40.522000" lon="-4.595217">
        <ele>1021.0</ele>
        <time>2016-06-11T15:34:27Z</time>
      </trkpt>
      <trkpt lat="40.522000" lon="-4.595200">
        <ele>1021.0</ele>
        <time>2016-06-11T15:34:28Z</time>
      </trkpt>
      <trkpt lat="40.522000" lon="-4.595200">
        <ele>1021.0</ele>
        <time>2016-06-11T15:34:29Z</time>
      </trkpt>
      <trkpt lat="40.522000" lon="-4.595217">
        <ele>1020.0</ele>
        <time>2016-06-11T15:34:30Z</time>
      </trkpt>
      <trkpt lat="40.522000" lon="-4.595217">
        <ele>1021.0</ele>
        <time>2016-06-11T15:34:31Z</time>
      </trkpt>
      <trkpt lat="40.522017" lon="-4.595217">
        <ele>1021.0</ele>
        <time>2016-06-11T15:34:32Z</time>
      </trkpt>
      <trkpt lat="40.522017" lon="-4.595217">
        <ele>1021.0</ele>
        <time>2016-06-11T15:34:33Z</time>
      </trkpt>
      <trkpt lat="40.522000" lon="-4.595217">
        <ele>1020.0</ele>
        <time>2016-06-11T15:34:34Z</time>
      </trkpt>
      <trkpt lat="40.522000" lon="-4.595217">
        <ele>1019.0</ele>
        <time>2016-06-11T15:34:35Z</time>
      </trkpt>
      <trkpt lat="40.522000" lon="-4.595217">
        <ele>1019.0</ele>
        <time>2016-06-11T15:34:36Z</time>
      </trkpt>
      <trkpt lat="40.522000" lon="-4.595217">
        <ele>1019.0</ele>
        <time>2016-06-11T15:34:37Z</time>
      </trkpt>
      <trkpt lat="40.522000" lon="-4.595217">
        <ele>1019.0</ele>
        <time>2016-06-11T15:34:38Z</time>
      </trkpt>
      <trkpt lat="40.522000" lon="-4.595217">
        <ele>1019.0</ele>
        <time>2016-06-11T15:34:39Z</time>
      </trkpt>
      <trkpt lat="40.522000" lon="-4.595200">
        <ele>1020.0</ele>
        <time>2016-06-11T15:34:40Z</time>
      </trkpt>
      <trkpt lat="40.522017" lon="-4.595217">
        <ele>1019.0</ele>
        <time>2016-06-11T15:34:41Z</time>
      </trkpt>
      <trkpt lat="40.522017" lon="-4.595217">
        <ele>1018.0</ele>
        <time>2016-06-11T15:34:42Z</time>
      </trkpt>
      <trkpt lat="40.522017" lon="-4.595200">
        <ele>1018.0</ele>
        <time>2016-06-11T15:34:43Z</time>
      </trkpt>
      <trkpt lat="40.522000" lon="-4.595200">
        <ele>1018.0</ele>
        <time>2016-06-11T15:34:44Z</time>
      </trkpt>
      <trkpt lat="40.522000" lon="-4.595200">
        <ele>1018.0</ele>
        <time>2016-06-11T15:34:45Z</time>
      </trkpt>
      <trkpt lat="40.522000" lon="-4.595200">
        <ele>1018.0</ele>
        <time>2016-06-11T15:34:46Z</time>
      </trkpt>
      <trkpt lat="40.522000" lon="-4.595200">
        <ele>1019.0</ele>
        <time>2016-06-11T15:34:47Z</time>
      </trkpt>
      <trkpt lat="40.521983" lon="-4.595200">
        <ele>1019.0</ele>
        <time>2016-06-11T15:34:48Z</time>
      </trkpt>
      <trkpt lat="40.521983" lon="-4.595200">
        <ele>1020.0</ele>
        <time>2016-06-11T15:34:49Z</time>
      </trkpt>
      <trkpt lat="40.521983" lon="-4.595200">
        <ele>1021.0</ele>
        <time>2016-06-11T15:34:50Z</time>
      </trkpt>
      <trkpt lat="40.522000" lon="-4.595200">
        <ele>1022.0</ele>
        <time>2016-06-11T15:34:51Z</time>
      </trkpt>
      <trkpt lat="40.522000" lon="-4.595200">
        <ele>1022.0</ele>
        <time>2016-06-11T15:34:52Z</time>
      </trkpt>
      <trkpt lat="40.522000" lon="-4.595200">
        <ele>1022.0</ele>
        <time>2016-06-11T15:34:53Z</time>
      </trkpt>
      <trkpt lat="40.521983" lon="-4.595183">
        <ele>1022.0</ele>
        <time>2016-06-11T15:34:54Z</time>
      </trkpt>
      <trkpt lat="40.521983" lon="-4.595200">
        <ele>1022.0</ele>
        <time>2016-06-11T15:34:55Z</time>
      </trkpt>
      <trkpt lat="40.521983" lon="-4.595200">
        <ele>1022.0</ele>
        <time>2016-06-11T15:34:56Z</time>
      </trkpt>
      <trkpt lat="40.521983" lon="-4.595200">
        <ele>1022.0</ele>
        <time>2016-06-11T15:34:57Z</time>
      </trkpt>
      <trkpt lat="40.521983" lon="-4.595200">
        <ele>1021.0</ele>
        <time>2016-06-11T15:34:58Z</time>
      </trkpt>
      <trkpt lat="40.521983" lon="-4.595200">
        <ele>1021.0</ele>
        <time>2016-06-11T15:34:59Z</time>
      </trkpt>
      <trkpt lat="40.521983" lon="-4.595200">
        <ele>1021.0</ele>
        <time>2016-06-11T15:35:00Z</time>
      </trkpt>
      <trkpt lat="40.521983" lon="-4.595200">
        <ele>1021.0</ele>
        <time>2016-06-11T15:35:01Z</time>
      </trkpt>
      <trkpt lat="40.521983" lon="-4.595200">
        <ele>1021.0</ele>
        <time>2016-06-11T15:35:02Z</time>
      </trkpt>
      <trkpt lat="40.521983" lon="-4.595200">
        <ele>1020.0</ele>
        <time>2016-06-11T15:35:03Z</time>
      </trkpt>
      <trkpt lat="40.521983" lon="-4.595200">
        <ele>1020.0</ele>
        <time>2016-06-11T15:35:04Z</time>
      </trkpt>
      <trkpt lat="40.521983" lon="-4.595200">
        <ele>1021.0</ele>
        <time>2016-06-11T15:35:05Z</time>
      </trkpt>
      <trkpt lat="40.521983" lon="-4.595200">
        <ele>1021.0</ele>
        <time>2016-06-11T15:35:06Z</time>
      </trkpt>
      <trkpt lat="40.521983" lon="-4.595200">
        <ele>1022.0</ele>
        <time>2016-06-11T15:35:07Z</time>
      </trkpt>
      <trkpt lat="40.521983" lon="-4.595200">
        <ele>1022.0</ele>
        <time>2016-06-11T15:35:08Z</time>
      </trkpt>
      <trkpt lat="40.521983" lon="-4.595200">
        <ele>1022.0</ele>
        <time>2016-06-11T15:35:09Z</time>
      </trkpt>
      <trkpt lat="40.521983" lon="-4.595200">
        <ele>1022.0</ele>
        <time>2016-06-11T15:35:10Z</time>
      </trkpt>
      <trkpt lat="40.521983" lon="-4.595200">
        <ele>1022.0</ele>
        <time>2016-06-11T15:35:11Z</time>
      </trkpt>
      <trkpt lat="40.521983" lon="-4.595200">
        <ele>1022.0</ele>
        <time>2016-06-11T15:35:12Z</time>
      </trkpt>
      <trkpt lat="40.521983" lon="-4.595200">
        <ele>1021.0</ele>
        <time>2016-06-11T15:35:13Z</time>
      </trkpt>
      <trkpt lat="40.521983" lon="-4.595200">
        <ele>1021.0</ele>
        <time>2016-06-11T15:35:14Z</time>
      </trkpt>
      <trkpt lat="40.521983" lon="-4.595200">
        <ele>1021.0</ele>
        <time>2016-06-11T15:35:15Z</time>
      </trkpt>
      <trkpt lat="40.521983" lon="-4.595200">
        <ele>1021.0</ele>
        <time>2016-06-11T15:35:16Z</time>
      </trkpt>
      <trkpt lat="40.521983" lon="-4.595200">
        <ele>1021.0</ele>
        <time>2016-06-11T15:35:17Z</time>
      </trkpt>
      <trkpt lat="40.521983" lon="-4.595200">
        <ele>1021.0</ele>
        <time>2016-06-11T15:35:18Z</time>
      </trkpt>
      <trkpt lat="40.521983" lon="-4.595200">
        <ele>1021.0</ele>
        <time>2016-06-11T15:35:19Z</time>
      </trkpt>
      <trkpt lat="40.521983" lon="-4.595200">
        <ele>1021.0</ele>
        <time>2016-06-11T15:35:20Z</time>
      </trkpt>
      <trkpt lat="40.521983" lon="-4.595200">
        <ele>1021.0</ele>
        <time>2016-06-11T15:35:21Z</time>
      </trkpt>
      <trkpt lat="40.521983" lon="-4.595200">
        <ele>1021.0</ele>
        <time>2016-06-11T15:35:22Z</time>
      </trkpt>
      <trkpt lat="40.521983" lon="-4.595200">
        <ele>1022.0</ele>
        <time>2016-06-11T15:35:23Z</time>
      </trkpt>
      <trkpt lat="40.521983" lon="-4.595183">
        <ele>1022.0</ele>
        <time>2016-06-11T15:35:24Z</time>
      </trkpt>
      <trkpt lat="40.521983" lon="-4.595200">
        <ele>1022.0</ele>
        <time>2016-06-11T15:35:25Z</time>
      </trkpt>
      <trkpt lat="40.522000" lon="-4.595200">
        <ele>1023.0</ele>
        <time>2016-06-11T15:35:26Z</time>
      </trkpt>
      <trkpt lat="40.522000" lon="-4.595200">
        <ele>1022.0</ele>
        <time>2016-06-11T15:35:27Z</time>
      </trkpt>
      <trkpt lat="40.522000" lon="-4.595200">
        <ele>1023.0</ele>
        <time>2016-06-11T15:35:28Z</time>
      </trkpt>
      <trkpt lat="40.522000" lon="-4.595200">
        <ele>1023.0</ele>
        <time>2016-06-11T15:35:29Z</time>
      </trkpt>
      <trkpt lat="40.522000" lon="-4.595200">
        <ele>1022.0</ele>
        <time>2016-06-11T15:35:30Z</time>
      </trkpt>
      <trkpt lat="40.522000" lon="-4.595200">
        <ele>1023.0</ele>
        <time>2016-06-11T15:35:31Z</time>
      </trkpt>
      <trkpt lat="40.521983" lon="-4.595200">
        <ele>1023.0</ele>
        <time>2016-06-11T15:35:32Z</time>
      </trkpt>
      <trkpt lat="40.521983" lon="-4.595200">
        <ele>1023.0</ele>
        <time>2016-06-11T15:35:33Z</time>
      </trkpt>
      <trkpt lat="40.521983" lon="-4.595217">
        <ele>1023.0</ele>
        <time>2016-06-11T15:35:34Z</time>
      </trkpt>
      <trkpt lat="40.521967" lon="-4.595200">
        <ele>1023.0</ele>
        <time>2016-06-11T15:35:35Z</time>
      </trkpt>
      <trkpt lat="40.521967" lon="-4.595200">
        <ele>1023.0</ele>
        <time>2016-06-11T15:35:36Z</time>
      </trkpt>
    </trkseg>
  </trk>
</gpx>
